<?xml version="1.0" encoding="UTF-8" standalone="no" ?>
<gpx xmlns="http://www.topografix.com/GPX/1/1" xmlns:xsi="http://www.w3.org/2001/XMLSchema-instance" xsi:schemaLocation="http://www.topografix.com/GPX/1/1 http://www.topografix.com/GPX/1/1/gpx.xsd" version="1.1" creator="VisuGPX - https://www.visugpx.com">
  <metadata>
    <name>O Turini 3</name>
  </metadata>
  <trk>
    <name><![CDATA[O Turini 3_1]]></name>
    <trkseg>
      <trkpt lat="44.07344" lon="7.78316">
        <ele>1397</ele>
        <time>2017-09-17T15:23:27Z</time>
      </trkpt>
      <trkpt lat="44.07342" lon="7.78313">
        <ele>1398</ele>
        <time>2017-09-17T15:23:28Z</time>
      </trkpt>
      <trkpt lat="44.07339" lon="7.7831">
        <ele>1398</ele>
        <time>2017-09-17T15:23:29Z</time>
      </trkpt>
      <trkpt lat="44.07337" lon="7.78308">
        <ele>1398</ele>
        <time>2017-09-17T15:23:30Z</time>
      </trkpt>
      <trkpt lat="44.07335" lon="7.78305">
        <ele>1398</ele>
        <time>2017-09-17T15:23:31Z</time>
      </trkpt>
      <trkpt lat="44.07333" lon="7.78302">
        <ele>1399</ele>
        <time>2017-09-17T15:23:32Z</time>
      </trkpt>
      <trkpt lat="44.07331" lon="7.78299">
        <ele>1399</ele>
        <time>2017-09-17T15:23:33Z</time>
      </trkpt>
      <trkpt lat="44.07329" lon="7.78296">
        <ele>1399</ele>
        <time>2017-09-17T15:23:34Z</time>
      </trkpt>
      <trkpt lat="44.07328" lon="7.78292">
        <ele>1400</ele>
        <time>2017-09-17T15:23:35Z</time>
      </trkpt>
      <trkpt lat="44.07326" lon="7.78289">
        <ele>1400</ele>
        <time>2017-09-17T15:23:36Z</time>
      </trkpt>
      <trkpt lat="44.07325" lon="7.78286">
        <ele>1400</ele>
        <time>2017-09-17T15:23:37Z</time>
      </trkpt>
      <trkpt lat="44.07324" lon="7.78283">
        <ele>1400</ele>
        <time>2017-09-17T15:23:38Z</time>
      </trkpt>
      <trkpt lat="44.07322" lon="7.78279">
        <ele>1401</ele>
        <time>2017-09-17T15:23:39Z</time>
      </trkpt>
      <trkpt lat="44.07321" lon="7.78276">
        <ele>1401</ele>
        <time>2017-09-17T15:23:40Z</time>
      </trkpt>
      <trkpt lat="44.0732" lon="7.78273">
        <ele>1401</ele>
        <time>2017-09-17T15:23:41Z</time>
      </trkpt>
      <trkpt lat="44.07319" lon="7.78269">
        <ele>1402</ele>
        <time>2017-09-17T15:23:42Z</time>
      </trkpt>
      <trkpt lat="44.07317" lon="7.78266">
        <ele>1402</ele>
        <time>2017-09-17T15:23:43Z</time>
      </trkpt>
      <trkpt lat="44.07316" lon="7.78263">
        <ele>1402</ele>
        <time>2017-09-17T15:23:44Z</time>
      </trkpt>
      <trkpt lat="44.07315" lon="7.7826">
        <ele>1402</ele>
        <time>2017-09-17T15:23:45Z</time>
      </trkpt>
      <trkpt lat="44.07313" lon="7.78257">
        <ele>1403</ele>
        <time>2017-09-17T15:23:46Z</time>
      </trkpt>
      <trkpt lat="44.07312" lon="7.78253">
        <ele>1403</ele>
        <time>2017-09-17T15:23:47Z</time>
      </trkpt>
      <trkpt lat="44.07311" lon="7.7825">
        <ele>1403</ele>
        <time>2017-09-17T15:23:48Z</time>
      </trkpt>
      <trkpt lat="44.07309" lon="7.78247">
        <ele>1403</ele>
        <time>2017-09-17T15:23:49Z</time>
      </trkpt>
      <trkpt lat="44.07308" lon="7.78244">
        <ele>1404</ele>
        <time>2017-09-17T15:23:50Z</time>
      </trkpt>
      <trkpt lat="44.07307" lon="7.7824">
        <ele>1404</ele>
        <time>2017-09-17T15:23:51Z</time>
      </trkpt>
      <trkpt lat="44.07306" lon="7.78237">
        <ele>1404</ele>
        <time>2017-09-17T15:23:52Z</time>
      </trkpt>
      <trkpt lat="44.07305" lon="7.78233">
        <ele>1404</ele>
        <time>2017-09-17T15:23:53Z</time>
      </trkpt>
      <trkpt lat="44.07304" lon="7.78229">
        <ele>1405</ele>
        <time>2017-09-17T15:23:54Z</time>
      </trkpt>
      <trkpt lat="44.07303" lon="7.78225">
        <ele>1405</ele>
        <time>2017-09-17T15:23:55Z</time>
      </trkpt>
      <trkpt lat="44.07302" lon="7.78222">
        <ele>1405</ele>
        <time>2017-09-17T15:23:56Z</time>
      </trkpt>
      <trkpt lat="44.07301" lon="7.78218">
        <ele>1405</ele>
        <time>2017-09-17T15:23:57Z</time>
      </trkpt>
      <trkpt lat="44.073" lon="7.78214">
        <ele>1406</ele>
        <time>2017-09-17T15:23:58Z</time>
      </trkpt>
      <trkpt lat="44.07299" lon="7.7821">
        <ele>1406</ele>
        <time>2017-09-17T15:23:59Z</time>
      </trkpt>
      <trkpt lat="44.07299" lon="7.78206">
        <ele>1406</ele>
        <time>2017-09-17T15:24:00Z</time>
      </trkpt>
      <trkpt lat="44.07298" lon="7.78202">
        <ele>1406</ele>
        <time>2017-09-17T15:24:01Z</time>
      </trkpt>
      <trkpt lat="44.07297" lon="7.78198">
        <ele>1407</ele>
        <time>2017-09-17T15:24:02Z</time>
      </trkpt>
      <trkpt lat="44.07296" lon="7.78194">
        <ele>1407</ele>
        <time>2017-09-17T15:24:03Z</time>
      </trkpt>
      <trkpt lat="44.07296" lon="7.78191">
        <ele>1407</ele>
        <time>2017-09-17T15:24:04Z</time>
      </trkpt>
      <trkpt lat="44.07295" lon="7.78187">
        <ele>1407</ele>
        <time>2017-09-17T15:24:05Z</time>
      </trkpt>
      <trkpt lat="44.07295" lon="7.78183">
        <ele>1408</ele>
        <time>2017-09-17T15:24:06Z</time>
      </trkpt>
      <trkpt lat="44.07295" lon="7.78179">
        <ele>1408</ele>
        <time>2017-09-17T15:24:07Z</time>
      </trkpt>
      <trkpt lat="44.07295" lon="7.78175">
        <ele>1408</ele>
        <time>2017-09-17T15:24:08Z</time>
      </trkpt>
      <trkpt lat="44.07295" lon="7.78172">
        <ele>1408</ele>
        <time>2017-09-17T15:24:09Z</time>
      </trkpt>
      <trkpt lat="44.07295" lon="7.78168">
        <ele>1409</ele>
        <time>2017-09-17T15:24:10Z</time>
      </trkpt>
      <trkpt lat="44.07295" lon="7.78164">
        <ele>1409</ele>
        <time>2017-09-17T15:24:11Z</time>
      </trkpt>
      <trkpt lat="44.07295" lon="7.78161">
        <ele>1409</ele>
        <time>2017-09-17T15:24:12Z</time>
      </trkpt>
      <trkpt lat="44.07295" lon="7.78157">
        <ele>1409</ele>
        <time>2017-09-17T15:24:13Z</time>
      </trkpt>
      <trkpt lat="44.07295" lon="7.78154">
        <ele>1410</ele>
        <time>2017-09-17T15:24:14Z</time>
      </trkpt>
      <trkpt lat="44.07295" lon="7.7815">
        <ele>1410</ele>
        <time>2017-09-17T15:24:15Z</time>
      </trkpt>
      <trkpt lat="44.07295" lon="7.78147">
        <ele>1410</ele>
        <time>2017-09-17T15:24:16Z</time>
      </trkpt>
      <trkpt lat="44.07296" lon="7.78144">
        <ele>1411</ele>
        <time>2017-09-17T15:24:17Z</time>
      </trkpt>
      <trkpt lat="44.07296" lon="7.78141">
        <ele>1411</ele>
        <time>2017-09-17T15:24:18Z</time>
      </trkpt>
      <trkpt lat="44.07296" lon="7.78138">
        <ele>1412</ele>
        <time>2017-09-17T15:24:19Z</time>
      </trkpt>
      <trkpt lat="44.07296" lon="7.78135">
        <ele>1412</ele>
        <time>2017-09-17T15:24:20Z</time>
      </trkpt>
      <trkpt lat="44.07295" lon="7.78132">
        <ele>1412</ele>
        <time>2017-09-17T15:24:21Z</time>
      </trkpt>
      <trkpt lat="44.07295" lon="7.78128">
        <ele>1413</ele>
        <time>2017-09-17T15:24:22Z</time>
      </trkpt>
      <trkpt lat="44.07295" lon="7.78125">
        <ele>1413</ele>
        <time>2017-09-17T15:24:23Z</time>
      </trkpt>
      <trkpt lat="44.07295" lon="7.78121">
        <ele>1414</ele>
        <time>2017-09-17T15:24:24Z</time>
      </trkpt>
      <trkpt lat="44.07294" lon="7.78118">
        <ele>1414</ele>
        <time>2017-09-17T15:24:25Z</time>
      </trkpt>
      <trkpt lat="44.07294" lon="7.78115">
        <ele>1414</ele>
        <time>2017-09-17T15:24:26Z</time>
      </trkpt>
      <trkpt lat="44.07293" lon="7.78112">
        <ele>1415</ele>
        <time>2017-09-17T15:24:27Z</time>
      </trkpt>
      <trkpt lat="44.07293" lon="7.78109">
        <ele>1415</ele>
        <time>2017-09-17T15:24:28Z</time>
      </trkpt>
      <trkpt lat="44.07292" lon="7.78106">
        <ele>1416</ele>
        <time>2017-09-17T15:24:29Z</time>
      </trkpt>
      <trkpt lat="44.07291" lon="7.78102">
        <ele>1416</ele>
        <time>2017-09-17T15:24:30Z</time>
      </trkpt>
      <trkpt lat="44.07291" lon="7.78099">
        <ele>1416</ele>
        <time>2017-09-17T15:24:31Z</time>
      </trkpt>
      <trkpt lat="44.0729" lon="7.78096">
        <ele>1417</ele>
        <time>2017-09-17T15:24:32Z</time>
      </trkpt>
      <trkpt lat="44.07289" lon="7.78092">
        <ele>1417</ele>
        <time>2017-09-17T15:24:33Z</time>
      </trkpt>
      <trkpt lat="44.07288" lon="7.78089">
        <ele>1417</ele>
        <time>2017-09-17T15:24:34Z</time>
      </trkpt>
      <trkpt lat="44.07286" lon="7.78086">
        <ele>1418</ele>
        <time>2017-09-17T15:24:35Z</time>
      </trkpt>
      <trkpt lat="44.07285" lon="7.78082">
        <ele>1418</ele>
        <time>2017-09-17T15:24:36Z</time>
      </trkpt>
      <trkpt lat="44.07284" lon="7.78079">
        <ele>1418</ele>
        <time>2017-09-17T15:24:37Z</time>
      </trkpt>
      <trkpt lat="44.07282" lon="7.78076">
        <ele>1418</ele>
        <time>2017-09-17T15:24:38Z</time>
      </trkpt>
      <trkpt lat="44.07281" lon="7.78073">
        <ele>1418</ele>
        <time>2017-09-17T15:24:39Z</time>
      </trkpt>
      <trkpt lat="44.0728" lon="7.78071">
        <ele>1419</ele>
        <time>2017-09-17T15:24:40Z</time>
      </trkpt>
      <trkpt lat="44.07279" lon="7.78069">
        <ele>1419</ele>
        <time>2017-09-17T15:24:41Z</time>
      </trkpt>
      <trkpt lat="44.07279" lon="7.78069">
        <ele>1419</ele>
        <time>2017-09-17T15:24:42Z</time>
      </trkpt>
      <trkpt lat="44.07279" lon="7.78069">
        <ele>1419</ele>
        <time>2017-09-17T15:24:43Z</time>
      </trkpt>
      <trkpt lat="44.07279" lon="7.78068">
        <ele>1419</ele>
        <time>2017-09-17T15:24:44Z</time>
      </trkpt>
      <trkpt lat="44.07279" lon="7.78068">
        <ele>1420</ele>
        <time>2017-09-17T15:24:45Z</time>
      </trkpt>
      <trkpt lat="44.0728" lon="7.78067">
        <ele>1420</ele>
        <time>2017-09-17T15:24:46Z</time>
      </trkpt>
      <trkpt lat="44.0728" lon="7.78066">
        <ele>1420</ele>
        <time>2017-09-17T15:24:47Z</time>
      </trkpt>
      <trkpt lat="44.0728" lon="7.78066">
        <ele>1420</ele>
        <time>2017-09-17T15:24:48Z</time>
      </trkpt>
      <trkpt lat="44.0728" lon="7.78066">
        <ele>1421</ele>
        <time>2017-09-17T15:24:49Z</time>
      </trkpt>
      <trkpt lat="44.0728" lon="7.78066">
        <ele>1421</ele>
        <time>2017-09-17T15:24:50Z</time>
      </trkpt>
      <trkpt lat="44.0728" lon="7.78066">
        <ele>1421</ele>
        <time>2017-09-17T15:24:51Z</time>
      </trkpt>
      <trkpt lat="44.0728" lon="7.78066">
        <ele>1421</ele>
        <time>2017-09-17T15:24:52Z</time>
      </trkpt>
      <trkpt lat="44.0728" lon="7.78066">
        <ele>1422</ele>
        <time>2017-09-17T15:24:53Z</time>
      </trkpt>
      <trkpt lat="44.0728" lon="7.78066">
        <ele>1422</ele>
        <time>2017-09-17T15:24:54Z</time>
      </trkpt>
      <trkpt lat="44.0728" lon="7.78066">
        <ele>1422</ele>
        <time>2017-09-17T15:24:55Z</time>
      </trkpt>
      <trkpt lat="44.0728" lon="7.78066">
        <ele>1422</ele>
        <time>2017-09-17T15:24:56Z</time>
      </trkpt>
      <trkpt lat="44.0728" lon="7.78066">
        <ele>1422</ele>
        <time>2017-09-17T15:24:57Z</time>
      </trkpt>
      <trkpt lat="44.0728" lon="7.78066">
        <ele>1422</ele>
        <time>2017-09-17T15:24:58Z</time>
      </trkpt>
      <trkpt lat="44.0728" lon="7.78066">
        <ele>1422</ele>
        <time>2017-09-17T15:24:59Z</time>
      </trkpt>
      <trkpt lat="44.0728" lon="7.78066">
        <ele>1422</ele>
        <time>2017-09-17T15:25:00Z</time>
      </trkpt>
      <trkpt lat="44.0728" lon="7.78066">
        <ele>1422</ele>
        <time>2017-09-17T15:25:01Z</time>
      </trkpt>
      <trkpt lat="44.0728" lon="7.78066">
        <ele>1423</ele>
        <time>2017-09-17T15:25:02Z</time>
      </trkpt>
      <trkpt lat="44.0728" lon="7.78066">
        <ele>1423</ele>
        <time>2017-09-17T15:25:03Z</time>
      </trkpt>
      <trkpt lat="44.0728" lon="7.78066">
        <ele>1423</ele>
        <time>2017-09-17T15:25:04Z</time>
      </trkpt>
      <trkpt lat="44.0728" lon="7.78066">
        <ele>1423</ele>
        <time>2017-09-17T15:25:05Z</time>
      </trkpt>
      <trkpt lat="44.0728" lon="7.78066">
        <ele>1423</ele>
        <time>2017-09-17T15:25:06Z</time>
      </trkpt>
      <trkpt lat="44.0728" lon="7.78066">
        <ele>1423</ele>
        <time>2017-09-17T15:25:07Z</time>
      </trkpt>
      <trkpt lat="44.0728" lon="7.78066">
        <ele>1423</ele>
        <time>2017-09-17T15:25:08Z</time>
      </trkpt>
      <trkpt lat="44.0728" lon="7.78066">
        <ele>1423</ele>
        <time>2017-09-17T15:25:09Z</time>
      </trkpt>
      <trkpt lat="44.0728" lon="7.78066">
        <ele>1423</ele>
        <time>2017-09-17T15:25:10Z</time>
      </trkpt>
      <trkpt lat="44.0728" lon="7.78066">
        <ele>1423</ele>
        <time>2017-09-17T15:25:11Z</time>
      </trkpt>
      <trkpt lat="44.0728" lon="7.78066">
        <ele>1423</ele>
        <time>2017-09-17T15:25:12Z</time>
      </trkpt>
      <trkpt lat="44.0728" lon="7.78066">
        <ele>1423</ele>
        <time>2017-09-17T15:25:13Z</time>
      </trkpt>
      <trkpt lat="44.0728" lon="7.78066">
        <ele>1423</ele>
        <time>2017-09-17T15:25:14Z</time>
      </trkpt>
      <trkpt lat="44.0728" lon="7.78066">
        <ele>1423</ele>
        <time>2017-09-17T15:25:15Z</time>
      </trkpt>
      <trkpt lat="44.0728" lon="7.78066">
        <ele>1423</ele>
        <time>2017-09-17T15:25:16Z</time>
      </trkpt>
      <trkpt lat="44.0728" lon="7.78066">
        <ele>1423</ele>
        <time>2017-09-17T15:25:17Z</time>
      </trkpt>
      <trkpt lat="44.0728" lon="7.78066">
        <ele>1423</ele>
        <time>2017-09-17T15:25:18Z</time>
      </trkpt>
      <trkpt lat="44.0728" lon="7.78065">
        <ele>1423</ele>
        <time>2017-09-17T15:25:19Z</time>
      </trkpt>
      <trkpt lat="44.0728" lon="7.78065">
        <ele>1423</ele>
        <time>2017-09-17T15:25:20Z</time>
      </trkpt>
      <trkpt lat="44.0728" lon="7.78065">
        <ele>1423</ele>
        <time>2017-09-17T15:25:21Z</time>
      </trkpt>
      <trkpt lat="44.0728" lon="7.78065">
        <ele>1423</ele>
        <time>2017-09-17T15:25:22Z</time>
      </trkpt>
      <trkpt lat="44.0728" lon="7.78065">
        <ele>1423</ele>
        <time>2017-09-17T15:25:23Z</time>
      </trkpt>
      <trkpt lat="44.0728" lon="7.78065">
        <ele>1423</ele>
        <time>2017-09-17T15:25:24Z</time>
      </trkpt>
      <trkpt lat="44.0728" lon="7.78065">
        <ele>1423</ele>
        <time>2017-09-17T15:25:25Z</time>
      </trkpt>
      <trkpt lat="44.0728" lon="7.78065">
        <ele>1423</ele>
        <time>2017-09-17T15:25:26Z</time>
      </trkpt>
      <trkpt lat="44.0728" lon="7.78065">
        <ele>1423</ele>
        <time>2017-09-17T15:25:27Z</time>
      </trkpt>
      <trkpt lat="44.0728" lon="7.78065">
        <ele>1423</ele>
        <time>2017-09-17T15:25:28Z</time>
      </trkpt>
      <trkpt lat="44.0728" lon="7.78065">
        <ele>1423</ele>
        <time>2017-09-17T15:25:29Z</time>
      </trkpt>
      <trkpt lat="44.0728" lon="7.78065">
        <ele>1423</ele>
        <time>2017-09-17T15:25:30Z</time>
      </trkpt>
      <trkpt lat="44.0728" lon="7.78065">
        <ele>1423</ele>
        <time>2017-09-17T15:25:31Z</time>
      </trkpt>
      <trkpt lat="44.0728" lon="7.78065">
        <ele>1423</ele>
        <time>2017-09-17T15:25:32Z</time>
      </trkpt>
      <trkpt lat="44.0728" lon="7.78065">
        <ele>1423</ele>
        <time>2017-09-17T15:25:33Z</time>
      </trkpt>
      <trkpt lat="44.0728" lon="7.78065">
        <ele>1423</ele>
        <time>2017-09-17T15:25:34Z</time>
      </trkpt>
      <trkpt lat="44.0728" lon="7.78065">
        <ele>1423</ele>
        <time>2017-09-17T15:25:35Z</time>
      </trkpt>
      <trkpt lat="44.0728" lon="7.78065">
        <ele>1423</ele>
        <time>2017-09-17T15:25:36Z</time>
      </trkpt>
      <trkpt lat="44.0728" lon="7.78065">
        <ele>1423</ele>
        <time>2017-09-17T15:25:37Z</time>
      </trkpt>
      <trkpt lat="44.0728" lon="7.78065">
        <ele>1423</ele>
        <time>2017-09-17T15:25:38Z</time>
      </trkpt>
      <trkpt lat="44.0728" lon="7.78065">
        <ele>1423</ele>
        <time>2017-09-17T15:25:39Z</time>
      </trkpt>
      <trkpt lat="44.0728" lon="7.78065">
        <ele>1423</ele>
        <time>2017-09-17T15:25:40Z</time>
      </trkpt>
      <trkpt lat="44.0728" lon="7.78065">
        <ele>1423</ele>
        <time>2017-09-17T15:25:41Z</time>
      </trkpt>
      <trkpt lat="44.0728" lon="7.78065">
        <ele>1423</ele>
        <time>2017-09-17T15:25:42Z</time>
      </trkpt>
      <trkpt lat="44.0728" lon="7.78065">
        <ele>1423</ele>
        <time>2017-09-17T15:25:43Z</time>
      </trkpt>
      <trkpt lat="44.0728" lon="7.78065">
        <ele>1424</ele>
        <time>2017-09-17T15:25:44Z</time>
      </trkpt>
      <trkpt lat="44.0728" lon="7.78066">
        <ele>1423</ele>
        <time>2017-09-17T15:25:45Z</time>
      </trkpt>
      <trkpt lat="44.0728" lon="7.78066">
        <ele>1423</ele>
        <time>2017-09-17T15:25:46Z</time>
      </trkpt>
      <trkpt lat="44.0728" lon="7.78066">
        <ele>1423</ele>
        <time>2017-09-17T15:25:47Z</time>
      </trkpt>
      <trkpt lat="44.0728" lon="7.78066">
        <ele>1423</ele>
        <time>2017-09-17T15:25:48Z</time>
      </trkpt>
      <trkpt lat="44.0728" lon="7.78066">
        <ele>1423</ele>
        <time>2017-09-17T15:25:49Z</time>
      </trkpt>
      <trkpt lat="44.0728" lon="7.78066">
        <ele>1423</ele>
        <time>2017-09-17T15:25:50Z</time>
      </trkpt>
      <trkpt lat="44.0728" lon="7.78066">
        <ele>1423</ele>
        <time>2017-09-17T15:25:51Z</time>
      </trkpt>
      <trkpt lat="44.0728" lon="7.78066">
        <ele>1423</ele>
        <time>2017-09-17T15:25:52Z</time>
      </trkpt>
      <trkpt lat="44.0728" lon="7.78066">
        <ele>1423</ele>
        <time>2017-09-17T15:25:53Z</time>
      </trkpt>
      <trkpt lat="44.0728" lon="7.78066">
        <ele>1423</ele>
        <time>2017-09-17T15:25:54Z</time>
      </trkpt>
      <trkpt lat="44.0728" lon="7.78066">
        <ele>1423</ele>
        <time>2017-09-17T15:25:55Z</time>
      </trkpt>
      <trkpt lat="44.0728" lon="7.78066">
        <ele>1423</ele>
        <time>2017-09-17T15:25:56Z</time>
      </trkpt>
      <trkpt lat="44.0728" lon="7.78066">
        <ele>1423</ele>
        <time>2017-09-17T15:25:57Z</time>
      </trkpt>
      <trkpt lat="44.0728" lon="7.78066">
        <ele>1423</ele>
        <time>2017-09-17T15:25:58Z</time>
      </trkpt>
      <trkpt lat="44.0728" lon="7.78065">
        <ele>1423</ele>
        <time>2017-09-17T15:25:59Z</time>
      </trkpt>
      <trkpt lat="44.0728" lon="7.78065">
        <ele>1423</ele>
        <time>2017-09-17T15:26:00Z</time>
      </trkpt>
      <trkpt lat="44.0728" lon="7.78065">
        <ele>1423</ele>
        <time>2017-09-17T15:26:01Z</time>
      </trkpt>
      <trkpt lat="44.0728" lon="7.78065">
        <ele>1423</ele>
        <time>2017-09-17T15:26:02Z</time>
      </trkpt>
      <trkpt lat="44.0728" lon="7.78065">
        <ele>1423</ele>
        <time>2017-09-17T15:26:03Z</time>
      </trkpt>
      <trkpt lat="44.0728" lon="7.78065">
        <ele>1423</ele>
        <time>2017-09-17T15:26:04Z</time>
      </trkpt>
      <trkpt lat="44.0728" lon="7.78065">
        <ele>1423</ele>
        <time>2017-09-17T15:26:05Z</time>
      </trkpt>
      <trkpt lat="44.0728" lon="7.78065">
        <ele>1423</ele>
        <time>2017-09-17T15:26:06Z</time>
      </trkpt>
      <trkpt lat="44.0728" lon="7.78065">
        <ele>1423</ele>
        <time>2017-09-17T15:26:07Z</time>
      </trkpt>
      <trkpt lat="44.0728" lon="7.78065">
        <ele>1423</ele>
        <time>2017-09-17T15:26:08Z</time>
      </trkpt>
      <trkpt lat="44.0728" lon="7.78065">
        <ele>1423</ele>
        <time>2017-09-17T15:26:09Z</time>
      </trkpt>
      <trkpt lat="44.0728" lon="7.78065">
        <ele>1423</ele>
        <time>2017-09-17T15:26:10Z</time>
      </trkpt>
      <trkpt lat="44.0728" lon="7.78065">
        <ele>1423</ele>
        <time>2017-09-17T15:26:11Z</time>
      </trkpt>
      <trkpt lat="44.0728" lon="7.78065">
        <ele>1423</ele>
        <time>2017-09-17T15:26:12Z</time>
      </trkpt>
      <trkpt lat="44.0728" lon="7.78065">
        <ele>1423</ele>
        <time>2017-09-17T15:26:13Z</time>
      </trkpt>
      <trkpt lat="44.0728" lon="7.78065">
        <ele>1423</ele>
        <time>2017-09-17T15:26:14Z</time>
      </trkpt>
      <trkpt lat="44.0728" lon="7.78065">
        <ele>1423</ele>
        <time>2017-09-17T15:26:15Z</time>
      </trkpt>
      <trkpt lat="44.07281" lon="7.78065">
        <ele>1423</ele>
        <time>2017-09-17T15:26:16Z</time>
      </trkpt>
      <trkpt lat="44.07281" lon="7.78065">
        <ele>1422</ele>
        <time>2017-09-17T15:26:17Z</time>
      </trkpt>
      <trkpt lat="44.07281" lon="7.78065">
        <ele>1422</ele>
        <time>2017-09-17T15:26:18Z</time>
      </trkpt>
      <trkpt lat="44.07281" lon="7.78065">
        <ele>1422</ele>
        <time>2017-09-17T15:26:19Z</time>
      </trkpt>
      <trkpt lat="44.07281" lon="7.78065">
        <ele>1422</ele>
        <time>2017-09-17T15:26:20Z</time>
      </trkpt>
      <trkpt lat="44.07281" lon="7.78065">
        <ele>1422</ele>
        <time>2017-09-17T15:26:21Z</time>
      </trkpt>
      <trkpt lat="44.07281" lon="7.78065">
        <ele>1422</ele>
        <time>2017-09-17T15:26:22Z</time>
      </trkpt>
      <trkpt lat="44.07281" lon="7.78065">
        <ele>1422</ele>
        <time>2017-09-17T15:26:23Z</time>
      </trkpt>
      <trkpt lat="44.07281" lon="7.78065">
        <ele>1422</ele>
        <time>2017-09-17T15:26:24Z</time>
      </trkpt>
      <trkpt lat="44.07281" lon="7.78065">
        <ele>1422</ele>
        <time>2017-09-17T15:26:25Z</time>
      </trkpt>
      <trkpt lat="44.07281" lon="7.78065">
        <ele>1423</ele>
        <time>2017-09-17T15:26:26Z</time>
      </trkpt>
      <trkpt lat="44.07281" lon="7.78065">
        <ele>1423</ele>
        <time>2017-09-17T15:26:27Z</time>
      </trkpt>
      <trkpt lat="44.07281" lon="7.78065">
        <ele>1423</ele>
        <time>2017-09-17T15:26:28Z</time>
      </trkpt>
      <trkpt lat="44.0728" lon="7.78066">
        <ele>1423</ele>
        <time>2017-09-17T15:26:29Z</time>
      </trkpt>
      <trkpt lat="44.0728" lon="7.78066">
        <ele>1423</ele>
        <time>2017-09-17T15:26:30Z</time>
      </trkpt>
      <trkpt lat="44.0728" lon="7.78066">
        <ele>1423</ele>
        <time>2017-09-17T15:26:31Z</time>
      </trkpt>
      <trkpt lat="44.0728" lon="7.78066">
        <ele>1423</ele>
        <time>2017-09-17T15:26:32Z</time>
      </trkpt>
      <trkpt lat="44.0728" lon="7.78067">
        <ele>1424</ele>
        <time>2017-09-17T15:26:33Z</time>
      </trkpt>
      <trkpt lat="44.0728" lon="7.78067">
        <ele>1424</ele>
        <time>2017-09-17T15:26:34Z</time>
      </trkpt>
      <trkpt lat="44.0728" lon="7.78067">
        <ele>1424</ele>
        <time>2017-09-17T15:26:35Z</time>
      </trkpt>
      <trkpt lat="44.0728" lon="7.78067">
        <ele>1424</ele>
        <time>2017-09-17T15:26:36Z</time>
      </trkpt>
      <trkpt lat="44.0728" lon="7.78068">
        <ele>1424</ele>
        <time>2017-09-17T15:26:37Z</time>
      </trkpt>
      <trkpt lat="44.0728" lon="7.78068">
        <ele>1424</ele>
        <time>2017-09-17T15:26:38Z</time>
      </trkpt>
      <trkpt lat="44.0728" lon="7.78068">
        <ele>1425</ele>
        <time>2017-09-17T15:26:39Z</time>
      </trkpt>
      <trkpt lat="44.0728" lon="7.78068">
        <ele>1425</ele>
        <time>2017-09-17T15:26:40Z</time>
      </trkpt>
      <trkpt lat="44.0728" lon="7.78068">
        <ele>1425</ele>
        <time>2017-09-17T15:26:41Z</time>
      </trkpt>
      <trkpt lat="44.0728" lon="7.78068">
        <ele>1425</ele>
        <time>2017-09-17T15:26:42Z</time>
      </trkpt>
      <trkpt lat="44.0728" lon="7.78068">
        <ele>1425</ele>
        <time>2017-09-17T15:26:43Z</time>
      </trkpt>
      <trkpt lat="44.0728" lon="7.78069">
        <ele>1425</ele>
        <time>2017-09-17T15:26:44Z</time>
      </trkpt>
      <trkpt lat="44.0728" lon="7.78069">
        <ele>1425</ele>
        <time>2017-09-17T15:26:45Z</time>
      </trkpt>
      <trkpt lat="44.0728" lon="7.78069">
        <ele>1426</ele>
        <time>2017-09-17T15:26:46Z</time>
      </trkpt>
      <trkpt lat="44.0728" lon="7.78069">
        <ele>1426</ele>
        <time>2017-09-17T15:26:47Z</time>
      </trkpt>
      <trkpt lat="44.0728" lon="7.78069">
        <ele>1426</ele>
        <time>2017-09-17T15:26:48Z</time>
      </trkpt>
      <trkpt lat="44.0728" lon="7.78069">
        <ele>1426</ele>
        <time>2017-09-17T15:26:49Z</time>
      </trkpt>
      <trkpt lat="44.0728" lon="7.78069">
        <ele>1426</ele>
        <time>2017-09-17T15:26:50Z</time>
      </trkpt>
      <trkpt lat="44.0728" lon="7.78069">
        <ele>1426</ele>
        <time>2017-09-17T15:26:51Z</time>
      </trkpt>
      <trkpt lat="44.0728" lon="7.7807">
        <ele>1426</ele>
        <time>2017-09-17T15:26:52Z</time>
      </trkpt>
      <trkpt lat="44.0728" lon="7.7807">
        <ele>1426</ele>
        <time>2017-09-17T15:26:53Z</time>
      </trkpt>
      <trkpt lat="44.0728" lon="7.7807">
        <ele>1426</ele>
        <time>2017-09-17T15:26:54Z</time>
      </trkpt>
      <trkpt lat="44.0728" lon="7.7807">
        <ele>1426</ele>
        <time>2017-09-17T15:26:55Z</time>
      </trkpt>
      <trkpt lat="44.0728" lon="7.7807">
        <ele>1426</ele>
        <time>2017-09-17T15:26:56Z</time>
      </trkpt>
      <trkpt lat="44.0728" lon="7.7807">
        <ele>1427</ele>
        <time>2017-09-17T15:26:57Z</time>
      </trkpt>
      <trkpt lat="44.0728" lon="7.7807">
        <ele>1427</ele>
        <time>2017-09-17T15:26:58Z</time>
      </trkpt>
      <trkpt lat="44.0728" lon="7.7807">
        <ele>1427</ele>
        <time>2017-09-17T15:26:59Z</time>
      </trkpt>
      <trkpt lat="44.0728" lon="7.7807">
        <ele>1427</ele>
        <time>2017-09-17T15:27:00Z</time>
      </trkpt>
      <trkpt lat="44.0728" lon="7.7807">
        <ele>1427</ele>
        <time>2017-09-17T15:27:01Z</time>
      </trkpt>
      <trkpt lat="44.0728" lon="7.7807">
        <ele>1427</ele>
        <time>2017-09-17T15:27:02Z</time>
      </trkpt>
      <trkpt lat="44.0728" lon="7.7807">
        <ele>1427</ele>
        <time>2017-09-17T15:27:03Z</time>
      </trkpt>
      <trkpt lat="44.0728" lon="7.7807">
        <ele>1427</ele>
        <time>2017-09-17T15:27:04Z</time>
      </trkpt>
      <trkpt lat="44.0728" lon="7.7807">
        <ele>1427</ele>
        <time>2017-09-17T15:27:05Z</time>
      </trkpt>
      <trkpt lat="44.0728" lon="7.78069">
        <ele>1427</ele>
        <time>2017-09-17T15:27:06Z</time>
      </trkpt>
      <trkpt lat="44.0728" lon="7.78069">
        <ele>1427</ele>
        <time>2017-09-17T15:27:07Z</time>
      </trkpt>
      <trkpt lat="44.0728" lon="7.78069">
        <ele>1427</ele>
        <time>2017-09-17T15:27:08Z</time>
      </trkpt>
      <trkpt lat="44.0728" lon="7.78069">
        <ele>1427</ele>
        <time>2017-09-17T15:27:09Z</time>
      </trkpt>
      <trkpt lat="44.0728" lon="7.78069">
        <ele>1427</ele>
        <time>2017-09-17T15:27:10Z</time>
      </trkpt>
      <trkpt lat="44.0728" lon="7.78069">
        <ele>1427</ele>
        <time>2017-09-17T15:27:11Z</time>
      </trkpt>
      <trkpt lat="44.0728" lon="7.78069">
        <ele>1427</ele>
        <time>2017-09-17T15:27:12Z</time>
      </trkpt>
      <trkpt lat="44.0728" lon="7.78069">
        <ele>1427</ele>
        <time>2017-09-17T15:27:13Z</time>
      </trkpt>
      <trkpt lat="44.0728" lon="7.78069">
        <ele>1427</ele>
        <time>2017-09-17T15:27:14Z</time>
      </trkpt>
      <trkpt lat="44.0728" lon="7.78069">
        <ele>1427</ele>
        <time>2017-09-17T15:27:15Z</time>
      </trkpt>
      <trkpt lat="44.0728" lon="7.78069">
        <ele>1427</ele>
        <time>2017-09-17T15:27:16Z</time>
      </trkpt>
      <trkpt lat="44.0728" lon="7.78069">
        <ele>1427</ele>
        <time>2017-09-17T15:27:17Z</time>
      </trkpt>
      <trkpt lat="44.0728" lon="7.78069">
        <ele>1427</ele>
        <time>2017-09-17T15:27:18Z</time>
      </trkpt>
      <trkpt lat="44.0728" lon="7.78069">
        <ele>1427</ele>
        <time>2017-09-17T15:27:19Z</time>
      </trkpt>
      <trkpt lat="44.0728" lon="7.78069">
        <ele>1427</ele>
        <time>2017-09-17T15:27:20Z</time>
      </trkpt>
      <trkpt lat="44.0728" lon="7.78069">
        <ele>1427</ele>
        <time>2017-09-17T15:27:21Z</time>
      </trkpt>
      <trkpt lat="44.0728" lon="7.78069">
        <ele>1427</ele>
        <time>2017-09-17T15:27:22Z</time>
      </trkpt>
      <trkpt lat="44.07279" lon="7.78069">
        <ele>1427</ele>
        <time>2017-09-17T15:27:23Z</time>
      </trkpt>
      <trkpt lat="44.07279" lon="7.78069">
        <ele>1427</ele>
        <time>2017-09-17T15:27:24Z</time>
      </trkpt>
      <trkpt lat="44.07278" lon="7.78069">
        <ele>1427</ele>
        <time>2017-09-17T15:27:25Z</time>
      </trkpt>
      <trkpt lat="44.07277" lon="7.78068">
        <ele>1427</ele>
        <time>2017-09-17T15:27:26Z</time>
      </trkpt>
      <trkpt lat="44.07277" lon="7.78068">
        <ele>1427</ele>
        <time>2017-09-17T15:27:27Z</time>
      </trkpt>
      <trkpt lat="44.07277" lon="7.78068">
        <ele>1427</ele>
        <time>2017-09-17T15:27:28Z</time>
      </trkpt>
      <trkpt lat="44.07277" lon="7.78068">
        <ele>1427</ele>
        <time>2017-09-17T15:27:29Z</time>
      </trkpt>
      <trkpt lat="44.07277" lon="7.78068">
        <ele>1427</ele>
        <time>2017-09-17T15:27:30Z</time>
      </trkpt>
      <trkpt lat="44.07277" lon="7.78068">
        <ele>1427</ele>
        <time>2017-09-17T15:27:31Z</time>
      </trkpt>
      <trkpt lat="44.07277" lon="7.78068">
        <ele>1427</ele>
        <time>2017-09-17T15:27:32Z</time>
      </trkpt>
      <trkpt lat="44.07277" lon="7.78068">
        <ele>1427</ele>
        <time>2017-09-17T15:27:33Z</time>
      </trkpt>
      <trkpt lat="44.07277" lon="7.78068">
        <ele>1427</ele>
        <time>2017-09-17T15:27:34Z</time>
      </trkpt>
      <trkpt lat="44.07277" lon="7.78068">
        <ele>1427</ele>
        <time>2017-09-17T15:27:35Z</time>
      </trkpt>
      <trkpt lat="44.07277" lon="7.78067">
        <ele>1427</ele>
        <time>2017-09-17T15:27:36Z</time>
      </trkpt>
      <trkpt lat="44.07276" lon="7.78066">
        <ele>1427</ele>
        <time>2017-09-17T15:27:37Z</time>
      </trkpt>
      <trkpt lat="44.07275" lon="7.78065">
        <ele>1427</ele>
        <time>2017-09-17T15:27:38Z</time>
      </trkpt>
      <trkpt lat="44.07274" lon="7.78062">
        <ele>1427</ele>
        <time>2017-09-17T15:27:39Z</time>
      </trkpt>
      <trkpt lat="44.07273" lon="7.7806">
        <ele>1427</ele>
        <time>2017-09-17T15:27:40Z</time>
      </trkpt>
      <trkpt lat="44.07271" lon="7.78058">
        <ele>1427</ele>
        <time>2017-09-17T15:27:41Z</time>
      </trkpt>
      <trkpt lat="44.07271" lon="7.78056">
        <ele>1427</ele>
        <time>2017-09-17T15:27:42Z</time>
      </trkpt>
      <trkpt lat="44.0727" lon="7.78052">
        <ele>1428</ele>
        <time>2017-09-17T15:27:43Z</time>
      </trkpt>
      <trkpt lat="44.07268" lon="7.78048">
        <ele>1428</ele>
        <time>2017-09-17T15:27:44Z</time>
      </trkpt>
      <trkpt lat="44.07267" lon="7.78044">
        <ele>1428</ele>
        <time>2017-09-17T15:27:45Z</time>
      </trkpt>
      <trkpt lat="44.07266" lon="7.78039">
        <ele>1428</ele>
        <time>2017-09-17T15:27:46Z</time>
      </trkpt>
      <trkpt lat="44.07265" lon="7.78034">
        <ele>1428</ele>
        <time>2017-09-17T15:27:47Z</time>
      </trkpt>
      <trkpt lat="44.07264" lon="7.78029">
        <ele>1428</ele>
        <time>2017-09-17T15:27:48Z</time>
      </trkpt>
      <trkpt lat="44.07263" lon="7.78024">
        <ele>1428</ele>
        <time>2017-09-17T15:27:49Z</time>
      </trkpt>
      <trkpt lat="44.0726" lon="7.7802">
        <ele>1428</ele>
        <time>2017-09-17T15:27:50Z</time>
      </trkpt>
      <trkpt lat="44.07257" lon="7.78017">
        <ele>1428</ele>
        <time>2017-09-17T15:27:51Z</time>
      </trkpt>
      <trkpt lat="44.07254" lon="7.78015">
        <ele>1428</ele>
        <time>2017-09-17T15:27:52Z</time>
      </trkpt>
      <trkpt lat="44.07251" lon="7.78013">
        <ele>1428</ele>
        <time>2017-09-17T15:27:53Z</time>
      </trkpt>
      <trkpt lat="44.07247" lon="7.78011">
        <ele>1428</ele>
        <time>2017-09-17T15:27:54Z</time>
      </trkpt>
      <trkpt lat="44.07244" lon="7.7801">
        <ele>1429</ele>
        <time>2017-09-17T15:27:55Z</time>
      </trkpt>
      <trkpt lat="44.0724" lon="7.78008">
        <ele>1429</ele>
        <time>2017-09-17T15:27:56Z</time>
      </trkpt>
      <trkpt lat="44.07237" lon="7.78006">
        <ele>1429</ele>
        <time>2017-09-17T15:27:57Z</time>
      </trkpt>
      <trkpt lat="44.07233" lon="7.78004">
        <ele>1429</ele>
        <time>2017-09-17T15:27:58Z</time>
      </trkpt>
      <trkpt lat="44.0723" lon="7.78002">
        <ele>1430</ele>
        <time>2017-09-17T15:27:59Z</time>
      </trkpt>
      <trkpt lat="44.07226" lon="7.77999">
        <ele>1430</ele>
        <time>2017-09-17T15:28:00Z</time>
      </trkpt>
      <trkpt lat="44.07223" lon="7.77996">
        <ele>1430</ele>
        <time>2017-09-17T15:28:01Z</time>
      </trkpt>
      <trkpt lat="44.07221" lon="7.77992">
        <ele>1431</ele>
        <time>2017-09-17T15:28:02Z</time>
      </trkpt>
      <trkpt lat="44.07219" lon="7.77988">
        <ele>1431</ele>
        <time>2017-09-17T15:28:03Z</time>
      </trkpt>
      <trkpt lat="44.07217" lon="7.77983">
        <ele>1431</ele>
        <time>2017-09-17T15:28:04Z</time>
      </trkpt>
      <trkpt lat="44.07215" lon="7.77978">
        <ele>1431</ele>
        <time>2017-09-17T15:28:05Z</time>
      </trkpt>
      <trkpt lat="44.07213" lon="7.77973">
        <ele>1431</ele>
        <time>2017-09-17T15:28:06Z</time>
      </trkpt>
      <trkpt lat="44.07211" lon="7.77968">
        <ele>1431</ele>
        <time>2017-09-17T15:28:07Z</time>
      </trkpt>
      <trkpt lat="44.07209" lon="7.77964">
        <ele>1432</ele>
        <time>2017-09-17T15:28:08Z</time>
      </trkpt>
      <trkpt lat="44.07206" lon="7.7796">
        <ele>1432</ele>
        <time>2017-09-17T15:28:09Z</time>
      </trkpt>
      <trkpt lat="44.07203" lon="7.77957">
        <ele>1432</ele>
        <time>2017-09-17T15:28:10Z</time>
      </trkpt>
      <trkpt lat="44.072" lon="7.77954">
        <ele>1433</ele>
        <time>2017-09-17T15:28:11Z</time>
      </trkpt>
      <trkpt lat="44.07196" lon="7.77952">
        <ele>1433</ele>
        <time>2017-09-17T15:28:12Z</time>
      </trkpt>
      <trkpt lat="44.07192" lon="7.7795">
        <ele>1433</ele>
        <time>2017-09-17T15:28:13Z</time>
      </trkpt>
      <trkpt lat="44.07189" lon="7.77948">
        <ele>1434</ele>
        <time>2017-09-17T15:28:14Z</time>
      </trkpt>
      <trkpt lat="44.07185" lon="7.77946">
        <ele>1434</ele>
        <time>2017-09-17T15:28:15Z</time>
      </trkpt>
      <trkpt lat="44.07181" lon="7.77944">
        <ele>1435</ele>
        <time>2017-09-17T15:28:16Z</time>
      </trkpt>
      <trkpt lat="44.07178" lon="7.77941">
        <ele>1435</ele>
        <time>2017-09-17T15:28:17Z</time>
      </trkpt>
      <trkpt lat="44.07174" lon="7.77938">
        <ele>1436</ele>
        <time>2017-09-17T15:28:18Z</time>
      </trkpt>
      <trkpt lat="44.07171" lon="7.77935">
        <ele>1436</ele>
        <time>2017-09-17T15:28:19Z</time>
      </trkpt>
      <trkpt lat="44.07167" lon="7.77931">
        <ele>1437</ele>
        <time>2017-09-17T15:28:20Z</time>
      </trkpt>
      <trkpt lat="44.07164" lon="7.77928">
        <ele>1437</ele>
        <time>2017-09-17T15:28:21Z</time>
      </trkpt>
      <trkpt lat="44.07162" lon="7.77924">
        <ele>1437</ele>
        <time>2017-09-17T15:28:22Z</time>
      </trkpt>
      <trkpt lat="44.07159" lon="7.7792">
        <ele>1438</ele>
        <time>2017-09-17T15:28:23Z</time>
      </trkpt>
      <trkpt lat="44.07156" lon="7.77917">
        <ele>1438</ele>
        <time>2017-09-17T15:28:24Z</time>
      </trkpt>
      <trkpt lat="44.07153" lon="7.77913">
        <ele>1439</ele>
        <time>2017-09-17T15:28:25Z</time>
      </trkpt>
      <trkpt lat="44.0715" lon="7.77909">
        <ele>1439</ele>
        <time>2017-09-17T15:28:26Z</time>
      </trkpt>
      <trkpt lat="44.07147" lon="7.77905">
        <ele>1440</ele>
        <time>2017-09-17T15:28:27Z</time>
      </trkpt>
      <trkpt lat="44.07143" lon="7.77903">
        <ele>1440</ele>
        <time>2017-09-17T15:28:28Z</time>
      </trkpt>
      <trkpt lat="44.07139" lon="7.77901">
        <ele>1440</ele>
        <time>2017-09-17T15:28:29Z</time>
      </trkpt>
      <trkpt lat="44.07136" lon="7.77899">
        <ele>1441</ele>
        <time>2017-09-17T15:28:30Z</time>
      </trkpt>
      <trkpt lat="44.07132" lon="7.77896">
        <ele>1441</ele>
        <time>2017-09-17T15:28:31Z</time>
      </trkpt>
      <trkpt lat="44.07129" lon="7.77893">
        <ele>1441</ele>
        <time>2017-09-17T15:28:32Z</time>
      </trkpt>
      <trkpt lat="44.07127" lon="7.77889">
        <ele>1442</ele>
        <time>2017-09-17T15:28:33Z</time>
      </trkpt>
      <trkpt lat="44.07125" lon="7.77884">
        <ele>1442</ele>
        <time>2017-09-17T15:28:34Z</time>
      </trkpt>
      <trkpt lat="44.07123" lon="7.77878">
        <ele>1442</ele>
        <time>2017-09-17T15:28:35Z</time>
      </trkpt>
      <trkpt lat="44.07121" lon="7.77873">
        <ele>1442</ele>
        <time>2017-09-17T15:28:36Z</time>
      </trkpt>
      <trkpt lat="44.0712" lon="7.77867">
        <ele>1442</ele>
        <time>2017-09-17T15:28:37Z</time>
      </trkpt>
      <trkpt lat="44.07117" lon="7.77862">
        <ele>1442</ele>
        <time>2017-09-17T15:28:38Z</time>
      </trkpt>
      <trkpt lat="44.07115" lon="7.77856">
        <ele>1442</ele>
        <time>2017-09-17T15:28:39Z</time>
      </trkpt>
      <trkpt lat="44.07112" lon="7.77852">
        <ele>1443</ele>
        <time>2017-09-17T15:28:40Z</time>
      </trkpt>
      <trkpt lat="44.07108" lon="7.77847">
        <ele>1443</ele>
        <time>2017-09-17T15:28:41Z</time>
      </trkpt>
      <trkpt lat="44.07105" lon="7.77843">
        <ele>1443</ele>
        <time>2017-09-17T15:28:42Z</time>
      </trkpt>
      <trkpt lat="44.07101" lon="7.7784">
        <ele>1443</ele>
        <time>2017-09-17T15:28:43Z</time>
      </trkpt>
      <trkpt lat="44.07096" lon="7.77838">
        <ele>1444</ele>
        <time>2017-09-17T15:28:44Z</time>
      </trkpt>
      <trkpt lat="44.07092" lon="7.77839">
        <ele>1444</ele>
        <time>2017-09-17T15:28:45Z</time>
      </trkpt>
      <trkpt lat="44.07087" lon="7.77839">
        <ele>1444</ele>
        <time>2017-09-17T15:28:46Z</time>
      </trkpt>
      <trkpt lat="44.07083" lon="7.7784">
        <ele>1445</ele>
        <time>2017-09-17T15:28:47Z</time>
      </trkpt>
      <trkpt lat="44.07078" lon="7.77841">
        <ele>1445</ele>
        <time>2017-09-17T15:28:48Z</time>
      </trkpt>
      <trkpt lat="44.07073" lon="7.77842">
        <ele>1445</ele>
        <time>2017-09-17T15:28:49Z</time>
      </trkpt>
      <trkpt lat="44.07069" lon="7.77842">
        <ele>1446</ele>
        <time>2017-09-17T15:28:50Z</time>
      </trkpt>
      <trkpt lat="44.07064" lon="7.77843">
        <ele>1446</ele>
        <time>2017-09-17T15:28:51Z</time>
      </trkpt>
      <trkpt lat="44.0706" lon="7.77845">
        <ele>1446</ele>
        <time>2017-09-17T15:28:52Z</time>
      </trkpt>
      <trkpt lat="44.07056" lon="7.77848">
        <ele>1446</ele>
        <time>2017-09-17T15:28:53Z</time>
      </trkpt>
      <trkpt lat="44.07052" lon="7.77852">
        <ele>1447</ele>
        <time>2017-09-17T15:28:54Z</time>
      </trkpt>
      <trkpt lat="44.07048" lon="7.77857">
        <ele>1447</ele>
        <time>2017-09-17T15:28:55Z</time>
      </trkpt>
      <trkpt lat="44.07045" lon="7.77861">
        <ele>1448</ele>
        <time>2017-09-17T15:28:56Z</time>
      </trkpt>
      <trkpt lat="44.07041" lon="7.77864">
        <ele>1448</ele>
        <time>2017-09-17T15:28:57Z</time>
      </trkpt>
      <trkpt lat="44.07036" lon="7.77867">
        <ele>1449</ele>
        <time>2017-09-17T15:28:58Z</time>
      </trkpt>
      <trkpt lat="44.07032" lon="7.7787">
        <ele>1449</ele>
        <time>2017-09-17T15:28:59Z</time>
      </trkpt>
      <trkpt lat="44.07028" lon="7.77872">
        <ele>1449</ele>
        <time>2017-09-17T15:29:00Z</time>
      </trkpt>
      <trkpt lat="44.07023" lon="7.77874">
        <ele>1450</ele>
        <time>2017-09-17T15:29:01Z</time>
      </trkpt>
      <trkpt lat="44.07019" lon="7.77876">
        <ele>1450</ele>
        <time>2017-09-17T15:29:02Z</time>
      </trkpt>
      <trkpt lat="44.07014" lon="7.77877">
        <ele>1451</ele>
        <time>2017-09-17T15:29:03Z</time>
      </trkpt>
      <trkpt lat="44.0701" lon="7.77878">
        <ele>1451</ele>
        <time>2017-09-17T15:29:04Z</time>
      </trkpt>
      <trkpt lat="44.07005" lon="7.77879">
        <ele>1451</ele>
        <time>2017-09-17T15:29:05Z</time>
      </trkpt>
      <trkpt lat="44.07001" lon="7.77881">
        <ele>1452</ele>
        <time>2017-09-17T15:29:06Z</time>
      </trkpt>
      <trkpt lat="44.06996" lon="7.77881">
        <ele>1452</ele>
        <time>2017-09-17T15:29:07Z</time>
      </trkpt>
      <trkpt lat="44.06992" lon="7.77881">
        <ele>1453</ele>
        <time>2017-09-17T15:29:08Z</time>
      </trkpt>
      <trkpt lat="44.06988" lon="7.77879">
        <ele>1453</ele>
        <time>2017-09-17T15:29:09Z</time>
      </trkpt>
      <trkpt lat="44.06984" lon="7.77876">
        <ele>1453</ele>
        <time>2017-09-17T15:29:10Z</time>
      </trkpt>
      <trkpt lat="44.06981" lon="7.77873">
        <ele>1453</ele>
        <time>2017-09-17T15:29:11Z</time>
      </trkpt>
      <trkpt lat="44.06978" lon="7.77869">
        <ele>1454</ele>
        <time>2017-09-17T15:29:12Z</time>
      </trkpt>
      <trkpt lat="44.06976" lon="7.77866">
        <ele>1454</ele>
        <time>2017-09-17T15:29:13Z</time>
      </trkpt>
      <trkpt lat="44.06973" lon="7.77862">
        <ele>1454</ele>
        <time>2017-09-17T15:29:14Z</time>
      </trkpt>
      <trkpt lat="44.06971" lon="7.77858">
        <ele>1455</ele>
        <time>2017-09-17T15:29:15Z</time>
      </trkpt>
      <trkpt lat="44.06968" lon="7.77854">
        <ele>1455</ele>
        <time>2017-09-17T15:29:16Z</time>
      </trkpt>
      <trkpt lat="44.06965" lon="7.77851">
        <ele>1456</ele>
        <time>2017-09-17T15:29:17Z</time>
      </trkpt>
      <trkpt lat="44.06962" lon="7.77848">
        <ele>1456</ele>
        <time>2017-09-17T15:29:18Z</time>
      </trkpt>
      <trkpt lat="44.06959" lon="7.77845">
        <ele>1457</ele>
        <time>2017-09-17T15:29:19Z</time>
      </trkpt>
      <trkpt lat="44.06955" lon="7.77843">
        <ele>1457</ele>
        <time>2017-09-17T15:29:20Z</time>
      </trkpt>
      <trkpt lat="44.06952" lon="7.7784">
        <ele>1457</ele>
        <time>2017-09-17T15:29:21Z</time>
      </trkpt>
      <trkpt lat="44.06948" lon="7.77838">
        <ele>1458</ele>
        <time>2017-09-17T15:29:22Z</time>
      </trkpt>
      <trkpt lat="44.06944" lon="7.77836">
        <ele>1458</ele>
        <time>2017-09-17T15:29:23Z</time>
      </trkpt>
      <trkpt lat="44.0694" lon="7.77836">
        <ele>1459</ele>
        <time>2017-09-17T15:29:24Z</time>
      </trkpt>
      <trkpt lat="44.06936" lon="7.77837">
        <ele>1459</ele>
        <time>2017-09-17T15:29:25Z</time>
      </trkpt>
      <trkpt lat="44.06932" lon="7.7784">
        <ele>1460</ele>
        <time>2017-09-17T15:29:26Z</time>
      </trkpt>
      <trkpt lat="44.0693" lon="7.77844">
        <ele>1460</ele>
        <time>2017-09-17T15:29:27Z</time>
      </trkpt>
      <trkpt lat="44.06927" lon="7.77849">
        <ele>1461</ele>
        <time>2017-09-17T15:29:28Z</time>
      </trkpt>
      <trkpt lat="44.06924" lon="7.77853">
        <ele>1461</ele>
        <time>2017-09-17T15:29:29Z</time>
      </trkpt>
      <trkpt lat="44.06921" lon="7.77856">
        <ele>1462</ele>
        <time>2017-09-17T15:29:30Z</time>
      </trkpt>
      <trkpt lat="44.06918" lon="7.77859">
        <ele>1462</ele>
        <time>2017-09-17T15:29:31Z</time>
      </trkpt>
      <trkpt lat="44.06914" lon="7.7786">
        <ele>1463</ele>
        <time>2017-09-17T15:29:32Z</time>
      </trkpt>
      <trkpt lat="44.06911" lon="7.77861">
        <ele>1463</ele>
        <time>2017-09-17T15:29:33Z</time>
      </trkpt>
      <trkpt lat="44.06907" lon="7.77862">
        <ele>1464</ele>
        <time>2017-09-17T15:29:34Z</time>
      </trkpt>
      <trkpt lat="44.06903" lon="7.77862">
        <ele>1464</ele>
        <time>2017-09-17T15:29:35Z</time>
      </trkpt>
      <trkpt lat="44.06899" lon="7.77862">
        <ele>1465</ele>
        <time>2017-09-17T15:29:36Z</time>
      </trkpt>
      <trkpt lat="44.06896" lon="7.77862">
        <ele>1465</ele>
        <time>2017-09-17T15:29:37Z</time>
      </trkpt>
      <trkpt lat="44.06892" lon="7.77862">
        <ele>1466</ele>
        <time>2017-09-17T15:29:38Z</time>
      </trkpt>
      <trkpt lat="44.06889" lon="7.77861">
        <ele>1466</ele>
        <time>2017-09-17T15:29:39Z</time>
      </trkpt>
      <trkpt lat="44.06885" lon="7.7786">
        <ele>1467</ele>
        <time>2017-09-17T15:29:40Z</time>
      </trkpt>
      <trkpt lat="44.06881" lon="7.7786">
        <ele>1467</ele>
        <time>2017-09-17T15:29:41Z</time>
      </trkpt>
      <trkpt lat="44.06877" lon="7.77861">
        <ele>1468</ele>
        <time>2017-09-17T15:29:42Z</time>
      </trkpt>
      <trkpt lat="44.06873" lon="7.77862">
        <ele>1468</ele>
        <time>2017-09-17T15:29:43Z</time>
      </trkpt>
      <trkpt lat="44.0687" lon="7.77862">
        <ele>1469</ele>
        <time>2017-09-17T15:29:44Z</time>
      </trkpt>
      <trkpt lat="44.06866" lon="7.77862">
        <ele>1470</ele>
        <time>2017-09-17T15:29:45Z</time>
      </trkpt>
      <trkpt lat="44.06863" lon="7.77863">
        <ele>1470</ele>
        <time>2017-09-17T15:29:46Z</time>
      </trkpt>
      <trkpt lat="44.0686" lon="7.77864">
        <ele>1471</ele>
        <time>2017-09-17T15:29:47Z</time>
      </trkpt>
      <trkpt lat="44.06857" lon="7.77866">
        <ele>1471</ele>
        <time>2017-09-17T15:29:48Z</time>
      </trkpt>
      <trkpt lat="44.06854" lon="7.77869">
        <ele>1472</ele>
        <time>2017-09-17T15:29:49Z</time>
      </trkpt>
      <trkpt lat="44.06853" lon="7.77873">
        <ele>1472</ele>
        <time>2017-09-17T15:29:50Z</time>
      </trkpt>
      <trkpt lat="44.06852" lon="7.77879">
        <ele>1473</ele>
        <time>2017-09-17T15:29:51Z</time>
      </trkpt>
      <trkpt lat="44.06852" lon="7.77885">
        <ele>1473</ele>
        <time>2017-09-17T15:29:52Z</time>
      </trkpt>
      <trkpt lat="44.06851" lon="7.7789">
        <ele>1474</ele>
        <time>2017-09-17T15:29:53Z</time>
      </trkpt>
      <trkpt lat="44.06849" lon="7.77896">
        <ele>1474</ele>
        <time>2017-09-17T15:29:54Z</time>
      </trkpt>
      <trkpt lat="44.06847" lon="7.77901">
        <ele>1475</ele>
        <time>2017-09-17T15:29:55Z</time>
      </trkpt>
      <trkpt lat="44.06844" lon="7.77905">
        <ele>1475</ele>
        <time>2017-09-17T15:29:56Z</time>
      </trkpt>
      <trkpt lat="44.06841" lon="7.77908">
        <ele>1476</ele>
        <time>2017-09-17T15:29:57Z</time>
      </trkpt>
      <trkpt lat="44.06838" lon="7.77912">
        <ele>1476</ele>
        <time>2017-09-17T15:29:58Z</time>
      </trkpt>
      <trkpt lat="44.06835" lon="7.77915">
        <ele>1477</ele>
        <time>2017-09-17T15:29:59Z</time>
      </trkpt>
      <trkpt lat="44.06832" lon="7.77918">
        <ele>1477</ele>
        <time>2017-09-17T15:30:00Z</time>
      </trkpt>
      <trkpt lat="44.06829" lon="7.77922">
        <ele>1478</ele>
        <time>2017-09-17T15:30:01Z</time>
      </trkpt>
      <trkpt lat="44.06826" lon="7.77925">
        <ele>1478</ele>
        <time>2017-09-17T15:30:02Z</time>
      </trkpt>
      <trkpt lat="44.06823" lon="7.77928">
        <ele>1479</ele>
        <time>2017-09-17T15:30:03Z</time>
      </trkpt>
      <trkpt lat="44.0682" lon="7.7793">
        <ele>1479</ele>
        <time>2017-09-17T15:30:04Z</time>
      </trkpt>
      <trkpt lat="44.06817" lon="7.77933">
        <ele>1480</ele>
        <time>2017-09-17T15:30:05Z</time>
      </trkpt>
      <trkpt lat="44.06814" lon="7.77935">
        <ele>1481</ele>
        <time>2017-09-17T15:30:06Z</time>
      </trkpt>
      <trkpt lat="44.06811" lon="7.77937">
        <ele>1481</ele>
        <time>2017-09-17T15:30:07Z</time>
      </trkpt>
      <trkpt lat="44.06807" lon="7.77939">
        <ele>1482</ele>
        <time>2017-09-17T15:30:08Z</time>
      </trkpt>
      <trkpt lat="44.06804" lon="7.77942">
        <ele>1482</ele>
        <time>2017-09-17T15:30:09Z</time>
      </trkpt>
      <trkpt lat="44.068" lon="7.77944">
        <ele>1483</ele>
        <time>2017-09-17T15:30:10Z</time>
      </trkpt>
      <trkpt lat="44.06797" lon="7.77946">
        <ele>1483</ele>
        <time>2017-09-17T15:30:11Z</time>
      </trkpt>
      <trkpt lat="44.06794" lon="7.77948">
        <ele>1484</ele>
        <time>2017-09-17T15:30:12Z</time>
      </trkpt>
      <trkpt lat="44.06791" lon="7.7795">
        <ele>1484</ele>
        <time>2017-09-17T15:30:13Z</time>
      </trkpt>
      <trkpt lat="44.06789" lon="7.77952">
        <ele>1484</ele>
        <time>2017-09-17T15:30:14Z</time>
      </trkpt>
      <trkpt lat="44.06786" lon="7.77954">
        <ele>1485</ele>
        <time>2017-09-17T15:30:15Z</time>
      </trkpt>
      <trkpt lat="44.06783" lon="7.77957">
        <ele>1485</ele>
        <time>2017-09-17T15:30:16Z</time>
      </trkpt>
      <trkpt lat="44.0678" lon="7.7796">
        <ele>1486</ele>
        <time>2017-09-17T15:30:17Z</time>
      </trkpt>
      <trkpt lat="44.06777" lon="7.77963">
        <ele>1486</ele>
        <time>2017-09-17T15:30:18Z</time>
      </trkpt>
      <trkpt lat="44.06775" lon="7.77967">
        <ele>1487</ele>
        <time>2017-09-17T15:30:19Z</time>
      </trkpt>
      <trkpt lat="44.06773" lon="7.77971">
        <ele>1487</ele>
        <time>2017-09-17T15:30:20Z</time>
      </trkpt>
      <trkpt lat="44.06771" lon="7.77975">
        <ele>1487</ele>
        <time>2017-09-17T15:30:21Z</time>
      </trkpt>
      <trkpt lat="44.06769" lon="7.77979">
        <ele>1488</ele>
        <time>2017-09-17T15:30:22Z</time>
      </trkpt>
      <trkpt lat="44.06767" lon="7.77983">
        <ele>1488</ele>
        <time>2017-09-17T15:30:23Z</time>
      </trkpt>
      <trkpt lat="44.06765" lon="7.77988">
        <ele>1488</ele>
        <time>2017-09-17T15:30:24Z</time>
      </trkpt>
      <trkpt lat="44.06763" lon="7.77992">
        <ele>1489</ele>
        <time>2017-09-17T15:30:25Z</time>
      </trkpt>
      <trkpt lat="44.06762" lon="7.77997">
        <ele>1489</ele>
        <time>2017-09-17T15:30:26Z</time>
      </trkpt>
      <trkpt lat="44.06761" lon="7.78002">
        <ele>1490</ele>
        <time>2017-09-17T15:30:27Z</time>
      </trkpt>
      <trkpt lat="44.06761" lon="7.78007">
        <ele>1490</ele>
        <time>2017-09-17T15:30:28Z</time>
      </trkpt>
      <trkpt lat="44.06761" lon="7.78013">
        <ele>1491</ele>
        <time>2017-09-17T15:30:29Z</time>
      </trkpt>
      <trkpt lat="44.06762" lon="7.78018">
        <ele>1491</ele>
        <time>2017-09-17T15:30:30Z</time>
      </trkpt>
      <trkpt lat="44.06763" lon="7.78023">
        <ele>1492</ele>
        <time>2017-09-17T15:30:31Z</time>
      </trkpt>
      <trkpt lat="44.06765" lon="7.78028">
        <ele>1492</ele>
        <time>2017-09-17T15:30:32Z</time>
      </trkpt>
      <trkpt lat="44.06766" lon="7.78033">
        <ele>1493</ele>
        <time>2017-09-17T15:30:33Z</time>
      </trkpt>
      <trkpt lat="44.06766" lon="7.78038">
        <ele>1493</ele>
        <time>2017-09-17T15:30:34Z</time>
      </trkpt>
      <trkpt lat="44.06767" lon="7.78043">
        <ele>1494</ele>
        <time>2017-09-17T15:30:35Z</time>
      </trkpt>
      <trkpt lat="44.06766" lon="7.78049">
        <ele>1494</ele>
        <time>2017-09-17T15:30:36Z</time>
      </trkpt>
      <trkpt lat="44.06766" lon="7.78054">
        <ele>1494</ele>
        <time>2017-09-17T15:30:37Z</time>
      </trkpt>
      <trkpt lat="44.06765" lon="7.7806">
        <ele>1495</ele>
        <time>2017-09-17T15:30:38Z</time>
      </trkpt>
      <trkpt lat="44.06763" lon="7.78066">
        <ele>1495</ele>
        <time>2017-09-17T15:30:39Z</time>
      </trkpt>
      <trkpt lat="44.06763" lon="7.78072">
        <ele>1496</ele>
        <time>2017-09-17T15:30:40Z</time>
      </trkpt>
      <trkpt lat="44.06763" lon="7.78078">
        <ele>1496</ele>
        <time>2017-09-17T15:30:41Z</time>
      </trkpt>
      <trkpt lat="44.06763" lon="7.78083">
        <ele>1497</ele>
        <time>2017-09-17T15:30:42Z</time>
      </trkpt>
      <trkpt lat="44.06762" lon="7.78089">
        <ele>1497</ele>
        <time>2017-09-17T15:30:43Z</time>
      </trkpt>
      <trkpt lat="44.06762" lon="7.78095">
        <ele>1498</ele>
        <time>2017-09-17T15:30:44Z</time>
      </trkpt>
      <trkpt lat="44.06761" lon="7.78101">
        <ele>1498</ele>
        <time>2017-09-17T15:30:45Z</time>
      </trkpt>
      <trkpt lat="44.0676" lon="7.78106">
        <ele>1499</ele>
        <time>2017-09-17T15:30:46Z</time>
      </trkpt>
      <trkpt lat="44.06758" lon="7.78112">
        <ele>1499</ele>
        <time>2017-09-17T15:30:47Z</time>
      </trkpt>
      <trkpt lat="44.06756" lon="7.78117">
        <ele>1500</ele>
        <time>2017-09-17T15:30:48Z</time>
      </trkpt>
      <trkpt lat="44.06754" lon="7.78122">
        <ele>1500</ele>
        <time>2017-09-17T15:30:49Z</time>
      </trkpt>
      <trkpt lat="44.06751" lon="7.78126">
        <ele>1501</ele>
        <time>2017-09-17T15:30:50Z</time>
      </trkpt>
      <trkpt lat="44.06748" lon="7.7813">
        <ele>1501</ele>
        <time>2017-09-17T15:30:51Z</time>
      </trkpt>
      <trkpt lat="44.06745" lon="7.78134">
        <ele>1501</ele>
        <time>2017-09-17T15:30:52Z</time>
      </trkpt>
      <trkpt lat="44.06742" lon="7.78137">
        <ele>1502</ele>
        <time>2017-09-17T15:30:53Z</time>
      </trkpt>
      <trkpt lat="44.06738" lon="7.7814">
        <ele>1503</ele>
        <time>2017-09-17T15:30:54Z</time>
      </trkpt>
      <trkpt lat="44.06735" lon="7.78143">
        <ele>1503</ele>
        <time>2017-09-17T15:30:55Z</time>
      </trkpt>
      <trkpt lat="44.06731" lon="7.78146">
        <ele>1504</ele>
        <time>2017-09-17T15:30:56Z</time>
      </trkpt>
      <trkpt lat="44.06727" lon="7.78148">
        <ele>1504</ele>
        <time>2017-09-17T15:30:57Z</time>
      </trkpt>
      <trkpt lat="44.06724" lon="7.78151">
        <ele>1505</ele>
        <time>2017-09-17T15:30:58Z</time>
      </trkpt>
      <trkpt lat="44.0672" lon="7.78154">
        <ele>1505</ele>
        <time>2017-09-17T15:30:59Z</time>
      </trkpt>
      <trkpt lat="44.06716" lon="7.78157">
        <ele>1506</ele>
        <time>2017-09-17T15:31:00Z</time>
      </trkpt>
      <trkpt lat="44.06712" lon="7.7816">
        <ele>1506</ele>
        <time>2017-09-17T15:31:01Z</time>
      </trkpt>
      <trkpt lat="44.06708" lon="7.78164">
        <ele>1507</ele>
        <time>2017-09-17T15:31:02Z</time>
      </trkpt>
      <trkpt lat="44.06705" lon="7.78167">
        <ele>1507</ele>
        <time>2017-09-17T15:31:03Z</time>
      </trkpt>
      <trkpt lat="44.06701" lon="7.7817">
        <ele>1507</ele>
        <time>2017-09-17T15:31:04Z</time>
      </trkpt>
      <trkpt lat="44.06698" lon="7.78173">
        <ele>1508</ele>
        <time>2017-09-17T15:31:05Z</time>
      </trkpt>
      <trkpt lat="44.06694" lon="7.78177">
        <ele>1508</ele>
        <time>2017-09-17T15:31:06Z</time>
      </trkpt>
      <trkpt lat="44.06691" lon="7.78181">
        <ele>1508</ele>
        <time>2017-09-17T15:31:07Z</time>
      </trkpt>
      <trkpt lat="44.06687" lon="7.78184">
        <ele>1509</ele>
        <time>2017-09-17T15:31:08Z</time>
      </trkpt>
      <trkpt lat="44.06684" lon="7.78187">
        <ele>1509</ele>
        <time>2017-09-17T15:31:09Z</time>
      </trkpt>
      <trkpt lat="44.0668" lon="7.7819">
        <ele>1510</ele>
        <time>2017-09-17T15:31:10Z</time>
      </trkpt>
      <trkpt lat="44.06677" lon="7.78193">
        <ele>1510</ele>
        <time>2017-09-17T15:31:11Z</time>
      </trkpt>
      <trkpt lat="44.06674" lon="7.78196">
        <ele>1511</ele>
        <time>2017-09-17T15:31:12Z</time>
      </trkpt>
      <trkpt lat="44.06671" lon="7.782">
        <ele>1511</ele>
        <time>2017-09-17T15:31:13Z</time>
      </trkpt>
      <trkpt lat="44.06668" lon="7.78204">
        <ele>1512</ele>
        <time>2017-09-17T15:31:14Z</time>
      </trkpt>
      <trkpt lat="44.06665" lon="7.78208">
        <ele>1512</ele>
        <time>2017-09-17T15:31:15Z</time>
      </trkpt>
      <trkpt lat="44.06662" lon="7.78212">
        <ele>1513</ele>
        <time>2017-09-17T15:31:16Z</time>
      </trkpt>
      <trkpt lat="44.06659" lon="7.78215">
        <ele>1513</ele>
        <time>2017-09-17T15:31:17Z</time>
      </trkpt>
      <trkpt lat="44.06655" lon="7.78218">
        <ele>1514</ele>
        <time>2017-09-17T15:31:18Z</time>
      </trkpt>
      <trkpt lat="44.06651" lon="7.7822">
        <ele>1515</ele>
        <time>2017-09-17T15:31:19Z</time>
      </trkpt>
      <trkpt lat="44.06648" lon="7.78223">
        <ele>1515</ele>
        <time>2017-09-17T15:31:20Z</time>
      </trkpt>
      <trkpt lat="44.06645" lon="7.78226">
        <ele>1515</ele>
        <time>2017-09-17T15:31:21Z</time>
      </trkpt>
      <trkpt lat="44.06642" lon="7.78229">
        <ele>1516</ele>
        <time>2017-09-17T15:31:22Z</time>
      </trkpt>
      <trkpt lat="44.0664" lon="7.78233">
        <ele>1516</ele>
        <time>2017-09-17T15:31:23Z</time>
      </trkpt>
      <trkpt lat="44.06637" lon="7.78237">
        <ele>1517</ele>
        <time>2017-09-17T15:31:24Z</time>
      </trkpt>
      <trkpt lat="44.06635" lon="7.78242">
        <ele>1517</ele>
        <time>2017-09-17T15:31:25Z</time>
      </trkpt>
      <trkpt lat="44.06633" lon="7.78246">
        <ele>1518</ele>
        <time>2017-09-17T15:31:26Z</time>
      </trkpt>
      <trkpt lat="44.06631" lon="7.7825">
        <ele>1518</ele>
        <time>2017-09-17T15:31:27Z</time>
      </trkpt>
      <trkpt lat="44.06629" lon="7.78255">
        <ele>1518</ele>
        <time>2017-09-17T15:31:28Z</time>
      </trkpt>
      <trkpt lat="44.06626" lon="7.78259">
        <ele>1519</ele>
        <time>2017-09-17T15:31:29Z</time>
      </trkpt>
      <trkpt lat="44.06624" lon="7.78264">
        <ele>1519</ele>
        <time>2017-09-17T15:31:30Z</time>
      </trkpt>
      <trkpt lat="44.06621" lon="7.78269">
        <ele>1520</ele>
        <time>2017-09-17T15:31:31Z</time>
      </trkpt>
      <trkpt lat="44.06618" lon="7.78273">
        <ele>1520</ele>
        <time>2017-09-17T15:31:32Z</time>
      </trkpt>
      <trkpt lat="44.06615" lon="7.78277">
        <ele>1521</ele>
        <time>2017-09-17T15:31:33Z</time>
      </trkpt>
      <trkpt lat="44.06612" lon="7.78281">
        <ele>1521</ele>
        <time>2017-09-17T15:31:34Z</time>
      </trkpt>
      <trkpt lat="44.06609" lon="7.78285">
        <ele>1521</ele>
        <time>2017-09-17T15:31:35Z</time>
      </trkpt>
      <trkpt lat="44.06606" lon="7.78289">
        <ele>1522</ele>
        <time>2017-09-17T15:31:36Z</time>
      </trkpt>
      <trkpt lat="44.06603" lon="7.78293">
        <ele>1522</ele>
        <time>2017-09-17T15:31:37Z</time>
      </trkpt>
      <trkpt lat="44.06599" lon="7.78297">
        <ele>1523</ele>
        <time>2017-09-17T15:31:38Z</time>
      </trkpt>
      <trkpt lat="44.06596" lon="7.78302">
        <ele>1523</ele>
        <time>2017-09-17T15:31:39Z</time>
      </trkpt>
      <trkpt lat="44.06593" lon="7.78306">
        <ele>1523</ele>
        <time>2017-09-17T15:31:40Z</time>
      </trkpt>
      <trkpt lat="44.0659" lon="7.7831">
        <ele>1524</ele>
        <time>2017-09-17T15:31:41Z</time>
      </trkpt>
      <trkpt lat="44.06586" lon="7.78314">
        <ele>1524</ele>
        <time>2017-09-17T15:31:42Z</time>
      </trkpt>
      <trkpt lat="44.06582" lon="7.78317">
        <ele>1525</ele>
        <time>2017-09-17T15:31:43Z</time>
      </trkpt>
      <trkpt lat="44.06578" lon="7.78319">
        <ele>1526</ele>
        <time>2017-09-17T15:31:44Z</time>
      </trkpt>
      <trkpt lat="44.06574" lon="7.7832">
        <ele>1526</ele>
        <time>2017-09-17T15:31:45Z</time>
      </trkpt>
      <trkpt lat="44.0657" lon="7.78319">
        <ele>1527</ele>
        <time>2017-09-17T15:31:46Z</time>
      </trkpt>
      <trkpt lat="44.06566" lon="7.78318">
        <ele>1527</ele>
        <time>2017-09-17T15:31:47Z</time>
      </trkpt>
      <trkpt lat="44.06561" lon="7.78317">
        <ele>1527</ele>
        <time>2017-09-17T15:31:48Z</time>
      </trkpt>
      <trkpt lat="44.06557" lon="7.78316">
        <ele>1528</ele>
        <time>2017-09-17T15:31:49Z</time>
      </trkpt>
      <trkpt lat="44.06553" lon="7.78314">
        <ele>1528</ele>
        <time>2017-09-17T15:31:50Z</time>
      </trkpt>
      <trkpt lat="44.0655" lon="7.78311">
        <ele>1528</ele>
        <time>2017-09-17T15:31:51Z</time>
      </trkpt>
      <trkpt lat="44.06547" lon="7.78308">
        <ele>1529</ele>
        <time>2017-09-17T15:31:52Z</time>
      </trkpt>
      <trkpt lat="44.06544" lon="7.78304">
        <ele>1529</ele>
        <time>2017-09-17T15:31:53Z</time>
      </trkpt>
      <trkpt lat="44.06542" lon="7.783">
        <ele>1529</ele>
        <time>2017-09-17T15:31:54Z</time>
      </trkpt>
      <trkpt lat="44.06539" lon="7.78296">
        <ele>1530</ele>
        <time>2017-09-17T15:31:55Z</time>
      </trkpt>
      <trkpt lat="44.06537" lon="7.78292">
        <ele>1530</ele>
        <time>2017-09-17T15:31:56Z</time>
      </trkpt>
      <trkpt lat="44.06534" lon="7.78287">
        <ele>1530</ele>
        <time>2017-09-17T15:31:57Z</time>
      </trkpt>
      <trkpt lat="44.06532" lon="7.78283">
        <ele>1531</ele>
        <time>2017-09-17T15:31:58Z</time>
      </trkpt>
      <trkpt lat="44.0653" lon="7.78278">
        <ele>1531</ele>
        <time>2017-09-17T15:31:59Z</time>
      </trkpt>
      <trkpt lat="44.06528" lon="7.78274">
        <ele>1531</ele>
        <time>2017-09-17T15:32:00Z</time>
      </trkpt>
      <trkpt lat="44.06525" lon="7.7827">
        <ele>1532</ele>
        <time>2017-09-17T15:32:01Z</time>
      </trkpt>
      <trkpt lat="44.06523" lon="7.78265">
        <ele>1532</ele>
        <time>2017-09-17T15:32:02Z</time>
      </trkpt>
      <trkpt lat="44.06522" lon="7.7826">
        <ele>1533</ele>
        <time>2017-09-17T15:32:03Z</time>
      </trkpt>
      <trkpt lat="44.0652" lon="7.78255">
        <ele>1533</ele>
        <time>2017-09-17T15:32:04Z</time>
      </trkpt>
      <trkpt lat="44.06519" lon="7.78249">
        <ele>1533</ele>
        <time>2017-09-17T15:32:05Z</time>
      </trkpt>
      <trkpt lat="44.06519" lon="7.78244">
        <ele>1533</ele>
        <time>2017-09-17T15:32:06Z</time>
      </trkpt>
      <trkpt lat="44.06518" lon="7.78238">
        <ele>1534</ele>
        <time>2017-09-17T15:32:07Z</time>
      </trkpt>
      <trkpt lat="44.06517" lon="7.78231">
        <ele>1534</ele>
        <time>2017-09-17T15:32:08Z</time>
      </trkpt>
      <trkpt lat="44.06516" lon="7.78225">
        <ele>1534</ele>
        <time>2017-09-17T15:32:09Z</time>
      </trkpt>
      <trkpt lat="44.06515" lon="7.78218">
        <ele>1534</ele>
        <time>2017-09-17T15:32:10Z</time>
      </trkpt>
      <trkpt lat="44.06514" lon="7.78212">
        <ele>1534</ele>
        <time>2017-09-17T15:32:11Z</time>
      </trkpt>
      <trkpt lat="44.06513" lon="7.78205">
        <ele>1535</ele>
        <time>2017-09-17T15:32:12Z</time>
      </trkpt>
      <trkpt lat="44.06512" lon="7.78197">
        <ele>1535</ele>
        <time>2017-09-17T15:32:13Z</time>
      </trkpt>
      <trkpt lat="44.06511" lon="7.7819">
        <ele>1535</ele>
        <time>2017-09-17T15:32:14Z</time>
      </trkpt>
      <trkpt lat="44.06511" lon="7.78183">
        <ele>1536</ele>
        <time>2017-09-17T15:32:15Z</time>
      </trkpt>
      <trkpt lat="44.0651" lon="7.78176">
        <ele>1536</ele>
        <time>2017-09-17T15:32:16Z</time>
      </trkpt>
      <trkpt lat="44.06509" lon="7.78169">
        <ele>1536</ele>
        <time>2017-09-17T15:32:17Z</time>
      </trkpt>
      <trkpt lat="44.06508" lon="7.78162">
        <ele>1537</ele>
        <time>2017-09-17T15:32:18Z</time>
      </trkpt>
      <trkpt lat="44.06506" lon="7.78156">
        <ele>1537</ele>
        <time>2017-09-17T15:32:19Z</time>
      </trkpt>
      <trkpt lat="44.06503" lon="7.7815">
        <ele>1537</ele>
        <time>2017-09-17T15:32:20Z</time>
      </trkpt>
      <trkpt lat="44.065" lon="7.78144">
        <ele>1537</ele>
        <time>2017-09-17T15:32:21Z</time>
      </trkpt>
      <trkpt lat="44.06496" lon="7.78139">
        <ele>1537</ele>
        <time>2017-09-17T15:32:22Z</time>
      </trkpt>
      <trkpt lat="44.06492" lon="7.78136">
        <ele>1538</ele>
        <time>2017-09-17T15:32:23Z</time>
      </trkpt>
      <trkpt lat="44.06487" lon="7.78134">
        <ele>1538</ele>
        <time>2017-09-17T15:32:24Z</time>
      </trkpt>
      <trkpt lat="44.06481" lon="7.78132">
        <ele>1538</ele>
        <time>2017-09-17T15:32:25Z</time>
      </trkpt>
      <trkpt lat="44.06476" lon="7.7813">
        <ele>1538</ele>
        <time>2017-09-17T15:32:26Z</time>
      </trkpt>
      <trkpt lat="44.06471" lon="7.78128">
        <ele>1538</ele>
        <time>2017-09-17T15:32:27Z</time>
      </trkpt>
      <trkpt lat="44.06466" lon="7.78126">
        <ele>1539</ele>
        <time>2017-09-17T15:32:28Z</time>
      </trkpt>
      <trkpt lat="44.06461" lon="7.78124">
        <ele>1539</ele>
        <time>2017-09-17T15:32:29Z</time>
      </trkpt>
      <trkpt lat="44.06455" lon="7.78121">
        <ele>1539</ele>
        <time>2017-09-17T15:32:30Z</time>
      </trkpt>
      <trkpt lat="44.0645" lon="7.78118">
        <ele>1540</ele>
        <time>2017-09-17T15:32:31Z</time>
      </trkpt>
      <trkpt lat="44.06446" lon="7.78115">
        <ele>1540</ele>
        <time>2017-09-17T15:32:32Z</time>
      </trkpt>
      <trkpt lat="44.06441" lon="7.78111">
        <ele>1540</ele>
        <time>2017-09-17T15:32:33Z</time>
      </trkpt>
      <trkpt lat="44.06437" lon="7.78106">
        <ele>1541</ele>
        <time>2017-09-17T15:32:34Z</time>
      </trkpt>
      <trkpt lat="44.06432" lon="7.78102">
        <ele>1541</ele>
        <time>2017-09-17T15:32:35Z</time>
      </trkpt>
      <trkpt lat="44.06428" lon="7.78097">
        <ele>1541</ele>
        <time>2017-09-17T15:32:36Z</time>
      </trkpt>
      <trkpt lat="44.06424" lon="7.78092">
        <ele>1541</ele>
        <time>2017-09-17T15:32:37Z</time>
      </trkpt>
      <trkpt lat="44.06419" lon="7.78087">
        <ele>1542</ele>
        <time>2017-09-17T15:32:38Z</time>
      </trkpt>
      <trkpt lat="44.06415" lon="7.78082">
        <ele>1542</ele>
        <time>2017-09-17T15:32:39Z</time>
      </trkpt>
      <trkpt lat="44.0641" lon="7.78078">
        <ele>1542</ele>
        <time>2017-09-17T15:32:40Z</time>
      </trkpt>
      <trkpt lat="44.06406" lon="7.78073">
        <ele>1543</ele>
        <time>2017-09-17T15:32:41Z</time>
      </trkpt>
      <trkpt lat="44.06401" lon="7.78068">
        <ele>1543</ele>
        <time>2017-09-17T15:32:42Z</time>
      </trkpt>
      <trkpt lat="44.06397" lon="7.78064">
        <ele>1543</ele>
        <time>2017-09-17T15:32:43Z</time>
      </trkpt>
      <trkpt lat="44.06392" lon="7.78059">
        <ele>1543</ele>
        <time>2017-09-17T15:32:44Z</time>
      </trkpt>
      <trkpt lat="44.06388" lon="7.78054">
        <ele>1544</ele>
        <time>2017-09-17T15:32:45Z</time>
      </trkpt>
      <trkpt lat="44.06383" lon="7.7805">
        <ele>1544</ele>
        <time>2017-09-17T15:32:46Z</time>
      </trkpt>
      <trkpt lat="44.06378" lon="7.78046">
        <ele>1544</ele>
        <time>2017-09-17T15:32:47Z</time>
      </trkpt>
      <trkpt lat="44.06373" lon="7.78043">
        <ele>1544</ele>
        <time>2017-09-17T15:32:48Z</time>
      </trkpt>
      <trkpt lat="44.06368" lon="7.78039">
        <ele>1545</ele>
        <time>2017-09-17T15:32:49Z</time>
      </trkpt>
      <trkpt lat="44.06363" lon="7.78036">
        <ele>1545</ele>
        <time>2017-09-17T15:32:50Z</time>
      </trkpt>
      <trkpt lat="44.06358" lon="7.78033">
        <ele>1545</ele>
        <time>2017-09-17T15:32:51Z</time>
      </trkpt>
      <trkpt lat="44.06352" lon="7.7803">
        <ele>1546</ele>
        <time>2017-09-17T15:32:52Z</time>
      </trkpt>
      <trkpt lat="44.06347" lon="7.78027">
        <ele>1546</ele>
        <time>2017-09-17T15:32:53Z</time>
      </trkpt>
      <trkpt lat="44.06342" lon="7.78025">
        <ele>1546</ele>
        <time>2017-09-17T15:32:54Z</time>
      </trkpt>
      <trkpt lat="44.06337" lon="7.78024">
        <ele>1547</ele>
        <time>2017-09-17T15:32:55Z</time>
      </trkpt>
      <trkpt lat="44.06331" lon="7.78023">
        <ele>1547</ele>
        <time>2017-09-17T15:32:56Z</time>
      </trkpt>
      <trkpt lat="44.06326" lon="7.78022">
        <ele>1547</ele>
        <time>2017-09-17T15:32:57Z</time>
      </trkpt>
      <trkpt lat="44.0632" lon="7.7802">
        <ele>1548</ele>
        <time>2017-09-17T15:32:58Z</time>
      </trkpt>
      <trkpt lat="44.06315" lon="7.78018">
        <ele>1548</ele>
        <time>2017-09-17T15:32:59Z</time>
      </trkpt>
      <trkpt lat="44.0631" lon="7.78017">
        <ele>1548</ele>
        <time>2017-09-17T15:33:00Z</time>
      </trkpt>
      <trkpt lat="44.06304" lon="7.78015">
        <ele>1549</ele>
        <time>2017-09-17T15:33:01Z</time>
      </trkpt>
      <trkpt lat="44.06299" lon="7.78014">
        <ele>1549</ele>
        <time>2017-09-17T15:33:02Z</time>
      </trkpt>
      <trkpt lat="44.06294" lon="7.78013">
        <ele>1550</ele>
        <time>2017-09-17T15:33:03Z</time>
      </trkpt>
      <trkpt lat="44.06288" lon="7.78012">
        <ele>1550</ele>
        <time>2017-09-17T15:33:04Z</time>
      </trkpt>
      <trkpt lat="44.06283" lon="7.78012">
        <ele>1550</ele>
        <time>2017-09-17T15:33:05Z</time>
      </trkpt>
      <trkpt lat="44.06278" lon="7.78013">
        <ele>1551</ele>
        <time>2017-09-17T15:33:06Z</time>
      </trkpt>
      <trkpt lat="44.06273" lon="7.78014">
        <ele>1551</ele>
        <time>2017-09-17T15:33:07Z</time>
      </trkpt>
      <trkpt lat="44.06269" lon="7.78015">
        <ele>1552</ele>
        <time>2017-09-17T15:33:08Z</time>
      </trkpt>
      <trkpt lat="44.06264" lon="7.78017">
        <ele>1552</ele>
        <time>2017-09-17T15:33:09Z</time>
      </trkpt>
      <trkpt lat="44.06259" lon="7.78019">
        <ele>1553</ele>
        <time>2017-09-17T15:33:10Z</time>
      </trkpt>
      <trkpt lat="44.06255" lon="7.7802">
        <ele>1553</ele>
        <time>2017-09-17T15:33:11Z</time>
      </trkpt>
      <trkpt lat="44.0625" lon="7.78021">
        <ele>1554</ele>
        <time>2017-09-17T15:33:12Z</time>
      </trkpt>
      <trkpt lat="44.06245" lon="7.78022">
        <ele>1554</ele>
        <time>2017-09-17T15:33:13Z</time>
      </trkpt>
      <trkpt lat="44.0624" lon="7.78023">
        <ele>1554</ele>
        <time>2017-09-17T15:33:14Z</time>
      </trkpt>
      <trkpt lat="44.06236" lon="7.78025">
        <ele>1555</ele>
        <time>2017-09-17T15:33:15Z</time>
      </trkpt>
      <trkpt lat="44.06231" lon="7.78026">
        <ele>1555</ele>
        <time>2017-09-17T15:33:16Z</time>
      </trkpt>
      <trkpt lat="44.06226" lon="7.78027">
        <ele>1555</ele>
        <time>2017-09-17T15:33:17Z</time>
      </trkpt>
      <trkpt lat="44.06221" lon="7.78029">
        <ele>1556</ele>
        <time>2017-09-17T15:33:18Z</time>
      </trkpt>
      <trkpt lat="44.06216" lon="7.7803">
        <ele>1556</ele>
        <time>2017-09-17T15:33:19Z</time>
      </trkpt>
      <trkpt lat="44.06211" lon="7.78031">
        <ele>1557</ele>
        <time>2017-09-17T15:33:20Z</time>
      </trkpt>
      <trkpt lat="44.06206" lon="7.78032">
        <ele>1557</ele>
        <time>2017-09-17T15:33:21Z</time>
      </trkpt>
      <trkpt lat="44.06201" lon="7.78034">
        <ele>1558</ele>
        <time>2017-09-17T15:33:22Z</time>
      </trkpt>
      <trkpt lat="44.06196" lon="7.78034">
        <ele>1558</ele>
        <time>2017-09-17T15:33:23Z</time>
      </trkpt>
      <trkpt lat="44.06192" lon="7.78034">
        <ele>1558</ele>
        <time>2017-09-17T15:33:24Z</time>
      </trkpt>
      <trkpt lat="44.06187" lon="7.78034">
        <ele>1559</ele>
        <time>2017-09-17T15:33:25Z</time>
      </trkpt>
      <trkpt lat="44.06182" lon="7.78035">
        <ele>1559</ele>
        <time>2017-09-17T15:33:26Z</time>
      </trkpt>
      <trkpt lat="44.06178" lon="7.78035">
        <ele>1559</ele>
        <time>2017-09-17T15:33:27Z</time>
      </trkpt>
      <trkpt lat="44.06173" lon="7.78035">
        <ele>1560</ele>
        <time>2017-09-17T15:33:28Z</time>
      </trkpt>
      <trkpt lat="44.06168" lon="7.78034">
        <ele>1560</ele>
        <time>2017-09-17T15:33:29Z</time>
      </trkpt>
      <trkpt lat="44.06163" lon="7.78035">
        <ele>1560</ele>
        <time>2017-09-17T15:33:30Z</time>
      </trkpt>
      <trkpt lat="44.06159" lon="7.78035">
        <ele>1560</ele>
        <time>2017-09-17T15:33:31Z</time>
      </trkpt>
      <trkpt lat="44.06154" lon="7.78035">
        <ele>1561</ele>
        <time>2017-09-17T15:33:32Z</time>
      </trkpt>
      <trkpt lat="44.0615" lon="7.78035">
        <ele>1561</ele>
        <time>2017-09-17T15:33:33Z</time>
      </trkpt>
      <trkpt lat="44.06146" lon="7.78035">
        <ele>1561</ele>
        <time>2017-09-17T15:33:34Z</time>
      </trkpt>
      <trkpt lat="44.06142" lon="7.78035">
        <ele>1561</ele>
        <time>2017-09-17T15:33:35Z</time>
      </trkpt>
      <trkpt lat="44.06137" lon="7.78035">
        <ele>1561</ele>
        <time>2017-09-17T15:33:36Z</time>
      </trkpt>
      <trkpt lat="44.06133" lon="7.78034">
        <ele>1561</ele>
        <time>2017-09-17T15:33:37Z</time>
      </trkpt>
      <trkpt lat="44.06129" lon="7.78033">
        <ele>1562</ele>
        <time>2017-09-17T15:33:38Z</time>
      </trkpt>
      <trkpt lat="44.06126" lon="7.78031">
        <ele>1562</ele>
        <time>2017-09-17T15:33:39Z</time>
      </trkpt>
      <trkpt lat="44.06123" lon="7.78027">
        <ele>1562</ele>
        <time>2017-09-17T15:33:40Z</time>
      </trkpt>
      <trkpt lat="44.06121" lon="7.78024">
        <ele>1563</ele>
        <time>2017-09-17T15:33:41Z</time>
      </trkpt>
      <trkpt lat="44.06119" lon="7.78019">
        <ele>1563</ele>
        <time>2017-09-17T15:33:42Z</time>
      </trkpt>
      <trkpt lat="44.06118" lon="7.78014">
        <ele>1563</ele>
        <time>2017-09-17T15:33:43Z</time>
      </trkpt>
      <trkpt lat="44.06118" lon="7.78009">
        <ele>1564</ele>
        <time>2017-09-17T15:33:44Z</time>
      </trkpt>
      <trkpt lat="44.06117" lon="7.78004">
        <ele>1564</ele>
        <time>2017-09-17T15:33:45Z</time>
      </trkpt>
      <trkpt lat="44.06117" lon="7.77999">
        <ele>1564</ele>
        <time>2017-09-17T15:33:46Z</time>
      </trkpt>
      <trkpt lat="44.06116" lon="7.77994">
        <ele>1565</ele>
        <time>2017-09-17T15:33:47Z</time>
      </trkpt>
      <trkpt lat="44.06116" lon="7.77988">
        <ele>1565</ele>
        <time>2017-09-17T15:33:48Z</time>
      </trkpt>
      <trkpt lat="44.06115" lon="7.77983">
        <ele>1565</ele>
        <time>2017-09-17T15:33:49Z</time>
      </trkpt>
      <trkpt lat="44.06115" lon="7.77977">
        <ele>1566</ele>
        <time>2017-09-17T15:33:50Z</time>
      </trkpt>
      <trkpt lat="44.06115" lon="7.77971">
        <ele>1566</ele>
        <time>2017-09-17T15:33:51Z</time>
      </trkpt>
      <trkpt lat="44.06115" lon="7.77965">
        <ele>1567</ele>
        <time>2017-09-17T15:33:52Z</time>
      </trkpt>
      <trkpt lat="44.06114" lon="7.77959">
        <ele>1567</ele>
        <time>2017-09-17T15:33:53Z</time>
      </trkpt>
      <trkpt lat="44.06115" lon="7.77953">
        <ele>1568</ele>
        <time>2017-09-17T15:33:54Z</time>
      </trkpt>
      <trkpt lat="44.06114" lon="7.77947">
        <ele>1568</ele>
        <time>2017-09-17T15:33:55Z</time>
      </trkpt>
      <trkpt lat="44.06114" lon="7.77941">
        <ele>1569</ele>
        <time>2017-09-17T15:33:56Z</time>
      </trkpt>
      <trkpt lat="44.06114" lon="7.77935">
        <ele>1569</ele>
        <time>2017-09-17T15:33:57Z</time>
      </trkpt>
      <trkpt lat="44.06114" lon="7.77929">
        <ele>1570</ele>
        <time>2017-09-17T15:33:58Z</time>
      </trkpt>
      <trkpt lat="44.06114" lon="7.77924">
        <ele>1570</ele>
        <time>2017-09-17T15:33:59Z</time>
      </trkpt>
      <trkpt lat="44.06114" lon="7.77918">
        <ele>1571</ele>
        <time>2017-09-17T15:34:00Z</time>
      </trkpt>
      <trkpt lat="44.06113" lon="7.77912">
        <ele>1572</ele>
        <time>2017-09-17T15:34:01Z</time>
      </trkpt>
      <trkpt lat="44.06113" lon="7.77906">
        <ele>1572</ele>
        <time>2017-09-17T15:34:02Z</time>
      </trkpt>
      <trkpt lat="44.06113" lon="7.779">
        <ele>1573</ele>
        <time>2017-09-17T15:34:03Z</time>
      </trkpt>
      <trkpt lat="44.06113" lon="7.77894">
        <ele>1573</ele>
        <time>2017-09-17T15:34:04Z</time>
      </trkpt>
      <trkpt lat="44.06113" lon="7.77888">
        <ele>1574</ele>
        <time>2017-09-17T15:34:05Z</time>
      </trkpt>
      <trkpt lat="44.06112" lon="7.77882">
        <ele>1574</ele>
        <time>2017-09-17T15:34:06Z</time>
      </trkpt>
      <trkpt lat="44.06112" lon="7.77876">
        <ele>1575</ele>
        <time>2017-09-17T15:34:07Z</time>
      </trkpt>
      <trkpt lat="44.06113" lon="7.77869">
        <ele>1575</ele>
        <time>2017-09-17T15:34:08Z</time>
      </trkpt>
      <trkpt lat="44.06113" lon="7.77864">
        <ele>1576</ele>
        <time>2017-09-17T15:34:09Z</time>
      </trkpt>
      <trkpt lat="44.06113" lon="7.77858">
        <ele>1576</ele>
        <time>2017-09-17T15:34:10Z</time>
      </trkpt>
      <trkpt lat="44.06113" lon="7.77852">
        <ele>1577</ele>
        <time>2017-09-17T15:34:11Z</time>
      </trkpt>
      <trkpt lat="44.06113" lon="7.77847">
        <ele>1577</ele>
        <time>2017-09-17T15:34:12Z</time>
      </trkpt>
      <trkpt lat="44.06113" lon="7.77841">
        <ele>1577</ele>
        <time>2017-09-17T15:34:13Z</time>
      </trkpt>
      <trkpt lat="44.06113" lon="7.77835">
        <ele>1578</ele>
        <time>2017-09-17T15:34:14Z</time>
      </trkpt>
      <trkpt lat="44.06113" lon="7.7783">
        <ele>1578</ele>
        <time>2017-09-17T15:34:15Z</time>
      </trkpt>
      <trkpt lat="44.06113" lon="7.77825">
        <ele>1578</ele>
        <time>2017-09-17T15:34:16Z</time>
      </trkpt>
      <trkpt lat="44.06113" lon="7.7782">
        <ele>1578</ele>
        <time>2017-09-17T15:34:17Z</time>
      </trkpt>
      <trkpt lat="44.06113" lon="7.77814">
        <ele>1579</ele>
        <time>2017-09-17T15:34:18Z</time>
      </trkpt>
      <trkpt lat="44.06113" lon="7.77808">
        <ele>1579</ele>
        <time>2017-09-17T15:34:19Z</time>
      </trkpt>
      <trkpt lat="44.06113" lon="7.77803">
        <ele>1579</ele>
        <time>2017-09-17T15:34:20Z</time>
      </trkpt>
      <trkpt lat="44.06114" lon="7.77796">
        <ele>1580</ele>
        <time>2017-09-17T15:34:21Z</time>
      </trkpt>
      <trkpt lat="44.06114" lon="7.7779">
        <ele>1580</ele>
        <time>2017-09-17T15:34:22Z</time>
      </trkpt>
      <trkpt lat="44.06114" lon="7.77784">
        <ele>1580</ele>
        <time>2017-09-17T15:34:23Z</time>
      </trkpt>
      <trkpt lat="44.06114" lon="7.77778">
        <ele>1581</ele>
        <time>2017-09-17T15:34:24Z</time>
      </trkpt>
      <trkpt lat="44.06114" lon="7.77772">
        <ele>1581</ele>
        <time>2017-09-17T15:34:25Z</time>
      </trkpt>
      <trkpt lat="44.06112" lon="7.77766">
        <ele>1581</ele>
        <time>2017-09-17T15:34:26Z</time>
      </trkpt>
      <trkpt lat="44.0611" lon="7.77761">
        <ele>1581</ele>
        <time>2017-09-17T15:34:27Z</time>
      </trkpt>
      <trkpt lat="44.06108" lon="7.77755">
        <ele>1582</ele>
        <time>2017-09-17T15:34:28Z</time>
      </trkpt>
      <trkpt lat="44.06105" lon="7.7775">
        <ele>1582</ele>
        <time>2017-09-17T15:34:29Z</time>
      </trkpt>
      <trkpt lat="44.06102" lon="7.77746">
        <ele>1582</ele>
        <time>2017-09-17T15:34:30Z</time>
      </trkpt>
      <trkpt lat="44.06099" lon="7.77741">
        <ele>1583</ele>
        <time>2017-09-17T15:34:31Z</time>
      </trkpt>
      <trkpt lat="44.06097" lon="7.77737">
        <ele>1583</ele>
        <time>2017-09-17T15:34:32Z</time>
      </trkpt>
      <trkpt lat="44.06094" lon="7.77733">
        <ele>1583</ele>
        <time>2017-09-17T15:34:33Z</time>
      </trkpt>
      <trkpt lat="44.06091" lon="7.77728">
        <ele>1584</ele>
        <time>2017-09-17T15:34:34Z</time>
      </trkpt>
      <trkpt lat="44.06089" lon="7.77723">
        <ele>1584</ele>
        <time>2017-09-17T15:34:35Z</time>
      </trkpt>
      <trkpt lat="44.06087" lon="7.77718">
        <ele>1585</ele>
        <time>2017-09-17T15:34:36Z</time>
      </trkpt>
      <trkpt lat="44.06084" lon="7.77713">
        <ele>1585</ele>
        <time>2017-09-17T15:34:37Z</time>
      </trkpt>
      <trkpt lat="44.06082" lon="7.77708">
        <ele>1586</ele>
        <time>2017-09-17T15:34:38Z</time>
      </trkpt>
      <trkpt lat="44.0608" lon="7.77703">
        <ele>1586</ele>
        <time>2017-09-17T15:34:39Z</time>
      </trkpt>
      <trkpt lat="44.06077" lon="7.77697">
        <ele>1586</ele>
        <time>2017-09-17T15:34:40Z</time>
      </trkpt>
      <trkpt lat="44.06075" lon="7.77692">
        <ele>1587</ele>
        <time>2017-09-17T15:34:41Z</time>
      </trkpt>
      <trkpt lat="44.06072" lon="7.77687">
        <ele>1587</ele>
        <time>2017-09-17T15:34:42Z</time>
      </trkpt>
      <trkpt lat="44.0607" lon="7.77681">
        <ele>1588</ele>
        <time>2017-09-17T15:34:43Z</time>
      </trkpt>
      <trkpt lat="44.06068" lon="7.77676">
        <ele>1588</ele>
        <time>2017-09-17T15:34:44Z</time>
      </trkpt>
      <trkpt lat="44.06066" lon="7.77671">
        <ele>1589</ele>
        <time>2017-09-17T15:34:45Z</time>
      </trkpt>
      <trkpt lat="44.06064" lon="7.77666">
        <ele>1589</ele>
        <time>2017-09-17T15:34:46Z</time>
      </trkpt>
      <trkpt lat="44.06061" lon="7.77661">
        <ele>1589</ele>
        <time>2017-09-17T15:34:47Z</time>
      </trkpt>
      <trkpt lat="44.06059" lon="7.77655">
        <ele>1590</ele>
        <time>2017-09-17T15:34:48Z</time>
      </trkpt>
      <trkpt lat="44.06058" lon="7.7765">
        <ele>1590</ele>
        <time>2017-09-17T15:34:49Z</time>
      </trkpt>
      <trkpt lat="44.06056" lon="7.77644">
        <ele>1591</ele>
        <time>2017-09-17T15:34:50Z</time>
      </trkpt>
      <trkpt lat="44.06055" lon="7.77638">
        <ele>1591</ele>
        <time>2017-09-17T15:34:51Z</time>
      </trkpt>
      <trkpt lat="44.06054" lon="7.77633">
        <ele>1591</ele>
        <time>2017-09-17T15:34:52Z</time>
      </trkpt>
      <trkpt lat="44.06052" lon="7.77627">
        <ele>1592</ele>
        <time>2017-09-17T15:34:53Z</time>
      </trkpt>
      <trkpt lat="44.06051" lon="7.77622">
        <ele>1592</ele>
        <time>2017-09-17T15:34:54Z</time>
      </trkpt>
      <trkpt lat="44.0605" lon="7.77616">
        <ele>1592</ele>
        <time>2017-09-17T15:34:55Z</time>
      </trkpt>
      <trkpt lat="44.06049" lon="7.77611">
        <ele>1593</ele>
        <time>2017-09-17T15:34:56Z</time>
      </trkpt>
      <trkpt lat="44.06049" lon="7.77605">
        <ele>1593</ele>
        <time>2017-09-17T15:34:57Z</time>
      </trkpt>
      <trkpt lat="44.06048" lon="7.77598">
        <ele>1593</ele>
        <time>2017-09-17T15:34:58Z</time>
      </trkpt>
      <trkpt lat="44.06048" lon="7.77592">
        <ele>1593</ele>
        <time>2017-09-17T15:34:59Z</time>
      </trkpt>
      <trkpt lat="44.06047" lon="7.77585">
        <ele>1594</ele>
        <time>2017-09-17T15:35:00Z</time>
      </trkpt>
      <trkpt lat="44.06047" lon="7.77578">
        <ele>1594</ele>
        <time>2017-09-17T15:35:01Z</time>
      </trkpt>
      <trkpt lat="44.06048" lon="7.77572">
        <ele>1594</ele>
        <time>2017-09-17T15:35:02Z</time>
      </trkpt>
      <trkpt lat="44.06049" lon="7.77565">
        <ele>1595</ele>
        <time>2017-09-17T15:35:03Z</time>
      </trkpt>
      <trkpt lat="44.0605" lon="7.77559">
        <ele>1595</ele>
        <time>2017-09-17T15:35:04Z</time>
      </trkpt>
      <trkpt lat="44.06051" lon="7.77553">
        <ele>1596</ele>
        <time>2017-09-17T15:35:05Z</time>
      </trkpt>
      <trkpt lat="44.06053" lon="7.77547">
        <ele>1596</ele>
        <time>2017-09-17T15:35:06Z</time>
      </trkpt>
      <trkpt lat="44.06054" lon="7.77541">
        <ele>1596</ele>
        <time>2017-09-17T15:35:07Z</time>
      </trkpt>
      <trkpt lat="44.06056" lon="7.77535">
        <ele>1597</ele>
        <time>2017-09-17T15:35:08Z</time>
      </trkpt>
      <trkpt lat="44.06058" lon="7.77529">
        <ele>1597</ele>
        <time>2017-09-17T15:35:09Z</time>
      </trkpt>
      <trkpt lat="44.0606" lon="7.77523">
        <ele>1597</ele>
        <time>2017-09-17T15:35:10Z</time>
      </trkpt>
      <trkpt lat="44.06062" lon="7.77517">
        <ele>1598</ele>
        <time>2017-09-17T15:35:11Z</time>
      </trkpt>
      <trkpt lat="44.06064" lon="7.77512">
        <ele>1598</ele>
        <time>2017-09-17T15:35:12Z</time>
      </trkpt>
      <trkpt lat="44.06066" lon="7.77506">
        <ele>1598</ele>
        <time>2017-09-17T15:35:13Z</time>
      </trkpt>
      <trkpt lat="44.06068" lon="7.775">
        <ele>1598</ele>
        <time>2017-09-17T15:35:14Z</time>
      </trkpt>
      <trkpt lat="44.0607" lon="7.77494">
        <ele>1599</ele>
        <time>2017-09-17T15:35:15Z</time>
      </trkpt>
      <trkpt lat="44.06072" lon="7.77488">
        <ele>1599</ele>
        <time>2017-09-17T15:35:16Z</time>
      </trkpt>
      <trkpt lat="44.06073" lon="7.77482">
        <ele>1599</ele>
        <time>2017-09-17T15:35:17Z</time>
      </trkpt>
      <trkpt lat="44.06074" lon="7.77476">
        <ele>1599</ele>
        <time>2017-09-17T15:35:18Z</time>
      </trkpt>
      <trkpt lat="44.06073" lon="7.77469">
        <ele>1600</ele>
        <time>2017-09-17T15:35:19Z</time>
      </trkpt>
      <trkpt lat="44.06071" lon="7.77463">
        <ele>1600</ele>
        <time>2017-09-17T15:35:20Z</time>
      </trkpt>
      <trkpt lat="44.06067" lon="7.7746">
        <ele>1600</ele>
        <time>2017-09-17T15:35:21Z</time>
      </trkpt>
      <trkpt lat="44.06063" lon="7.77459">
        <ele>1600</ele>
        <time>2017-09-17T15:35:22Z</time>
      </trkpt>
      <trkpt lat="44.06059" lon="7.7746">
        <ele>1600</ele>
        <time>2017-09-17T15:35:23Z</time>
      </trkpt>
      <trkpt lat="44.06055" lon="7.7746">
        <ele>1600</ele>
        <time>2017-09-17T15:35:24Z</time>
      </trkpt>
      <trkpt lat="44.06051" lon="7.7746">
        <ele>1601</ele>
        <time>2017-09-17T15:35:25Z</time>
      </trkpt>
      <trkpt lat="44.06046" lon="7.7746">
        <ele>1601</ele>
        <time>2017-09-17T15:35:26Z</time>
      </trkpt>
      <trkpt lat="44.06041" lon="7.77459">
        <ele>1601</ele>
        <time>2017-09-17T15:35:27Z</time>
      </trkpt>
      <trkpt lat="44.06037" lon="7.77458">
        <ele>1601</ele>
        <time>2017-09-17T15:35:28Z</time>
      </trkpt>
      <trkpt lat="44.06032" lon="7.77457">
        <ele>1601</ele>
        <time>2017-09-17T15:35:29Z</time>
      </trkpt>
      <trkpt lat="44.06027" lon="7.77455">
        <ele>1601</ele>
        <time>2017-09-17T15:35:30Z</time>
      </trkpt>
      <trkpt lat="44.06022" lon="7.77454">
        <ele>1602</ele>
        <time>2017-09-17T15:35:31Z</time>
      </trkpt>
      <trkpt lat="44.06017" lon="7.77452">
        <ele>1602</ele>
        <time>2017-09-17T15:35:32Z</time>
      </trkpt>
      <trkpt lat="44.06012" lon="7.77451">
        <ele>1602</ele>
        <time>2017-09-17T15:35:33Z</time>
      </trkpt>
      <trkpt lat="44.06007" lon="7.77449">
        <ele>1602</ele>
        <time>2017-09-17T15:35:34Z</time>
      </trkpt>
      <trkpt lat="44.06002" lon="7.77446">
        <ele>1602</ele>
        <time>2017-09-17T15:35:35Z</time>
      </trkpt>
      <trkpt lat="44.05998" lon="7.77442">
        <ele>1603</ele>
        <time>2017-09-17T15:35:36Z</time>
      </trkpt>
      <trkpt lat="44.05995" lon="7.77437">
        <ele>1603</ele>
        <time>2017-09-17T15:35:37Z</time>
      </trkpt>
      <trkpt lat="44.05992" lon="7.77431">
        <ele>1603</ele>
        <time>2017-09-17T15:35:38Z</time>
      </trkpt>
      <trkpt lat="44.05991" lon="7.77424">
        <ele>1603</ele>
        <time>2017-09-17T15:35:39Z</time>
      </trkpt>
      <trkpt lat="44.0599" lon="7.77418">
        <ele>1604</ele>
        <time>2017-09-17T15:35:40Z</time>
      </trkpt>
      <trkpt lat="44.05988" lon="7.77412">
        <ele>1604</ele>
        <time>2017-09-17T15:35:41Z</time>
      </trkpt>
      <trkpt lat="44.05987" lon="7.77406">
        <ele>1604</ele>
        <time>2017-09-17T15:35:42Z</time>
      </trkpt>
      <trkpt lat="44.05986" lon="7.774">
        <ele>1604</ele>
        <time>2017-09-17T15:35:43Z</time>
      </trkpt>
      <trkpt lat="44.05985" lon="7.77394">
        <ele>1605</ele>
        <time>2017-09-17T15:35:44Z</time>
      </trkpt>
      <trkpt lat="44.05983" lon="7.77389">
        <ele>1605</ele>
        <time>2017-09-17T15:35:45Z</time>
      </trkpt>
      <trkpt lat="44.05981" lon="7.77384">
        <ele>1605</ele>
        <time>2017-09-17T15:35:46Z</time>
      </trkpt>
      <trkpt lat="44.05979" lon="7.77378">
        <ele>1605</ele>
        <time>2017-09-17T15:35:47Z</time>
      </trkpt>
      <trkpt lat="44.05977" lon="7.77373">
        <ele>1606</ele>
        <time>2017-09-17T15:35:48Z</time>
      </trkpt>
      <trkpt lat="44.05975" lon="7.77368">
        <ele>1606</ele>
        <time>2017-09-17T15:35:49Z</time>
      </trkpt>
      <trkpt lat="44.05973" lon="7.77362">
        <ele>1606</ele>
        <time>2017-09-17T15:35:50Z</time>
      </trkpt>
      <trkpt lat="44.05971" lon="7.77357">
        <ele>1606</ele>
        <time>2017-09-17T15:35:51Z</time>
      </trkpt>
      <trkpt lat="44.05969" lon="7.77352">
        <ele>1607</ele>
        <time>2017-09-17T15:35:52Z</time>
      </trkpt>
      <trkpt lat="44.05967" lon="7.77346">
        <ele>1607</ele>
        <time>2017-09-17T15:35:53Z</time>
      </trkpt>
      <trkpt lat="44.05965" lon="7.77341">
        <ele>1607</ele>
        <time>2017-09-17T15:35:54Z</time>
      </trkpt>
      <trkpt lat="44.05963" lon="7.77335">
        <ele>1607</ele>
        <time>2017-09-17T15:35:55Z</time>
      </trkpt>
      <trkpt lat="44.0596" lon="7.7733">
        <ele>1608</ele>
        <time>2017-09-17T15:35:56Z</time>
      </trkpt>
      <trkpt lat="44.05958" lon="7.77324">
        <ele>1608</ele>
        <time>2017-09-17T15:35:57Z</time>
      </trkpt>
      <trkpt lat="44.05956" lon="7.77319">
        <ele>1608</ele>
        <time>2017-09-17T15:35:58Z</time>
      </trkpt>
      <trkpt lat="44.05953" lon="7.77314">
        <ele>1609</ele>
        <time>2017-09-17T15:35:59Z</time>
      </trkpt>
      <trkpt lat="44.0595" lon="7.7731">
        <ele>1609</ele>
        <time>2017-09-17T15:36:00Z</time>
      </trkpt>
      <trkpt lat="44.05947" lon="7.77306">
        <ele>1609</ele>
        <time>2017-09-17T15:36:01Z</time>
      </trkpt>
      <trkpt lat="44.05943" lon="7.77302">
        <ele>1609</ele>
        <time>2017-09-17T15:36:02Z</time>
      </trkpt>
      <trkpt lat="44.0594" lon="7.77298">
        <ele>1610</ele>
        <time>2017-09-17T15:36:03Z</time>
      </trkpt>
      <trkpt lat="44.05936" lon="7.77293">
        <ele>1610</ele>
        <time>2017-09-17T15:36:04Z</time>
      </trkpt>
      <trkpt lat="44.05933" lon="7.77289">
        <ele>1610</ele>
        <time>2017-09-17T15:36:05Z</time>
      </trkpt>
      <trkpt lat="44.0593" lon="7.77285">
        <ele>1611</ele>
        <time>2017-09-17T15:36:06Z</time>
      </trkpt>
      <trkpt lat="44.05926" lon="7.77281">
        <ele>1611</ele>
        <time>2017-09-17T15:36:07Z</time>
      </trkpt>
      <trkpt lat="44.05922" lon="7.77278">
        <ele>1611</ele>
        <time>2017-09-17T15:36:08Z</time>
      </trkpt>
      <trkpt lat="44.05917" lon="7.77277">
        <ele>1612</ele>
        <time>2017-09-17T15:36:09Z</time>
      </trkpt>
      <trkpt lat="44.05912" lon="7.77279">
        <ele>1612</ele>
        <time>2017-09-17T15:36:10Z</time>
      </trkpt>
      <trkpt lat="44.05908" lon="7.77283">
        <ele>1612</ele>
        <time>2017-09-17T15:36:11Z</time>
      </trkpt>
      <trkpt lat="44.05905" lon="7.7729">
        <ele>1612</ele>
        <time>2017-09-17T15:36:12Z</time>
      </trkpt>
      <trkpt lat="44.05903" lon="7.77296">
        <ele>1612</ele>
        <time>2017-09-17T15:36:13Z</time>
      </trkpt>
      <trkpt lat="44.05902" lon="7.77304">
        <ele>1612</ele>
        <time>2017-09-17T15:36:14Z</time>
      </trkpt>
      <trkpt lat="44.05901" lon="7.77312">
        <ele>1613</ele>
        <time>2017-09-17T15:36:15Z</time>
      </trkpt>
      <trkpt lat="44.059" lon="7.77319">
        <ele>1613</ele>
        <time>2017-09-17T15:36:16Z</time>
      </trkpt>
      <trkpt lat="44.05899" lon="7.77327">
        <ele>1613</ele>
        <time>2017-09-17T15:36:17Z</time>
      </trkpt>
      <trkpt lat="44.05898" lon="7.77334">
        <ele>1613</ele>
        <time>2017-09-17T15:36:18Z</time>
      </trkpt>
      <trkpt lat="44.05896" lon="7.77341">
        <ele>1613</ele>
        <time>2017-09-17T15:36:19Z</time>
      </trkpt>
      <trkpt lat="44.05893" lon="7.77346">
        <ele>1614</ele>
        <time>2017-09-17T15:36:20Z</time>
      </trkpt>
      <trkpt lat="44.05888" lon="7.77348">
        <ele>1614</ele>
        <time>2017-09-17T15:36:21Z</time>
      </trkpt>
      <trkpt lat="44.05884" lon="7.77347">
        <ele>1614</ele>
        <time>2017-09-17T15:36:22Z</time>
      </trkpt>
      <trkpt lat="44.0588" lon="7.77345">
        <ele>1615</ele>
        <time>2017-09-17T15:36:23Z</time>
      </trkpt>
      <trkpt lat="44.05876" lon="7.77342">
        <ele>1615</ele>
        <time>2017-09-17T15:36:24Z</time>
      </trkpt>
      <trkpt lat="44.05872" lon="7.7734">
        <ele>1615</ele>
        <time>2017-09-17T15:36:25Z</time>
      </trkpt>
      <trkpt lat="44.05867" lon="7.77337">
        <ele>1616</ele>
        <time>2017-09-17T15:36:26Z</time>
      </trkpt>
      <trkpt lat="44.05864" lon="7.77334">
        <ele>1616</ele>
        <time>2017-09-17T15:36:27Z</time>
      </trkpt>
      <trkpt lat="44.0586" lon="7.77331">
        <ele>1617</ele>
        <time>2017-09-17T15:36:28Z</time>
      </trkpt>
      <trkpt lat="44.05856" lon="7.77328">
        <ele>1617</ele>
        <time>2017-09-17T15:36:29Z</time>
      </trkpt>
      <trkpt lat="44.05852" lon="7.77325">
        <ele>1617</ele>
        <time>2017-09-17T15:36:30Z</time>
      </trkpt>
      <trkpt lat="44.05848" lon="7.77322">
        <ele>1618</ele>
        <time>2017-09-17T15:36:31Z</time>
      </trkpt>
      <trkpt lat="44.05844" lon="7.7732">
        <ele>1618</ele>
        <time>2017-09-17T15:36:32Z</time>
      </trkpt>
      <trkpt lat="44.05839" lon="7.77321">
        <ele>1618</ele>
        <time>2017-09-17T15:36:33Z</time>
      </trkpt>
      <trkpt lat="44.05836" lon="7.77323">
        <ele>1619</ele>
        <time>2017-09-17T15:36:34Z</time>
      </trkpt>
      <trkpt lat="44.05834" lon="7.77328">
        <ele>1619</ele>
        <time>2017-09-17T15:36:35Z</time>
      </trkpt>
      <trkpt lat="44.05833" lon="7.77332">
        <ele>1620</ele>
        <time>2017-09-17T15:36:36Z</time>
      </trkpt>
      <trkpt lat="44.05833" lon="7.77338">
        <ele>1620</ele>
        <time>2017-09-17T15:36:37Z</time>
      </trkpt>
      <trkpt lat="44.05833" lon="7.77343">
        <ele>1620</ele>
        <time>2017-09-17T15:36:38Z</time>
      </trkpt>
      <trkpt lat="44.05835" lon="7.77349">
        <ele>1621</ele>
        <time>2017-09-17T15:36:39Z</time>
      </trkpt>
      <trkpt lat="44.05836" lon="7.77354">
        <ele>1621</ele>
        <time>2017-09-17T15:36:40Z</time>
      </trkpt>
      <trkpt lat="44.05836" lon="7.7736">
        <ele>1622</ele>
        <time>2017-09-17T15:36:41Z</time>
      </trkpt>
      <trkpt lat="44.05836" lon="7.77366">
        <ele>1622</ele>
        <time>2017-09-17T15:36:42Z</time>
      </trkpt>
      <trkpt lat="44.05836" lon="7.77371">
        <ele>1623</ele>
        <time>2017-09-17T15:36:43Z</time>
      </trkpt>
      <trkpt lat="44.05834" lon="7.77377">
        <ele>1623</ele>
        <time>2017-09-17T15:36:44Z</time>
      </trkpt>
      <trkpt lat="44.05831" lon="7.7738">
        <ele>1624</ele>
        <time>2017-09-17T15:36:45Z</time>
      </trkpt>
      <trkpt lat="44.05827" lon="7.77382">
        <ele>1624</ele>
        <time>2017-09-17T15:36:46Z</time>
      </trkpt>
      <trkpt lat="44.05823" lon="7.77382">
        <ele>1625</ele>
        <time>2017-09-17T15:36:47Z</time>
      </trkpt>
      <trkpt lat="44.0582" lon="7.77381">
        <ele>1625</ele>
        <time>2017-09-17T15:36:48Z</time>
      </trkpt>
      <trkpt lat="44.05816" lon="7.7738">
        <ele>1626</ele>
        <time>2017-09-17T15:36:49Z</time>
      </trkpt>
      <trkpt lat="44.05813" lon="7.77378">
        <ele>1626</ele>
        <time>2017-09-17T15:36:50Z</time>
      </trkpt>
      <trkpt lat="44.0581" lon="7.77376">
        <ele>1627</ele>
        <time>2017-09-17T15:36:51Z</time>
      </trkpt>
      <trkpt lat="44.05807" lon="7.77374">
        <ele>1627</ele>
        <time>2017-09-17T15:36:52Z</time>
      </trkpt>
      <trkpt lat="44.05805" lon="7.77373">
        <ele>1628</ele>
        <time>2017-09-17T15:36:53Z</time>
      </trkpt>
      <trkpt lat="44.05803" lon="7.77371">
        <ele>1628</ele>
        <time>2017-09-17T15:36:54Z</time>
      </trkpt>
      <trkpt lat="44.05802" lon="7.7737">
        <ele>1628</ele>
        <time>2017-09-17T15:36:55Z</time>
      </trkpt>
      <trkpt lat="44.05801" lon="7.7737">
        <ele>1628</ele>
        <time>2017-09-17T15:36:56Z</time>
      </trkpt>
      <trkpt lat="44.05801" lon="7.7737">
        <ele>1629</ele>
        <time>2017-09-17T15:36:57Z</time>
      </trkpt>
      <trkpt lat="44.05801" lon="7.7737">
        <ele>1629</ele>
        <time>2017-09-17T15:36:58Z</time>
      </trkpt>
      <trkpt lat="44.05801" lon="7.7737">
        <ele>1629</ele>
        <time>2017-09-17T15:36:59Z</time>
      </trkpt>
      <trkpt lat="44.05801" lon="7.7737">
        <ele>1629</ele>
        <time>2017-09-17T15:37:00Z</time>
      </trkpt>
      <trkpt lat="44.05801" lon="7.7737">
        <ele>1629</ele>
        <time>2017-09-17T15:37:01Z</time>
      </trkpt>
      <trkpt lat="44.05801" lon="7.7737">
        <ele>1629</ele>
        <time>2017-09-17T15:37:02Z</time>
      </trkpt>
      <trkpt lat="44.05801" lon="7.7737">
        <ele>1629</ele>
        <time>2017-09-17T15:37:03Z</time>
      </trkpt>
      <trkpt lat="44.05801" lon="7.7737">
        <ele>1629</ele>
        <time>2017-09-17T15:37:04Z</time>
      </trkpt>
      <trkpt lat="44.05801" lon="7.7737">
        <ele>1629</ele>
        <time>2017-09-17T15:37:05Z</time>
      </trkpt>
      <trkpt lat="44.05801" lon="7.7737">
        <ele>1629</ele>
        <time>2017-09-17T15:37:06Z</time>
      </trkpt>
      <trkpt lat="44.05801" lon="7.7737">
        <ele>1629</ele>
        <time>2017-09-17T15:37:07Z</time>
      </trkpt>
      <trkpt lat="44.058" lon="7.7737">
        <ele>1629</ele>
        <time>2017-09-17T15:37:08Z</time>
      </trkpt>
      <trkpt lat="44.058" lon="7.7737">
        <ele>1629</ele>
        <time>2017-09-17T15:37:09Z</time>
      </trkpt>
      <trkpt lat="44.058" lon="7.7737">
        <ele>1629</ele>
        <time>2017-09-17T15:37:10Z</time>
      </trkpt>
      <trkpt lat="44.058" lon="7.7737">
        <ele>1629</ele>
        <time>2017-09-17T15:37:11Z</time>
      </trkpt>
      <trkpt lat="44.05798" lon="7.77371">
        <ele>1629</ele>
        <time>2017-09-17T15:37:12Z</time>
      </trkpt>
      <trkpt lat="44.05797" lon="7.77372">
        <ele>1629</ele>
        <time>2017-09-17T15:37:13Z</time>
      </trkpt>
      <trkpt lat="44.05796" lon="7.77373">
        <ele>1630</ele>
        <time>2017-09-17T15:37:14Z</time>
      </trkpt>
      <trkpt lat="44.05794" lon="7.77372">
        <ele>1630</ele>
        <time>2017-09-17T15:37:15Z</time>
      </trkpt>
      <trkpt lat="44.05793" lon="7.7737">
        <ele>1630</ele>
        <time>2017-09-17T15:37:16Z</time>
      </trkpt>
      <trkpt lat="44.05792" lon="7.77368">
        <ele>1630</ele>
        <time>2017-09-17T15:37:17Z</time>
      </trkpt>
      <trkpt lat="44.0579" lon="7.77367">
        <ele>1630</ele>
        <time>2017-09-17T15:37:18Z</time>
      </trkpt>
      <trkpt lat="44.05788" lon="7.77366">
        <ele>1630</ele>
        <time>2017-09-17T15:37:19Z</time>
      </trkpt>
      <trkpt lat="44.05786" lon="7.77366">
        <ele>1631</ele>
        <time>2017-09-17T15:37:20Z</time>
      </trkpt>
      <trkpt lat="44.05784" lon="7.77366">
        <ele>1631</ele>
        <time>2017-09-17T15:37:21Z</time>
      </trkpt>
      <trkpt lat="44.05782" lon="7.77366">
        <ele>1631</ele>
        <time>2017-09-17T15:37:22Z</time>
      </trkpt>
      <trkpt lat="44.05779" lon="7.77366">
        <ele>1631</ele>
        <time>2017-09-17T15:37:23Z</time>
      </trkpt>
      <trkpt lat="44.05776" lon="7.77365">
        <ele>1631</ele>
        <time>2017-09-17T15:37:24Z</time>
      </trkpt>
      <trkpt lat="44.05774" lon="7.77364">
        <ele>1631</ele>
        <time>2017-09-17T15:37:25Z</time>
      </trkpt>
      <trkpt lat="44.05772" lon="7.77364">
        <ele>1632</ele>
        <time>2017-09-17T15:37:26Z</time>
      </trkpt>
      <trkpt lat="44.0577" lon="7.77364">
        <ele>1632</ele>
        <time>2017-09-17T15:37:27Z</time>
      </trkpt>
      <trkpt lat="44.05767" lon="7.77366">
        <ele>1632</ele>
        <time>2017-09-17T15:37:28Z</time>
      </trkpt>
      <trkpt lat="44.05765" lon="7.77367">
        <ele>1632</ele>
        <time>2017-09-17T15:37:29Z</time>
      </trkpt>
      <trkpt lat="44.05762" lon="7.77369">
        <ele>1632</ele>
        <time>2017-09-17T15:37:30Z</time>
      </trkpt>
      <trkpt lat="44.05759" lon="7.77371">
        <ele>1632</ele>
        <time>2017-09-17T15:37:31Z</time>
      </trkpt>
      <trkpt lat="44.05756" lon="7.77372">
        <ele>1633</ele>
        <time>2017-09-17T15:37:32Z</time>
      </trkpt>
      <trkpt lat="44.05753" lon="7.77375">
        <ele>1633</ele>
        <time>2017-09-17T15:37:33Z</time>
      </trkpt>
      <trkpt lat="44.05749" lon="7.77377">
        <ele>1633</ele>
        <time>2017-09-17T15:37:34Z</time>
      </trkpt>
      <trkpt lat="44.05747" lon="7.77381">
        <ele>1633</ele>
        <time>2017-09-17T15:37:35Z</time>
      </trkpt>
      <trkpt lat="44.05744" lon="7.77385">
        <ele>1634</ele>
        <time>2017-09-17T15:37:36Z</time>
      </trkpt>
      <trkpt lat="44.05742" lon="7.77389">
        <ele>1634</ele>
        <time>2017-09-17T15:37:37Z</time>
      </trkpt>
      <trkpt lat="44.0574" lon="7.77393">
        <ele>1634</ele>
        <time>2017-09-17T15:37:38Z</time>
      </trkpt>
      <trkpt lat="44.05738" lon="7.77397">
        <ele>1635</ele>
        <time>2017-09-17T15:37:39Z</time>
      </trkpt>
      <trkpt lat="44.05736" lon="7.774">
        <ele>1635</ele>
        <time>2017-09-17T15:37:40Z</time>
      </trkpt>
      <trkpt lat="44.05733" lon="7.77404">
        <ele>1635</ele>
        <time>2017-09-17T15:37:41Z</time>
      </trkpt>
      <trkpt lat="44.05731" lon="7.77408">
        <ele>1635</ele>
        <time>2017-09-17T15:37:42Z</time>
      </trkpt>
      <trkpt lat="44.05729" lon="7.77411">
        <ele>1636</ele>
        <time>2017-09-17T15:37:43Z</time>
      </trkpt>
      <trkpt lat="44.05727" lon="7.77412">
        <ele>1636</ele>
        <time>2017-09-17T15:37:44Z</time>
      </trkpt>
      <trkpt lat="44.05727" lon="7.77413">
        <ele>1636</ele>
        <time>2017-09-17T15:37:45Z</time>
      </trkpt>
      <trkpt lat="44.05727" lon="7.77413">
        <ele>1636</ele>
        <time>2017-09-17T15:37:46Z</time>
      </trkpt>
      <trkpt lat="44.05727" lon="7.77413">
        <ele>1636</ele>
        <time>2017-09-17T15:37:47Z</time>
      </trkpt>
      <trkpt lat="44.05727" lon="7.77413">
        <ele>1636</ele>
        <time>2017-09-17T15:37:48Z</time>
      </trkpt>
      <trkpt lat="44.05727" lon="7.77413">
        <ele>1636</ele>
        <time>2017-09-17T15:37:49Z</time>
      </trkpt>
      <trkpt lat="44.05727" lon="7.77413">
        <ele>1636</ele>
        <time>2017-09-17T15:37:50Z</time>
      </trkpt>
      <trkpt lat="44.05727" lon="7.77413">
        <ele>1636</ele>
        <time>2017-09-17T15:37:51Z</time>
      </trkpt>
      <trkpt lat="44.05727" lon="7.77413">
        <ele>1636</ele>
        <time>2017-09-17T15:37:52Z</time>
      </trkpt>
      <trkpt lat="44.05727" lon="7.77413">
        <ele>1636</ele>
        <time>2017-09-17T15:37:53Z</time>
      </trkpt>
      <trkpt lat="44.05727" lon="7.77413">
        <ele>1636</ele>
        <time>2017-09-17T15:37:54Z</time>
      </trkpt>
      <trkpt lat="44.05727" lon="7.77413">
        <ele>1636</ele>
        <time>2017-09-17T15:37:55Z</time>
      </trkpt>
      <trkpt lat="44.05727" lon="7.77413">
        <ele>1636</ele>
        <time>2017-09-17T15:37:56Z</time>
      </trkpt>
      <trkpt lat="44.05727" lon="7.77413">
        <ele>1636</ele>
        <time>2017-09-17T15:37:57Z</time>
      </trkpt>
      <trkpt lat="44.05726" lon="7.77413">
        <ele>1636</ele>
        <time>2017-09-17T15:37:58Z</time>
      </trkpt>
      <trkpt lat="44.05725" lon="7.77414">
        <ele>1636</ele>
        <time>2017-09-17T15:37:59Z</time>
      </trkpt>
      <trkpt lat="44.05724" lon="7.77415">
        <ele>1636</ele>
        <time>2017-09-17T15:38:00Z</time>
      </trkpt>
      <trkpt lat="44.05722" lon="7.77417">
        <ele>1636</ele>
        <time>2017-09-17T15:38:01Z</time>
      </trkpt>
      <trkpt lat="44.05719" lon="7.77419">
        <ele>1636</ele>
        <time>2017-09-17T15:38:02Z</time>
      </trkpt>
      <trkpt lat="44.05716" lon="7.7742">
        <ele>1636</ele>
        <time>2017-09-17T15:38:03Z</time>
      </trkpt>
      <trkpt lat="44.05713" lon="7.77422">
        <ele>1637</ele>
        <time>2017-09-17T15:38:04Z</time>
      </trkpt>
      <trkpt lat="44.05709" lon="7.77422">
        <ele>1637</ele>
        <time>2017-09-17T15:38:05Z</time>
      </trkpt>
      <trkpt lat="44.05705" lon="7.77422">
        <ele>1637</ele>
        <time>2017-09-17T15:38:06Z</time>
      </trkpt>
      <trkpt lat="44.05701" lon="7.77422">
        <ele>1638</ele>
        <time>2017-09-17T15:38:07Z</time>
      </trkpt>
      <trkpt lat="44.05697" lon="7.77421">
        <ele>1638</ele>
        <time>2017-09-17T15:38:08Z</time>
      </trkpt>
      <trkpt lat="44.05693" lon="7.77421">
        <ele>1638</ele>
        <time>2017-09-17T15:38:09Z</time>
      </trkpt>
      <trkpt lat="44.05688" lon="7.77422">
        <ele>1638</ele>
        <time>2017-09-17T15:38:10Z</time>
      </trkpt>
      <trkpt lat="44.05684" lon="7.77424">
        <ele>1639</ele>
        <time>2017-09-17T15:38:11Z</time>
      </trkpt>
      <trkpt lat="44.05681" lon="7.77426">
        <ele>1639</ele>
        <time>2017-09-17T15:38:12Z</time>
      </trkpt>
      <trkpt lat="44.05677" lon="7.77429">
        <ele>1640</ele>
        <time>2017-09-17T15:38:13Z</time>
      </trkpt>
      <trkpt lat="44.05674" lon="7.77432">
        <ele>1640</ele>
        <time>2017-09-17T15:38:14Z</time>
      </trkpt>
      <trkpt lat="44.0567" lon="7.77435">
        <ele>1640</ele>
        <time>2017-09-17T15:38:15Z</time>
      </trkpt>
      <trkpt lat="44.05666" lon="7.77438">
        <ele>1641</ele>
        <time>2017-09-17T15:38:16Z</time>
      </trkpt>
      <trkpt lat="44.05662" lon="7.77441">
        <ele>1641</ele>
        <time>2017-09-17T15:38:17Z</time>
      </trkpt>
      <trkpt lat="44.05658" lon="7.77443">
        <ele>1641</ele>
        <time>2017-09-17T15:38:18Z</time>
      </trkpt>
      <trkpt lat="44.05655" lon="7.77446">
        <ele>1642</ele>
        <time>2017-09-17T15:38:19Z</time>
      </trkpt>
      <trkpt lat="44.05651" lon="7.77448">
        <ele>1642</ele>
        <time>2017-09-17T15:38:20Z</time>
      </trkpt>
      <trkpt lat="44.05647" lon="7.77451">
        <ele>1642</ele>
        <time>2017-09-17T15:38:21Z</time>
      </trkpt>
      <trkpt lat="44.05643" lon="7.77454">
        <ele>1643</ele>
        <time>2017-09-17T15:38:22Z</time>
      </trkpt>
      <trkpt lat="44.0564" lon="7.77457">
        <ele>1643</ele>
        <time>2017-09-17T15:38:23Z</time>
      </trkpt>
      <trkpt lat="44.05636" lon="7.7746">
        <ele>1644</ele>
        <time>2017-09-17T15:38:24Z</time>
      </trkpt>
      <trkpt lat="44.05633" lon="7.77463">
        <ele>1644</ele>
        <time>2017-09-17T15:38:25Z</time>
      </trkpt>
      <trkpt lat="44.05629" lon="7.77466">
        <ele>1644</ele>
        <time>2017-09-17T15:38:26Z</time>
      </trkpt>
      <trkpt lat="44.05626" lon="7.7747">
        <ele>1645</ele>
        <time>2017-09-17T15:38:27Z</time>
      </trkpt>
      <trkpt lat="44.05623" lon="7.77473">
        <ele>1645</ele>
        <time>2017-09-17T15:38:28Z</time>
      </trkpt>
      <trkpt lat="44.0562" lon="7.77477">
        <ele>1645</ele>
        <time>2017-09-17T15:38:29Z</time>
      </trkpt>
      <trkpt lat="44.05616" lon="7.77481">
        <ele>1646</ele>
        <time>2017-09-17T15:38:30Z</time>
      </trkpt>
      <trkpt lat="44.05613" lon="7.77484">
        <ele>1646</ele>
        <time>2017-09-17T15:38:31Z</time>
      </trkpt>
      <trkpt lat="44.05609" lon="7.77487">
        <ele>1647</ele>
        <time>2017-09-17T15:38:32Z</time>
      </trkpt>
      <trkpt lat="44.05606" lon="7.7749">
        <ele>1647</ele>
        <time>2017-09-17T15:38:33Z</time>
      </trkpt>
      <trkpt lat="44.05602" lon="7.77494">
        <ele>1647</ele>
        <time>2017-09-17T15:38:34Z</time>
      </trkpt>
      <trkpt lat="44.05599" lon="7.77497">
        <ele>1648</ele>
        <time>2017-09-17T15:38:35Z</time>
      </trkpt>
      <trkpt lat="44.05596" lon="7.77501">
        <ele>1648</ele>
        <time>2017-09-17T15:38:36Z</time>
      </trkpt>
      <trkpt lat="44.05593" lon="7.77504">
        <ele>1648</ele>
        <time>2017-09-17T15:38:37Z</time>
      </trkpt>
      <trkpt lat="44.05589" lon="7.77507">
        <ele>1649</ele>
        <time>2017-09-17T15:38:38Z</time>
      </trkpt>
      <trkpt lat="44.05586" lon="7.77511">
        <ele>1649</ele>
        <time>2017-09-17T15:38:39Z</time>
      </trkpt>
      <trkpt lat="44.05582" lon="7.77514">
        <ele>1649</ele>
        <time>2017-09-17T15:38:40Z</time>
      </trkpt>
      <trkpt lat="44.05579" lon="7.77518">
        <ele>1650</ele>
        <time>2017-09-17T15:38:41Z</time>
      </trkpt>
      <trkpt lat="44.05576" lon="7.77522">
        <ele>1650</ele>
        <time>2017-09-17T15:38:42Z</time>
      </trkpt>
      <trkpt lat="44.05572" lon="7.77525">
        <ele>1650</ele>
        <time>2017-09-17T15:38:43Z</time>
      </trkpt>
      <trkpt lat="44.05568" lon="7.77527">
        <ele>1651</ele>
        <time>2017-09-17T15:38:44Z</time>
      </trkpt>
      <trkpt lat="44.05564" lon="7.77529">
        <ele>1651</ele>
        <time>2017-09-17T15:38:45Z</time>
      </trkpt>
      <trkpt lat="44.0556" lon="7.7753">
        <ele>1652</ele>
        <time>2017-09-17T15:38:46Z</time>
      </trkpt>
      <trkpt lat="44.05557" lon="7.7753">
        <ele>1652</ele>
        <time>2017-09-17T15:38:47Z</time>
      </trkpt>
      <trkpt lat="44.05553" lon="7.77529">
        <ele>1652</ele>
        <time>2017-09-17T15:38:48Z</time>
      </trkpt>
      <trkpt lat="44.05549" lon="7.77528">
        <ele>1653</ele>
        <time>2017-09-17T15:38:49Z</time>
      </trkpt>
      <trkpt lat="44.05545" lon="7.77526">
        <ele>1653</ele>
        <time>2017-09-17T15:38:50Z</time>
      </trkpt>
      <trkpt lat="44.05542" lon="7.77524">
        <ele>1653</ele>
        <time>2017-09-17T15:38:51Z</time>
      </trkpt>
      <trkpt lat="44.05537" lon="7.77522">
        <ele>1653</ele>
        <time>2017-09-17T15:38:52Z</time>
      </trkpt>
      <trkpt lat="44.05534" lon="7.7752">
        <ele>1654</ele>
        <time>2017-09-17T15:38:53Z</time>
      </trkpt>
      <trkpt lat="44.0553" lon="7.77517">
        <ele>1654</ele>
        <time>2017-09-17T15:38:54Z</time>
      </trkpt>
      <trkpt lat="44.05526" lon="7.77514">
        <ele>1654</ele>
        <time>2017-09-17T15:38:55Z</time>
      </trkpt>
      <trkpt lat="44.05523" lon="7.77511">
        <ele>1654</ele>
        <time>2017-09-17T15:38:56Z</time>
      </trkpt>
      <trkpt lat="44.05519" lon="7.77507">
        <ele>1655</ele>
        <time>2017-09-17T15:38:57Z</time>
      </trkpt>
      <trkpt lat="44.05516" lon="7.77504">
        <ele>1655</ele>
        <time>2017-09-17T15:38:58Z</time>
      </trkpt>
      <trkpt lat="44.05513" lon="7.775">
        <ele>1655</ele>
        <time>2017-09-17T15:38:59Z</time>
      </trkpt>
      <trkpt lat="44.05509" lon="7.77496">
        <ele>1656</ele>
        <time>2017-09-17T15:39:00Z</time>
      </trkpt>
      <trkpt lat="44.05506" lon="7.77492">
        <ele>1656</ele>
        <time>2017-09-17T15:39:01Z</time>
      </trkpt>
      <trkpt lat="44.05503" lon="7.77488">
        <ele>1657</ele>
        <time>2017-09-17T15:39:02Z</time>
      </trkpt>
      <trkpt lat="44.055" lon="7.77485">
        <ele>1657</ele>
        <time>2017-09-17T15:39:03Z</time>
      </trkpt>
      <trkpt lat="44.05497" lon="7.77481">
        <ele>1657</ele>
        <time>2017-09-17T15:39:04Z</time>
      </trkpt>
      <trkpt lat="44.05494" lon="7.77478">
        <ele>1657</ele>
        <time>2017-09-17T15:39:05Z</time>
      </trkpt>
      <trkpt lat="44.0549" lon="7.77475">
        <ele>1658</ele>
        <time>2017-09-17T15:39:06Z</time>
      </trkpt>
      <trkpt lat="44.05486" lon="7.77473">
        <ele>1658</ele>
        <time>2017-09-17T15:39:07Z</time>
      </trkpt>
      <trkpt lat="44.05482" lon="7.77472">
        <ele>1658</ele>
        <time>2017-09-17T15:39:08Z</time>
      </trkpt>
      <trkpt lat="44.05478" lon="7.7747">
        <ele>1659</ele>
        <time>2017-09-17T15:39:09Z</time>
      </trkpt>
      <trkpt lat="44.05474" lon="7.77469">
        <ele>1659</ele>
        <time>2017-09-17T15:39:10Z</time>
      </trkpt>
      <trkpt lat="44.0547" lon="7.77468">
        <ele>1659</ele>
        <time>2017-09-17T15:39:11Z</time>
      </trkpt>
      <trkpt lat="44.05466" lon="7.77466">
        <ele>1660</ele>
        <time>2017-09-17T15:39:12Z</time>
      </trkpt>
      <trkpt lat="44.05463" lon="7.77464">
        <ele>1660</ele>
        <time>2017-09-17T15:39:13Z</time>
      </trkpt>
      <trkpt lat="44.05459" lon="7.77461">
        <ele>1660</ele>
        <time>2017-09-17T15:39:14Z</time>
      </trkpt>
      <trkpt lat="44.05455" lon="7.77458">
        <ele>1661</ele>
        <time>2017-09-17T15:39:15Z</time>
      </trkpt>
      <trkpt lat="44.05452" lon="7.77454">
        <ele>1661</ele>
        <time>2017-09-17T15:39:16Z</time>
      </trkpt>
      <trkpt lat="44.05449" lon="7.77451">
        <ele>1661</ele>
        <time>2017-09-17T15:39:17Z</time>
      </trkpt>
      <trkpt lat="44.05445" lon="7.77448">
        <ele>1661</ele>
        <time>2017-09-17T15:39:18Z</time>
      </trkpt>
      <trkpt lat="44.05441" lon="7.77447">
        <ele>1662</ele>
        <time>2017-09-17T15:39:19Z</time>
      </trkpt>
      <trkpt lat="44.05437" lon="7.77446">
        <ele>1662</ele>
        <time>2017-09-17T15:39:20Z</time>
      </trkpt>
      <trkpt lat="44.05432" lon="7.77445">
        <ele>1662</ele>
        <time>2017-09-17T15:39:21Z</time>
      </trkpt>
      <trkpt lat="44.05428" lon="7.77445">
        <ele>1663</ele>
        <time>2017-09-17T15:39:22Z</time>
      </trkpt>
      <trkpt lat="44.05424" lon="7.77444">
        <ele>1663</ele>
        <time>2017-09-17T15:39:23Z</time>
      </trkpt>
      <trkpt lat="44.05419" lon="7.77442">
        <ele>1663</ele>
        <time>2017-09-17T15:39:24Z</time>
      </trkpt>
      <trkpt lat="44.05416" lon="7.7744">
        <ele>1664</ele>
        <time>2017-09-17T15:39:25Z</time>
      </trkpt>
      <trkpt lat="44.05412" lon="7.77437">
        <ele>1664</ele>
        <time>2017-09-17T15:39:26Z</time>
      </trkpt>
      <trkpt lat="44.05409" lon="7.77434">
        <ele>1665</ele>
        <time>2017-09-17T15:39:27Z</time>
      </trkpt>
      <trkpt lat="44.05406" lon="7.77431">
        <ele>1665</ele>
        <time>2017-09-17T15:39:28Z</time>
      </trkpt>
      <trkpt lat="44.05403" lon="7.77427">
        <ele>1665</ele>
        <time>2017-09-17T15:39:29Z</time>
      </trkpt>
      <trkpt lat="44.05401" lon="7.77423">
        <ele>1666</ele>
        <time>2017-09-17T15:39:30Z</time>
      </trkpt>
      <trkpt lat="44.05399" lon="7.7742">
        <ele>1666</ele>
        <time>2017-09-17T15:39:31Z</time>
      </trkpt>
      <trkpt lat="44.05396" lon="7.77416">
        <ele>1667</ele>
        <time>2017-09-17T15:39:32Z</time>
      </trkpt>
      <trkpt lat="44.05394" lon="7.77413">
        <ele>1667</ele>
        <time>2017-09-17T15:39:33Z</time>
      </trkpt>
      <trkpt lat="44.05392" lon="7.77409">
        <ele>1667</ele>
        <time>2017-09-17T15:39:34Z</time>
      </trkpt>
      <trkpt lat="44.05391" lon="7.77406">
        <ele>1668</ele>
        <time>2017-09-17T15:39:35Z</time>
      </trkpt>
      <trkpt lat="44.05389" lon="7.77403">
        <ele>1668</ele>
        <time>2017-09-17T15:39:36Z</time>
      </trkpt>
      <trkpt lat="44.05386" lon="7.77399">
        <ele>1669</ele>
        <time>2017-09-17T15:39:37Z</time>
      </trkpt>
      <trkpt lat="44.05384" lon="7.77396">
        <ele>1669</ele>
        <time>2017-09-17T15:39:38Z</time>
      </trkpt>
      <trkpt lat="44.05382" lon="7.77393">
        <ele>1669</ele>
        <time>2017-09-17T15:39:39Z</time>
      </trkpt>
      <trkpt lat="44.05379" lon="7.7739">
        <ele>1669</ele>
        <time>2017-09-17T15:39:40Z</time>
      </trkpt>
      <trkpt lat="44.05376" lon="7.77388">
        <ele>1670</ele>
        <time>2017-09-17T15:39:41Z</time>
      </trkpt>
      <trkpt lat="44.05373" lon="7.77387">
        <ele>1670</ele>
        <time>2017-09-17T15:39:42Z</time>
      </trkpt>
      <trkpt lat="44.05369" lon="7.77388">
        <ele>1670</ele>
        <time>2017-09-17T15:39:43Z</time>
      </trkpt>
      <trkpt lat="44.05365" lon="7.77389">
        <ele>1670</ele>
        <time>2017-09-17T15:39:44Z</time>
      </trkpt>
      <trkpt lat="44.05361" lon="7.77391">
        <ele>1671</ele>
        <time>2017-09-17T15:39:45Z</time>
      </trkpt>
      <trkpt lat="44.05357" lon="7.77394">
        <ele>1671</ele>
        <time>2017-09-17T15:39:46Z</time>
      </trkpt>
      <trkpt lat="44.05353" lon="7.77397">
        <ele>1671</ele>
        <time>2017-09-17T15:39:47Z</time>
      </trkpt>
      <trkpt lat="44.0535" lon="7.774">
        <ele>1671</ele>
        <time>2017-09-17T15:39:48Z</time>
      </trkpt>
      <trkpt lat="44.05346" lon="7.77404">
        <ele>1671</ele>
        <time>2017-09-17T15:39:49Z</time>
      </trkpt>
      <trkpt lat="44.05344" lon="7.77409">
        <ele>1672</ele>
        <time>2017-09-17T15:39:50Z</time>
      </trkpt>
      <trkpt lat="44.05342" lon="7.77414">
        <ele>1672</ele>
        <time>2017-09-17T15:39:51Z</time>
      </trkpt>
      <trkpt lat="44.05339" lon="7.77419">
        <ele>1673</ele>
        <time>2017-09-17T15:39:52Z</time>
      </trkpt>
      <trkpt lat="44.05337" lon="7.77425">
        <ele>1673</ele>
        <time>2017-09-17T15:39:53Z</time>
      </trkpt>
      <trkpt lat="44.05335" lon="7.7743">
        <ele>1674</ele>
        <time>2017-09-17T15:39:54Z</time>
      </trkpt>
      <trkpt lat="44.05333" lon="7.77435">
        <ele>1674</ele>
        <time>2017-09-17T15:39:55Z</time>
      </trkpt>
      <trkpt lat="44.0533" lon="7.7744">
        <ele>1674</ele>
        <time>2017-09-17T15:39:56Z</time>
      </trkpt>
      <trkpt lat="44.05328" lon="7.77445">
        <ele>1675</ele>
        <time>2017-09-17T15:39:57Z</time>
      </trkpt>
      <trkpt lat="44.05326" lon="7.77451">
        <ele>1675</ele>
        <time>2017-09-17T15:39:58Z</time>
      </trkpt>
      <trkpt lat="44.05324" lon="7.77456">
        <ele>1676</ele>
        <time>2017-09-17T15:39:59Z</time>
      </trkpt>
      <trkpt lat="44.05322" lon="7.77461">
        <ele>1676</ele>
        <time>2017-09-17T15:40:00Z</time>
      </trkpt>
      <trkpt lat="44.05319" lon="7.77465">
        <ele>1677</ele>
        <time>2017-09-17T15:40:01Z</time>
      </trkpt>
      <trkpt lat="44.05316" lon="7.7747">
        <ele>1677</ele>
        <time>2017-09-17T15:40:02Z</time>
      </trkpt>
      <trkpt lat="44.05313" lon="7.77475">
        <ele>1678</ele>
        <time>2017-09-17T15:40:03Z</time>
      </trkpt>
      <trkpt lat="44.05311" lon="7.7748">
        <ele>1678</ele>
        <time>2017-09-17T15:40:04Z</time>
      </trkpt>
      <trkpt lat="44.05308" lon="7.77485">
        <ele>1679</ele>
        <time>2017-09-17T15:40:05Z</time>
      </trkpt>
      <trkpt lat="44.05305" lon="7.77489">
        <ele>1679</ele>
        <time>2017-09-17T15:40:06Z</time>
      </trkpt>
      <trkpt lat="44.05302" lon="7.77494">
        <ele>1680</ele>
        <time>2017-09-17T15:40:07Z</time>
      </trkpt>
      <trkpt lat="44.053" lon="7.77499">
        <ele>1680</ele>
        <time>2017-09-17T15:40:08Z</time>
      </trkpt>
      <trkpt lat="44.05296" lon="7.77503">
        <ele>1680</ele>
        <time>2017-09-17T15:40:09Z</time>
      </trkpt>
      <trkpt lat="44.05293" lon="7.77507">
        <ele>1681</ele>
        <time>2017-09-17T15:40:10Z</time>
      </trkpt>
      <trkpt lat="44.05289" lon="7.7751">
        <ele>1681</ele>
        <time>2017-09-17T15:40:11Z</time>
      </trkpt>
      <trkpt lat="44.05285" lon="7.77513">
        <ele>1681</ele>
        <time>2017-09-17T15:40:12Z</time>
      </trkpt>
      <trkpt lat="44.0528" lon="7.77515">
        <ele>1682</ele>
        <time>2017-09-17T15:40:13Z</time>
      </trkpt>
      <trkpt lat="44.05276" lon="7.77517">
        <ele>1682</ele>
        <time>2017-09-17T15:40:14Z</time>
      </trkpt>
      <trkpt lat="44.05272" lon="7.77519">
        <ele>1682</ele>
        <time>2017-09-17T15:40:15Z</time>
      </trkpt>
      <trkpt lat="44.05267" lon="7.77521">
        <ele>1682</ele>
        <time>2017-09-17T15:40:16Z</time>
      </trkpt>
      <trkpt lat="44.05263" lon="7.77523">
        <ele>1683</ele>
        <time>2017-09-17T15:40:17Z</time>
      </trkpt>
      <trkpt lat="44.05259" lon="7.77526">
        <ele>1683</ele>
        <time>2017-09-17T15:40:18Z</time>
      </trkpt>
      <trkpt lat="44.05255" lon="7.77528">
        <ele>1683</ele>
        <time>2017-09-17T15:40:19Z</time>
      </trkpt>
      <trkpt lat="44.05251" lon="7.77531">
        <ele>1683</ele>
        <time>2017-09-17T15:40:20Z</time>
      </trkpt>
      <trkpt lat="44.05247" lon="7.77534">
        <ele>1684</ele>
        <time>2017-09-17T15:40:21Z</time>
      </trkpt>
      <trkpt lat="44.05244" lon="7.77539">
        <ele>1684</ele>
        <time>2017-09-17T15:40:22Z</time>
      </trkpt>
      <trkpt lat="44.05242" lon="7.77544">
        <ele>1685</ele>
        <time>2017-09-17T15:40:23Z</time>
      </trkpt>
      <trkpt lat="44.0524" lon="7.77549">
        <ele>1685</ele>
        <time>2017-09-17T15:40:24Z</time>
      </trkpt>
      <trkpt lat="44.05238" lon="7.77555">
        <ele>1686</ele>
        <time>2017-09-17T15:40:25Z</time>
      </trkpt>
      <trkpt lat="44.05237" lon="7.7756">
        <ele>1686</ele>
        <time>2017-09-17T15:40:26Z</time>
      </trkpt>
      <trkpt lat="44.05236" lon="7.77566">
        <ele>1686</ele>
        <time>2017-09-17T15:40:27Z</time>
      </trkpt>
      <trkpt lat="44.05235" lon="7.77571">
        <ele>1687</ele>
        <time>2017-09-17T15:40:28Z</time>
      </trkpt>
      <trkpt lat="44.05234" lon="7.77576">
        <ele>1687</ele>
        <time>2017-09-17T15:40:29Z</time>
      </trkpt>
      <trkpt lat="44.05234" lon="7.77581">
        <ele>1688</ele>
        <time>2017-09-17T15:40:30Z</time>
      </trkpt>
      <trkpt lat="44.05233" lon="7.77587">
        <ele>1688</ele>
        <time>2017-09-17T15:40:31Z</time>
      </trkpt>
      <trkpt lat="44.05233" lon="7.77592">
        <ele>1689</ele>
        <time>2017-09-17T15:40:32Z</time>
      </trkpt>
      <trkpt lat="44.05232" lon="7.77598">
        <ele>1689</ele>
        <time>2017-09-17T15:40:33Z</time>
      </trkpt>
      <trkpt lat="44.05232" lon="7.77603">
        <ele>1690</ele>
        <time>2017-09-17T15:40:34Z</time>
      </trkpt>
      <trkpt lat="44.05232" lon="7.77608">
        <ele>1690</ele>
        <time>2017-09-17T15:40:35Z</time>
      </trkpt>
      <trkpt lat="44.05232" lon="7.77614">
        <ele>1691</ele>
        <time>2017-09-17T15:40:36Z</time>
      </trkpt>
      <trkpt lat="44.05232" lon="7.7762">
        <ele>1691</ele>
        <time>2017-09-17T15:40:37Z</time>
      </trkpt>
      <trkpt lat="44.05232" lon="7.77625">
        <ele>1691</ele>
        <time>2017-09-17T15:40:38Z</time>
      </trkpt>
      <trkpt lat="44.05231" lon="7.77631">
        <ele>1692</ele>
        <time>2017-09-17T15:40:39Z</time>
      </trkpt>
      <trkpt lat="44.05231" lon="7.77637">
        <ele>1692</ele>
        <time>2017-09-17T15:40:40Z</time>
      </trkpt>
      <trkpt lat="44.05231" lon="7.77643">
        <ele>1693</ele>
        <time>2017-09-17T15:40:41Z</time>
      </trkpt>
      <trkpt lat="44.0523" lon="7.77648">
        <ele>1693</ele>
        <time>2017-09-17T15:40:42Z</time>
      </trkpt>
      <trkpt lat="44.05229" lon="7.77654">
        <ele>1694</ele>
        <time>2017-09-17T15:40:43Z</time>
      </trkpt>
      <trkpt lat="44.05228" lon="7.7766">
        <ele>1694</ele>
        <time>2017-09-17T15:40:44Z</time>
      </trkpt>
      <trkpt lat="44.05227" lon="7.77666">
        <ele>1695</ele>
        <time>2017-09-17T15:40:45Z</time>
      </trkpt>
      <trkpt lat="44.05226" lon="7.77672">
        <ele>1695</ele>
        <time>2017-09-17T15:40:46Z</time>
      </trkpt>
      <trkpt lat="44.05224" lon="7.77678">
        <ele>1695</ele>
        <time>2017-09-17T15:40:47Z</time>
      </trkpt>
      <trkpt lat="44.05223" lon="7.77685">
        <ele>1696</ele>
        <time>2017-09-17T15:40:48Z</time>
      </trkpt>
      <trkpt lat="44.05221" lon="7.77691">
        <ele>1696</ele>
        <time>2017-09-17T15:40:49Z</time>
      </trkpt>
      <trkpt lat="44.05219" lon="7.77697">
        <ele>1697</ele>
        <time>2017-09-17T15:40:50Z</time>
      </trkpt>
      <trkpt lat="44.05217" lon="7.77703">
        <ele>1697</ele>
        <time>2017-09-17T15:40:51Z</time>
      </trkpt>
      <trkpt lat="44.05215" lon="7.7771">
        <ele>1698</ele>
        <time>2017-09-17T15:40:52Z</time>
      </trkpt>
      <trkpt lat="44.05212" lon="7.77716">
        <ele>1698</ele>
        <time>2017-09-17T15:40:53Z</time>
      </trkpt>
      <trkpt lat="44.0521" lon="7.77722">
        <ele>1698</ele>
        <time>2017-09-17T15:40:54Z</time>
      </trkpt>
      <trkpt lat="44.05207" lon="7.77728">
        <ele>1699</ele>
        <time>2017-09-17T15:40:55Z</time>
      </trkpt>
      <trkpt lat="44.05203" lon="7.77734">
        <ele>1699</ele>
        <time>2017-09-17T15:40:56Z</time>
      </trkpt>
      <trkpt lat="44.052" lon="7.77739">
        <ele>1700</ele>
        <time>2017-09-17T15:40:57Z</time>
      </trkpt>
      <trkpt lat="44.05197" lon="7.77744">
        <ele>1700</ele>
        <time>2017-09-17T15:40:58Z</time>
      </trkpt>
      <trkpt lat="44.05193" lon="7.77748">
        <ele>1700</ele>
        <time>2017-09-17T15:40:59Z</time>
      </trkpt>
      <trkpt lat="44.0519" lon="7.77753">
        <ele>1701</ele>
        <time>2017-09-17T15:41:00Z</time>
      </trkpt>
      <trkpt lat="44.05186" lon="7.77757">
        <ele>1701</ele>
        <time>2017-09-17T15:41:01Z</time>
      </trkpt>
      <trkpt lat="44.05183" lon="7.77762">
        <ele>1701</ele>
        <time>2017-09-17T15:41:02Z</time>
      </trkpt>
      <trkpt lat="44.0518" lon="7.77767">
        <ele>1702</ele>
        <time>2017-09-17T15:41:03Z</time>
      </trkpt>
      <trkpt lat="44.05178" lon="7.77772">
        <ele>1702</ele>
        <time>2017-09-17T15:41:04Z</time>
      </trkpt>
      <trkpt lat="44.05175" lon="7.77776">
        <ele>1702</ele>
        <time>2017-09-17T15:41:05Z</time>
      </trkpt>
      <trkpt lat="44.05172" lon="7.77781">
        <ele>1703</ele>
        <time>2017-09-17T15:41:06Z</time>
      </trkpt>
      <trkpt lat="44.0517" lon="7.77786">
        <ele>1703</ele>
        <time>2017-09-17T15:41:07Z</time>
      </trkpt>
      <trkpt lat="44.05167" lon="7.77791">
        <ele>1703</ele>
        <time>2017-09-17T15:41:08Z</time>
      </trkpt>
      <trkpt lat="44.05164" lon="7.77795">
        <ele>1704</ele>
        <time>2017-09-17T15:41:09Z</time>
      </trkpt>
      <trkpt lat="44.05161" lon="7.77799">
        <ele>1704</ele>
        <time>2017-09-17T15:41:10Z</time>
      </trkpt>
      <trkpt lat="44.05158" lon="7.77803">
        <ele>1705</ele>
        <time>2017-09-17T15:41:11Z</time>
      </trkpt>
      <trkpt lat="44.05154" lon="7.77807">
        <ele>1705</ele>
        <time>2017-09-17T15:41:12Z</time>
      </trkpt>
      <trkpt lat="44.0515" lon="7.77809">
        <ele>1705</ele>
        <time>2017-09-17T15:41:13Z</time>
      </trkpt>
      <trkpt lat="44.05146" lon="7.77811">
        <ele>1706</ele>
        <time>2017-09-17T15:41:14Z</time>
      </trkpt>
      <trkpt lat="44.05142" lon="7.77812">
        <ele>1706</ele>
        <time>2017-09-17T15:41:15Z</time>
      </trkpt>
      <trkpt lat="44.05138" lon="7.77813">
        <ele>1706</ele>
        <time>2017-09-17T15:41:16Z</time>
      </trkpt>
      <trkpt lat="44.05133" lon="7.77813">
        <ele>1707</ele>
        <time>2017-09-17T15:41:17Z</time>
      </trkpt>
      <trkpt lat="44.05129" lon="7.77813">
        <ele>1707</ele>
        <time>2017-09-17T15:41:18Z</time>
      </trkpt>
      <trkpt lat="44.05125" lon="7.77814">
        <ele>1707</ele>
        <time>2017-09-17T15:41:19Z</time>
      </trkpt>
      <trkpt lat="44.05121" lon="7.77814">
        <ele>1708</ele>
        <time>2017-09-17T15:41:20Z</time>
      </trkpt>
      <trkpt lat="44.05116" lon="7.77815">
        <ele>1708</ele>
        <time>2017-09-17T15:41:21Z</time>
      </trkpt>
      <trkpt lat="44.05112" lon="7.77815">
        <ele>1708</ele>
        <time>2017-09-17T15:41:22Z</time>
      </trkpt>
      <trkpt lat="44.05108" lon="7.77816">
        <ele>1709</ele>
        <time>2017-09-17T15:41:23Z</time>
      </trkpt>
      <trkpt lat="44.05104" lon="7.77817">
        <ele>1709</ele>
        <time>2017-09-17T15:41:24Z</time>
      </trkpt>
      <trkpt lat="44.051" lon="7.77818">
        <ele>1710</ele>
        <time>2017-09-17T15:41:25Z</time>
      </trkpt>
      <trkpt lat="44.05096" lon="7.7782">
        <ele>1710</ele>
        <time>2017-09-17T15:41:26Z</time>
      </trkpt>
      <trkpt lat="44.05093" lon="7.77822">
        <ele>1710</ele>
        <time>2017-09-17T15:41:27Z</time>
      </trkpt>
      <trkpt lat="44.05089" lon="7.77823">
        <ele>1711</ele>
        <time>2017-09-17T15:41:28Z</time>
      </trkpt>
      <trkpt lat="44.05085" lon="7.77825">
        <ele>1711</ele>
        <time>2017-09-17T15:41:29Z</time>
      </trkpt>
      <trkpt lat="44.05081" lon="7.77826">
        <ele>1712</ele>
        <time>2017-09-17T15:41:30Z</time>
      </trkpt>
      <trkpt lat="44.05077" lon="7.77827">
        <ele>1712</ele>
        <time>2017-09-17T15:41:31Z</time>
      </trkpt>
      <trkpt lat="44.05073" lon="7.77827">
        <ele>1713</ele>
        <time>2017-09-17T15:41:32Z</time>
      </trkpt>
      <trkpt lat="44.05069" lon="7.77826">
        <ele>1713</ele>
        <time>2017-09-17T15:41:33Z</time>
      </trkpt>
      <trkpt lat="44.05065" lon="7.77826">
        <ele>1713</ele>
        <time>2017-09-17T15:41:34Z</time>
      </trkpt>
      <trkpt lat="44.05062" lon="7.77824">
        <ele>1714</ele>
        <time>2017-09-17T15:41:35Z</time>
      </trkpt>
      <trkpt lat="44.05058" lon="7.77822">
        <ele>1714</ele>
        <time>2017-09-17T15:41:36Z</time>
      </trkpt>
      <trkpt lat="44.05055" lon="7.7782">
        <ele>1715</ele>
        <time>2017-09-17T15:41:37Z</time>
      </trkpt>
      <trkpt lat="44.05051" lon="7.77817">
        <ele>1715</ele>
        <time>2017-09-17T15:41:38Z</time>
      </trkpt>
      <trkpt lat="44.05048" lon="7.77815">
        <ele>1715</ele>
        <time>2017-09-17T15:41:39Z</time>
      </trkpt>
      <trkpt lat="44.05044" lon="7.77812">
        <ele>1716</ele>
        <time>2017-09-17T15:41:40Z</time>
      </trkpt>
      <trkpt lat="44.0504" lon="7.7781">
        <ele>1716</ele>
        <time>2017-09-17T15:41:41Z</time>
      </trkpt>
      <trkpt lat="44.05037" lon="7.77807">
        <ele>1717</ele>
        <time>2017-09-17T15:41:42Z</time>
      </trkpt>
      <trkpt lat="44.05033" lon="7.77805">
        <ele>1717</ele>
        <time>2017-09-17T15:41:43Z</time>
      </trkpt>
      <trkpt lat="44.0503" lon="7.77803">
        <ele>1718</ele>
        <time>2017-09-17T15:41:44Z</time>
      </trkpt>
      <trkpt lat="44.05026" lon="7.77802">
        <ele>1718</ele>
        <time>2017-09-17T15:41:45Z</time>
      </trkpt>
      <trkpt lat="44.05022" lon="7.778">
        <ele>1718</ele>
        <time>2017-09-17T15:41:46Z</time>
      </trkpt>
      <trkpt lat="44.05018" lon="7.77799">
        <ele>1719</ele>
        <time>2017-09-17T15:41:47Z</time>
      </trkpt>
      <trkpt lat="44.05015" lon="7.77797">
        <ele>1719</ele>
        <time>2017-09-17T15:41:48Z</time>
      </trkpt>
      <trkpt lat="44.05011" lon="7.77794">
        <ele>1719</ele>
        <time>2017-09-17T15:41:49Z</time>
      </trkpt>
      <trkpt lat="44.05008" lon="7.77792">
        <ele>1720</ele>
        <time>2017-09-17T15:41:50Z</time>
      </trkpt>
      <trkpt lat="44.05004" lon="7.7779">
        <ele>1720</ele>
        <time>2017-09-17T15:41:51Z</time>
      </trkpt>
      <trkpt lat="44.05001" lon="7.77787">
        <ele>1721</ele>
        <time>2017-09-17T15:41:52Z</time>
      </trkpt>
      <trkpt lat="44.04997" lon="7.77785">
        <ele>1721</ele>
        <time>2017-09-17T15:41:53Z</time>
      </trkpt>
      <trkpt lat="44.04994" lon="7.77782">
        <ele>1721</ele>
        <time>2017-09-17T15:41:54Z</time>
      </trkpt>
      <trkpt lat="44.04991" lon="7.77779">
        <ele>1722</ele>
        <time>2017-09-17T15:41:55Z</time>
      </trkpt>
      <trkpt lat="44.04988" lon="7.77776">
        <ele>1722</ele>
        <time>2017-09-17T15:41:56Z</time>
      </trkpt>
      <trkpt lat="44.04985" lon="7.77774">
        <ele>1723</ele>
        <time>2017-09-17T15:41:57Z</time>
      </trkpt>
      <trkpt lat="44.04982" lon="7.7777">
        <ele>1723</ele>
        <time>2017-09-17T15:41:58Z</time>
      </trkpt>
      <trkpt lat="44.04979" lon="7.77767">
        <ele>1723</ele>
        <time>2017-09-17T15:41:59Z</time>
      </trkpt>
      <trkpt lat="44.04976" lon="7.77763">
        <ele>1724</ele>
        <time>2017-09-17T15:42:00Z</time>
      </trkpt>
      <trkpt lat="44.04973" lon="7.7776">
        <ele>1724</ele>
        <time>2017-09-17T15:42:01Z</time>
      </trkpt>
      <trkpt lat="44.04971" lon="7.77756">
        <ele>1725</ele>
        <time>2017-09-17T15:42:02Z</time>
      </trkpt>
      <trkpt lat="44.04967" lon="7.77752">
        <ele>1725</ele>
        <time>2017-09-17T15:42:03Z</time>
      </trkpt>
      <trkpt lat="44.04964" lon="7.7775">
        <ele>1725</ele>
        <time>2017-09-17T15:42:04Z</time>
      </trkpt>
      <trkpt lat="44.0496" lon="7.77747">
        <ele>1726</ele>
        <time>2017-09-17T15:42:05Z</time>
      </trkpt>
      <trkpt lat="44.04957" lon="7.77746">
        <ele>1726</ele>
        <time>2017-09-17T15:42:06Z</time>
      </trkpt>
      <trkpt lat="44.04953" lon="7.77744">
        <ele>1726</ele>
        <time>2017-09-17T15:42:07Z</time>
      </trkpt>
      <trkpt lat="44.04949" lon="7.77742">
        <ele>1727</ele>
        <time>2017-09-17T15:42:08Z</time>
      </trkpt>
      <trkpt lat="44.04945" lon="7.7774">
        <ele>1727</ele>
        <time>2017-09-17T15:42:09Z</time>
      </trkpt>
      <trkpt lat="44.04941" lon="7.77737">
        <ele>1728</ele>
        <time>2017-09-17T15:42:10Z</time>
      </trkpt>
      <trkpt lat="44.04938" lon="7.77734">
        <ele>1728</ele>
        <time>2017-09-17T15:42:11Z</time>
      </trkpt>
      <trkpt lat="44.04934" lon="7.77731">
        <ele>1728</ele>
        <time>2017-09-17T15:42:12Z</time>
      </trkpt>
      <trkpt lat="44.04931" lon="7.77728">
        <ele>1729</ele>
        <time>2017-09-17T15:42:13Z</time>
      </trkpt>
      <trkpt lat="44.04927" lon="7.77725">
        <ele>1729</ele>
        <time>2017-09-17T15:42:14Z</time>
      </trkpt>
      <trkpt lat="44.04923" lon="7.77723">
        <ele>1729</ele>
        <time>2017-09-17T15:42:15Z</time>
      </trkpt>
      <trkpt lat="44.04919" lon="7.77722">
        <ele>1730</ele>
        <time>2017-09-17T15:42:16Z</time>
      </trkpt>
      <trkpt lat="44.04915" lon="7.77723">
        <ele>1730</ele>
        <time>2017-09-17T15:42:17Z</time>
      </trkpt>
      <trkpt lat="44.04911" lon="7.77724">
        <ele>1731</ele>
        <time>2017-09-17T15:42:18Z</time>
      </trkpt>
      <trkpt lat="44.04907" lon="7.77724">
        <ele>1731</ele>
        <time>2017-09-17T15:42:19Z</time>
      </trkpt>
      <trkpt lat="44.04904" lon="7.77724">
        <ele>1732</ele>
        <time>2017-09-17T15:42:20Z</time>
      </trkpt>
      <trkpt lat="44.049" lon="7.77725">
        <ele>1732</ele>
        <time>2017-09-17T15:42:21Z</time>
      </trkpt>
      <trkpt lat="44.04896" lon="7.77725">
        <ele>1733</ele>
        <time>2017-09-17T15:42:22Z</time>
      </trkpt>
      <trkpt lat="44.04892" lon="7.77724">
        <ele>1733</ele>
        <time>2017-09-17T15:42:23Z</time>
      </trkpt>
      <trkpt lat="44.04888" lon="7.77724">
        <ele>1734</ele>
        <time>2017-09-17T15:42:24Z</time>
      </trkpt>
      <trkpt lat="44.04884" lon="7.77722">
        <ele>1734</ele>
        <time>2017-09-17T15:42:25Z</time>
      </trkpt>
      <trkpt lat="44.04881" lon="7.77721">
        <ele>1734</ele>
        <time>2017-09-17T15:42:26Z</time>
      </trkpt>
      <trkpt lat="44.04877" lon="7.77719">
        <ele>1735</ele>
        <time>2017-09-17T15:42:27Z</time>
      </trkpt>
      <trkpt lat="44.04873" lon="7.77717">
        <ele>1735</ele>
        <time>2017-09-17T15:42:28Z</time>
      </trkpt>
      <trkpt lat="44.0487" lon="7.77714">
        <ele>1736</ele>
        <time>2017-09-17T15:42:29Z</time>
      </trkpt>
      <trkpt lat="44.04866" lon="7.77711">
        <ele>1736</ele>
        <time>2017-09-17T15:42:30Z</time>
      </trkpt>
      <trkpt lat="44.04863" lon="7.77709">
        <ele>1736</ele>
        <time>2017-09-17T15:42:31Z</time>
      </trkpt>
      <trkpt lat="44.04859" lon="7.77706">
        <ele>1737</ele>
        <time>2017-09-17T15:42:32Z</time>
      </trkpt>
      <trkpt lat="44.04856" lon="7.77703">
        <ele>1737</ele>
        <time>2017-09-17T15:42:33Z</time>
      </trkpt>
      <trkpt lat="44.04853" lon="7.777">
        <ele>1738</ele>
        <time>2017-09-17T15:42:34Z</time>
      </trkpt>
      <trkpt lat="44.04849" lon="7.77697">
        <ele>1738</ele>
        <time>2017-09-17T15:42:35Z</time>
      </trkpt>
      <trkpt lat="44.04846" lon="7.77695">
        <ele>1738</ele>
        <time>2017-09-17T15:42:36Z</time>
      </trkpt>
      <trkpt lat="44.04842" lon="7.77693">
        <ele>1739</ele>
        <time>2017-09-17T15:42:37Z</time>
      </trkpt>
      <trkpt lat="44.04838" lon="7.7769">
        <ele>1739</ele>
        <time>2017-09-17T15:42:38Z</time>
      </trkpt>
      <trkpt lat="44.04835" lon="7.77688">
        <ele>1739</ele>
        <time>2017-09-17T15:42:39Z</time>
      </trkpt>
      <trkpt lat="44.04832" lon="7.77686">
        <ele>1740</ele>
        <time>2017-09-17T15:42:40Z</time>
      </trkpt>
      <trkpt lat="44.04829" lon="7.77684">
        <ele>1740</ele>
        <time>2017-09-17T15:42:41Z</time>
      </trkpt>
      <trkpt lat="44.04825" lon="7.77682">
        <ele>1741</ele>
        <time>2017-09-17T15:42:42Z</time>
      </trkpt>
      <trkpt lat="44.04822" lon="7.7768">
        <ele>1741</ele>
        <time>2017-09-17T15:42:43Z</time>
      </trkpt>
      <trkpt lat="44.04819" lon="7.77677">
        <ele>1742</ele>
        <time>2017-09-17T15:42:44Z</time>
      </trkpt>
      <trkpt lat="44.04816" lon="7.77673">
        <ele>1742</ele>
        <time>2017-09-17T15:42:45Z</time>
      </trkpt>
      <trkpt lat="44.04814" lon="7.7767">
        <ele>1742</ele>
        <time>2017-09-17T15:42:46Z</time>
      </trkpt>
      <trkpt lat="44.04811" lon="7.77666">
        <ele>1743</ele>
        <time>2017-09-17T15:42:47Z</time>
      </trkpt>
      <trkpt lat="44.04809" lon="7.77662">
        <ele>1743</ele>
        <time>2017-09-17T15:42:48Z</time>
      </trkpt>
      <trkpt lat="44.04806" lon="7.77658">
        <ele>1744</ele>
        <time>2017-09-17T15:42:49Z</time>
      </trkpt>
      <trkpt lat="44.04804" lon="7.77654">
        <ele>1744</ele>
        <time>2017-09-17T15:42:50Z</time>
      </trkpt>
      <trkpt lat="44.04802" lon="7.77649">
        <ele>1744</ele>
        <time>2017-09-17T15:42:51Z</time>
      </trkpt>
      <trkpt lat="44.048" lon="7.77644">
        <ele>1745</ele>
        <time>2017-09-17T15:42:52Z</time>
      </trkpt>
      <trkpt lat="44.04798" lon="7.7764">
        <ele>1745</ele>
        <time>2017-09-17T15:42:53Z</time>
      </trkpt>
      <trkpt lat="44.04797" lon="7.77635">
        <ele>1746</ele>
        <time>2017-09-17T15:42:54Z</time>
      </trkpt>
      <trkpt lat="44.04795" lon="7.77631">
        <ele>1746</ele>
        <time>2017-09-17T15:42:55Z</time>
      </trkpt>
      <trkpt lat="44.04793" lon="7.77626">
        <ele>1746</ele>
        <time>2017-09-17T15:42:56Z</time>
      </trkpt>
      <trkpt lat="44.04791" lon="7.77622">
        <ele>1747</ele>
        <time>2017-09-17T15:42:57Z</time>
      </trkpt>
      <trkpt lat="44.04788" lon="7.77618">
        <ele>1747</ele>
        <time>2017-09-17T15:42:58Z</time>
      </trkpt>
      <trkpt lat="44.04785" lon="7.77614">
        <ele>1747</ele>
        <time>2017-09-17T15:42:59Z</time>
      </trkpt>
      <trkpt lat="44.04782" lon="7.7761">
        <ele>1748</ele>
        <time>2017-09-17T15:43:00Z</time>
      </trkpt>
      <trkpt lat="44.0478" lon="7.77606">
        <ele>1748</ele>
        <time>2017-09-17T15:43:01Z</time>
      </trkpt>
      <trkpt lat="44.04778" lon="7.77602">
        <ele>1748</ele>
        <time>2017-09-17T15:43:02Z</time>
      </trkpt>
      <trkpt lat="44.04776" lon="7.77598">
        <ele>1749</ele>
        <time>2017-09-17T15:43:03Z</time>
      </trkpt>
      <trkpt lat="44.04773" lon="7.77594">
        <ele>1749</ele>
        <time>2017-09-17T15:43:04Z</time>
      </trkpt>
      <trkpt lat="44.04772" lon="7.77589">
        <ele>1749</ele>
        <time>2017-09-17T15:43:05Z</time>
      </trkpt>
      <trkpt lat="44.0477" lon="7.77585">
        <ele>1750</ele>
        <time>2017-09-17T15:43:06Z</time>
      </trkpt>
      <trkpt lat="44.04769" lon="7.77581">
        <ele>1750</ele>
        <time>2017-09-17T15:43:07Z</time>
      </trkpt>
      <trkpt lat="44.04768" lon="7.77576">
        <ele>1751</ele>
        <time>2017-09-17T15:43:08Z</time>
      </trkpt>
      <trkpt lat="44.04767" lon="7.77571">
        <ele>1751</ele>
        <time>2017-09-17T15:43:09Z</time>
      </trkpt>
      <trkpt lat="44.04766" lon="7.77567">
        <ele>1751</ele>
        <time>2017-09-17T15:43:10Z</time>
      </trkpt>
      <trkpt lat="44.04766" lon="7.77563">
        <ele>1752</ele>
        <time>2017-09-17T15:43:11Z</time>
      </trkpt>
      <trkpt lat="44.04766" lon="7.77558">
        <ele>1752</ele>
        <time>2017-09-17T15:43:12Z</time>
      </trkpt>
      <trkpt lat="44.04765" lon="7.77554">
        <ele>1752</ele>
        <time>2017-09-17T15:43:13Z</time>
      </trkpt>
      <trkpt lat="44.04764" lon="7.77549">
        <ele>1752</ele>
        <time>2017-09-17T15:43:14Z</time>
      </trkpt>
      <trkpt lat="44.04762" lon="7.77545">
        <ele>1752</ele>
        <time>2017-09-17T15:43:15Z</time>
      </trkpt>
      <trkpt lat="44.0476" lon="7.77541">
        <ele>1753</ele>
        <time>2017-09-17T15:43:16Z</time>
      </trkpt>
      <trkpt lat="44.04757" lon="7.77537">
        <ele>1753</ele>
        <time>2017-09-17T15:43:17Z</time>
      </trkpt>
      <trkpt lat="44.04755" lon="7.77534">
        <ele>1753</ele>
        <time>2017-09-17T15:43:18Z</time>
      </trkpt>
      <trkpt lat="44.04752" lon="7.7753">
        <ele>1753</ele>
        <time>2017-09-17T15:43:19Z</time>
      </trkpt>
      <trkpt lat="44.0475" lon="7.77526">
        <ele>1754</ele>
        <time>2017-09-17T15:43:20Z</time>
      </trkpt>
      <trkpt lat="44.04748" lon="7.77521">
        <ele>1754</ele>
        <time>2017-09-17T15:43:21Z</time>
      </trkpt>
      <trkpt lat="44.04746" lon="7.77517">
        <ele>1755</ele>
        <time>2017-09-17T15:43:22Z</time>
      </trkpt>
      <trkpt lat="44.04743" lon="7.77513">
        <ele>1755</ele>
        <time>2017-09-17T15:43:23Z</time>
      </trkpt>
      <trkpt lat="44.0474" lon="7.77509">
        <ele>1756</ele>
        <time>2017-09-17T15:43:24Z</time>
      </trkpt>
      <trkpt lat="44.04737" lon="7.77506">
        <ele>1756</ele>
        <time>2017-09-17T15:43:25Z</time>
      </trkpt>
      <trkpt lat="44.04734" lon="7.77504">
        <ele>1756</ele>
        <time>2017-09-17T15:43:26Z</time>
      </trkpt>
      <trkpt lat="44.0473" lon="7.77503">
        <ele>1757</ele>
        <time>2017-09-17T15:43:27Z</time>
      </trkpt>
      <trkpt lat="44.04726" lon="7.77502">
        <ele>1757</ele>
        <time>2017-09-17T15:43:28Z</time>
      </trkpt>
      <trkpt lat="44.04723" lon="7.77501">
        <ele>1758</ele>
        <time>2017-09-17T15:43:29Z</time>
      </trkpt>
      <trkpt lat="44.04719" lon="7.77501">
        <ele>1758</ele>
        <time>2017-09-17T15:43:30Z</time>
      </trkpt>
      <trkpt lat="44.04716" lon="7.77501">
        <ele>1759</ele>
        <time>2017-09-17T15:43:31Z</time>
      </trkpt>
      <trkpt lat="44.04712" lon="7.77501">
        <ele>1759</ele>
        <time>2017-09-17T15:43:32Z</time>
      </trkpt>
      <trkpt lat="44.04708" lon="7.77501">
        <ele>1759</ele>
        <time>2017-09-17T15:43:33Z</time>
      </trkpt>
      <trkpt lat="44.04705" lon="7.775">
        <ele>1760</ele>
        <time>2017-09-17T15:43:34Z</time>
      </trkpt>
      <trkpt lat="44.04701" lon="7.775">
        <ele>1760</ele>
        <time>2017-09-17T15:43:35Z</time>
      </trkpt>
      <trkpt lat="44.04698" lon="7.775">
        <ele>1761</ele>
        <time>2017-09-17T15:43:36Z</time>
      </trkpt>
      <trkpt lat="44.04694" lon="7.77501">
        <ele>1761</ele>
        <time>2017-09-17T15:43:37Z</time>
      </trkpt>
      <trkpt lat="44.04691" lon="7.77502">
        <ele>1761</ele>
        <time>2017-09-17T15:43:38Z</time>
      </trkpt>
      <trkpt lat="44.04687" lon="7.77503">
        <ele>1762</ele>
        <time>2017-09-17T15:43:39Z</time>
      </trkpt>
      <trkpt lat="44.04684" lon="7.77504">
        <ele>1762</ele>
        <time>2017-09-17T15:43:40Z</time>
      </trkpt>
      <trkpt lat="44.0468" lon="7.77504">
        <ele>1763</ele>
        <time>2017-09-17T15:43:41Z</time>
      </trkpt>
      <trkpt lat="44.04676" lon="7.77505">
        <ele>1763</ele>
        <time>2017-09-17T15:43:42Z</time>
      </trkpt>
      <trkpt lat="44.04673" lon="7.77505">
        <ele>1763</ele>
        <time>2017-09-17T15:43:43Z</time>
      </trkpt>
      <trkpt lat="44.04669" lon="7.77506">
        <ele>1764</ele>
        <time>2017-09-17T15:43:44Z</time>
      </trkpt>
      <trkpt lat="44.04665" lon="7.77506">
        <ele>1764</ele>
        <time>2017-09-17T15:43:45Z</time>
      </trkpt>
      <trkpt lat="44.04662" lon="7.77507">
        <ele>1765</ele>
        <time>2017-09-17T15:43:46Z</time>
      </trkpt>
      <trkpt lat="44.04658" lon="7.77507">
        <ele>1765</ele>
        <time>2017-09-17T15:43:47Z</time>
      </trkpt>
      <trkpt lat="44.04655" lon="7.77508">
        <ele>1765</ele>
        <time>2017-09-17T15:43:48Z</time>
      </trkpt>
      <trkpt lat="44.04651" lon="7.77508">
        <ele>1766</ele>
        <time>2017-09-17T15:43:49Z</time>
      </trkpt>
      <trkpt lat="44.04647" lon="7.77508">
        <ele>1766</ele>
        <time>2017-09-17T15:43:50Z</time>
      </trkpt>
      <trkpt lat="44.04643" lon="7.77508">
        <ele>1766</ele>
        <time>2017-09-17T15:43:51Z</time>
      </trkpt>
      <trkpt lat="44.04639" lon="7.77507">
        <ele>1767</ele>
        <time>2017-09-17T15:43:52Z</time>
      </trkpt>
      <trkpt lat="44.04635" lon="7.77507">
        <ele>1767</ele>
        <time>2017-09-17T15:43:53Z</time>
      </trkpt>
      <trkpt lat="44.04631" lon="7.77507">
        <ele>1767</ele>
        <time>2017-09-17T15:43:54Z</time>
      </trkpt>
      <trkpt lat="44.04627" lon="7.77507">
        <ele>1768</ele>
        <time>2017-09-17T15:43:55Z</time>
      </trkpt>
      <trkpt lat="44.04622" lon="7.77507">
        <ele>1768</ele>
        <time>2017-09-17T15:43:56Z</time>
      </trkpt>
      <trkpt lat="44.04618" lon="7.77507">
        <ele>1769</ele>
        <time>2017-09-17T15:43:57Z</time>
      </trkpt>
      <trkpt lat="44.04614" lon="7.77507">
        <ele>1769</ele>
        <time>2017-09-17T15:43:58Z</time>
      </trkpt>
      <trkpt lat="44.0461" lon="7.77508">
        <ele>1769</ele>
        <time>2017-09-17T15:43:59Z</time>
      </trkpt>
      <trkpt lat="44.04605" lon="7.77509">
        <ele>1770</ele>
        <time>2017-09-17T15:44:00Z</time>
      </trkpt>
      <trkpt lat="44.04601" lon="7.7751">
        <ele>1770</ele>
        <time>2017-09-17T15:44:01Z</time>
      </trkpt>
      <trkpt lat="44.04597" lon="7.77512">
        <ele>1770</ele>
        <time>2017-09-17T15:44:02Z</time>
      </trkpt>
      <trkpt lat="44.04593" lon="7.77514">
        <ele>1770</ele>
        <time>2017-09-17T15:44:03Z</time>
      </trkpt>
      <trkpt lat="44.04589" lon="7.77516">
        <ele>1771</ele>
        <time>2017-09-17T15:44:04Z</time>
      </trkpt>
      <trkpt lat="44.04586" lon="7.7752">
        <ele>1771</ele>
        <time>2017-09-17T15:44:05Z</time>
      </trkpt>
      <trkpt lat="44.04582" lon="7.77523">
        <ele>1771</ele>
        <time>2017-09-17T15:44:06Z</time>
      </trkpt>
      <trkpt lat="44.04578" lon="7.77526">
        <ele>1771</ele>
        <time>2017-09-17T15:44:07Z</time>
      </trkpt>
      <trkpt lat="44.04574" lon="7.7753">
        <ele>1772</ele>
        <time>2017-09-17T15:44:08Z</time>
      </trkpt>
      <trkpt lat="44.0457" lon="7.77532">
        <ele>1772</ele>
        <time>2017-09-17T15:44:09Z</time>
      </trkpt>
      <trkpt lat="44.04566" lon="7.77534">
        <ele>1772</ele>
        <time>2017-09-17T15:44:10Z</time>
      </trkpt>
      <trkpt lat="44.04562" lon="7.77535">
        <ele>1772</ele>
        <time>2017-09-17T15:44:11Z</time>
      </trkpt>
      <trkpt lat="44.04558" lon="7.77534">
        <ele>1773</ele>
        <time>2017-09-17T15:44:12Z</time>
      </trkpt>
      <trkpt lat="44.04553" lon="7.77532">
        <ele>1773</ele>
        <time>2017-09-17T15:44:13Z</time>
      </trkpt>
      <trkpt lat="44.0455" lon="7.77529">
        <ele>1773</ele>
        <time>2017-09-17T15:44:14Z</time>
      </trkpt>
      <trkpt lat="44.04546" lon="7.77525">
        <ele>1773</ele>
        <time>2017-09-17T15:44:15Z</time>
      </trkpt>
      <trkpt lat="44.04541" lon="7.77521">
        <ele>1773</ele>
        <time>2017-09-17T15:44:16Z</time>
      </trkpt>
      <trkpt lat="44.04537" lon="7.77517">
        <ele>1773</ele>
        <time>2017-09-17T15:44:17Z</time>
      </trkpt>
      <trkpt lat="44.04533" lon="7.77512">
        <ele>1773</ele>
        <time>2017-09-17T15:44:18Z</time>
      </trkpt>
      <trkpt lat="44.04529" lon="7.77507">
        <ele>1773</ele>
        <time>2017-09-17T15:44:19Z</time>
      </trkpt>
      <trkpt lat="44.04526" lon="7.77502">
        <ele>1773</ele>
        <time>2017-09-17T15:44:20Z</time>
      </trkpt>
      <trkpt lat="44.04524" lon="7.77496">
        <ele>1773</ele>
        <time>2017-09-17T15:44:21Z</time>
      </trkpt>
      <trkpt lat="44.04525" lon="7.77489">
        <ele>1772</ele>
        <time>2017-09-17T15:44:22Z</time>
      </trkpt>
      <trkpt lat="44.04526" lon="7.77482">
        <ele>1772</ele>
        <time>2017-09-17T15:44:23Z</time>
      </trkpt>
      <trkpt lat="44.04528" lon="7.77476">
        <ele>1772</ele>
        <time>2017-09-17T15:44:24Z</time>
      </trkpt>
      <trkpt lat="44.0453" lon="7.77469">
        <ele>1772</ele>
        <time>2017-09-17T15:44:25Z</time>
      </trkpt>
      <trkpt lat="44.04532" lon="7.77463">
        <ele>1772</ele>
        <time>2017-09-17T15:44:26Z</time>
      </trkpt>
      <trkpt lat="44.04534" lon="7.77456">
        <ele>1772</ele>
        <time>2017-09-17T15:44:27Z</time>
      </trkpt>
      <trkpt lat="44.04536" lon="7.77449">
        <ele>1772</ele>
        <time>2017-09-17T15:44:28Z</time>
      </trkpt>
      <trkpt lat="44.04539" lon="7.77443">
        <ele>1772</ele>
        <time>2017-09-17T15:44:29Z</time>
      </trkpt>
      <trkpt lat="44.04541" lon="7.77437">
        <ele>1771</ele>
        <time>2017-09-17T15:44:30Z</time>
      </trkpt>
      <trkpt lat="44.04544" lon="7.77431">
        <ele>1771</ele>
        <time>2017-09-17T15:44:31Z</time>
      </trkpt>
      <trkpt lat="44.04547" lon="7.77425">
        <ele>1771</ele>
        <time>2017-09-17T15:44:32Z</time>
      </trkpt>
      <trkpt lat="44.04551" lon="7.77419">
        <ele>1771</ele>
        <time>2017-09-17T15:44:33Z</time>
      </trkpt>
      <trkpt lat="44.04555" lon="7.77414">
        <ele>1771</ele>
        <time>2017-09-17T15:44:34Z</time>
      </trkpt>
      <trkpt lat="44.04559" lon="7.77407">
        <ele>1770</ele>
        <time>2017-09-17T15:44:35Z</time>
      </trkpt>
      <trkpt lat="44.04563" lon="7.77401">
        <ele>1770</ele>
        <time>2017-09-17T15:44:36Z</time>
      </trkpt>
      <trkpt lat="44.04568" lon="7.77394">
        <ele>1770</ele>
        <time>2017-09-17T15:44:37Z</time>
      </trkpt>
      <trkpt lat="44.04572" lon="7.77387">
        <ele>1769</ele>
        <time>2017-09-17T15:44:38Z</time>
      </trkpt>
      <trkpt lat="44.04575" lon="7.7738">
        <ele>1769</ele>
        <time>2017-09-17T15:44:39Z</time>
      </trkpt>
      <trkpt lat="44.04579" lon="7.77372">
        <ele>1769</ele>
        <time>2017-09-17T15:44:40Z</time>
      </trkpt>
      <trkpt lat="44.04582" lon="7.77365">
        <ele>1768</ele>
        <time>2017-09-17T15:44:41Z</time>
      </trkpt>
      <trkpt lat="44.04585" lon="7.77358">
        <ele>1768</ele>
        <time>2017-09-17T15:44:42Z</time>
      </trkpt>
      <trkpt lat="44.04588" lon="7.77351">
        <ele>1767</ele>
        <time>2017-09-17T15:44:43Z</time>
      </trkpt>
      <trkpt lat="44.0459" lon="7.77344">
        <ele>1767</ele>
        <time>2017-09-17T15:44:44Z</time>
      </trkpt>
      <trkpt lat="44.04591" lon="7.77336">
        <ele>1767</ele>
        <time>2017-09-17T15:44:45Z</time>
      </trkpt>
      <trkpt lat="44.04592" lon="7.77329">
        <ele>1767</ele>
        <time>2017-09-17T15:44:46Z</time>
      </trkpt>
      <trkpt lat="44.04593" lon="7.77321">
        <ele>1766</ele>
        <time>2017-09-17T15:44:47Z</time>
      </trkpt>
      <trkpt lat="44.04593" lon="7.77312">
        <ele>1766</ele>
        <time>2017-09-17T15:44:48Z</time>
      </trkpt>
      <trkpt lat="44.04594" lon="7.77304">
        <ele>1765</ele>
        <time>2017-09-17T15:44:49Z</time>
      </trkpt>
      <trkpt lat="44.04594" lon="7.77295">
        <ele>1765</ele>
        <time>2017-09-17T15:44:50Z</time>
      </trkpt>
      <trkpt lat="44.04595" lon="7.77286">
        <ele>1765</ele>
        <time>2017-09-17T15:44:51Z</time>
      </trkpt>
      <trkpt lat="44.04596" lon="7.77276">
        <ele>1764</ele>
        <time>2017-09-17T15:44:52Z</time>
      </trkpt>
      <trkpt lat="44.04598" lon="7.77267">
        <ele>1764</ele>
        <time>2017-09-17T15:44:53Z</time>
      </trkpt>
      <trkpt lat="44.046" lon="7.77258">
        <ele>1763</ele>
        <time>2017-09-17T15:44:54Z</time>
      </trkpt>
      <trkpt lat="44.04602" lon="7.77248">
        <ele>1763</ele>
        <time>2017-09-17T15:44:55Z</time>
      </trkpt>
      <trkpt lat="44.04605" lon="7.77239">
        <ele>1762</ele>
        <time>2017-09-17T15:44:56Z</time>
      </trkpt>
      <trkpt lat="44.04607" lon="7.77229">
        <ele>1762</ele>
        <time>2017-09-17T15:44:57Z</time>
      </trkpt>
      <trkpt lat="44.04609" lon="7.77219">
        <ele>1762</ele>
        <time>2017-09-17T15:44:58Z</time>
      </trkpt>
      <trkpt lat="44.0461" lon="7.77209">
        <ele>1761</ele>
        <time>2017-09-17T15:44:59Z</time>
      </trkpt>
      <trkpt lat="44.0461" lon="7.77198">
        <ele>1761</ele>
        <time>2017-09-17T15:45:00Z</time>
      </trkpt>
      <trkpt lat="44.04608" lon="7.77188">
        <ele>1760</ele>
        <time>2017-09-17T15:45:01Z</time>
      </trkpt>
      <trkpt lat="44.04606" lon="7.77177">
        <ele>1760</ele>
        <time>2017-09-17T15:45:02Z</time>
      </trkpt>
      <trkpt lat="44.04603" lon="7.77168">
        <ele>1759</ele>
        <time>2017-09-17T15:45:03Z</time>
      </trkpt>
      <trkpt lat="44.046" lon="7.77158">
        <ele>1759</ele>
        <time>2017-09-17T15:45:04Z</time>
      </trkpt>
      <trkpt lat="44.04596" lon="7.77149">
        <ele>1758</ele>
        <time>2017-09-17T15:45:05Z</time>
      </trkpt>
      <trkpt lat="44.04592" lon="7.7714">
        <ele>1758</ele>
        <time>2017-09-17T15:45:06Z</time>
      </trkpt>
      <trkpt lat="44.04589" lon="7.7713">
        <ele>1757</ele>
        <time>2017-09-17T15:45:07Z</time>
      </trkpt>
      <trkpt lat="44.04587" lon="7.77121">
        <ele>1757</ele>
        <time>2017-09-17T15:45:08Z</time>
      </trkpt>
      <trkpt lat="44.04588" lon="7.77112">
        <ele>1756</ele>
        <time>2017-09-17T15:45:09Z</time>
      </trkpt>
      <trkpt lat="44.0459" lon="7.77102">
        <ele>1756</ele>
        <time>2017-09-17T15:45:10Z</time>
      </trkpt>
      <trkpt lat="44.04594" lon="7.77093">
        <ele>1756</ele>
        <time>2017-09-17T15:45:11Z</time>
      </trkpt>
      <trkpt lat="44.04597" lon="7.77084">
        <ele>1755</ele>
        <time>2017-09-17T15:45:12Z</time>
      </trkpt>
      <trkpt lat="44.04599" lon="7.77073">
        <ele>1755</ele>
        <time>2017-09-17T15:45:13Z</time>
      </trkpt>
      <trkpt lat="44.04599" lon="7.77063">
        <ele>1754</ele>
        <time>2017-09-17T15:45:14Z</time>
      </trkpt>
      <trkpt lat="44.04599" lon="7.77052">
        <ele>1753</ele>
        <time>2017-09-17T15:45:15Z</time>
      </trkpt>
      <trkpt lat="44.046" lon="7.7704">
        <ele>1753</ele>
        <time>2017-09-17T15:45:16Z</time>
      </trkpt>
      <trkpt lat="44.04601" lon="7.77028">
        <ele>1752</ele>
        <time>2017-09-17T15:45:17Z</time>
      </trkpt>
      <trkpt lat="44.04603" lon="7.77016">
        <ele>1751</ele>
        <time>2017-09-17T15:45:18Z</time>
      </trkpt>
      <trkpt lat="44.04606" lon="7.77004">
        <ele>1750</ele>
        <time>2017-09-17T15:45:19Z</time>
      </trkpt>
      <trkpt lat="44.04608" lon="7.76992">
        <ele>1749</ele>
        <time>2017-09-17T15:45:20Z</time>
      </trkpt>
      <trkpt lat="44.0461" lon="7.7698">
        <ele>1749</ele>
        <time>2017-09-17T15:45:21Z</time>
      </trkpt>
      <trkpt lat="44.04612" lon="7.76969">
        <ele>1748</ele>
        <time>2017-09-17T15:45:22Z</time>
      </trkpt>
      <trkpt lat="44.04613" lon="7.76959">
        <ele>1747</ele>
        <time>2017-09-17T15:45:23Z</time>
      </trkpt>
      <trkpt lat="44.04615" lon="7.7695">
        <ele>1746</ele>
        <time>2017-09-17T15:45:24Z</time>
      </trkpt>
      <trkpt lat="44.04617" lon="7.76943">
        <ele>1745</ele>
        <time>2017-09-17T15:45:25Z</time>
      </trkpt>
      <trkpt lat="44.0462" lon="7.76937">
        <ele>1745</ele>
        <time>2017-09-17T15:45:26Z</time>
      </trkpt>
      <trkpt lat="44.04625" lon="7.76933">
        <ele>1744</ele>
        <time>2017-09-17T15:45:27Z</time>
      </trkpt>
      <trkpt lat="44.04631" lon="7.7693">
        <ele>1744</ele>
        <time>2017-09-17T15:45:28Z</time>
      </trkpt>
      <trkpt lat="44.04638" lon="7.76928">
        <ele>1743</ele>
        <time>2017-09-17T15:45:29Z</time>
      </trkpt>
      <trkpt lat="44.04645" lon="7.76926">
        <ele>1743</ele>
        <time>2017-09-17T15:45:30Z</time>
      </trkpt>
      <trkpt lat="44.04652" lon="7.76924">
        <ele>1742</ele>
        <time>2017-09-17T15:45:31Z</time>
      </trkpt>
      <trkpt lat="44.04659" lon="7.76921">
        <ele>1742</ele>
        <time>2017-09-17T15:45:32Z</time>
      </trkpt>
      <trkpt lat="44.04667" lon="7.76918">
        <ele>1741</ele>
        <time>2017-09-17T15:45:33Z</time>
      </trkpt>
      <trkpt lat="44.04673" lon="7.76912">
        <ele>1741</ele>
        <time>2017-09-17T15:45:34Z</time>
      </trkpt>
      <trkpt lat="44.04678" lon="7.76905">
        <ele>1740</ele>
        <time>2017-09-17T15:45:35Z</time>
      </trkpt>
      <trkpt lat="44.04683" lon="7.76897">
        <ele>1740</ele>
        <time>2017-09-17T15:45:36Z</time>
      </trkpt>
      <trkpt lat="44.04687" lon="7.76889">
        <ele>1739</ele>
        <time>2017-09-17T15:45:37Z</time>
      </trkpt>
      <trkpt lat="44.04689" lon="7.7688">
        <ele>1739</ele>
        <time>2017-09-17T15:45:38Z</time>
      </trkpt>
      <trkpt lat="44.0469" lon="7.76872">
        <ele>1738</ele>
        <time>2017-09-17T15:45:39Z</time>
      </trkpt>
      <trkpt lat="44.04692" lon="7.76864">
        <ele>1737</ele>
        <time>2017-09-17T15:45:40Z</time>
      </trkpt>
      <trkpt lat="44.04695" lon="7.76858">
        <ele>1736</ele>
        <time>2017-09-17T15:45:41Z</time>
      </trkpt>
      <trkpt lat="44.04699" lon="7.76854">
        <ele>1736</ele>
        <time>2017-09-17T15:45:42Z</time>
      </trkpt>
      <trkpt lat="44.04704" lon="7.7685">
        <ele>1735</ele>
        <time>2017-09-17T15:45:43Z</time>
      </trkpt>
      <trkpt lat="44.0471" lon="7.76847">
        <ele>1735</ele>
        <time>2017-09-17T15:45:44Z</time>
      </trkpt>
      <trkpt lat="44.04716" lon="7.76843">
        <ele>1734</ele>
        <time>2017-09-17T15:45:45Z</time>
      </trkpt>
      <trkpt lat="44.04722" lon="7.7684">
        <ele>1734</ele>
        <time>2017-09-17T15:45:46Z</time>
      </trkpt>
      <trkpt lat="44.04728" lon="7.76836">
        <ele>1733</ele>
        <time>2017-09-17T15:45:47Z</time>
      </trkpt>
      <trkpt lat="44.04733" lon="7.76831">
        <ele>1732</ele>
        <time>2017-09-17T15:45:48Z</time>
      </trkpt>
      <trkpt lat="44.04737" lon="7.76824">
        <ele>1732</ele>
        <time>2017-09-17T15:45:49Z</time>
      </trkpt>
      <trkpt lat="44.0474" lon="7.76816">
        <ele>1731</ele>
        <time>2017-09-17T15:45:50Z</time>
      </trkpt>
      <trkpt lat="44.04742" lon="7.76807">
        <ele>1731</ele>
        <time>2017-09-17T15:45:51Z</time>
      </trkpt>
      <trkpt lat="44.04743" lon="7.76797">
        <ele>1730</ele>
        <time>2017-09-17T15:45:52Z</time>
      </trkpt>
      <trkpt lat="44.04746" lon="7.76788">
        <ele>1729</ele>
        <time>2017-09-17T15:45:53Z</time>
      </trkpt>
      <trkpt lat="44.04749" lon="7.7678">
        <ele>1728</ele>
        <time>2017-09-17T15:45:54Z</time>
      </trkpt>
      <trkpt lat="44.04754" lon="7.76774">
        <ele>1728</ele>
        <time>2017-09-17T15:45:55Z</time>
      </trkpt>
      <trkpt lat="44.04759" lon="7.76767">
        <ele>1727</ele>
        <time>2017-09-17T15:45:56Z</time>
      </trkpt>
      <trkpt lat="44.04763" lon="7.7676">
        <ele>1726</ele>
        <time>2017-09-17T15:45:57Z</time>
      </trkpt>
      <trkpt lat="44.04765" lon="7.76751">
        <ele>1726</ele>
        <time>2017-09-17T15:45:58Z</time>
      </trkpt>
      <trkpt lat="44.04766" lon="7.76741">
        <ele>1725</ele>
        <time>2017-09-17T15:45:59Z</time>
      </trkpt>
      <trkpt lat="44.04766" lon="7.76732">
        <ele>1725</ele>
        <time>2017-09-17T15:46:00Z</time>
      </trkpt>
      <trkpt lat="44.04765" lon="7.76722">
        <ele>1724</ele>
        <time>2017-09-17T15:46:01Z</time>
      </trkpt>
      <trkpt lat="44.04764" lon="7.76711">
        <ele>1724</ele>
        <time>2017-09-17T15:46:02Z</time>
      </trkpt>
      <trkpt lat="44.04763" lon="7.767">
        <ele>1723</ele>
        <time>2017-09-17T15:46:03Z</time>
      </trkpt>
      <trkpt lat="44.04762" lon="7.76688">
        <ele>1723</ele>
        <time>2017-09-17T15:46:04Z</time>
      </trkpt>
      <trkpt lat="44.04762" lon="7.76677">
        <ele>1723</ele>
        <time>2017-09-17T15:46:05Z</time>
      </trkpt>
      <trkpt lat="44.04762" lon="7.76665">
        <ele>1722</ele>
        <time>2017-09-17T15:46:06Z</time>
      </trkpt>
      <trkpt lat="44.04762" lon="7.76655">
        <ele>1721</ele>
        <time>2017-09-17T15:46:07Z</time>
      </trkpt>
      <trkpt lat="44.04762" lon="7.76645">
        <ele>1721</ele>
        <time>2017-09-17T15:46:08Z</time>
      </trkpt>
      <trkpt lat="44.04763" lon="7.76637">
        <ele>1720</ele>
        <time>2017-09-17T15:46:09Z</time>
      </trkpt>
      <trkpt lat="44.04766" lon="7.7663">
        <ele>1720</ele>
        <time>2017-09-17T15:46:10Z</time>
      </trkpt>
      <trkpt lat="44.0477" lon="7.76623">
        <ele>1719</ele>
        <time>2017-09-17T15:46:11Z</time>
      </trkpt>
      <trkpt lat="44.04774" lon="7.76616">
        <ele>1719</ele>
        <time>2017-09-17T15:46:12Z</time>
      </trkpt>
      <trkpt lat="44.04779" lon="7.76608">
        <ele>1718</ele>
        <time>2017-09-17T15:46:13Z</time>
      </trkpt>
      <trkpt lat="44.04783" lon="7.766">
        <ele>1718</ele>
        <time>2017-09-17T15:46:14Z</time>
      </trkpt>
      <trkpt lat="44.04787" lon="7.76592">
        <ele>1717</ele>
        <time>2017-09-17T15:46:15Z</time>
      </trkpt>
      <trkpt lat="44.0479" lon="7.76582">
        <ele>1716</ele>
        <time>2017-09-17T15:46:16Z</time>
      </trkpt>
      <trkpt lat="44.04791" lon="7.76573">
        <ele>1715</ele>
        <time>2017-09-17T15:46:17Z</time>
      </trkpt>
      <trkpt lat="44.04791" lon="7.76565">
        <ele>1715</ele>
        <time>2017-09-17T15:46:18Z</time>
      </trkpt>
      <trkpt lat="44.04792" lon="7.76558">
        <ele>1714</ele>
        <time>2017-09-17T15:46:19Z</time>
      </trkpt>
      <trkpt lat="44.04793" lon="7.76551">
        <ele>1714</ele>
        <time>2017-09-17T15:46:20Z</time>
      </trkpt>
      <trkpt lat="44.04794" lon="7.76545">
        <ele>1713</ele>
        <time>2017-09-17T15:46:21Z</time>
      </trkpt>
      <trkpt lat="44.04797" lon="7.7654">
        <ele>1713</ele>
        <time>2017-09-17T15:46:22Z</time>
      </trkpt>
      <trkpt lat="44.048" lon="7.76536">
        <ele>1712</ele>
        <time>2017-09-17T15:46:23Z</time>
      </trkpt>
      <trkpt lat="44.04803" lon="7.76531">
        <ele>1711</ele>
        <time>2017-09-17T15:46:24Z</time>
      </trkpt>
      <trkpt lat="44.04806" lon="7.76527">
        <ele>1711</ele>
        <time>2017-09-17T15:46:25Z</time>
      </trkpt>
      <trkpt lat="44.04808" lon="7.76524">
        <ele>1710</ele>
        <time>2017-09-17T15:46:26Z</time>
      </trkpt>
      <trkpt lat="44.0481" lon="7.7652">
        <ele>1710</ele>
        <time>2017-09-17T15:46:27Z</time>
      </trkpt>
      <trkpt lat="44.04812" lon="7.76517">
        <ele>1709</ele>
        <time>2017-09-17T15:46:28Z</time>
      </trkpt>
      <trkpt lat="44.04814" lon="7.76514">
        <ele>1709</ele>
        <time>2017-09-17T15:46:29Z</time>
      </trkpt>
      <trkpt lat="44.04815" lon="7.76512">
        <ele>1708</ele>
        <time>2017-09-17T15:46:30Z</time>
      </trkpt>
      <trkpt lat="44.04816" lon="7.7651">
        <ele>1708</ele>
        <time>2017-09-17T15:46:31Z</time>
      </trkpt>
      <trkpt lat="44.04816" lon="7.76509">
        <ele>1708</ele>
        <time>2017-09-17T15:46:32Z</time>
      </trkpt>
      <trkpt lat="44.04817" lon="7.76507">
        <ele>1707</ele>
        <time>2017-09-17T15:46:33Z</time>
      </trkpt>
      <trkpt lat="44.04817" lon="7.76506">
        <ele>1707</ele>
        <time>2017-09-17T15:46:34Z</time>
      </trkpt>
      <trkpt lat="44.04817" lon="7.76504">
        <ele>1706</ele>
        <time>2017-09-17T15:46:35Z</time>
      </trkpt>
      <trkpt lat="44.04817" lon="7.76502">
        <ele>1706</ele>
        <time>2017-09-17T15:46:36Z</time>
      </trkpt>
      <trkpt lat="44.04817" lon="7.76501">
        <ele>1706</ele>
        <time>2017-09-17T15:46:37Z</time>
      </trkpt>
      <trkpt lat="44.04817" lon="7.765">
        <ele>1706</ele>
        <time>2017-09-17T15:46:38Z</time>
      </trkpt>
      <trkpt lat="44.04817" lon="7.76498">
        <ele>1705</ele>
        <time>2017-09-17T15:46:39Z</time>
      </trkpt>
      <trkpt lat="44.04817" lon="7.76497">
        <ele>1705</ele>
        <time>2017-09-17T15:46:40Z</time>
      </trkpt>
      <trkpt lat="44.04817" lon="7.76495">
        <ele>1705</ele>
        <time>2017-09-17T15:46:41Z</time>
      </trkpt>
      <trkpt lat="44.04816" lon="7.76493">
        <ele>1704</ele>
        <time>2017-09-17T15:46:42Z</time>
      </trkpt>
      <trkpt lat="44.04816" lon="7.76492">
        <ele>1704</ele>
        <time>2017-09-17T15:46:43Z</time>
      </trkpt>
      <trkpt lat="44.04816" lon="7.76492">
        <ele>1704</ele>
        <time>2017-09-17T15:46:44Z</time>
      </trkpt>
      <trkpt lat="44.04816" lon="7.76491">
        <ele>1704</ele>
        <time>2017-09-17T15:46:45Z</time>
      </trkpt>
      <trkpt lat="44.04816" lon="7.76489">
        <ele>1704</ele>
        <time>2017-09-17T15:46:46Z</time>
      </trkpt>
      <trkpt lat="44.04816" lon="7.76488">
        <ele>1703</ele>
        <time>2017-09-17T15:46:47Z</time>
      </trkpt>
      <trkpt lat="44.04816" lon="7.76487">
        <ele>1703</ele>
        <time>2017-09-17T15:46:48Z</time>
      </trkpt>
      <trkpt lat="44.04816" lon="7.76486">
        <ele>1703</ele>
        <time>2017-09-17T15:46:49Z</time>
      </trkpt>
      <trkpt lat="44.04816" lon="7.76485">
        <ele>1703</ele>
        <time>2017-09-17T15:46:50Z</time>
      </trkpt>
      <trkpt lat="44.04817" lon="7.76483">
        <ele>1703</ele>
        <time>2017-09-17T15:46:51Z</time>
      </trkpt>
      <trkpt lat="44.04817" lon="7.7648">
        <ele>1703</ele>
        <time>2017-09-17T15:46:52Z</time>
      </trkpt>
      <trkpt lat="44.04818" lon="7.76478">
        <ele>1702</ele>
        <time>2017-09-17T15:46:53Z</time>
      </trkpt>
      <trkpt lat="44.04818" lon="7.76477">
        <ele>1702</ele>
        <time>2017-09-17T15:46:54Z</time>
      </trkpt>
      <trkpt lat="44.04818" lon="7.76475">
        <ele>1702</ele>
        <time>2017-09-17T15:46:55Z</time>
      </trkpt>
      <trkpt lat="44.04819" lon="7.76474">
        <ele>1702</ele>
        <time>2017-09-17T15:46:56Z</time>
      </trkpt>
      <trkpt lat="44.04819" lon="7.76473">
        <ele>1702</ele>
        <time>2017-09-17T15:46:57Z</time>
      </trkpt>
      <trkpt lat="44.04819" lon="7.76472">
        <ele>1702</ele>
        <time>2017-09-17T15:46:58Z</time>
      </trkpt>
      <trkpt lat="44.04819" lon="7.76472">
        <ele>1701</ele>
        <time>2017-09-17T15:46:59Z</time>
      </trkpt>
      <trkpt lat="44.0482" lon="7.7647">
        <ele>1701</ele>
        <time>2017-09-17T15:47:00Z</time>
      </trkpt>
      <trkpt lat="44.0482" lon="7.76469">
        <ele>1701</ele>
        <time>2017-09-17T15:47:01Z</time>
      </trkpt>
      <trkpt lat="44.04821" lon="7.76467">
        <ele>1701</ele>
        <time>2017-09-17T15:47:02Z</time>
      </trkpt>
      <trkpt lat="44.04822" lon="7.76465">
        <ele>1701</ele>
        <time>2017-09-17T15:47:03Z</time>
      </trkpt>
      <trkpt lat="44.04822" lon="7.76463">
        <ele>1701</ele>
        <time>2017-09-17T15:47:04Z</time>
      </trkpt>
      <trkpt lat="44.04823" lon="7.76462">
        <ele>1701</ele>
        <time>2017-09-17T15:47:05Z</time>
      </trkpt>
      <trkpt lat="44.04823" lon="7.76461">
        <ele>1701</ele>
        <time>2017-09-17T15:47:06Z</time>
      </trkpt>
      <trkpt lat="44.04824" lon="7.7646">
        <ele>1701</ele>
        <time>2017-09-17T15:47:07Z</time>
      </trkpt>
      <trkpt lat="44.04824" lon="7.76459">
        <ele>1700</ele>
        <time>2017-09-17T15:47:08Z</time>
      </trkpt>
      <trkpt lat="44.04824" lon="7.76458">
        <ele>1700</ele>
        <time>2017-09-17T15:47:09Z</time>
      </trkpt>
      <trkpt lat="44.04825" lon="7.76457">
        <ele>1700</ele>
        <time>2017-09-17T15:47:10Z</time>
      </trkpt>
      <trkpt lat="44.04826" lon="7.76456">
        <ele>1700</ele>
        <time>2017-09-17T15:47:11Z</time>
      </trkpt>
      <trkpt lat="44.04826" lon="7.76454">
        <ele>1700</ele>
        <time>2017-09-17T15:47:12Z</time>
      </trkpt>
      <trkpt lat="44.04827" lon="7.76453">
        <ele>1700</ele>
        <time>2017-09-17T15:47:13Z</time>
      </trkpt>
      <trkpt lat="44.04828" lon="7.76452">
        <ele>1700</ele>
        <time>2017-09-17T15:47:14Z</time>
      </trkpt>
      <trkpt lat="44.04828" lon="7.7645">
        <ele>1700</ele>
        <time>2017-09-17T15:47:15Z</time>
      </trkpt>
      <trkpt lat="44.04829" lon="7.76449">
        <ele>1700</ele>
        <time>2017-09-17T15:47:16Z</time>
      </trkpt>
      <trkpt lat="44.04831" lon="7.76447">
        <ele>1700</ele>
        <time>2017-09-17T15:47:17Z</time>
      </trkpt>
      <trkpt lat="44.04831" lon="7.76445">
        <ele>1700</ele>
        <time>2017-09-17T15:47:18Z</time>
      </trkpt>
      <trkpt lat="44.04832" lon="7.76444">
        <ele>1699</ele>
        <time>2017-09-17T15:47:19Z</time>
      </trkpt>
      <trkpt lat="44.04833" lon="7.76443">
        <ele>1699</ele>
        <time>2017-09-17T15:47:20Z</time>
      </trkpt>
      <trkpt lat="44.04834" lon="7.76441">
        <ele>1699</ele>
        <time>2017-09-17T15:47:21Z</time>
      </trkpt>
      <trkpt lat="44.04835" lon="7.76439">
        <ele>1699</ele>
        <time>2017-09-17T15:47:22Z</time>
      </trkpt>
      <trkpt lat="44.04836" lon="7.76438">
        <ele>1699</ele>
        <time>2017-09-17T15:47:23Z</time>
      </trkpt>
      <trkpt lat="44.04836" lon="7.76436">
        <ele>1699</ele>
        <time>2017-09-17T15:47:24Z</time>
      </trkpt>
      <trkpt lat="44.04837" lon="7.76436">
        <ele>1699</ele>
        <time>2017-09-17T15:47:25Z</time>
      </trkpt>
      <trkpt lat="44.04838" lon="7.76434">
        <ele>1698</ele>
        <time>2017-09-17T15:47:26Z</time>
      </trkpt>
      <trkpt lat="44.04838" lon="7.76433">
        <ele>1698</ele>
        <time>2017-09-17T15:47:27Z</time>
      </trkpt>
      <trkpt lat="44.04839" lon="7.76432">
        <ele>1698</ele>
        <time>2017-09-17T15:47:28Z</time>
      </trkpt>
      <trkpt lat="44.0484" lon="7.76431">
        <ele>1698</ele>
        <time>2017-09-17T15:47:29Z</time>
      </trkpt>
      <trkpt lat="44.0484" lon="7.7643">
        <ele>1697</ele>
        <time>2017-09-17T15:47:30Z</time>
      </trkpt>
      <trkpt lat="44.04841" lon="7.76429">
        <ele>1697</ele>
        <time>2017-09-17T15:47:31Z</time>
      </trkpt>
      <trkpt lat="44.04842" lon="7.76427">
        <ele>1697</ele>
        <time>2017-09-17T15:47:32Z</time>
      </trkpt>
      <trkpt lat="44.04843" lon="7.76425">
        <ele>1697</ele>
        <time>2017-09-17T15:47:33Z</time>
      </trkpt>
      <trkpt lat="44.04844" lon="7.76423">
        <ele>1696</ele>
        <time>2017-09-17T15:47:34Z</time>
      </trkpt>
      <trkpt lat="44.04845" lon="7.76421">
        <ele>1696</ele>
        <time>2017-09-17T15:47:35Z</time>
      </trkpt>
      <trkpt lat="44.04846" lon="7.76419">
        <ele>1696</ele>
        <time>2017-09-17T15:47:36Z</time>
      </trkpt>
      <trkpt lat="44.04847" lon="7.76418">
        <ele>1696</ele>
        <time>2017-09-17T15:47:37Z</time>
      </trkpt>
      <trkpt lat="44.04847" lon="7.76417">
        <ele>1695</ele>
        <time>2017-09-17T15:47:38Z</time>
      </trkpt>
      <trkpt lat="44.04848" lon="7.76416">
        <ele>1695</ele>
        <time>2017-09-17T15:47:39Z</time>
      </trkpt>
      <trkpt lat="44.04849" lon="7.76415">
        <ele>1695</ele>
        <time>2017-09-17T15:47:40Z</time>
      </trkpt>
      <trkpt lat="44.04849" lon="7.76414">
        <ele>1695</ele>
        <time>2017-09-17T15:47:41Z</time>
      </trkpt>
      <trkpt lat="44.0485" lon="7.76413">
        <ele>1695</ele>
        <time>2017-09-17T15:47:42Z</time>
      </trkpt>
      <trkpt lat="44.0485" lon="7.76412">
        <ele>1695</ele>
        <time>2017-09-17T15:47:43Z</time>
      </trkpt>
      <trkpt lat="44.04851" lon="7.76411">
        <ele>1694</ele>
        <time>2017-09-17T15:47:44Z</time>
      </trkpt>
      <trkpt lat="44.04851" lon="7.7641">
        <ele>1694</ele>
        <time>2017-09-17T15:47:45Z</time>
      </trkpt>
      <trkpt lat="44.04851" lon="7.76409">
        <ele>1694</ele>
        <time>2017-09-17T15:47:46Z</time>
      </trkpt>
      <trkpt lat="44.04852" lon="7.76407">
        <ele>1694</ele>
        <time>2017-09-17T15:47:47Z</time>
      </trkpt>
      <trkpt lat="44.04852" lon="7.76406">
        <ele>1694</ele>
        <time>2017-09-17T15:47:48Z</time>
      </trkpt>
      <trkpt lat="44.04852" lon="7.76404">
        <ele>1694</ele>
        <time>2017-09-17T15:47:49Z</time>
      </trkpt>
      <trkpt lat="44.04852" lon="7.76403">
        <ele>1693</ele>
        <time>2017-09-17T15:47:50Z</time>
      </trkpt>
      <trkpt lat="44.04852" lon="7.76402">
        <ele>1693</ele>
        <time>2017-09-17T15:47:51Z</time>
      </trkpt>
      <trkpt lat="44.04852" lon="7.764">
        <ele>1693</ele>
        <time>2017-09-17T15:47:52Z</time>
      </trkpt>
      <trkpt lat="44.04852" lon="7.76399">
        <ele>1693</ele>
        <time>2017-09-17T15:47:53Z</time>
      </trkpt>
      <trkpt lat="44.04852" lon="7.76398">
        <ele>1693</ele>
        <time>2017-09-17T15:47:54Z</time>
      </trkpt>
      <trkpt lat="44.04852" lon="7.76397">
        <ele>1693</ele>
        <time>2017-09-17T15:47:55Z</time>
      </trkpt>
      <trkpt lat="44.04852" lon="7.76396">
        <ele>1693</ele>
        <time>2017-09-17T15:47:56Z</time>
      </trkpt>
      <trkpt lat="44.04851" lon="7.76395">
        <ele>1693</ele>
        <time>2017-09-17T15:47:57Z</time>
      </trkpt>
      <trkpt lat="44.04851" lon="7.76394">
        <ele>1692</ele>
        <time>2017-09-17T15:47:58Z</time>
      </trkpt>
      <trkpt lat="44.04851" lon="7.76393">
        <ele>1692</ele>
        <time>2017-09-17T15:47:59Z</time>
      </trkpt>
      <trkpt lat="44.04851" lon="7.76392">
        <ele>1692</ele>
        <time>2017-09-17T15:48:00Z</time>
      </trkpt>
      <trkpt lat="44.0485" lon="7.76392">
        <ele>1692</ele>
        <time>2017-09-17T15:48:01Z</time>
      </trkpt>
      <trkpt lat="44.0485" lon="7.76392">
        <ele>1692</ele>
        <time>2017-09-17T15:48:02Z</time>
      </trkpt>
      <trkpt lat="44.0485" lon="7.76391">
        <ele>1692</ele>
        <time>2017-09-17T15:48:03Z</time>
      </trkpt>
      <trkpt lat="44.0485" lon="7.76391">
        <ele>1692</ele>
        <time>2017-09-17T15:48:04Z</time>
      </trkpt>
      <trkpt lat="44.0485" lon="7.76391">
        <ele>1692</ele>
        <time>2017-09-17T15:48:05Z</time>
      </trkpt>
      <trkpt lat="44.0485" lon="7.7639">
        <ele>1692</ele>
        <time>2017-09-17T15:48:06Z</time>
      </trkpt>
      <trkpt lat="44.04849" lon="7.7639">
        <ele>1692</ele>
        <time>2017-09-17T15:48:07Z</time>
      </trkpt>
      <trkpt lat="44.04849" lon="7.76389">
        <ele>1692</ele>
        <time>2017-09-17T15:48:08Z</time>
      </trkpt>
      <trkpt lat="44.04849" lon="7.76389">
        <ele>1691</ele>
        <time>2017-09-17T15:48:09Z</time>
      </trkpt>
      <trkpt lat="44.04849" lon="7.76388">
        <ele>1691</ele>
        <time>2017-09-17T15:48:10Z</time>
      </trkpt>
      <trkpt lat="44.04848" lon="7.76387">
        <ele>1691</ele>
        <time>2017-09-17T15:48:11Z</time>
      </trkpt>
      <trkpt lat="44.04848" lon="7.76385">
        <ele>1691</ele>
        <time>2017-09-17T15:48:12Z</time>
      </trkpt>
      <trkpt lat="44.04847" lon="7.76383">
        <ele>1691</ele>
        <time>2017-09-17T15:48:13Z</time>
      </trkpt>
      <trkpt lat="44.04846" lon="7.76381">
        <ele>1691</ele>
        <time>2017-09-17T15:48:14Z</time>
      </trkpt>
      <trkpt lat="44.04844" lon="7.76379">
        <ele>1691</ele>
        <time>2017-09-17T15:48:15Z</time>
      </trkpt>
      <trkpt lat="44.04842" lon="7.76377">
        <ele>1691</ele>
        <time>2017-09-17T15:48:16Z</time>
      </trkpt>
      <trkpt lat="44.0484" lon="7.76375">
        <ele>1691</ele>
        <time>2017-09-17T15:48:17Z</time>
      </trkpt>
      <trkpt lat="44.04838" lon="7.76373">
        <ele>1691</ele>
        <time>2017-09-17T15:48:18Z</time>
      </trkpt>
      <trkpt lat="44.04836" lon="7.7637">
        <ele>1691</ele>
        <time>2017-09-17T15:48:19Z</time>
      </trkpt>
      <trkpt lat="44.04834" lon="7.76368">
        <ele>1691</ele>
        <time>2017-09-17T15:48:20Z</time>
      </trkpt>
      <trkpt lat="44.04834" lon="7.76367">
        <ele>1691</ele>
        <time>2017-09-17T15:48:21Z</time>
      </trkpt>
      <trkpt lat="44.04833" lon="7.76366">
        <ele>1691</ele>
        <time>2017-09-17T15:48:22Z</time>
      </trkpt>
      <trkpt lat="44.04833" lon="7.76366">
        <ele>1691</ele>
        <time>2017-09-17T15:48:23Z</time>
      </trkpt>
      <trkpt lat="44.04833" lon="7.76366">
        <ele>1691</ele>
        <time>2017-09-17T15:48:24Z</time>
      </trkpt>
      <trkpt lat="44.04833" lon="7.76366">
        <ele>1691</ele>
        <time>2017-09-17T15:48:25Z</time>
      </trkpt>
      <trkpt lat="44.04833" lon="7.76366">
        <ele>1691</ele>
        <time>2017-09-17T15:48:26Z</time>
      </trkpt>
      <trkpt lat="44.04833" lon="7.76366">
        <ele>1691</ele>
        <time>2017-09-17T15:48:27Z</time>
      </trkpt>
      <trkpt lat="44.04833" lon="7.76366">
        <ele>1691</ele>
        <time>2017-09-17T15:48:28Z</time>
      </trkpt>
      <trkpt lat="44.04833" lon="7.76366">
        <ele>1691</ele>
        <time>2017-09-17T15:48:29Z</time>
      </trkpt>
      <trkpt lat="44.04833" lon="7.76366">
        <ele>1691</ele>
        <time>2017-09-17T15:48:30Z</time>
      </trkpt>
      <trkpt lat="44.04833" lon="7.76366">
        <ele>1691</ele>
        <time>2017-09-17T15:48:31Z</time>
      </trkpt>
      <trkpt lat="44.04833" lon="7.76366">
        <ele>1691</ele>
        <time>2017-09-17T15:48:32Z</time>
      </trkpt>
      <trkpt lat="44.04833" lon="7.76365">
        <ele>1691</ele>
        <time>2017-09-17T15:48:33Z</time>
      </trkpt>
      <trkpt lat="44.04833" lon="7.76365">
        <ele>1691</ele>
        <time>2017-09-17T15:48:34Z</time>
      </trkpt>
      <trkpt lat="44.04833" lon="7.76365">
        <ele>1691</ele>
        <time>2017-09-17T15:48:35Z</time>
      </trkpt>
      <trkpt lat="44.04833" lon="7.76365">
        <ele>1691</ele>
        <time>2017-09-17T15:48:36Z</time>
      </trkpt>
      <trkpt lat="44.04833" lon="7.76365">
        <ele>1691</ele>
        <time>2017-09-17T15:48:37Z</time>
      </trkpt>
      <trkpt lat="44.04833" lon="7.76365">
        <ele>1691</ele>
        <time>2017-09-17T15:48:38Z</time>
      </trkpt>
      <trkpt lat="44.04833" lon="7.76365">
        <ele>1691</ele>
        <time>2017-09-17T15:48:39Z</time>
      </trkpt>
      <trkpt lat="44.04833" lon="7.76365">
        <ele>1690</ele>
        <time>2017-09-17T15:48:40Z</time>
      </trkpt>
      <trkpt lat="44.04833" lon="7.76365">
        <ele>1690</ele>
        <time>2017-09-17T15:48:41Z</time>
      </trkpt>
      <trkpt lat="44.04833" lon="7.76365">
        <ele>1690</ele>
        <time>2017-09-17T15:48:42Z</time>
      </trkpt>
      <trkpt lat="44.04832" lon="7.76365">
        <ele>1690</ele>
        <time>2017-09-17T15:48:43Z</time>
      </trkpt>
      <trkpt lat="44.04832" lon="7.76364">
        <ele>1690</ele>
        <time>2017-09-17T15:48:44Z</time>
      </trkpt>
      <trkpt lat="44.04831" lon="7.76363">
        <ele>1690</ele>
        <time>2017-09-17T15:48:45Z</time>
      </trkpt>
      <trkpt lat="44.04829" lon="7.76361">
        <ele>1690</ele>
        <time>2017-09-17T15:48:46Z</time>
      </trkpt>
      <trkpt lat="44.04828" lon="7.76358">
        <ele>1690</ele>
        <time>2017-09-17T15:48:47Z</time>
      </trkpt>
      <trkpt lat="44.04826" lon="7.76355">
        <ele>1690</ele>
        <time>2017-09-17T15:48:48Z</time>
      </trkpt>
      <trkpt lat="44.04824" lon="7.76352">
        <ele>1690</ele>
        <time>2017-09-17T15:48:49Z</time>
      </trkpt>
      <trkpt lat="44.04821" lon="7.76349">
        <ele>1690</ele>
        <time>2017-09-17T15:48:50Z</time>
      </trkpt>
      <trkpt lat="44.04819" lon="7.76345">
        <ele>1690</ele>
        <time>2017-09-17T15:48:51Z</time>
      </trkpt>
      <trkpt lat="44.04816" lon="7.76342">
        <ele>1690</ele>
        <time>2017-09-17T15:48:52Z</time>
      </trkpt>
      <trkpt lat="44.04813" lon="7.76338">
        <ele>1689</ele>
        <time>2017-09-17T15:48:53Z</time>
      </trkpt>
      <trkpt lat="44.0481" lon="7.76333">
        <ele>1689</ele>
        <time>2017-09-17T15:48:54Z</time>
      </trkpt>
      <trkpt lat="44.04807" lon="7.76328">
        <ele>1689</ele>
        <time>2017-09-17T15:48:55Z</time>
      </trkpt>
      <trkpt lat="44.04804" lon="7.76323">
        <ele>1689</ele>
        <time>2017-09-17T15:48:56Z</time>
      </trkpt>
      <trkpt lat="44.048" lon="7.76319">
        <ele>1689</ele>
        <time>2017-09-17T15:48:57Z</time>
      </trkpt>
      <trkpt lat="44.04795" lon="7.76315">
        <ele>1689</ele>
        <time>2017-09-17T15:48:58Z</time>
      </trkpt>
      <trkpt lat="44.0479" lon="7.76311">
        <ele>1689</ele>
        <time>2017-09-17T15:48:59Z</time>
      </trkpt>
      <trkpt lat="44.04785" lon="7.76308">
        <ele>1688</ele>
        <time>2017-09-17T15:49:00Z</time>
      </trkpt>
      <trkpt lat="44.0478" lon="7.76305">
        <ele>1688</ele>
        <time>2017-09-17T15:49:01Z</time>
      </trkpt>
      <trkpt lat="44.04775" lon="7.76302">
        <ele>1688</ele>
        <time>2017-09-17T15:49:02Z</time>
      </trkpt>
      <trkpt lat="44.04771" lon="7.76298">
        <ele>1688</ele>
        <time>2017-09-17T15:49:03Z</time>
      </trkpt>
      <trkpt lat="44.04767" lon="7.76292">
        <ele>1688</ele>
        <time>2017-09-17T15:49:04Z</time>
      </trkpt>
      <trkpt lat="44.04764" lon="7.76286">
        <ele>1688</ele>
        <time>2017-09-17T15:49:05Z</time>
      </trkpt>
      <trkpt lat="44.04762" lon="7.76279">
        <ele>1687</ele>
        <time>2017-09-17T15:49:06Z</time>
      </trkpt>
      <trkpt lat="44.04762" lon="7.76272">
        <ele>1687</ele>
        <time>2017-09-17T15:49:07Z</time>
      </trkpt>
      <trkpt lat="44.04763" lon="7.76264">
        <ele>1687</ele>
        <time>2017-09-17T15:49:08Z</time>
      </trkpt>
      <trkpt lat="44.04765" lon="7.76257">
        <ele>1686</ele>
        <time>2017-09-17T15:49:09Z</time>
      </trkpt>
      <trkpt lat="44.04768" lon="7.76251">
        <ele>1686</ele>
        <time>2017-09-17T15:49:10Z</time>
      </trkpt>
      <trkpt lat="44.04772" lon="7.76245">
        <ele>1685</ele>
        <time>2017-09-17T15:49:11Z</time>
      </trkpt>
      <trkpt lat="44.04776" lon="7.7624">
        <ele>1685</ele>
        <time>2017-09-17T15:49:12Z</time>
      </trkpt>
      <trkpt lat="44.04781" lon="7.76236">
        <ele>1684</ele>
        <time>2017-09-17T15:49:13Z</time>
      </trkpt>
      <trkpt lat="44.04787" lon="7.76231">
        <ele>1683</ele>
        <time>2017-09-17T15:49:14Z</time>
      </trkpt>
      <trkpt lat="44.04792" lon="7.76226">
        <ele>1683</ele>
        <time>2017-09-17T15:49:15Z</time>
      </trkpt>
      <trkpt lat="44.04797" lon="7.76219">
        <ele>1682</ele>
        <time>2017-09-17T15:49:16Z</time>
      </trkpt>
      <trkpt lat="44.04801" lon="7.76213">
        <ele>1681</ele>
        <time>2017-09-17T15:49:17Z</time>
      </trkpt>
      <trkpt lat="44.04805" lon="7.76206">
        <ele>1681</ele>
        <time>2017-09-17T15:49:18Z</time>
      </trkpt>
      <trkpt lat="44.04807" lon="7.76201">
        <ele>1680</ele>
        <time>2017-09-17T15:49:19Z</time>
      </trkpt>
      <trkpt lat="44.0481" lon="7.76196">
        <ele>1680</ele>
        <time>2017-09-17T15:49:20Z</time>
      </trkpt>
      <trkpt lat="44.04813" lon="7.76191">
        <ele>1679</ele>
        <time>2017-09-17T15:49:21Z</time>
      </trkpt>
      <trkpt lat="44.04816" lon="7.76185">
        <ele>1679</ele>
        <time>2017-09-17T15:49:22Z</time>
      </trkpt>
      <trkpt lat="44.04819" lon="7.76179">
        <ele>1678</ele>
        <time>2017-09-17T15:49:23Z</time>
      </trkpt>
      <trkpt lat="44.04822" lon="7.76173">
        <ele>1678</ele>
        <time>2017-09-17T15:49:24Z</time>
      </trkpt>
      <trkpt lat="44.04825" lon="7.76166">
        <ele>1677</ele>
        <time>2017-09-17T15:49:25Z</time>
      </trkpt>
      <trkpt lat="44.04829" lon="7.76158">
        <ele>1677</ele>
        <time>2017-09-17T15:49:26Z</time>
      </trkpt>
      <trkpt lat="44.04832" lon="7.76151">
        <ele>1676</ele>
        <time>2017-09-17T15:49:27Z</time>
      </trkpt>
      <trkpt lat="44.04835" lon="7.76143">
        <ele>1676</ele>
        <time>2017-09-17T15:49:28Z</time>
      </trkpt>
      <trkpt lat="44.04838" lon="7.76135">
        <ele>1675</ele>
        <time>2017-09-17T15:49:29Z</time>
      </trkpt>
      <trkpt lat="44.04841" lon="7.76126">
        <ele>1675</ele>
        <time>2017-09-17T15:49:30Z</time>
      </trkpt>
      <trkpt lat="44.04843" lon="7.76118">
        <ele>1674</ele>
        <time>2017-09-17T15:49:31Z</time>
      </trkpt>
      <trkpt lat="44.04846" lon="7.7611">
        <ele>1673</ele>
        <time>2017-09-17T15:49:32Z</time>
      </trkpt>
      <trkpt lat="44.0485" lon="7.76104">
        <ele>1673</ele>
        <time>2017-09-17T15:49:33Z</time>
      </trkpt>
      <trkpt lat="44.04855" lon="7.76098">
        <ele>1672</ele>
        <time>2017-09-17T15:49:34Z</time>
      </trkpt>
      <trkpt lat="44.04861" lon="7.76093">
        <ele>1671</ele>
        <time>2017-09-17T15:49:35Z</time>
      </trkpt>
      <trkpt lat="44.04866" lon="7.76088">
        <ele>1671</ele>
        <time>2017-09-17T15:49:36Z</time>
      </trkpt>
      <trkpt lat="44.04871" lon="7.76081">
        <ele>1670</ele>
        <time>2017-09-17T15:49:37Z</time>
      </trkpt>
      <trkpt lat="44.04874" lon="7.76073">
        <ele>1669</ele>
        <time>2017-09-17T15:49:38Z</time>
      </trkpt>
      <trkpt lat="44.04876" lon="7.76064">
        <ele>1669</ele>
        <time>2017-09-17T15:49:39Z</time>
      </trkpt>
      <trkpt lat="44.04879" lon="7.76055">
        <ele>1668</ele>
        <time>2017-09-17T15:49:40Z</time>
      </trkpt>
      <trkpt lat="44.04882" lon="7.76046">
        <ele>1667</ele>
        <time>2017-09-17T15:49:41Z</time>
      </trkpt>
      <trkpt lat="44.04886" lon="7.76037">
        <ele>1667</ele>
        <time>2017-09-17T15:49:42Z</time>
      </trkpt>
      <trkpt lat="44.04889" lon="7.76028">
        <ele>1666</ele>
        <time>2017-09-17T15:49:43Z</time>
      </trkpt>
      <trkpt lat="44.04892" lon="7.76019">
        <ele>1665</ele>
        <time>2017-09-17T15:49:44Z</time>
      </trkpt>
      <trkpt lat="44.04893" lon="7.7601">
        <ele>1664</ele>
        <time>2017-09-17T15:49:45Z</time>
      </trkpt>
      <trkpt lat="44.04894" lon="7.76001">
        <ele>1664</ele>
        <time>2017-09-17T15:49:46Z</time>
      </trkpt>
      <trkpt lat="44.04894" lon="7.75993">
        <ele>1663</ele>
        <time>2017-09-17T15:49:47Z</time>
      </trkpt>
      <trkpt lat="44.04893" lon="7.75986">
        <ele>1663</ele>
        <time>2017-09-17T15:49:48Z</time>
      </trkpt>
      <trkpt lat="44.04893" lon="7.7598">
        <ele>1662</ele>
        <time>2017-09-17T15:49:49Z</time>
      </trkpt>
      <trkpt lat="44.04893" lon="7.75974">
        <ele>1662</ele>
        <time>2017-09-17T15:49:50Z</time>
      </trkpt>
      <trkpt lat="44.04893" lon="7.75967">
        <ele>1662</ele>
        <time>2017-09-17T15:49:51Z</time>
      </trkpt>
      <trkpt lat="44.04894" lon="7.75961">
        <ele>1661</ele>
        <time>2017-09-17T15:49:52Z</time>
      </trkpt>
      <trkpt lat="44.04895" lon="7.75954">
        <ele>1661</ele>
        <time>2017-09-17T15:49:53Z</time>
      </trkpt>
      <trkpt lat="44.04897" lon="7.75947">
        <ele>1661</ele>
        <time>2017-09-17T15:49:54Z</time>
      </trkpt>
      <trkpt lat="44.04901" lon="7.75941">
        <ele>1660</ele>
        <time>2017-09-17T15:49:55Z</time>
      </trkpt>
      <trkpt lat="44.04905" lon="7.75934">
        <ele>1660</ele>
        <time>2017-09-17T15:49:56Z</time>
      </trkpt>
      <trkpt lat="44.04909" lon="7.75926">
        <ele>1660</ele>
        <time>2017-09-17T15:49:57Z</time>
      </trkpt>
      <trkpt lat="44.04912" lon="7.75918">
        <ele>1659</ele>
        <time>2017-09-17T15:49:58Z</time>
      </trkpt>
      <trkpt lat="44.04915" lon="7.75908">
        <ele>1659</ele>
        <time>2017-09-17T15:49:59Z</time>
      </trkpt>
      <trkpt lat="44.04918" lon="7.75899">
        <ele>1658</ele>
        <time>2017-09-17T15:50:00Z</time>
      </trkpt>
      <trkpt lat="44.0492" lon="7.75889">
        <ele>1658</ele>
        <time>2017-09-17T15:50:01Z</time>
      </trkpt>
      <trkpt lat="44.04922" lon="7.7588">
        <ele>1657</ele>
        <time>2017-09-17T15:50:02Z</time>
      </trkpt>
      <trkpt lat="44.04926" lon="7.7587">
        <ele>1656</ele>
        <time>2017-09-17T15:50:03Z</time>
      </trkpt>
      <trkpt lat="44.04929" lon="7.75862">
        <ele>1655</ele>
        <time>2017-09-17T15:50:04Z</time>
      </trkpt>
      <trkpt lat="44.04933" lon="7.75855">
        <ele>1654</ele>
        <time>2017-09-17T15:50:05Z</time>
      </trkpt>
      <trkpt lat="44.04936" lon="7.75846">
        <ele>1654</ele>
        <time>2017-09-17T15:50:06Z</time>
      </trkpt>
      <trkpt lat="44.04939" lon="7.75837">
        <ele>1653</ele>
        <time>2017-09-17T15:50:07Z</time>
      </trkpt>
      <trkpt lat="44.04941" lon="7.75827">
        <ele>1652</ele>
        <time>2017-09-17T15:50:08Z</time>
      </trkpt>
      <trkpt lat="44.04942" lon="7.75816">
        <ele>1651</ele>
        <time>2017-09-17T15:50:09Z</time>
      </trkpt>
      <trkpt lat="44.04944" lon="7.75805">
        <ele>1650</ele>
        <time>2017-09-17T15:50:10Z</time>
      </trkpt>
      <trkpt lat="44.04946" lon="7.75794">
        <ele>1649</ele>
        <time>2017-09-17T15:50:11Z</time>
      </trkpt>
      <trkpt lat="44.04947" lon="7.75784">
        <ele>1648</ele>
        <time>2017-09-17T15:50:12Z</time>
      </trkpt>
      <trkpt lat="44.04947" lon="7.75773">
        <ele>1648</ele>
        <time>2017-09-17T15:50:13Z</time>
      </trkpt>
      <trkpt lat="44.04945" lon="7.75761">
        <ele>1647</ele>
        <time>2017-09-17T15:50:14Z</time>
      </trkpt>
      <trkpt lat="44.04943" lon="7.7575">
        <ele>1646</ele>
        <time>2017-09-17T15:50:15Z</time>
      </trkpt>
      <trkpt lat="44.04941" lon="7.75738">
        <ele>1645</ele>
        <time>2017-09-17T15:50:16Z</time>
      </trkpt>
      <trkpt lat="44.04938" lon="7.75727">
        <ele>1644</ele>
        <time>2017-09-17T15:50:17Z</time>
      </trkpt>
      <trkpt lat="44.04936" lon="7.75715">
        <ele>1643</ele>
        <time>2017-09-17T15:50:18Z</time>
      </trkpt>
      <trkpt lat="44.04934" lon="7.75704">
        <ele>1642</ele>
        <time>2017-09-17T15:50:19Z</time>
      </trkpt>
      <trkpt lat="44.04933" lon="7.75692">
        <ele>1641</ele>
        <time>2017-09-17T15:50:20Z</time>
      </trkpt>
      <trkpt lat="44.04931" lon="7.75681">
        <ele>1640</ele>
        <time>2017-09-17T15:50:21Z</time>
      </trkpt>
      <trkpt lat="44.04929" lon="7.75669">
        <ele>1640</ele>
        <time>2017-09-17T15:50:22Z</time>
      </trkpt>
      <trkpt lat="44.04928" lon="7.75658">
        <ele>1639</ele>
        <time>2017-09-17T15:50:23Z</time>
      </trkpt>
      <trkpt lat="44.04927" lon="7.75648">
        <ele>1638</ele>
        <time>2017-09-17T15:50:24Z</time>
      </trkpt>
      <trkpt lat="44.04926" lon="7.75638">
        <ele>1638</ele>
        <time>2017-09-17T15:50:25Z</time>
      </trkpt>
      <trkpt lat="44.04925" lon="7.75629">
        <ele>1637</ele>
        <time>2017-09-17T15:50:26Z</time>
      </trkpt>
      <trkpt lat="44.04925" lon="7.75621">
        <ele>1637</ele>
        <time>2017-09-17T15:50:27Z</time>
      </trkpt>
      <trkpt lat="44.04924" lon="7.75612">
        <ele>1637</ele>
        <time>2017-09-17T15:50:28Z</time>
      </trkpt>
      <trkpt lat="44.04922" lon="7.75603">
        <ele>1636</ele>
        <time>2017-09-17T15:50:29Z</time>
      </trkpt>
      <trkpt lat="44.04919" lon="7.75594">
        <ele>1636</ele>
        <time>2017-09-17T15:50:30Z</time>
      </trkpt>
      <trkpt lat="44.04915" lon="7.75586">
        <ele>1635</ele>
        <time>2017-09-17T15:50:31Z</time>
      </trkpt>
      <trkpt lat="44.0491" lon="7.75578">
        <ele>1635</ele>
        <time>2017-09-17T15:50:32Z</time>
      </trkpt>
      <trkpt lat="44.04905" lon="7.75569">
        <ele>1635</ele>
        <time>2017-09-17T15:50:33Z</time>
      </trkpt>
      <trkpt lat="44.049" lon="7.7556">
        <ele>1634</ele>
        <time>2017-09-17T15:50:34Z</time>
      </trkpt>
      <trkpt lat="44.04895" lon="7.75551">
        <ele>1634</ele>
        <time>2017-09-17T15:50:35Z</time>
      </trkpt>
      <trkpt lat="44.04891" lon="7.75541">
        <ele>1634</ele>
        <time>2017-09-17T15:50:36Z</time>
      </trkpt>
      <trkpt lat="44.04886" lon="7.75531">
        <ele>1633</ele>
        <time>2017-09-17T15:50:37Z</time>
      </trkpt>
      <trkpt lat="44.04881" lon="7.75522">
        <ele>1633</ele>
        <time>2017-09-17T15:50:38Z</time>
      </trkpt>
      <trkpt lat="44.04876" lon="7.75512">
        <ele>1632</ele>
        <time>2017-09-17T15:50:39Z</time>
      </trkpt>
      <trkpt lat="44.0487" lon="7.75502">
        <ele>1632</ele>
        <time>2017-09-17T15:50:40Z</time>
      </trkpt>
      <trkpt lat="44.04865" lon="7.75492">
        <ele>1631</ele>
        <time>2017-09-17T15:50:41Z</time>
      </trkpt>
      <trkpt lat="44.0486" lon="7.75483">
        <ele>1630</ele>
        <time>2017-09-17T15:50:42Z</time>
      </trkpt>
      <trkpt lat="44.04855" lon="7.75472">
        <ele>1630</ele>
        <time>2017-09-17T15:50:43Z</time>
      </trkpt>
      <trkpt lat="44.0485" lon="7.75463">
        <ele>1629</ele>
        <time>2017-09-17T15:50:44Z</time>
      </trkpt>
      <trkpt lat="44.04845" lon="7.75453">
        <ele>1628</ele>
        <time>2017-09-17T15:50:45Z</time>
      </trkpt>
      <trkpt lat="44.0484" lon="7.75445">
        <ele>1627</ele>
        <time>2017-09-17T15:50:46Z</time>
      </trkpt>
      <trkpt lat="44.04835" lon="7.75438">
        <ele>1627</ele>
        <time>2017-09-17T15:50:47Z</time>
      </trkpt>
      <trkpt lat="44.0483" lon="7.75432">
        <ele>1626</ele>
        <time>2017-09-17T15:50:48Z</time>
      </trkpt>
      <trkpt lat="44.04823" lon="7.75426">
        <ele>1626</ele>
        <time>2017-09-17T15:50:49Z</time>
      </trkpt>
      <trkpt lat="44.04816" lon="7.75422">
        <ele>1625</ele>
        <time>2017-09-17T15:50:50Z</time>
      </trkpt>
      <trkpt lat="44.04808" lon="7.75421">
        <ele>1625</ele>
        <time>2017-09-17T15:50:51Z</time>
      </trkpt>
      <trkpt lat="44.048" lon="7.75423">
        <ele>1624</ele>
        <time>2017-09-17T15:50:52Z</time>
      </trkpt>
      <trkpt lat="44.04791" lon="7.75424">
        <ele>1624</ele>
        <time>2017-09-17T15:50:53Z</time>
      </trkpt>
      <trkpt lat="44.04783" lon="7.75426">
        <ele>1623</ele>
        <time>2017-09-17T15:50:54Z</time>
      </trkpt>
      <trkpt lat="44.04774" lon="7.75427">
        <ele>1623</ele>
        <time>2017-09-17T15:50:55Z</time>
      </trkpt>
      <trkpt lat="44.04764" lon="7.75428">
        <ele>1622</ele>
        <time>2017-09-17T15:50:56Z</time>
      </trkpt>
      <trkpt lat="44.04756" lon="7.75428">
        <ele>1621</ele>
        <time>2017-09-17T15:50:57Z</time>
      </trkpt>
      <trkpt lat="44.04747" lon="7.75429">
        <ele>1619</ele>
        <time>2017-09-17T15:50:58Z</time>
      </trkpt>
      <trkpt lat="44.04739" lon="7.75429">
        <ele>1618</ele>
        <time>2017-09-17T15:50:59Z</time>
      </trkpt>
      <trkpt lat="44.04731" lon="7.75429">
        <ele>1617</ele>
        <time>2017-09-17T15:51:00Z</time>
      </trkpt>
      <trkpt lat="44.04724" lon="7.75429">
        <ele>1616</ele>
        <time>2017-09-17T15:51:01Z</time>
      </trkpt>
      <trkpt lat="44.04716" lon="7.75429">
        <ele>1615</ele>
        <time>2017-09-17T15:51:02Z</time>
      </trkpt>
      <trkpt lat="44.04709" lon="7.75429">
        <ele>1614</ele>
        <time>2017-09-17T15:51:03Z</time>
      </trkpt>
      <trkpt lat="44.04702" lon="7.75431">
        <ele>1613</ele>
        <time>2017-09-17T15:51:04Z</time>
      </trkpt>
      <trkpt lat="44.04694" lon="7.75432">
        <ele>1612</ele>
        <time>2017-09-17T15:51:05Z</time>
      </trkpt>
      <trkpt lat="44.04686" lon="7.75434">
        <ele>1611</ele>
        <time>2017-09-17T15:51:06Z</time>
      </trkpt>
      <trkpt lat="44.04679" lon="7.75436">
        <ele>1610</ele>
        <time>2017-09-17T15:51:07Z</time>
      </trkpt>
      <trkpt lat="44.04671" lon="7.75439">
        <ele>1609</ele>
        <time>2017-09-17T15:51:08Z</time>
      </trkpt>
      <trkpt lat="44.04663" lon="7.75441">
        <ele>1607</ele>
        <time>2017-09-17T15:51:09Z</time>
      </trkpt>
      <trkpt lat="44.04655" lon="7.7544">
        <ele>1607</ele>
        <time>2017-09-17T15:51:10Z</time>
      </trkpt>
      <trkpt lat="44.04648" lon="7.75438">
        <ele>1606</ele>
        <time>2017-09-17T15:51:11Z</time>
      </trkpt>
      <trkpt lat="44.04642" lon="7.75433">
        <ele>1605</ele>
        <time>2017-09-17T15:51:12Z</time>
      </trkpt>
      <trkpt lat="44.04636" lon="7.75428">
        <ele>1604</ele>
        <time>2017-09-17T15:51:13Z</time>
      </trkpt>
      <trkpt lat="44.0463" lon="7.75426">
        <ele>1603</ele>
        <time>2017-09-17T15:51:14Z</time>
      </trkpt>
      <trkpt lat="44.04623" lon="7.75427">
        <ele>1602</ele>
        <time>2017-09-17T15:51:15Z</time>
      </trkpt>
      <trkpt lat="44.04617" lon="7.7543">
        <ele>1601</ele>
        <time>2017-09-17T15:51:16Z</time>
      </trkpt>
      <trkpt lat="44.04611" lon="7.75434">
        <ele>1600</ele>
        <time>2017-09-17T15:51:17Z</time>
      </trkpt>
      <trkpt lat="44.04604" lon="7.75439">
        <ele>1599</ele>
        <time>2017-09-17T15:51:18Z</time>
      </trkpt>
      <trkpt lat="44.04597" lon="7.75443">
        <ele>1598</ele>
        <time>2017-09-17T15:51:19Z</time>
      </trkpt>
      <trkpt lat="44.0459" lon="7.75446">
        <ele>1597</ele>
        <time>2017-09-17T15:51:20Z</time>
      </trkpt>
      <trkpt lat="44.04582" lon="7.75446">
        <ele>1596</ele>
        <time>2017-09-17T15:51:21Z</time>
      </trkpt>
      <trkpt lat="44.04575" lon="7.75445">
        <ele>1595</ele>
        <time>2017-09-17T15:51:22Z</time>
      </trkpt>
      <trkpt lat="44.04567" lon="7.75441">
        <ele>1594</ele>
        <time>2017-09-17T15:51:23Z</time>
      </trkpt>
      <trkpt lat="44.0456" lon="7.75437">
        <ele>1593</ele>
        <time>2017-09-17T15:51:24Z</time>
      </trkpt>
      <trkpt lat="44.04553" lon="7.75432">
        <ele>1592</ele>
        <time>2017-09-17T15:51:25Z</time>
      </trkpt>
      <trkpt lat="44.04548" lon="7.75425">
        <ele>1591</ele>
        <time>2017-09-17T15:51:26Z</time>
      </trkpt>
      <trkpt lat="44.04543" lon="7.75417">
        <ele>1591</ele>
        <time>2017-09-17T15:51:27Z</time>
      </trkpt>
      <trkpt lat="44.04539" lon="7.75408">
        <ele>1590</ele>
        <time>2017-09-17T15:51:28Z</time>
      </trkpt>
      <trkpt lat="44.04535" lon="7.754">
        <ele>1589</ele>
        <time>2017-09-17T15:51:29Z</time>
      </trkpt>
      <trkpt lat="44.04533" lon="7.75392">
        <ele>1589</ele>
        <time>2017-09-17T15:51:30Z</time>
      </trkpt>
      <trkpt lat="44.04533" lon="7.75383">
        <ele>1588</ele>
        <time>2017-09-17T15:51:31Z</time>
      </trkpt>
      <trkpt lat="44.04536" lon="7.75375">
        <ele>1588</ele>
        <time>2017-09-17T15:51:32Z</time>
      </trkpt>
      <trkpt lat="44.0454" lon="7.75368">
        <ele>1588</ele>
        <time>2017-09-17T15:51:33Z</time>
      </trkpt>
      <trkpt lat="44.04545" lon="7.75362">
        <ele>1587</ele>
        <time>2017-09-17T15:51:34Z</time>
      </trkpt>
      <trkpt lat="44.04551" lon="7.75357">
        <ele>1587</ele>
        <time>2017-09-17T15:51:35Z</time>
      </trkpt>
      <trkpt lat="44.04555" lon="7.7535">
        <ele>1587</ele>
        <time>2017-09-17T15:51:36Z</time>
      </trkpt>
      <trkpt lat="44.0456" lon="7.75342">
        <ele>1586</ele>
        <time>2017-09-17T15:51:37Z</time>
      </trkpt>
      <trkpt lat="44.04563" lon="7.75332">
        <ele>1585</ele>
        <time>2017-09-17T15:51:38Z</time>
      </trkpt>
      <trkpt lat="44.04565" lon="7.75322">
        <ele>1585</ele>
        <time>2017-09-17T15:51:39Z</time>
      </trkpt>
      <trkpt lat="44.04565" lon="7.75311">
        <ele>1584</ele>
        <time>2017-09-17T15:51:40Z</time>
      </trkpt>
      <trkpt lat="44.04565" lon="7.753">
        <ele>1583</ele>
        <time>2017-09-17T15:51:41Z</time>
      </trkpt>
      <trkpt lat="44.04565" lon="7.75288">
        <ele>1583</ele>
        <time>2017-09-17T15:51:42Z</time>
      </trkpt>
      <trkpt lat="44.04566" lon="7.75277">
        <ele>1582</ele>
        <time>2017-09-17T15:51:43Z</time>
      </trkpt>
      <trkpt lat="44.04567" lon="7.75266">
        <ele>1581</ele>
        <time>2017-09-17T15:51:44Z</time>
      </trkpt>
      <trkpt lat="44.04566" lon="7.75255">
        <ele>1581</ele>
        <time>2017-09-17T15:51:45Z</time>
      </trkpt>
      <trkpt lat="44.04564" lon="7.75245">
        <ele>1580</ele>
        <time>2017-09-17T15:51:46Z</time>
      </trkpt>
      <trkpt lat="44.0456" lon="7.75237">
        <ele>1579</ele>
        <time>2017-09-17T15:51:47Z</time>
      </trkpt>
      <trkpt lat="44.04555" lon="7.7523">
        <ele>1579</ele>
        <time>2017-09-17T15:51:48Z</time>
      </trkpt>
      <trkpt lat="44.04551" lon="7.75224">
        <ele>1578</ele>
        <time>2017-09-17T15:51:49Z</time>
      </trkpt>
      <trkpt lat="44.04547" lon="7.75217">
        <ele>1578</ele>
        <time>2017-09-17T15:51:50Z</time>
      </trkpt>
      <trkpt lat="44.04545" lon="7.7521">
        <ele>1577</ele>
        <time>2017-09-17T15:51:51Z</time>
      </trkpt>
      <trkpt lat="44.04543" lon="7.75202">
        <ele>1577</ele>
        <time>2017-09-17T15:51:52Z</time>
      </trkpt>
      <trkpt lat="44.04539" lon="7.75194">
        <ele>1576</ele>
        <time>2017-09-17T15:51:53Z</time>
      </trkpt>
      <trkpt lat="44.04534" lon="7.75187">
        <ele>1576</ele>
        <time>2017-09-17T15:51:54Z</time>
      </trkpt>
      <trkpt lat="44.0453" lon="7.75179">
        <ele>1576</ele>
        <time>2017-09-17T15:51:55Z</time>
      </trkpt>
      <trkpt lat="44.04527" lon="7.75171">
        <ele>1575</ele>
        <time>2017-09-17T15:51:56Z</time>
      </trkpt>
      <trkpt lat="44.04524" lon="7.75161">
        <ele>1575</ele>
        <time>2017-09-17T15:51:57Z</time>
      </trkpt>
      <trkpt lat="44.04522" lon="7.75152">
        <ele>1574</ele>
        <time>2017-09-17T15:51:58Z</time>
      </trkpt>
      <trkpt lat="44.0452" lon="7.75143">
        <ele>1574</ele>
        <time>2017-09-17T15:51:59Z</time>
      </trkpt>
      <trkpt lat="44.04519" lon="7.75134">
        <ele>1573</ele>
        <time>2017-09-17T15:52:00Z</time>
      </trkpt>
      <trkpt lat="44.04519" lon="7.75125">
        <ele>1573</ele>
        <time>2017-09-17T15:52:01Z</time>
      </trkpt>
      <trkpt lat="44.0452" lon="7.75117">
        <ele>1572</ele>
        <time>2017-09-17T15:52:02Z</time>
      </trkpt>
      <trkpt lat="44.04521" lon="7.75107">
        <ele>1571</ele>
        <time>2017-09-17T15:52:03Z</time>
      </trkpt>
      <trkpt lat="44.04522" lon="7.75098">
        <ele>1571</ele>
        <time>2017-09-17T15:52:04Z</time>
      </trkpt>
      <trkpt lat="44.04524" lon="7.75089">
        <ele>1570</ele>
        <time>2017-09-17T15:52:05Z</time>
      </trkpt>
      <trkpt lat="44.04526" lon="7.7508">
        <ele>1570</ele>
        <time>2017-09-17T15:52:06Z</time>
      </trkpt>
      <trkpt lat="44.04528" lon="7.75071">
        <ele>1569</ele>
        <time>2017-09-17T15:52:07Z</time>
      </trkpt>
      <trkpt lat="44.0453" lon="7.75061">
        <ele>1568</ele>
        <time>2017-09-17T15:52:08Z</time>
      </trkpt>
      <trkpt lat="44.04531" lon="7.75051">
        <ele>1568</ele>
        <time>2017-09-17T15:52:09Z</time>
      </trkpt>
      <trkpt lat="44.04533" lon="7.75041">
        <ele>1567</ele>
        <time>2017-09-17T15:52:10Z</time>
      </trkpt>
      <trkpt lat="44.04533" lon="7.75032">
        <ele>1567</ele>
        <time>2017-09-17T15:52:11Z</time>
      </trkpt>
      <trkpt lat="44.04532" lon="7.75023">
        <ele>1566</ele>
        <time>2017-09-17T15:52:12Z</time>
      </trkpt>
      <trkpt lat="44.04529" lon="7.75016">
        <ele>1566</ele>
        <time>2017-09-17T15:52:13Z</time>
      </trkpt>
      <trkpt lat="44.04525" lon="7.7501">
        <ele>1565</ele>
        <time>2017-09-17T15:52:14Z</time>
      </trkpt>
      <trkpt lat="44.04519" lon="7.75007">
        <ele>1565</ele>
        <time>2017-09-17T15:52:15Z</time>
      </trkpt>
      <trkpt lat="44.04513" lon="7.75004">
        <ele>1565</ele>
        <time>2017-09-17T15:52:16Z</time>
      </trkpt>
      <trkpt lat="44.04506" lon="7.75003">
        <ele>1564</ele>
        <time>2017-09-17T15:52:17Z</time>
      </trkpt>
      <trkpt lat="44.04499" lon="7.75002">
        <ele>1564</ele>
        <time>2017-09-17T15:52:18Z</time>
      </trkpt>
      <trkpt lat="44.04491" lon="7.75001">
        <ele>1564</ele>
        <time>2017-09-17T15:52:19Z</time>
      </trkpt>
      <trkpt lat="44.04483" lon="7.75001">
        <ele>1563</ele>
        <time>2017-09-17T15:52:20Z</time>
      </trkpt>
      <trkpt lat="44.04476" lon="7.74999">
        <ele>1563</ele>
        <time>2017-09-17T15:52:21Z</time>
      </trkpt>
      <trkpt lat="44.0447" lon="7.74996">
        <ele>1562</ele>
        <time>2017-09-17T15:52:22Z</time>
      </trkpt>
      <trkpt lat="44.04464" lon="7.74989">
        <ele>1562</ele>
        <time>2017-09-17T15:52:23Z</time>
      </trkpt>
      <trkpt lat="44.04459" lon="7.74981">
        <ele>1561</ele>
        <time>2017-09-17T15:52:24Z</time>
      </trkpt>
      <trkpt lat="44.04454" lon="7.74971">
        <ele>1560</ele>
        <time>2017-09-17T15:52:25Z</time>
      </trkpt>
      <trkpt lat="44.04448" lon="7.74962">
        <ele>1559</ele>
        <time>2017-09-17T15:52:26Z</time>
      </trkpt>
      <trkpt lat="44.04442" lon="7.74953">
        <ele>1557</ele>
        <time>2017-09-17T15:52:27Z</time>
      </trkpt>
      <trkpt lat="44.04437" lon="7.74943">
        <ele>1556</ele>
        <time>2017-09-17T15:52:28Z</time>
      </trkpt>
      <trkpt lat="44.0443" lon="7.74935">
        <ele>1555</ele>
        <time>2017-09-17T15:52:29Z</time>
      </trkpt>
      <trkpt lat="44.04424" lon="7.74926">
        <ele>1554</ele>
        <time>2017-09-17T15:52:30Z</time>
      </trkpt>
      <trkpt lat="44.04417" lon="7.74917">
        <ele>1553</ele>
        <time>2017-09-17T15:52:31Z</time>
      </trkpt>
      <trkpt lat="44.04411" lon="7.74909">
        <ele>1552</ele>
        <time>2017-09-17T15:52:32Z</time>
      </trkpt>
      <trkpt lat="44.04405" lon="7.74901">
        <ele>1551</ele>
        <time>2017-09-17T15:52:33Z</time>
      </trkpt>
      <trkpt lat="44.044" lon="7.74895">
        <ele>1550</ele>
        <time>2017-09-17T15:52:34Z</time>
      </trkpt>
      <trkpt lat="44.04393" lon="7.7489">
        <ele>1549</ele>
        <time>2017-09-17T15:52:35Z</time>
      </trkpt>
      <trkpt lat="44.04386" lon="7.74886">
        <ele>1548</ele>
        <time>2017-09-17T15:52:36Z</time>
      </trkpt>
      <trkpt lat="44.04379" lon="7.74884">
        <ele>1547</ele>
        <time>2017-09-17T15:52:37Z</time>
      </trkpt>
      <trkpt lat="44.04371" lon="7.74882">
        <ele>1546</ele>
        <time>2017-09-17T15:52:38Z</time>
      </trkpt>
      <trkpt lat="44.04364" lon="7.74879">
        <ele>1545</ele>
        <time>2017-09-17T15:52:39Z</time>
      </trkpt>
      <trkpt lat="44.04356" lon="7.74876">
        <ele>1544</ele>
        <time>2017-09-17T15:52:40Z</time>
      </trkpt>
      <trkpt lat="44.04348" lon="7.74874">
        <ele>1543</ele>
        <time>2017-09-17T15:52:41Z</time>
      </trkpt>
      <trkpt lat="44.0434" lon="7.74873">
        <ele>1542</ele>
        <time>2017-09-17T15:52:42Z</time>
      </trkpt>
      <trkpt lat="44.04334" lon="7.74872">
        <ele>1541</ele>
        <time>2017-09-17T15:52:43Z</time>
      </trkpt>
      <trkpt lat="44.04329" lon="7.74869">
        <ele>1540</ele>
        <time>2017-09-17T15:52:44Z</time>
      </trkpt>
      <trkpt lat="44.04324" lon="7.74865">
        <ele>1539</ele>
        <time>2017-09-17T15:52:45Z</time>
      </trkpt>
      <trkpt lat="44.0432" lon="7.74858">
        <ele>1538</ele>
        <time>2017-09-17T15:52:46Z</time>
      </trkpt>
      <trkpt lat="44.04318" lon="7.74849">
        <ele>1537</ele>
        <time>2017-09-17T15:52:47Z</time>
      </trkpt>
      <trkpt lat="44.04315" lon="7.7484">
        <ele>1536</ele>
        <time>2017-09-17T15:52:48Z</time>
      </trkpt>
      <trkpt lat="44.04313" lon="7.74829">
        <ele>1535</ele>
        <time>2017-09-17T15:52:49Z</time>
      </trkpt>
      <trkpt lat="44.04312" lon="7.74818">
        <ele>1534</ele>
        <time>2017-09-17T15:52:50Z</time>
      </trkpt>
      <trkpt lat="44.04311" lon="7.74808">
        <ele>1533</ele>
        <time>2017-09-17T15:52:51Z</time>
      </trkpt>
      <trkpt lat="44.04309" lon="7.74797">
        <ele>1533</ele>
        <time>2017-09-17T15:52:52Z</time>
      </trkpt>
      <trkpt lat="44.04308" lon="7.74786">
        <ele>1532</ele>
        <time>2017-09-17T15:52:53Z</time>
      </trkpt>
      <trkpt lat="44.04307" lon="7.74774">
        <ele>1531</ele>
        <time>2017-09-17T15:52:54Z</time>
      </trkpt>
      <trkpt lat="44.04305" lon="7.74762">
        <ele>1530</ele>
        <time>2017-09-17T15:52:55Z</time>
      </trkpt>
      <trkpt lat="44.04303" lon="7.74751">
        <ele>1529</ele>
        <time>2017-09-17T15:52:56Z</time>
      </trkpt>
      <trkpt lat="44.04298" lon="7.74741">
        <ele>1528</ele>
        <time>2017-09-17T15:52:57Z</time>
      </trkpt>
      <trkpt lat="44.04292" lon="7.74732">
        <ele>1527</ele>
        <time>2017-09-17T15:52:58Z</time>
      </trkpt>
      <trkpt lat="44.04286" lon="7.74723">
        <ele>1526</ele>
        <time>2017-09-17T15:52:59Z</time>
      </trkpt>
      <trkpt lat="44.04279" lon="7.74714">
        <ele>1525</ele>
        <time>2017-09-17T15:53:00Z</time>
      </trkpt>
      <trkpt lat="44.04273" lon="7.74705">
        <ele>1524</ele>
        <time>2017-09-17T15:53:01Z</time>
      </trkpt>
      <trkpt lat="44.04266" lon="7.74699">
        <ele>1524</ele>
        <time>2017-09-17T15:53:02Z</time>
      </trkpt>
      <trkpt lat="44.04259" lon="7.74694">
        <ele>1523</ele>
        <time>2017-09-17T15:53:03Z</time>
      </trkpt>
      <trkpt lat="44.04254" lon="7.74688">
        <ele>1522</ele>
        <time>2017-09-17T15:53:04Z</time>
      </trkpt>
      <trkpt lat="44.04251" lon="7.74682">
        <ele>1521</ele>
        <time>2017-09-17T15:53:05Z</time>
      </trkpt>
      <trkpt lat="44.04249" lon="7.74673">
        <ele>1520</ele>
        <time>2017-09-17T15:53:06Z</time>
      </trkpt>
      <trkpt lat="44.0425" lon="7.74663">
        <ele>1520</ele>
        <time>2017-09-17T15:53:07Z</time>
      </trkpt>
      <trkpt lat="44.04251" lon="7.74653">
        <ele>1519</ele>
        <time>2017-09-17T15:53:08Z</time>
      </trkpt>
      <trkpt lat="44.04253" lon="7.74643">
        <ele>1518</ele>
        <time>2017-09-17T15:53:09Z</time>
      </trkpt>
      <trkpt lat="44.04253" lon="7.74632">
        <ele>1517</ele>
        <time>2017-09-17T15:53:10Z</time>
      </trkpt>
      <trkpt lat="44.04253" lon="7.74621">
        <ele>1516</ele>
        <time>2017-09-17T15:53:11Z</time>
      </trkpt>
      <trkpt lat="44.04251" lon="7.7461">
        <ele>1515</ele>
        <time>2017-09-17T15:53:12Z</time>
      </trkpt>
      <trkpt lat="44.04248" lon="7.74599">
        <ele>1515</ele>
        <time>2017-09-17T15:53:13Z</time>
      </trkpt>
      <trkpt lat="44.04245" lon="7.74588">
        <ele>1514</ele>
        <time>2017-09-17T15:53:14Z</time>
      </trkpt>
      <trkpt lat="44.04241" lon="7.74578">
        <ele>1513</ele>
        <time>2017-09-17T15:53:15Z</time>
      </trkpt>
      <trkpt lat="44.04238" lon="7.74568">
        <ele>1512</ele>
        <time>2017-09-17T15:53:16Z</time>
      </trkpt>
      <trkpt lat="44.04233" lon="7.74559">
        <ele>1512</ele>
        <time>2017-09-17T15:53:17Z</time>
      </trkpt>
      <trkpt lat="44.04227" lon="7.7455">
        <ele>1511</ele>
        <time>2017-09-17T15:53:18Z</time>
      </trkpt>
      <trkpt lat="44.04222" lon="7.74541">
        <ele>1510</ele>
        <time>2017-09-17T15:53:19Z</time>
      </trkpt>
      <trkpt lat="44.04217" lon="7.74532">
        <ele>1510</ele>
        <time>2017-09-17T15:53:20Z</time>
      </trkpt>
      <trkpt lat="44.04211" lon="7.74524">
        <ele>1509</ele>
        <time>2017-09-17T15:53:21Z</time>
      </trkpt>
      <trkpt lat="44.04206" lon="7.74516">
        <ele>1508</ele>
        <time>2017-09-17T15:53:22Z</time>
      </trkpt>
      <trkpt lat="44.04201" lon="7.74509">
        <ele>1507</ele>
        <time>2017-09-17T15:53:23Z</time>
      </trkpt>
      <trkpt lat="44.04197" lon="7.74502">
        <ele>1506</ele>
        <time>2017-09-17T15:53:24Z</time>
      </trkpt>
      <trkpt lat="44.04194" lon="7.74494">
        <ele>1506</ele>
        <time>2017-09-17T15:53:25Z</time>
      </trkpt>
      <trkpt lat="44.04195" lon="7.74485">
        <ele>1505</ele>
        <time>2017-09-17T15:53:26Z</time>
      </trkpt>
      <trkpt lat="44.04197" lon="7.74478">
        <ele>1504</ele>
        <time>2017-09-17T15:53:27Z</time>
      </trkpt>
      <trkpt lat="44.04202" lon="7.74473">
        <ele>1504</ele>
        <time>2017-09-17T15:53:28Z</time>
      </trkpt>
      <trkpt lat="44.04208" lon="7.7447">
        <ele>1503</ele>
        <time>2017-09-17T15:53:29Z</time>
      </trkpt>
      <trkpt lat="44.04216" lon="7.74469">
        <ele>1503</ele>
        <time>2017-09-17T15:53:30Z</time>
      </trkpt>
      <trkpt lat="44.04223" lon="7.74468">
        <ele>1503</ele>
        <time>2017-09-17T15:53:31Z</time>
      </trkpt>
      <trkpt lat="44.04231" lon="7.74466">
        <ele>1503</ele>
        <time>2017-09-17T15:53:32Z</time>
      </trkpt>
      <trkpt lat="44.04238" lon="7.74464">
        <ele>1502</ele>
        <time>2017-09-17T15:53:33Z</time>
      </trkpt>
      <trkpt lat="44.04246" lon="7.74462">
        <ele>1502</ele>
        <time>2017-09-17T15:53:34Z</time>
      </trkpt>
      <trkpt lat="44.04255" lon="7.7446">
        <ele>1502</ele>
        <time>2017-09-17T15:53:35Z</time>
      </trkpt>
      <trkpt lat="44.04263" lon="7.74459">
        <ele>1501</ele>
        <time>2017-09-17T15:53:36Z</time>
      </trkpt>
      <trkpt lat="44.04271" lon="7.74456">
        <ele>1501</ele>
        <time>2017-09-17T15:53:37Z</time>
      </trkpt>
      <trkpt lat="44.04279" lon="7.74455">
        <ele>1501</ele>
        <time>2017-09-17T15:53:38Z</time>
      </trkpt>
      <trkpt lat="44.04288" lon="7.74453">
        <ele>1500</ele>
        <time>2017-09-17T15:53:39Z</time>
      </trkpt>
      <trkpt lat="44.04295" lon="7.74451">
        <ele>1500</ele>
        <time>2017-09-17T15:53:40Z</time>
      </trkpt>
      <trkpt lat="44.04303" lon="7.7445">
        <ele>1499</ele>
        <time>2017-09-17T15:53:41Z</time>
      </trkpt>
      <trkpt lat="44.04309" lon="7.74448">
        <ele>1499</ele>
        <time>2017-09-17T15:53:42Z</time>
      </trkpt>
      <trkpt lat="44.04316" lon="7.74444">
        <ele>1498</ele>
        <time>2017-09-17T15:53:43Z</time>
      </trkpt>
      <trkpt lat="44.04322" lon="7.7444">
        <ele>1498</ele>
        <time>2017-09-17T15:53:44Z</time>
      </trkpt>
      <trkpt lat="44.04328" lon="7.74436">
        <ele>1497</ele>
        <time>2017-09-17T15:53:45Z</time>
      </trkpt>
      <trkpt lat="44.04333" lon="7.7443">
        <ele>1497</ele>
        <time>2017-09-17T15:53:46Z</time>
      </trkpt>
      <trkpt lat="44.04336" lon="7.74423">
        <ele>1497</ele>
        <time>2017-09-17T15:53:47Z</time>
      </trkpt>
      <trkpt lat="44.04337" lon="7.74414">
        <ele>1496</ele>
        <time>2017-09-17T15:53:48Z</time>
      </trkpt>
      <trkpt lat="44.04338" lon="7.74405">
        <ele>1496</ele>
        <time>2017-09-17T15:53:49Z</time>
      </trkpt>
      <trkpt lat="44.04338" lon="7.74396">
        <ele>1495</ele>
        <time>2017-09-17T15:53:50Z</time>
      </trkpt>
      <trkpt lat="44.04338" lon="7.74387">
        <ele>1494</ele>
        <time>2017-09-17T15:53:51Z</time>
      </trkpt>
      <trkpt lat="44.04338" lon="7.74378">
        <ele>1493</ele>
        <time>2017-09-17T15:53:52Z</time>
      </trkpt>
      <trkpt lat="44.04338" lon="7.74369">
        <ele>1493</ele>
        <time>2017-09-17T15:53:53Z</time>
      </trkpt>
      <trkpt lat="44.04338" lon="7.7436">
        <ele>1492</ele>
        <time>2017-09-17T15:53:54Z</time>
      </trkpt>
      <trkpt lat="44.04336" lon="7.7435">
        <ele>1492</ele>
        <time>2017-09-17T15:53:55Z</time>
      </trkpt>
      <trkpt lat="44.04333" lon="7.7434">
        <ele>1491</ele>
        <time>2017-09-17T15:53:56Z</time>
      </trkpt>
      <trkpt lat="44.04331" lon="7.74329">
        <ele>1490</ele>
        <time>2017-09-17T15:53:57Z</time>
      </trkpt>
      <trkpt lat="44.04328" lon="7.7432">
        <ele>1489</ele>
        <time>2017-09-17T15:53:58Z</time>
      </trkpt>
      <trkpt lat="44.04325" lon="7.74311">
        <ele>1489</ele>
        <time>2017-09-17T15:53:59Z</time>
      </trkpt>
      <trkpt lat="44.04323" lon="7.74302">
        <ele>1488</ele>
        <time>2017-09-17T15:54:00Z</time>
      </trkpt>
      <trkpt lat="44.04321" lon="7.74294">
        <ele>1487</ele>
        <time>2017-09-17T15:54:01Z</time>
      </trkpt>
      <trkpt lat="44.0432" lon="7.74284">
        <ele>1487</ele>
        <time>2017-09-17T15:54:02Z</time>
      </trkpt>
      <trkpt lat="44.04321" lon="7.74274">
        <ele>1486</ele>
        <time>2017-09-17T15:54:03Z</time>
      </trkpt>
      <trkpt lat="44.04321" lon="7.74265">
        <ele>1486</ele>
        <time>2017-09-17T15:54:04Z</time>
      </trkpt>
      <trkpt lat="44.0432" lon="7.74255">
        <ele>1485</ele>
        <time>2017-09-17T15:54:05Z</time>
      </trkpt>
      <trkpt lat="44.04318" lon="7.74245">
        <ele>1484</ele>
        <time>2017-09-17T15:54:06Z</time>
      </trkpt>
      <trkpt lat="44.04317" lon="7.74235">
        <ele>1484</ele>
        <time>2017-09-17T15:54:07Z</time>
      </trkpt>
      <trkpt lat="44.04316" lon="7.74224">
        <ele>1483</ele>
        <time>2017-09-17T15:54:08Z</time>
      </trkpt>
      <trkpt lat="44.04316" lon="7.74213">
        <ele>1482</ele>
        <time>2017-09-17T15:54:09Z</time>
      </trkpt>
      <trkpt lat="44.04315" lon="7.74202">
        <ele>1481</ele>
        <time>2017-09-17T15:54:10Z</time>
      </trkpt>
      <trkpt lat="44.04316" lon="7.74192">
        <ele>1480</ele>
        <time>2017-09-17T15:54:11Z</time>
      </trkpt>
      <trkpt lat="44.04315" lon="7.74182">
        <ele>1479</ele>
        <time>2017-09-17T15:54:12Z</time>
      </trkpt>
      <trkpt lat="44.04316" lon="7.74172">
        <ele>1478</ele>
        <time>2017-09-17T15:54:13Z</time>
      </trkpt>
      <trkpt lat="44.04317" lon="7.74162">
        <ele>1477</ele>
        <time>2017-09-17T15:54:14Z</time>
      </trkpt>
      <trkpt lat="44.04318" lon="7.74152">
        <ele>1476</ele>
        <time>2017-09-17T15:54:15Z</time>
      </trkpt>
      <trkpt lat="44.04321" lon="7.74142">
        <ele>1475</ele>
        <time>2017-09-17T15:54:16Z</time>
      </trkpt>
      <trkpt lat="44.04325" lon="7.74133">
        <ele>1474</ele>
        <time>2017-09-17T15:54:17Z</time>
      </trkpt>
      <trkpt lat="44.04329" lon="7.74123">
        <ele>1473</ele>
        <time>2017-09-17T15:54:18Z</time>
      </trkpt>
      <trkpt lat="44.04334" lon="7.74113">
        <ele>1472</ele>
        <time>2017-09-17T15:54:19Z</time>
      </trkpt>
      <trkpt lat="44.04339" lon="7.74103">
        <ele>1471</ele>
        <time>2017-09-17T15:54:20Z</time>
      </trkpt>
      <trkpt lat="44.04345" lon="7.74093">
        <ele>1470</ele>
        <time>2017-09-17T15:54:21Z</time>
      </trkpt>
      <trkpt lat="44.04351" lon="7.74084">
        <ele>1469</ele>
        <time>2017-09-17T15:54:22Z</time>
      </trkpt>
      <trkpt lat="44.04358" lon="7.74076">
        <ele>1468</ele>
        <time>2017-09-17T15:54:23Z</time>
      </trkpt>
      <trkpt lat="44.04365" lon="7.74069">
        <ele>1466</ele>
        <time>2017-09-17T15:54:24Z</time>
      </trkpt>
      <trkpt lat="44.04372" lon="7.74062">
        <ele>1465</ele>
        <time>2017-09-17T15:54:25Z</time>
      </trkpt>
      <trkpt lat="44.04379" lon="7.74056">
        <ele>1464</ele>
        <time>2017-09-17T15:54:26Z</time>
      </trkpt>
      <trkpt lat="44.04388" lon="7.7405">
        <ele>1463</ele>
        <time>2017-09-17T15:54:27Z</time>
      </trkpt>
      <trkpt lat="44.04397" lon="7.74046">
        <ele>1462</ele>
        <time>2017-09-17T15:54:28Z</time>
      </trkpt>
      <trkpt lat="44.04406" lon="7.74042">
        <ele>1460</ele>
        <time>2017-09-17T15:54:29Z</time>
      </trkpt>
      <trkpt lat="44.04415" lon="7.74039">
        <ele>1459</ele>
        <time>2017-09-17T15:54:30Z</time>
      </trkpt>
      <trkpt lat="44.04424" lon="7.74037">
        <ele>1458</ele>
        <time>2017-09-17T15:54:31Z</time>
      </trkpt>
      <trkpt lat="44.04433" lon="7.74036">
        <ele>1457</ele>
        <time>2017-09-17T15:54:32Z</time>
      </trkpt>
      <trkpt lat="44.04442" lon="7.74035">
        <ele>1456</ele>
        <time>2017-09-17T15:54:33Z</time>
      </trkpt>
      <trkpt lat="44.04451" lon="7.74035">
        <ele>1456</ele>
        <time>2017-09-17T15:54:34Z</time>
      </trkpt>
      <trkpt lat="44.0446" lon="7.74034">
        <ele>1455</ele>
        <time>2017-09-17T15:54:35Z</time>
      </trkpt>
      <trkpt lat="44.04467" lon="7.74032">
        <ele>1454</ele>
        <time>2017-09-17T15:54:36Z</time>
      </trkpt>
      <trkpt lat="44.04474" lon="7.74027">
        <ele>1454</ele>
        <time>2017-09-17T15:54:37Z</time>
      </trkpt>
      <trkpt lat="44.04479" lon="7.7402">
        <ele>1453</ele>
        <time>2017-09-17T15:54:38Z</time>
      </trkpt>
      <trkpt lat="44.04481" lon="7.7401">
        <ele>1453</ele>
        <time>2017-09-17T15:54:39Z</time>
      </trkpt>
      <trkpt lat="44.04481" lon="7.74002">
        <ele>1452</ele>
        <time>2017-09-17T15:54:40Z</time>
      </trkpt>
      <trkpt lat="44.0448" lon="7.73993">
        <ele>1452</ele>
        <time>2017-09-17T15:54:41Z</time>
      </trkpt>
      <trkpt lat="44.04479" lon="7.73985">
        <ele>1451</ele>
        <time>2017-09-17T15:54:42Z</time>
      </trkpt>
      <trkpt lat="44.04477" lon="7.73977">
        <ele>1451</ele>
        <time>2017-09-17T15:54:43Z</time>
      </trkpt>
      <trkpt lat="44.04474" lon="7.7397">
        <ele>1450</ele>
        <time>2017-09-17T15:54:44Z</time>
      </trkpt>
      <trkpt lat="44.04472" lon="7.73963">
        <ele>1450</ele>
        <time>2017-09-17T15:54:45Z</time>
      </trkpt>
      <trkpt lat="44.0447" lon="7.73957">
        <ele>1450</ele>
        <time>2017-09-17T15:54:46Z</time>
      </trkpt>
      <trkpt lat="44.04469" lon="7.7395">
        <ele>1450</ele>
        <time>2017-09-17T15:54:47Z</time>
      </trkpt>
      <trkpt lat="44.04467" lon="7.73943">
        <ele>1450</ele>
        <time>2017-09-17T15:54:48Z</time>
      </trkpt>
      <trkpt lat="44.04465" lon="7.73936">
        <ele>1449</ele>
        <time>2017-09-17T15:54:49Z</time>
      </trkpt>
      <trkpt lat="44.04463" lon="7.73928">
        <ele>1449</ele>
        <time>2017-09-17T15:54:50Z</time>
      </trkpt>
      <trkpt lat="44.04461" lon="7.73921">
        <ele>1449</ele>
        <time>2017-09-17T15:54:51Z</time>
      </trkpt>
      <trkpt lat="44.0446" lon="7.73914">
        <ele>1449</ele>
        <time>2017-09-17T15:54:52Z</time>
      </trkpt>
      <trkpt lat="44.04458" lon="7.73907">
        <ele>1449</ele>
        <time>2017-09-17T15:54:53Z</time>
      </trkpt>
      <trkpt lat="44.04457" lon="7.739">
        <ele>1449</ele>
        <time>2017-09-17T15:54:54Z</time>
      </trkpt>
      <trkpt lat="44.04456" lon="7.73893">
        <ele>1449</ele>
        <time>2017-09-17T15:54:55Z</time>
      </trkpt>
      <trkpt lat="44.04455" lon="7.73885">
        <ele>1449</ele>
        <time>2017-09-17T15:54:56Z</time>
      </trkpt>
      <trkpt lat="44.04454" lon="7.73878">
        <ele>1449</ele>
        <time>2017-09-17T15:54:57Z</time>
      </trkpt>
      <trkpt lat="44.04454" lon="7.73871">
        <ele>1449</ele>
        <time>2017-09-17T15:54:58Z</time>
      </trkpt>
      <trkpt lat="44.04452" lon="7.73863">
        <ele>1449</ele>
        <time>2017-09-17T15:54:59Z</time>
      </trkpt>
      <trkpt lat="44.0445" lon="7.73857">
        <ele>1449</ele>
        <time>2017-09-17T15:55:00Z</time>
      </trkpt>
      <trkpt lat="44.04446" lon="7.73851">
        <ele>1449</ele>
        <time>2017-09-17T15:55:01Z</time>
      </trkpt>
      <trkpt lat="44.04443" lon="7.73846">
        <ele>1449</ele>
        <time>2017-09-17T15:55:02Z</time>
      </trkpt>
      <trkpt lat="44.04439" lon="7.7384">
        <ele>1450</ele>
        <time>2017-09-17T15:55:03Z</time>
      </trkpt>
      <trkpt lat="44.04436" lon="7.73835">
        <ele>1450</ele>
        <time>2017-09-17T15:55:04Z</time>
      </trkpt>
      <trkpt lat="44.04433" lon="7.73829">
        <ele>1450</ele>
        <time>2017-09-17T15:55:05Z</time>
      </trkpt>
      <trkpt lat="44.0443" lon="7.73824">
        <ele>1450</ele>
        <time>2017-09-17T15:55:06Z</time>
      </trkpt>
      <trkpt lat="44.04426" lon="7.73819">
        <ele>1450</ele>
        <time>2017-09-17T15:55:07Z</time>
      </trkpt>
      <trkpt lat="44.04423" lon="7.73814">
        <ele>1450</ele>
        <time>2017-09-17T15:55:08Z</time>
      </trkpt>
      <trkpt lat="44.04419" lon="7.73809">
        <ele>1450</ele>
        <time>2017-09-17T15:55:09Z</time>
      </trkpt>
      <trkpt lat="44.04415" lon="7.73805">
        <ele>1451</ele>
        <time>2017-09-17T15:55:10Z</time>
      </trkpt>
      <trkpt lat="44.04411" lon="7.73801">
        <ele>1451</ele>
        <time>2017-09-17T15:55:11Z</time>
      </trkpt>
      <trkpt lat="44.04408" lon="7.73796">
        <ele>1451</ele>
        <time>2017-09-17T15:55:12Z</time>
      </trkpt>
      <trkpt lat="44.04405" lon="7.7379">
        <ele>1451</ele>
        <time>2017-09-17T15:55:13Z</time>
      </trkpt>
      <trkpt lat="44.04401" lon="7.73784">
        <ele>1452</ele>
        <time>2017-09-17T15:55:14Z</time>
      </trkpt>
      <trkpt lat="44.04398" lon="7.73779">
        <ele>1452</ele>
        <time>2017-09-17T15:55:15Z</time>
      </trkpt>
      <trkpt lat="44.04395" lon="7.73773">
        <ele>1452</ele>
        <time>2017-09-17T15:55:16Z</time>
      </trkpt>
      <trkpt lat="44.04392" lon="7.73766">
        <ele>1453</ele>
        <time>2017-09-17T15:55:17Z</time>
      </trkpt>
      <trkpt lat="44.04388" lon="7.7376">
        <ele>1453</ele>
        <time>2017-09-17T15:55:18Z</time>
      </trkpt>
      <trkpt lat="44.04385" lon="7.73755">
        <ele>1453</ele>
        <time>2017-09-17T15:55:19Z</time>
      </trkpt>
      <trkpt lat="44.04381" lon="7.73749">
        <ele>1454</ele>
        <time>2017-09-17T15:55:20Z</time>
      </trkpt>
      <trkpt lat="44.04378" lon="7.73743">
        <ele>1454</ele>
        <time>2017-09-17T15:55:21Z</time>
      </trkpt>
      <trkpt lat="44.04374" lon="7.73738">
        <ele>1455</ele>
        <time>2017-09-17T15:55:22Z</time>
      </trkpt>
      <trkpt lat="44.0437" lon="7.73734">
        <ele>1455</ele>
        <time>2017-09-17T15:55:23Z</time>
      </trkpt>
      <trkpt lat="44.04365" lon="7.73729">
        <ele>1455</ele>
        <time>2017-09-17T15:55:24Z</time>
      </trkpt>
      <trkpt lat="44.04361" lon="7.73724">
        <ele>1456</ele>
        <time>2017-09-17T15:55:25Z</time>
      </trkpt>
      <trkpt lat="44.04357" lon="7.7372">
        <ele>1456</ele>
        <time>2017-09-17T15:55:26Z</time>
      </trkpt>
      <trkpt lat="44.04353" lon="7.73715">
        <ele>1456</ele>
        <time>2017-09-17T15:55:27Z</time>
      </trkpt>
      <trkpt lat="44.04348" lon="7.73711">
        <ele>1457</ele>
        <time>2017-09-17T15:55:28Z</time>
      </trkpt>
      <trkpt lat="44.04344" lon="7.73706">
        <ele>1457</ele>
        <time>2017-09-17T15:55:29Z</time>
      </trkpt>
      <trkpt lat="44.0434" lon="7.73701">
        <ele>1458</ele>
        <time>2017-09-17T15:55:30Z</time>
      </trkpt>
      <trkpt lat="44.04335" lon="7.73697">
        <ele>1458</ele>
        <time>2017-09-17T15:55:31Z</time>
      </trkpt>
      <trkpt lat="44.04331" lon="7.73693">
        <ele>1459</ele>
        <time>2017-09-17T15:55:32Z</time>
      </trkpt>
      <trkpt lat="44.04327" lon="7.73689">
        <ele>1459</ele>
        <time>2017-09-17T15:55:33Z</time>
      </trkpt>
      <trkpt lat="44.04323" lon="7.73684">
        <ele>1459</ele>
        <time>2017-09-17T15:55:34Z</time>
      </trkpt>
      <trkpt lat="44.0432" lon="7.73679">
        <ele>1460</ele>
        <time>2017-09-17T15:55:35Z</time>
      </trkpt>
      <trkpt lat="44.04317" lon="7.73673">
        <ele>1460</ele>
        <time>2017-09-17T15:55:36Z</time>
      </trkpt>
      <trkpt lat="44.04314" lon="7.73668">
        <ele>1461</ele>
        <time>2017-09-17T15:55:37Z</time>
      </trkpt>
      <trkpt lat="44.04311" lon="7.73663">
        <ele>1461</ele>
        <time>2017-09-17T15:55:38Z</time>
      </trkpt>
      <trkpt lat="44.04309" lon="7.73657">
        <ele>1461</ele>
        <time>2017-09-17T15:55:39Z</time>
      </trkpt>
      <trkpt lat="44.04306" lon="7.7365">
        <ele>1461</ele>
        <time>2017-09-17T15:55:40Z</time>
      </trkpt>
      <trkpt lat="44.04303" lon="7.73643">
        <ele>1462</ele>
        <time>2017-09-17T15:55:41Z</time>
      </trkpt>
      <trkpt lat="44.04301" lon="7.73636">
        <ele>1462</ele>
        <time>2017-09-17T15:55:42Z</time>
      </trkpt>
      <trkpt lat="44.04298" lon="7.73629">
        <ele>1462</ele>
        <time>2017-09-17T15:55:43Z</time>
      </trkpt>
      <trkpt lat="44.04296" lon="7.73622">
        <ele>1462</ele>
        <time>2017-09-17T15:55:44Z</time>
      </trkpt>
      <trkpt lat="44.04293" lon="7.73615">
        <ele>1463</ele>
        <time>2017-09-17T15:55:45Z</time>
      </trkpt>
      <trkpt lat="44.04291" lon="7.73608">
        <ele>1463</ele>
        <time>2017-09-17T15:55:46Z</time>
      </trkpt>
      <trkpt lat="44.04288" lon="7.73601">
        <ele>1463</ele>
        <time>2017-09-17T15:55:47Z</time>
      </trkpt>
      <trkpt lat="44.04286" lon="7.73594">
        <ele>1463</ele>
        <time>2017-09-17T15:55:48Z</time>
      </trkpt>
      <trkpt lat="44.04283" lon="7.73587">
        <ele>1464</ele>
        <time>2017-09-17T15:55:49Z</time>
      </trkpt>
      <trkpt lat="44.04281" lon="7.7358">
        <ele>1464</ele>
        <time>2017-09-17T15:55:50Z</time>
      </trkpt>
      <trkpt lat="44.04278" lon="7.73573">
        <ele>1464</ele>
        <time>2017-09-17T15:55:51Z</time>
      </trkpt>
      <trkpt lat="44.04277" lon="7.73566">
        <ele>1464</ele>
        <time>2017-09-17T15:55:52Z</time>
      </trkpt>
      <trkpt lat="44.04276" lon="7.73558">
        <ele>1465</ele>
        <time>2017-09-17T15:55:53Z</time>
      </trkpt>
      <trkpt lat="44.04277" lon="7.73551">
        <ele>1465</ele>
        <time>2017-09-17T15:55:54Z</time>
      </trkpt>
      <trkpt lat="44.04278" lon="7.73543">
        <ele>1465</ele>
        <time>2017-09-17T15:55:55Z</time>
      </trkpt>
      <trkpt lat="44.04281" lon="7.73536">
        <ele>1466</ele>
        <time>2017-09-17T15:55:56Z</time>
      </trkpt>
      <trkpt lat="44.04284" lon="7.7353">
        <ele>1466</ele>
        <time>2017-09-17T15:55:57Z</time>
      </trkpt>
      <trkpt lat="44.04288" lon="7.73525">
        <ele>1466</ele>
        <time>2017-09-17T15:55:58Z</time>
      </trkpt>
      <trkpt lat="44.04292" lon="7.7352">
        <ele>1466</ele>
        <time>2017-09-17T15:55:59Z</time>
      </trkpt>
      <trkpt lat="44.04297" lon="7.73516">
        <ele>1466</ele>
        <time>2017-09-17T15:56:00Z</time>
      </trkpt>
      <trkpt lat="44.04301" lon="7.73511">
        <ele>1466</ele>
        <time>2017-09-17T15:56:01Z</time>
      </trkpt>
      <trkpt lat="44.04305" lon="7.73505">
        <ele>1467</ele>
        <time>2017-09-17T15:56:02Z</time>
      </trkpt>
      <trkpt lat="44.04308" lon="7.73499">
        <ele>1467</ele>
        <time>2017-09-17T15:56:03Z</time>
      </trkpt>
      <trkpt lat="44.04311" lon="7.73492">
        <ele>1467</ele>
        <time>2017-09-17T15:56:04Z</time>
      </trkpt>
      <trkpt lat="44.04313" lon="7.73485">
        <ele>1467</ele>
        <time>2017-09-17T15:56:05Z</time>
      </trkpt>
      <trkpt lat="44.04314" lon="7.73477">
        <ele>1467</ele>
        <time>2017-09-17T15:56:06Z</time>
      </trkpt>
      <trkpt lat="44.04314" lon="7.7347">
        <ele>1468</ele>
        <time>2017-09-17T15:56:07Z</time>
      </trkpt>
      <trkpt lat="44.04313" lon="7.73462">
        <ele>1468</ele>
        <time>2017-09-17T15:56:08Z</time>
      </trkpt>
      <trkpt lat="44.04312" lon="7.73455">
        <ele>1468</ele>
        <time>2017-09-17T15:56:09Z</time>
      </trkpt>
      <trkpt lat="44.04312" lon="7.73447">
        <ele>1468</ele>
        <time>2017-09-17T15:56:10Z</time>
      </trkpt>
      <trkpt lat="44.04311" lon="7.73439">
        <ele>1468</ele>
        <time>2017-09-17T15:56:11Z</time>
      </trkpt>
      <trkpt lat="44.0431" lon="7.73432">
        <ele>1469</ele>
        <time>2017-09-17T15:56:12Z</time>
      </trkpt>
      <trkpt lat="44.04308" lon="7.73424">
        <ele>1469</ele>
        <time>2017-09-17T15:56:13Z</time>
      </trkpt>
      <trkpt lat="44.04307" lon="7.73417">
        <ele>1469</ele>
        <time>2017-09-17T15:56:14Z</time>
      </trkpt>
      <trkpt lat="44.04305" lon="7.7341">
        <ele>1469</ele>
        <time>2017-09-17T15:56:15Z</time>
      </trkpt>
      <trkpt lat="44.04303" lon="7.73403">
        <ele>1469</ele>
        <time>2017-09-17T15:56:16Z</time>
      </trkpt>
      <trkpt lat="44.04301" lon="7.73395">
        <ele>1470</ele>
        <time>2017-09-17T15:56:17Z</time>
      </trkpt>
      <trkpt lat="44.043" lon="7.73388">
        <ele>1470</ele>
        <time>2017-09-17T15:56:18Z</time>
      </trkpt>
      <trkpt lat="44.04298" lon="7.7338">
        <ele>1470</ele>
        <time>2017-09-17T15:56:19Z</time>
      </trkpt>
      <trkpt lat="44.04297" lon="7.73373">
        <ele>1470</ele>
        <time>2017-09-17T15:56:20Z</time>
      </trkpt>
      <trkpt lat="44.04295" lon="7.73366">
        <ele>1471</ele>
        <time>2017-09-17T15:56:21Z</time>
      </trkpt>
      <trkpt lat="44.04293" lon="7.73358">
        <ele>1471</ele>
        <time>2017-09-17T15:56:22Z</time>
      </trkpt>
      <trkpt lat="44.04291" lon="7.73351">
        <ele>1471</ele>
        <time>2017-09-17T15:56:23Z</time>
      </trkpt>
      <trkpt lat="44.0429" lon="7.73344">
        <ele>1471</ele>
        <time>2017-09-17T15:56:24Z</time>
      </trkpt>
      <trkpt lat="44.04288" lon="7.73337">
        <ele>1471</ele>
        <time>2017-09-17T15:56:25Z</time>
      </trkpt>
      <trkpt lat="44.04287" lon="7.7333">
        <ele>1472</ele>
        <time>2017-09-17T15:56:26Z</time>
      </trkpt>
      <trkpt lat="44.04288" lon="7.73322">
        <ele>1472</ele>
        <time>2017-09-17T15:56:27Z</time>
      </trkpt>
      <trkpt lat="44.04291" lon="7.73317">
        <ele>1472</ele>
        <time>2017-09-17T15:56:28Z</time>
      </trkpt>
      <trkpt lat="44.04296" lon="7.73314">
        <ele>1472</ele>
        <time>2017-09-17T15:56:29Z</time>
      </trkpt>
      <trkpt lat="44.043" lon="7.73313">
        <ele>1472</ele>
        <time>2017-09-17T15:56:30Z</time>
      </trkpt>
      <trkpt lat="44.04306" lon="7.73315">
        <ele>1472</ele>
        <time>2017-09-17T15:56:31Z</time>
      </trkpt>
      <trkpt lat="44.04312" lon="7.73317">
        <ele>1472</ele>
        <time>2017-09-17T15:56:32Z</time>
      </trkpt>
      <trkpt lat="44.04318" lon="7.73319">
        <ele>1472</ele>
        <time>2017-09-17T15:56:33Z</time>
      </trkpt>
      <trkpt lat="44.04325" lon="7.73321">
        <ele>1472</ele>
        <time>2017-09-17T15:56:34Z</time>
      </trkpt>
      <trkpt lat="44.04331" lon="7.73322">
        <ele>1472</ele>
        <time>2017-09-17T15:56:35Z</time>
      </trkpt>
      <trkpt lat="44.04338" lon="7.73323">
        <ele>1472</ele>
        <time>2017-09-17T15:56:36Z</time>
      </trkpt>
      <trkpt lat="44.04344" lon="7.73322">
        <ele>1472</ele>
        <time>2017-09-17T15:56:37Z</time>
      </trkpt>
      <trkpt lat="44.04351" lon="7.73322">
        <ele>1472</ele>
        <time>2017-09-17T15:56:38Z</time>
      </trkpt>
      <trkpt lat="44.04358" lon="7.73321">
        <ele>1472</ele>
        <time>2017-09-17T15:56:39Z</time>
      </trkpt>
      <trkpt lat="44.04364" lon="7.73321">
        <ele>1472</ele>
        <time>2017-09-17T15:56:40Z</time>
      </trkpt>
      <trkpt lat="44.0437" lon="7.7332">
        <ele>1472</ele>
        <time>2017-09-17T15:56:41Z</time>
      </trkpt>
      <trkpt lat="44.04377" lon="7.7332">
        <ele>1472</ele>
        <time>2017-09-17T15:56:42Z</time>
      </trkpt>
      <trkpt lat="44.04383" lon="7.73319">
        <ele>1472</ele>
        <time>2017-09-17T15:56:43Z</time>
      </trkpt>
      <trkpt lat="44.0439" lon="7.73319">
        <ele>1472</ele>
        <time>2017-09-17T15:56:44Z</time>
      </trkpt>
      <trkpt lat="44.04396" lon="7.73318">
        <ele>1472</ele>
        <time>2017-09-17T15:56:45Z</time>
      </trkpt>
      <trkpt lat="44.04402" lon="7.73314">
        <ele>1472</ele>
        <time>2017-09-17T15:56:46Z</time>
      </trkpt>
      <trkpt lat="44.04408" lon="7.73309">
        <ele>1472</ele>
        <time>2017-09-17T15:56:47Z</time>
      </trkpt>
      <trkpt lat="44.04414" lon="7.73303">
        <ele>1472</ele>
        <time>2017-09-17T15:56:48Z</time>
      </trkpt>
      <trkpt lat="44.04419" lon="7.73297">
        <ele>1472</ele>
        <time>2017-09-17T15:56:49Z</time>
      </trkpt>
      <trkpt lat="44.04424" lon="7.73291">
        <ele>1471</ele>
        <time>2017-09-17T15:56:50Z</time>
      </trkpt>
      <trkpt lat="44.0443" lon="7.73285">
        <ele>1471</ele>
        <time>2017-09-17T15:56:51Z</time>
      </trkpt>
      <trkpt lat="44.04436" lon="7.73279">
        <ele>1471</ele>
        <time>2017-09-17T15:56:52Z</time>
      </trkpt>
      <trkpt lat="44.04441" lon="7.73273">
        <ele>1470</ele>
        <time>2017-09-17T15:56:53Z</time>
      </trkpt>
      <trkpt lat="44.04447" lon="7.73267">
        <ele>1470</ele>
        <time>2017-09-17T15:56:54Z</time>
      </trkpt>
      <trkpt lat="44.04452" lon="7.73261">
        <ele>1470</ele>
        <time>2017-09-17T15:56:55Z</time>
      </trkpt>
      <trkpt lat="44.04457" lon="7.73256">
        <ele>1469</ele>
        <time>2017-09-17T15:56:56Z</time>
      </trkpt>
      <trkpt lat="44.04463" lon="7.73252">
        <ele>1469</ele>
        <time>2017-09-17T15:56:57Z</time>
      </trkpt>
      <trkpt lat="44.04469" lon="7.73249">
        <ele>1469</ele>
        <time>2017-09-17T15:56:58Z</time>
      </trkpt>
      <trkpt lat="44.04476" lon="7.73249">
        <ele>1468</ele>
        <time>2017-09-17T15:56:59Z</time>
      </trkpt>
      <trkpt lat="44.04482" lon="7.73251">
        <ele>1468</ele>
        <time>2017-09-17T15:57:00Z</time>
      </trkpt>
      <trkpt lat="44.04489" lon="7.73254">
        <ele>1468</ele>
        <time>2017-09-17T15:57:01Z</time>
      </trkpt>
      <trkpt lat="44.04496" lon="7.73257">
        <ele>1468</ele>
        <time>2017-09-17T15:57:02Z</time>
      </trkpt>
      <trkpt lat="44.04504" lon="7.7326">
        <ele>1468</ele>
        <time>2017-09-17T15:57:03Z</time>
      </trkpt>
      <trkpt lat="44.04511" lon="7.73263">
        <ele>1467</ele>
        <time>2017-09-17T15:57:04Z</time>
      </trkpt>
      <trkpt lat="44.04518" lon="7.73266">
        <ele>1467</ele>
        <time>2017-09-17T15:57:05Z</time>
      </trkpt>
      <trkpt lat="44.04525" lon="7.73269">
        <ele>1467</ele>
        <time>2017-09-17T15:57:06Z</time>
      </trkpt>
      <trkpt lat="44.04532" lon="7.73272">
        <ele>1467</ele>
        <time>2017-09-17T15:57:07Z</time>
      </trkpt>
      <trkpt lat="44.04539" lon="7.73276">
        <ele>1467</ele>
        <time>2017-09-17T15:57:08Z</time>
      </trkpt>
      <trkpt lat="44.04546" lon="7.73278">
        <ele>1466</ele>
        <time>2017-09-17T15:57:09Z</time>
      </trkpt>
      <trkpt lat="44.04553" lon="7.73281">
        <ele>1466</ele>
        <time>2017-09-17T15:57:10Z</time>
      </trkpt>
      <trkpt lat="44.0456" lon="7.73283">
        <ele>1466</ele>
        <time>2017-09-17T15:57:11Z</time>
      </trkpt>
      <trkpt lat="44.04567" lon="7.73286">
        <ele>1466</ele>
        <time>2017-09-17T15:57:12Z</time>
      </trkpt>
      <trkpt lat="44.04574" lon="7.73289">
        <ele>1466</ele>
        <time>2017-09-17T15:57:13Z</time>
      </trkpt>
      <trkpt lat="44.04581" lon="7.73292">
        <ele>1465</ele>
        <time>2017-09-17T15:57:14Z</time>
      </trkpt>
      <trkpt lat="44.04588" lon="7.73295">
        <ele>1465</ele>
        <time>2017-09-17T15:57:15Z</time>
      </trkpt>
      <trkpt lat="44.04595" lon="7.73299">
        <ele>1465</ele>
        <time>2017-09-17T15:57:16Z</time>
      </trkpt>
      <trkpt lat="44.04602" lon="7.73303">
        <ele>1465</ele>
        <time>2017-09-17T15:57:17Z</time>
      </trkpt>
      <trkpt lat="44.04609" lon="7.73307">
        <ele>1465</ele>
        <time>2017-09-17T15:57:18Z</time>
      </trkpt>
      <trkpt lat="44.04616" lon="7.73312">
        <ele>1465</ele>
        <time>2017-09-17T15:57:19Z</time>
      </trkpt>
      <trkpt lat="44.04622" lon="7.73317">
        <ele>1465</ele>
        <time>2017-09-17T15:57:20Z</time>
      </trkpt>
      <trkpt lat="44.04629" lon="7.73322">
        <ele>1465</ele>
        <time>2017-09-17T15:57:21Z</time>
      </trkpt>
      <trkpt lat="44.04636" lon="7.73328">
        <ele>1465</ele>
        <time>2017-09-17T15:57:22Z</time>
      </trkpt>
      <trkpt lat="44.04642" lon="7.73334">
        <ele>1465</ele>
        <time>2017-09-17T15:57:23Z</time>
      </trkpt>
      <trkpt lat="44.04648" lon="7.73339">
        <ele>1465</ele>
        <time>2017-09-17T15:57:24Z</time>
      </trkpt>
      <trkpt lat="44.04655" lon="7.73341">
        <ele>1465</ele>
        <time>2017-09-17T15:57:25Z</time>
      </trkpt>
      <trkpt lat="44.04662" lon="7.73341">
        <ele>1464</ele>
        <time>2017-09-17T15:57:26Z</time>
      </trkpt>
      <trkpt lat="44.04668" lon="7.73339">
        <ele>1464</ele>
        <time>2017-09-17T15:57:27Z</time>
      </trkpt>
      <trkpt lat="44.04675" lon="7.73338">
        <ele>1464</ele>
        <time>2017-09-17T15:57:28Z</time>
      </trkpt>
      <trkpt lat="44.04682" lon="7.73339">
        <ele>1464</ele>
        <time>2017-09-17T15:57:29Z</time>
      </trkpt>
      <trkpt lat="44.04688" lon="7.73339">
        <ele>1464</ele>
        <time>2017-09-17T15:57:30Z</time>
      </trkpt>
      <trkpt lat="44.04694" lon="7.73338">
        <ele>1464</ele>
        <time>2017-09-17T15:57:31Z</time>
      </trkpt>
      <trkpt lat="44.047" lon="7.73335">
        <ele>1463</ele>
        <time>2017-09-17T15:57:32Z</time>
      </trkpt>
      <trkpt lat="44.04705" lon="7.7333">
        <ele>1463</ele>
        <time>2017-09-17T15:57:33Z</time>
      </trkpt>
      <trkpt lat="44.04709" lon="7.73325">
        <ele>1463</ele>
        <time>2017-09-17T15:57:34Z</time>
      </trkpt>
      <trkpt lat="44.04713" lon="7.73319">
        <ele>1463</ele>
        <time>2017-09-17T15:57:35Z</time>
      </trkpt>
      <trkpt lat="44.04717" lon="7.73315">
        <ele>1462</ele>
        <time>2017-09-17T15:57:36Z</time>
      </trkpt>
      <trkpt lat="44.04722" lon="7.73309">
        <ele>1462</ele>
        <time>2017-09-17T15:57:37Z</time>
      </trkpt>
      <trkpt lat="44.04726" lon="7.73305">
        <ele>1462</ele>
        <time>2017-09-17T15:57:38Z</time>
      </trkpt>
      <trkpt lat="44.0473" lon="7.733">
        <ele>1462</ele>
        <time>2017-09-17T15:57:39Z</time>
      </trkpt>
      <trkpt lat="44.04735" lon="7.73295">
        <ele>1461</ele>
        <time>2017-09-17T15:57:40Z</time>
      </trkpt>
      <trkpt lat="44.0474" lon="7.7329">
        <ele>1461</ele>
        <time>2017-09-17T15:57:41Z</time>
      </trkpt>
      <trkpt lat="44.04745" lon="7.73287">
        <ele>1461</ele>
        <time>2017-09-17T15:57:42Z</time>
      </trkpt>
      <trkpt lat="44.0475" lon="7.73285">
        <ele>1461</ele>
        <time>2017-09-17T15:57:43Z</time>
      </trkpt>
      <trkpt lat="44.04756" lon="7.73282">
        <ele>1461</ele>
        <time>2017-09-17T15:57:44Z</time>
      </trkpt>
      <trkpt lat="44.04763" lon="7.7328">
        <ele>1461</ele>
        <time>2017-09-17T15:57:45Z</time>
      </trkpt>
      <trkpt lat="44.04769" lon="7.7328">
        <ele>1461</ele>
        <time>2017-09-17T15:57:46Z</time>
      </trkpt>
      <trkpt lat="44.04775" lon="7.73281">
        <ele>1461</ele>
        <time>2017-09-17T15:57:47Z</time>
      </trkpt>
      <trkpt lat="44.04782" lon="7.73279">
        <ele>1461</ele>
        <time>2017-09-17T15:57:48Z</time>
      </trkpt>
      <trkpt lat="44.04787" lon="7.73274">
        <ele>1461</ele>
        <time>2017-09-17T15:57:49Z</time>
      </trkpt>
      <trkpt lat="44.04791" lon="7.73267">
        <ele>1460</ele>
        <time>2017-09-17T15:57:50Z</time>
      </trkpt>
      <trkpt lat="44.04794" lon="7.73259">
        <ele>1460</ele>
        <time>2017-09-17T15:57:51Z</time>
      </trkpt>
      <trkpt lat="44.04798" lon="7.73251">
        <ele>1460</ele>
        <time>2017-09-17T15:57:52Z</time>
      </trkpt>
      <trkpt lat="44.04801" lon="7.73244">
        <ele>1460</ele>
        <time>2017-09-17T15:57:53Z</time>
      </trkpt>
      <trkpt lat="44.04805" lon="7.73237">
        <ele>1460</ele>
        <time>2017-09-17T15:57:54Z</time>
      </trkpt>
      <trkpt lat="44.0481" lon="7.73231">
        <ele>1460</ele>
        <time>2017-09-17T15:57:55Z</time>
      </trkpt>
      <trkpt lat="44.04815" lon="7.73227">
        <ele>1459</ele>
        <time>2017-09-17T15:57:56Z</time>
      </trkpt>
      <trkpt lat="44.0482" lon="7.73223">
        <ele>1459</ele>
        <time>2017-09-17T15:57:57Z</time>
      </trkpt>
      <trkpt lat="44.04826" lon="7.7322">
        <ele>1459</ele>
        <time>2017-09-17T15:57:58Z</time>
      </trkpt>
      <trkpt lat="44.04832" lon="7.73216">
        <ele>1459</ele>
        <time>2017-09-17T15:57:59Z</time>
      </trkpt>
      <trkpt lat="44.04837" lon="7.73211">
        <ele>1458</ele>
        <time>2017-09-17T15:58:00Z</time>
      </trkpt>
      <trkpt lat="44.04842" lon="7.73204">
        <ele>1458</ele>
        <time>2017-09-17T15:58:01Z</time>
      </trkpt>
      <trkpt lat="44.04847" lon="7.73198">
        <ele>1457</ele>
        <time>2017-09-17T15:58:02Z</time>
      </trkpt>
      <trkpt lat="44.04853" lon="7.73192">
        <ele>1457</ele>
        <time>2017-09-17T15:58:03Z</time>
      </trkpt>
      <trkpt lat="44.04858" lon="7.73186">
        <ele>1457</ele>
        <time>2017-09-17T15:58:04Z</time>
      </trkpt>
      <trkpt lat="44.04862" lon="7.73179">
        <ele>1456</ele>
        <time>2017-09-17T15:58:05Z</time>
      </trkpt>
      <trkpt lat="44.04864" lon="7.7317">
        <ele>1456</ele>
        <time>2017-09-17T15:58:06Z</time>
      </trkpt>
      <trkpt lat="44.04863" lon="7.73161">
        <ele>1455</ele>
        <time>2017-09-17T15:58:07Z</time>
      </trkpt>
      <trkpt lat="44.04861" lon="7.73152">
        <ele>1455</ele>
        <time>2017-09-17T15:58:08Z</time>
      </trkpt>
      <trkpt lat="44.04858" lon="7.73144">
        <ele>1455</ele>
        <time>2017-09-17T15:58:09Z</time>
      </trkpt>
      <trkpt lat="44.04856" lon="7.73136">
        <ele>1455</ele>
        <time>2017-09-17T15:58:10Z</time>
      </trkpt>
      <trkpt lat="44.04854" lon="7.73127">
        <ele>1454</ele>
        <time>2017-09-17T15:58:11Z</time>
      </trkpt>
      <trkpt lat="44.04852" lon="7.73118">
        <ele>1454</ele>
        <time>2017-09-17T15:58:12Z</time>
      </trkpt>
      <trkpt lat="44.04849" lon="7.7311">
        <ele>1454</ele>
        <time>2017-09-17T15:58:13Z</time>
      </trkpt>
      <trkpt lat="44.04846" lon="7.73103">
        <ele>1454</ele>
        <time>2017-09-17T15:58:14Z</time>
      </trkpt>
      <trkpt lat="44.04843" lon="7.73097">
        <ele>1454</ele>
        <time>2017-09-17T15:58:15Z</time>
      </trkpt>
      <trkpt lat="44.04839" lon="7.73091">
        <ele>1454</ele>
        <time>2017-09-17T15:58:16Z</time>
      </trkpt>
      <trkpt lat="44.04835" lon="7.73085">
        <ele>1454</ele>
        <time>2017-09-17T15:58:17Z</time>
      </trkpt>
      <trkpt lat="44.04831" lon="7.73079">
        <ele>1454</ele>
        <time>2017-09-17T15:58:18Z</time>
      </trkpt>
      <trkpt lat="44.04827" lon="7.73073">
        <ele>1455</ele>
        <time>2017-09-17T15:58:19Z</time>
      </trkpt>
      <trkpt lat="44.04822" lon="7.73067">
        <ele>1455</ele>
        <time>2017-09-17T15:58:20Z</time>
      </trkpt>
      <trkpt lat="44.04818" lon="7.73061">
        <ele>1455</ele>
        <time>2017-09-17T15:58:21Z</time>
      </trkpt>
      <trkpt lat="44.04814" lon="7.73055">
        <ele>1455</ele>
        <time>2017-09-17T15:58:22Z</time>
      </trkpt>
      <trkpt lat="44.04812" lon="7.73048">
        <ele>1455</ele>
        <time>2017-09-17T15:58:23Z</time>
      </trkpt>
      <trkpt lat="44.04811" lon="7.7304">
        <ele>1456</ele>
        <time>2017-09-17T15:58:24Z</time>
      </trkpt>
      <trkpt lat="44.04811" lon="7.73033">
        <ele>1456</ele>
        <time>2017-09-17T15:58:25Z</time>
      </trkpt>
      <trkpt lat="44.04812" lon="7.73025">
        <ele>1455</ele>
        <time>2017-09-17T15:58:26Z</time>
      </trkpt>
      <trkpt lat="44.04813" lon="7.73017">
        <ele>1455</ele>
        <time>2017-09-17T15:58:27Z</time>
      </trkpt>
      <trkpt lat="44.04813" lon="7.73009">
        <ele>1455</ele>
        <time>2017-09-17T15:58:28Z</time>
      </trkpt>
      <trkpt lat="44.04814" lon="7.73001">
        <ele>1455</ele>
        <time>2017-09-17T15:58:29Z</time>
      </trkpt>
      <trkpt lat="44.04814" lon="7.72993">
        <ele>1455</ele>
        <time>2017-09-17T15:58:30Z</time>
      </trkpt>
      <trkpt lat="44.04814" lon="7.72985">
        <ele>1455</ele>
        <time>2017-09-17T15:58:31Z</time>
      </trkpt>
      <trkpt lat="44.04814" lon="7.72977">
        <ele>1455</ele>
        <time>2017-09-17T15:58:32Z</time>
      </trkpt>
      <trkpt lat="44.04815" lon="7.72969">
        <ele>1455</ele>
        <time>2017-09-17T15:58:33Z</time>
      </trkpt>
      <trkpt lat="44.04817" lon="7.72962">
        <ele>1455</ele>
        <time>2017-09-17T15:58:34Z</time>
      </trkpt>
      <trkpt lat="44.04818" lon="7.72954">
        <ele>1455</ele>
        <time>2017-09-17T15:58:35Z</time>
      </trkpt>
      <trkpt lat="44.04819" lon="7.72946">
        <ele>1455</ele>
        <time>2017-09-17T15:58:36Z</time>
      </trkpt>
      <trkpt lat="44.0482" lon="7.72938">
        <ele>1455</ele>
        <time>2017-09-17T15:58:37Z</time>
      </trkpt>
      <trkpt lat="44.0482" lon="7.7293">
        <ele>1455</ele>
        <time>2017-09-17T15:58:38Z</time>
      </trkpt>
      <trkpt lat="44.04822" lon="7.72922">
        <ele>1456</ele>
        <time>2017-09-17T15:58:39Z</time>
      </trkpt>
      <trkpt lat="44.04825" lon="7.72916">
        <ele>1456</ele>
        <time>2017-09-17T15:58:40Z</time>
      </trkpt>
      <trkpt lat="44.0483" lon="7.72912">
        <ele>1456</ele>
        <time>2017-09-17T15:58:41Z</time>
      </trkpt>
      <trkpt lat="44.04835" lon="7.72911">
        <ele>1456</ele>
        <time>2017-09-17T15:58:42Z</time>
      </trkpt>
      <trkpt lat="44.0484" lon="7.72911">
        <ele>1456</ele>
        <time>2017-09-17T15:58:43Z</time>
      </trkpt>
      <trkpt lat="44.04845" lon="7.72913">
        <ele>1456</ele>
        <time>2017-09-17T15:58:44Z</time>
      </trkpt>
      <trkpt lat="44.0485" lon="7.72916">
        <ele>1456</ele>
        <time>2017-09-17T15:58:45Z</time>
      </trkpt>
      <trkpt lat="44.04855" lon="7.72919">
        <ele>1456</ele>
        <time>2017-09-17T15:58:46Z</time>
      </trkpt>
      <trkpt lat="44.04858" lon="7.72922">
        <ele>1456</ele>
        <time>2017-09-17T15:58:47Z</time>
      </trkpt>
      <trkpt lat="44.04862" lon="7.72925">
        <ele>1457</ele>
        <time>2017-09-17T15:58:48Z</time>
      </trkpt>
      <trkpt lat="44.04866" lon="7.72928">
        <ele>1457</ele>
        <time>2017-09-17T15:58:49Z</time>
      </trkpt>
      <trkpt lat="44.0487" lon="7.7293">
        <ele>1457</ele>
        <time>2017-09-17T15:58:50Z</time>
      </trkpt>
      <trkpt lat="44.04875" lon="7.72931">
        <ele>1457</ele>
        <time>2017-09-17T15:58:51Z</time>
      </trkpt>
      <trkpt lat="44.04879" lon="7.72933">
        <ele>1457</ele>
        <time>2017-09-17T15:58:52Z</time>
      </trkpt>
      <trkpt lat="44.04883" lon="7.72934">
        <ele>1457</ele>
        <time>2017-09-17T15:58:53Z</time>
      </trkpt>
      <trkpt lat="44.04888" lon="7.72933">
        <ele>1457</ele>
        <time>2017-09-17T15:58:54Z</time>
      </trkpt>
      <trkpt lat="44.04893" lon="7.72932">
        <ele>1457</ele>
        <time>2017-09-17T15:58:55Z</time>
      </trkpt>
      <trkpt lat="44.04897" lon="7.72929">
        <ele>1457</ele>
        <time>2017-09-17T15:58:56Z</time>
      </trkpt>
      <trkpt lat="44.04901" lon="7.72925">
        <ele>1457</ele>
        <time>2017-09-17T15:58:57Z</time>
      </trkpt>
      <trkpt lat="44.04906" lon="7.72921">
        <ele>1458</ele>
        <time>2017-09-17T15:58:58Z</time>
      </trkpt>
      <trkpt lat="44.0491" lon="7.72918">
        <ele>1458</ele>
        <time>2017-09-17T15:58:59Z</time>
      </trkpt>
      <trkpt lat="44.04914" lon="7.72915">
        <ele>1458</ele>
        <time>2017-09-17T15:59:00Z</time>
      </trkpt>
      <trkpt lat="44.04919" lon="7.72915">
        <ele>1458</ele>
        <time>2017-09-17T15:59:01Z</time>
      </trkpt>
      <trkpt lat="44.04923" lon="7.72915">
        <ele>1458</ele>
        <time>2017-09-17T15:59:02Z</time>
      </trkpt>
      <trkpt lat="44.04928" lon="7.72918">
        <ele>1458</ele>
        <time>2017-09-17T15:59:03Z</time>
      </trkpt>
      <trkpt lat="44.04933" lon="7.72921">
        <ele>1459</ele>
        <time>2017-09-17T15:59:04Z</time>
      </trkpt>
      <trkpt lat="44.04937" lon="7.72924">
        <ele>1459</ele>
        <time>2017-09-17T15:59:05Z</time>
      </trkpt>
      <trkpt lat="44.04942" lon="7.72928">
        <ele>1459</ele>
        <time>2017-09-17T15:59:06Z</time>
      </trkpt>
      <trkpt lat="44.04946" lon="7.72932">
        <ele>1459</ele>
        <time>2017-09-17T15:59:07Z</time>
      </trkpt>
      <trkpt lat="44.04951" lon="7.72935">
        <ele>1460</ele>
        <time>2017-09-17T15:59:08Z</time>
      </trkpt>
      <trkpt lat="44.04956" lon="7.72937">
        <ele>1460</ele>
        <time>2017-09-17T15:59:09Z</time>
      </trkpt>
      <trkpt lat="44.04961" lon="7.7294">
        <ele>1460</ele>
        <time>2017-09-17T15:59:10Z</time>
      </trkpt>
      <trkpt lat="44.04966" lon="7.72941">
        <ele>1461</ele>
        <time>2017-09-17T15:59:11Z</time>
      </trkpt>
      <trkpt lat="44.04971" lon="7.72942">
        <ele>1461</ele>
        <time>2017-09-17T15:59:12Z</time>
      </trkpt>
      <trkpt lat="44.04976" lon="7.72942">
        <ele>1461</ele>
        <time>2017-09-17T15:59:13Z</time>
      </trkpt>
      <trkpt lat="44.04981" lon="7.72941">
        <ele>1462</ele>
        <time>2017-09-17T15:59:14Z</time>
      </trkpt>
      <trkpt lat="44.04986" lon="7.72941">
        <ele>1462</ele>
        <time>2017-09-17T15:59:15Z</time>
      </trkpt>
      <trkpt lat="44.0499" lon="7.72941">
        <ele>1462</ele>
        <time>2017-09-17T15:59:16Z</time>
      </trkpt>
      <trkpt lat="44.04995" lon="7.72941">
        <ele>1462</ele>
        <time>2017-09-17T15:59:17Z</time>
      </trkpt>
      <trkpt lat="44.05" lon="7.72941">
        <ele>1462</ele>
        <time>2017-09-17T15:59:18Z</time>
      </trkpt>
      <trkpt lat="44.05004" lon="7.72941">
        <ele>1462</ele>
        <time>2017-09-17T15:59:19Z</time>
      </trkpt>
      <trkpt lat="44.05009" lon="7.72942">
        <ele>1463</ele>
        <time>2017-09-17T15:59:20Z</time>
      </trkpt>
      <trkpt lat="44.05013" lon="7.72942">
        <ele>1463</ele>
        <time>2017-09-17T15:59:21Z</time>
      </trkpt>
      <trkpt lat="44.05018" lon="7.72942">
        <ele>1463</ele>
        <time>2017-09-17T15:59:22Z</time>
      </trkpt>
      <trkpt lat="44.05023" lon="7.72943">
        <ele>1463</ele>
        <time>2017-09-17T15:59:23Z</time>
      </trkpt>
      <trkpt lat="44.05027" lon="7.72943">
        <ele>1463</ele>
        <time>2017-09-17T15:59:24Z</time>
      </trkpt>
      <trkpt lat="44.05032" lon="7.72944">
        <ele>1464</ele>
        <time>2017-09-17T15:59:25Z</time>
      </trkpt>
      <trkpt lat="44.05036" lon="7.72945">
        <ele>1464</ele>
        <time>2017-09-17T15:59:26Z</time>
      </trkpt>
      <trkpt lat="44.05041" lon="7.72945">
        <ele>1464</ele>
        <time>2017-09-17T15:59:27Z</time>
      </trkpt>
      <trkpt lat="44.05045" lon="7.72946">
        <ele>1465</ele>
        <time>2017-09-17T15:59:28Z</time>
      </trkpt>
      <trkpt lat="44.0505" lon="7.72945">
        <ele>1465</ele>
        <time>2017-09-17T15:59:29Z</time>
      </trkpt>
      <trkpt lat="44.05055" lon="7.72944">
        <ele>1465</ele>
        <time>2017-09-17T15:59:30Z</time>
      </trkpt>
      <trkpt lat="44.05059" lon="7.7294">
        <ele>1465</ele>
        <time>2017-09-17T15:59:31Z</time>
      </trkpt>
      <trkpt lat="44.05064" lon="7.72937">
        <ele>1466</ele>
        <time>2017-09-17T15:59:32Z</time>
      </trkpt>
      <trkpt lat="44.05068" lon="7.72934">
        <ele>1466</ele>
        <time>2017-09-17T15:59:33Z</time>
      </trkpt>
      <trkpt lat="44.05073" lon="7.72932">
        <ele>1466</ele>
        <time>2017-09-17T15:59:34Z</time>
      </trkpt>
      <trkpt lat="44.05077" lon="7.7293">
        <ele>1466</ele>
        <time>2017-09-17T15:59:35Z</time>
      </trkpt>
      <trkpt lat="44.05082" lon="7.72928">
        <ele>1467</ele>
        <time>2017-09-17T15:59:36Z</time>
      </trkpt>
      <trkpt lat="44.05087" lon="7.72926">
        <ele>1467</ele>
        <time>2017-09-17T15:59:37Z</time>
      </trkpt>
      <trkpt lat="44.05091" lon="7.72925">
        <ele>1467</ele>
        <time>2017-09-17T15:59:38Z</time>
      </trkpt>
      <trkpt lat="44.05096" lon="7.72923">
        <ele>1467</ele>
        <time>2017-09-17T15:59:39Z</time>
      </trkpt>
      <trkpt lat="44.051" lon="7.72922">
        <ele>1467</ele>
        <time>2017-09-17T15:59:40Z</time>
      </trkpt>
      <trkpt lat="44.05105" lon="7.72921">
        <ele>1467</ele>
        <time>2017-09-17T15:59:41Z</time>
      </trkpt>
      <trkpt lat="44.0511" lon="7.7292">
        <ele>1467</ele>
        <time>2017-09-17T15:59:42Z</time>
      </trkpt>
      <trkpt lat="44.05115" lon="7.72919">
        <ele>1467</ele>
        <time>2017-09-17T15:59:43Z</time>
      </trkpt>
      <trkpt lat="44.05121" lon="7.72918">
        <ele>1468</ele>
        <time>2017-09-17T15:59:44Z</time>
      </trkpt>
      <trkpt lat="44.05126" lon="7.72918">
        <ele>1468</ele>
        <time>2017-09-17T15:59:45Z</time>
      </trkpt>
      <trkpt lat="44.05131" lon="7.72918">
        <ele>1468</ele>
        <time>2017-09-17T15:59:46Z</time>
      </trkpt>
      <trkpt lat="44.05136" lon="7.72917">
        <ele>1468</ele>
        <time>2017-09-17T15:59:47Z</time>
      </trkpt>
      <trkpt lat="44.05141" lon="7.72917">
        <ele>1469</ele>
        <time>2017-09-17T15:59:48Z</time>
      </trkpt>
      <trkpt lat="44.05147" lon="7.72917">
        <ele>1469</ele>
        <time>2017-09-17T15:59:49Z</time>
      </trkpt>
      <trkpt lat="44.05152" lon="7.72916">
        <ele>1469</ele>
        <time>2017-09-17T15:59:50Z</time>
      </trkpt>
      <trkpt lat="44.05156" lon="7.72912">
        <ele>1469</ele>
        <time>2017-09-17T15:59:51Z</time>
      </trkpt>
      <trkpt lat="44.0516" lon="7.72908">
        <ele>1470</ele>
        <time>2017-09-17T15:59:52Z</time>
      </trkpt>
      <trkpt lat="44.05164" lon="7.72903">
        <ele>1470</ele>
        <time>2017-09-17T15:59:53Z</time>
      </trkpt>
      <trkpt lat="44.05167" lon="7.72897">
        <ele>1470</ele>
        <time>2017-09-17T15:59:54Z</time>
      </trkpt>
      <trkpt lat="44.05171" lon="7.72893">
        <ele>1470</ele>
        <time>2017-09-17T15:59:55Z</time>
      </trkpt>
      <trkpt lat="44.05175" lon="7.72891">
        <ele>1470</ele>
        <time>2017-09-17T15:59:56Z</time>
      </trkpt>
      <trkpt lat="44.0518" lon="7.72889">
        <ele>1471</ele>
        <time>2017-09-17T15:59:57Z</time>
      </trkpt>
      <trkpt lat="44.05184" lon="7.72888">
        <ele>1471</ele>
        <time>2017-09-17T15:59:58Z</time>
      </trkpt>
      <trkpt lat="44.05188" lon="7.72887">
        <ele>1471</ele>
        <time>2017-09-17T15:59:59Z</time>
      </trkpt>
      <trkpt lat="44.05191" lon="7.72885">
        <ele>1471</ele>
        <time>2017-09-17T16:00:00Z</time>
      </trkpt>
      <trkpt lat="44.05194" lon="7.72884">
        <ele>1471</ele>
        <time>2017-09-17T16:00:01Z</time>
      </trkpt>
      <trkpt lat="44.05197" lon="7.72882">
        <ele>1472</ele>
        <time>2017-09-17T16:00:02Z</time>
      </trkpt>
      <trkpt lat="44.052" lon="7.72881">
        <ele>1472</ele>
        <time>2017-09-17T16:00:03Z</time>
      </trkpt>
      <trkpt lat="44.05203" lon="7.72879">
        <ele>1472</ele>
        <time>2017-09-17T16:00:04Z</time>
      </trkpt>
      <trkpt lat="44.05207" lon="7.72877">
        <ele>1472</ele>
        <time>2017-09-17T16:00:05Z</time>
      </trkpt>
      <trkpt lat="44.0521" lon="7.72876">
        <ele>1472</ele>
        <time>2017-09-17T16:00:06Z</time>
      </trkpt>
      <trkpt lat="44.05213" lon="7.72874">
        <ele>1472</ele>
        <time>2017-09-17T16:00:07Z</time>
      </trkpt>
      <trkpt lat="44.05216" lon="7.72872">
        <ele>1473</ele>
        <time>2017-09-17T16:00:08Z</time>
      </trkpt>
      <trkpt lat="44.05218" lon="7.72868">
        <ele>1473</ele>
        <time>2017-09-17T16:00:09Z</time>
      </trkpt>
      <trkpt lat="44.05221" lon="7.72864">
        <ele>1473</ele>
        <time>2017-09-17T16:00:10Z</time>
      </trkpt>
      <trkpt lat="44.05222" lon="7.72859">
        <ele>1474</ele>
        <time>2017-09-17T16:00:11Z</time>
      </trkpt>
      <trkpt lat="44.05223" lon="7.72854">
        <ele>1474</ele>
        <time>2017-09-17T16:00:12Z</time>
      </trkpt>
      <trkpt lat="44.05224" lon="7.72848">
        <ele>1475</ele>
        <time>2017-09-17T16:00:13Z</time>
      </trkpt>
      <trkpt lat="44.05224" lon="7.72842">
        <ele>1475</ele>
        <time>2017-09-17T16:00:14Z</time>
      </trkpt>
      <trkpt lat="44.05223" lon="7.72837">
        <ele>1475</ele>
        <time>2017-09-17T16:00:15Z</time>
      </trkpt>
      <trkpt lat="44.05222" lon="7.72831">
        <ele>1476</ele>
        <time>2017-09-17T16:00:16Z</time>
      </trkpt>
      <trkpt lat="44.05221" lon="7.72826">
        <ele>1476</ele>
        <time>2017-09-17T16:00:17Z</time>
      </trkpt>
      <trkpt lat="44.05219" lon="7.7282">
        <ele>1477</ele>
        <time>2017-09-17T16:00:18Z</time>
      </trkpt>
      <trkpt lat="44.05216" lon="7.72815">
        <ele>1477</ele>
        <time>2017-09-17T16:00:19Z</time>
      </trkpt>
      <trkpt lat="44.05212" lon="7.72811">
        <ele>1478</ele>
        <time>2017-09-17T16:00:20Z</time>
      </trkpt>
      <trkpt lat="44.0521" lon="7.72807">
        <ele>1478</ele>
        <time>2017-09-17T16:00:21Z</time>
      </trkpt>
      <trkpt lat="44.05207" lon="7.72803">
        <ele>1479</ele>
        <time>2017-09-17T16:00:22Z</time>
      </trkpt>
      <trkpt lat="44.05205" lon="7.72798">
        <ele>1479</ele>
        <time>2017-09-17T16:00:23Z</time>
      </trkpt>
      <trkpt lat="44.05203" lon="7.72792">
        <ele>1480</ele>
        <time>2017-09-17T16:00:24Z</time>
      </trkpt>
      <trkpt lat="44.05202" lon="7.72786">
        <ele>1480</ele>
        <time>2017-09-17T16:00:25Z</time>
      </trkpt>
      <trkpt lat="44.05202" lon="7.7278">
        <ele>1480</ele>
        <time>2017-09-17T16:00:26Z</time>
      </trkpt>
      <trkpt lat="44.05201" lon="7.72774">
        <ele>1481</ele>
        <time>2017-09-17T16:00:27Z</time>
      </trkpt>
      <trkpt lat="44.05201" lon="7.72768">
        <ele>1481</ele>
        <time>2017-09-17T16:00:28Z</time>
      </trkpt>
      <trkpt lat="44.05202" lon="7.72762">
        <ele>1482</ele>
        <time>2017-09-17T16:00:29Z</time>
      </trkpt>
      <trkpt lat="44.05202" lon="7.72756">
        <ele>1482</ele>
        <time>2017-09-17T16:00:30Z</time>
      </trkpt>
      <trkpt lat="44.05202" lon="7.7275">
        <ele>1482</ele>
        <time>2017-09-17T16:00:31Z</time>
      </trkpt>
      <trkpt lat="44.05202" lon="7.72744">
        <ele>1482</ele>
        <time>2017-09-17T16:00:32Z</time>
      </trkpt>
      <trkpt lat="44.05202" lon="7.72738">
        <ele>1483</ele>
        <time>2017-09-17T16:00:33Z</time>
      </trkpt>
      <trkpt lat="44.05203" lon="7.72732">
        <ele>1483</ele>
        <time>2017-09-17T16:00:34Z</time>
      </trkpt>
      <trkpt lat="44.05203" lon="7.72726">
        <ele>1483</ele>
        <time>2017-09-17T16:00:35Z</time>
      </trkpt>
      <trkpt lat="44.05203" lon="7.72721">
        <ele>1484</ele>
        <time>2017-09-17T16:00:36Z</time>
      </trkpt>
      <trkpt lat="44.05204" lon="7.72715">
        <ele>1484</ele>
        <time>2017-09-17T16:00:37Z</time>
      </trkpt>
      <trkpt lat="44.05206" lon="7.7271">
        <ele>1484</ele>
        <time>2017-09-17T16:00:38Z</time>
      </trkpt>
      <trkpt lat="44.05207" lon="7.72705">
        <ele>1485</ele>
        <time>2017-09-17T16:00:39Z</time>
      </trkpt>
      <trkpt lat="44.0521" lon="7.72701">
        <ele>1485</ele>
        <time>2017-09-17T16:00:40Z</time>
      </trkpt>
      <trkpt lat="44.05213" lon="7.72698">
        <ele>1485</ele>
        <time>2017-09-17T16:00:41Z</time>
      </trkpt>
      <trkpt lat="44.05216" lon="7.72695">
        <ele>1486</ele>
        <time>2017-09-17T16:00:42Z</time>
      </trkpt>
      <trkpt lat="44.05219" lon="7.72691">
        <ele>1486</ele>
        <time>2017-09-17T16:00:43Z</time>
      </trkpt>
      <trkpt lat="44.05222" lon="7.72687">
        <ele>1486</ele>
        <time>2017-09-17T16:00:44Z</time>
      </trkpt>
      <trkpt lat="44.05226" lon="7.72684">
        <ele>1487</ele>
        <time>2017-09-17T16:00:45Z</time>
      </trkpt>
      <trkpt lat="44.05229" lon="7.7268">
        <ele>1487</ele>
        <time>2017-09-17T16:00:46Z</time>
      </trkpt>
      <trkpt lat="44.05232" lon="7.72676">
        <ele>1487</ele>
        <time>2017-09-17T16:00:47Z</time>
      </trkpt>
      <trkpt lat="44.05236" lon="7.72672">
        <ele>1487</ele>
        <time>2017-09-17T16:00:48Z</time>
      </trkpt>
      <trkpt lat="44.05238" lon="7.72668">
        <ele>1488</ele>
        <time>2017-09-17T16:00:49Z</time>
      </trkpt>
      <trkpt lat="44.05241" lon="7.72663">
        <ele>1488</ele>
        <time>2017-09-17T16:00:50Z</time>
      </trkpt>
      <trkpt lat="44.05244" lon="7.72658">
        <ele>1488</ele>
        <time>2017-09-17T16:00:51Z</time>
      </trkpt>
      <trkpt lat="44.05247" lon="7.72654">
        <ele>1488</ele>
        <time>2017-09-17T16:00:52Z</time>
      </trkpt>
      <trkpt lat="44.05251" lon="7.7265">
        <ele>1488</ele>
        <time>2017-09-17T16:00:53Z</time>
      </trkpt>
      <trkpt lat="44.05255" lon="7.72647">
        <ele>1489</ele>
        <time>2017-09-17T16:00:54Z</time>
      </trkpt>
      <trkpt lat="44.05259" lon="7.72644">
        <ele>1489</ele>
        <time>2017-09-17T16:00:55Z</time>
      </trkpt>
      <trkpt lat="44.05263" lon="7.72642">
        <ele>1489</ele>
        <time>2017-09-17T16:00:56Z</time>
      </trkpt>
      <trkpt lat="44.05267" lon="7.72641">
        <ele>1490</ele>
        <time>2017-09-17T16:00:57Z</time>
      </trkpt>
      <trkpt lat="44.05271" lon="7.7264">
        <ele>1490</ele>
        <time>2017-09-17T16:00:58Z</time>
      </trkpt>
      <trkpt lat="44.05274" lon="7.7264">
        <ele>1490</ele>
        <time>2017-09-17T16:00:59Z</time>
      </trkpt>
      <trkpt lat="44.05278" lon="7.72639">
        <ele>1490</ele>
        <time>2017-09-17T16:01:00Z</time>
      </trkpt>
      <trkpt lat="44.05282" lon="7.72639">
        <ele>1491</ele>
        <time>2017-09-17T16:01:01Z</time>
      </trkpt>
      <trkpt lat="44.05285" lon="7.72638">
        <ele>1491</ele>
        <time>2017-09-17T16:01:02Z</time>
      </trkpt>
      <trkpt lat="44.05289" lon="7.72637">
        <ele>1491</ele>
        <time>2017-09-17T16:01:03Z</time>
      </trkpt>
      <trkpt lat="44.05293" lon="7.72635">
        <ele>1491</ele>
        <time>2017-09-17T16:01:04Z</time>
      </trkpt>
      <trkpt lat="44.05297" lon="7.72634">
        <ele>1492</ele>
        <time>2017-09-17T16:01:05Z</time>
      </trkpt>
      <trkpt lat="44.05301" lon="7.72632">
        <ele>1492</ele>
        <time>2017-09-17T16:01:06Z</time>
      </trkpt>
      <trkpt lat="44.05305" lon="7.72631">
        <ele>1492</ele>
        <time>2017-09-17T16:01:07Z</time>
      </trkpt>
      <trkpt lat="44.05309" lon="7.7263">
        <ele>1492</ele>
        <time>2017-09-17T16:01:08Z</time>
      </trkpt>
      <trkpt lat="44.05314" lon="7.72628">
        <ele>1493</ele>
        <time>2017-09-17T16:01:09Z</time>
      </trkpt>
      <trkpt lat="44.05318" lon="7.72626">
        <ele>1493</ele>
        <time>2017-09-17T16:01:10Z</time>
      </trkpt>
      <trkpt lat="44.05322" lon="7.72625">
        <ele>1493</ele>
        <time>2017-09-17T16:01:11Z</time>
      </trkpt>
      <trkpt lat="44.05326" lon="7.72624">
        <ele>1493</ele>
        <time>2017-09-17T16:01:12Z</time>
      </trkpt>
      <trkpt lat="44.0533" lon="7.72622">
        <ele>1494</ele>
        <time>2017-09-17T16:01:13Z</time>
      </trkpt>
      <trkpt lat="44.05334" lon="7.7262">
        <ele>1494</ele>
        <time>2017-09-17T16:01:14Z</time>
      </trkpt>
      <trkpt lat="44.05338" lon="7.72619">
        <ele>1494</ele>
        <time>2017-09-17T16:01:15Z</time>
      </trkpt>
      <trkpt lat="44.05342" lon="7.72616">
        <ele>1494</ele>
        <time>2017-09-17T16:01:16Z</time>
      </trkpt>
      <trkpt lat="44.05346" lon="7.72615">
        <ele>1495</ele>
        <time>2017-09-17T16:01:17Z</time>
      </trkpt>
      <trkpt lat="44.0535" lon="7.72613">
        <ele>1495</ele>
        <time>2017-09-17T16:01:18Z</time>
      </trkpt>
      <trkpt lat="44.05354" lon="7.72612">
        <ele>1495</ele>
        <time>2017-09-17T16:01:19Z</time>
      </trkpt>
      <trkpt lat="44.05359" lon="7.72612">
        <ele>1495</ele>
        <time>2017-09-17T16:01:20Z</time>
      </trkpt>
      <trkpt lat="44.05363" lon="7.72612">
        <ele>1496</ele>
        <time>2017-09-17T16:01:21Z</time>
      </trkpt>
      <trkpt lat="44.05367" lon="7.72613">
        <ele>1496</ele>
        <time>2017-09-17T16:01:22Z</time>
      </trkpt>
      <trkpt lat="44.05372" lon="7.72615">
        <ele>1496</ele>
        <time>2017-09-17T16:01:23Z</time>
      </trkpt>
      <trkpt lat="44.05375" lon="7.72617">
        <ele>1496</ele>
        <time>2017-09-17T16:01:24Z</time>
      </trkpt>
      <trkpt lat="44.05379" lon="7.72618">
        <ele>1497</ele>
        <time>2017-09-17T16:01:25Z</time>
      </trkpt>
      <trkpt lat="44.05384" lon="7.72618">
        <ele>1497</ele>
        <time>2017-09-17T16:01:26Z</time>
      </trkpt>
      <trkpt lat="44.05389" lon="7.72616">
        <ele>1497</ele>
        <time>2017-09-17T16:01:27Z</time>
      </trkpt>
      <trkpt lat="44.05393" lon="7.72612">
        <ele>1497</ele>
        <time>2017-09-17T16:01:28Z</time>
      </trkpt>
      <trkpt lat="44.05397" lon="7.72607">
        <ele>1497</ele>
        <time>2017-09-17T16:01:29Z</time>
      </trkpt>
      <trkpt lat="44.054" lon="7.72601">
        <ele>1498</ele>
        <time>2017-09-17T16:01:30Z</time>
      </trkpt>
      <trkpt lat="44.05402" lon="7.72594">
        <ele>1498</ele>
        <time>2017-09-17T16:01:31Z</time>
      </trkpt>
      <trkpt lat="44.05402" lon="7.72587">
        <ele>1498</ele>
        <time>2017-09-17T16:01:32Z</time>
      </trkpt>
      <trkpt lat="44.05402" lon="7.7258">
        <ele>1498</ele>
        <time>2017-09-17T16:01:33Z</time>
      </trkpt>
      <trkpt lat="44.05401" lon="7.72574">
        <ele>1499</ele>
        <time>2017-09-17T16:01:34Z</time>
      </trkpt>
      <trkpt lat="44.054" lon="7.72567">
        <ele>1499</ele>
        <time>2017-09-17T16:01:35Z</time>
      </trkpt>
      <trkpt lat="44.05398" lon="7.72561">
        <ele>1499</ele>
        <time>2017-09-17T16:01:36Z</time>
      </trkpt>
      <trkpt lat="44.05398" lon="7.72554">
        <ele>1500</ele>
        <time>2017-09-17T16:01:37Z</time>
      </trkpt>
      <trkpt lat="44.05396" lon="7.72549">
        <ele>1500</ele>
        <time>2017-09-17T16:01:38Z</time>
      </trkpt>
      <trkpt lat="44.05394" lon="7.72542">
        <ele>1501</ele>
        <time>2017-09-17T16:01:39Z</time>
      </trkpt>
      <trkpt lat="44.05392" lon="7.72536">
        <ele>1501</ele>
        <time>2017-09-17T16:01:40Z</time>
      </trkpt>
      <trkpt lat="44.05391" lon="7.72529">
        <ele>1501</ele>
        <time>2017-09-17T16:01:41Z</time>
      </trkpt>
      <trkpt lat="44.0539" lon="7.72523">
        <ele>1502</ele>
        <time>2017-09-17T16:01:42Z</time>
      </trkpt>
      <trkpt lat="44.05389" lon="7.72516">
        <ele>1502</ele>
        <time>2017-09-17T16:01:43Z</time>
      </trkpt>
      <trkpt lat="44.05387" lon="7.72509">
        <ele>1503</ele>
        <time>2017-09-17T16:01:44Z</time>
      </trkpt>
      <trkpt lat="44.05386" lon="7.72502">
        <ele>1503</ele>
        <time>2017-09-17T16:01:45Z</time>
      </trkpt>
      <trkpt lat="44.05385" lon="7.72495">
        <ele>1503</ele>
        <time>2017-09-17T16:01:46Z</time>
      </trkpt>
      <trkpt lat="44.05384" lon="7.72488">
        <ele>1504</ele>
        <time>2017-09-17T16:01:47Z</time>
      </trkpt>
      <trkpt lat="44.05383" lon="7.72481">
        <ele>1504</ele>
        <time>2017-09-17T16:01:48Z</time>
      </trkpt>
      <trkpt lat="44.05382" lon="7.72474">
        <ele>1504</ele>
        <time>2017-09-17T16:01:49Z</time>
      </trkpt>
      <trkpt lat="44.05382" lon="7.72467">
        <ele>1505</ele>
        <time>2017-09-17T16:01:50Z</time>
      </trkpt>
      <trkpt lat="44.05382" lon="7.72461">
        <ele>1505</ele>
        <time>2017-09-17T16:01:51Z</time>
      </trkpt>
      <trkpt lat="44.05382" lon="7.72454">
        <ele>1505</ele>
        <time>2017-09-17T16:01:52Z</time>
      </trkpt>
      <trkpt lat="44.05381" lon="7.72447">
        <ele>1506</ele>
        <time>2017-09-17T16:01:53Z</time>
      </trkpt>
      <trkpt lat="44.0538" lon="7.7244">
        <ele>1506</ele>
        <time>2017-09-17T16:01:54Z</time>
      </trkpt>
      <trkpt lat="44.05379" lon="7.72433">
        <ele>1506</ele>
        <time>2017-09-17T16:01:55Z</time>
      </trkpt>
      <trkpt lat="44.05378" lon="7.72427">
        <ele>1507</ele>
        <time>2017-09-17T16:01:56Z</time>
      </trkpt>
      <trkpt lat="44.05378" lon="7.7242">
        <ele>1507</ele>
        <time>2017-09-17T16:01:57Z</time>
      </trkpt>
      <trkpt lat="44.05379" lon="7.72413">
        <ele>1507</ele>
        <time>2017-09-17T16:01:58Z</time>
      </trkpt>
      <trkpt lat="44.0538" lon="7.72406">
        <ele>1508</ele>
        <time>2017-09-17T16:01:59Z</time>
      </trkpt>
      <trkpt lat="44.05382" lon="7.724">
        <ele>1508</ele>
        <time>2017-09-17T16:02:00Z</time>
      </trkpt>
      <trkpt lat="44.05384" lon="7.72394">
        <ele>1508</ele>
        <time>2017-09-17T16:02:01Z</time>
      </trkpt>
      <trkpt lat="44.05386" lon="7.72387">
        <ele>1509</ele>
        <time>2017-09-17T16:02:02Z</time>
      </trkpt>
      <trkpt lat="44.05388" lon="7.72382">
        <ele>1509</ele>
        <time>2017-09-17T16:02:03Z</time>
      </trkpt>
      <trkpt lat="44.0539" lon="7.72376">
        <ele>1509</ele>
        <time>2017-09-17T16:02:04Z</time>
      </trkpt>
      <trkpt lat="44.05392" lon="7.7237">
        <ele>1509</ele>
        <time>2017-09-17T16:02:05Z</time>
      </trkpt>
      <trkpt lat="44.05394" lon="7.72365">
        <ele>1510</ele>
        <time>2017-09-17T16:02:06Z</time>
      </trkpt>
      <trkpt lat="44.05396" lon="7.72359">
        <ele>1510</ele>
        <time>2017-09-17T16:02:07Z</time>
      </trkpt>
      <trkpt lat="44.05398" lon="7.72354">
        <ele>1511</ele>
        <time>2017-09-17T16:02:08Z</time>
      </trkpt>
      <trkpt lat="44.054" lon="7.72348">
        <ele>1511</ele>
        <time>2017-09-17T16:02:09Z</time>
      </trkpt>
      <trkpt lat="44.05402" lon="7.72343">
        <ele>1511</ele>
        <time>2017-09-17T16:02:10Z</time>
      </trkpt>
      <trkpt lat="44.05403" lon="7.72337">
        <ele>1512</ele>
        <time>2017-09-17T16:02:11Z</time>
      </trkpt>
      <trkpt lat="44.05402" lon="7.7233">
        <ele>1512</ele>
        <time>2017-09-17T16:02:12Z</time>
      </trkpt>
      <trkpt lat="44.054" lon="7.72324">
        <ele>1512</ele>
        <time>2017-09-17T16:02:13Z</time>
      </trkpt>
      <trkpt lat="44.05398" lon="7.72319">
        <ele>1513</ele>
        <time>2017-09-17T16:02:14Z</time>
      </trkpt>
      <trkpt lat="44.05395" lon="7.72313">
        <ele>1513</ele>
        <time>2017-09-17T16:02:15Z</time>
      </trkpt>
      <trkpt lat="44.05391" lon="7.7231">
        <ele>1513</ele>
        <time>2017-09-17T16:02:16Z</time>
      </trkpt>
      <trkpt lat="44.05387" lon="7.72306">
        <ele>1514</ele>
        <time>2017-09-17T16:02:17Z</time>
      </trkpt>
      <trkpt lat="44.05384" lon="7.72302">
        <ele>1514</ele>
        <time>2017-09-17T16:02:18Z</time>
      </trkpt>
      <trkpt lat="44.0538" lon="7.72297">
        <ele>1515</ele>
        <time>2017-09-17T16:02:19Z</time>
      </trkpt>
      <trkpt lat="44.05377" lon="7.72293">
        <ele>1515</ele>
        <time>2017-09-17T16:02:20Z</time>
      </trkpt>
      <trkpt lat="44.05373" lon="7.72288">
        <ele>1516</ele>
        <time>2017-09-17T16:02:21Z</time>
      </trkpt>
      <trkpt lat="44.0537" lon="7.72283">
        <ele>1516</ele>
        <time>2017-09-17T16:02:22Z</time>
      </trkpt>
      <trkpt lat="44.05367" lon="7.72278">
        <ele>1517</ele>
        <time>2017-09-17T16:02:23Z</time>
      </trkpt>
      <trkpt lat="44.05365" lon="7.72272">
        <ele>1517</ele>
        <time>2017-09-17T16:02:24Z</time>
      </trkpt>
      <trkpt lat="44.05363" lon="7.72266">
        <ele>1518</ele>
        <time>2017-09-17T16:02:25Z</time>
      </trkpt>
      <trkpt lat="44.05361" lon="7.7226">
        <ele>1518</ele>
        <time>2017-09-17T16:02:26Z</time>
      </trkpt>
      <trkpt lat="44.05359" lon="7.72255">
        <ele>1519</ele>
        <time>2017-09-17T16:02:27Z</time>
      </trkpt>
      <trkpt lat="44.05357" lon="7.72249">
        <ele>1519</ele>
        <time>2017-09-17T16:02:28Z</time>
      </trkpt>
      <trkpt lat="44.05355" lon="7.72243">
        <ele>1519</ele>
        <time>2017-09-17T16:02:29Z</time>
      </trkpt>
      <trkpt lat="44.05354" lon="7.72237">
        <ele>1520</ele>
        <time>2017-09-17T16:02:30Z</time>
      </trkpt>
      <trkpt lat="44.05352" lon="7.72231">
        <ele>1520</ele>
        <time>2017-09-17T16:02:31Z</time>
      </trkpt>
      <trkpt lat="44.05349" lon="7.72225">
        <ele>1520</ele>
        <time>2017-09-17T16:02:32Z</time>
      </trkpt>
      <trkpt lat="44.05347" lon="7.7222">
        <ele>1521</ele>
        <time>2017-09-17T16:02:33Z</time>
      </trkpt>
      <trkpt lat="44.05345" lon="7.72214">
        <ele>1521</ele>
        <time>2017-09-17T16:02:34Z</time>
      </trkpt>
      <trkpt lat="44.05343" lon="7.72208">
        <ele>1522</ele>
        <time>2017-09-17T16:02:35Z</time>
      </trkpt>
      <trkpt lat="44.0534" lon="7.72203">
        <ele>1522</ele>
        <time>2017-09-17T16:02:36Z</time>
      </trkpt>
      <trkpt lat="44.05337" lon="7.72198">
        <ele>1522</ele>
        <time>2017-09-17T16:02:37Z</time>
      </trkpt>
      <trkpt lat="44.05335" lon="7.72192">
        <ele>1523</ele>
        <time>2017-09-17T16:02:38Z</time>
      </trkpt>
      <trkpt lat="44.05333" lon="7.72186">
        <ele>1523</ele>
        <time>2017-09-17T16:02:39Z</time>
      </trkpt>
      <trkpt lat="44.05331" lon="7.7218">
        <ele>1523</ele>
        <time>2017-09-17T16:02:40Z</time>
      </trkpt>
      <trkpt lat="44.05331" lon="7.72174">
        <ele>1524</ele>
        <time>2017-09-17T16:02:41Z</time>
      </trkpt>
      <trkpt lat="44.05331" lon="7.72168">
        <ele>1524</ele>
        <time>2017-09-17T16:02:42Z</time>
      </trkpt>
      <trkpt lat="44.05333" lon="7.72162">
        <ele>1524</ele>
        <time>2017-09-17T16:02:43Z</time>
      </trkpt>
      <trkpt lat="44.05336" lon="7.72157">
        <ele>1525</ele>
        <time>2017-09-17T16:02:44Z</time>
      </trkpt>
      <trkpt lat="44.0534" lon="7.72153">
        <ele>1525</ele>
        <time>2017-09-17T16:02:45Z</time>
      </trkpt>
      <trkpt lat="44.05344" lon="7.7215">
        <ele>1525</ele>
        <time>2017-09-17T16:02:46Z</time>
      </trkpt>
      <trkpt lat="44.05349" lon="7.72146">
        <ele>1525</ele>
        <time>2017-09-17T16:02:47Z</time>
      </trkpt>
      <trkpt lat="44.05353" lon="7.72142">
        <ele>1525</ele>
        <time>2017-09-17T16:02:48Z</time>
      </trkpt>
      <trkpt lat="44.05358" lon="7.72139">
        <ele>1526</ele>
        <time>2017-09-17T16:02:49Z</time>
      </trkpt>
      <trkpt lat="44.05362" lon="7.72135">
        <ele>1526</ele>
        <time>2017-09-17T16:02:50Z</time>
      </trkpt>
      <trkpt lat="44.05367" lon="7.72132">
        <ele>1526</ele>
        <time>2017-09-17T16:02:51Z</time>
      </trkpt>
      <trkpt lat="44.05372" lon="7.72128">
        <ele>1526</ele>
        <time>2017-09-17T16:02:52Z</time>
      </trkpt>
      <trkpt lat="44.05376" lon="7.72125">
        <ele>1527</ele>
        <time>2017-09-17T16:02:53Z</time>
      </trkpt>
      <trkpt lat="44.05382" lon="7.72122">
        <ele>1527</ele>
        <time>2017-09-17T16:02:54Z</time>
      </trkpt>
      <trkpt lat="44.05386" lon="7.72118">
        <ele>1527</ele>
        <time>2017-09-17T16:02:55Z</time>
      </trkpt>
      <trkpt lat="44.05391" lon="7.72115">
        <ele>1527</ele>
        <time>2017-09-17T16:02:56Z</time>
      </trkpt>
      <trkpt lat="44.05396" lon="7.7211">
        <ele>1528</ele>
        <time>2017-09-17T16:02:57Z</time>
      </trkpt>
      <trkpt lat="44.05401" lon="7.72105">
        <ele>1528</ele>
        <time>2017-09-17T16:02:58Z</time>
      </trkpt>
      <trkpt lat="44.05405" lon="7.721">
        <ele>1528</ele>
        <time>2017-09-17T16:02:59Z</time>
      </trkpt>
      <trkpt lat="44.05409" lon="7.72095">
        <ele>1528</ele>
        <time>2017-09-17T16:03:00Z</time>
      </trkpt>
      <trkpt lat="44.05413" lon="7.72089">
        <ele>1529</ele>
        <time>2017-09-17T16:03:01Z</time>
      </trkpt>
      <trkpt lat="44.05417" lon="7.72084">
        <ele>1529</ele>
        <time>2017-09-17T16:03:02Z</time>
      </trkpt>
      <trkpt lat="44.05421" lon="7.72078">
        <ele>1529</ele>
        <time>2017-09-17T16:03:03Z</time>
      </trkpt>
      <trkpt lat="44.05426" lon="7.72074">
        <ele>1529</ele>
        <time>2017-09-17T16:03:04Z</time>
      </trkpt>
      <trkpt lat="44.0543" lon="7.7207">
        <ele>1530</ele>
        <time>2017-09-17T16:03:05Z</time>
      </trkpt>
      <trkpt lat="44.05435" lon="7.72066">
        <ele>1530</ele>
        <time>2017-09-17T16:03:06Z</time>
      </trkpt>
      <trkpt lat="44.0544" lon="7.72063">
        <ele>1530</ele>
        <time>2017-09-17T16:03:07Z</time>
      </trkpt>
      <trkpt lat="44.05446" lon="7.7206">
        <ele>1530</ele>
        <time>2017-09-17T16:03:08Z</time>
      </trkpt>
      <trkpt lat="44.05451" lon="7.72059">
        <ele>1531</ele>
        <time>2017-09-17T16:03:09Z</time>
      </trkpt>
      <trkpt lat="44.05456" lon="7.72056">
        <ele>1531</ele>
        <time>2017-09-17T16:03:10Z</time>
      </trkpt>
      <trkpt lat="44.05461" lon="7.72052">
        <ele>1531</ele>
        <time>2017-09-17T16:03:11Z</time>
      </trkpt>
      <trkpt lat="44.05464" lon="7.72046">
        <ele>1531</ele>
        <time>2017-09-17T16:03:12Z</time>
      </trkpt>
      <trkpt lat="44.05467" lon="7.72039">
        <ele>1531</ele>
        <time>2017-09-17T16:03:13Z</time>
      </trkpt>
      <trkpt lat="44.05468" lon="7.72032">
        <ele>1531</ele>
        <time>2017-09-17T16:03:14Z</time>
      </trkpt>
      <trkpt lat="44.05468" lon="7.72024">
        <ele>1532</ele>
        <time>2017-09-17T16:03:15Z</time>
      </trkpt>
      <trkpt lat="44.05467" lon="7.72016">
        <ele>1532</ele>
        <time>2017-09-17T16:03:16Z</time>
      </trkpt>
      <trkpt lat="44.05466" lon="7.72009">
        <ele>1532</ele>
        <time>2017-09-17T16:03:17Z</time>
      </trkpt>
      <trkpt lat="44.05465" lon="7.72002">
        <ele>1532</ele>
        <time>2017-09-17T16:03:18Z</time>
      </trkpt>
      <trkpt lat="44.05464" lon="7.71995">
        <ele>1532</ele>
        <time>2017-09-17T16:03:19Z</time>
      </trkpt>
      <trkpt lat="44.05462" lon="7.71988">
        <ele>1533</ele>
        <time>2017-09-17T16:03:20Z</time>
      </trkpt>
      <trkpt lat="44.05461" lon="7.7198">
        <ele>1533</ele>
        <time>2017-09-17T16:03:21Z</time>
      </trkpt>
      <trkpt lat="44.05459" lon="7.71973">
        <ele>1533</ele>
        <time>2017-09-17T16:03:22Z</time>
      </trkpt>
      <trkpt lat="44.05458" lon="7.71966">
        <ele>1533</ele>
        <time>2017-09-17T16:03:23Z</time>
      </trkpt>
      <trkpt lat="44.05456" lon="7.71958">
        <ele>1534</ele>
        <time>2017-09-17T16:03:24Z</time>
      </trkpt>
      <trkpt lat="44.05455" lon="7.71951">
        <ele>1534</ele>
        <time>2017-09-17T16:03:25Z</time>
      </trkpt>
      <trkpt lat="44.05453" lon="7.71944">
        <ele>1534</ele>
        <time>2017-09-17T16:03:26Z</time>
      </trkpt>
      <trkpt lat="44.05452" lon="7.71937">
        <ele>1534</ele>
        <time>2017-09-17T16:03:27Z</time>
      </trkpt>
      <trkpt lat="44.05451" lon="7.7193">
        <ele>1535</ele>
        <time>2017-09-17T16:03:28Z</time>
      </trkpt>
      <trkpt lat="44.0545" lon="7.71922">
        <ele>1535</ele>
        <time>2017-09-17T16:03:29Z</time>
      </trkpt>
      <trkpt lat="44.05449" lon="7.71915">
        <ele>1535</ele>
        <time>2017-09-17T16:03:30Z</time>
      </trkpt>
      <trkpt lat="44.05448" lon="7.71907">
        <ele>1535</ele>
        <time>2017-09-17T16:03:31Z</time>
      </trkpt>
      <trkpt lat="44.05448" lon="7.719">
        <ele>1536</ele>
        <time>2017-09-17T16:03:32Z</time>
      </trkpt>
      <trkpt lat="44.05447" lon="7.71892">
        <ele>1536</ele>
        <time>2017-09-17T16:03:33Z</time>
      </trkpt>
      <trkpt lat="44.05447" lon="7.71885">
        <ele>1536</ele>
        <time>2017-09-17T16:03:34Z</time>
      </trkpt>
      <trkpt lat="44.05447" lon="7.71877">
        <ele>1536</ele>
        <time>2017-09-17T16:03:35Z</time>
      </trkpt>
      <trkpt lat="44.05447" lon="7.7187">
        <ele>1537</ele>
        <time>2017-09-17T16:03:36Z</time>
      </trkpt>
      <trkpt lat="44.05447" lon="7.71863">
        <ele>1537</ele>
        <time>2017-09-17T16:03:37Z</time>
      </trkpt>
      <trkpt lat="44.05448" lon="7.71857">
        <ele>1537</ele>
        <time>2017-09-17T16:03:38Z</time>
      </trkpt>
      <trkpt lat="44.0545" lon="7.71853">
        <ele>1538</ele>
        <time>2017-09-17T16:03:39Z</time>
      </trkpt>
      <trkpt lat="44.05452" lon="7.71849">
        <ele>1538</ele>
        <time>2017-09-17T16:03:40Z</time>
      </trkpt>
      <trkpt lat="44.05454" lon="7.71846">
        <ele>1538</ele>
        <time>2017-09-17T16:03:41Z</time>
      </trkpt>
      <trkpt lat="44.05455" lon="7.71845">
        <ele>1538</ele>
        <time>2017-09-17T16:03:42Z</time>
      </trkpt>
      <trkpt lat="44.05455" lon="7.71844">
        <ele>1538</ele>
        <time>2017-09-17T16:03:43Z</time>
      </trkpt>
      <trkpt lat="44.05455" lon="7.71844">
        <ele>1538</ele>
        <time>2017-09-17T16:03:44Z</time>
      </trkpt>
      <trkpt lat="44.05455" lon="7.71844">
        <ele>1538</ele>
        <time>2017-09-17T16:03:45Z</time>
      </trkpt>
      <trkpt lat="44.05455" lon="7.71844">
        <ele>1538</ele>
        <time>2017-09-17T16:03:46Z</time>
      </trkpt>
      <trkpt lat="44.05455" lon="7.71844">
        <ele>1539</ele>
        <time>2017-09-17T16:03:47Z</time>
      </trkpt>
      <trkpt lat="44.05455" lon="7.71843">
        <ele>1539</ele>
        <time>2017-09-17T16:03:48Z</time>
      </trkpt>
      <trkpt lat="44.05455" lon="7.71843">
        <ele>1539</ele>
        <time>2017-09-17T16:03:49Z</time>
      </trkpt>
      <trkpt lat="44.05455" lon="7.71843">
        <ele>1539</ele>
        <time>2017-09-17T16:03:50Z</time>
      </trkpt>
      <trkpt lat="44.05455" lon="7.71843">
        <ele>1539</ele>
        <time>2017-09-17T16:03:51Z</time>
      </trkpt>
      <trkpt lat="44.05455" lon="7.71843">
        <ele>1539</ele>
        <time>2017-09-17T16:03:52Z</time>
      </trkpt>
      <trkpt lat="44.05455" lon="7.71843">
        <ele>1539</ele>
        <time>2017-09-17T16:03:53Z</time>
      </trkpt>
      <trkpt lat="44.05455" lon="7.71843">
        <ele>1539</ele>
        <time>2017-09-17T16:03:54Z</time>
      </trkpt>
      <trkpt lat="44.05455" lon="7.71843">
        <ele>1539</ele>
        <time>2017-09-17T16:03:55Z</time>
      </trkpt>
      <trkpt lat="44.05455" lon="7.71843">
        <ele>1539</ele>
        <time>2017-09-17T16:03:56Z</time>
      </trkpt>
      <trkpt lat="44.05455" lon="7.71843">
        <ele>1539</ele>
        <time>2017-09-17T16:03:57Z</time>
      </trkpt>
      <trkpt lat="44.05455" lon="7.71843">
        <ele>1539</ele>
        <time>2017-09-17T16:03:58Z</time>
      </trkpt>
      <trkpt lat="44.05455" lon="7.71843">
        <ele>1539</ele>
        <time>2017-09-17T16:03:59Z</time>
      </trkpt>
      <trkpt lat="44.05455" lon="7.71843">
        <ele>1539</ele>
        <time>2017-09-17T16:04:00Z</time>
      </trkpt>
      <trkpt lat="44.05455" lon="7.71843">
        <ele>1539</ele>
        <time>2017-09-17T16:04:01Z</time>
      </trkpt>
      <trkpt lat="44.05455" lon="7.71843">
        <ele>1539</ele>
        <time>2017-09-17T16:04:02Z</time>
      </trkpt>
      <trkpt lat="44.05455" lon="7.71843">
        <ele>1539</ele>
        <time>2017-09-17T16:04:03Z</time>
      </trkpt>
      <trkpt lat="44.05455" lon="7.71844">
        <ele>1540</ele>
        <time>2017-09-17T16:04:04Z</time>
      </trkpt>
      <trkpt lat="44.05455" lon="7.71844">
        <ele>1540</ele>
        <time>2017-09-17T16:04:05Z</time>
      </trkpt>
      <trkpt lat="44.05456" lon="7.71844">
        <ele>1540</ele>
        <time>2017-09-17T16:04:06Z</time>
      </trkpt>
      <trkpt lat="44.05456" lon="7.71844">
        <ele>1540</ele>
        <time>2017-09-17T16:04:07Z</time>
      </trkpt>
      <trkpt lat="44.05456" lon="7.71844">
        <ele>1540</ele>
        <time>2017-09-17T16:04:08Z</time>
      </trkpt>
      <trkpt lat="44.05457" lon="7.71843">
        <ele>1540</ele>
        <time>2017-09-17T16:04:09Z</time>
      </trkpt>
      <trkpt lat="44.0546" lon="7.71842">
        <ele>1540</ele>
        <time>2017-09-17T16:04:10Z</time>
      </trkpt>
      <trkpt lat="44.05462" lon="7.71841">
        <ele>1540</ele>
        <time>2017-09-17T16:04:11Z</time>
      </trkpt>
      <trkpt lat="44.05466" lon="7.7184">
        <ele>1540</ele>
        <time>2017-09-17T16:04:12Z</time>
      </trkpt>
      <trkpt lat="44.05469" lon="7.71839">
        <ele>1540</ele>
        <time>2017-09-17T16:04:13Z</time>
      </trkpt>
      <trkpt lat="44.05473" lon="7.71839">
        <ele>1540</ele>
        <time>2017-09-17T16:04:14Z</time>
      </trkpt>
      <trkpt lat="44.05473" lon="7.71839">
        <ele>1543</ele>
        <time>2017-09-17T16:05:51Z</time>
      </trkpt>
      <trkpt lat="44.05473" lon="7.71839">
        <ele>1543</ele>
        <time>2017-09-17T16:05:52Z</time>
      </trkpt>
      <trkpt lat="44.05681" lon="7.71728">
        <ele>1544</ele>
        <time>2017-09-17T16:05:53Z</time>
      </trkpt>
      <trkpt lat="44.0565" lon="7.71713">
        <ele>1544</ele>
        <time>2017-09-17T16:05:54Z</time>
      </trkpt>
      <trkpt lat="44.05622" lon="7.71698">
        <ele>1544</ele>
        <time>2017-09-17T16:05:55Z</time>
      </trkpt>
      <trkpt lat="44.05598" lon="7.71686">
        <ele>1545</ele>
        <time>2017-09-17T16:05:56Z</time>
      </trkpt>
      <trkpt lat="44.05576" lon="7.71675">
        <ele>1545</ele>
        <time>2017-09-17T16:05:57Z</time>
      </trkpt>
      <trkpt lat="44.05556" lon="7.71665">
        <ele>1545</ele>
        <time>2017-09-17T16:05:58Z</time>
      </trkpt>
      <trkpt lat="44.05538" lon="7.71655">
        <ele>1545</ele>
        <time>2017-09-17T16:05:59Z</time>
      </trkpt>
      <trkpt lat="44.05521" lon="7.71646">
        <ele>1545</ele>
        <time>2017-09-17T16:06:00Z</time>
      </trkpt>
      <trkpt lat="44.05506" lon="7.71638">
        <ele>1545</ele>
        <time>2017-09-17T16:06:01Z</time>
      </trkpt>
      <trkpt lat="44.05492" lon="7.7163">
        <ele>1545</ele>
        <time>2017-09-17T16:06:02Z</time>
      </trkpt>
      <trkpt lat="44.05479" lon="7.71623">
        <ele>1545</ele>
        <time>2017-09-17T16:06:03Z</time>
      </trkpt>
      <trkpt lat="44.05467" lon="7.71617">
        <ele>1545</ele>
        <time>2017-09-17T16:06:04Z</time>
      </trkpt>
      <trkpt lat="44.05456" lon="7.71611">
        <ele>1545</ele>
        <time>2017-09-17T16:06:05Z</time>
      </trkpt>
      <trkpt lat="44.05446" lon="7.71605">
        <ele>1545</ele>
        <time>2017-09-17T16:06:06Z</time>
      </trkpt>
      <trkpt lat="44.05437" lon="7.716">
        <ele>1545</ele>
        <time>2017-09-17T16:06:07Z</time>
      </trkpt>
      <trkpt lat="44.05428" lon="7.71596">
        <ele>1545</ele>
        <time>2017-09-17T16:06:08Z</time>
      </trkpt>
      <trkpt lat="44.05421" lon="7.71591">
        <ele>1545</ele>
        <time>2017-09-17T16:06:09Z</time>
      </trkpt>
      <trkpt lat="44.05413" lon="7.71588">
        <ele>1545</ele>
        <time>2017-09-17T16:06:10Z</time>
      </trkpt>
      <trkpt lat="44.05407" lon="7.71584">
        <ele>1545</ele>
        <time>2017-09-17T16:06:11Z</time>
      </trkpt>
      <trkpt lat="44.05401" lon="7.71581">
        <ele>1545</ele>
        <time>2017-09-17T16:06:12Z</time>
      </trkpt>
      <trkpt lat="44.05395" lon="7.71578">
        <ele>1545</ele>
        <time>2017-09-17T16:06:13Z</time>
      </trkpt>
      <trkpt lat="44.0539" lon="7.71575">
        <ele>1545</ele>
        <time>2017-09-17T16:06:14Z</time>
      </trkpt>
      <trkpt lat="44.05385" lon="7.71572">
        <ele>1545</ele>
        <time>2017-09-17T16:06:15Z</time>
      </trkpt>
      <trkpt lat="44.05381" lon="7.7157">
        <ele>1545</ele>
        <time>2017-09-17T16:06:16Z</time>
      </trkpt>
      <trkpt lat="44.05377" lon="7.71567">
        <ele>1544</ele>
        <time>2017-09-17T16:06:17Z</time>
      </trkpt>
      <trkpt lat="44.05373" lon="7.71565">
        <ele>1544</ele>
        <time>2017-09-17T16:06:18Z</time>
      </trkpt>
      <trkpt lat="44.0537" lon="7.71563">
        <ele>1544</ele>
        <time>2017-09-17T16:06:19Z</time>
      </trkpt>
      <trkpt lat="44.05367" lon="7.71562">
        <ele>1544</ele>
        <time>2017-09-17T16:06:20Z</time>
      </trkpt>
      <trkpt lat="44.05364" lon="7.7156">
        <ele>1544</ele>
        <time>2017-09-17T16:06:21Z</time>
      </trkpt>
      <trkpt lat="44.05362" lon="7.71558">
        <ele>1544</ele>
        <time>2017-09-17T16:06:22Z</time>
      </trkpt>
      <trkpt lat="44.05359" lon="7.71557">
        <ele>1544</ele>
        <time>2017-09-17T16:06:23Z</time>
      </trkpt>
      <trkpt lat="44.05356" lon="7.71555">
        <ele>1543</ele>
        <time>2017-09-17T16:06:24Z</time>
      </trkpt>
      <trkpt lat="44.05353" lon="7.71553">
        <ele>1543</ele>
        <time>2017-09-17T16:06:25Z</time>
      </trkpt>
      <trkpt lat="44.05349" lon="7.7155">
        <ele>1543</ele>
        <time>2017-09-17T16:06:26Z</time>
      </trkpt>
      <trkpt lat="44.05344" lon="7.71546">
        <ele>1543</ele>
        <time>2017-09-17T16:06:27Z</time>
      </trkpt>
      <trkpt lat="44.05339" lon="7.71541">
        <ele>1543</ele>
        <time>2017-09-17T16:06:28Z</time>
      </trkpt>
      <trkpt lat="44.05333" lon="7.71536">
        <ele>1542</ele>
        <time>2017-09-17T16:06:29Z</time>
      </trkpt>
      <trkpt lat="44.05327" lon="7.7153">
        <ele>1542</ele>
        <time>2017-09-17T16:06:30Z</time>
      </trkpt>
      <trkpt lat="44.0532" lon="7.71525">
        <ele>1542</ele>
        <time>2017-09-17T16:06:31Z</time>
      </trkpt>
      <trkpt lat="44.05313" lon="7.71521">
        <ele>1542</ele>
        <time>2017-09-17T16:06:32Z</time>
      </trkpt>
      <trkpt lat="44.05306" lon="7.71516">
        <ele>1542</ele>
        <time>2017-09-17T16:06:33Z</time>
      </trkpt>
      <trkpt lat="44.05299" lon="7.71512">
        <ele>1541</ele>
        <time>2017-09-17T16:06:34Z</time>
      </trkpt>
      <trkpt lat="44.05292" lon="7.71508">
        <ele>1541</ele>
        <time>2017-09-17T16:06:35Z</time>
      </trkpt>
      <trkpt lat="44.05285" lon="7.71504">
        <ele>1541</ele>
        <time>2017-09-17T16:06:36Z</time>
      </trkpt>
      <trkpt lat="44.05278" lon="7.71501">
        <ele>1541</ele>
        <time>2017-09-17T16:06:37Z</time>
      </trkpt>
      <trkpt lat="44.05272" lon="7.71497">
        <ele>1541</ele>
        <time>2017-09-17T16:06:38Z</time>
      </trkpt>
      <trkpt lat="44.05266" lon="7.71493">
        <ele>1541</ele>
        <time>2017-09-17T16:06:39Z</time>
      </trkpt>
      <trkpt lat="44.0526" lon="7.7149">
        <ele>1541</ele>
        <time>2017-09-17T16:06:40Z</time>
      </trkpt>
      <trkpt lat="44.05254" lon="7.71486">
        <ele>1541</ele>
        <time>2017-09-17T16:06:41Z</time>
      </trkpt>
      <trkpt lat="44.05247" lon="7.71483">
        <ele>1541</ele>
        <time>2017-09-17T16:06:42Z</time>
      </trkpt>
      <trkpt lat="44.05241" lon="7.7148">
        <ele>1541</ele>
        <time>2017-09-17T16:06:43Z</time>
      </trkpt>
      <trkpt lat="44.05234" lon="7.71476">
        <ele>1541</ele>
        <time>2017-09-17T16:06:44Z</time>
      </trkpt>
      <trkpt lat="44.05228" lon="7.71471">
        <ele>1541</ele>
        <time>2017-09-17T16:06:45Z</time>
      </trkpt>
      <trkpt lat="44.05222" lon="7.71466">
        <ele>1541</ele>
        <time>2017-09-17T16:06:46Z</time>
      </trkpt>
      <trkpt lat="44.05217" lon="7.71461">
        <ele>1541</ele>
        <time>2017-09-17T16:06:47Z</time>
      </trkpt>
      <trkpt lat="44.05211" lon="7.71455">
        <ele>1541</ele>
        <time>2017-09-17T16:06:48Z</time>
      </trkpt>
      <trkpt lat="44.05205" lon="7.7145">
        <ele>1541</ele>
        <time>2017-09-17T16:06:49Z</time>
      </trkpt>
      <trkpt lat="44.052" lon="7.71445">
        <ele>1541</ele>
        <time>2017-09-17T16:06:50Z</time>
      </trkpt>
      <trkpt lat="44.05194" lon="7.7144">
        <ele>1541</ele>
        <time>2017-09-17T16:06:51Z</time>
      </trkpt>
      <trkpt lat="44.05189" lon="7.71436">
        <ele>1541</ele>
        <time>2017-09-17T16:06:52Z</time>
      </trkpt>
      <trkpt lat="44.05183" lon="7.71432">
        <ele>1541</ele>
        <time>2017-09-17T16:06:53Z</time>
      </trkpt>
      <trkpt lat="44.05178" lon="7.71428">
        <ele>1541</ele>
        <time>2017-09-17T16:06:54Z</time>
      </trkpt>
      <trkpt lat="44.05173" lon="7.71422">
        <ele>1541</ele>
        <time>2017-09-17T16:06:55Z</time>
      </trkpt>
      <trkpt lat="44.0517" lon="7.71415">
        <ele>1541</ele>
        <time>2017-09-17T16:06:56Z</time>
      </trkpt>
      <trkpt lat="44.05168" lon="7.71408">
        <ele>1541</ele>
        <time>2017-09-17T16:06:57Z</time>
      </trkpt>
      <trkpt lat="44.05168" lon="7.71401">
        <ele>1541</ele>
        <time>2017-09-17T16:06:58Z</time>
      </trkpt>
      <trkpt lat="44.0517" lon="7.71394">
        <ele>1541</ele>
        <time>2017-09-17T16:06:59Z</time>
      </trkpt>
      <trkpt lat="44.05174" lon="7.71388">
        <ele>1540</ele>
        <time>2017-09-17T16:07:00Z</time>
      </trkpt>
      <trkpt lat="44.05178" lon="7.71382">
        <ele>1540</ele>
        <time>2017-09-17T16:07:01Z</time>
      </trkpt>
      <trkpt lat="44.05182" lon="7.71376">
        <ele>1540</ele>
        <time>2017-09-17T16:07:02Z</time>
      </trkpt>
      <trkpt lat="44.05187" lon="7.71371">
        <ele>1539</ele>
        <time>2017-09-17T16:07:03Z</time>
      </trkpt>
      <trkpt lat="44.05192" lon="7.71366">
        <ele>1539</ele>
        <time>2017-09-17T16:07:04Z</time>
      </trkpt>
      <trkpt lat="44.05197" lon="7.71361">
        <ele>1539</ele>
        <time>2017-09-17T16:07:05Z</time>
      </trkpt>
      <trkpt lat="44.05202" lon="7.71356">
        <ele>1538</ele>
        <time>2017-09-17T16:07:06Z</time>
      </trkpt>
      <trkpt lat="44.05207" lon="7.71352">
        <ele>1538</ele>
        <time>2017-09-17T16:07:07Z</time>
      </trkpt>
      <trkpt lat="44.05212" lon="7.71346">
        <ele>1538</ele>
        <time>2017-09-17T16:07:08Z</time>
      </trkpt>
      <trkpt lat="44.05217" lon="7.71341">
        <ele>1537</ele>
        <time>2017-09-17T16:07:09Z</time>
      </trkpt>
      <trkpt lat="44.05222" lon="7.71336">
        <ele>1537</ele>
        <time>2017-09-17T16:07:10Z</time>
      </trkpt>
      <trkpt lat="44.05227" lon="7.71331">
        <ele>1537</ele>
        <time>2017-09-17T16:07:11Z</time>
      </trkpt>
      <trkpt lat="44.05233" lon="7.71327">
        <ele>1537</ele>
        <time>2017-09-17T16:07:12Z</time>
      </trkpt>
      <trkpt lat="44.05237" lon="7.71322">
        <ele>1537</ele>
        <time>2017-09-17T16:07:13Z</time>
      </trkpt>
      <trkpt lat="44.05241" lon="7.71317">
        <ele>1536</ele>
        <time>2017-09-17T16:07:14Z</time>
      </trkpt>
      <trkpt lat="44.05242" lon="7.71309">
        <ele>1536</ele>
        <time>2017-09-17T16:07:15Z</time>
      </trkpt>
      <trkpt lat="44.05243" lon="7.713">
        <ele>1537</ele>
        <time>2017-09-17T16:07:16Z</time>
      </trkpt>
      <trkpt lat="44.05242" lon="7.71291">
        <ele>1536</ele>
        <time>2017-09-17T16:07:17Z</time>
      </trkpt>
      <trkpt lat="44.05242" lon="7.71282">
        <ele>1536</ele>
        <time>2017-09-17T16:07:18Z</time>
      </trkpt>
      <trkpt lat="44.05242" lon="7.71272">
        <ele>1536</ele>
        <time>2017-09-17T16:07:19Z</time>
      </trkpt>
      <trkpt lat="44.05244" lon="7.71262">
        <ele>1536</ele>
        <time>2017-09-17T16:07:20Z</time>
      </trkpt>
      <trkpt lat="44.05247" lon="7.71254">
        <ele>1536</ele>
        <time>2017-09-17T16:07:21Z</time>
      </trkpt>
      <trkpt lat="44.05252" lon="7.71247">
        <ele>1536</ele>
        <time>2017-09-17T16:07:22Z</time>
      </trkpt>
      <trkpt lat="44.05256" lon="7.71242">
        <ele>1536</ele>
        <time>2017-09-17T16:07:23Z</time>
      </trkpt>
      <trkpt lat="44.05261" lon="7.71236">
        <ele>1536</ele>
        <time>2017-09-17T16:07:24Z</time>
      </trkpt>
      <trkpt lat="44.05264" lon="7.7123">
        <ele>1536</ele>
        <time>2017-09-17T16:07:25Z</time>
      </trkpt>
      <trkpt lat="44.05268" lon="7.71223">
        <ele>1536</ele>
        <time>2017-09-17T16:07:26Z</time>
      </trkpt>
      <trkpt lat="44.05271" lon="7.71215">
        <ele>1536</ele>
        <time>2017-09-17T16:07:27Z</time>
      </trkpt>
      <trkpt lat="44.05273" lon="7.71207">
        <ele>1536</ele>
        <time>2017-09-17T16:07:28Z</time>
      </trkpt>
      <trkpt lat="44.05274" lon="7.71198">
        <ele>1536</ele>
        <time>2017-09-17T16:07:29Z</time>
      </trkpt>
      <trkpt lat="44.05274" lon="7.7119">
        <ele>1536</ele>
        <time>2017-09-17T16:07:30Z</time>
      </trkpt>
      <trkpt lat="44.05273" lon="7.71182">
        <ele>1536</ele>
        <time>2017-09-17T16:07:31Z</time>
      </trkpt>
      <trkpt lat="44.05272" lon="7.71174">
        <ele>1536</ele>
        <time>2017-09-17T16:07:32Z</time>
      </trkpt>
      <trkpt lat="44.05272" lon="7.71165">
        <ele>1536</ele>
        <time>2017-09-17T16:07:33Z</time>
      </trkpt>
      <trkpt lat="44.05272" lon="7.71157">
        <ele>1536</ele>
        <time>2017-09-17T16:07:34Z</time>
      </trkpt>
      <trkpt lat="44.05274" lon="7.7115">
        <ele>1536</ele>
        <time>2017-09-17T16:07:35Z</time>
      </trkpt>
      <trkpt lat="44.05278" lon="7.71144">
        <ele>1537</ele>
        <time>2017-09-17T16:07:36Z</time>
      </trkpt>
      <trkpt lat="44.05282" lon="7.71137">
        <ele>1537</ele>
        <time>2017-09-17T16:07:37Z</time>
      </trkpt>
      <trkpt lat="44.05284" lon="7.7113">
        <ele>1537</ele>
        <time>2017-09-17T16:07:38Z</time>
      </trkpt>
      <trkpt lat="44.05285" lon="7.71121">
        <ele>1537</ele>
        <time>2017-09-17T16:07:39Z</time>
      </trkpt>
      <trkpt lat="44.05284" lon="7.71113">
        <ele>1537</ele>
        <time>2017-09-17T16:07:40Z</time>
      </trkpt>
      <trkpt lat="44.05283" lon="7.71105">
        <ele>1537</ele>
        <time>2017-09-17T16:07:41Z</time>
      </trkpt>
      <trkpt lat="44.05282" lon="7.71097">
        <ele>1537</ele>
        <time>2017-09-17T16:07:42Z</time>
      </trkpt>
      <trkpt lat="44.05281" lon="7.71088">
        <ele>1538</ele>
        <time>2017-09-17T16:07:43Z</time>
      </trkpt>
      <trkpt lat="44.0528" lon="7.7108">
        <ele>1538</ele>
        <time>2017-09-17T16:07:44Z</time>
      </trkpt>
      <trkpt lat="44.0528" lon="7.71073">
        <ele>1538</ele>
        <time>2017-09-17T16:07:45Z</time>
      </trkpt>
      <trkpt lat="44.0528" lon="7.71066">
        <ele>1538</ele>
        <time>2017-09-17T16:07:46Z</time>
      </trkpt>
      <trkpt lat="44.0528" lon="7.7106">
        <ele>1539</ele>
        <time>2017-09-17T16:07:47Z</time>
      </trkpt>
      <trkpt lat="44.05282" lon="7.71054">
        <ele>1539</ele>
        <time>2017-09-17T16:07:48Z</time>
      </trkpt>
      <trkpt lat="44.05283" lon="7.71048">
        <ele>1540</ele>
        <time>2017-09-17T16:07:49Z</time>
      </trkpt>
      <trkpt lat="44.05284" lon="7.71041">
        <ele>1540</ele>
        <time>2017-09-17T16:07:50Z</time>
      </trkpt>
      <trkpt lat="44.05286" lon="7.71033">
        <ele>1540</ele>
        <time>2017-09-17T16:07:51Z</time>
      </trkpt>
      <trkpt lat="44.05287" lon="7.71026">
        <ele>1540</ele>
        <time>2017-09-17T16:07:52Z</time>
      </trkpt>
      <trkpt lat="44.05288" lon="7.71018">
        <ele>1541</ele>
        <time>2017-09-17T16:07:53Z</time>
      </trkpt>
      <trkpt lat="44.05289" lon="7.7101">
        <ele>1541</ele>
        <time>2017-09-17T16:07:54Z</time>
      </trkpt>
      <trkpt lat="44.0529" lon="7.71002">
        <ele>1541</ele>
        <time>2017-09-17T16:07:55Z</time>
      </trkpt>
      <trkpt lat="44.0529" lon="7.70994">
        <ele>1541</ele>
        <time>2017-09-17T16:07:56Z</time>
      </trkpt>
      <trkpt lat="44.0529" lon="7.70985">
        <ele>1541</ele>
        <time>2017-09-17T16:07:57Z</time>
      </trkpt>
      <trkpt lat="44.05289" lon="7.70977">
        <ele>1541</ele>
        <time>2017-09-17T16:07:58Z</time>
      </trkpt>
      <trkpt lat="44.05289" lon="7.70969">
        <ele>1542</ele>
        <time>2017-09-17T16:07:59Z</time>
      </trkpt>
      <trkpt lat="44.05288" lon="7.70961">
        <ele>1542</ele>
        <time>2017-09-17T16:08:00Z</time>
      </trkpt>
      <trkpt lat="44.05287" lon="7.70953">
        <ele>1542</ele>
        <time>2017-09-17T16:08:01Z</time>
      </trkpt>
      <trkpt lat="44.05286" lon="7.70945">
        <ele>1542</ele>
        <time>2017-09-17T16:08:02Z</time>
      </trkpt>
      <trkpt lat="44.05285" lon="7.70937">
        <ele>1542</ele>
        <time>2017-09-17T16:08:03Z</time>
      </trkpt>
      <trkpt lat="44.05285" lon="7.70929">
        <ele>1542</ele>
        <time>2017-09-17T16:08:04Z</time>
      </trkpt>
      <trkpt lat="44.05285" lon="7.70921">
        <ele>1542</ele>
        <time>2017-09-17T16:08:05Z</time>
      </trkpt>
      <trkpt lat="44.05287" lon="7.70913">
        <ele>1542</ele>
        <time>2017-09-17T16:08:06Z</time>
      </trkpt>
      <trkpt lat="44.05291" lon="7.70907">
        <ele>1542</ele>
        <time>2017-09-17T16:08:07Z</time>
      </trkpt>
      <trkpt lat="44.05295" lon="7.70901">
        <ele>1542</ele>
        <time>2017-09-17T16:08:08Z</time>
      </trkpt>
      <trkpt lat="44.05297" lon="7.70894">
        <ele>1542</ele>
        <time>2017-09-17T16:08:09Z</time>
      </trkpt>
      <trkpt lat="44.05298" lon="7.70886">
        <ele>1543</ele>
        <time>2017-09-17T16:08:10Z</time>
      </trkpt>
      <trkpt lat="44.05297" lon="7.70879">
        <ele>1543</ele>
        <time>2017-09-17T16:08:11Z</time>
      </trkpt>
      <trkpt lat="44.05296" lon="7.70871">
        <ele>1543</ele>
        <time>2017-09-17T16:08:12Z</time>
      </trkpt>
      <trkpt lat="44.05297" lon="7.70863">
        <ele>1543</ele>
        <time>2017-09-17T16:08:13Z</time>
      </trkpt>
      <trkpt lat="44.05299" lon="7.70855">
        <ele>1543</ele>
        <time>2017-09-17T16:08:14Z</time>
      </trkpt>
      <trkpt lat="44.05301" lon="7.70847">
        <ele>1543</ele>
        <time>2017-09-17T16:08:15Z</time>
      </trkpt>
      <trkpt lat="44.05302" lon="7.70839">
        <ele>1544</ele>
        <time>2017-09-17T16:08:16Z</time>
      </trkpt>
      <trkpt lat="44.05303" lon="7.70831">
        <ele>1544</ele>
        <time>2017-09-17T16:08:17Z</time>
      </trkpt>
      <trkpt lat="44.05304" lon="7.70823">
        <ele>1544</ele>
        <time>2017-09-17T16:08:18Z</time>
      </trkpt>
      <trkpt lat="44.05306" lon="7.70815">
        <ele>1544</ele>
        <time>2017-09-17T16:08:19Z</time>
      </trkpt>
      <trkpt lat="44.05308" lon="7.70808">
        <ele>1544</ele>
        <time>2017-09-17T16:08:20Z</time>
      </trkpt>
      <trkpt lat="44.05312" lon="7.70802">
        <ele>1544</ele>
        <time>2017-09-17T16:08:21Z</time>
      </trkpt>
      <trkpt lat="44.05315" lon="7.70796">
        <ele>1544</ele>
        <time>2017-09-17T16:08:22Z</time>
      </trkpt>
      <trkpt lat="44.05318" lon="7.70789">
        <ele>1544</ele>
        <time>2017-09-17T16:08:23Z</time>
      </trkpt>
      <trkpt lat="44.0532" lon="7.70782">
        <ele>1544</ele>
        <time>2017-09-17T16:08:24Z</time>
      </trkpt>
      <trkpt lat="44.0532" lon="7.70775">
        <ele>1545</ele>
        <time>2017-09-17T16:08:25Z</time>
      </trkpt>
      <trkpt lat="44.05318" lon="7.70769">
        <ele>1545</ele>
        <time>2017-09-17T16:08:26Z</time>
      </trkpt>
      <trkpt lat="44.05314" lon="7.70764">
        <ele>1545</ele>
        <time>2017-09-17T16:08:27Z</time>
      </trkpt>
      <trkpt lat="44.0531" lon="7.70761">
        <ele>1545</ele>
        <time>2017-09-17T16:08:28Z</time>
      </trkpt>
      <trkpt lat="44.05304" lon="7.70757">
        <ele>1545</ele>
        <time>2017-09-17T16:08:29Z</time>
      </trkpt>
      <trkpt lat="44.05299" lon="7.70753">
        <ele>1546</ele>
        <time>2017-09-17T16:08:30Z</time>
      </trkpt>
      <trkpt lat="44.05294" lon="7.70749">
        <ele>1546</ele>
        <time>2017-09-17T16:08:31Z</time>
      </trkpt>
      <trkpt lat="44.05289" lon="7.70746">
        <ele>1546</ele>
        <time>2017-09-17T16:08:32Z</time>
      </trkpt>
      <trkpt lat="44.05284" lon="7.70743">
        <ele>1547</ele>
        <time>2017-09-17T16:08:33Z</time>
      </trkpt>
      <trkpt lat="44.05279" lon="7.7074">
        <ele>1547</ele>
        <time>2017-09-17T16:08:34Z</time>
      </trkpt>
      <trkpt lat="44.05275" lon="7.70737">
        <ele>1547</ele>
        <time>2017-09-17T16:08:35Z</time>
      </trkpt>
      <trkpt lat="44.05271" lon="7.70733">
        <ele>1548</ele>
        <time>2017-09-17T16:08:36Z</time>
      </trkpt>
      <trkpt lat="44.05267" lon="7.70728">
        <ele>1548</ele>
        <time>2017-09-17T16:08:37Z</time>
      </trkpt>
      <trkpt lat="44.05263" lon="7.70723">
        <ele>1549</ele>
        <time>2017-09-17T16:08:38Z</time>
      </trkpt>
      <trkpt lat="44.0526" lon="7.70717">
        <ele>1549</ele>
        <time>2017-09-17T16:08:39Z</time>
      </trkpt>
      <trkpt lat="44.05256" lon="7.70712">
        <ele>1549</ele>
        <time>2017-09-17T16:08:40Z</time>
      </trkpt>
      <trkpt lat="44.05252" lon="7.70708">
        <ele>1550</ele>
        <time>2017-09-17T16:08:41Z</time>
      </trkpt>
      <trkpt lat="44.05248" lon="7.70704">
        <ele>1550</ele>
        <time>2017-09-17T16:08:42Z</time>
      </trkpt>
      <trkpt lat="44.05244" lon="7.707">
        <ele>1550</ele>
        <time>2017-09-17T16:08:43Z</time>
      </trkpt>
      <trkpt lat="44.0524" lon="7.70697">
        <ele>1551</ele>
        <time>2017-09-17T16:08:44Z</time>
      </trkpt>
      <trkpt lat="44.05235" lon="7.70694">
        <ele>1551</ele>
        <time>2017-09-17T16:08:45Z</time>
      </trkpt>
      <trkpt lat="44.05231" lon="7.70691">
        <ele>1552</ele>
        <time>2017-09-17T16:08:46Z</time>
      </trkpt>
      <trkpt lat="44.05227" lon="7.70688">
        <ele>1552</ele>
        <time>2017-09-17T16:08:47Z</time>
      </trkpt>
      <trkpt lat="44.05223" lon="7.70685">
        <ele>1552</ele>
        <time>2017-09-17T16:08:48Z</time>
      </trkpt>
      <trkpt lat="44.05219" lon="7.70681">
        <ele>1553</ele>
        <time>2017-09-17T16:08:49Z</time>
      </trkpt>
      <trkpt lat="44.05214" lon="7.70678">
        <ele>1553</ele>
        <time>2017-09-17T16:08:50Z</time>
      </trkpt>
      <trkpt lat="44.05211" lon="7.70673">
        <ele>1554</ele>
        <time>2017-09-17T16:08:51Z</time>
      </trkpt>
      <trkpt lat="44.05206" lon="7.70669">
        <ele>1554</ele>
        <time>2017-09-17T16:08:52Z</time>
      </trkpt>
      <trkpt lat="44.05202" lon="7.70665">
        <ele>1554</ele>
        <time>2017-09-17T16:08:53Z</time>
      </trkpt>
      <trkpt lat="44.05197" lon="7.70662">
        <ele>1555</ele>
        <time>2017-09-17T16:08:54Z</time>
      </trkpt>
      <trkpt lat="44.05193" lon="7.70658">
        <ele>1555</ele>
        <time>2017-09-17T16:08:55Z</time>
      </trkpt>
      <trkpt lat="44.05188" lon="7.70655">
        <ele>1556</ele>
        <time>2017-09-17T16:08:56Z</time>
      </trkpt>
      <trkpt lat="44.05184" lon="7.70651">
        <ele>1556</ele>
        <time>2017-09-17T16:08:57Z</time>
      </trkpt>
      <trkpt lat="44.05179" lon="7.70648">
        <ele>1557</ele>
        <time>2017-09-17T16:08:58Z</time>
      </trkpt>
      <trkpt lat="44.05175" lon="7.70643">
        <ele>1557</ele>
        <time>2017-09-17T16:08:59Z</time>
      </trkpt>
      <trkpt lat="44.05171" lon="7.70639">
        <ele>1558</ele>
        <time>2017-09-17T16:09:00Z</time>
      </trkpt>
      <trkpt lat="44.05167" lon="7.70635">
        <ele>1558</ele>
        <time>2017-09-17T16:09:01Z</time>
      </trkpt>
      <trkpt lat="44.05164" lon="7.7063">
        <ele>1558</ele>
        <time>2017-09-17T16:09:02Z</time>
      </trkpt>
      <trkpt lat="44.0516" lon="7.70625">
        <ele>1559</ele>
        <time>2017-09-17T16:09:03Z</time>
      </trkpt>
      <trkpt lat="44.05157" lon="7.7062">
        <ele>1559</ele>
        <time>2017-09-17T16:09:04Z</time>
      </trkpt>
      <trkpt lat="44.05154" lon="7.70614">
        <ele>1559</ele>
        <time>2017-09-17T16:09:05Z</time>
      </trkpt>
      <trkpt lat="44.05153" lon="7.70608">
        <ele>1560</ele>
        <time>2017-09-17T16:09:06Z</time>
      </trkpt>
      <trkpt lat="44.05151" lon="7.70601">
        <ele>1560</ele>
        <time>2017-09-17T16:09:07Z</time>
      </trkpt>
      <trkpt lat="44.0515" lon="7.70594">
        <ele>1560</ele>
        <time>2017-09-17T16:09:08Z</time>
      </trkpt>
      <trkpt lat="44.05149" lon="7.70586">
        <ele>1560</ele>
        <time>2017-09-17T16:09:09Z</time>
      </trkpt>
      <trkpt lat="44.05148" lon="7.70579">
        <ele>1561</ele>
        <time>2017-09-17T16:09:10Z</time>
      </trkpt>
      <trkpt lat="44.05147" lon="7.70572">
        <ele>1561</ele>
        <time>2017-09-17T16:09:11Z</time>
      </trkpt>
      <trkpt lat="44.05146" lon="7.70564">
        <ele>1561</ele>
        <time>2017-09-17T16:09:12Z</time>
      </trkpt>
      <trkpt lat="44.05146" lon="7.70557">
        <ele>1561</ele>
        <time>2017-09-17T16:09:13Z</time>
      </trkpt>
      <trkpt lat="44.05146" lon="7.7055">
        <ele>1561</ele>
        <time>2017-09-17T16:09:14Z</time>
      </trkpt>
      <trkpt lat="44.05146" lon="7.70543">
        <ele>1561</ele>
        <time>2017-09-17T16:09:15Z</time>
      </trkpt>
      <trkpt lat="44.05147" lon="7.70535">
        <ele>1561</ele>
        <time>2017-09-17T16:09:16Z</time>
      </trkpt>
      <trkpt lat="44.05147" lon="7.70528">
        <ele>1561</ele>
        <time>2017-09-17T16:09:17Z</time>
      </trkpt>
      <trkpt lat="44.05146" lon="7.70521">
        <ele>1562</ele>
        <time>2017-09-17T16:09:18Z</time>
      </trkpt>
      <trkpt lat="44.05144" lon="7.70514">
        <ele>1562</ele>
        <time>2017-09-17T16:09:19Z</time>
      </trkpt>
      <trkpt lat="44.05141" lon="7.70509">
        <ele>1562</ele>
        <time>2017-09-17T16:09:20Z</time>
      </trkpt>
      <trkpt lat="44.05136" lon="7.70505">
        <ele>1562</ele>
        <time>2017-09-17T16:09:21Z</time>
      </trkpt>
      <trkpt lat="44.05132" lon="7.70503">
        <ele>1562</ele>
        <time>2017-09-17T16:09:22Z</time>
      </trkpt>
      <trkpt lat="44.05127" lon="7.70502">
        <ele>1562</ele>
        <time>2017-09-17T16:09:23Z</time>
      </trkpt>
      <trkpt lat="44.05122" lon="7.705">
        <ele>1562</ele>
        <time>2017-09-17T16:09:24Z</time>
      </trkpt>
      <trkpt lat="44.05118" lon="7.70498">
        <ele>1563</ele>
        <time>2017-09-17T16:09:25Z</time>
      </trkpt>
      <trkpt lat="44.05113" lon="7.70495">
        <ele>1563</ele>
        <time>2017-09-17T16:09:26Z</time>
      </trkpt>
      <trkpt lat="44.05109" lon="7.7049">
        <ele>1563</ele>
        <time>2017-09-17T16:09:27Z</time>
      </trkpt>
      <trkpt lat="44.05104" lon="7.70487">
        <ele>1563</ele>
        <time>2017-09-17T16:09:28Z</time>
      </trkpt>
      <trkpt lat="44.05099" lon="7.70484">
        <ele>1564</ele>
        <time>2017-09-17T16:09:29Z</time>
      </trkpt>
      <trkpt lat="44.05095" lon="7.70482">
        <ele>1564</ele>
        <time>2017-09-17T16:09:30Z</time>
      </trkpt>
      <trkpt lat="44.0509" lon="7.70481">
        <ele>1564</ele>
        <time>2017-09-17T16:09:31Z</time>
      </trkpt>
      <trkpt lat="44.05085" lon="7.70479">
        <ele>1564</ele>
        <time>2017-09-17T16:09:32Z</time>
      </trkpt>
      <trkpt lat="44.05079" lon="7.70477">
        <ele>1565</ele>
        <time>2017-09-17T16:09:33Z</time>
      </trkpt>
      <trkpt lat="44.05075" lon="7.70474">
        <ele>1565</ele>
        <time>2017-09-17T16:09:34Z</time>
      </trkpt>
      <trkpt lat="44.0507" lon="7.7047">
        <ele>1566</ele>
        <time>2017-09-17T16:09:35Z</time>
      </trkpt>
      <trkpt lat="44.05065" lon="7.70468">
        <ele>1566</ele>
        <time>2017-09-17T16:09:36Z</time>
      </trkpt>
      <trkpt lat="44.0506" lon="7.70467">
        <ele>1566</ele>
        <time>2017-09-17T16:09:37Z</time>
      </trkpt>
      <trkpt lat="44.05054" lon="7.70467">
        <ele>1567</ele>
        <time>2017-09-17T16:09:38Z</time>
      </trkpt>
      <trkpt lat="44.05049" lon="7.70467">
        <ele>1567</ele>
        <time>2017-09-17T16:09:39Z</time>
      </trkpt>
      <trkpt lat="44.05043" lon="7.70466">
        <ele>1568</ele>
        <time>2017-09-17T16:09:40Z</time>
      </trkpt>
      <trkpt lat="44.05038" lon="7.70462">
        <ele>1568</ele>
        <time>2017-09-17T16:09:41Z</time>
      </trkpt>
      <trkpt lat="44.05034" lon="7.70457">
        <ele>1569</ele>
        <time>2017-09-17T16:09:42Z</time>
      </trkpt>
      <trkpt lat="44.05032" lon="7.70452">
        <ele>1569</ele>
        <time>2017-09-17T16:09:43Z</time>
      </trkpt>
      <trkpt lat="44.0503" lon="7.70445">
        <ele>1569</ele>
        <time>2017-09-17T16:09:44Z</time>
      </trkpt>
      <trkpt lat="44.05029" lon="7.70439">
        <ele>1569</ele>
        <time>2017-09-17T16:09:45Z</time>
      </trkpt>
      <trkpt lat="44.05027" lon="7.70433">
        <ele>1569</ele>
        <time>2017-09-17T16:09:46Z</time>
      </trkpt>
      <trkpt lat="44.05026" lon="7.70427">
        <ele>1570</ele>
        <time>2017-09-17T16:09:47Z</time>
      </trkpt>
      <trkpt lat="44.05025" lon="7.70421">
        <ele>1570</ele>
        <time>2017-09-17T16:09:48Z</time>
      </trkpt>
      <trkpt lat="44.05023" lon="7.70415">
        <ele>1570</ele>
        <time>2017-09-17T16:09:49Z</time>
      </trkpt>
      <trkpt lat="44.05021" lon="7.7041">
        <ele>1570</ele>
        <time>2017-09-17T16:09:50Z</time>
      </trkpt>
      <trkpt lat="44.05019" lon="7.70404">
        <ele>1570</ele>
        <time>2017-09-17T16:09:51Z</time>
      </trkpt>
      <trkpt lat="44.05017" lon="7.70399">
        <ele>1570</ele>
        <time>2017-09-17T16:09:52Z</time>
      </trkpt>
      <trkpt lat="44.05015" lon="7.70395">
        <ele>1571</ele>
        <time>2017-09-17T16:09:53Z</time>
      </trkpt>
      <trkpt lat="44.05012" lon="7.7039">
        <ele>1571</ele>
        <time>2017-09-17T16:09:54Z</time>
      </trkpt>
      <trkpt lat="44.05009" lon="7.70386">
        <ele>1571</ele>
        <time>2017-09-17T16:09:55Z</time>
      </trkpt>
      <trkpt lat="44.05007" lon="7.70383">
        <ele>1571</ele>
        <time>2017-09-17T16:09:56Z</time>
      </trkpt>
      <trkpt lat="44.05004" lon="7.70379">
        <ele>1572</ele>
        <time>2017-09-17T16:09:57Z</time>
      </trkpt>
      <trkpt lat="44.05" lon="7.70376">
        <ele>1572</ele>
        <time>2017-09-17T16:09:58Z</time>
      </trkpt>
      <trkpt lat="44.04996" lon="7.70373">
        <ele>1572</ele>
        <time>2017-09-17T16:09:59Z</time>
      </trkpt>
      <trkpt lat="44.04992" lon="7.70371">
        <ele>1573</ele>
        <time>2017-09-17T16:10:00Z</time>
      </trkpt>
      <trkpt lat="44.04988" lon="7.70369">
        <ele>1573</ele>
        <time>2017-09-17T16:10:01Z</time>
      </trkpt>
      <trkpt lat="44.04984" lon="7.70368">
        <ele>1573</ele>
        <time>2017-09-17T16:10:02Z</time>
      </trkpt>
      <trkpt lat="44.04979" lon="7.70366">
        <ele>1574</ele>
        <time>2017-09-17T16:10:03Z</time>
      </trkpt>
      <trkpt lat="44.04975" lon="7.70364">
        <ele>1574</ele>
        <time>2017-09-17T16:10:04Z</time>
      </trkpt>
      <trkpt lat="44.04971" lon="7.70361">
        <ele>1575</ele>
        <time>2017-09-17T16:10:05Z</time>
      </trkpt>
      <trkpt lat="44.04967" lon="7.70359">
        <ele>1575</ele>
        <time>2017-09-17T16:10:06Z</time>
      </trkpt>
      <trkpt lat="44.04963" lon="7.70356">
        <ele>1576</ele>
        <time>2017-09-17T16:10:07Z</time>
      </trkpt>
      <trkpt lat="44.04958" lon="7.70354">
        <ele>1576</ele>
        <time>2017-09-17T16:10:08Z</time>
      </trkpt>
      <trkpt lat="44.04954" lon="7.70351">
        <ele>1577</ele>
        <time>2017-09-17T16:10:09Z</time>
      </trkpt>
      <trkpt lat="44.0495" lon="7.70349">
        <ele>1577</ele>
        <time>2017-09-17T16:10:10Z</time>
      </trkpt>
      <trkpt lat="44.04947" lon="7.70345">
        <ele>1577</ele>
        <time>2017-09-17T16:10:11Z</time>
      </trkpt>
      <trkpt lat="44.04943" lon="7.70342">
        <ele>1578</ele>
        <time>2017-09-17T16:10:12Z</time>
      </trkpt>
      <trkpt lat="44.04939" lon="7.70338">
        <ele>1578</ele>
        <time>2017-09-17T16:10:13Z</time>
      </trkpt>
      <trkpt lat="44.04936" lon="7.70334">
        <ele>1579</ele>
        <time>2017-09-17T16:10:14Z</time>
      </trkpt>
      <trkpt lat="44.04932" lon="7.70331">
        <ele>1579</ele>
        <time>2017-09-17T16:10:15Z</time>
      </trkpt>
      <trkpt lat="44.04928" lon="7.70328">
        <ele>1580</ele>
        <time>2017-09-17T16:10:16Z</time>
      </trkpt>
      <trkpt lat="44.04924" lon="7.70326">
        <ele>1580</ele>
        <time>2017-09-17T16:10:17Z</time>
      </trkpt>
      <trkpt lat="44.0492" lon="7.70323">
        <ele>1581</ele>
        <time>2017-09-17T16:10:18Z</time>
      </trkpt>
      <trkpt lat="44.04916" lon="7.7032">
        <ele>1581</ele>
        <time>2017-09-17T16:10:19Z</time>
      </trkpt>
      <trkpt lat="44.04912" lon="7.70318">
        <ele>1581</ele>
        <time>2017-09-17T16:10:20Z</time>
      </trkpt>
      <trkpt lat="44.04909" lon="7.70316">
        <ele>1582</ele>
        <time>2017-09-17T16:10:21Z</time>
      </trkpt>
      <trkpt lat="44.04905" lon="7.70312">
        <ele>1582</ele>
        <time>2017-09-17T16:10:22Z</time>
      </trkpt>
      <trkpt lat="44.04902" lon="7.7031">
        <ele>1583</ele>
        <time>2017-09-17T16:10:23Z</time>
      </trkpt>
      <trkpt lat="44.04898" lon="7.70308">
        <ele>1583</ele>
        <time>2017-09-17T16:10:24Z</time>
      </trkpt>
      <trkpt lat="44.04895" lon="7.70305">
        <ele>1583</ele>
        <time>2017-09-17T16:10:25Z</time>
      </trkpt>
      <trkpt lat="44.04891" lon="7.70303">
        <ele>1584</ele>
        <time>2017-09-17T16:10:26Z</time>
      </trkpt>
      <trkpt lat="44.04887" lon="7.703">
        <ele>1584</ele>
        <time>2017-09-17T16:10:27Z</time>
      </trkpt>
      <trkpt lat="44.04883" lon="7.70298">
        <ele>1585</ele>
        <time>2017-09-17T16:10:28Z</time>
      </trkpt>
      <trkpt lat="44.04879" lon="7.70296">
        <ele>1585</ele>
        <time>2017-09-17T16:10:29Z</time>
      </trkpt>
      <trkpt lat="44.04875" lon="7.70295">
        <ele>1586</ele>
        <time>2017-09-17T16:10:30Z</time>
      </trkpt>
      <trkpt lat="44.04871" lon="7.70294">
        <ele>1586</ele>
        <time>2017-09-17T16:10:31Z</time>
      </trkpt>
      <trkpt lat="44.04866" lon="7.70294">
        <ele>1586</ele>
        <time>2017-09-17T16:10:32Z</time>
      </trkpt>
      <trkpt lat="44.04862" lon="7.70294">
        <ele>1587</ele>
        <time>2017-09-17T16:10:33Z</time>
      </trkpt>
      <trkpt lat="44.04858" lon="7.70295">
        <ele>1587</ele>
        <time>2017-09-17T16:10:34Z</time>
      </trkpt>
      <trkpt lat="44.04853" lon="7.70297">
        <ele>1587</ele>
        <time>2017-09-17T16:10:35Z</time>
      </trkpt>
      <trkpt lat="44.04849" lon="7.703">
        <ele>1588</ele>
        <time>2017-09-17T16:10:36Z</time>
      </trkpt>
      <trkpt lat="44.04846" lon="7.70302">
        <ele>1588</ele>
        <time>2017-09-17T16:10:37Z</time>
      </trkpt>
      <trkpt lat="44.04842" lon="7.70305">
        <ele>1588</ele>
        <time>2017-09-17T16:10:38Z</time>
      </trkpt>
      <trkpt lat="44.04839" lon="7.70308">
        <ele>1588</ele>
        <time>2017-09-17T16:10:39Z</time>
      </trkpt>
      <trkpt lat="44.04835" lon="7.70312">
        <ele>1588</ele>
        <time>2017-09-17T16:10:40Z</time>
      </trkpt>
      <trkpt lat="44.04831" lon="7.70315">
        <ele>1588</ele>
        <time>2017-09-17T16:10:41Z</time>
      </trkpt>
      <trkpt lat="44.04828" lon="7.70317">
        <ele>1589</ele>
        <time>2017-09-17T16:10:42Z</time>
      </trkpt>
      <trkpt lat="44.04824" lon="7.70319">
        <ele>1589</ele>
        <time>2017-09-17T16:10:43Z</time>
      </trkpt>
      <trkpt lat="44.0482" lon="7.70321">
        <ele>1589</ele>
        <time>2017-09-17T16:10:44Z</time>
      </trkpt>
      <trkpt lat="44.04816" lon="7.70323">
        <ele>1589</ele>
        <time>2017-09-17T16:10:45Z</time>
      </trkpt>
      <trkpt lat="44.04813" lon="7.70325">
        <ele>1589</ele>
        <time>2017-09-17T16:10:46Z</time>
      </trkpt>
      <trkpt lat="44.0481" lon="7.70327">
        <ele>1589</ele>
        <time>2017-09-17T16:10:47Z</time>
      </trkpt>
      <trkpt lat="44.04806" lon="7.70329">
        <ele>1589</ele>
        <time>2017-09-17T16:10:48Z</time>
      </trkpt>
      <trkpt lat="44.04803" lon="7.70331">
        <ele>1590</ele>
        <time>2017-09-17T16:10:49Z</time>
      </trkpt>
      <trkpt lat="44.04799" lon="7.70335">
        <ele>1590</ele>
        <time>2017-09-17T16:10:50Z</time>
      </trkpt>
      <trkpt lat="44.04795" lon="7.70338">
        <ele>1590</ele>
        <time>2017-09-17T16:10:51Z</time>
      </trkpt>
      <trkpt lat="44.04791" lon="7.70341">
        <ele>1591</ele>
        <time>2017-09-17T16:10:52Z</time>
      </trkpt>
      <trkpt lat="44.04788" lon="7.70343">
        <ele>1591</ele>
        <time>2017-09-17T16:10:53Z</time>
      </trkpt>
      <trkpt lat="44.04784" lon="7.70345">
        <ele>1592</ele>
        <time>2017-09-17T16:10:54Z</time>
      </trkpt>
      <trkpt lat="44.0478" lon="7.70347">
        <ele>1592</ele>
        <time>2017-09-17T16:10:55Z</time>
      </trkpt>
      <trkpt lat="44.04776" lon="7.70347">
        <ele>1593</ele>
        <time>2017-09-17T16:10:56Z</time>
      </trkpt>
      <trkpt lat="44.04771" lon="7.70347">
        <ele>1593</ele>
        <time>2017-09-17T16:10:57Z</time>
      </trkpt>
      <trkpt lat="44.04767" lon="7.70347">
        <ele>1594</ele>
        <time>2017-09-17T16:10:58Z</time>
      </trkpt>
      <trkpt lat="44.04762" lon="7.70346">
        <ele>1594</ele>
        <time>2017-09-17T16:10:59Z</time>
      </trkpt>
      <trkpt lat="44.04758" lon="7.70346">
        <ele>1595</ele>
        <time>2017-09-17T16:11:00Z</time>
      </trkpt>
      <trkpt lat="44.04753" lon="7.70346">
        <ele>1595</ele>
        <time>2017-09-17T16:11:01Z</time>
      </trkpt>
      <trkpt lat="44.04749" lon="7.70347">
        <ele>1596</ele>
        <time>2017-09-17T16:11:02Z</time>
      </trkpt>
      <trkpt lat="44.04744" lon="7.70348">
        <ele>1596</ele>
        <time>2017-09-17T16:11:03Z</time>
      </trkpt>
      <trkpt lat="44.0474" lon="7.70349">
        <ele>1596</ele>
        <time>2017-09-17T16:11:04Z</time>
      </trkpt>
      <trkpt lat="44.04736" lon="7.70351">
        <ele>1597</ele>
        <time>2017-09-17T16:11:05Z</time>
      </trkpt>
      <trkpt lat="44.04732" lon="7.70352">
        <ele>1597</ele>
        <time>2017-09-17T16:11:06Z</time>
      </trkpt>
      <trkpt lat="44.04729" lon="7.70354">
        <ele>1598</ele>
        <time>2017-09-17T16:11:07Z</time>
      </trkpt>
      <trkpt lat="44.04725" lon="7.70355">
        <ele>1598</ele>
        <time>2017-09-17T16:11:08Z</time>
      </trkpt>
      <trkpt lat="44.04721" lon="7.70356">
        <ele>1598</ele>
        <time>2017-09-17T16:11:09Z</time>
      </trkpt>
      <trkpt lat="44.04717" lon="7.70357">
        <ele>1599</ele>
        <time>2017-09-17T16:11:10Z</time>
      </trkpt>
      <trkpt lat="44.04714" lon="7.70358">
        <ele>1599</ele>
        <time>2017-09-17T16:11:11Z</time>
      </trkpt>
      <trkpt lat="44.0471" lon="7.70359">
        <ele>1599</ele>
        <time>2017-09-17T16:11:12Z</time>
      </trkpt>
      <trkpt lat="44.04706" lon="7.70359">
        <ele>1600</ele>
        <time>2017-09-17T16:11:13Z</time>
      </trkpt>
      <trkpt lat="44.04702" lon="7.70359">
        <ele>1600</ele>
        <time>2017-09-17T16:11:14Z</time>
      </trkpt>
      <trkpt lat="44.04698" lon="7.70359">
        <ele>1601</ele>
        <time>2017-09-17T16:11:15Z</time>
      </trkpt>
      <trkpt lat="44.04694" lon="7.70358">
        <ele>1601</ele>
        <time>2017-09-17T16:11:16Z</time>
      </trkpt>
      <trkpt lat="44.0469" lon="7.70357">
        <ele>1601</ele>
        <time>2017-09-17T16:11:17Z</time>
      </trkpt>
      <trkpt lat="44.04686" lon="7.70356">
        <ele>1602</ele>
        <time>2017-09-17T16:11:18Z</time>
      </trkpt>
      <trkpt lat="44.04682" lon="7.70354">
        <ele>1602</ele>
        <time>2017-09-17T16:11:19Z</time>
      </trkpt>
      <trkpt lat="44.04679" lon="7.70352">
        <ele>1602</ele>
        <time>2017-09-17T16:11:20Z</time>
      </trkpt>
      <trkpt lat="44.04675" lon="7.7035">
        <ele>1602</ele>
        <time>2017-09-17T16:11:21Z</time>
      </trkpt>
      <trkpt lat="44.04672" lon="7.70348">
        <ele>1602</ele>
        <time>2017-09-17T16:11:22Z</time>
      </trkpt>
      <trkpt lat="44.04668" lon="7.70345">
        <ele>1603</ele>
        <time>2017-09-17T16:11:23Z</time>
      </trkpt>
      <trkpt lat="44.04664" lon="7.70343">
        <ele>1603</ele>
        <time>2017-09-17T16:11:24Z</time>
      </trkpt>
      <trkpt lat="44.0466" lon="7.70342">
        <ele>1603</ele>
        <time>2017-09-17T16:11:25Z</time>
      </trkpt>
      <trkpt lat="44.04656" lon="7.7034">
        <ele>1603</ele>
        <time>2017-09-17T16:11:26Z</time>
      </trkpt>
      <trkpt lat="44.04652" lon="7.70338">
        <ele>1604</ele>
        <time>2017-09-17T16:11:27Z</time>
      </trkpt>
      <trkpt lat="44.04647" lon="7.70336">
        <ele>1604</ele>
        <time>2017-09-17T16:11:28Z</time>
      </trkpt>
      <trkpt lat="44.04643" lon="7.70334">
        <ele>1605</ele>
        <time>2017-09-17T16:11:29Z</time>
      </trkpt>
      <trkpt lat="44.04639" lon="7.70333">
        <ele>1605</ele>
        <time>2017-09-17T16:11:30Z</time>
      </trkpt>
      <trkpt lat="44.04635" lon="7.70331">
        <ele>1605</ele>
        <time>2017-09-17T16:11:31Z</time>
      </trkpt>
      <trkpt lat="44.04631" lon="7.7033">
        <ele>1606</ele>
        <time>2017-09-17T16:11:32Z</time>
      </trkpt>
      <trkpt lat="44.04626" lon="7.7033">
        <ele>1606</ele>
        <time>2017-09-17T16:11:33Z</time>
      </trkpt>
      <trkpt lat="44.04622" lon="7.7033">
        <ele>1607</ele>
        <time>2017-09-17T16:11:34Z</time>
      </trkpt>
      <trkpt lat="44.04617" lon="7.70331">
        <ele>1607</ele>
        <time>2017-09-17T16:11:35Z</time>
      </trkpt>
      <trkpt lat="44.04613" lon="7.70332">
        <ele>1607</ele>
        <time>2017-09-17T16:11:36Z</time>
      </trkpt>
      <trkpt lat="44.04609" lon="7.70333">
        <ele>1608</ele>
        <time>2017-09-17T16:11:37Z</time>
      </trkpt>
      <trkpt lat="44.04605" lon="7.70335">
        <ele>1608</ele>
        <time>2017-09-17T16:11:38Z</time>
      </trkpt>
      <trkpt lat="44.04601" lon="7.70337">
        <ele>1609</ele>
        <time>2017-09-17T16:11:39Z</time>
      </trkpt>
      <trkpt lat="44.04597" lon="7.70339">
        <ele>1609</ele>
        <time>2017-09-17T16:11:40Z</time>
      </trkpt>
      <trkpt lat="44.04593" lon="7.70342">
        <ele>1610</ele>
        <time>2017-09-17T16:11:41Z</time>
      </trkpt>
      <trkpt lat="44.04588" lon="7.70345">
        <ele>1610</ele>
        <time>2017-09-17T16:11:42Z</time>
      </trkpt>
      <trkpt lat="44.04584" lon="7.70346">
        <ele>1610</ele>
        <time>2017-09-17T16:11:43Z</time>
      </trkpt>
      <trkpt lat="44.0458" lon="7.70348">
        <ele>1611</ele>
        <time>2017-09-17T16:11:44Z</time>
      </trkpt>
      <trkpt lat="44.04575" lon="7.70349">
        <ele>1611</ele>
        <time>2017-09-17T16:11:45Z</time>
      </trkpt>
      <trkpt lat="44.04571" lon="7.70349">
        <ele>1611</ele>
        <time>2017-09-17T16:11:46Z</time>
      </trkpt>
      <trkpt lat="44.04566" lon="7.7035">
        <ele>1612</ele>
        <time>2017-09-17T16:11:47Z</time>
      </trkpt>
      <trkpt lat="44.04562" lon="7.70351">
        <ele>1612</ele>
        <time>2017-09-17T16:11:48Z</time>
      </trkpt>
      <trkpt lat="44.04558" lon="7.70353">
        <ele>1613</ele>
        <time>2017-09-17T16:11:49Z</time>
      </trkpt>
      <trkpt lat="44.04554" lon="7.70355">
        <ele>1613</ele>
        <time>2017-09-17T16:11:50Z</time>
      </trkpt>
      <trkpt lat="44.0455" lon="7.70356">
        <ele>1614</ele>
        <time>2017-09-17T16:11:51Z</time>
      </trkpt>
      <trkpt lat="44.04546" lon="7.70358">
        <ele>1614</ele>
        <time>2017-09-17T16:11:52Z</time>
      </trkpt>
      <trkpt lat="44.04542" lon="7.7036">
        <ele>1615</ele>
        <time>2017-09-17T16:11:53Z</time>
      </trkpt>
      <trkpt lat="44.04538" lon="7.70361">
        <ele>1615</ele>
        <time>2017-09-17T16:11:54Z</time>
      </trkpt>
      <trkpt lat="44.04534" lon="7.70363">
        <ele>1616</ele>
        <time>2017-09-17T16:11:55Z</time>
      </trkpt>
      <trkpt lat="44.0453" lon="7.70364">
        <ele>1616</ele>
        <time>2017-09-17T16:11:56Z</time>
      </trkpt>
      <trkpt lat="44.04526" lon="7.70366">
        <ele>1616</ele>
        <time>2017-09-17T16:11:57Z</time>
      </trkpt>
      <trkpt lat="44.04522" lon="7.70368">
        <ele>1617</ele>
        <time>2017-09-17T16:11:58Z</time>
      </trkpt>
      <trkpt lat="44.04518" lon="7.7037">
        <ele>1617</ele>
        <time>2017-09-17T16:11:59Z</time>
      </trkpt>
      <trkpt lat="44.04515" lon="7.70372">
        <ele>1617</ele>
        <time>2017-09-17T16:12:00Z</time>
      </trkpt>
      <trkpt lat="44.04511" lon="7.70374">
        <ele>1618</ele>
        <time>2017-09-17T16:12:01Z</time>
      </trkpt>
      <trkpt lat="44.04508" lon="7.70378">
        <ele>1618</ele>
        <time>2017-09-17T16:12:02Z</time>
      </trkpt>
      <trkpt lat="44.04505" lon="7.70381">
        <ele>1618</ele>
        <time>2017-09-17T16:12:03Z</time>
      </trkpt>
      <trkpt lat="44.04502" lon="7.70385">
        <ele>1619</ele>
        <time>2017-09-17T16:12:04Z</time>
      </trkpt>
      <trkpt lat="44.04499" lon="7.70388">
        <ele>1619</ele>
        <time>2017-09-17T16:12:05Z</time>
      </trkpt>
      <trkpt lat="44.04496" lon="7.70392">
        <ele>1619</ele>
        <time>2017-09-17T16:12:06Z</time>
      </trkpt>
      <trkpt lat="44.04492" lon="7.70395">
        <ele>1619</ele>
        <time>2017-09-17T16:12:07Z</time>
      </trkpt>
      <trkpt lat="44.04488" lon="7.70397">
        <ele>1620</ele>
        <time>2017-09-17T16:12:08Z</time>
      </trkpt>
      <trkpt lat="44.04484" lon="7.70399">
        <ele>1620</ele>
        <time>2017-09-17T16:12:09Z</time>
      </trkpt>
      <trkpt lat="44.0448" lon="7.70401">
        <ele>1620</ele>
        <time>2017-09-17T16:12:10Z</time>
      </trkpt>
      <trkpt lat="44.04475" lon="7.70403">
        <ele>1620</ele>
        <time>2017-09-17T16:12:11Z</time>
      </trkpt>
      <trkpt lat="44.04471" lon="7.70405">
        <ele>1621</ele>
        <time>2017-09-17T16:12:12Z</time>
      </trkpt>
      <trkpt lat="44.04467" lon="7.70408">
        <ele>1621</ele>
        <time>2017-09-17T16:12:13Z</time>
      </trkpt>
      <trkpt lat="44.04463" lon="7.70412">
        <ele>1621</ele>
        <time>2017-09-17T16:12:14Z</time>
      </trkpt>
      <trkpt lat="44.04459" lon="7.70415">
        <ele>1622</ele>
        <time>2017-09-17T16:12:15Z</time>
      </trkpt>
      <trkpt lat="44.04456" lon="7.70418">
        <ele>1622</ele>
        <time>2017-09-17T16:12:16Z</time>
      </trkpt>
      <trkpt lat="44.04453" lon="7.70422">
        <ele>1622</ele>
        <time>2017-09-17T16:12:17Z</time>
      </trkpt>
      <trkpt lat="44.0445" lon="7.70426">
        <ele>1622</ele>
        <time>2017-09-17T16:12:18Z</time>
      </trkpt>
      <trkpt lat="44.04447" lon="7.70429">
        <ele>1623</ele>
        <time>2017-09-17T16:12:19Z</time>
      </trkpt>
      <trkpt lat="44.04443" lon="7.70432">
        <ele>1623</ele>
        <time>2017-09-17T16:12:20Z</time>
      </trkpt>
      <trkpt lat="44.0444" lon="7.70435">
        <ele>1623</ele>
        <time>2017-09-17T16:12:21Z</time>
      </trkpt>
      <trkpt lat="44.04436" lon="7.70437">
        <ele>1624</ele>
        <time>2017-09-17T16:12:22Z</time>
      </trkpt>
      <trkpt lat="44.04434" lon="7.70439">
        <ele>1624</ele>
        <time>2017-09-17T16:12:23Z</time>
      </trkpt>
      <trkpt lat="44.04432" lon="7.70442">
        <ele>1625</ele>
        <time>2017-09-17T16:12:24Z</time>
      </trkpt>
      <trkpt lat="44.04429" lon="7.70444">
        <ele>1625</ele>
        <time>2017-09-17T16:12:25Z</time>
      </trkpt>
      <trkpt lat="44.04426" lon="7.70447">
        <ele>1625</ele>
        <time>2017-09-17T16:12:26Z</time>
      </trkpt>
      <trkpt lat="44.04424" lon="7.7045">
        <ele>1626</ele>
        <time>2017-09-17T16:12:27Z</time>
      </trkpt>
      <trkpt lat="44.04422" lon="7.70454">
        <ele>1626</ele>
        <time>2017-09-17T16:12:28Z</time>
      </trkpt>
      <trkpt lat="44.04419" lon="7.70458">
        <ele>1626</ele>
        <time>2017-09-17T16:12:29Z</time>
      </trkpt>
      <trkpt lat="44.04416" lon="7.70463">
        <ele>1627</ele>
        <time>2017-09-17T16:12:30Z</time>
      </trkpt>
      <trkpt lat="44.04414" lon="7.70468">
        <ele>1627</ele>
        <time>2017-09-17T16:12:31Z</time>
      </trkpt>
      <trkpt lat="44.04411" lon="7.70472">
        <ele>1628</ele>
        <time>2017-09-17T16:12:32Z</time>
      </trkpt>
      <trkpt lat="44.04408" lon="7.70476">
        <ele>1628</ele>
        <time>2017-09-17T16:12:33Z</time>
      </trkpt>
      <trkpt lat="44.04406" lon="7.70479">
        <ele>1629</ele>
        <time>2017-09-17T16:12:34Z</time>
      </trkpt>
      <trkpt lat="44.04402" lon="7.70483">
        <ele>1629</ele>
        <time>2017-09-17T16:12:35Z</time>
      </trkpt>
      <trkpt lat="44.04398" lon="7.70486">
        <ele>1629</ele>
        <time>2017-09-17T16:12:36Z</time>
      </trkpt>
      <trkpt lat="44.04395" lon="7.70489">
        <ele>1630</ele>
        <time>2017-09-17T16:12:37Z</time>
      </trkpt>
      <trkpt lat="44.04391" lon="7.70492">
        <ele>1630</ele>
        <time>2017-09-17T16:12:38Z</time>
      </trkpt>
      <trkpt lat="44.04387" lon="7.70494">
        <ele>1630</ele>
        <time>2017-09-17T16:12:39Z</time>
      </trkpt>
      <trkpt lat="44.04383" lon="7.70496">
        <ele>1631</ele>
        <time>2017-09-17T16:12:40Z</time>
      </trkpt>
      <trkpt lat="44.0438" lon="7.70499">
        <ele>1631</ele>
        <time>2017-09-17T16:12:41Z</time>
      </trkpt>
      <trkpt lat="44.04376" lon="7.70503">
        <ele>1631</ele>
        <time>2017-09-17T16:12:42Z</time>
      </trkpt>
      <trkpt lat="44.04373" lon="7.70506">
        <ele>1632</ele>
        <time>2017-09-17T16:12:43Z</time>
      </trkpt>
      <trkpt lat="44.0437" lon="7.7051">
        <ele>1632</ele>
        <time>2017-09-17T16:12:44Z</time>
      </trkpt>
      <trkpt lat="44.04366" lon="7.70513">
        <ele>1633</ele>
        <time>2017-09-17T16:12:45Z</time>
      </trkpt>
      <trkpt lat="44.04363" lon="7.70516">
        <ele>1633</ele>
        <time>2017-09-17T16:12:46Z</time>
      </trkpt>
      <trkpt lat="44.0436" lon="7.70519">
        <ele>1634</ele>
        <time>2017-09-17T16:12:47Z</time>
      </trkpt>
      <trkpt lat="44.04357" lon="7.70522">
        <ele>1634</ele>
        <time>2017-09-17T16:12:48Z</time>
      </trkpt>
      <trkpt lat="44.04355" lon="7.70525">
        <ele>1634</ele>
        <time>2017-09-17T16:12:49Z</time>
      </trkpt>
      <trkpt lat="44.04352" lon="7.70529">
        <ele>1635</ele>
        <time>2017-09-17T16:12:50Z</time>
      </trkpt>
      <trkpt lat="44.04349" lon="7.70532">
        <ele>1635</ele>
        <time>2017-09-17T16:12:51Z</time>
      </trkpt>
      <trkpt lat="44.04345" lon="7.70534">
        <ele>1635</ele>
        <time>2017-09-17T16:12:52Z</time>
      </trkpt>
      <trkpt lat="44.0434" lon="7.70536">
        <ele>1636</ele>
        <time>2017-09-17T16:12:53Z</time>
      </trkpt>
      <trkpt lat="44.04336" lon="7.70536">
        <ele>1636</ele>
        <time>2017-09-17T16:12:54Z</time>
      </trkpt>
      <trkpt lat="44.04332" lon="7.70535">
        <ele>1636</ele>
        <time>2017-09-17T16:12:55Z</time>
      </trkpt>
      <trkpt lat="44.04328" lon="7.70534">
        <ele>1637</ele>
        <time>2017-09-17T16:12:56Z</time>
      </trkpt>
      <trkpt lat="44.04324" lon="7.70532">
        <ele>1637</ele>
        <time>2017-09-17T16:12:57Z</time>
      </trkpt>
      <trkpt lat="44.04319" lon="7.70531">
        <ele>1638</ele>
        <time>2017-09-17T16:12:58Z</time>
      </trkpt>
      <trkpt lat="44.04315" lon="7.70529">
        <ele>1638</ele>
        <time>2017-09-17T16:12:59Z</time>
      </trkpt>
      <trkpt lat="44.04312" lon="7.70527">
        <ele>1639</ele>
        <time>2017-09-17T16:13:00Z</time>
      </trkpt>
      <trkpt lat="44.04308" lon="7.70525">
        <ele>1639</ele>
        <time>2017-09-17T16:13:01Z</time>
      </trkpt>
      <trkpt lat="44.04305" lon="7.70522">
        <ele>1639</ele>
        <time>2017-09-17T16:13:02Z</time>
      </trkpt>
      <trkpt lat="44.04302" lon="7.70518">
        <ele>1640</ele>
        <time>2017-09-17T16:13:03Z</time>
      </trkpt>
      <trkpt lat="44.043" lon="7.70514">
        <ele>1640</ele>
        <time>2017-09-17T16:13:04Z</time>
      </trkpt>
      <trkpt lat="44.04297" lon="7.70509">
        <ele>1640</ele>
        <time>2017-09-17T16:13:05Z</time>
      </trkpt>
      <trkpt lat="44.04295" lon="7.70504">
        <ele>1640</ele>
        <time>2017-09-17T16:13:06Z</time>
      </trkpt>
      <trkpt lat="44.04293" lon="7.70498">
        <ele>1641</ele>
        <time>2017-09-17T16:13:07Z</time>
      </trkpt>
      <trkpt lat="44.04291" lon="7.70493">
        <ele>1641</ele>
        <time>2017-09-17T16:13:08Z</time>
      </trkpt>
      <trkpt lat="44.0429" lon="7.70488">
        <ele>1641</ele>
        <time>2017-09-17T16:13:09Z</time>
      </trkpt>
      <trkpt lat="44.04289" lon="7.70483">
        <ele>1641</ele>
        <time>2017-09-17T16:13:10Z</time>
      </trkpt>
      <trkpt lat="44.04288" lon="7.70478">
        <ele>1641</ele>
        <time>2017-09-17T16:13:11Z</time>
      </trkpt>
      <trkpt lat="44.04288" lon="7.70473">
        <ele>1642</ele>
        <time>2017-09-17T16:13:12Z</time>
      </trkpt>
      <trkpt lat="44.04288" lon="7.70468">
        <ele>1642</ele>
        <time>2017-09-17T16:13:13Z</time>
      </trkpt>
      <trkpt lat="44.04288" lon="7.70463">
        <ele>1642</ele>
        <time>2017-09-17T16:13:14Z</time>
      </trkpt>
      <trkpt lat="44.04289" lon="7.70457">
        <ele>1642</ele>
        <time>2017-09-17T16:13:15Z</time>
      </trkpt>
      <trkpt lat="44.04291" lon="7.70452">
        <ele>1642</ele>
        <time>2017-09-17T16:13:16Z</time>
      </trkpt>
      <trkpt lat="44.04291" lon="7.70446">
        <ele>1643</ele>
        <time>2017-09-17T16:13:17Z</time>
      </trkpt>
      <trkpt lat="44.04292" lon="7.70441">
        <ele>1643</ele>
        <time>2017-09-17T16:13:18Z</time>
      </trkpt>
      <trkpt lat="44.04291" lon="7.70435">
        <ele>1643</ele>
        <time>2017-09-17T16:13:19Z</time>
      </trkpt>
      <trkpt lat="44.04291" lon="7.70429">
        <ele>1643</ele>
        <time>2017-09-17T16:13:20Z</time>
      </trkpt>
      <trkpt lat="44.04291" lon="7.70423">
        <ele>1643</ele>
        <time>2017-09-17T16:13:21Z</time>
      </trkpt>
      <trkpt lat="44.0429" lon="7.70418">
        <ele>1644</ele>
        <time>2017-09-17T16:13:22Z</time>
      </trkpt>
      <trkpt lat="44.04289" lon="7.70413">
        <ele>1644</ele>
        <time>2017-09-17T16:13:23Z</time>
      </trkpt>
      <trkpt lat="44.04287" lon="7.70407">
        <ele>1644</ele>
        <time>2017-09-17T16:13:24Z</time>
      </trkpt>
      <trkpt lat="44.04285" lon="7.70402">
        <ele>1644</ele>
        <time>2017-09-17T16:13:25Z</time>
      </trkpt>
      <trkpt lat="44.04282" lon="7.70397">
        <ele>1645</ele>
        <time>2017-09-17T16:13:26Z</time>
      </trkpt>
      <trkpt lat="44.04279" lon="7.70391">
        <ele>1645</ele>
        <time>2017-09-17T16:13:27Z</time>
      </trkpt>
      <trkpt lat="44.04277" lon="7.70385">
        <ele>1645</ele>
        <time>2017-09-17T16:13:28Z</time>
      </trkpt>
      <trkpt lat="44.04275" lon="7.70379">
        <ele>1645</ele>
        <time>2017-09-17T16:13:29Z</time>
      </trkpt>
      <trkpt lat="44.04275" lon="7.70372">
        <ele>1646</ele>
        <time>2017-09-17T16:13:30Z</time>
      </trkpt>
      <trkpt lat="44.04275" lon="7.70365">
        <ele>1646</ele>
        <time>2017-09-17T16:13:31Z</time>
      </trkpt>
      <trkpt lat="44.04275" lon="7.70357">
        <ele>1646</ele>
        <time>2017-09-17T16:13:32Z</time>
      </trkpt>
      <trkpt lat="44.04276" lon="7.70349">
        <ele>1646</ele>
        <time>2017-09-17T16:13:33Z</time>
      </trkpt>
      <trkpt lat="44.04277" lon="7.70341">
        <ele>1646</ele>
        <time>2017-09-17T16:13:34Z</time>
      </trkpt>
      <trkpt lat="44.04277" lon="7.70333">
        <ele>1646</ele>
        <time>2017-09-17T16:13:35Z</time>
      </trkpt>
      <trkpt lat="44.04275" lon="7.70326">
        <ele>1647</ele>
        <time>2017-09-17T16:13:36Z</time>
      </trkpt>
      <trkpt lat="44.04272" lon="7.7032">
        <ele>1647</ele>
        <time>2017-09-17T16:13:37Z</time>
      </trkpt>
      <trkpt lat="44.0427" lon="7.70313">
        <ele>1647</ele>
        <time>2017-09-17T16:13:38Z</time>
      </trkpt>
      <trkpt lat="44.04268" lon="7.70306">
        <ele>1647</ele>
        <time>2017-09-17T16:13:39Z</time>
      </trkpt>
      <trkpt lat="44.04269" lon="7.70299">
        <ele>1647</ele>
        <time>2017-09-17T16:13:40Z</time>
      </trkpt>
      <trkpt lat="44.04269" lon="7.70292">
        <ele>1647</ele>
        <time>2017-09-17T16:13:41Z</time>
      </trkpt>
      <trkpt lat="44.04267" lon="7.70284">
        <ele>1648</ele>
        <time>2017-09-17T16:13:42Z</time>
      </trkpt>
      <trkpt lat="44.04264" lon="7.70278">
        <ele>1648</ele>
        <time>2017-09-17T16:13:43Z</time>
      </trkpt>
      <trkpt lat="44.0426" lon="7.70272">
        <ele>1648</ele>
        <time>2017-09-17T16:13:44Z</time>
      </trkpt>
      <trkpt lat="44.04256" lon="7.70266">
        <ele>1648</ele>
        <time>2017-09-17T16:13:45Z</time>
      </trkpt>
      <trkpt lat="44.04252" lon="7.70261">
        <ele>1649</ele>
        <time>2017-09-17T16:13:46Z</time>
      </trkpt>
      <trkpt lat="44.04246" lon="7.70257">
        <ele>1649</ele>
        <time>2017-09-17T16:13:47Z</time>
      </trkpt>
      <trkpt lat="44.04241" lon="7.70256">
        <ele>1649</ele>
        <time>2017-09-17T16:13:48Z</time>
      </trkpt>
      <trkpt lat="44.04235" lon="7.70254">
        <ele>1650</ele>
        <time>2017-09-17T16:13:49Z</time>
      </trkpt>
      <trkpt lat="44.0423" lon="7.70252">
        <ele>1650</ele>
        <time>2017-09-17T16:13:50Z</time>
      </trkpt>
      <trkpt lat="44.04224" lon="7.70249">
        <ele>1650</ele>
        <time>2017-09-17T16:13:51Z</time>
      </trkpt>
      <trkpt lat="44.0422" lon="7.70245">
        <ele>1650</ele>
        <time>2017-09-17T16:13:52Z</time>
      </trkpt>
      <trkpt lat="44.04216" lon="7.70239">
        <ele>1651</ele>
        <time>2017-09-17T16:13:53Z</time>
      </trkpt>
      <trkpt lat="44.04213" lon="7.70233">
        <ele>1651</ele>
        <time>2017-09-17T16:13:54Z</time>
      </trkpt>
      <trkpt lat="44.0421" lon="7.70226">
        <ele>1651</ele>
        <time>2017-09-17T16:13:55Z</time>
      </trkpt>
      <trkpt lat="44.04207" lon="7.7022">
        <ele>1651</ele>
        <time>2017-09-17T16:13:56Z</time>
      </trkpt>
      <trkpt lat="44.04206" lon="7.70212">
        <ele>1651</ele>
        <time>2017-09-17T16:13:57Z</time>
      </trkpt>
      <trkpt lat="44.04206" lon="7.70205">
        <ele>1651</ele>
        <time>2017-09-17T16:13:58Z</time>
      </trkpt>
      <trkpt lat="44.04206" lon="7.70197">
        <ele>1651</ele>
        <time>2017-09-17T16:13:59Z</time>
      </trkpt>
      <trkpt lat="44.04206" lon="7.70189">
        <ele>1651</ele>
        <time>2017-09-17T16:14:00Z</time>
      </trkpt>
      <trkpt lat="44.04204" lon="7.70181">
        <ele>1651</ele>
        <time>2017-09-17T16:14:01Z</time>
      </trkpt>
      <trkpt lat="44.04201" lon="7.70175">
        <ele>1651</ele>
        <time>2017-09-17T16:14:02Z</time>
      </trkpt>
      <trkpt lat="44.04196" lon="7.70171">
        <ele>1652</ele>
        <time>2017-09-17T16:14:03Z</time>
      </trkpt>
      <trkpt lat="44.04191" lon="7.7017">
        <ele>1652</ele>
        <time>2017-09-17T16:14:04Z</time>
      </trkpt>
      <trkpt lat="44.04185" lon="7.7017">
        <ele>1652</ele>
        <time>2017-09-17T16:14:05Z</time>
      </trkpt>
      <trkpt lat="44.04179" lon="7.7017">
        <ele>1652</ele>
        <time>2017-09-17T16:14:06Z</time>
      </trkpt>
      <trkpt lat="44.04174" lon="7.70168">
        <ele>1652</ele>
        <time>2017-09-17T16:14:07Z</time>
      </trkpt>
      <trkpt lat="44.04169" lon="7.70164">
        <ele>1652</ele>
        <time>2017-09-17T16:14:08Z</time>
      </trkpt>
      <trkpt lat="44.04164" lon="7.70159">
        <ele>1653</ele>
        <time>2017-09-17T16:14:09Z</time>
      </trkpt>
      <trkpt lat="44.0416" lon="7.70154">
        <ele>1653</ele>
        <time>2017-09-17T16:14:10Z</time>
      </trkpt>
      <trkpt lat="44.04156" lon="7.70148">
        <ele>1653</ele>
        <time>2017-09-17T16:14:11Z</time>
      </trkpt>
      <trkpt lat="44.04152" lon="7.70144">
        <ele>1653</ele>
        <time>2017-09-17T16:14:12Z</time>
      </trkpt>
      <trkpt lat="44.04147" lon="7.70141">
        <ele>1653</ele>
        <time>2017-09-17T16:14:13Z</time>
      </trkpt>
      <trkpt lat="44.04142" lon="7.7014">
        <ele>1654</ele>
        <time>2017-09-17T16:14:14Z</time>
      </trkpt>
      <trkpt lat="44.04136" lon="7.70141">
        <ele>1654</ele>
        <time>2017-09-17T16:14:15Z</time>
      </trkpt>
      <trkpt lat="44.04131" lon="7.70143">
        <ele>1654</ele>
        <time>2017-09-17T16:14:16Z</time>
      </trkpt>
      <trkpt lat="44.04126" lon="7.70146">
        <ele>1654</ele>
        <time>2017-09-17T16:14:17Z</time>
      </trkpt>
      <trkpt lat="44.0412" lon="7.70147">
        <ele>1655</ele>
        <time>2017-09-17T16:14:18Z</time>
      </trkpt>
      <trkpt lat="44.04114" lon="7.70146">
        <ele>1655</ele>
        <time>2017-09-17T16:14:19Z</time>
      </trkpt>
      <trkpt lat="44.04109" lon="7.70144">
        <ele>1655</ele>
        <time>2017-09-17T16:14:20Z</time>
      </trkpt>
      <trkpt lat="44.04103" lon="7.70141">
        <ele>1655</ele>
        <time>2017-09-17T16:14:21Z</time>
      </trkpt>
      <trkpt lat="44.04098" lon="7.70138">
        <ele>1656</ele>
        <time>2017-09-17T16:14:22Z</time>
      </trkpt>
      <trkpt lat="44.04092" lon="7.70135">
        <ele>1656</ele>
        <time>2017-09-17T16:14:23Z</time>
      </trkpt>
      <trkpt lat="44.04087" lon="7.70132">
        <ele>1656</ele>
        <time>2017-09-17T16:14:24Z</time>
      </trkpt>
      <trkpt lat="44.04081" lon="7.70129">
        <ele>1657</ele>
        <time>2017-09-17T16:14:25Z</time>
      </trkpt>
      <trkpt lat="44.04076" lon="7.70127">
        <ele>1657</ele>
        <time>2017-09-17T16:14:26Z</time>
      </trkpt>
      <trkpt lat="44.0407" lon="7.70125">
        <ele>1657</ele>
        <time>2017-09-17T16:14:27Z</time>
      </trkpt>
      <trkpt lat="44.04064" lon="7.70125">
        <ele>1657</ele>
        <time>2017-09-17T16:14:28Z</time>
      </trkpt>
      <trkpt lat="44.04058" lon="7.70125">
        <ele>1658</ele>
        <time>2017-09-17T16:14:29Z</time>
      </trkpt>
      <trkpt lat="44.04053" lon="7.70126">
        <ele>1658</ele>
        <time>2017-09-17T16:14:30Z</time>
      </trkpt>
      <trkpt lat="44.04047" lon="7.70128">
        <ele>1658</ele>
        <time>2017-09-17T16:14:31Z</time>
      </trkpt>
      <trkpt lat="44.04042" lon="7.70131">
        <ele>1658</ele>
        <time>2017-09-17T16:14:32Z</time>
      </trkpt>
      <trkpt lat="44.04036" lon="7.70133">
        <ele>1658</ele>
        <time>2017-09-17T16:14:33Z</time>
      </trkpt>
      <trkpt lat="44.0403" lon="7.70135">
        <ele>1658</ele>
        <time>2017-09-17T16:14:34Z</time>
      </trkpt>
      <trkpt lat="44.04025" lon="7.70138">
        <ele>1658</ele>
        <time>2017-09-17T16:14:35Z</time>
      </trkpt>
      <trkpt lat="44.0402" lon="7.70142">
        <ele>1658</ele>
        <time>2017-09-17T16:14:36Z</time>
      </trkpt>
      <trkpt lat="44.04015" lon="7.70147">
        <ele>1658</ele>
        <time>2017-09-17T16:14:37Z</time>
      </trkpt>
      <trkpt lat="44.0401" lon="7.70152">
        <ele>1658</ele>
        <time>2017-09-17T16:14:38Z</time>
      </trkpt>
      <trkpt lat="44.04005" lon="7.70156">
        <ele>1658</ele>
        <time>2017-09-17T16:14:39Z</time>
      </trkpt>
      <trkpt lat="44.04" lon="7.70158">
        <ele>1658</ele>
        <time>2017-09-17T16:14:40Z</time>
      </trkpt>
      <trkpt lat="44.03995" lon="7.70159">
        <ele>1658</ele>
        <time>2017-09-17T16:14:41Z</time>
      </trkpt>
      <trkpt lat="44.03989" lon="7.7016">
        <ele>1658</ele>
        <time>2017-09-17T16:14:42Z</time>
      </trkpt>
      <trkpt lat="44.03983" lon="7.70159">
        <ele>1658</ele>
        <time>2017-09-17T16:14:43Z</time>
      </trkpt>
      <trkpt lat="44.03978" lon="7.70156">
        <ele>1658</ele>
        <time>2017-09-17T16:14:44Z</time>
      </trkpt>
      <trkpt lat="44.03973" lon="7.70151">
        <ele>1658</ele>
        <time>2017-09-17T16:14:45Z</time>
      </trkpt>
      <trkpt lat="44.0397" lon="7.70145">
        <ele>1658</ele>
        <time>2017-09-17T16:14:46Z</time>
      </trkpt>
      <trkpt lat="44.03968" lon="7.70138">
        <ele>1658</ele>
        <time>2017-09-17T16:14:47Z</time>
      </trkpt>
      <trkpt lat="44.03964" lon="7.70132">
        <ele>1658</ele>
        <time>2017-09-17T16:14:48Z</time>
      </trkpt>
      <trkpt lat="44.0396" lon="7.70127">
        <ele>1658</ele>
        <time>2017-09-17T16:14:49Z</time>
      </trkpt>
      <trkpt lat="44.03955" lon="7.70123">
        <ele>1659</ele>
        <time>2017-09-17T16:14:50Z</time>
      </trkpt>
      <trkpt lat="44.03951" lon="7.70118">
        <ele>1659</ele>
        <time>2017-09-17T16:14:51Z</time>
      </trkpt>
      <trkpt lat="44.03949" lon="7.70111">
        <ele>1659</ele>
        <time>2017-09-17T16:14:52Z</time>
      </trkpt>
      <trkpt lat="44.03947" lon="7.70104">
        <ele>1659</ele>
        <time>2017-09-17T16:14:53Z</time>
      </trkpt>
      <trkpt lat="44.03948" lon="7.70097">
        <ele>1659</ele>
        <time>2017-09-17T16:14:54Z</time>
      </trkpt>
      <trkpt lat="44.03949" lon="7.70089">
        <ele>1659</ele>
        <time>2017-09-17T16:14:55Z</time>
      </trkpt>
      <trkpt lat="44.03951" lon="7.70081">
        <ele>1659</ele>
        <time>2017-09-17T16:14:56Z</time>
      </trkpt>
      <trkpt lat="44.03953" lon="7.70074">
        <ele>1659</ele>
        <time>2017-09-17T16:14:57Z</time>
      </trkpt>
      <trkpt lat="44.03956" lon="7.70066">
        <ele>1659</ele>
        <time>2017-09-17T16:14:58Z</time>
      </trkpt>
      <trkpt lat="44.03959" lon="7.70059">
        <ele>1659</ele>
        <time>2017-09-17T16:14:59Z</time>
      </trkpt>
      <trkpt lat="44.03962" lon="7.70052">
        <ele>1659</ele>
        <time>2017-09-17T16:15:00Z</time>
      </trkpt>
      <trkpt lat="44.03965" lon="7.70046">
        <ele>1659</ele>
        <time>2017-09-17T16:15:01Z</time>
      </trkpt>
      <trkpt lat="44.03968" lon="7.70039">
        <ele>1659</ele>
        <time>2017-09-17T16:15:02Z</time>
      </trkpt>
      <trkpt lat="44.03972" lon="7.70033">
        <ele>1659</ele>
        <time>2017-09-17T16:15:03Z</time>
      </trkpt>
      <trkpt lat="44.03975" lon="7.70026">
        <ele>1659</ele>
        <time>2017-09-17T16:15:04Z</time>
      </trkpt>
      <trkpt lat="44.03979" lon="7.7002">
        <ele>1659</ele>
        <time>2017-09-17T16:15:05Z</time>
      </trkpt>
      <trkpt lat="44.03982" lon="7.70013">
        <ele>1659</ele>
        <time>2017-09-17T16:15:06Z</time>
      </trkpt>
      <trkpt lat="44.03985" lon="7.70007">
        <ele>1659</ele>
        <time>2017-09-17T16:15:07Z</time>
      </trkpt>
      <trkpt lat="44.03988" lon="7.70002">
        <ele>1659</ele>
        <time>2017-09-17T16:15:08Z</time>
      </trkpt>
      <trkpt lat="44.03992" lon="7.69996">
        <ele>1659</ele>
        <time>2017-09-17T16:15:09Z</time>
      </trkpt>
      <trkpt lat="44.03996" lon="7.6999">
        <ele>1659</ele>
        <time>2017-09-17T16:15:10Z</time>
      </trkpt>
      <trkpt lat="44.03999" lon="7.69985">
        <ele>1659</ele>
        <time>2017-09-17T16:15:11Z</time>
      </trkpt>
      <trkpt lat="44.04003" lon="7.69978">
        <ele>1659</ele>
        <time>2017-09-17T16:15:12Z</time>
      </trkpt>
      <trkpt lat="44.04007" lon="7.69972">
        <ele>1660</ele>
        <time>2017-09-17T16:15:13Z</time>
      </trkpt>
      <trkpt lat="44.0401" lon="7.69966">
        <ele>1660</ele>
        <time>2017-09-17T16:15:14Z</time>
      </trkpt>
      <trkpt lat="44.04014" lon="7.6996">
        <ele>1660</ele>
        <time>2017-09-17T16:15:15Z</time>
      </trkpt>
      <trkpt lat="44.04016" lon="7.69953">
        <ele>1660</ele>
        <time>2017-09-17T16:15:16Z</time>
      </trkpt>
      <trkpt lat="44.04018" lon="7.69946">
        <ele>1660</ele>
        <time>2017-09-17T16:15:17Z</time>
      </trkpt>
      <trkpt lat="44.04019" lon="7.69938">
        <ele>1660</ele>
        <time>2017-09-17T16:15:18Z</time>
      </trkpt>
      <trkpt lat="44.04019" lon="7.6993">
        <ele>1660</ele>
        <time>2017-09-17T16:15:19Z</time>
      </trkpt>
      <trkpt lat="44.04018" lon="7.69922">
        <ele>1660</ele>
        <time>2017-09-17T16:15:20Z</time>
      </trkpt>
      <trkpt lat="44.04017" lon="7.69915">
        <ele>1660</ele>
        <time>2017-09-17T16:15:21Z</time>
      </trkpt>
      <trkpt lat="44.04015" lon="7.69907">
        <ele>1660</ele>
        <time>2017-09-17T16:15:22Z</time>
      </trkpt>
      <trkpt lat="44.04013" lon="7.69899">
        <ele>1660</ele>
        <time>2017-09-17T16:15:23Z</time>
      </trkpt>
      <trkpt lat="44.04012" lon="7.69892">
        <ele>1660</ele>
        <time>2017-09-17T16:15:24Z</time>
      </trkpt>
      <trkpt lat="44.0401" lon="7.69884">
        <ele>1660</ele>
        <time>2017-09-17T16:15:25Z</time>
      </trkpt>
      <trkpt lat="44.04009" lon="7.69877">
        <ele>1660</ele>
        <time>2017-09-17T16:15:26Z</time>
      </trkpt>
      <trkpt lat="44.04008" lon="7.69869">
        <ele>1661</ele>
        <time>2017-09-17T16:15:27Z</time>
      </trkpt>
      <trkpt lat="44.04007" lon="7.69861">
        <ele>1661</ele>
        <time>2017-09-17T16:15:28Z</time>
      </trkpt>
      <trkpt lat="44.04004" lon="7.69854">
        <ele>1661</ele>
        <time>2017-09-17T16:15:29Z</time>
      </trkpt>
      <trkpt lat="44.04001" lon="7.69847">
        <ele>1661</ele>
        <time>2017-09-17T16:15:30Z</time>
      </trkpt>
      <trkpt lat="44.03997" lon="7.69841">
        <ele>1662</ele>
        <time>2017-09-17T16:15:31Z</time>
      </trkpt>
      <trkpt lat="44.03993" lon="7.69834">
        <ele>1662</ele>
        <time>2017-09-17T16:15:32Z</time>
      </trkpt>
      <trkpt lat="44.03989" lon="7.69829">
        <ele>1662</ele>
        <time>2017-09-17T16:15:33Z</time>
      </trkpt>
      <trkpt lat="44.03985" lon="7.69823">
        <ele>1663</ele>
        <time>2017-09-17T16:15:34Z</time>
      </trkpt>
      <trkpt lat="44.03981" lon="7.69818">
        <ele>1663</ele>
        <time>2017-09-17T16:15:35Z</time>
      </trkpt>
      <trkpt lat="44.03976" lon="7.69812">
        <ele>1663</ele>
        <time>2017-09-17T16:15:36Z</time>
      </trkpt>
      <trkpt lat="44.03971" lon="7.69807">
        <ele>1663</ele>
        <time>2017-09-17T16:15:37Z</time>
      </trkpt>
      <trkpt lat="44.03967" lon="7.69801">
        <ele>1664</ele>
        <time>2017-09-17T16:15:38Z</time>
      </trkpt>
      <trkpt lat="44.03962" lon="7.69796">
        <ele>1664</ele>
        <time>2017-09-17T16:15:39Z</time>
      </trkpt>
      <trkpt lat="44.03957" lon="7.69791">
        <ele>1664</ele>
        <time>2017-09-17T16:15:40Z</time>
      </trkpt>
      <trkpt lat="44.03952" lon="7.69786">
        <ele>1664</ele>
        <time>2017-09-17T16:15:41Z</time>
      </trkpt>
      <trkpt lat="44.03947" lon="7.69782">
        <ele>1665</ele>
        <time>2017-09-17T16:15:42Z</time>
      </trkpt>
      <trkpt lat="44.03942" lon="7.69778">
        <ele>1665</ele>
        <time>2017-09-17T16:15:43Z</time>
      </trkpt>
      <trkpt lat="44.03938" lon="7.69773">
        <ele>1665</ele>
        <time>2017-09-17T16:15:44Z</time>
      </trkpt>
      <trkpt lat="44.03933" lon="7.69767">
        <ele>1665</ele>
        <time>2017-09-17T16:15:45Z</time>
      </trkpt>
      <trkpt lat="44.0393" lon="7.69761">
        <ele>1665</ele>
        <time>2017-09-17T16:15:46Z</time>
      </trkpt>
      <trkpt lat="44.03926" lon="7.69755">
        <ele>1666</ele>
        <time>2017-09-17T16:15:47Z</time>
      </trkpt>
      <trkpt lat="44.03923" lon="7.69748">
        <ele>1666</ele>
        <time>2017-09-17T16:15:48Z</time>
      </trkpt>
      <trkpt lat="44.0392" lon="7.69741">
        <ele>1666</ele>
        <time>2017-09-17T16:15:49Z</time>
      </trkpt>
      <trkpt lat="44.03916" lon="7.69735">
        <ele>1666</ele>
        <time>2017-09-17T16:15:50Z</time>
      </trkpt>
      <trkpt lat="44.03913" lon="7.69728">
        <ele>1666</ele>
        <time>2017-09-17T16:15:51Z</time>
      </trkpt>
      <trkpt lat="44.03909" lon="7.69723">
        <ele>1666</ele>
        <time>2017-09-17T16:15:52Z</time>
      </trkpt>
      <trkpt lat="44.03904" lon="7.69718">
        <ele>1666</ele>
        <time>2017-09-17T16:15:53Z</time>
      </trkpt>
      <trkpt lat="44.03898" lon="7.69716">
        <ele>1666</ele>
        <time>2017-09-17T16:15:54Z</time>
      </trkpt>
      <trkpt lat="44.03892" lon="7.69715">
        <ele>1667</ele>
        <time>2017-09-17T16:15:55Z</time>
      </trkpt>
      <trkpt lat="44.03886" lon="7.69715">
        <ele>1667</ele>
        <time>2017-09-17T16:15:56Z</time>
      </trkpt>
      <trkpt lat="44.0388" lon="7.69714">
        <ele>1667</ele>
        <time>2017-09-17T16:15:57Z</time>
      </trkpt>
      <trkpt lat="44.03874" lon="7.69713">
        <ele>1667</ele>
        <time>2017-09-17T16:15:58Z</time>
      </trkpt>
      <trkpt lat="44.03867" lon="7.69711">
        <ele>1667</ele>
        <time>2017-09-17T16:15:59Z</time>
      </trkpt>
      <trkpt lat="44.03862" lon="7.69708">
        <ele>1667</ele>
        <time>2017-09-17T16:16:00Z</time>
      </trkpt>
      <trkpt lat="44.03856" lon="7.69704">
        <ele>1667</ele>
        <time>2017-09-17T16:16:01Z</time>
      </trkpt>
      <trkpt lat="44.03851" lon="7.697">
        <ele>1667</ele>
        <time>2017-09-17T16:16:02Z</time>
      </trkpt>
      <trkpt lat="44.03845" lon="7.69697">
        <ele>1667</ele>
        <time>2017-09-17T16:16:03Z</time>
      </trkpt>
      <trkpt lat="44.0384" lon="7.69693">
        <ele>1668</ele>
        <time>2017-09-17T16:16:04Z</time>
      </trkpt>
      <trkpt lat="44.03835" lon="7.69688">
        <ele>1668</ele>
        <time>2017-09-17T16:16:05Z</time>
      </trkpt>
      <trkpt lat="44.03831" lon="7.69683">
        <ele>1668</ele>
        <time>2017-09-17T16:16:06Z</time>
      </trkpt>
      <trkpt lat="44.03827" lon="7.69677">
        <ele>1668</ele>
        <time>2017-09-17T16:16:07Z</time>
      </trkpt>
      <trkpt lat="44.03822" lon="7.69672">
        <ele>1668</ele>
        <time>2017-09-17T16:16:08Z</time>
      </trkpt>
      <trkpt lat="44.03817" lon="7.69669">
        <ele>1668</ele>
        <time>2017-09-17T16:16:09Z</time>
      </trkpt>
      <trkpt lat="44.03811" lon="7.69667">
        <ele>1668</ele>
        <time>2017-09-17T16:16:10Z</time>
      </trkpt>
      <trkpt lat="44.03805" lon="7.69667">
        <ele>1668</ele>
        <time>2017-09-17T16:16:11Z</time>
      </trkpt>
      <trkpt lat="44.03799" lon="7.69669">
        <ele>1668</ele>
        <time>2017-09-17T16:16:12Z</time>
      </trkpt>
      <trkpt lat="44.03794" lon="7.6967">
        <ele>1668</ele>
        <time>2017-09-17T16:16:13Z</time>
      </trkpt>
      <trkpt lat="44.03788" lon="7.6967">
        <ele>1668</ele>
        <time>2017-09-17T16:16:14Z</time>
      </trkpt>
      <trkpt lat="44.03782" lon="7.69671">
        <ele>1668</ele>
        <time>2017-09-17T16:16:15Z</time>
      </trkpt>
      <trkpt lat="44.03776" lon="7.69673">
        <ele>1669</ele>
        <time>2017-09-17T16:16:16Z</time>
      </trkpt>
      <trkpt lat="44.03771" lon="7.69675">
        <ele>1669</ele>
        <time>2017-09-17T16:16:17Z</time>
      </trkpt>
      <trkpt lat="44.03765" lon="7.69676">
        <ele>1669</ele>
        <time>2017-09-17T16:16:18Z</time>
      </trkpt>
      <trkpt lat="44.03759" lon="7.69676">
        <ele>1669</ele>
        <time>2017-09-17T16:16:19Z</time>
      </trkpt>
      <trkpt lat="44.03754" lon="7.69675">
        <ele>1669</ele>
        <time>2017-09-17T16:16:20Z</time>
      </trkpt>
      <trkpt lat="44.03748" lon="7.69674">
        <ele>1669</ele>
        <time>2017-09-17T16:16:21Z</time>
      </trkpt>
      <trkpt lat="44.03742" lon="7.69673">
        <ele>1669</ele>
        <time>2017-09-17T16:16:22Z</time>
      </trkpt>
      <trkpt lat="44.03737" lon="7.69672">
        <ele>1669</ele>
        <time>2017-09-17T16:16:23Z</time>
      </trkpt>
      <trkpt lat="44.03731" lon="7.69671">
        <ele>1669</ele>
        <time>2017-09-17T16:16:24Z</time>
      </trkpt>
      <trkpt lat="44.03725" lon="7.6967">
        <ele>1669</ele>
        <time>2017-09-17T16:16:25Z</time>
      </trkpt>
      <trkpt lat="44.03719" lon="7.69669">
        <ele>1669</ele>
        <time>2017-09-17T16:16:26Z</time>
      </trkpt>
      <trkpt lat="44.03713" lon="7.69667">
        <ele>1669</ele>
        <time>2017-09-17T16:16:27Z</time>
      </trkpt>
      <trkpt lat="44.03707" lon="7.69666">
        <ele>1670</ele>
        <time>2017-09-17T16:16:28Z</time>
      </trkpt>
      <trkpt lat="44.03701" lon="7.69664">
        <ele>1670</ele>
        <time>2017-09-17T16:16:29Z</time>
      </trkpt>
      <trkpt lat="44.03696" lon="7.69664">
        <ele>1670</ele>
        <time>2017-09-17T16:16:30Z</time>
      </trkpt>
      <trkpt lat="44.0369" lon="7.69665">
        <ele>1670</ele>
        <time>2017-09-17T16:16:31Z</time>
      </trkpt>
      <trkpt lat="44.03684" lon="7.69665">
        <ele>1670</ele>
        <time>2017-09-17T16:16:32Z</time>
      </trkpt>
      <trkpt lat="44.03678" lon="7.69665">
        <ele>1670</ele>
        <time>2017-09-17T16:16:33Z</time>
      </trkpt>
      <trkpt lat="44.03673" lon="7.69664">
        <ele>1670</ele>
        <time>2017-09-17T16:16:34Z</time>
      </trkpt>
      <trkpt lat="44.03667" lon="7.69665">
        <ele>1670</ele>
        <time>2017-09-17T16:16:35Z</time>
      </trkpt>
      <trkpt lat="44.03661" lon="7.69665">
        <ele>1670</ele>
        <time>2017-09-17T16:16:36Z</time>
      </trkpt>
      <trkpt lat="44.03655" lon="7.69666">
        <ele>1670</ele>
        <time>2017-09-17T16:16:37Z</time>
      </trkpt>
      <trkpt lat="44.03649" lon="7.69666">
        <ele>1669</ele>
        <time>2017-09-17T16:16:38Z</time>
      </trkpt>
      <trkpt lat="44.03643" lon="7.69667">
        <ele>1669</ele>
        <time>2017-09-17T16:16:39Z</time>
      </trkpt>
      <trkpt lat="44.03637" lon="7.69668">
        <ele>1669</ele>
        <time>2017-09-17T16:16:40Z</time>
      </trkpt>
      <trkpt lat="44.03632" lon="7.69667">
        <ele>1669</ele>
        <time>2017-09-17T16:16:41Z</time>
      </trkpt>
      <trkpt lat="44.03627" lon="7.69663">
        <ele>1669</ele>
        <time>2017-09-17T16:16:42Z</time>
      </trkpt>
      <trkpt lat="44.03624" lon="7.69656">
        <ele>1669</ele>
        <time>2017-09-17T16:16:43Z</time>
      </trkpt>
      <trkpt lat="44.03625" lon="7.69648">
        <ele>1668</ele>
        <time>2017-09-17T16:16:44Z</time>
      </trkpt>
      <trkpt lat="44.03627" lon="7.69641">
        <ele>1668</ele>
        <time>2017-09-17T16:16:45Z</time>
      </trkpt>
      <trkpt lat="44.0363" lon="7.69635">
        <ele>1668</ele>
        <time>2017-09-17T16:16:46Z</time>
      </trkpt>
      <trkpt lat="44.03635" lon="7.69629">
        <ele>1668</ele>
        <time>2017-09-17T16:16:47Z</time>
      </trkpt>
      <trkpt lat="44.03639" lon="7.69623">
        <ele>1668</ele>
        <time>2017-09-17T16:16:48Z</time>
      </trkpt>
      <trkpt lat="44.03643" lon="7.69618">
        <ele>1668</ele>
        <time>2017-09-17T16:16:49Z</time>
      </trkpt>
      <trkpt lat="44.03648" lon="7.69613">
        <ele>1668</ele>
        <time>2017-09-17T16:16:50Z</time>
      </trkpt>
      <trkpt lat="44.03653" lon="7.69608">
        <ele>1668</ele>
        <time>2017-09-17T16:16:51Z</time>
      </trkpt>
      <trkpt lat="44.03658" lon="7.69604">
        <ele>1668</ele>
        <time>2017-09-17T16:16:52Z</time>
      </trkpt>
      <trkpt lat="44.03663" lon="7.69599">
        <ele>1668</ele>
        <time>2017-09-17T16:16:53Z</time>
      </trkpt>
      <trkpt lat="44.03669" lon="7.69595">
        <ele>1668</ele>
        <time>2017-09-17T16:16:54Z</time>
      </trkpt>
      <trkpt lat="44.03674" lon="7.69591">
        <ele>1668</ele>
        <time>2017-09-17T16:16:55Z</time>
      </trkpt>
      <trkpt lat="44.03678" lon="7.69587">
        <ele>1668</ele>
        <time>2017-09-17T16:16:56Z</time>
      </trkpt>
      <trkpt lat="44.03683" lon="7.69583">
        <ele>1668</ele>
        <time>2017-09-17T16:16:57Z</time>
      </trkpt>
      <trkpt lat="44.03688" lon="7.6958">
        <ele>1668</ele>
        <time>2017-09-17T16:16:58Z</time>
      </trkpt>
      <trkpt lat="44.03693" lon="7.69576">
        <ele>1668</ele>
        <time>2017-09-17T16:16:59Z</time>
      </trkpt>
      <trkpt lat="44.03699" lon="7.69574">
        <ele>1668</ele>
        <time>2017-09-17T16:17:00Z</time>
      </trkpt>
      <trkpt lat="44.03704" lon="7.6957">
        <ele>1667</ele>
        <time>2017-09-17T16:17:01Z</time>
      </trkpt>
      <trkpt lat="44.0371" lon="7.69566">
        <ele>1667</ele>
        <time>2017-09-17T16:17:02Z</time>
      </trkpt>
      <trkpt lat="44.03715" lon="7.69562">
        <ele>1667</ele>
        <time>2017-09-17T16:17:03Z</time>
      </trkpt>
      <trkpt lat="44.03721" lon="7.69558">
        <ele>1667</ele>
        <time>2017-09-17T16:17:04Z</time>
      </trkpt>
      <trkpt lat="44.03726" lon="7.69554">
        <ele>1667</ele>
        <time>2017-09-17T16:17:05Z</time>
      </trkpt>
      <trkpt lat="44.03731" lon="7.6955">
        <ele>1667</ele>
        <time>2017-09-17T16:17:06Z</time>
      </trkpt>
      <trkpt lat="44.03737" lon="7.69546">
        <ele>1667</ele>
        <time>2017-09-17T16:17:07Z</time>
      </trkpt>
      <trkpt lat="44.03742" lon="7.69542">
        <ele>1667</ele>
        <time>2017-09-17T16:17:08Z</time>
      </trkpt>
      <trkpt lat="44.03747" lon="7.69538">
        <ele>1667</ele>
        <time>2017-09-17T16:17:09Z</time>
      </trkpt>
      <trkpt lat="44.03753" lon="7.69535">
        <ele>1667</ele>
        <time>2017-09-17T16:17:10Z</time>
      </trkpt>
      <trkpt lat="44.03758" lon="7.69531">
        <ele>1667</ele>
        <time>2017-09-17T16:17:11Z</time>
      </trkpt>
      <trkpt lat="44.03763" lon="7.69527">
        <ele>1667</ele>
        <time>2017-09-17T16:17:12Z</time>
      </trkpt>
      <trkpt lat="44.03768" lon="7.69523">
        <ele>1667</ele>
        <time>2017-09-17T16:17:13Z</time>
      </trkpt>
      <trkpt lat="44.03774" lon="7.69519">
        <ele>1667</ele>
        <time>2017-09-17T16:17:14Z</time>
      </trkpt>
      <trkpt lat="44.03779" lon="7.69515">
        <ele>1667</ele>
        <time>2017-09-17T16:17:15Z</time>
      </trkpt>
      <trkpt lat="44.03784" lon="7.69511">
        <ele>1667</ele>
        <time>2017-09-17T16:17:16Z</time>
      </trkpt>
      <trkpt lat="44.03788" lon="7.69505">
        <ele>1667</ele>
        <time>2017-09-17T16:17:17Z</time>
      </trkpt>
      <trkpt lat="44.03793" lon="7.695">
        <ele>1667</ele>
        <time>2017-09-17T16:17:18Z</time>
      </trkpt>
      <trkpt lat="44.03797" lon="7.69494">
        <ele>1667</ele>
        <time>2017-09-17T16:17:19Z</time>
      </trkpt>
      <trkpt lat="44.03801" lon="7.69488">
        <ele>1667</ele>
        <time>2017-09-17T16:17:20Z</time>
      </trkpt>
      <trkpt lat="44.03805" lon="7.69482">
        <ele>1667</ele>
        <time>2017-09-17T16:17:21Z</time>
      </trkpt>
      <trkpt lat="44.03809" lon="7.69475">
        <ele>1667</ele>
        <time>2017-09-17T16:17:22Z</time>
      </trkpt>
      <trkpt lat="44.03812" lon="7.69469">
        <ele>1667</ele>
        <time>2017-09-17T16:17:23Z</time>
      </trkpt>
      <trkpt lat="44.03815" lon="7.69462">
        <ele>1667</ele>
        <time>2017-09-17T16:17:24Z</time>
      </trkpt>
      <trkpt lat="44.03817" lon="7.69454">
        <ele>1667</ele>
        <time>2017-09-17T16:17:25Z</time>
      </trkpt>
      <trkpt lat="44.03819" lon="7.69446">
        <ele>1667</ele>
        <time>2017-09-17T16:17:26Z</time>
      </trkpt>
      <trkpt lat="44.0382" lon="7.69438">
        <ele>1668</ele>
        <time>2017-09-17T16:17:27Z</time>
      </trkpt>
      <trkpt lat="44.03821" lon="7.6943">
        <ele>1668</ele>
        <time>2017-09-17T16:17:28Z</time>
      </trkpt>
      <trkpt lat="44.03822" lon="7.69422">
        <ele>1668</ele>
        <time>2017-09-17T16:17:29Z</time>
      </trkpt>
      <trkpt lat="44.03823" lon="7.69414">
        <ele>1668</ele>
        <time>2017-09-17T16:17:30Z</time>
      </trkpt>
      <trkpt lat="44.03824" lon="7.69406">
        <ele>1668</ele>
        <time>2017-09-17T16:17:31Z</time>
      </trkpt>
      <trkpt lat="44.03826" lon="7.69399">
        <ele>1668</ele>
        <time>2017-09-17T16:17:32Z</time>
      </trkpt>
      <trkpt lat="44.03828" lon="7.69391">
        <ele>1668</ele>
        <time>2017-09-17T16:17:33Z</time>
      </trkpt>
      <trkpt lat="44.03831" lon="7.69384">
        <ele>1668</ele>
        <time>2017-09-17T16:17:34Z</time>
      </trkpt>
      <trkpt lat="44.03834" lon="7.69377">
        <ele>1668</ele>
        <time>2017-09-17T16:17:35Z</time>
      </trkpt>
      <trkpt lat="44.03838" lon="7.69371">
        <ele>1669</ele>
        <time>2017-09-17T16:17:36Z</time>
      </trkpt>
      <trkpt lat="44.03842" lon="7.69365">
        <ele>1669</ele>
        <time>2017-09-17T16:17:37Z</time>
      </trkpt>
      <trkpt lat="44.03846" lon="7.69359">
        <ele>1669</ele>
        <time>2017-09-17T16:17:38Z</time>
      </trkpt>
      <trkpt lat="44.0385" lon="7.69353">
        <ele>1669</ele>
        <time>2017-09-17T16:17:39Z</time>
      </trkpt>
      <trkpt lat="44.03854" lon="7.69347">
        <ele>1669</ele>
        <time>2017-09-17T16:17:40Z</time>
      </trkpt>
      <trkpt lat="44.03858" lon="7.6934">
        <ele>1669</ele>
        <time>2017-09-17T16:17:41Z</time>
      </trkpt>
      <trkpt lat="44.03861" lon="7.69333">
        <ele>1669</ele>
        <time>2017-09-17T16:17:42Z</time>
      </trkpt>
      <trkpt lat="44.03864" lon="7.69326">
        <ele>1669</ele>
        <time>2017-09-17T16:17:43Z</time>
      </trkpt>
      <trkpt lat="44.03867" lon="7.69319">
        <ele>1669</ele>
        <time>2017-09-17T16:17:44Z</time>
      </trkpt>
      <trkpt lat="44.03871" lon="7.69312">
        <ele>1669</ele>
        <time>2017-09-17T16:17:45Z</time>
      </trkpt>
      <trkpt lat="44.03875" lon="7.69305">
        <ele>1669</ele>
        <time>2017-09-17T16:17:46Z</time>
      </trkpt>
      <trkpt lat="44.03879" lon="7.69298">
        <ele>1669</ele>
        <time>2017-09-17T16:17:47Z</time>
      </trkpt>
      <trkpt lat="44.03882" lon="7.69291">
        <ele>1669</ele>
        <time>2017-09-17T16:17:48Z</time>
      </trkpt>
      <trkpt lat="44.03884" lon="7.69283">
        <ele>1669</ele>
        <time>2017-09-17T16:17:49Z</time>
      </trkpt>
      <trkpt lat="44.03885" lon="7.69274">
        <ele>1669</ele>
        <time>2017-09-17T16:17:50Z</time>
      </trkpt>
      <trkpt lat="44.03886" lon="7.69266">
        <ele>1669</ele>
        <time>2017-09-17T16:17:51Z</time>
      </trkpt>
      <trkpt lat="44.03886" lon="7.69257">
        <ele>1669</ele>
        <time>2017-09-17T16:17:52Z</time>
      </trkpt>
      <trkpt lat="44.03887" lon="7.69249">
        <ele>1669</ele>
        <time>2017-09-17T16:17:53Z</time>
      </trkpt>
      <trkpt lat="44.03887" lon="7.69241">
        <ele>1669</ele>
        <time>2017-09-17T16:17:54Z</time>
      </trkpt>
      <trkpt lat="44.03888" lon="7.69233">
        <ele>1669</ele>
        <time>2017-09-17T16:17:55Z</time>
      </trkpt>
      <trkpt lat="44.0389" lon="7.69225">
        <ele>1669</ele>
        <time>2017-09-17T16:17:56Z</time>
      </trkpt>
      <trkpt lat="44.03891" lon="7.69217">
        <ele>1670</ele>
        <time>2017-09-17T16:17:57Z</time>
      </trkpt>
      <trkpt lat="44.03893" lon="7.69209">
        <ele>1670</ele>
        <time>2017-09-17T16:17:58Z</time>
      </trkpt>
      <trkpt lat="44.03894" lon="7.69202">
        <ele>1670</ele>
        <time>2017-09-17T16:17:59Z</time>
      </trkpt>
      <trkpt lat="44.03895" lon="7.69194">
        <ele>1670</ele>
        <time>2017-09-17T16:18:00Z</time>
      </trkpt>
      <trkpt lat="44.03895" lon="7.69186">
        <ele>1670</ele>
        <time>2017-09-17T16:18:01Z</time>
      </trkpt>
      <trkpt lat="44.03895" lon="7.69178">
        <ele>1671</ele>
        <time>2017-09-17T16:18:02Z</time>
      </trkpt>
      <trkpt lat="44.03895" lon="7.6917">
        <ele>1671</ele>
        <time>2017-09-17T16:18:03Z</time>
      </trkpt>
      <trkpt lat="44.03894" lon="7.69162">
        <ele>1671</ele>
        <time>2017-09-17T16:18:04Z</time>
      </trkpt>
      <trkpt lat="44.03893" lon="7.69154">
        <ele>1671</ele>
        <time>2017-09-17T16:18:05Z</time>
      </trkpt>
      <trkpt lat="44.03892" lon="7.69146">
        <ele>1671</ele>
        <time>2017-09-17T16:18:06Z</time>
      </trkpt>
      <trkpt lat="44.0389" lon="7.69139">
        <ele>1671</ele>
        <time>2017-09-17T16:18:07Z</time>
      </trkpt>
      <trkpt lat="44.03888" lon="7.69131">
        <ele>1672</ele>
        <time>2017-09-17T16:18:08Z</time>
      </trkpt>
      <trkpt lat="44.03885" lon="7.69124">
        <ele>1672</ele>
        <time>2017-09-17T16:18:09Z</time>
      </trkpt>
      <trkpt lat="44.03883" lon="7.69117">
        <ele>1672</ele>
        <time>2017-09-17T16:18:10Z</time>
      </trkpt>
      <trkpt lat="44.0388" lon="7.6911">
        <ele>1672</ele>
        <time>2017-09-17T16:18:11Z</time>
      </trkpt>
      <trkpt lat="44.03879" lon="7.69102">
        <ele>1673</ele>
        <time>2017-09-17T16:18:12Z</time>
      </trkpt>
      <trkpt lat="44.03878" lon="7.69094">
        <ele>1673</ele>
        <time>2017-09-17T16:18:13Z</time>
      </trkpt>
      <trkpt lat="44.03878" lon="7.69086">
        <ele>1673</ele>
        <time>2017-09-17T16:18:14Z</time>
      </trkpt>
      <trkpt lat="44.03878" lon="7.69078">
        <ele>1673</ele>
        <time>2017-09-17T16:18:15Z</time>
      </trkpt>
      <trkpt lat="44.0388" lon="7.6907">
        <ele>1673</ele>
        <time>2017-09-17T16:18:16Z</time>
      </trkpt>
      <trkpt lat="44.03883" lon="7.69063">
        <ele>1674</ele>
        <time>2017-09-17T16:18:17Z</time>
      </trkpt>
      <trkpt lat="44.03886" lon="7.69056">
        <ele>1674</ele>
        <time>2017-09-17T16:18:18Z</time>
      </trkpt>
      <trkpt lat="44.03888" lon="7.69048">
        <ele>1674</ele>
        <time>2017-09-17T16:18:19Z</time>
      </trkpt>
      <trkpt lat="44.03888" lon="7.6904">
        <ele>1674</ele>
        <time>2017-09-17T16:18:20Z</time>
      </trkpt>
      <trkpt lat="44.03887" lon="7.69032">
        <ele>1674</ele>
        <time>2017-09-17T16:18:21Z</time>
      </trkpt>
      <trkpt lat="44.03887" lon="7.69024">
        <ele>1674</ele>
        <time>2017-09-17T16:18:22Z</time>
      </trkpt>
      <trkpt lat="44.03887" lon="7.69015">
        <ele>1674</ele>
        <time>2017-09-17T16:18:23Z</time>
      </trkpt>
      <trkpt lat="44.03887" lon="7.69007">
        <ele>1674</ele>
        <time>2017-09-17T16:18:24Z</time>
      </trkpt>
      <trkpt lat="44.03887" lon="7.68999">
        <ele>1674</ele>
        <time>2017-09-17T16:18:25Z</time>
      </trkpt>
      <trkpt lat="44.03886" lon="7.68992">
        <ele>1675</ele>
        <time>2017-09-17T16:18:26Z</time>
      </trkpt>
      <trkpt lat="44.03885" lon="7.68985">
        <ele>1675</ele>
        <time>2017-09-17T16:18:27Z</time>
      </trkpt>
      <trkpt lat="44.03884" lon="7.68977">
        <ele>1675</ele>
        <time>2017-09-17T16:18:28Z</time>
      </trkpt>
      <trkpt lat="44.03883" lon="7.68969">
        <ele>1675</ele>
        <time>2017-09-17T16:18:29Z</time>
      </trkpt>
      <trkpt lat="44.03881" lon="7.68961">
        <ele>1675</ele>
        <time>2017-09-17T16:18:30Z</time>
      </trkpt>
      <trkpt lat="44.03879" lon="7.68953">
        <ele>1675</ele>
        <time>2017-09-17T16:18:31Z</time>
      </trkpt>
      <trkpt lat="44.03877" lon="7.68946">
        <ele>1676</ele>
        <time>2017-09-17T16:18:32Z</time>
      </trkpt>
      <trkpt lat="44.03873" lon="7.68939">
        <ele>1676</ele>
        <time>2017-09-17T16:18:33Z</time>
      </trkpt>
      <trkpt lat="44.03869" lon="7.68933">
        <ele>1676</ele>
        <time>2017-09-17T16:18:34Z</time>
      </trkpt>
      <trkpt lat="44.03865" lon="7.68927">
        <ele>1676</ele>
        <time>2017-09-17T16:18:35Z</time>
      </trkpt>
      <trkpt lat="44.0386" lon="7.68921">
        <ele>1676</ele>
        <time>2017-09-17T16:18:36Z</time>
      </trkpt>
      <trkpt lat="44.03857" lon="7.68914">
        <ele>1676</ele>
        <time>2017-09-17T16:18:37Z</time>
      </trkpt>
      <trkpt lat="44.03853" lon="7.68908">
        <ele>1677</ele>
        <time>2017-09-17T16:18:38Z</time>
      </trkpt>
      <trkpt lat="44.03848" lon="7.68903">
        <ele>1677</ele>
        <time>2017-09-17T16:18:39Z</time>
      </trkpt>
      <trkpt lat="44.03843" lon="7.68898">
        <ele>1677</ele>
        <time>2017-09-17T16:18:40Z</time>
      </trkpt>
      <trkpt lat="44.03838" lon="7.68893">
        <ele>1677</ele>
        <time>2017-09-17T16:18:41Z</time>
      </trkpt>
      <trkpt lat="44.03833" lon="7.68889">
        <ele>1677</ele>
        <time>2017-09-17T16:18:42Z</time>
      </trkpt>
      <trkpt lat="44.03828" lon="7.68884">
        <ele>1677</ele>
        <time>2017-09-17T16:18:43Z</time>
      </trkpt>
      <trkpt lat="44.03824" lon="7.68878">
        <ele>1678</ele>
        <time>2017-09-17T16:18:44Z</time>
      </trkpt>
      <trkpt lat="44.0382" lon="7.68872">
        <ele>1678</ele>
        <time>2017-09-17T16:18:45Z</time>
      </trkpt>
      <trkpt lat="44.03817" lon="7.68864">
        <ele>1678</ele>
        <time>2017-09-17T16:18:46Z</time>
      </trkpt>
      <trkpt lat="44.03815" lon="7.68857">
        <ele>1678</ele>
        <time>2017-09-17T16:18:47Z</time>
      </trkpt>
      <trkpt lat="44.03814" lon="7.68849">
        <ele>1678</ele>
        <time>2017-09-17T16:18:48Z</time>
      </trkpt>
      <trkpt lat="44.03814" lon="7.68841">
        <ele>1677</ele>
        <time>2017-09-17T16:18:49Z</time>
      </trkpt>
      <trkpt lat="44.03814" lon="7.68833">
        <ele>1677</ele>
        <time>2017-09-17T16:18:50Z</time>
      </trkpt>
      <trkpt lat="44.03813" lon="7.68826">
        <ele>1677</ele>
        <time>2017-09-17T16:18:51Z</time>
      </trkpt>
      <trkpt lat="44.03812" lon="7.68818">
        <ele>1677</ele>
        <time>2017-09-17T16:18:52Z</time>
      </trkpt>
      <trkpt lat="44.0381" lon="7.6881">
        <ele>1677</ele>
        <time>2017-09-17T16:18:53Z</time>
      </trkpt>
      <trkpt lat="44.03808" lon="7.68803">
        <ele>1677</ele>
        <time>2017-09-17T16:18:54Z</time>
      </trkpt>
      <trkpt lat="44.03806" lon="7.68795">
        <ele>1677</ele>
        <time>2017-09-17T16:18:55Z</time>
      </trkpt>
      <trkpt lat="44.03803" lon="7.68788">
        <ele>1677</ele>
        <time>2017-09-17T16:18:56Z</time>
      </trkpt>
      <trkpt lat="44.038" lon="7.68781">
        <ele>1677</ele>
        <time>2017-09-17T16:18:57Z</time>
      </trkpt>
      <trkpt lat="44.03797" lon="7.68774">
        <ele>1677</ele>
        <time>2017-09-17T16:18:58Z</time>
      </trkpt>
      <trkpt lat="44.03793" lon="7.68768">
        <ele>1677</ele>
        <time>2017-09-17T16:18:59Z</time>
      </trkpt>
      <trkpt lat="44.03789" lon="7.68762">
        <ele>1677</ele>
        <time>2017-09-17T16:19:00Z</time>
      </trkpt>
      <trkpt lat="44.03784" lon="7.68756">
        <ele>1677</ele>
        <time>2017-09-17T16:19:01Z</time>
      </trkpt>
      <trkpt lat="44.0378" lon="7.68751">
        <ele>1678</ele>
        <time>2017-09-17T16:19:02Z</time>
      </trkpt>
      <trkpt lat="44.03775" lon="7.68746">
        <ele>1678</ele>
        <time>2017-09-17T16:19:03Z</time>
      </trkpt>
      <trkpt lat="44.0377" lon="7.68741">
        <ele>1678</ele>
        <time>2017-09-17T16:19:04Z</time>
      </trkpt>
      <trkpt lat="44.03765" lon="7.68737">
        <ele>1678</ele>
        <time>2017-09-17T16:19:05Z</time>
      </trkpt>
      <trkpt lat="44.0376" lon="7.68733">
        <ele>1679</ele>
        <time>2017-09-17T16:19:06Z</time>
      </trkpt>
      <trkpt lat="44.03755" lon="7.68729">
        <ele>1679</ele>
        <time>2017-09-17T16:19:07Z</time>
      </trkpt>
      <trkpt lat="44.03749" lon="7.68725">
        <ele>1679</ele>
        <time>2017-09-17T16:19:08Z</time>
      </trkpt>
      <trkpt lat="44.03744" lon="7.68721">
        <ele>1679</ele>
        <time>2017-09-17T16:19:09Z</time>
      </trkpt>
      <trkpt lat="44.03739" lon="7.68717">
        <ele>1679</ele>
        <time>2017-09-17T16:19:10Z</time>
      </trkpt>
      <trkpt lat="44.03734" lon="7.68713">
        <ele>1680</ele>
        <time>2017-09-17T16:19:11Z</time>
      </trkpt>
      <trkpt lat="44.03729" lon="7.68709">
        <ele>1680</ele>
        <time>2017-09-17T16:19:12Z</time>
      </trkpt>
      <trkpt lat="44.03725" lon="7.68704">
        <ele>1680</ele>
        <time>2017-09-17T16:19:13Z</time>
      </trkpt>
      <trkpt lat="44.03721" lon="7.68698">
        <ele>1680</ele>
        <time>2017-09-17T16:19:14Z</time>
      </trkpt>
      <trkpt lat="44.03718" lon="7.68691">
        <ele>1680</ele>
        <time>2017-09-17T16:19:15Z</time>
      </trkpt>
      <trkpt lat="44.03718" lon="7.68684">
        <ele>1680</ele>
        <time>2017-09-17T16:19:16Z</time>
      </trkpt>
      <trkpt lat="44.03718" lon="7.68676">
        <ele>1680</ele>
        <time>2017-09-17T16:19:17Z</time>
      </trkpt>
      <trkpt lat="44.03719" lon="7.68668">
        <ele>1680</ele>
        <time>2017-09-17T16:19:18Z</time>
      </trkpt>
      <trkpt lat="44.03721" lon="7.68661">
        <ele>1680</ele>
        <time>2017-09-17T16:19:19Z</time>
      </trkpt>
      <trkpt lat="44.03724" lon="7.68653">
        <ele>1679</ele>
        <time>2017-09-17T16:19:20Z</time>
      </trkpt>
      <trkpt lat="44.03726" lon="7.68646">
        <ele>1679</ele>
        <time>2017-09-17T16:19:21Z</time>
      </trkpt>
      <trkpt lat="44.03728" lon="7.68638">
        <ele>1679</ele>
        <time>2017-09-17T16:19:22Z</time>
      </trkpt>
      <trkpt lat="44.0373" lon="7.6863">
        <ele>1679</ele>
        <time>2017-09-17T16:19:23Z</time>
      </trkpt>
      <trkpt lat="44.03732" lon="7.68622">
        <ele>1679</ele>
        <time>2017-09-17T16:19:24Z</time>
      </trkpt>
      <trkpt lat="44.03734" lon="7.68614">
        <ele>1679</ele>
        <time>2017-09-17T16:19:25Z</time>
      </trkpt>
      <trkpt lat="44.03735" lon="7.68606">
        <ele>1679</ele>
        <time>2017-09-17T16:19:26Z</time>
      </trkpt>
      <trkpt lat="44.03736" lon="7.68597">
        <ele>1679</ele>
        <time>2017-09-17T16:19:27Z</time>
      </trkpt>
      <trkpt lat="44.03737" lon="7.68589">
        <ele>1679</ele>
        <time>2017-09-17T16:19:28Z</time>
      </trkpt>
      <trkpt lat="44.03737" lon="7.68581">
        <ele>1679</ele>
        <time>2017-09-17T16:19:29Z</time>
      </trkpt>
      <trkpt lat="44.03737" lon="7.68573">
        <ele>1679</ele>
        <time>2017-09-17T16:19:30Z</time>
      </trkpt>
      <trkpt lat="44.03737" lon="7.68564">
        <ele>1679</ele>
        <time>2017-09-17T16:19:31Z</time>
      </trkpt>
      <trkpt lat="44.03736" lon="7.68556">
        <ele>1679</ele>
        <time>2017-09-17T16:19:32Z</time>
      </trkpt>
      <trkpt lat="44.03735" lon="7.68548">
        <ele>1679</ele>
        <time>2017-09-17T16:19:33Z</time>
      </trkpt>
      <trkpt lat="44.03734" lon="7.6854">
        <ele>1679</ele>
        <time>2017-09-17T16:19:34Z</time>
      </trkpt>
      <trkpt lat="44.03733" lon="7.68532">
        <ele>1679</ele>
        <time>2017-09-17T16:19:35Z</time>
      </trkpt>
      <trkpt lat="44.03731" lon="7.68524">
        <ele>1679</ele>
        <time>2017-09-17T16:19:36Z</time>
      </trkpt>
      <trkpt lat="44.0373" lon="7.68516">
        <ele>1680</ele>
        <time>2017-09-17T16:19:37Z</time>
      </trkpt>
      <trkpt lat="44.03729" lon="7.68508">
        <ele>1680</ele>
        <time>2017-09-17T16:19:38Z</time>
      </trkpt>
      <trkpt lat="44.03728" lon="7.685">
        <ele>1680</ele>
        <time>2017-09-17T16:19:39Z</time>
      </trkpt>
      <trkpt lat="44.03727" lon="7.68492">
        <ele>1680</ele>
        <time>2017-09-17T16:19:40Z</time>
      </trkpt>
      <trkpt lat="44.03725" lon="7.68484">
        <ele>1680</ele>
        <time>2017-09-17T16:19:41Z</time>
      </trkpt>
      <trkpt lat="44.03723" lon="7.68477">
        <ele>1680</ele>
        <time>2017-09-17T16:19:42Z</time>
      </trkpt>
      <trkpt lat="44.0372" lon="7.6847">
        <ele>1680</ele>
        <time>2017-09-17T16:19:43Z</time>
      </trkpt>
      <trkpt lat="44.03716" lon="7.68463">
        <ele>1680</ele>
        <time>2017-09-17T16:19:44Z</time>
      </trkpt>
      <trkpt lat="44.03713" lon="7.68457">
        <ele>1681</ele>
        <time>2017-09-17T16:19:45Z</time>
      </trkpt>
      <trkpt lat="44.03709" lon="7.68451">
        <ele>1681</ele>
        <time>2017-09-17T16:19:46Z</time>
      </trkpt>
      <trkpt lat="44.03705" lon="7.68444">
        <ele>1681</ele>
        <time>2017-09-17T16:19:47Z</time>
      </trkpt>
      <trkpt lat="44.03702" lon="7.68438">
        <ele>1681</ele>
        <time>2017-09-17T16:19:48Z</time>
      </trkpt>
      <trkpt lat="44.03698" lon="7.68432">
        <ele>1681</ele>
        <time>2017-09-17T16:19:49Z</time>
      </trkpt>
      <trkpt lat="44.03694" lon="7.68425">
        <ele>1682</ele>
        <time>2017-09-17T16:19:50Z</time>
      </trkpt>
      <trkpt lat="44.0369" lon="7.68418">
        <ele>1682</ele>
        <time>2017-09-17T16:19:51Z</time>
      </trkpt>
      <trkpt lat="44.03687" lon="7.68412">
        <ele>1682</ele>
        <time>2017-09-17T16:19:52Z</time>
      </trkpt>
      <trkpt lat="44.03683" lon="7.68405">
        <ele>1682</ele>
        <time>2017-09-17T16:19:53Z</time>
      </trkpt>
      <trkpt lat="44.0368" lon="7.68398">
        <ele>1682</ele>
        <time>2017-09-17T16:19:54Z</time>
      </trkpt>
      <trkpt lat="44.03677" lon="7.68391">
        <ele>1682</ele>
        <time>2017-09-17T16:19:55Z</time>
      </trkpt>
      <trkpt lat="44.03674" lon="7.68384">
        <ele>1682</ele>
        <time>2017-09-17T16:19:56Z</time>
      </trkpt>
      <trkpt lat="44.03672" lon="7.68376">
        <ele>1682</ele>
        <time>2017-09-17T16:19:57Z</time>
      </trkpt>
      <trkpt lat="44.0367" lon="7.68368">
        <ele>1682</ele>
        <time>2017-09-17T16:19:58Z</time>
      </trkpt>
      <trkpt lat="44.03669" lon="7.6836">
        <ele>1682</ele>
        <time>2017-09-17T16:19:59Z</time>
      </trkpt>
      <trkpt lat="44.03667" lon="7.68352">
        <ele>1682</ele>
        <time>2017-09-17T16:20:00Z</time>
      </trkpt>
      <trkpt lat="44.03665" lon="7.68345">
        <ele>1682</ele>
        <time>2017-09-17T16:20:01Z</time>
      </trkpt>
      <trkpt lat="44.03661" lon="7.68338">
        <ele>1682</ele>
        <time>2017-09-17T16:20:02Z</time>
      </trkpt>
      <trkpt lat="44.03657" lon="7.68332">
        <ele>1682</ele>
        <time>2017-09-17T16:20:03Z</time>
      </trkpt>
      <trkpt lat="44.03652" lon="7.68327">
        <ele>1682</ele>
        <time>2017-09-17T16:20:04Z</time>
      </trkpt>
      <trkpt lat="44.03648" lon="7.68322">
        <ele>1682</ele>
        <time>2017-09-17T16:20:05Z</time>
      </trkpt>
      <trkpt lat="44.03643" lon="7.68316">
        <ele>1682</ele>
        <time>2017-09-17T16:20:06Z</time>
      </trkpt>
      <trkpt lat="44.03639" lon="7.68311">
        <ele>1682</ele>
        <time>2017-09-17T16:20:07Z</time>
      </trkpt>
      <trkpt lat="44.03634" lon="7.68306">
        <ele>1682</ele>
        <time>2017-09-17T16:20:08Z</time>
      </trkpt>
      <trkpt lat="44.03629" lon="7.68302">
        <ele>1683</ele>
        <time>2017-09-17T16:20:09Z</time>
      </trkpt>
      <trkpt lat="44.03624" lon="7.68298">
        <ele>1683</ele>
        <time>2017-09-17T16:20:10Z</time>
      </trkpt>
      <trkpt lat="44.03619" lon="7.68295">
        <ele>1683</ele>
        <time>2017-09-17T16:20:11Z</time>
      </trkpt>
      <trkpt lat="44.03614" lon="7.68292">
        <ele>1683</ele>
        <time>2017-09-17T16:20:12Z</time>
      </trkpt>
      <trkpt lat="44.03609" lon="7.68288">
        <ele>1683</ele>
        <time>2017-09-17T16:20:13Z</time>
      </trkpt>
      <trkpt lat="44.03604" lon="7.68285">
        <ele>1684</ele>
        <time>2017-09-17T16:20:14Z</time>
      </trkpt>
      <trkpt lat="44.03598" lon="7.68282">
        <ele>1684</ele>
        <time>2017-09-17T16:20:15Z</time>
      </trkpt>
      <trkpt lat="44.03593" lon="7.6828">
        <ele>1684</ele>
        <time>2017-09-17T16:20:16Z</time>
      </trkpt>
      <trkpt lat="44.03587" lon="7.68277">
        <ele>1685</ele>
        <time>2017-09-17T16:20:17Z</time>
      </trkpt>
      <trkpt lat="44.03582" lon="7.68274">
        <ele>1685</ele>
        <time>2017-09-17T16:20:18Z</time>
      </trkpt>
      <trkpt lat="44.03577" lon="7.68271">
        <ele>1685</ele>
        <time>2017-09-17T16:20:19Z</time>
      </trkpt>
      <trkpt lat="44.03572" lon="7.68267">
        <ele>1685</ele>
        <time>2017-09-17T16:20:20Z</time>
      </trkpt>
      <trkpt lat="44.03567" lon="7.68263">
        <ele>1686</ele>
        <time>2017-09-17T16:20:21Z</time>
      </trkpt>
      <trkpt lat="44.03562" lon="7.68258">
        <ele>1686</ele>
        <time>2017-09-17T16:20:22Z</time>
      </trkpt>
      <trkpt lat="44.03558" lon="7.68253">
        <ele>1686</ele>
        <time>2017-09-17T16:20:23Z</time>
      </trkpt>
      <trkpt lat="44.03555" lon="7.68247">
        <ele>1686</ele>
        <time>2017-09-17T16:20:24Z</time>
      </trkpt>
      <trkpt lat="44.03551" lon="7.6824">
        <ele>1686</ele>
        <time>2017-09-17T16:20:25Z</time>
      </trkpt>
      <trkpt lat="44.03548" lon="7.68234">
        <ele>1686</ele>
        <time>2017-09-17T16:20:26Z</time>
      </trkpt>
      <trkpt lat="44.03545" lon="7.68228">
        <ele>1686</ele>
        <time>2017-09-17T16:20:27Z</time>
      </trkpt>
      <trkpt lat="44.03543" lon="7.68221">
        <ele>1686</ele>
        <time>2017-09-17T16:20:28Z</time>
      </trkpt>
      <trkpt lat="44.03541" lon="7.68214">
        <ele>1686</ele>
        <time>2017-09-17T16:20:29Z</time>
      </trkpt>
      <trkpt lat="44.03539" lon="7.68207">
        <ele>1686</ele>
        <time>2017-09-17T16:20:30Z</time>
      </trkpt>
      <trkpt lat="44.03537" lon="7.682">
        <ele>1686</ele>
        <time>2017-09-17T16:20:31Z</time>
      </trkpt>
      <trkpt lat="44.03535" lon="7.68193">
        <ele>1687</ele>
        <time>2017-09-17T16:20:32Z</time>
      </trkpt>
      <trkpt lat="44.03533" lon="7.68185">
        <ele>1687</ele>
        <time>2017-09-17T16:20:33Z</time>
      </trkpt>
      <trkpt lat="44.0353" lon="7.68178">
        <ele>1687</ele>
        <time>2017-09-17T16:20:34Z</time>
      </trkpt>
      <trkpt lat="44.03528" lon="7.68171">
        <ele>1687</ele>
        <time>2017-09-17T16:20:35Z</time>
      </trkpt>
      <trkpt lat="44.03525" lon="7.68165">
        <ele>1687</ele>
        <time>2017-09-17T16:20:36Z</time>
      </trkpt>
      <trkpt lat="44.03521" lon="7.68159">
        <ele>1687</ele>
        <time>2017-09-17T16:20:37Z</time>
      </trkpt>
      <trkpt lat="44.03517" lon="7.68153">
        <ele>1688</ele>
        <time>2017-09-17T16:20:38Z</time>
      </trkpt>
      <trkpt lat="44.03513" lon="7.68148">
        <ele>1688</ele>
        <time>2017-09-17T16:20:39Z</time>
      </trkpt>
      <trkpt lat="44.03509" lon="7.68143">
        <ele>1688</ele>
        <time>2017-09-17T16:20:40Z</time>
      </trkpt>
      <trkpt lat="44.03505" lon="7.68137">
        <ele>1688</ele>
        <time>2017-09-17T16:20:41Z</time>
      </trkpt>
      <trkpt lat="44.03501" lon="7.68131">
        <ele>1689</ele>
        <time>2017-09-17T16:20:42Z</time>
      </trkpt>
      <trkpt lat="44.03497" lon="7.68126">
        <ele>1689</ele>
        <time>2017-09-17T16:20:43Z</time>
      </trkpt>
      <trkpt lat="44.03492" lon="7.68121">
        <ele>1689</ele>
        <time>2017-09-17T16:20:44Z</time>
      </trkpt>
      <trkpt lat="44.03488" lon="7.68116">
        <ele>1689</ele>
        <time>2017-09-17T16:20:45Z</time>
      </trkpt>
      <trkpt lat="44.03483" lon="7.68111">
        <ele>1690</ele>
        <time>2017-09-17T16:20:46Z</time>
      </trkpt>
      <trkpt lat="44.03479" lon="7.68105">
        <ele>1690</ele>
        <time>2017-09-17T16:20:47Z</time>
      </trkpt>
      <trkpt lat="44.03476" lon="7.68099">
        <ele>1690</ele>
        <time>2017-09-17T16:20:48Z</time>
      </trkpt>
      <trkpt lat="44.03472" lon="7.68093">
        <ele>1690</ele>
        <time>2017-09-17T16:20:49Z</time>
      </trkpt>
      <trkpt lat="44.03469" lon="7.68087">
        <ele>1690</ele>
        <time>2017-09-17T16:20:50Z</time>
      </trkpt>
      <trkpt lat="44.03465" lon="7.68081">
        <ele>1690</ele>
        <time>2017-09-17T16:20:51Z</time>
      </trkpt>
      <trkpt lat="44.03462" lon="7.68075">
        <ele>1690</ele>
        <time>2017-09-17T16:20:52Z</time>
      </trkpt>
      <trkpt lat="44.03459" lon="7.68069">
        <ele>1691</ele>
        <time>2017-09-17T16:20:53Z</time>
      </trkpt>
      <trkpt lat="44.03455" lon="7.68063">
        <ele>1691</ele>
        <time>2017-09-17T16:20:54Z</time>
      </trkpt>
      <trkpt lat="44.03451" lon="7.68057">
        <ele>1691</ele>
        <time>2017-09-17T16:20:55Z</time>
      </trkpt>
      <trkpt lat="44.03447" lon="7.68052">
        <ele>1691</ele>
        <time>2017-09-17T16:20:56Z</time>
      </trkpt>
      <trkpt lat="44.03443" lon="7.68048">
        <ele>1691</ele>
        <time>2017-09-17T16:20:57Z</time>
      </trkpt>
      <trkpt lat="44.03438" lon="7.68044">
        <ele>1692</ele>
        <time>2017-09-17T16:20:58Z</time>
      </trkpt>
      <trkpt lat="44.03433" lon="7.6804">
        <ele>1692</ele>
        <time>2017-09-17T16:20:59Z</time>
      </trkpt>
      <trkpt lat="44.03429" lon="7.68035">
        <ele>1692</ele>
        <time>2017-09-17T16:21:00Z</time>
      </trkpt>
      <trkpt lat="44.03425" lon="7.68029">
        <ele>1692</ele>
        <time>2017-09-17T16:21:01Z</time>
      </trkpt>
      <trkpt lat="44.03421" lon="7.68024">
        <ele>1692</ele>
        <time>2017-09-17T16:21:02Z</time>
      </trkpt>
      <trkpt lat="44.03417" lon="7.68018">
        <ele>1692</ele>
        <time>2017-09-17T16:21:03Z</time>
      </trkpt>
      <trkpt lat="44.03413" lon="7.68013">
        <ele>1692</ele>
        <time>2017-09-17T16:21:04Z</time>
      </trkpt>
      <trkpt lat="44.03409" lon="7.68008">
        <ele>1693</ele>
        <time>2017-09-17T16:21:05Z</time>
      </trkpt>
      <trkpt lat="44.03405" lon="7.68003">
        <ele>1693</ele>
        <time>2017-09-17T16:21:06Z</time>
      </trkpt>
      <trkpt lat="44.03402" lon="7.67997">
        <ele>1693</ele>
        <time>2017-09-17T16:21:07Z</time>
      </trkpt>
      <trkpt lat="44.03398" lon="7.67992">
        <ele>1693</ele>
        <time>2017-09-17T16:21:08Z</time>
      </trkpt>
      <trkpt lat="44.03394" lon="7.67986">
        <ele>1693</ele>
        <time>2017-09-17T16:21:09Z</time>
      </trkpt>
      <trkpt lat="44.0339" lon="7.6798">
        <ele>1693</ele>
        <time>2017-09-17T16:21:10Z</time>
      </trkpt>
      <trkpt lat="44.03387" lon="7.67974">
        <ele>1693</ele>
        <time>2017-09-17T16:21:11Z</time>
      </trkpt>
      <trkpt lat="44.03384" lon="7.67968">
        <ele>1693</ele>
        <time>2017-09-17T16:21:12Z</time>
      </trkpt>
      <trkpt lat="44.03381" lon="7.67961">
        <ele>1693</ele>
        <time>2017-09-17T16:21:13Z</time>
      </trkpt>
      <trkpt lat="44.0338" lon="7.67953">
        <ele>1693</ele>
        <time>2017-09-17T16:21:14Z</time>
      </trkpt>
      <trkpt lat="44.03378" lon="7.67946">
        <ele>1693</ele>
        <time>2017-09-17T16:21:15Z</time>
      </trkpt>
      <trkpt lat="44.03377" lon="7.67938">
        <ele>1693</ele>
        <time>2017-09-17T16:21:16Z</time>
      </trkpt>
      <trkpt lat="44.03377" lon="7.6793">
        <ele>1693</ele>
        <time>2017-09-17T16:21:17Z</time>
      </trkpt>
      <trkpt lat="44.03377" lon="7.67922">
        <ele>1694</ele>
        <time>2017-09-17T16:21:18Z</time>
      </trkpt>
      <trkpt lat="44.03376" lon="7.67914">
        <ele>1694</ele>
        <time>2017-09-17T16:21:19Z</time>
      </trkpt>
      <trkpt lat="44.03374" lon="7.67907">
        <ele>1694</ele>
        <time>2017-09-17T16:21:20Z</time>
      </trkpt>
      <trkpt lat="44.03373" lon="7.67899">
        <ele>1694</ele>
        <time>2017-09-17T16:21:21Z</time>
      </trkpt>
      <trkpt lat="44.03372" lon="7.67891">
        <ele>1694</ele>
        <time>2017-09-17T16:21:22Z</time>
      </trkpt>
      <trkpt lat="44.0337" lon="7.67883">
        <ele>1694</ele>
        <time>2017-09-17T16:21:23Z</time>
      </trkpt>
      <trkpt lat="44.03368" lon="7.67876">
        <ele>1694</ele>
        <time>2017-09-17T16:21:24Z</time>
      </trkpt>
      <trkpt lat="44.03366" lon="7.67869">
        <ele>1695</ele>
        <time>2017-09-17T16:21:25Z</time>
      </trkpt>
      <trkpt lat="44.03363" lon="7.67862">
        <ele>1695</ele>
        <time>2017-09-17T16:21:26Z</time>
      </trkpt>
      <trkpt lat="44.0336" lon="7.67856">
        <ele>1695</ele>
        <time>2017-09-17T16:21:27Z</time>
      </trkpt>
      <trkpt lat="44.03357" lon="7.6785">
        <ele>1695</ele>
        <time>2017-09-17T16:21:28Z</time>
      </trkpt>
      <trkpt lat="44.03353" lon="7.67844">
        <ele>1696</ele>
        <time>2017-09-17T16:21:29Z</time>
      </trkpt>
      <trkpt lat="44.03349" lon="7.67839">
        <ele>1696</ele>
        <time>2017-09-17T16:21:30Z</time>
      </trkpt>
      <trkpt lat="44.03345" lon="7.67834">
        <ele>1696</ele>
        <time>2017-09-17T16:21:31Z</time>
      </trkpt>
      <trkpt lat="44.03342" lon="7.67828">
        <ele>1696</ele>
        <time>2017-09-17T16:21:32Z</time>
      </trkpt>
      <trkpt lat="44.03338" lon="7.67823">
        <ele>1697</ele>
        <time>2017-09-17T16:21:33Z</time>
      </trkpt>
      <trkpt lat="44.03335" lon="7.67818">
        <ele>1697</ele>
        <time>2017-09-17T16:21:34Z</time>
      </trkpt>
      <trkpt lat="44.03331" lon="7.67813">
        <ele>1697</ele>
        <time>2017-09-17T16:21:35Z</time>
      </trkpt>
      <trkpt lat="44.03328" lon="7.67808">
        <ele>1698</ele>
        <time>2017-09-17T16:21:36Z</time>
      </trkpt>
      <trkpt lat="44.03324" lon="7.67803">
        <ele>1698</ele>
        <time>2017-09-17T16:21:37Z</time>
      </trkpt>
      <trkpt lat="44.0332" lon="7.67797">
        <ele>1698</ele>
        <time>2017-09-17T16:21:38Z</time>
      </trkpt>
      <trkpt lat="44.03317" lon="7.67792">
        <ele>1699</ele>
        <time>2017-09-17T16:21:39Z</time>
      </trkpt>
      <trkpt lat="44.03313" lon="7.67787">
        <ele>1699</ele>
        <time>2017-09-17T16:21:40Z</time>
      </trkpt>
      <trkpt lat="44.0331" lon="7.67783">
        <ele>1699</ele>
        <time>2017-09-17T16:21:41Z</time>
      </trkpt>
      <trkpt lat="44.03306" lon="7.67778">
        <ele>1700</ele>
        <time>2017-09-17T16:21:42Z</time>
      </trkpt>
      <trkpt lat="44.03301" lon="7.67774">
        <ele>1700</ele>
        <time>2017-09-17T16:21:43Z</time>
      </trkpt>
      <trkpt lat="44.03297" lon="7.67771">
        <ele>1701</ele>
        <time>2017-09-17T16:21:44Z</time>
      </trkpt>
      <trkpt lat="44.03292" lon="7.67767">
        <ele>1701</ele>
        <time>2017-09-17T16:21:45Z</time>
      </trkpt>
      <trkpt lat="44.03287" lon="7.67765">
        <ele>1701</ele>
        <time>2017-09-17T16:21:46Z</time>
      </trkpt>
      <trkpt lat="44.03282" lon="7.67762">
        <ele>1702</ele>
        <time>2017-09-17T16:21:47Z</time>
      </trkpt>
      <trkpt lat="44.03277" lon="7.6776">
        <ele>1702</ele>
        <time>2017-09-17T16:21:48Z</time>
      </trkpt>
      <trkpt lat="44.03272" lon="7.67757">
        <ele>1703</ele>
        <time>2017-09-17T16:21:49Z</time>
      </trkpt>
      <trkpt lat="44.03267" lon="7.67753">
        <ele>1703</ele>
        <time>2017-09-17T16:21:50Z</time>
      </trkpt>
      <trkpt lat="44.03263" lon="7.67748">
        <ele>1703</ele>
        <time>2017-09-17T16:21:51Z</time>
      </trkpt>
      <trkpt lat="44.0326" lon="7.67743">
        <ele>1703</ele>
        <time>2017-09-17T16:21:52Z</time>
      </trkpt>
      <trkpt lat="44.03257" lon="7.67737">
        <ele>1704</ele>
        <time>2017-09-17T16:21:53Z</time>
      </trkpt>
      <trkpt lat="44.03254" lon="7.67731">
        <ele>1704</ele>
        <time>2017-09-17T16:21:54Z</time>
      </trkpt>
      <trkpt lat="44.03251" lon="7.67724">
        <ele>1704</ele>
        <time>2017-09-17T16:21:55Z</time>
      </trkpt>
      <trkpt lat="44.03249" lon="7.67718">
        <ele>1704</ele>
        <time>2017-09-17T16:21:56Z</time>
      </trkpt>
      <trkpt lat="44.03247" lon="7.67711">
        <ele>1704</ele>
        <time>2017-09-17T16:21:57Z</time>
      </trkpt>
      <trkpt lat="44.03246" lon="7.67704">
        <ele>1705</ele>
        <time>2017-09-17T16:21:58Z</time>
      </trkpt>
      <trkpt lat="44.03244" lon="7.67697">
        <ele>1705</ele>
        <time>2017-09-17T16:21:59Z</time>
      </trkpt>
      <trkpt lat="44.03242" lon="7.6769">
        <ele>1705</ele>
        <time>2017-09-17T16:22:00Z</time>
      </trkpt>
      <trkpt lat="44.0324" lon="7.67683">
        <ele>1705</ele>
        <time>2017-09-17T16:22:01Z</time>
      </trkpt>
      <trkpt lat="44.03238" lon="7.67676">
        <ele>1706</ele>
        <time>2017-09-17T16:22:02Z</time>
      </trkpt>
      <trkpt lat="44.03236" lon="7.67669">
        <ele>1706</ele>
        <time>2017-09-17T16:22:03Z</time>
      </trkpt>
      <trkpt lat="44.03234" lon="7.67663">
        <ele>1706</ele>
        <time>2017-09-17T16:22:04Z</time>
      </trkpt>
      <trkpt lat="44.03231" lon="7.67657">
        <ele>1707</ele>
        <time>2017-09-17T16:22:05Z</time>
      </trkpt>
      <trkpt lat="44.03228" lon="7.67652">
        <ele>1707</ele>
        <time>2017-09-17T16:22:06Z</time>
      </trkpt>
      <trkpt lat="44.03224" lon="7.67647">
        <ele>1707</ele>
        <time>2017-09-17T16:22:07Z</time>
      </trkpt>
      <trkpt lat="44.03221" lon="7.67643">
        <ele>1708</ele>
        <time>2017-09-17T16:22:08Z</time>
      </trkpt>
      <trkpt lat="44.03217" lon="7.67639">
        <ele>1708</ele>
        <time>2017-09-17T16:22:09Z</time>
      </trkpt>
      <trkpt lat="44.03213" lon="7.67636">
        <ele>1708</ele>
        <time>2017-09-17T16:22:10Z</time>
      </trkpt>
      <trkpt lat="44.03209" lon="7.67634">
        <ele>1709</ele>
        <time>2017-09-17T16:22:11Z</time>
      </trkpt>
      <trkpt lat="44.03206" lon="7.67632">
        <ele>1709</ele>
        <time>2017-09-17T16:22:12Z</time>
      </trkpt>
      <trkpt lat="44.03202" lon="7.67629">
        <ele>1709</ele>
        <time>2017-09-17T16:22:13Z</time>
      </trkpt>
      <trkpt lat="44.03199" lon="7.67626">
        <ele>1710</ele>
        <time>2017-09-17T16:22:14Z</time>
      </trkpt>
      <trkpt lat="44.03196" lon="7.67625">
        <ele>1710</ele>
        <time>2017-09-17T16:22:15Z</time>
      </trkpt>
      <trkpt lat="44.03192" lon="7.67623">
        <ele>1710</ele>
        <time>2017-09-17T16:22:16Z</time>
      </trkpt>
      <trkpt lat="44.03189" lon="7.67621">
        <ele>1711</ele>
        <time>2017-09-17T16:22:17Z</time>
      </trkpt>
      <trkpt lat="44.03186" lon="7.67619">
        <ele>1711</ele>
        <time>2017-09-17T16:22:18Z</time>
      </trkpt>
      <trkpt lat="44.03183" lon="7.67617">
        <ele>1711</ele>
        <time>2017-09-17T16:22:19Z</time>
      </trkpt>
      <trkpt lat="44.0318" lon="7.67614">
        <ele>1711</ele>
        <time>2017-09-17T16:22:20Z</time>
      </trkpt>
      <trkpt lat="44.03176" lon="7.67612">
        <ele>1712</ele>
        <time>2017-09-17T16:22:21Z</time>
      </trkpt>
      <trkpt lat="44.03173" lon="7.6761">
        <ele>1712</ele>
        <time>2017-09-17T16:22:22Z</time>
      </trkpt>
      <trkpt lat="44.0317" lon="7.67608">
        <ele>1712</ele>
        <time>2017-09-17T16:22:23Z</time>
      </trkpt>
      <trkpt lat="44.03166" lon="7.67606">
        <ele>1712</ele>
        <time>2017-09-17T16:22:24Z</time>
      </trkpt>
      <trkpt lat="44.03163" lon="7.67605">
        <ele>1712</ele>
        <time>2017-09-17T16:22:25Z</time>
      </trkpt>
      <trkpt lat="44.03159" lon="7.67604">
        <ele>1713</ele>
        <time>2017-09-17T16:22:26Z</time>
      </trkpt>
      <trkpt lat="44.03156" lon="7.67603">
        <ele>1713</ele>
        <time>2017-09-17T16:22:27Z</time>
      </trkpt>
      <trkpt lat="44.03153" lon="7.67603">
        <ele>1713</ele>
        <time>2017-09-17T16:22:28Z</time>
      </trkpt>
      <trkpt lat="44.03149" lon="7.67602">
        <ele>1713</ele>
        <time>2017-09-17T16:22:29Z</time>
      </trkpt>
      <trkpt lat="44.03146" lon="7.67601">
        <ele>1714</ele>
        <time>2017-09-17T16:22:30Z</time>
      </trkpt>
      <trkpt lat="44.03143" lon="7.67599">
        <ele>1714</ele>
        <time>2017-09-17T16:22:31Z</time>
      </trkpt>
      <trkpt lat="44.03139" lon="7.67597">
        <ele>1714</ele>
        <time>2017-09-17T16:22:32Z</time>
      </trkpt>
      <trkpt lat="44.03136" lon="7.67596">
        <ele>1715</ele>
        <time>2017-09-17T16:22:33Z</time>
      </trkpt>
      <trkpt lat="44.03132" lon="7.67594">
        <ele>1716</ele>
        <time>2017-09-17T16:22:34Z</time>
      </trkpt>
      <trkpt lat="44.03129" lon="7.67592">
        <ele>1716</ele>
        <time>2017-09-17T16:22:35Z</time>
      </trkpt>
      <trkpt lat="44.03126" lon="7.6759">
        <ele>1717</ele>
        <time>2017-09-17T16:22:36Z</time>
      </trkpt>
      <trkpt lat="44.03123" lon="7.67587">
        <ele>1718</ele>
        <time>2017-09-17T16:22:37Z</time>
      </trkpt>
      <trkpt lat="44.03119" lon="7.67584">
        <ele>1719</ele>
        <time>2017-09-17T16:22:38Z</time>
      </trkpt>
      <trkpt lat="44.03116" lon="7.67582">
        <ele>1719</ele>
        <time>2017-09-17T16:22:39Z</time>
      </trkpt>
      <trkpt lat="44.03112" lon="7.6758">
        <ele>1720</ele>
        <time>2017-09-17T16:22:40Z</time>
      </trkpt>
      <trkpt lat="44.03109" lon="7.67577">
        <ele>1721</ele>
        <time>2017-09-17T16:22:41Z</time>
      </trkpt>
      <trkpt lat="44.03106" lon="7.67575">
        <ele>1721</ele>
        <time>2017-09-17T16:22:42Z</time>
      </trkpt>
      <trkpt lat="44.03102" lon="7.67573">
        <ele>1722</ele>
        <time>2017-09-17T16:22:43Z</time>
      </trkpt>
      <trkpt lat="44.03099" lon="7.6757">
        <ele>1723</ele>
        <time>2017-09-17T16:22:44Z</time>
      </trkpt>
      <trkpt lat="44.03096" lon="7.67567">
        <ele>1724</ele>
        <time>2017-09-17T16:22:45Z</time>
      </trkpt>
      <trkpt lat="44.03093" lon="7.67564">
        <ele>1724</ele>
        <time>2017-09-17T16:22:46Z</time>
      </trkpt>
      <trkpt lat="44.0309" lon="7.67561">
        <ele>1725</ele>
        <time>2017-09-17T16:22:47Z</time>
      </trkpt>
      <trkpt lat="44.03088" lon="7.67558">
        <ele>1726</ele>
        <time>2017-09-17T16:22:48Z</time>
      </trkpt>
      <trkpt lat="44.03085" lon="7.67555">
        <ele>1726</ele>
        <time>2017-09-17T16:22:49Z</time>
      </trkpt>
      <trkpt lat="44.03081" lon="7.67553">
        <ele>1727</ele>
        <time>2017-09-17T16:22:50Z</time>
      </trkpt>
      <trkpt lat="44.03078" lon="7.67551">
        <ele>1728</ele>
        <time>2017-09-17T16:22:51Z</time>
      </trkpt>
      <trkpt lat="44.03074" lon="7.67549">
        <ele>1728</ele>
        <time>2017-09-17T16:22:52Z</time>
      </trkpt>
      <trkpt lat="44.0307" lon="7.67548">
        <ele>1729</ele>
        <time>2017-09-17T16:22:53Z</time>
      </trkpt>
      <trkpt lat="44.03066" lon="7.67547">
        <ele>1729</ele>
        <time>2017-09-17T16:22:54Z</time>
      </trkpt>
      <trkpt lat="44.03062" lon="7.67545">
        <ele>1730</ele>
        <time>2017-09-17T16:22:55Z</time>
      </trkpt>
      <trkpt lat="44.03059" lon="7.67544">
        <ele>1730</ele>
        <time>2017-09-17T16:22:56Z</time>
      </trkpt>
      <trkpt lat="44.03055" lon="7.67543">
        <ele>1730</ele>
        <time>2017-09-17T16:22:57Z</time>
      </trkpt>
      <trkpt lat="44.03051" lon="7.67542">
        <ele>1731</ele>
        <time>2017-09-17T16:22:58Z</time>
      </trkpt>
      <trkpt lat="44.03047" lon="7.67541">
        <ele>1731</ele>
        <time>2017-09-17T16:22:59Z</time>
      </trkpt>
      <trkpt lat="44.03043" lon="7.6754">
        <ele>1732</ele>
        <time>2017-09-17T16:23:00Z</time>
      </trkpt>
      <trkpt lat="44.03039" lon="7.6754">
        <ele>1732</ele>
        <time>2017-09-17T16:23:01Z</time>
      </trkpt>
      <trkpt lat="44.03035" lon="7.6754">
        <ele>1733</ele>
        <time>2017-09-17T16:23:02Z</time>
      </trkpt>
      <trkpt lat="44.03031" lon="7.67541">
        <ele>1733</ele>
        <time>2017-09-17T16:23:03Z</time>
      </trkpt>
      <trkpt lat="44.03026" lon="7.67543">
        <ele>1733</ele>
        <time>2017-09-17T16:23:04Z</time>
      </trkpt>
      <trkpt lat="44.03022" lon="7.67545">
        <ele>1734</ele>
        <time>2017-09-17T16:23:05Z</time>
      </trkpt>
      <trkpt lat="44.03018" lon="7.67547">
        <ele>1734</ele>
        <time>2017-09-17T16:23:06Z</time>
      </trkpt>
      <trkpt lat="44.03014" lon="7.67548">
        <ele>1734</ele>
        <time>2017-09-17T16:23:07Z</time>
      </trkpt>
      <trkpt lat="44.0301" lon="7.67548">
        <ele>1735</ele>
        <time>2017-09-17T16:23:08Z</time>
      </trkpt>
      <trkpt lat="44.03005" lon="7.67549">
        <ele>1735</ele>
        <time>2017-09-17T16:23:09Z</time>
      </trkpt>
      <trkpt lat="44.03001" lon="7.6755">
        <ele>1736</ele>
        <time>2017-09-17T16:23:10Z</time>
      </trkpt>
      <trkpt lat="44.02997" lon="7.67552">
        <ele>1736</ele>
        <time>2017-09-17T16:23:11Z</time>
      </trkpt>
      <trkpt lat="44.02993" lon="7.67554">
        <ele>1736</ele>
        <time>2017-09-17T16:23:12Z</time>
      </trkpt>
      <trkpt lat="44.02989" lon="7.67556">
        <ele>1737</ele>
        <time>2017-09-17T16:23:13Z</time>
      </trkpt>
      <trkpt lat="44.02985" lon="7.67557">
        <ele>1737</ele>
        <time>2017-09-17T16:23:14Z</time>
      </trkpt>
      <trkpt lat="44.02981" lon="7.67558">
        <ele>1737</ele>
        <time>2017-09-17T16:23:15Z</time>
      </trkpt>
      <trkpt lat="44.02977" lon="7.67559">
        <ele>1738</ele>
        <time>2017-09-17T16:23:16Z</time>
      </trkpt>
      <trkpt lat="44.02973" lon="7.67562">
        <ele>1738</ele>
        <time>2017-09-17T16:23:17Z</time>
      </trkpt>
      <trkpt lat="44.02969" lon="7.67565">
        <ele>1738</ele>
        <time>2017-09-17T16:23:18Z</time>
      </trkpt>
      <trkpt lat="44.02965" lon="7.67567">
        <ele>1739</ele>
        <time>2017-09-17T16:23:19Z</time>
      </trkpt>
      <trkpt lat="44.02961" lon="7.67568">
        <ele>1739</ele>
        <time>2017-09-17T16:23:20Z</time>
      </trkpt>
      <trkpt lat="44.02956" lon="7.67569">
        <ele>1739</ele>
        <time>2017-09-17T16:23:21Z</time>
      </trkpt>
      <trkpt lat="44.02951" lon="7.67569">
        <ele>1740</ele>
        <time>2017-09-17T16:23:22Z</time>
      </trkpt>
      <trkpt lat="44.02947" lon="7.67567">
        <ele>1740</ele>
        <time>2017-09-17T16:23:23Z</time>
      </trkpt>
      <trkpt lat="44.02943" lon="7.67563">
        <ele>1740</ele>
        <time>2017-09-17T16:23:24Z</time>
      </trkpt>
      <trkpt lat="44.02941" lon="7.67557">
        <ele>1740</ele>
        <time>2017-09-17T16:23:25Z</time>
      </trkpt>
      <trkpt lat="44.02939" lon="7.6755">
        <ele>1740</ele>
        <time>2017-09-17T16:23:26Z</time>
      </trkpt>
      <trkpt lat="44.02937" lon="7.67544">
        <ele>1740</ele>
        <time>2017-09-17T16:23:27Z</time>
      </trkpt>
      <trkpt lat="44.02937" lon="7.67537">
        <ele>1740</ele>
        <time>2017-09-17T16:23:28Z</time>
      </trkpt>
      <trkpt lat="44.02936" lon="7.6753">
        <ele>1740</ele>
        <time>2017-09-17T16:23:29Z</time>
      </trkpt>
      <trkpt lat="44.02935" lon="7.67524">
        <ele>1741</ele>
        <time>2017-09-17T16:23:30Z</time>
      </trkpt>
      <trkpt lat="44.02934" lon="7.67517">
        <ele>1741</ele>
        <time>2017-09-17T16:23:31Z</time>
      </trkpt>
      <trkpt lat="44.02934" lon="7.67509">
        <ele>1741</ele>
        <time>2017-09-17T16:23:32Z</time>
      </trkpt>
      <trkpt lat="44.02933" lon="7.67502">
        <ele>1741</ele>
        <time>2017-09-17T16:23:33Z</time>
      </trkpt>
      <trkpt lat="44.02933" lon="7.67495">
        <ele>1741</ele>
        <time>2017-09-17T16:23:34Z</time>
      </trkpt>
      <trkpt lat="44.02932" lon="7.67488">
        <ele>1741</ele>
        <time>2017-09-17T16:23:35Z</time>
      </trkpt>
      <trkpt lat="44.02932" lon="7.67481">
        <ele>1742</ele>
        <time>2017-09-17T16:23:36Z</time>
      </trkpt>
      <trkpt lat="44.02933" lon="7.67474">
        <ele>1742</ele>
        <time>2017-09-17T16:23:37Z</time>
      </trkpt>
      <trkpt lat="44.02934" lon="7.67468">
        <ele>1742</ele>
        <time>2017-09-17T16:23:38Z</time>
      </trkpt>
      <trkpt lat="44.02935" lon="7.67462">
        <ele>1742</ele>
        <time>2017-09-17T16:23:39Z</time>
      </trkpt>
      <trkpt lat="44.02937" lon="7.67455">
        <ele>1742</ele>
        <time>2017-09-17T16:23:40Z</time>
      </trkpt>
      <trkpt lat="44.02938" lon="7.67449">
        <ele>1742</ele>
        <time>2017-09-17T16:23:41Z</time>
      </trkpt>
      <trkpt lat="44.0294" lon="7.67443">
        <ele>1743</ele>
        <time>2017-09-17T16:23:42Z</time>
      </trkpt>
      <trkpt lat="44.02942" lon="7.67437">
        <ele>1743</ele>
        <time>2017-09-17T16:23:43Z</time>
      </trkpt>
      <trkpt lat="44.02944" lon="7.67431">
        <ele>1743</ele>
        <time>2017-09-17T16:23:44Z</time>
      </trkpt>
      <trkpt lat="44.02945" lon="7.67425">
        <ele>1743</ele>
        <time>2017-09-17T16:23:45Z</time>
      </trkpt>
      <trkpt lat="44.02948" lon="7.67419">
        <ele>1743</ele>
        <time>2017-09-17T16:23:46Z</time>
      </trkpt>
      <trkpt lat="44.0295" lon="7.67414">
        <ele>1744</ele>
        <time>2017-09-17T16:23:47Z</time>
      </trkpt>
      <trkpt lat="44.02952" lon="7.67408">
        <ele>1744</ele>
        <time>2017-09-17T16:23:48Z</time>
      </trkpt>
      <trkpt lat="44.02954" lon="7.67403">
        <ele>1744</ele>
        <time>2017-09-17T16:23:49Z</time>
      </trkpt>
      <trkpt lat="44.02956" lon="7.67398">
        <ele>1744</ele>
        <time>2017-09-17T16:23:50Z</time>
      </trkpt>
      <trkpt lat="44.02959" lon="7.67393">
        <ele>1745</ele>
        <time>2017-09-17T16:23:51Z</time>
      </trkpt>
      <trkpt lat="44.02961" lon="7.67388">
        <ele>1745</ele>
        <time>2017-09-17T16:23:52Z</time>
      </trkpt>
      <trkpt lat="44.02963" lon="7.67382">
        <ele>1745</ele>
        <time>2017-09-17T16:23:53Z</time>
      </trkpt>
      <trkpt lat="44.02965" lon="7.67376">
        <ele>1746</ele>
        <time>2017-09-17T16:23:54Z</time>
      </trkpt>
      <trkpt lat="44.02967" lon="7.67371">
        <ele>1746</ele>
        <time>2017-09-17T16:23:55Z</time>
      </trkpt>
      <trkpt lat="44.02968" lon="7.67365">
        <ele>1746</ele>
        <time>2017-09-17T16:23:56Z</time>
      </trkpt>
      <trkpt lat="44.0297" lon="7.6736">
        <ele>1747</ele>
        <time>2017-09-17T16:23:57Z</time>
      </trkpt>
      <trkpt lat="44.02972" lon="7.67355">
        <ele>1747</ele>
        <time>2017-09-17T16:23:58Z</time>
      </trkpt>
      <trkpt lat="44.02973" lon="7.67349">
        <ele>1747</ele>
        <time>2017-09-17T16:23:59Z</time>
      </trkpt>
      <trkpt lat="44.02974" lon="7.67344">
        <ele>1748</ele>
        <time>2017-09-17T16:24:00Z</time>
      </trkpt>
      <trkpt lat="44.02974" lon="7.67338">
        <ele>1748</ele>
        <time>2017-09-17T16:24:01Z</time>
      </trkpt>
      <trkpt lat="44.02975" lon="7.67332">
        <ele>1748</ele>
        <time>2017-09-17T16:24:02Z</time>
      </trkpt>
      <trkpt lat="44.02975" lon="7.67326">
        <ele>1749</ele>
        <time>2017-09-17T16:24:03Z</time>
      </trkpt>
      <trkpt lat="44.02975" lon="7.6732">
        <ele>1749</ele>
        <time>2017-09-17T16:24:04Z</time>
      </trkpt>
      <trkpt lat="44.02976" lon="7.67315">
        <ele>1749</ele>
        <time>2017-09-17T16:24:05Z</time>
      </trkpt>
      <trkpt lat="44.02976" lon="7.67309">
        <ele>1750</ele>
        <time>2017-09-17T16:24:06Z</time>
      </trkpt>
      <trkpt lat="44.02975" lon="7.67303">
        <ele>1750</ele>
        <time>2017-09-17T16:24:07Z</time>
      </trkpt>
      <trkpt lat="44.02974" lon="7.67297">
        <ele>1750</ele>
        <time>2017-09-17T16:24:08Z</time>
      </trkpt>
      <trkpt lat="44.02974" lon="7.67291">
        <ele>1751</ele>
        <time>2017-09-17T16:24:09Z</time>
      </trkpt>
      <trkpt lat="44.02974" lon="7.67286">
        <ele>1751</ele>
        <time>2017-09-17T16:24:10Z</time>
      </trkpt>
      <trkpt lat="44.02974" lon="7.6728">
        <ele>1751</ele>
        <time>2017-09-17T16:24:11Z</time>
      </trkpt>
      <trkpt lat="44.02974" lon="7.67274">
        <ele>1752</ele>
        <time>2017-09-17T16:24:12Z</time>
      </trkpt>
      <trkpt lat="44.02975" lon="7.67268">
        <ele>1752</ele>
        <time>2017-09-17T16:24:13Z</time>
      </trkpt>
      <trkpt lat="44.02975" lon="7.67262">
        <ele>1752</ele>
        <time>2017-09-17T16:24:14Z</time>
      </trkpt>
      <trkpt lat="44.02976" lon="7.67255">
        <ele>1753</ele>
        <time>2017-09-17T16:24:15Z</time>
      </trkpt>
      <trkpt lat="44.02977" lon="7.67248">
        <ele>1753</ele>
        <time>2017-09-17T16:24:16Z</time>
      </trkpt>
      <trkpt lat="44.02979" lon="7.67241">
        <ele>1753</ele>
        <time>2017-09-17T16:24:17Z</time>
      </trkpt>
      <trkpt lat="44.02981" lon="7.67233">
        <ele>1753</ele>
        <time>2017-09-17T16:24:18Z</time>
      </trkpt>
      <trkpt lat="44.02982" lon="7.67226">
        <ele>1754</ele>
        <time>2017-09-17T16:24:19Z</time>
      </trkpt>
      <trkpt lat="44.02984" lon="7.67218">
        <ele>1754</ele>
        <time>2017-09-17T16:24:20Z</time>
      </trkpt>
      <trkpt lat="44.02986" lon="7.6721">
        <ele>1754</ele>
        <time>2017-09-17T16:24:21Z</time>
      </trkpt>
      <trkpt lat="44.02988" lon="7.67203">
        <ele>1754</ele>
        <time>2017-09-17T16:24:22Z</time>
      </trkpt>
      <trkpt lat="44.02991" lon="7.67196">
        <ele>1754</ele>
        <time>2017-09-17T16:24:23Z</time>
      </trkpt>
      <trkpt lat="44.02994" lon="7.67189">
        <ele>1754</ele>
        <time>2017-09-17T16:24:24Z</time>
      </trkpt>
      <trkpt lat="44.02997" lon="7.67183">
        <ele>1754</ele>
        <time>2017-09-17T16:24:25Z</time>
      </trkpt>
      <trkpt lat="44.03001" lon="7.67176">
        <ele>1755</ele>
        <time>2017-09-17T16:24:26Z</time>
      </trkpt>
      <trkpt lat="44.03004" lon="7.6717">
        <ele>1755</ele>
        <time>2017-09-17T16:24:27Z</time>
      </trkpt>
      <trkpt lat="44.03007" lon="7.67164">
        <ele>1755</ele>
        <time>2017-09-17T16:24:28Z</time>
      </trkpt>
      <trkpt lat="44.0301" lon="7.67158">
        <ele>1756</ele>
        <time>2017-09-17T16:24:29Z</time>
      </trkpt>
      <trkpt lat="44.03013" lon="7.67153">
        <ele>1756</ele>
        <time>2017-09-17T16:24:30Z</time>
      </trkpt>
      <trkpt lat="44.03016" lon="7.67148">
        <ele>1757</ele>
        <time>2017-09-17T16:24:31Z</time>
      </trkpt>
      <trkpt lat="44.03018" lon="7.67142">
        <ele>1757</ele>
        <time>2017-09-17T16:24:32Z</time>
      </trkpt>
      <trkpt lat="44.03021" lon="7.67137">
        <ele>1757</ele>
        <time>2017-09-17T16:24:33Z</time>
      </trkpt>
      <trkpt lat="44.03023" lon="7.67132">
        <ele>1758</ele>
        <time>2017-09-17T16:24:34Z</time>
      </trkpt>
      <trkpt lat="44.03025" lon="7.67126">
        <ele>1758</ele>
        <time>2017-09-17T16:24:35Z</time>
      </trkpt>
      <trkpt lat="44.03027" lon="7.67121">
        <ele>1758</ele>
        <time>2017-09-17T16:24:36Z</time>
      </trkpt>
      <trkpt lat="44.03029" lon="7.67117">
        <ele>1759</ele>
        <time>2017-09-17T16:24:37Z</time>
      </trkpt>
      <trkpt lat="44.03031" lon="7.67112">
        <ele>1759</ele>
        <time>2017-09-17T16:24:38Z</time>
      </trkpt>
      <trkpt lat="44.03033" lon="7.67107">
        <ele>1759</ele>
        <time>2017-09-17T16:24:39Z</time>
      </trkpt>
      <trkpt lat="44.03034" lon="7.67102">
        <ele>1760</ele>
        <time>2017-09-17T16:24:40Z</time>
      </trkpt>
      <trkpt lat="44.03036" lon="7.67097">
        <ele>1760</ele>
        <time>2017-09-17T16:24:41Z</time>
      </trkpt>
      <trkpt lat="44.03037" lon="7.67092">
        <ele>1760</ele>
        <time>2017-09-17T16:24:42Z</time>
      </trkpt>
      <trkpt lat="44.03039" lon="7.67087">
        <ele>1761</ele>
        <time>2017-09-17T16:24:43Z</time>
      </trkpt>
      <trkpt lat="44.03041" lon="7.67083">
        <ele>1761</ele>
        <time>2017-09-17T16:24:44Z</time>
      </trkpt>
      <trkpt lat="44.03042" lon="7.67078">
        <ele>1762</ele>
        <time>2017-09-17T16:24:45Z</time>
      </trkpt>
      <trkpt lat="44.03044" lon="7.67074">
        <ele>1762</ele>
        <time>2017-09-17T16:24:46Z</time>
      </trkpt>
      <trkpt lat="44.03045" lon="7.67069">
        <ele>1762</ele>
        <time>2017-09-17T16:24:47Z</time>
      </trkpt>
      <trkpt lat="44.03046" lon="7.67065">
        <ele>1763</ele>
        <time>2017-09-17T16:24:48Z</time>
      </trkpt>
      <trkpt lat="44.03048" lon="7.67061">
        <ele>1763</ele>
        <time>2017-09-17T16:24:49Z</time>
      </trkpt>
      <trkpt lat="44.03049" lon="7.67056">
        <ele>1763</ele>
        <time>2017-09-17T16:24:50Z</time>
      </trkpt>
      <trkpt lat="44.0305" lon="7.6705">
        <ele>1764</ele>
        <time>2017-09-17T16:24:51Z</time>
      </trkpt>
      <trkpt lat="44.03052" lon="7.67045">
        <ele>1764</ele>
        <time>2017-09-17T16:24:52Z</time>
      </trkpt>
      <trkpt lat="44.03053" lon="7.6704">
        <ele>1765</ele>
        <time>2017-09-17T16:24:53Z</time>
      </trkpt>
      <trkpt lat="44.03054" lon="7.67035">
        <ele>1765</ele>
        <time>2017-09-17T16:24:54Z</time>
      </trkpt>
      <trkpt lat="44.03055" lon="7.6703">
        <ele>1765</ele>
        <time>2017-09-17T16:24:55Z</time>
      </trkpt>
      <trkpt lat="44.03056" lon="7.67025">
        <ele>1766</ele>
        <time>2017-09-17T16:24:56Z</time>
      </trkpt>
      <trkpt lat="44.03056" lon="7.67019">
        <ele>1766</ele>
        <time>2017-09-17T16:24:57Z</time>
      </trkpt>
      <trkpt lat="44.03057" lon="7.67014">
        <ele>1767</ele>
        <time>2017-09-17T16:24:58Z</time>
      </trkpt>
      <trkpt lat="44.03058" lon="7.67009">
        <ele>1767</ele>
        <time>2017-09-17T16:24:59Z</time>
      </trkpt>
      <trkpt lat="44.03058" lon="7.67003">
        <ele>1767</ele>
        <time>2017-09-17T16:25:00Z</time>
      </trkpt>
      <trkpt lat="44.03059" lon="7.66997">
        <ele>1768</ele>
        <time>2017-09-17T16:25:01Z</time>
      </trkpt>
      <trkpt lat="44.03059" lon="7.66992">
        <ele>1768</ele>
        <time>2017-09-17T16:25:02Z</time>
      </trkpt>
      <trkpt lat="44.03059" lon="7.66986">
        <ele>1769</ele>
        <time>2017-09-17T16:25:03Z</time>
      </trkpt>
      <trkpt lat="44.03059" lon="7.66981">
        <ele>1769</ele>
        <time>2017-09-17T16:25:04Z</time>
      </trkpt>
      <trkpt lat="44.03059" lon="7.66976">
        <ele>1769</ele>
        <time>2017-09-17T16:25:05Z</time>
      </trkpt>
      <trkpt lat="44.03059" lon="7.6697">
        <ele>1770</ele>
        <time>2017-09-17T16:25:06Z</time>
      </trkpt>
      <trkpt lat="44.03059" lon="7.66964">
        <ele>1770</ele>
        <time>2017-09-17T16:25:07Z</time>
      </trkpt>
      <trkpt lat="44.0306" lon="7.66959">
        <ele>1771</ele>
        <time>2017-09-17T16:25:08Z</time>
      </trkpt>
      <trkpt lat="44.03061" lon="7.66953">
        <ele>1771</ele>
        <time>2017-09-17T16:25:09Z</time>
      </trkpt>
      <trkpt lat="44.03062" lon="7.66948">
        <ele>1771</ele>
        <time>2017-09-17T16:25:10Z</time>
      </trkpt>
      <trkpt lat="44.03063" lon="7.66942">
        <ele>1772</ele>
        <time>2017-09-17T16:25:11Z</time>
      </trkpt>
      <trkpt lat="44.03063" lon="7.66936">
        <ele>1772</ele>
        <time>2017-09-17T16:25:12Z</time>
      </trkpt>
      <trkpt lat="44.03064" lon="7.66931">
        <ele>1772</ele>
        <time>2017-09-17T16:25:13Z</time>
      </trkpt>
      <trkpt lat="44.03065" lon="7.66926">
        <ele>1773</ele>
        <time>2017-09-17T16:25:14Z</time>
      </trkpt>
      <trkpt lat="44.03065" lon="7.66921">
        <ele>1773</ele>
        <time>2017-09-17T16:25:15Z</time>
      </trkpt>
      <trkpt lat="44.03065" lon="7.66916">
        <ele>1773</ele>
        <time>2017-09-17T16:25:16Z</time>
      </trkpt>
      <trkpt lat="44.03065" lon="7.6691">
        <ele>1774</ele>
        <time>2017-09-17T16:25:17Z</time>
      </trkpt>
      <trkpt lat="44.03066" lon="7.66905">
        <ele>1774</ele>
        <time>2017-09-17T16:25:18Z</time>
      </trkpt>
      <trkpt lat="44.03066" lon="7.669">
        <ele>1774</ele>
        <time>2017-09-17T16:25:19Z</time>
      </trkpt>
      <trkpt lat="44.03067" lon="7.66894">
        <ele>1774</ele>
        <time>2017-09-17T16:25:20Z</time>
      </trkpt>
      <trkpt lat="44.03068" lon="7.66889">
        <ele>1775</ele>
        <time>2017-09-17T16:25:21Z</time>
      </trkpt>
      <trkpt lat="44.03068" lon="7.66883">
        <ele>1775</ele>
        <time>2017-09-17T16:25:22Z</time>
      </trkpt>
      <trkpt lat="44.03069" lon="7.66878">
        <ele>1775</ele>
        <time>2017-09-17T16:25:23Z</time>
      </trkpt>
      <trkpt lat="44.0307" lon="7.66872">
        <ele>1776</ele>
        <time>2017-09-17T16:25:24Z</time>
      </trkpt>
      <trkpt lat="44.0307" lon="7.66867">
        <ele>1776</ele>
        <time>2017-09-17T16:25:25Z</time>
      </trkpt>
      <trkpt lat="44.03071" lon="7.66862">
        <ele>1777</ele>
        <time>2017-09-17T16:25:26Z</time>
      </trkpt>
      <trkpt lat="44.03071" lon="7.66857">
        <ele>1777</ele>
        <time>2017-09-17T16:25:27Z</time>
      </trkpt>
      <trkpt lat="44.03071" lon="7.66851">
        <ele>1777</ele>
        <time>2017-09-17T16:25:28Z</time>
      </trkpt>
      <trkpt lat="44.03072" lon="7.66846">
        <ele>1778</ele>
        <time>2017-09-17T16:25:29Z</time>
      </trkpt>
      <trkpt lat="44.03073" lon="7.66841">
        <ele>1778</ele>
        <time>2017-09-17T16:25:30Z</time>
      </trkpt>
      <trkpt lat="44.03074" lon="7.66835">
        <ele>1778</ele>
        <time>2017-09-17T16:25:31Z</time>
      </trkpt>
      <trkpt lat="44.03074" lon="7.6683">
        <ele>1779</ele>
        <time>2017-09-17T16:25:32Z</time>
      </trkpt>
      <trkpt lat="44.03075" lon="7.66824">
        <ele>1779</ele>
        <time>2017-09-17T16:25:33Z</time>
      </trkpt>
      <trkpt lat="44.03075" lon="7.66819">
        <ele>1779</ele>
        <time>2017-09-17T16:25:34Z</time>
      </trkpt>
      <trkpt lat="44.03076" lon="7.66814">
        <ele>1780</ele>
        <time>2017-09-17T16:25:35Z</time>
      </trkpt>
      <trkpt lat="44.03077" lon="7.66809">
        <ele>1780</ele>
        <time>2017-09-17T16:25:36Z</time>
      </trkpt>
      <trkpt lat="44.03078" lon="7.66803">
        <ele>1780</ele>
        <time>2017-09-17T16:25:37Z</time>
      </trkpt>
      <trkpt lat="44.03078" lon="7.66798">
        <ele>1781</ele>
        <time>2017-09-17T16:25:38Z</time>
      </trkpt>
      <trkpt lat="44.03078" lon="7.66793">
        <ele>1781</ele>
        <time>2017-09-17T16:25:39Z</time>
      </trkpt>
      <trkpt lat="44.03078" lon="7.66787">
        <ele>1781</ele>
        <time>2017-09-17T16:25:40Z</time>
      </trkpt>
      <trkpt lat="44.03077" lon="7.66781">
        <ele>1782</ele>
        <time>2017-09-17T16:25:41Z</time>
      </trkpt>
      <trkpt lat="44.03077" lon="7.66775">
        <ele>1782</ele>
        <time>2017-09-17T16:25:42Z</time>
      </trkpt>
      <trkpt lat="44.03077" lon="7.66769">
        <ele>1782</ele>
        <time>2017-09-17T16:25:43Z</time>
      </trkpt>
      <trkpt lat="44.03077" lon="7.66763">
        <ele>1783</ele>
        <time>2017-09-17T16:25:44Z</time>
      </trkpt>
      <trkpt lat="44.03077" lon="7.66758">
        <ele>1783</ele>
        <time>2017-09-17T16:25:45Z</time>
      </trkpt>
      <trkpt lat="44.03077" lon="7.66752">
        <ele>1783</ele>
        <time>2017-09-17T16:25:46Z</time>
      </trkpt>
      <trkpt lat="44.03077" lon="7.66746">
        <ele>1784</ele>
        <time>2017-09-17T16:25:47Z</time>
      </trkpt>
      <trkpt lat="44.03077" lon="7.66741">
        <ele>1784</ele>
        <time>2017-09-17T16:25:48Z</time>
      </trkpt>
      <trkpt lat="44.03076" lon="7.66735">
        <ele>1785</ele>
        <time>2017-09-17T16:25:49Z</time>
      </trkpt>
      <trkpt lat="44.03075" lon="7.66729">
        <ele>1785</ele>
        <time>2017-09-17T16:25:50Z</time>
      </trkpt>
      <trkpt lat="44.03073" lon="7.66724">
        <ele>1785</ele>
        <time>2017-09-17T16:25:51Z</time>
      </trkpt>
      <trkpt lat="44.03071" lon="7.66719">
        <ele>1786</ele>
        <time>2017-09-17T16:25:52Z</time>
      </trkpt>
      <trkpt lat="44.03069" lon="7.66715">
        <ele>1786</ele>
        <time>2017-09-17T16:25:53Z</time>
      </trkpt>
      <trkpt lat="44.03065" lon="7.66711">
        <ele>1787</ele>
        <time>2017-09-17T16:25:54Z</time>
      </trkpt>
      <trkpt lat="44.03061" lon="7.66708">
        <ele>1787</ele>
        <time>2017-09-17T16:25:55Z</time>
      </trkpt>
      <trkpt lat="44.03057" lon="7.66707">
        <ele>1788</ele>
        <time>2017-09-17T16:25:56Z</time>
      </trkpt>
      <trkpt lat="44.03053" lon="7.66707">
        <ele>1788</ele>
        <time>2017-09-17T16:25:57Z</time>
      </trkpt>
      <trkpt lat="44.03049" lon="7.66707">
        <ele>1788</ele>
        <time>2017-09-17T16:25:58Z</time>
      </trkpt>
      <trkpt lat="44.03045" lon="7.66708">
        <ele>1788</ele>
        <time>2017-09-17T16:25:59Z</time>
      </trkpt>
      <trkpt lat="44.0304" lon="7.66709">
        <ele>1789</ele>
        <time>2017-09-17T16:26:00Z</time>
      </trkpt>
      <trkpt lat="44.03036" lon="7.66709">
        <ele>1789</ele>
        <time>2017-09-17T16:26:01Z</time>
      </trkpt>
      <trkpt lat="44.03032" lon="7.66708">
        <ele>1789</ele>
        <time>2017-09-17T16:26:02Z</time>
      </trkpt>
      <trkpt lat="44.03027" lon="7.66707">
        <ele>1790</ele>
        <time>2017-09-17T16:26:03Z</time>
      </trkpt>
      <trkpt lat="44.03023" lon="7.66706">
        <ele>1790</ele>
        <time>2017-09-17T16:26:04Z</time>
      </trkpt>
      <trkpt lat="44.03019" lon="7.66705">
        <ele>1790</ele>
        <time>2017-09-17T16:26:05Z</time>
      </trkpt>
      <trkpt lat="44.03016" lon="7.66704">
        <ele>1791</ele>
        <time>2017-09-17T16:26:06Z</time>
      </trkpt>
      <trkpt lat="44.03012" lon="7.66704">
        <ele>1791</ele>
        <time>2017-09-17T16:26:07Z</time>
      </trkpt>
      <trkpt lat="44.03008" lon="7.66702">
        <ele>1791</ele>
        <time>2017-09-17T16:26:08Z</time>
      </trkpt>
      <trkpt lat="44.03004" lon="7.667">
        <ele>1792</ele>
        <time>2017-09-17T16:26:09Z</time>
      </trkpt>
      <trkpt lat="44.03001" lon="7.667">
        <ele>1792</ele>
        <time>2017-09-17T16:26:10Z</time>
      </trkpt>
      <trkpt lat="44.02997" lon="7.66699">
        <ele>1792</ele>
        <time>2017-09-17T16:26:11Z</time>
      </trkpt>
      <trkpt lat="44.02993" lon="7.66698">
        <ele>1792</ele>
        <time>2017-09-17T16:26:12Z</time>
      </trkpt>
      <trkpt lat="44.02989" lon="7.66696">
        <ele>1793</ele>
        <time>2017-09-17T16:26:13Z</time>
      </trkpt>
      <trkpt lat="44.02985" lon="7.66694">
        <ele>1793</ele>
        <time>2017-09-17T16:26:14Z</time>
      </trkpt>
      <trkpt lat="44.02981" lon="7.66691">
        <ele>1793</ele>
        <time>2017-09-17T16:26:15Z</time>
      </trkpt>
      <trkpt lat="44.02978" lon="7.66687">
        <ele>1794</ele>
        <time>2017-09-17T16:26:16Z</time>
      </trkpt>
      <trkpt lat="44.02976" lon="7.66683">
        <ele>1794</ele>
        <time>2017-09-17T16:26:17Z</time>
      </trkpt>
      <trkpt lat="44.02974" lon="7.66678">
        <ele>1795</ele>
        <time>2017-09-17T16:26:18Z</time>
      </trkpt>
      <trkpt lat="44.02971" lon="7.66675">
        <ele>1795</ele>
        <time>2017-09-17T16:26:19Z</time>
      </trkpt>
      <trkpt lat="44.02968" lon="7.66672">
        <ele>1796</ele>
        <time>2017-09-17T16:26:20Z</time>
      </trkpt>
      <trkpt lat="44.02964" lon="7.66669">
        <ele>1796</ele>
        <time>2017-09-17T16:26:21Z</time>
      </trkpt>
      <trkpt lat="44.0296" lon="7.66667">
        <ele>1796</ele>
        <time>2017-09-17T16:26:22Z</time>
      </trkpt>
      <trkpt lat="44.02956" lon="7.66665">
        <ele>1797</ele>
        <time>2017-09-17T16:26:23Z</time>
      </trkpt>
      <trkpt lat="44.02952" lon="7.66664">
        <ele>1797</ele>
        <time>2017-09-17T16:26:24Z</time>
      </trkpt>
      <trkpt lat="44.02948" lon="7.66663">
        <ele>1798</ele>
        <time>2017-09-17T16:26:25Z</time>
      </trkpt>
      <trkpt lat="44.02943" lon="7.66662">
        <ele>1798</ele>
        <time>2017-09-17T16:26:26Z</time>
      </trkpt>
      <trkpt lat="44.02939" lon="7.66662">
        <ele>1798</ele>
        <time>2017-09-17T16:26:27Z</time>
      </trkpt>
      <trkpt lat="44.02935" lon="7.66663">
        <ele>1799</ele>
        <time>2017-09-17T16:26:28Z</time>
      </trkpt>
      <trkpt lat="44.02931" lon="7.66665">
        <ele>1799</ele>
        <time>2017-09-17T16:26:29Z</time>
      </trkpt>
      <trkpt lat="44.02927" lon="7.66667">
        <ele>1799</ele>
        <time>2017-09-17T16:26:30Z</time>
      </trkpt>
      <trkpt lat="44.02923" lon="7.66668">
        <ele>1800</ele>
        <time>2017-09-17T16:26:31Z</time>
      </trkpt>
      <trkpt lat="44.02919" lon="7.6667">
        <ele>1800</ele>
        <time>2017-09-17T16:26:32Z</time>
      </trkpt>
      <trkpt lat="44.02915" lon="7.66671">
        <ele>1801</ele>
        <time>2017-09-17T16:26:33Z</time>
      </trkpt>
      <trkpt lat="44.02911" lon="7.66672">
        <ele>1801</ele>
        <time>2017-09-17T16:26:34Z</time>
      </trkpt>
      <trkpt lat="44.02906" lon="7.66672">
        <ele>1801</ele>
        <time>2017-09-17T16:26:35Z</time>
      </trkpt>
      <trkpt lat="44.02902" lon="7.66672">
        <ele>1802</ele>
        <time>2017-09-17T16:26:36Z</time>
      </trkpt>
      <trkpt lat="44.02898" lon="7.66673">
        <ele>1802</ele>
        <time>2017-09-17T16:26:37Z</time>
      </trkpt>
      <trkpt lat="44.02893" lon="7.66674">
        <ele>1802</ele>
        <time>2017-09-17T16:26:38Z</time>
      </trkpt>
      <trkpt lat="44.02889" lon="7.66675">
        <ele>1803</ele>
        <time>2017-09-17T16:26:39Z</time>
      </trkpt>
      <trkpt lat="44.02885" lon="7.66676">
        <ele>1803</ele>
        <time>2017-09-17T16:26:40Z</time>
      </trkpt>
      <trkpt lat="44.02881" lon="7.66677">
        <ele>1804</ele>
        <time>2017-09-17T16:26:41Z</time>
      </trkpt>
      <trkpt lat="44.02877" lon="7.66677">
        <ele>1804</ele>
        <time>2017-09-17T16:26:42Z</time>
      </trkpt>
      <trkpt lat="44.02873" lon="7.66676">
        <ele>1805</ele>
        <time>2017-09-17T16:26:43Z</time>
      </trkpt>
      <trkpt lat="44.02869" lon="7.66676">
        <ele>1805</ele>
        <time>2017-09-17T16:26:44Z</time>
      </trkpt>
      <trkpt lat="44.02865" lon="7.66674">
        <ele>1806</ele>
        <time>2017-09-17T16:26:45Z</time>
      </trkpt>
      <trkpt lat="44.02862" lon="7.66672">
        <ele>1806</ele>
        <time>2017-09-17T16:26:46Z</time>
      </trkpt>
      <trkpt lat="44.02858" lon="7.66668">
        <ele>1807</ele>
        <time>2017-09-17T16:26:47Z</time>
      </trkpt>
      <trkpt lat="44.02855" lon="7.66664">
        <ele>1807</ele>
        <time>2017-09-17T16:26:48Z</time>
      </trkpt>
      <trkpt lat="44.02852" lon="7.66659">
        <ele>1808</ele>
        <time>2017-09-17T16:26:49Z</time>
      </trkpt>
      <trkpt lat="44.0285" lon="7.66654">
        <ele>1808</ele>
        <time>2017-09-17T16:26:50Z</time>
      </trkpt>
      <trkpt lat="44.02848" lon="7.66649">
        <ele>1808</ele>
        <time>2017-09-17T16:26:51Z</time>
      </trkpt>
      <trkpt lat="44.02846" lon="7.66644">
        <ele>1808</ele>
        <time>2017-09-17T16:26:52Z</time>
      </trkpt>
      <trkpt lat="44.02844" lon="7.66639">
        <ele>1809</ele>
        <time>2017-09-17T16:26:53Z</time>
      </trkpt>
      <trkpt lat="44.02843" lon="7.66634">
        <ele>1809</ele>
        <time>2017-09-17T16:26:54Z</time>
      </trkpt>
      <trkpt lat="44.02842" lon="7.6663">
        <ele>1809</ele>
        <time>2017-09-17T16:26:55Z</time>
      </trkpt>
      <trkpt lat="44.02841" lon="7.66626">
        <ele>1809</ele>
        <time>2017-09-17T16:26:56Z</time>
      </trkpt>
      <trkpt lat="44.02839" lon="7.66623">
        <ele>1809</ele>
        <time>2017-09-17T16:26:57Z</time>
      </trkpt>
      <trkpt lat="44.02838" lon="7.66619">
        <ele>1810</ele>
        <time>2017-09-17T16:26:58Z</time>
      </trkpt>
      <trkpt lat="44.02837" lon="7.66616">
        <ele>1810</ele>
        <time>2017-09-17T16:26:59Z</time>
      </trkpt>
      <trkpt lat="44.02837" lon="7.66612">
        <ele>1810</ele>
        <time>2017-09-17T16:27:00Z</time>
      </trkpt>
      <trkpt lat="44.02836" lon="7.66608">
        <ele>1810</ele>
        <time>2017-09-17T16:27:01Z</time>
      </trkpt>
      <trkpt lat="44.02835" lon="7.66604">
        <ele>1810</ele>
        <time>2017-09-17T16:27:02Z</time>
      </trkpt>
      <trkpt lat="44.02835" lon="7.666">
        <ele>1811</ele>
        <time>2017-09-17T16:27:03Z</time>
      </trkpt>
      <trkpt lat="44.02834" lon="7.66597">
        <ele>1811</ele>
        <time>2017-09-17T16:27:04Z</time>
      </trkpt>
      <trkpt lat="44.02833" lon="7.66593">
        <ele>1811</ele>
        <time>2017-09-17T16:27:05Z</time>
      </trkpt>
      <trkpt lat="44.02832" lon="7.66589">
        <ele>1811</ele>
        <time>2017-09-17T16:27:06Z</time>
      </trkpt>
      <trkpt lat="44.02832" lon="7.66585">
        <ele>1811</ele>
        <time>2017-09-17T16:27:07Z</time>
      </trkpt>
      <trkpt lat="44.02832" lon="7.66581">
        <ele>1811</ele>
        <time>2017-09-17T16:27:08Z</time>
      </trkpt>
      <trkpt lat="44.02831" lon="7.66578">
        <ele>1811</ele>
        <time>2017-09-17T16:27:09Z</time>
      </trkpt>
      <trkpt lat="44.02831" lon="7.66574">
        <ele>1812</ele>
        <time>2017-09-17T16:27:10Z</time>
      </trkpt>
      <trkpt lat="44.02831" lon="7.66571">
        <ele>1812</ele>
        <time>2017-09-17T16:27:11Z</time>
      </trkpt>
      <trkpt lat="44.0283" lon="7.66567">
        <ele>1812</ele>
        <time>2017-09-17T16:27:12Z</time>
      </trkpt>
      <trkpt lat="44.02829" lon="7.66563">
        <ele>1812</ele>
        <time>2017-09-17T16:27:13Z</time>
      </trkpt>
      <trkpt lat="44.02829" lon="7.66559">
        <ele>1812</ele>
        <time>2017-09-17T16:27:14Z</time>
      </trkpt>
      <trkpt lat="44.02828" lon="7.66555">
        <ele>1813</ele>
        <time>2017-09-17T16:27:15Z</time>
      </trkpt>
      <trkpt lat="44.02827" lon="7.6655">
        <ele>1813</ele>
        <time>2017-09-17T16:27:16Z</time>
      </trkpt>
      <trkpt lat="44.02826" lon="7.66546">
        <ele>1813</ele>
        <time>2017-09-17T16:27:17Z</time>
      </trkpt>
      <trkpt lat="44.02826" lon="7.66542">
        <ele>1813</ele>
        <time>2017-09-17T16:27:18Z</time>
      </trkpt>
      <trkpt lat="44.02825" lon="7.66538">
        <ele>1814</ele>
        <time>2017-09-17T16:27:19Z</time>
      </trkpt>
      <trkpt lat="44.02824" lon="7.66535">
        <ele>1814</ele>
        <time>2017-09-17T16:27:20Z</time>
      </trkpt>
      <trkpt lat="44.02823" lon="7.66531">
        <ele>1814</ele>
        <time>2017-09-17T16:27:21Z</time>
      </trkpt>
      <trkpt lat="44.02822" lon="7.66527">
        <ele>1814</ele>
        <time>2017-09-17T16:27:22Z</time>
      </trkpt>
      <trkpt lat="44.02821" lon="7.66523">
        <ele>1815</ele>
        <time>2017-09-17T16:27:23Z</time>
      </trkpt>
      <trkpt lat="44.0282" lon="7.66519">
        <ele>1815</ele>
        <time>2017-09-17T16:27:24Z</time>
      </trkpt>
      <trkpt lat="44.02819" lon="7.66515">
        <ele>1815</ele>
        <time>2017-09-17T16:27:25Z</time>
      </trkpt>
      <trkpt lat="44.02818" lon="7.66511">
        <ele>1816</ele>
        <time>2017-09-17T16:27:26Z</time>
      </trkpt>
      <trkpt lat="44.02817" lon="7.66507">
        <ele>1816</ele>
        <time>2017-09-17T16:27:27Z</time>
      </trkpt>
      <trkpt lat="44.02817" lon="7.66503">
        <ele>1816</ele>
        <time>2017-09-17T16:27:28Z</time>
      </trkpt>
      <trkpt lat="44.02816" lon="7.66499">
        <ele>1817</ele>
        <time>2017-09-17T16:27:29Z</time>
      </trkpt>
      <trkpt lat="44.02815" lon="7.66495">
        <ele>1817</ele>
        <time>2017-09-17T16:27:30Z</time>
      </trkpt>
      <trkpt lat="44.02814" lon="7.66491">
        <ele>1817</ele>
        <time>2017-09-17T16:27:31Z</time>
      </trkpt>
      <trkpt lat="44.02814" lon="7.66487">
        <ele>1817</ele>
        <time>2017-09-17T16:27:32Z</time>
      </trkpt>
      <trkpt lat="44.02813" lon="7.66483">
        <ele>1818</ele>
        <time>2017-09-17T16:27:33Z</time>
      </trkpt>
      <trkpt lat="44.02813" lon="7.66479">
        <ele>1818</ele>
        <time>2017-09-17T16:27:34Z</time>
      </trkpt>
      <trkpt lat="44.02812" lon="7.66475">
        <ele>1818</ele>
        <time>2017-09-17T16:27:35Z</time>
      </trkpt>
      <trkpt lat="44.02812" lon="7.66471">
        <ele>1819</ele>
        <time>2017-09-17T16:27:36Z</time>
      </trkpt>
      <trkpt lat="44.02812" lon="7.66466">
        <ele>1819</ele>
        <time>2017-09-17T16:27:37Z</time>
      </trkpt>
      <trkpt lat="44.02812" lon="7.66462">
        <ele>1819</ele>
        <time>2017-09-17T16:27:38Z</time>
      </trkpt>
      <trkpt lat="44.02812" lon="7.66458">
        <ele>1819</ele>
        <time>2017-09-17T16:27:39Z</time>
      </trkpt>
      <trkpt lat="44.02813" lon="7.66454">
        <ele>1820</ele>
        <time>2017-09-17T16:27:40Z</time>
      </trkpt>
      <trkpt lat="44.02813" lon="7.6645">
        <ele>1820</ele>
        <time>2017-09-17T16:27:41Z</time>
      </trkpt>
      <trkpt lat="44.02813" lon="7.66446">
        <ele>1820</ele>
        <time>2017-09-17T16:27:42Z</time>
      </trkpt>
      <trkpt lat="44.02812" lon="7.66442">
        <ele>1821</ele>
        <time>2017-09-17T16:27:43Z</time>
      </trkpt>
      <trkpt lat="44.02811" lon="7.66439">
        <ele>1821</ele>
        <time>2017-09-17T16:27:44Z</time>
      </trkpt>
      <trkpt lat="44.0281" lon="7.66435">
        <ele>1821</ele>
        <time>2017-09-17T16:27:45Z</time>
      </trkpt>
      <trkpt lat="44.02808" lon="7.66432">
        <ele>1822</ele>
        <time>2017-09-17T16:27:46Z</time>
      </trkpt>
      <trkpt lat="44.02805" lon="7.66429">
        <ele>1822</ele>
        <time>2017-09-17T16:27:47Z</time>
      </trkpt>
      <trkpt lat="44.02802" lon="7.66426">
        <ele>1823</ele>
        <time>2017-09-17T16:27:48Z</time>
      </trkpt>
      <trkpt lat="44.02799" lon="7.66424">
        <ele>1823</ele>
        <time>2017-09-17T16:27:49Z</time>
      </trkpt>
      <trkpt lat="44.02796" lon="7.66423">
        <ele>1823</ele>
        <time>2017-09-17T16:27:50Z</time>
      </trkpt>
      <trkpt lat="44.02792" lon="7.66423">
        <ele>1824</ele>
        <time>2017-09-17T16:27:51Z</time>
      </trkpt>
      <trkpt lat="44.02789" lon="7.66422">
        <ele>1824</ele>
        <time>2017-09-17T16:27:52Z</time>
      </trkpt>
      <trkpt lat="44.02785" lon="7.66422">
        <ele>1825</ele>
        <time>2017-09-17T16:27:53Z</time>
      </trkpt>
      <trkpt lat="44.02781" lon="7.66422">
        <ele>1825</ele>
        <time>2017-09-17T16:27:54Z</time>
      </trkpt>
      <trkpt lat="44.02778" lon="7.66422">
        <ele>1825</ele>
        <time>2017-09-17T16:27:55Z</time>
      </trkpt>
      <trkpt lat="44.02775" lon="7.66422">
        <ele>1826</ele>
        <time>2017-09-17T16:27:56Z</time>
      </trkpt>
      <trkpt lat="44.02772" lon="7.66421">
        <ele>1826</ele>
        <time>2017-09-17T16:27:57Z</time>
      </trkpt>
      <trkpt lat="44.02768" lon="7.6642">
        <ele>1826</ele>
        <time>2017-09-17T16:27:58Z</time>
      </trkpt>
      <trkpt lat="44.02765" lon="7.66419">
        <ele>1827</ele>
        <time>2017-09-17T16:27:59Z</time>
      </trkpt>
      <trkpt lat="44.02762" lon="7.66418">
        <ele>1827</ele>
        <time>2017-09-17T16:28:00Z</time>
      </trkpt>
      <trkpt lat="44.02759" lon="7.66417">
        <ele>1827</ele>
        <time>2017-09-17T16:28:01Z</time>
      </trkpt>
      <trkpt lat="44.02756" lon="7.66415">
        <ele>1827</ele>
        <time>2017-09-17T16:28:02Z</time>
      </trkpt>
      <trkpt lat="44.02753" lon="7.66414">
        <ele>1828</ele>
        <time>2017-09-17T16:28:03Z</time>
      </trkpt>
      <trkpt lat="44.0275" lon="7.66412">
        <ele>1828</ele>
        <time>2017-09-17T16:28:04Z</time>
      </trkpt>
      <trkpt lat="44.02747" lon="7.66411">
        <ele>1828</ele>
        <time>2017-09-17T16:28:05Z</time>
      </trkpt>
      <trkpt lat="44.02743" lon="7.6641">
        <ele>1828</ele>
        <time>2017-09-17T16:28:06Z</time>
      </trkpt>
      <trkpt lat="44.0274" lon="7.66409">
        <ele>1828</ele>
        <time>2017-09-17T16:28:07Z</time>
      </trkpt>
      <trkpt lat="44.02737" lon="7.66409">
        <ele>1829</ele>
        <time>2017-09-17T16:28:08Z</time>
      </trkpt>
      <trkpt lat="44.02733" lon="7.66409">
        <ele>1829</ele>
        <time>2017-09-17T16:28:09Z</time>
      </trkpt>
      <trkpt lat="44.0273" lon="7.6641">
        <ele>1829</ele>
        <time>2017-09-17T16:28:10Z</time>
      </trkpt>
      <trkpt lat="44.02727" lon="7.66411">
        <ele>1830</ele>
        <time>2017-09-17T16:28:11Z</time>
      </trkpt>
      <trkpt lat="44.02724" lon="7.66413">
        <ele>1830</ele>
        <time>2017-09-17T16:28:12Z</time>
      </trkpt>
      <trkpt lat="44.02721" lon="7.66416">
        <ele>1830</ele>
        <time>2017-09-17T16:28:13Z</time>
      </trkpt>
      <trkpt lat="44.02718" lon="7.66418">
        <ele>1830</ele>
        <time>2017-09-17T16:28:14Z</time>
      </trkpt>
      <trkpt lat="44.02715" lon="7.66419">
        <ele>1831</ele>
        <time>2017-09-17T16:28:15Z</time>
      </trkpt>
      <trkpt lat="44.02712" lon="7.66421">
        <ele>1831</ele>
        <time>2017-09-17T16:28:16Z</time>
      </trkpt>
      <trkpt lat="44.0271" lon="7.66422">
        <ele>1831</ele>
        <time>2017-09-17T16:28:17Z</time>
      </trkpt>
      <trkpt lat="44.02706" lon="7.66424">
        <ele>1832</ele>
        <time>2017-09-17T16:28:18Z</time>
      </trkpt>
      <trkpt lat="44.02703" lon="7.66425">
        <ele>1832</ele>
        <time>2017-09-17T16:28:19Z</time>
      </trkpt>
      <trkpt lat="44.027" lon="7.66426">
        <ele>1833</ele>
        <time>2017-09-17T16:28:20Z</time>
      </trkpt>
      <trkpt lat="44.02697" lon="7.66427">
        <ele>1833</ele>
        <time>2017-09-17T16:28:21Z</time>
      </trkpt>
      <trkpt lat="44.02694" lon="7.66428">
        <ele>1833</ele>
        <time>2017-09-17T16:28:22Z</time>
      </trkpt>
      <trkpt lat="44.02691" lon="7.66428">
        <ele>1833</ele>
        <time>2017-09-17T16:28:23Z</time>
      </trkpt>
      <trkpt lat="44.02688" lon="7.66428">
        <ele>1834</ele>
        <time>2017-09-17T16:28:24Z</time>
      </trkpt>
      <trkpt lat="44.02685" lon="7.66429">
        <ele>1834</ele>
        <time>2017-09-17T16:28:25Z</time>
      </trkpt>
      <trkpt lat="44.02682" lon="7.66429">
        <ele>1835</ele>
        <time>2017-09-17T16:28:26Z</time>
      </trkpt>
      <trkpt lat="44.02679" lon="7.66429">
        <ele>1835</ele>
        <time>2017-09-17T16:28:27Z</time>
      </trkpt>
      <trkpt lat="44.02676" lon="7.66428">
        <ele>1835</ele>
        <time>2017-09-17T16:28:28Z</time>
      </trkpt>
      <trkpt lat="44.02673" lon="7.66428">
        <ele>1835</ele>
        <time>2017-09-17T16:28:29Z</time>
      </trkpt>
      <trkpt lat="44.0267" lon="7.66427">
        <ele>1836</ele>
        <time>2017-09-17T16:28:30Z</time>
      </trkpt>
      <trkpt lat="44.02667" lon="7.66426">
        <ele>1836</ele>
        <time>2017-09-17T16:28:31Z</time>
      </trkpt>
      <trkpt lat="44.02664" lon="7.66426">
        <ele>1836</ele>
        <time>2017-09-17T16:28:32Z</time>
      </trkpt>
      <trkpt lat="44.02661" lon="7.66424">
        <ele>1837</ele>
        <time>2017-09-17T16:28:33Z</time>
      </trkpt>
      <trkpt lat="44.02658" lon="7.66423">
        <ele>1837</ele>
        <time>2017-09-17T16:28:34Z</time>
      </trkpt>
      <trkpt lat="44.02656" lon="7.66421">
        <ele>1837</ele>
        <time>2017-09-17T16:28:35Z</time>
      </trkpt>
      <trkpt lat="44.02653" lon="7.6642">
        <ele>1837</ele>
        <time>2017-09-17T16:28:36Z</time>
      </trkpt>
      <trkpt lat="44.02651" lon="7.66418">
        <ele>1838</ele>
        <time>2017-09-17T16:28:37Z</time>
      </trkpt>
      <trkpt lat="44.02648" lon="7.66417">
        <ele>1838</ele>
        <time>2017-09-17T16:28:38Z</time>
      </trkpt>
      <trkpt lat="44.02645" lon="7.66415">
        <ele>1838</ele>
        <time>2017-09-17T16:28:39Z</time>
      </trkpt>
      <trkpt lat="44.02642" lon="7.66414">
        <ele>1838</ele>
        <time>2017-09-17T16:28:40Z</time>
      </trkpt>
      <trkpt lat="44.02639" lon="7.66413">
        <ele>1839</ele>
        <time>2017-09-17T16:28:41Z</time>
      </trkpt>
      <trkpt lat="44.02636" lon="7.66412">
        <ele>1839</ele>
        <time>2017-09-17T16:28:42Z</time>
      </trkpt>
      <trkpt lat="44.02633" lon="7.66411">
        <ele>1839</ele>
        <time>2017-09-17T16:28:43Z</time>
      </trkpt>
      <trkpt lat="44.0263" lon="7.6641">
        <ele>1839</ele>
        <time>2017-09-17T16:28:44Z</time>
      </trkpt>
      <trkpt lat="44.02627" lon="7.6641">
        <ele>1840</ele>
        <time>2017-09-17T16:28:45Z</time>
      </trkpt>
      <trkpt lat="44.02624" lon="7.66409">
        <ele>1840</ele>
        <time>2017-09-17T16:28:46Z</time>
      </trkpt>
      <trkpt lat="44.02621" lon="7.66409">
        <ele>1840</ele>
        <time>2017-09-17T16:28:47Z</time>
      </trkpt>
      <trkpt lat="44.02618" lon="7.66408">
        <ele>1840</ele>
        <time>2017-09-17T16:28:48Z</time>
      </trkpt>
      <trkpt lat="44.02615" lon="7.66408">
        <ele>1841</ele>
        <time>2017-09-17T16:28:49Z</time>
      </trkpt>
      <trkpt lat="44.02612" lon="7.66408">
        <ele>1841</ele>
        <time>2017-09-17T16:28:50Z</time>
      </trkpt>
      <trkpt lat="44.02609" lon="7.66408">
        <ele>1841</ele>
        <time>2017-09-17T16:28:51Z</time>
      </trkpt>
      <trkpt lat="44.02606" lon="7.66407">
        <ele>1841</ele>
        <time>2017-09-17T16:28:52Z</time>
      </trkpt>
      <trkpt lat="44.02603" lon="7.66407">
        <ele>1841</ele>
        <time>2017-09-17T16:28:53Z</time>
      </trkpt>
      <trkpt lat="44.026" lon="7.66407">
        <ele>1841</ele>
        <time>2017-09-17T16:28:54Z</time>
      </trkpt>
      <trkpt lat="44.02597" lon="7.66407">
        <ele>1842</ele>
        <time>2017-09-17T16:28:55Z</time>
      </trkpt>
      <trkpt lat="44.02594" lon="7.66407">
        <ele>1842</ele>
        <time>2017-09-17T16:28:56Z</time>
      </trkpt>
      <trkpt lat="44.0259" lon="7.66407">
        <ele>1842</ele>
        <time>2017-09-17T16:28:57Z</time>
      </trkpt>
      <trkpt lat="44.02587" lon="7.66408">
        <ele>1842</ele>
        <time>2017-09-17T16:28:58Z</time>
      </trkpt>
      <trkpt lat="44.02584" lon="7.66409">
        <ele>1843</ele>
        <time>2017-09-17T16:28:59Z</time>
      </trkpt>
      <trkpt lat="44.02581" lon="7.6641">
        <ele>1843</ele>
        <time>2017-09-17T16:29:00Z</time>
      </trkpt>
      <trkpt lat="44.02578" lon="7.6641">
        <ele>1843</ele>
        <time>2017-09-17T16:29:01Z</time>
      </trkpt>
      <trkpt lat="44.02575" lon="7.6641">
        <ele>1844</ele>
        <time>2017-09-17T16:29:02Z</time>
      </trkpt>
      <trkpt lat="44.02572" lon="7.6641">
        <ele>1844</ele>
        <time>2017-09-17T16:29:03Z</time>
      </trkpt>
      <trkpt lat="44.0257" lon="7.6641">
        <ele>1844</ele>
        <time>2017-09-17T16:29:04Z</time>
      </trkpt>
      <trkpt lat="44.02567" lon="7.66411">
        <ele>1845</ele>
        <time>2017-09-17T16:29:05Z</time>
      </trkpt>
      <trkpt lat="44.02564" lon="7.66412">
        <ele>1845</ele>
        <time>2017-09-17T16:29:06Z</time>
      </trkpt>
      <trkpt lat="44.02561" lon="7.66413">
        <ele>1845</ele>
        <time>2017-09-17T16:29:07Z</time>
      </trkpt>
      <trkpt lat="44.02558" lon="7.66415">
        <ele>1845</ele>
        <time>2017-09-17T16:29:08Z</time>
      </trkpt>
      <trkpt lat="44.02555" lon="7.66416">
        <ele>1846</ele>
        <time>2017-09-17T16:29:09Z</time>
      </trkpt>
      <trkpt lat="44.02553" lon="7.66418">
        <ele>1846</ele>
        <time>2017-09-17T16:29:10Z</time>
      </trkpt>
      <trkpt lat="44.0255" lon="7.6642">
        <ele>1846</ele>
        <time>2017-09-17T16:29:11Z</time>
      </trkpt>
      <trkpt lat="44.02547" lon="7.66421">
        <ele>1846</ele>
        <time>2017-09-17T16:29:12Z</time>
      </trkpt>
      <trkpt lat="44.02544" lon="7.66423">
        <ele>1846</ele>
        <time>2017-09-17T16:29:13Z</time>
      </trkpt>
      <trkpt lat="44.02542" lon="7.66425">
        <ele>1847</ele>
        <time>2017-09-17T16:29:14Z</time>
      </trkpt>
      <trkpt lat="44.02539" lon="7.66426">
        <ele>1847</ele>
        <time>2017-09-17T16:29:15Z</time>
      </trkpt>
      <trkpt lat="44.02537" lon="7.66427">
        <ele>1847</ele>
        <time>2017-09-17T16:29:16Z</time>
      </trkpt>
      <trkpt lat="44.02534" lon="7.66428">
        <ele>1847</ele>
        <time>2017-09-17T16:29:17Z</time>
      </trkpt>
      <trkpt lat="44.02531" lon="7.66429">
        <ele>1848</ele>
        <time>2017-09-17T16:29:18Z</time>
      </trkpt>
      <trkpt lat="44.02529" lon="7.66429">
        <ele>1848</ele>
        <time>2017-09-17T16:29:19Z</time>
      </trkpt>
      <trkpt lat="44.02526" lon="7.66429">
        <ele>1848</ele>
        <time>2017-09-17T16:29:20Z</time>
      </trkpt>
      <trkpt lat="44.02523" lon="7.66429">
        <ele>1848</ele>
        <time>2017-09-17T16:29:21Z</time>
      </trkpt>
      <trkpt lat="44.02521" lon="7.6643">
        <ele>1849</ele>
        <time>2017-09-17T16:29:22Z</time>
      </trkpt>
      <trkpt lat="44.02518" lon="7.6643">
        <ele>1849</ele>
        <time>2017-09-17T16:29:23Z</time>
      </trkpt>
      <trkpt lat="44.02516" lon="7.6643">
        <ele>1849</ele>
        <time>2017-09-17T16:29:24Z</time>
      </trkpt>
      <trkpt lat="44.02513" lon="7.6643">
        <ele>1849</ele>
        <time>2017-09-17T16:29:25Z</time>
      </trkpt>
      <trkpt lat="44.0251" lon="7.66429">
        <ele>1849</ele>
        <time>2017-09-17T16:29:26Z</time>
      </trkpt>
      <trkpt lat="44.02508" lon="7.66429">
        <ele>1850</ele>
        <time>2017-09-17T16:29:27Z</time>
      </trkpt>
      <trkpt lat="44.02505" lon="7.66429">
        <ele>1850</ele>
        <time>2017-09-17T16:29:28Z</time>
      </trkpt>
      <trkpt lat="44.02503" lon="7.66429">
        <ele>1850</ele>
        <time>2017-09-17T16:29:29Z</time>
      </trkpt>
      <trkpt lat="44.025" lon="7.66428">
        <ele>1850</ele>
        <time>2017-09-17T16:29:30Z</time>
      </trkpt>
      <trkpt lat="44.02498" lon="7.66427">
        <ele>1851</ele>
        <time>2017-09-17T16:29:31Z</time>
      </trkpt>
      <trkpt lat="44.02495" lon="7.66425">
        <ele>1851</ele>
        <time>2017-09-17T16:29:32Z</time>
      </trkpt>
      <trkpt lat="44.02492" lon="7.66423">
        <ele>1851</ele>
        <time>2017-09-17T16:29:33Z</time>
      </trkpt>
      <trkpt lat="44.0249" lon="7.66421">
        <ele>1851</ele>
        <time>2017-09-17T16:29:34Z</time>
      </trkpt>
      <trkpt lat="44.02487" lon="7.66418">
        <ele>1852</ele>
        <time>2017-09-17T16:29:35Z</time>
      </trkpt>
      <trkpt lat="44.02484" lon="7.66416">
        <ele>1852</ele>
        <time>2017-09-17T16:29:36Z</time>
      </trkpt>
      <trkpt lat="44.02482" lon="7.66413">
        <ele>1852</ele>
        <time>2017-09-17T16:29:37Z</time>
      </trkpt>
      <trkpt lat="44.02479" lon="7.6641">
        <ele>1853</ele>
        <time>2017-09-17T16:29:38Z</time>
      </trkpt>
      <trkpt lat="44.02477" lon="7.66407">
        <ele>1853</ele>
        <time>2017-09-17T16:29:39Z</time>
      </trkpt>
      <trkpt lat="44.02475" lon="7.66405">
        <ele>1853</ele>
        <time>2017-09-17T16:29:40Z</time>
      </trkpt>
      <trkpt lat="44.02473" lon="7.66402">
        <ele>1853</ele>
        <time>2017-09-17T16:29:41Z</time>
      </trkpt>
      <trkpt lat="44.02471" lon="7.66399">
        <ele>1853</ele>
        <time>2017-09-17T16:29:42Z</time>
      </trkpt>
      <trkpt lat="44.02469" lon="7.66396">
        <ele>1854</ele>
        <time>2017-09-17T16:29:43Z</time>
      </trkpt>
      <trkpt lat="44.02466" lon="7.66393">
        <ele>1854</ele>
        <time>2017-09-17T16:29:44Z</time>
      </trkpt>
      <trkpt lat="44.02464" lon="7.6639">
        <ele>1854</ele>
        <time>2017-09-17T16:29:45Z</time>
      </trkpt>
      <trkpt lat="44.02463" lon="7.66387">
        <ele>1854</ele>
        <time>2017-09-17T16:29:46Z</time>
      </trkpt>
      <trkpt lat="44.02461" lon="7.66385">
        <ele>1855</ele>
        <time>2017-09-17T16:29:47Z</time>
      </trkpt>
      <trkpt lat="44.02459" lon="7.66382">
        <ele>1855</ele>
        <time>2017-09-17T16:29:48Z</time>
      </trkpt>
      <trkpt lat="44.02457" lon="7.66379">
        <ele>1855</ele>
        <time>2017-09-17T16:29:49Z</time>
      </trkpt>
      <trkpt lat="44.02455" lon="7.66376">
        <ele>1855</ele>
        <time>2017-09-17T16:29:50Z</time>
      </trkpt>
      <trkpt lat="44.02453" lon="7.66373">
        <ele>1856</ele>
        <time>2017-09-17T16:29:51Z</time>
      </trkpt>
      <trkpt lat="44.02452" lon="7.6637">
        <ele>1856</ele>
        <time>2017-09-17T16:29:52Z</time>
      </trkpt>
      <trkpt lat="44.02449" lon="7.66367">
        <ele>1856</ele>
        <time>2017-09-17T16:29:53Z</time>
      </trkpt>
      <trkpt lat="44.02447" lon="7.66365">
        <ele>1856</ele>
        <time>2017-09-17T16:29:54Z</time>
      </trkpt>
      <trkpt lat="44.02445" lon="7.66362">
        <ele>1857</ele>
        <time>2017-09-17T16:29:55Z</time>
      </trkpt>
      <trkpt lat="44.02442" lon="7.6636">
        <ele>1857</ele>
        <time>2017-09-17T16:29:56Z</time>
      </trkpt>
      <trkpt lat="44.0244" lon="7.66357">
        <ele>1857</ele>
        <time>2017-09-17T16:29:57Z</time>
      </trkpt>
      <trkpt lat="44.02437" lon="7.66355">
        <ele>1858</ele>
        <time>2017-09-17T16:29:58Z</time>
      </trkpt>
      <trkpt lat="44.02435" lon="7.66353">
        <ele>1858</ele>
        <time>2017-09-17T16:29:59Z</time>
      </trkpt>
      <trkpt lat="44.02432" lon="7.6635">
        <ele>1858</ele>
        <time>2017-09-17T16:30:00Z</time>
      </trkpt>
      <trkpt lat="44.0243" lon="7.66348">
        <ele>1858</ele>
        <time>2017-09-17T16:30:01Z</time>
      </trkpt>
      <trkpt lat="44.02427" lon="7.66346">
        <ele>1859</ele>
        <time>2017-09-17T16:30:02Z</time>
      </trkpt>
      <trkpt lat="44.02424" lon="7.66345">
        <ele>1859</ele>
        <time>2017-09-17T16:30:03Z</time>
      </trkpt>
      <trkpt lat="44.02422" lon="7.66343">
        <ele>1859</ele>
        <time>2017-09-17T16:30:04Z</time>
      </trkpt>
      <trkpt lat="44.02419" lon="7.66342">
        <ele>1859</ele>
        <time>2017-09-17T16:30:05Z</time>
      </trkpt>
      <trkpt lat="44.02416" lon="7.6634">
        <ele>1859</ele>
        <time>2017-09-17T16:30:06Z</time>
      </trkpt>
      <trkpt lat="44.02413" lon="7.66339">
        <ele>1860</ele>
        <time>2017-09-17T16:30:07Z</time>
      </trkpt>
      <trkpt lat="44.02411" lon="7.66338">
        <ele>1860</ele>
        <time>2017-09-17T16:30:08Z</time>
      </trkpt>
      <trkpt lat="44.02408" lon="7.66336">
        <ele>1860</ele>
        <time>2017-09-17T16:30:09Z</time>
      </trkpt>
      <trkpt lat="44.02405" lon="7.66335">
        <ele>1860</ele>
        <time>2017-09-17T16:30:10Z</time>
      </trkpt>
      <trkpt lat="44.02402" lon="7.66334">
        <ele>1860</ele>
        <time>2017-09-17T16:30:11Z</time>
      </trkpt>
      <trkpt lat="44.02399" lon="7.66334">
        <ele>1860</ele>
        <time>2017-09-17T16:30:12Z</time>
      </trkpt>
      <trkpt lat="44.02396" lon="7.66333">
        <ele>1860</ele>
        <time>2017-09-17T16:30:13Z</time>
      </trkpt>
      <trkpt lat="44.02394" lon="7.66333">
        <ele>1861</ele>
        <time>2017-09-17T16:30:14Z</time>
      </trkpt>
      <trkpt lat="44.02391" lon="7.66332">
        <ele>1861</ele>
        <time>2017-09-17T16:30:15Z</time>
      </trkpt>
      <trkpt lat="44.02388" lon="7.66332">
        <ele>1861</ele>
        <time>2017-09-17T16:30:16Z</time>
      </trkpt>
      <trkpt lat="44.02385" lon="7.66331">
        <ele>1861</ele>
        <time>2017-09-17T16:30:17Z</time>
      </trkpt>
      <trkpt lat="44.02382" lon="7.66331">
        <ele>1861</ele>
        <time>2017-09-17T16:30:18Z</time>
      </trkpt>
      <trkpt lat="44.02379" lon="7.66331">
        <ele>1861</ele>
        <time>2017-09-17T16:30:19Z</time>
      </trkpt>
      <trkpt lat="44.02376" lon="7.66331">
        <ele>1861</ele>
        <time>2017-09-17T16:30:20Z</time>
      </trkpt>
      <trkpt lat="44.02374" lon="7.66331">
        <ele>1862</ele>
        <time>2017-09-17T16:30:21Z</time>
      </trkpt>
      <trkpt lat="44.02371" lon="7.66332">
        <ele>1862</ele>
        <time>2017-09-17T16:30:22Z</time>
      </trkpt>
      <trkpt lat="44.02368" lon="7.66333">
        <ele>1862</ele>
        <time>2017-09-17T16:30:23Z</time>
      </trkpt>
      <trkpt lat="44.02366" lon="7.66333">
        <ele>1862</ele>
        <time>2017-09-17T16:30:24Z</time>
      </trkpt>
      <trkpt lat="44.02363" lon="7.66334">
        <ele>1862</ele>
        <time>2017-09-17T16:30:25Z</time>
      </trkpt>
      <trkpt lat="44.0236" lon="7.66334">
        <ele>1862</ele>
        <time>2017-09-17T16:30:26Z</time>
      </trkpt>
      <trkpt lat="44.02357" lon="7.66334">
        <ele>1863</ele>
        <time>2017-09-17T16:30:27Z</time>
      </trkpt>
      <trkpt lat="44.02354" lon="7.66334">
        <ele>1863</ele>
        <time>2017-09-17T16:30:28Z</time>
      </trkpt>
      <trkpt lat="44.02351" lon="7.66334">
        <ele>1863</ele>
        <time>2017-09-17T16:30:29Z</time>
      </trkpt>
      <trkpt lat="44.02349" lon="7.66334">
        <ele>1863</ele>
        <time>2017-09-17T16:30:30Z</time>
      </trkpt>
      <trkpt lat="44.02346" lon="7.66335">
        <ele>1863</ele>
        <time>2017-09-17T16:30:31Z</time>
      </trkpt>
      <trkpt lat="44.02343" lon="7.66335">
        <ele>1864</ele>
        <time>2017-09-17T16:30:32Z</time>
      </trkpt>
      <trkpt lat="44.0234" lon="7.66335">
        <ele>1864</ele>
        <time>2017-09-17T16:30:33Z</time>
      </trkpt>
      <trkpt lat="44.02337" lon="7.66335">
        <ele>1864</ele>
        <time>2017-09-17T16:30:34Z</time>
      </trkpt>
      <trkpt lat="44.02334" lon="7.66334">
        <ele>1864</ele>
        <time>2017-09-17T16:30:35Z</time>
      </trkpt>
      <trkpt lat="44.02331" lon="7.66335">
        <ele>1864</ele>
        <time>2017-09-17T16:30:36Z</time>
      </trkpt>
      <trkpt lat="44.02328" lon="7.66337">
        <ele>1865</ele>
        <time>2017-09-17T16:30:37Z</time>
      </trkpt>
      <trkpt lat="44.02326" lon="7.66337">
        <ele>1865</ele>
        <time>2017-09-17T16:30:38Z</time>
      </trkpt>
      <trkpt lat="44.02323" lon="7.66338">
        <ele>1865</ele>
        <time>2017-09-17T16:30:39Z</time>
      </trkpt>
      <trkpt lat="44.0232" lon="7.66338">
        <ele>1865</ele>
        <time>2017-09-17T16:30:40Z</time>
      </trkpt>
      <trkpt lat="44.02318" lon="7.66339">
        <ele>1865</ele>
        <time>2017-09-17T16:30:41Z</time>
      </trkpt>
      <trkpt lat="44.02315" lon="7.66339">
        <ele>1866</ele>
        <time>2017-09-17T16:30:42Z</time>
      </trkpt>
      <trkpt lat="44.02312" lon="7.66339">
        <ele>1866</ele>
        <time>2017-09-17T16:30:43Z</time>
      </trkpt>
      <trkpt lat="44.0231" lon="7.66338">
        <ele>1866</ele>
        <time>2017-09-17T16:30:44Z</time>
      </trkpt>
      <trkpt lat="44.02307" lon="7.66337">
        <ele>1866</ele>
        <time>2017-09-17T16:30:45Z</time>
      </trkpt>
      <trkpt lat="44.02304" lon="7.66336">
        <ele>1866</ele>
        <time>2017-09-17T16:30:46Z</time>
      </trkpt>
      <trkpt lat="44.02301" lon="7.66334">
        <ele>1866</ele>
        <time>2017-09-17T16:30:47Z</time>
      </trkpt>
      <trkpt lat="44.02299" lon="7.66332">
        <ele>1867</ele>
        <time>2017-09-17T16:30:48Z</time>
      </trkpt>
      <trkpt lat="44.02297" lon="7.66329">
        <ele>1867</ele>
        <time>2017-09-17T16:30:49Z</time>
      </trkpt>
      <trkpt lat="44.02295" lon="7.66327">
        <ele>1867</ele>
        <time>2017-09-17T16:30:50Z</time>
      </trkpt>
      <trkpt lat="44.02292" lon="7.66325">
        <ele>1867</ele>
        <time>2017-09-17T16:30:51Z</time>
      </trkpt>
      <trkpt lat="44.0229" lon="7.66323">
        <ele>1867</ele>
        <time>2017-09-17T16:30:52Z</time>
      </trkpt>
      <trkpt lat="44.02287" lon="7.66322">
        <ele>1867</ele>
        <time>2017-09-17T16:30:53Z</time>
      </trkpt>
      <trkpt lat="44.02285" lon="7.6632">
        <ele>1868</ele>
        <time>2017-09-17T16:30:54Z</time>
      </trkpt>
      <trkpt lat="44.02282" lon="7.66319">
        <ele>1868</ele>
        <time>2017-09-17T16:30:55Z</time>
      </trkpt>
      <trkpt lat="44.0228" lon="7.66317">
        <ele>1868</ele>
        <time>2017-09-17T16:30:56Z</time>
      </trkpt>
      <trkpt lat="44.02278" lon="7.66316">
        <ele>1868</ele>
        <time>2017-09-17T16:30:57Z</time>
      </trkpt>
      <trkpt lat="44.02275" lon="7.66316">
        <ele>1868</ele>
        <time>2017-09-17T16:30:58Z</time>
      </trkpt>
      <trkpt lat="44.02273" lon="7.66316">
        <ele>1868</ele>
        <time>2017-09-17T16:30:59Z</time>
      </trkpt>
      <trkpt lat="44.0227" lon="7.66316">
        <ele>1868</ele>
        <time>2017-09-17T16:31:00Z</time>
      </trkpt>
      <trkpt lat="44.02267" lon="7.66317">
        <ele>1868</ele>
        <time>2017-09-17T16:31:01Z</time>
      </trkpt>
      <trkpt lat="44.02264" lon="7.66319">
        <ele>1868</ele>
        <time>2017-09-17T16:31:02Z</time>
      </trkpt>
      <trkpt lat="44.02262" lon="7.66321">
        <ele>1869</ele>
        <time>2017-09-17T16:31:03Z</time>
      </trkpt>
      <trkpt lat="44.02259" lon="7.66323">
        <ele>1869</ele>
        <time>2017-09-17T16:31:04Z</time>
      </trkpt>
      <trkpt lat="44.02257" lon="7.66326">
        <ele>1869</ele>
        <time>2017-09-17T16:31:05Z</time>
      </trkpt>
      <trkpt lat="44.02255" lon="7.66329">
        <ele>1870</ele>
        <time>2017-09-17T16:31:06Z</time>
      </trkpt>
      <trkpt lat="44.02254" lon="7.66332">
        <ele>1870</ele>
        <time>2017-09-17T16:31:07Z</time>
      </trkpt>
      <trkpt lat="44.02253" lon="7.66335">
        <ele>1870</ele>
        <time>2017-09-17T16:31:08Z</time>
      </trkpt>
      <trkpt lat="44.02251" lon="7.66338">
        <ele>1871</ele>
        <time>2017-09-17T16:31:09Z</time>
      </trkpt>
      <trkpt lat="44.02249" lon="7.6634">
        <ele>1871</ele>
        <time>2017-09-17T16:31:10Z</time>
      </trkpt>
      <trkpt lat="44.02247" lon="7.66343">
        <ele>1872</ele>
        <time>2017-09-17T16:31:11Z</time>
      </trkpt>
      <trkpt lat="44.02245" lon="7.66345">
        <ele>1872</ele>
        <time>2017-09-17T16:31:12Z</time>
      </trkpt>
      <trkpt lat="44.02243" lon="7.66347">
        <ele>1872</ele>
        <time>2017-09-17T16:31:13Z</time>
      </trkpt>
      <trkpt lat="44.0224" lon="7.66348">
        <ele>1873</ele>
        <time>2017-09-17T16:31:14Z</time>
      </trkpt>
      <trkpt lat="44.02238" lon="7.6635">
        <ele>1873</ele>
        <time>2017-09-17T16:31:15Z</time>
      </trkpt>
      <trkpt lat="44.02235" lon="7.66352">
        <ele>1874</ele>
        <time>2017-09-17T16:31:16Z</time>
      </trkpt>
      <trkpt lat="44.02233" lon="7.66354">
        <ele>1874</ele>
        <time>2017-09-17T16:31:17Z</time>
      </trkpt>
      <trkpt lat="44.02231" lon="7.66356">
        <ele>1875</ele>
        <time>2017-09-17T16:31:18Z</time>
      </trkpt>
      <trkpt lat="44.02229" lon="7.66358">
        <ele>1875</ele>
        <time>2017-09-17T16:31:19Z</time>
      </trkpt>
      <trkpt lat="44.02227" lon="7.6636">
        <ele>1876</ele>
        <time>2017-09-17T16:31:20Z</time>
      </trkpt>
      <trkpt lat="44.02225" lon="7.66362">
        <ele>1876</ele>
        <time>2017-09-17T16:31:21Z</time>
      </trkpt>
      <trkpt lat="44.02222" lon="7.66365">
        <ele>1877</ele>
        <time>2017-09-17T16:31:22Z</time>
      </trkpt>
      <trkpt lat="44.02221" lon="7.66368">
        <ele>1877</ele>
        <time>2017-09-17T16:31:23Z</time>
      </trkpt>
      <trkpt lat="44.02219" lon="7.66371">
        <ele>1877</ele>
        <time>2017-09-17T16:31:24Z</time>
      </trkpt>
      <trkpt lat="44.02217" lon="7.66374">
        <ele>1878</ele>
        <time>2017-09-17T16:31:25Z</time>
      </trkpt>
      <trkpt lat="44.02215" lon="7.66377">
        <ele>1878</ele>
        <time>2017-09-17T16:31:26Z</time>
      </trkpt>
      <trkpt lat="44.02213" lon="7.6638">
        <ele>1878</ele>
        <time>2017-09-17T16:31:27Z</time>
      </trkpt>
      <trkpt lat="44.02212" lon="7.66383">
        <ele>1879</ele>
        <time>2017-09-17T16:31:28Z</time>
      </trkpt>
      <trkpt lat="44.0221" lon="7.66386">
        <ele>1879</ele>
        <time>2017-09-17T16:31:29Z</time>
      </trkpt>
      <trkpt lat="44.02208" lon="7.6639">
        <ele>1880</ele>
        <time>2017-09-17T16:31:30Z</time>
      </trkpt>
      <trkpt lat="44.02206" lon="7.66393">
        <ele>1880</ele>
        <time>2017-09-17T16:31:31Z</time>
      </trkpt>
      <trkpt lat="44.02204" lon="7.66396">
        <ele>1880</ele>
        <time>2017-09-17T16:31:32Z</time>
      </trkpt>
      <trkpt lat="44.02202" lon="7.66399">
        <ele>1881</ele>
        <time>2017-09-17T16:31:33Z</time>
      </trkpt>
      <trkpt lat="44.02201" lon="7.66403">
        <ele>1881</ele>
        <time>2017-09-17T16:31:34Z</time>
      </trkpt>
      <trkpt lat="44.02199" lon="7.66406">
        <ele>1882</ele>
        <time>2017-09-17T16:31:35Z</time>
      </trkpt>
      <trkpt lat="44.02198" lon="7.66409">
        <ele>1882</ele>
        <time>2017-09-17T16:31:36Z</time>
      </trkpt>
      <trkpt lat="44.02197" lon="7.66413">
        <ele>1883</ele>
        <time>2017-09-17T16:31:37Z</time>
      </trkpt>
      <trkpt lat="44.02196" lon="7.66416">
        <ele>1883</ele>
        <time>2017-09-17T16:31:38Z</time>
      </trkpt>
      <trkpt lat="44.02195" lon="7.6642">
        <ele>1884</ele>
        <time>2017-09-17T16:31:39Z</time>
      </trkpt>
      <trkpt lat="44.02194" lon="7.66423">
        <ele>1884</ele>
        <time>2017-09-17T16:31:40Z</time>
      </trkpt>
      <trkpt lat="44.02193" lon="7.66426">
        <ele>1884</ele>
        <time>2017-09-17T16:31:41Z</time>
      </trkpt>
      <trkpt lat="44.02192" lon="7.6643">
        <ele>1885</ele>
        <time>2017-09-17T16:31:42Z</time>
      </trkpt>
      <trkpt lat="44.02191" lon="7.66434">
        <ele>1885</ele>
        <time>2017-09-17T16:31:43Z</time>
      </trkpt>
      <trkpt lat="44.0219" lon="7.66438">
        <ele>1886</ele>
        <time>2017-09-17T16:31:44Z</time>
      </trkpt>
      <trkpt lat="44.02188" lon="7.66441">
        <ele>1886</ele>
        <time>2017-09-17T16:31:45Z</time>
      </trkpt>
      <trkpt lat="44.02186" lon="7.66446">
        <ele>1886</ele>
        <time>2017-09-17T16:31:46Z</time>
      </trkpt>
      <trkpt lat="44.02185" lon="7.66449">
        <ele>1887</ele>
        <time>2017-09-17T16:31:47Z</time>
      </trkpt>
      <trkpt lat="44.02183" lon="7.66453">
        <ele>1887</ele>
        <time>2017-09-17T16:31:48Z</time>
      </trkpt>
      <trkpt lat="44.02181" lon="7.66457">
        <ele>1888</ele>
        <time>2017-09-17T16:31:49Z</time>
      </trkpt>
      <trkpt lat="44.02178" lon="7.6646">
        <ele>1888</ele>
        <time>2017-09-17T16:31:50Z</time>
      </trkpt>
      <trkpt lat="44.02176" lon="7.66464">
        <ele>1888</ele>
        <time>2017-09-17T16:31:51Z</time>
      </trkpt>
      <trkpt lat="44.02174" lon="7.66467">
        <ele>1888</ele>
        <time>2017-09-17T16:31:52Z</time>
      </trkpt>
      <trkpt lat="44.02172" lon="7.66471">
        <ele>1889</ele>
        <time>2017-09-17T16:31:53Z</time>
      </trkpt>
      <trkpt lat="44.02169" lon="7.66474">
        <ele>1889</ele>
        <time>2017-09-17T16:31:54Z</time>
      </trkpt>
      <trkpt lat="44.02166" lon="7.66477">
        <ele>1890</ele>
        <time>2017-09-17T16:31:55Z</time>
      </trkpt>
      <trkpt lat="44.02163" lon="7.66479">
        <ele>1890</ele>
        <time>2017-09-17T16:31:56Z</time>
      </trkpt>
      <trkpt lat="44.0216" lon="7.66481">
        <ele>1890</ele>
        <time>2017-09-17T16:31:57Z</time>
      </trkpt>
      <trkpt lat="44.02157" lon="7.66483">
        <ele>1891</ele>
        <time>2017-09-17T16:31:58Z</time>
      </trkpt>
      <trkpt lat="44.02154" lon="7.66485">
        <ele>1891</ele>
        <time>2017-09-17T16:31:59Z</time>
      </trkpt>
      <trkpt lat="44.02151" lon="7.66487">
        <ele>1891</ele>
        <time>2017-09-17T16:32:00Z</time>
      </trkpt>
      <trkpt lat="44.02148" lon="7.66488">
        <ele>1891</ele>
        <time>2017-09-17T16:32:01Z</time>
      </trkpt>
      <trkpt lat="44.02144" lon="7.66489">
        <ele>1892</ele>
        <time>2017-09-17T16:32:02Z</time>
      </trkpt>
      <trkpt lat="44.02141" lon="7.6649">
        <ele>1892</ele>
        <time>2017-09-17T16:32:03Z</time>
      </trkpt>
      <trkpt lat="44.02138" lon="7.66491">
        <ele>1892</ele>
        <time>2017-09-17T16:32:04Z</time>
      </trkpt>
      <trkpt lat="44.02134" lon="7.66492">
        <ele>1892</ele>
        <time>2017-09-17T16:32:05Z</time>
      </trkpt>
      <trkpt lat="44.02131" lon="7.66493">
        <ele>1893</ele>
        <time>2017-09-17T16:32:06Z</time>
      </trkpt>
      <trkpt lat="44.02128" lon="7.66493">
        <ele>1893</ele>
        <time>2017-09-17T16:32:07Z</time>
      </trkpt>
      <trkpt lat="44.02124" lon="7.66494">
        <ele>1893</ele>
        <time>2017-09-17T16:32:08Z</time>
      </trkpt>
      <trkpt lat="44.02121" lon="7.66493">
        <ele>1893</ele>
        <time>2017-09-17T16:32:09Z</time>
      </trkpt>
      <trkpt lat="44.02118" lon="7.66493">
        <ele>1893</ele>
        <time>2017-09-17T16:32:10Z</time>
      </trkpt>
      <trkpt lat="44.02115" lon="7.66493">
        <ele>1894</ele>
        <time>2017-09-17T16:32:11Z</time>
      </trkpt>
      <trkpt lat="44.02112" lon="7.66492">
        <ele>1894</ele>
        <time>2017-09-17T16:32:12Z</time>
      </trkpt>
      <trkpt lat="44.02109" lon="7.6649">
        <ele>1894</ele>
        <time>2017-09-17T16:32:13Z</time>
      </trkpt>
      <trkpt lat="44.02106" lon="7.66488">
        <ele>1894</ele>
        <time>2017-09-17T16:32:14Z</time>
      </trkpt>
      <trkpt lat="44.02103" lon="7.66485">
        <ele>1894</ele>
        <time>2017-09-17T16:32:15Z</time>
      </trkpt>
      <trkpt lat="44.021" lon="7.66483">
        <ele>1894</ele>
        <time>2017-09-17T16:32:16Z</time>
      </trkpt>
      <trkpt lat="44.02098" lon="7.66481">
        <ele>1895</ele>
        <time>2017-09-17T16:32:17Z</time>
      </trkpt>
      <trkpt lat="44.02096" lon="7.66478">
        <ele>1895</ele>
        <time>2017-09-17T16:32:18Z</time>
      </trkpt>
      <trkpt lat="44.02093" lon="7.66476">
        <ele>1895</ele>
        <time>2017-09-17T16:32:19Z</time>
      </trkpt>
      <trkpt lat="44.02091" lon="7.66474">
        <ele>1895</ele>
        <time>2017-09-17T16:32:20Z</time>
      </trkpt>
      <trkpt lat="44.02088" lon="7.66472">
        <ele>1895</ele>
        <time>2017-09-17T16:32:21Z</time>
      </trkpt>
      <trkpt lat="44.02085" lon="7.66471">
        <ele>1896</ele>
        <time>2017-09-17T16:32:22Z</time>
      </trkpt>
      <trkpt lat="44.02082" lon="7.6647">
        <ele>1896</ele>
        <time>2017-09-17T16:32:23Z</time>
      </trkpt>
      <trkpt lat="44.02078" lon="7.66469">
        <ele>1896</ele>
        <time>2017-09-17T16:32:24Z</time>
      </trkpt>
      <trkpt lat="44.02075" lon="7.66468">
        <ele>1897</ele>
        <time>2017-09-17T16:32:25Z</time>
      </trkpt>
      <trkpt lat="44.02072" lon="7.66468">
        <ele>1897</ele>
        <time>2017-09-17T16:32:26Z</time>
      </trkpt>
      <trkpt lat="44.02069" lon="7.66468">
        <ele>1897</ele>
        <time>2017-09-17T16:32:27Z</time>
      </trkpt>
      <trkpt lat="44.02066" lon="7.66468">
        <ele>1897</ele>
        <time>2017-09-17T16:32:28Z</time>
      </trkpt>
      <trkpt lat="44.02063" lon="7.66466">
        <ele>1898</ele>
        <time>2017-09-17T16:32:29Z</time>
      </trkpt>
      <trkpt lat="44.0206" lon="7.66465">
        <ele>1898</ele>
        <time>2017-09-17T16:32:30Z</time>
      </trkpt>
      <trkpt lat="44.02057" lon="7.66463">
        <ele>1899</ele>
        <time>2017-09-17T16:32:31Z</time>
      </trkpt>
      <trkpt lat="44.02054" lon="7.66462">
        <ele>1899</ele>
        <time>2017-09-17T16:32:32Z</time>
      </trkpt>
      <trkpt lat="44.02052" lon="7.66461">
        <ele>1899</ele>
        <time>2017-09-17T16:32:33Z</time>
      </trkpt>
      <trkpt lat="44.02049" lon="7.66459">
        <ele>1900</ele>
        <time>2017-09-17T16:32:34Z</time>
      </trkpt>
      <trkpt lat="44.02047" lon="7.66458">
        <ele>1900</ele>
        <time>2017-09-17T16:32:35Z</time>
      </trkpt>
      <trkpt lat="44.02044" lon="7.66455">
        <ele>1901</ele>
        <time>2017-09-17T16:32:36Z</time>
      </trkpt>
      <trkpt lat="44.02042" lon="7.66453">
        <ele>1901</ele>
        <time>2017-09-17T16:32:37Z</time>
      </trkpt>
      <trkpt lat="44.0204" lon="7.66451">
        <ele>1901</ele>
        <time>2017-09-17T16:32:38Z</time>
      </trkpt>
      <trkpt lat="44.02037" lon="7.66448">
        <ele>1901</ele>
        <time>2017-09-17T16:32:39Z</time>
      </trkpt>
      <trkpt lat="44.02035" lon="7.66446">
        <ele>1902</ele>
        <time>2017-09-17T16:32:40Z</time>
      </trkpt>
      <trkpt lat="44.02033" lon="7.66444">
        <ele>1902</ele>
        <time>2017-09-17T16:32:41Z</time>
      </trkpt>
      <trkpt lat="44.0203" lon="7.66441">
        <ele>1902</ele>
        <time>2017-09-17T16:32:42Z</time>
      </trkpt>
      <trkpt lat="44.02028" lon="7.66439">
        <ele>1902</ele>
        <time>2017-09-17T16:32:43Z</time>
      </trkpt>
      <trkpt lat="44.02026" lon="7.66437">
        <ele>1903</ele>
        <time>2017-09-17T16:32:44Z</time>
      </trkpt>
      <trkpt lat="44.02023" lon="7.66435">
        <ele>1903</ele>
        <time>2017-09-17T16:32:45Z</time>
      </trkpt>
      <trkpt lat="44.02021" lon="7.66433">
        <ele>1903</ele>
        <time>2017-09-17T16:32:46Z</time>
      </trkpt>
      <trkpt lat="44.02018" lon="7.66431">
        <ele>1903</ele>
        <time>2017-09-17T16:32:47Z</time>
      </trkpt>
      <trkpt lat="44.02016" lon="7.66429">
        <ele>1903</ele>
        <time>2017-09-17T16:32:48Z</time>
      </trkpt>
      <trkpt lat="44.02013" lon="7.66427">
        <ele>1904</ele>
        <time>2017-09-17T16:32:49Z</time>
      </trkpt>
      <trkpt lat="44.02011" lon="7.66425">
        <ele>1904</ele>
        <time>2017-09-17T16:32:50Z</time>
      </trkpt>
      <trkpt lat="44.02008" lon="7.66424">
        <ele>1904</ele>
        <time>2017-09-17T16:32:51Z</time>
      </trkpt>
      <trkpt lat="44.02006" lon="7.66422">
        <ele>1904</ele>
        <time>2017-09-17T16:32:52Z</time>
      </trkpt>
      <trkpt lat="44.02003" lon="7.6642">
        <ele>1904</ele>
        <time>2017-09-17T16:32:53Z</time>
      </trkpt>
      <trkpt lat="44.02" lon="7.66419">
        <ele>1904</ele>
        <time>2017-09-17T16:32:54Z</time>
      </trkpt>
      <trkpt lat="44.01998" lon="7.66417">
        <ele>1905</ele>
        <time>2017-09-17T16:32:55Z</time>
      </trkpt>
      <trkpt lat="44.01995" lon="7.66415">
        <ele>1905</ele>
        <time>2017-09-17T16:32:56Z</time>
      </trkpt>
      <trkpt lat="44.01992" lon="7.66414">
        <ele>1905</ele>
        <time>2017-09-17T16:32:57Z</time>
      </trkpt>
      <trkpt lat="44.0199" lon="7.66412">
        <ele>1905</ele>
        <time>2017-09-17T16:32:58Z</time>
      </trkpt>
      <trkpt lat="44.01987" lon="7.6641">
        <ele>1906</ele>
        <time>2017-09-17T16:32:59Z</time>
      </trkpt>
      <trkpt lat="44.01984" lon="7.66408">
        <ele>1906</ele>
        <time>2017-09-17T16:33:00Z</time>
      </trkpt>
      <trkpt lat="44.01982" lon="7.66406">
        <ele>1906</ele>
        <time>2017-09-17T16:33:01Z</time>
      </trkpt>
      <trkpt lat="44.01979" lon="7.66404">
        <ele>1906</ele>
        <time>2017-09-17T16:33:02Z</time>
      </trkpt>
      <trkpt lat="44.01977" lon="7.66402">
        <ele>1907</ele>
        <time>2017-09-17T16:33:03Z</time>
      </trkpt>
      <trkpt lat="44.01974" lon="7.664">
        <ele>1907</ele>
        <time>2017-09-17T16:33:04Z</time>
      </trkpt>
      <trkpt lat="44.01971" lon="7.66398">
        <ele>1907</ele>
        <time>2017-09-17T16:33:05Z</time>
      </trkpt>
      <trkpt lat="44.01969" lon="7.66396">
        <ele>1907</ele>
        <time>2017-09-17T16:33:06Z</time>
      </trkpt>
      <trkpt lat="44.01966" lon="7.66394">
        <ele>1907</ele>
        <time>2017-09-17T16:33:07Z</time>
      </trkpt>
      <trkpt lat="44.01964" lon="7.66391">
        <ele>1908</ele>
        <time>2017-09-17T16:33:08Z</time>
      </trkpt>
      <trkpt lat="44.01962" lon="7.66389">
        <ele>1908</ele>
        <time>2017-09-17T16:33:09Z</time>
      </trkpt>
      <trkpt lat="44.01959" lon="7.66387">
        <ele>1908</ele>
        <time>2017-09-17T16:33:10Z</time>
      </trkpt>
      <trkpt lat="44.01957" lon="7.66384">
        <ele>1908</ele>
        <time>2017-09-17T16:33:11Z</time>
      </trkpt>
      <trkpt lat="44.01954" lon="7.66382">
        <ele>1909</ele>
        <time>2017-09-17T16:33:12Z</time>
      </trkpt>
      <trkpt lat="44.01952" lon="7.6638">
        <ele>1909</ele>
        <time>2017-09-17T16:33:13Z</time>
      </trkpt>
      <trkpt lat="44.01949" lon="7.66377">
        <ele>1909</ele>
        <time>2017-09-17T16:33:14Z</time>
      </trkpt>
      <trkpt lat="44.01947" lon="7.66375">
        <ele>1909</ele>
        <time>2017-09-17T16:33:15Z</time>
      </trkpt>
      <trkpt lat="44.01945" lon="7.66373">
        <ele>1910</ele>
        <time>2017-09-17T16:33:16Z</time>
      </trkpt>
      <trkpt lat="44.01943" lon="7.66371">
        <ele>1910</ele>
        <time>2017-09-17T16:33:17Z</time>
      </trkpt>
      <trkpt lat="44.0194" lon="7.66368">
        <ele>1910</ele>
        <time>2017-09-17T16:33:18Z</time>
      </trkpt>
      <trkpt lat="44.01938" lon="7.66366">
        <ele>1911</ele>
        <time>2017-09-17T16:33:19Z</time>
      </trkpt>
      <trkpt lat="44.01935" lon="7.66364">
        <ele>1911</ele>
        <time>2017-09-17T16:33:20Z</time>
      </trkpt>
      <trkpt lat="44.01933" lon="7.66362">
        <ele>1911</ele>
        <time>2017-09-17T16:33:21Z</time>
      </trkpt>
      <trkpt lat="44.01931" lon="7.6636">
        <ele>1911</ele>
        <time>2017-09-17T16:33:22Z</time>
      </trkpt>
      <trkpt lat="44.01929" lon="7.66358">
        <ele>1912</ele>
        <time>2017-09-17T16:33:23Z</time>
      </trkpt>
      <trkpt lat="44.01926" lon="7.66356">
        <ele>1912</ele>
        <time>2017-09-17T16:33:24Z</time>
      </trkpt>
      <trkpt lat="44.01923" lon="7.66353">
        <ele>1912</ele>
        <time>2017-09-17T16:33:25Z</time>
      </trkpt>
      <trkpt lat="44.01921" lon="7.66352">
        <ele>1912</ele>
        <time>2017-09-17T16:33:26Z</time>
      </trkpt>
      <trkpt lat="44.01918" lon="7.6635">
        <ele>1913</ele>
        <time>2017-09-17T16:33:27Z</time>
      </trkpt>
      <trkpt lat="44.01915" lon="7.66349">
        <ele>1913</ele>
        <time>2017-09-17T16:33:28Z</time>
      </trkpt>
      <trkpt lat="44.01912" lon="7.66348">
        <ele>1913</ele>
        <time>2017-09-17T16:33:29Z</time>
      </trkpt>
      <trkpt lat="44.01909" lon="7.66347">
        <ele>1913</ele>
        <time>2017-09-17T16:33:30Z</time>
      </trkpt>
      <trkpt lat="44.01906" lon="7.66347">
        <ele>1914</ele>
        <time>2017-09-17T16:33:31Z</time>
      </trkpt>
      <trkpt lat="44.01904" lon="7.66345">
        <ele>1914</ele>
        <time>2017-09-17T16:33:32Z</time>
      </trkpt>
      <trkpt lat="44.01901" lon="7.66344">
        <ele>1914</ele>
        <time>2017-09-17T16:33:33Z</time>
      </trkpt>
      <trkpt lat="44.01898" lon="7.66343">
        <ele>1915</ele>
        <time>2017-09-17T16:33:34Z</time>
      </trkpt>
      <trkpt lat="44.01895" lon="7.66341">
        <ele>1915</ele>
        <time>2017-09-17T16:33:35Z</time>
      </trkpt>
      <trkpt lat="44.01892" lon="7.6634">
        <ele>1915</ele>
        <time>2017-09-17T16:33:36Z</time>
      </trkpt>
      <trkpt lat="44.0189" lon="7.66338">
        <ele>1916</ele>
        <time>2017-09-17T16:33:37Z</time>
      </trkpt>
      <trkpt lat="44.01887" lon="7.66337">
        <ele>1916</ele>
        <time>2017-09-17T16:33:38Z</time>
      </trkpt>
      <trkpt lat="44.01885" lon="7.66335">
        <ele>1917</ele>
        <time>2017-09-17T16:33:39Z</time>
      </trkpt>
      <trkpt lat="44.01882" lon="7.66333">
        <ele>1917</ele>
        <time>2017-09-17T16:33:40Z</time>
      </trkpt>
      <trkpt lat="44.0188" lon="7.66331">
        <ele>1917</ele>
        <time>2017-09-17T16:33:41Z</time>
      </trkpt>
      <trkpt lat="44.01877" lon="7.66329">
        <ele>1918</ele>
        <time>2017-09-17T16:33:42Z</time>
      </trkpt>
      <trkpt lat="44.01875" lon="7.66328">
        <ele>1918</ele>
        <time>2017-09-17T16:33:43Z</time>
      </trkpt>
      <trkpt lat="44.01872" lon="7.66326">
        <ele>1918</ele>
        <time>2017-09-17T16:33:44Z</time>
      </trkpt>
      <trkpt lat="44.0187" lon="7.66325">
        <ele>1919</ele>
        <time>2017-09-17T16:33:45Z</time>
      </trkpt>
      <trkpt lat="44.01868" lon="7.66323">
        <ele>1919</ele>
        <time>2017-09-17T16:33:46Z</time>
      </trkpt>
      <trkpt lat="44.01866" lon="7.66322">
        <ele>1920</ele>
        <time>2017-09-17T16:33:47Z</time>
      </trkpt>
      <trkpt lat="44.01864" lon="7.66321">
        <ele>1920</ele>
        <time>2017-09-17T16:33:48Z</time>
      </trkpt>
      <trkpt lat="44.01861" lon="7.66319">
        <ele>1920</ele>
        <time>2017-09-17T16:33:49Z</time>
      </trkpt>
      <trkpt lat="44.01859" lon="7.66317">
        <ele>1921</ele>
        <time>2017-09-17T16:33:50Z</time>
      </trkpt>
      <trkpt lat="44.01856" lon="7.66315">
        <ele>1921</ele>
        <time>2017-09-17T16:33:51Z</time>
      </trkpt>
      <trkpt lat="44.01853" lon="7.66313">
        <ele>1922</ele>
        <time>2017-09-17T16:33:52Z</time>
      </trkpt>
      <trkpt lat="44.01851" lon="7.66311">
        <ele>1922</ele>
        <time>2017-09-17T16:33:53Z</time>
      </trkpt>
      <trkpt lat="44.01848" lon="7.66309">
        <ele>1923</ele>
        <time>2017-09-17T16:33:54Z</time>
      </trkpt>
      <trkpt lat="44.01845" lon="7.66307">
        <ele>1923</ele>
        <time>2017-09-17T16:33:55Z</time>
      </trkpt>
      <trkpt lat="44.01842" lon="7.66305">
        <ele>1924</ele>
        <time>2017-09-17T16:33:56Z</time>
      </trkpt>
      <trkpt lat="44.01839" lon="7.66303">
        <ele>1924</ele>
        <time>2017-09-17T16:33:57Z</time>
      </trkpt>
      <trkpt lat="44.01836" lon="7.663">
        <ele>1925</ele>
        <time>2017-09-17T16:33:58Z</time>
      </trkpt>
      <trkpt lat="44.01833" lon="7.66298">
        <ele>1925</ele>
        <time>2017-09-17T16:33:59Z</time>
      </trkpt>
      <trkpt lat="44.01831" lon="7.66296">
        <ele>1925</ele>
        <time>2017-09-17T16:34:00Z</time>
      </trkpt>
      <trkpt lat="44.01828" lon="7.66294">
        <ele>1926</ele>
        <time>2017-09-17T16:34:01Z</time>
      </trkpt>
      <trkpt lat="44.01826" lon="7.66291">
        <ele>1926</ele>
        <time>2017-09-17T16:34:02Z</time>
      </trkpt>
      <trkpt lat="44.01823" lon="7.66289">
        <ele>1926</ele>
        <time>2017-09-17T16:34:03Z</time>
      </trkpt>
      <trkpt lat="44.01821" lon="7.66287">
        <ele>1927</ele>
        <time>2017-09-17T16:34:04Z</time>
      </trkpt>
      <trkpt lat="44.01818" lon="7.66284">
        <ele>1927</ele>
        <time>2017-09-17T16:34:05Z</time>
      </trkpt>
      <trkpt lat="44.01816" lon="7.66281">
        <ele>1927</ele>
        <time>2017-09-17T16:34:06Z</time>
      </trkpt>
      <trkpt lat="44.01813" lon="7.66279">
        <ele>1928</ele>
        <time>2017-09-17T16:34:07Z</time>
      </trkpt>
      <trkpt lat="44.01811" lon="7.66276">
        <ele>1928</ele>
        <time>2017-09-17T16:34:08Z</time>
      </trkpt>
      <trkpt lat="44.01809" lon="7.66273">
        <ele>1928</ele>
        <time>2017-09-17T16:34:09Z</time>
      </trkpt>
      <trkpt lat="44.01807" lon="7.6627">
        <ele>1928</ele>
        <time>2017-09-17T16:34:10Z</time>
      </trkpt>
      <trkpt lat="44.01805" lon="7.66267">
        <ele>1928</ele>
        <time>2017-09-17T16:34:11Z</time>
      </trkpt>
      <trkpt lat="44.01803" lon="7.66263">
        <ele>1929</ele>
        <time>2017-09-17T16:34:12Z</time>
      </trkpt>
      <trkpt lat="44.01801" lon="7.6626">
        <ele>1929</ele>
        <time>2017-09-17T16:34:13Z</time>
      </trkpt>
      <trkpt lat="44.01798" lon="7.66257">
        <ele>1929</ele>
        <time>2017-09-17T16:34:14Z</time>
      </trkpt>
      <trkpt lat="44.01796" lon="7.66255">
        <ele>1928</ele>
        <time>2017-09-17T16:34:15Z</time>
      </trkpt>
      <trkpt lat="44.01793" lon="7.66253">
        <ele>1928</ele>
        <time>2017-09-17T16:34:16Z</time>
      </trkpt>
      <trkpt lat="44.0179" lon="7.66252">
        <ele>1928</ele>
        <time>2017-09-17T16:34:17Z</time>
      </trkpt>
      <trkpt lat="44.01787" lon="7.66251">
        <ele>1928</ele>
        <time>2017-09-17T16:34:18Z</time>
      </trkpt>
      <trkpt lat="44.01783" lon="7.66251">
        <ele>1928</ele>
        <time>2017-09-17T16:34:19Z</time>
      </trkpt>
      <trkpt lat="44.0178" lon="7.66251">
        <ele>1928</ele>
        <time>2017-09-17T16:34:20Z</time>
      </trkpt>
      <trkpt lat="44.01777" lon="7.66252">
        <ele>1928</ele>
        <time>2017-09-17T16:34:21Z</time>
      </trkpt>
      <trkpt lat="44.01775" lon="7.66253">
        <ele>1928</ele>
        <time>2017-09-17T16:34:22Z</time>
      </trkpt>
      <trkpt lat="44.01772" lon="7.66254">
        <ele>1928</ele>
        <time>2017-09-17T16:34:23Z</time>
      </trkpt>
      <trkpt lat="44.01769" lon="7.66254">
        <ele>1928</ele>
        <time>2017-09-17T16:34:24Z</time>
      </trkpt>
      <trkpt lat="44.01767" lon="7.66255">
        <ele>1928</ele>
        <time>2017-09-17T16:34:25Z</time>
      </trkpt>
      <trkpt lat="44.01764" lon="7.66256">
        <ele>1928</ele>
        <time>2017-09-17T16:34:26Z</time>
      </trkpt>
      <trkpt lat="44.01762" lon="7.66257">
        <ele>1928</ele>
        <time>2017-09-17T16:34:27Z</time>
      </trkpt>
      <trkpt lat="44.01759" lon="7.66257">
        <ele>1928</ele>
        <time>2017-09-17T16:34:28Z</time>
      </trkpt>
      <trkpt lat="44.01756" lon="7.66258">
        <ele>1928</ele>
        <time>2017-09-17T16:34:29Z</time>
      </trkpt>
      <trkpt lat="44.01753" lon="7.66259">
        <ele>1928</ele>
        <time>2017-09-17T16:34:30Z</time>
      </trkpt>
      <trkpt lat="44.0175" lon="7.6626">
        <ele>1928</ele>
        <time>2017-09-17T16:34:31Z</time>
      </trkpt>
      <trkpt lat="44.01748" lon="7.66261">
        <ele>1928</ele>
        <time>2017-09-17T16:34:32Z</time>
      </trkpt>
      <trkpt lat="44.01745" lon="7.66262">
        <ele>1928</ele>
        <time>2017-09-17T16:34:33Z</time>
      </trkpt>
      <trkpt lat="44.01742" lon="7.66263">
        <ele>1928</ele>
        <time>2017-09-17T16:34:34Z</time>
      </trkpt>
      <trkpt lat="44.01739" lon="7.66264">
        <ele>1928</ele>
        <time>2017-09-17T16:34:35Z</time>
      </trkpt>
      <trkpt lat="44.01737" lon="7.66266">
        <ele>1929</ele>
        <time>2017-09-17T16:34:36Z</time>
      </trkpt>
      <trkpt lat="44.01734" lon="7.66267">
        <ele>1929</ele>
        <time>2017-09-17T16:34:37Z</time>
      </trkpt>
      <trkpt lat="44.01732" lon="7.66268">
        <ele>1929</ele>
        <time>2017-09-17T16:34:38Z</time>
      </trkpt>
      <trkpt lat="44.0173" lon="7.66268">
        <ele>1929</ele>
        <time>2017-09-17T16:34:39Z</time>
      </trkpt>
      <trkpt lat="44.01727" lon="7.66268">
        <ele>1929</ele>
        <time>2017-09-17T16:34:40Z</time>
      </trkpt>
      <trkpt lat="44.01725" lon="7.66269">
        <ele>1929</ele>
        <time>2017-09-17T16:34:41Z</time>
      </trkpt>
      <trkpt lat="44.01722" lon="7.66271">
        <ele>1929</ele>
        <time>2017-09-17T16:34:42Z</time>
      </trkpt>
      <trkpt lat="44.0172" lon="7.66272">
        <ele>1930</ele>
        <time>2017-09-17T16:34:43Z</time>
      </trkpt>
      <trkpt lat="44.01717" lon="7.66274">
        <ele>1930</ele>
        <time>2017-09-17T16:34:44Z</time>
      </trkpt>
      <trkpt lat="44.01715" lon="7.66275">
        <ele>1930</ele>
        <time>2017-09-17T16:34:45Z</time>
      </trkpt>
      <trkpt lat="44.01713" lon="7.66277">
        <ele>1930</ele>
        <time>2017-09-17T16:34:46Z</time>
      </trkpt>
      <trkpt lat="44.01711" lon="7.66279">
        <ele>1931</ele>
        <time>2017-09-17T16:34:47Z</time>
      </trkpt>
      <trkpt lat="44.01709" lon="7.66281">
        <ele>1931</ele>
        <time>2017-09-17T16:34:48Z</time>
      </trkpt>
      <trkpt lat="44.01707" lon="7.66284">
        <ele>1931</ele>
        <time>2017-09-17T16:34:49Z</time>
      </trkpt>
      <trkpt lat="44.01705" lon="7.66286">
        <ele>1931</ele>
        <time>2017-09-17T16:34:50Z</time>
      </trkpt>
      <trkpt lat="44.01702" lon="7.66288">
        <ele>1932</ele>
        <time>2017-09-17T16:34:51Z</time>
      </trkpt>
      <trkpt lat="44.017" lon="7.6629">
        <ele>1932</ele>
        <time>2017-09-17T16:34:52Z</time>
      </trkpt>
      <trkpt lat="44.01698" lon="7.66292">
        <ele>1932</ele>
        <time>2017-09-17T16:34:53Z</time>
      </trkpt>
      <trkpt lat="44.01696" lon="7.66294">
        <ele>1932</ele>
        <time>2017-09-17T16:34:54Z</time>
      </trkpt>
      <trkpt lat="44.01693" lon="7.66296">
        <ele>1933</ele>
        <time>2017-09-17T16:34:55Z</time>
      </trkpt>
      <trkpt lat="44.0169" lon="7.66297">
        <ele>1933</ele>
        <time>2017-09-17T16:34:56Z</time>
      </trkpt>
      <trkpt lat="44.01687" lon="7.66298">
        <ele>1933</ele>
        <time>2017-09-17T16:34:57Z</time>
      </trkpt>
      <trkpt lat="44.01685" lon="7.66298">
        <ele>1934</ele>
        <time>2017-09-17T16:34:58Z</time>
      </trkpt>
      <trkpt lat="44.01682" lon="7.66299">
        <ele>1934</ele>
        <time>2017-09-17T16:34:59Z</time>
      </trkpt>
      <trkpt lat="44.01679" lon="7.663">
        <ele>1934</ele>
        <time>2017-09-17T16:35:00Z</time>
      </trkpt>
      <trkpt lat="44.01676" lon="7.66301">
        <ele>1934</ele>
        <time>2017-09-17T16:35:01Z</time>
      </trkpt>
      <trkpt lat="44.01673" lon="7.66302">
        <ele>1935</ele>
        <time>2017-09-17T16:35:02Z</time>
      </trkpt>
      <trkpt lat="44.0167" lon="7.66303">
        <ele>1935</ele>
        <time>2017-09-17T16:35:03Z</time>
      </trkpt>
      <trkpt lat="44.01667" lon="7.66304">
        <ele>1935</ele>
        <time>2017-09-17T16:35:04Z</time>
      </trkpt>
      <trkpt lat="44.01664" lon="7.66304">
        <ele>1936</ele>
        <time>2017-09-17T16:35:05Z</time>
      </trkpt>
      <trkpt lat="44.01662" lon="7.66305">
        <ele>1936</ele>
        <time>2017-09-17T16:35:06Z</time>
      </trkpt>
      <trkpt lat="44.01659" lon="7.66305">
        <ele>1936</ele>
        <time>2017-09-17T16:35:07Z</time>
      </trkpt>
      <trkpt lat="44.01656" lon="7.66306">
        <ele>1937</ele>
        <time>2017-09-17T16:35:08Z</time>
      </trkpt>
      <trkpt lat="44.01653" lon="7.66307">
        <ele>1937</ele>
        <time>2017-09-17T16:35:09Z</time>
      </trkpt>
      <trkpt lat="44.0165" lon="7.66307">
        <ele>1937</ele>
        <time>2017-09-17T16:35:10Z</time>
      </trkpt>
      <trkpt lat="44.01648" lon="7.66308">
        <ele>1938</ele>
        <time>2017-09-17T16:35:11Z</time>
      </trkpt>
      <trkpt lat="44.01645" lon="7.66309">
        <ele>1938</ele>
        <time>2017-09-17T16:35:12Z</time>
      </trkpt>
      <trkpt lat="44.01642" lon="7.6631">
        <ele>1938</ele>
        <time>2017-09-17T16:35:13Z</time>
      </trkpt>
      <trkpt lat="44.01639" lon="7.66311">
        <ele>1938</ele>
        <time>2017-09-17T16:35:14Z</time>
      </trkpt>
      <trkpt lat="44.01637" lon="7.66311">
        <ele>1939</ele>
        <time>2017-09-17T16:35:15Z</time>
      </trkpt>
      <trkpt lat="44.01634" lon="7.66312">
        <ele>1939</ele>
        <time>2017-09-17T16:35:16Z</time>
      </trkpt>
      <trkpt lat="44.01631" lon="7.66312">
        <ele>1939</ele>
        <time>2017-09-17T16:35:17Z</time>
      </trkpt>
      <trkpt lat="44.01628" lon="7.66312">
        <ele>1940</ele>
        <time>2017-09-17T16:35:18Z</time>
      </trkpt>
      <trkpt lat="44.01625" lon="7.66312">
        <ele>1940</ele>
        <time>2017-09-17T16:35:19Z</time>
      </trkpt>
      <trkpt lat="44.01622" lon="7.66312">
        <ele>1940</ele>
        <time>2017-09-17T16:35:20Z</time>
      </trkpt>
      <trkpt lat="44.0162" lon="7.66312">
        <ele>1941</ele>
        <time>2017-09-17T16:35:21Z</time>
      </trkpt>
      <trkpt lat="44.01617" lon="7.66312">
        <ele>1941</ele>
        <time>2017-09-17T16:35:22Z</time>
      </trkpt>
      <trkpt lat="44.01614" lon="7.66312">
        <ele>1941</ele>
        <time>2017-09-17T16:35:23Z</time>
      </trkpt>
      <trkpt lat="44.01611" lon="7.66312">
        <ele>1941</ele>
        <time>2017-09-17T16:35:24Z</time>
      </trkpt>
      <trkpt lat="44.01608" lon="7.66312">
        <ele>1942</ele>
        <time>2017-09-17T16:35:25Z</time>
      </trkpt>
      <trkpt lat="44.01605" lon="7.66312">
        <ele>1942</ele>
        <time>2017-09-17T16:35:26Z</time>
      </trkpt>
      <trkpt lat="44.01603" lon="7.66312">
        <ele>1942</ele>
        <time>2017-09-17T16:35:27Z</time>
      </trkpt>
      <trkpt lat="44.016" lon="7.66312">
        <ele>1942</ele>
        <time>2017-09-17T16:35:28Z</time>
      </trkpt>
      <trkpt lat="44.01597" lon="7.66312">
        <ele>1943</ele>
        <time>2017-09-17T16:35:29Z</time>
      </trkpt>
      <trkpt lat="44.01594" lon="7.66312">
        <ele>1943</ele>
        <time>2017-09-17T16:35:30Z</time>
      </trkpt>
      <trkpt lat="44.01591" lon="7.66312">
        <ele>1943</ele>
        <time>2017-09-17T16:35:31Z</time>
      </trkpt>
      <trkpt lat="44.01589" lon="7.66312">
        <ele>1943</ele>
        <time>2017-09-17T16:35:32Z</time>
      </trkpt>
      <trkpt lat="44.01586" lon="7.66312">
        <ele>1943</ele>
        <time>2017-09-17T16:35:33Z</time>
      </trkpt>
      <trkpt lat="44.01583" lon="7.66312">
        <ele>1943</ele>
        <time>2017-09-17T16:35:34Z</time>
      </trkpt>
      <trkpt lat="44.01581" lon="7.66312">
        <ele>1944</ele>
        <time>2017-09-17T16:35:35Z</time>
      </trkpt>
      <trkpt lat="44.01578" lon="7.66312">
        <ele>1944</ele>
        <time>2017-09-17T16:35:36Z</time>
      </trkpt>
      <trkpt lat="44.01575" lon="7.66312">
        <ele>1944</ele>
        <time>2017-09-17T16:35:37Z</time>
      </trkpt>
      <trkpt lat="44.01572" lon="7.66313">
        <ele>1944</ele>
        <time>2017-09-17T16:35:38Z</time>
      </trkpt>
      <trkpt lat="44.01569" lon="7.66313">
        <ele>1945</ele>
        <time>2017-09-17T16:35:39Z</time>
      </trkpt>
      <trkpt lat="44.01567" lon="7.66314">
        <ele>1945</ele>
        <time>2017-09-17T16:35:40Z</time>
      </trkpt>
      <trkpt lat="44.01564" lon="7.66315">
        <ele>1945</ele>
        <time>2017-09-17T16:35:41Z</time>
      </trkpt>
      <trkpt lat="44.01561" lon="7.66316">
        <ele>1945</ele>
        <time>2017-09-17T16:35:42Z</time>
      </trkpt>
      <trkpt lat="44.01558" lon="7.66317">
        <ele>1946</ele>
        <time>2017-09-17T16:35:43Z</time>
      </trkpt>
      <trkpt lat="44.01555" lon="7.66318">
        <ele>1946</ele>
        <time>2017-09-17T16:35:44Z</time>
      </trkpt>
      <trkpt lat="44.01552" lon="7.66319">
        <ele>1946</ele>
        <time>2017-09-17T16:35:45Z</time>
      </trkpt>
      <trkpt lat="44.01549" lon="7.6632">
        <ele>1946</ele>
        <time>2017-09-17T16:35:46Z</time>
      </trkpt>
      <trkpt lat="44.01546" lon="7.66322">
        <ele>1947</ele>
        <time>2017-09-17T16:35:47Z</time>
      </trkpt>
      <trkpt lat="44.01544" lon="7.66323">
        <ele>1947</ele>
        <time>2017-09-17T16:35:48Z</time>
      </trkpt>
      <trkpt lat="44.01541" lon="7.66324">
        <ele>1947</ele>
        <time>2017-09-17T16:35:49Z</time>
      </trkpt>
      <trkpt lat="44.01539" lon="7.66325">
        <ele>1947</ele>
        <time>2017-09-17T16:35:50Z</time>
      </trkpt>
      <trkpt lat="44.01536" lon="7.66327">
        <ele>1947</ele>
        <time>2017-09-17T16:35:51Z</time>
      </trkpt>
      <trkpt lat="44.01533" lon="7.66328">
        <ele>1948</ele>
        <time>2017-09-17T16:35:52Z</time>
      </trkpt>
      <trkpt lat="44.01531" lon="7.66329">
        <ele>1948</ele>
        <time>2017-09-17T16:35:53Z</time>
      </trkpt>
      <trkpt lat="44.01528" lon="7.6633">
        <ele>1948</ele>
        <time>2017-09-17T16:35:54Z</time>
      </trkpt>
      <trkpt lat="44.01525" lon="7.66331">
        <ele>1948</ele>
        <time>2017-09-17T16:35:55Z</time>
      </trkpt>
      <trkpt lat="44.01522" lon="7.66333">
        <ele>1948</ele>
        <time>2017-09-17T16:35:56Z</time>
      </trkpt>
      <trkpt lat="44.01519" lon="7.66335">
        <ele>1949</ele>
        <time>2017-09-17T16:35:57Z</time>
      </trkpt>
      <trkpt lat="44.01517" lon="7.66338">
        <ele>1949</ele>
        <time>2017-09-17T16:35:58Z</time>
      </trkpt>
      <trkpt lat="44.01515" lon="7.6634">
        <ele>1949</ele>
        <time>2017-09-17T16:35:59Z</time>
      </trkpt>
      <trkpt lat="44.01513" lon="7.66344">
        <ele>1949</ele>
        <time>2017-09-17T16:36:00Z</time>
      </trkpt>
      <trkpt lat="44.01511" lon="7.66347">
        <ele>1950</ele>
        <time>2017-09-17T16:36:01Z</time>
      </trkpt>
      <trkpt lat="44.0151" lon="7.6635">
        <ele>1950</ele>
        <time>2017-09-17T16:36:02Z</time>
      </trkpt>
      <trkpt lat="44.01509" lon="7.66353">
        <ele>1950</ele>
        <time>2017-09-17T16:36:03Z</time>
      </trkpt>
      <trkpt lat="44.01507" lon="7.66356">
        <ele>1950</ele>
        <time>2017-09-17T16:36:04Z</time>
      </trkpt>
      <trkpt lat="44.01506" lon="7.66358">
        <ele>1950</ele>
        <time>2017-09-17T16:36:05Z</time>
      </trkpt>
      <trkpt lat="44.01504" lon="7.66361">
        <ele>1950</ele>
        <time>2017-09-17T16:36:06Z</time>
      </trkpt>
      <trkpt lat="44.01502" lon="7.66364">
        <ele>1951</ele>
        <time>2017-09-17T16:36:07Z</time>
      </trkpt>
      <trkpt lat="44.015" lon="7.66366">
        <ele>1951</ele>
        <time>2017-09-17T16:36:08Z</time>
      </trkpt>
      <trkpt lat="44.01498" lon="7.66368">
        <ele>1951</ele>
        <time>2017-09-17T16:36:09Z</time>
      </trkpt>
      <trkpt lat="44.01496" lon="7.66369">
        <ele>1951</ele>
        <time>2017-09-17T16:36:10Z</time>
      </trkpt>
      <trkpt lat="44.01493" lon="7.66371">
        <ele>1951</ele>
        <time>2017-09-17T16:36:11Z</time>
      </trkpt>
      <trkpt lat="44.01491" lon="7.66372">
        <ele>1952</ele>
        <time>2017-09-17T16:36:12Z</time>
      </trkpt>
      <trkpt lat="44.01488" lon="7.66374">
        <ele>1952</ele>
        <time>2017-09-17T16:36:13Z</time>
      </trkpt>
      <trkpt lat="44.01485" lon="7.66375">
        <ele>1953</ele>
        <time>2017-09-17T16:36:14Z</time>
      </trkpt>
      <trkpt lat="44.01483" lon="7.66376">
        <ele>1953</ele>
        <time>2017-09-17T16:36:15Z</time>
      </trkpt>
      <trkpt lat="44.0148" lon="7.66376">
        <ele>1954</ele>
        <time>2017-09-17T16:36:16Z</time>
      </trkpt>
      <trkpt lat="44.01478" lon="7.66377">
        <ele>1954</ele>
        <time>2017-09-17T16:36:17Z</time>
      </trkpt>
      <trkpt lat="44.01475" lon="7.66377">
        <ele>1954</ele>
        <time>2017-09-17T16:36:18Z</time>
      </trkpt>
      <trkpt lat="44.01472" lon="7.66378">
        <ele>1955</ele>
        <time>2017-09-17T16:36:19Z</time>
      </trkpt>
      <trkpt lat="44.0147" lon="7.66379">
        <ele>1955</ele>
        <time>2017-09-17T16:36:20Z</time>
      </trkpt>
      <trkpt lat="44.01467" lon="7.6638">
        <ele>1955</ele>
        <time>2017-09-17T16:36:21Z</time>
      </trkpt>
      <trkpt lat="44.01465" lon="7.66381">
        <ele>1956</ele>
        <time>2017-09-17T16:36:22Z</time>
      </trkpt>
      <trkpt lat="44.01462" lon="7.66383">
        <ele>1956</ele>
        <time>2017-09-17T16:36:23Z</time>
      </trkpt>
      <trkpt lat="44.01459" lon="7.66384">
        <ele>1956</ele>
        <time>2017-09-17T16:36:24Z</time>
      </trkpt>
      <trkpt lat="44.01456" lon="7.66385">
        <ele>1957</ele>
        <time>2017-09-17T16:36:25Z</time>
      </trkpt>
      <trkpt lat="44.01453" lon="7.66386">
        <ele>1957</ele>
        <time>2017-09-17T16:36:26Z</time>
      </trkpt>
      <trkpt lat="44.01451" lon="7.66387">
        <ele>1957</ele>
        <time>2017-09-17T16:36:27Z</time>
      </trkpt>
      <trkpt lat="44.01448" lon="7.66387">
        <ele>1958</ele>
        <time>2017-09-17T16:36:28Z</time>
      </trkpt>
      <trkpt lat="44.01446" lon="7.66388">
        <ele>1958</ele>
        <time>2017-09-17T16:36:29Z</time>
      </trkpt>
      <trkpt lat="44.01443" lon="7.6639">
        <ele>1958</ele>
        <time>2017-09-17T16:36:30Z</time>
      </trkpt>
      <trkpt lat="44.0144" lon="7.66392">
        <ele>1959</ele>
        <time>2017-09-17T16:36:31Z</time>
      </trkpt>
      <trkpt lat="44.01438" lon="7.66393">
        <ele>1959</ele>
        <time>2017-09-17T16:36:32Z</time>
      </trkpt>
      <trkpt lat="44.01435" lon="7.66394">
        <ele>1959</ele>
        <time>2017-09-17T16:36:33Z</time>
      </trkpt>
      <trkpt lat="44.01432" lon="7.66395">
        <ele>1959</ele>
        <time>2017-09-17T16:36:34Z</time>
      </trkpt>
      <trkpt lat="44.01429" lon="7.66396">
        <ele>1959</ele>
        <time>2017-09-17T16:36:35Z</time>
      </trkpt>
      <trkpt lat="44.01425" lon="7.66396">
        <ele>1960</ele>
        <time>2017-09-17T16:36:36Z</time>
      </trkpt>
      <trkpt lat="44.01422" lon="7.66397">
        <ele>1960</ele>
        <time>2017-09-17T16:36:37Z</time>
      </trkpt>
      <trkpt lat="44.01419" lon="7.66398">
        <ele>1960</ele>
        <time>2017-09-17T16:36:38Z</time>
      </trkpt>
      <trkpt lat="44.01416" lon="7.66399">
        <ele>1960</ele>
        <time>2017-09-17T16:36:39Z</time>
      </trkpt>
      <trkpt lat="44.01412" lon="7.664">
        <ele>1960</ele>
        <time>2017-09-17T16:36:40Z</time>
      </trkpt>
      <trkpt lat="44.01409" lon="7.66401">
        <ele>1961</ele>
        <time>2017-09-17T16:36:41Z</time>
      </trkpt>
      <trkpt lat="44.01405" lon="7.66401">
        <ele>1961</ele>
        <time>2017-09-17T16:36:42Z</time>
      </trkpt>
      <trkpt lat="44.01402" lon="7.66401">
        <ele>1961</ele>
        <time>2017-09-17T16:36:43Z</time>
      </trkpt>
      <trkpt lat="44.01399" lon="7.66402">
        <ele>1961</ele>
        <time>2017-09-17T16:36:44Z</time>
      </trkpt>
      <trkpt lat="44.01396" lon="7.66403">
        <ele>1961</ele>
        <time>2017-09-17T16:36:45Z</time>
      </trkpt>
      <trkpt lat="44.01393" lon="7.66404">
        <ele>1961</ele>
        <time>2017-09-17T16:36:46Z</time>
      </trkpt>
      <trkpt lat="44.01389" lon="7.66405">
        <ele>1961</ele>
        <time>2017-09-17T16:36:47Z</time>
      </trkpt>
      <trkpt lat="44.01386" lon="7.66407">
        <ele>1960</ele>
        <time>2017-09-17T16:36:48Z</time>
      </trkpt>
      <trkpt lat="44.01382" lon="7.66409">
        <ele>1960</ele>
        <time>2017-09-17T16:36:49Z</time>
      </trkpt>
      <trkpt lat="44.01377" lon="7.66411">
        <ele>1960</ele>
        <time>2017-09-17T16:36:50Z</time>
      </trkpt>
      <trkpt lat="44.01373" lon="7.66412">
        <ele>1959</ele>
        <time>2017-09-17T16:36:51Z</time>
      </trkpt>
      <trkpt lat="44.01368" lon="7.66414">
        <ele>1959</ele>
        <time>2017-09-17T16:36:52Z</time>
      </trkpt>
      <trkpt lat="44.01364" lon="7.66416">
        <ele>1959</ele>
        <time>2017-09-17T16:36:53Z</time>
      </trkpt>
      <trkpt lat="44.01359" lon="7.66419">
        <ele>1958</ele>
        <time>2017-09-17T16:36:54Z</time>
      </trkpt>
      <trkpt lat="44.01354" lon="7.66422">
        <ele>1958</ele>
        <time>2017-09-17T16:36:55Z</time>
      </trkpt>
      <trkpt lat="44.01348" lon="7.66426">
        <ele>1957</ele>
        <time>2017-09-17T16:36:56Z</time>
      </trkpt>
      <trkpt lat="44.01342" lon="7.6643">
        <ele>1957</ele>
        <time>2017-09-17T16:36:57Z</time>
      </trkpt>
      <trkpt lat="44.01336" lon="7.66434">
        <ele>1956</ele>
        <time>2017-09-17T16:36:58Z</time>
      </trkpt>
      <trkpt lat="44.0133" lon="7.66439">
        <ele>1956</ele>
        <time>2017-09-17T16:36:59Z</time>
      </trkpt>
      <trkpt lat="44.01324" lon="7.66444">
        <ele>1955</ele>
        <time>2017-09-17T16:37:00Z</time>
      </trkpt>
      <trkpt lat="44.01318" lon="7.66449">
        <ele>1954</ele>
        <time>2017-09-17T16:37:01Z</time>
      </trkpt>
      <trkpt lat="44.01311" lon="7.66454">
        <ele>1954</ele>
        <time>2017-09-17T16:37:02Z</time>
      </trkpt>
      <trkpt lat="44.01305" lon="7.66459">
        <ele>1953</ele>
        <time>2017-09-17T16:37:03Z</time>
      </trkpt>
      <trkpt lat="44.01299" lon="7.66464">
        <ele>1953</ele>
        <time>2017-09-17T16:37:04Z</time>
      </trkpt>
      <trkpt lat="44.01292" lon="7.66468">
        <ele>1952</ele>
        <time>2017-09-17T16:37:05Z</time>
      </trkpt>
      <trkpt lat="44.01286" lon="7.66473">
        <ele>1952</ele>
        <time>2017-09-17T16:37:06Z</time>
      </trkpt>
      <trkpt lat="44.01279" lon="7.66478">
        <ele>1952</ele>
        <time>2017-09-17T16:37:07Z</time>
      </trkpt>
      <trkpt lat="44.01273" lon="7.66482">
        <ele>1951</ele>
        <time>2017-09-17T16:37:08Z</time>
      </trkpt>
      <trkpt lat="44.01266" lon="7.66487">
        <ele>1951</ele>
        <time>2017-09-17T16:37:09Z</time>
      </trkpt>
      <trkpt lat="44.0126" lon="7.6649">
        <ele>1951</ele>
        <time>2017-09-17T16:37:10Z</time>
      </trkpt>
      <trkpt lat="44.01253" lon="7.66494">
        <ele>1951</ele>
        <time>2017-09-17T16:37:11Z</time>
      </trkpt>
      <trkpt lat="44.01246" lon="7.66499">
        <ele>1950</ele>
        <time>2017-09-17T16:37:12Z</time>
      </trkpt>
      <trkpt lat="44.0124" lon="7.66504">
        <ele>1950</ele>
        <time>2017-09-17T16:37:13Z</time>
      </trkpt>
      <trkpt lat="44.01234" lon="7.66511">
        <ele>1950</ele>
        <time>2017-09-17T16:37:14Z</time>
      </trkpt>
      <trkpt lat="44.01229" lon="7.66517">
        <ele>1950</ele>
        <time>2017-09-17T16:37:15Z</time>
      </trkpt>
      <trkpt lat="44.01223" lon="7.66524">
        <ele>1949</ele>
        <time>2017-09-17T16:37:16Z</time>
      </trkpt>
      <trkpt lat="44.01219" lon="7.66531">
        <ele>1949</ele>
        <time>2017-09-17T16:37:17Z</time>
      </trkpt>
      <trkpt lat="44.01214" lon="7.66538">
        <ele>1949</ele>
        <time>2017-09-17T16:37:18Z</time>
      </trkpt>
      <trkpt lat="44.01209" lon="7.66545">
        <ele>1949</ele>
        <time>2017-09-17T16:37:19Z</time>
      </trkpt>
      <trkpt lat="44.01204" lon="7.66552">
        <ele>1949</ele>
        <time>2017-09-17T16:37:20Z</time>
      </trkpt>
      <trkpt lat="44.012" lon="7.66559">
        <ele>1949</ele>
        <time>2017-09-17T16:37:21Z</time>
      </trkpt>
      <trkpt lat="44.01196" lon="7.66566">
        <ele>1949</ele>
        <time>2017-09-17T16:37:22Z</time>
      </trkpt>
      <trkpt lat="44.01193" lon="7.66573">
        <ele>1949</ele>
        <time>2017-09-17T16:37:23Z</time>
      </trkpt>
      <trkpt lat="44.01189" lon="7.6658">
        <ele>1948</ele>
        <time>2017-09-17T16:37:24Z</time>
      </trkpt>
      <trkpt lat="44.01184" lon="7.66587">
        <ele>1948</ele>
        <time>2017-09-17T16:37:25Z</time>
      </trkpt>
      <trkpt lat="44.01178" lon="7.66593">
        <ele>1948</ele>
        <time>2017-09-17T16:37:26Z</time>
      </trkpt>
      <trkpt lat="44.01173" lon="7.66598">
        <ele>1947</ele>
        <time>2017-09-17T16:37:27Z</time>
      </trkpt>
      <trkpt lat="44.01167" lon="7.66603">
        <ele>1947</ele>
        <time>2017-09-17T16:37:28Z</time>
      </trkpt>
      <trkpt lat="44.0116" lon="7.66607">
        <ele>1947</ele>
        <time>2017-09-17T16:37:29Z</time>
      </trkpt>
      <trkpt lat="44.01153" lon="7.66609">
        <ele>1946</ele>
        <time>2017-09-17T16:37:30Z</time>
      </trkpt>
      <trkpt lat="44.01146" lon="7.66611">
        <ele>1946</ele>
        <time>2017-09-17T16:37:31Z</time>
      </trkpt>
      <trkpt lat="44.01139" lon="7.66612">
        <ele>1946</ele>
        <time>2017-09-17T16:37:32Z</time>
      </trkpt>
      <trkpt lat="44.01132" lon="7.66612">
        <ele>1945</ele>
        <time>2017-09-17T16:37:33Z</time>
      </trkpt>
      <trkpt lat="44.01124" lon="7.66612">
        <ele>1945</ele>
        <time>2017-09-17T16:37:34Z</time>
      </trkpt>
      <trkpt lat="44.01117" lon="7.66611">
        <ele>1945</ele>
        <time>2017-09-17T16:37:35Z</time>
      </trkpt>
      <trkpt lat="44.0111" lon="7.66609">
        <ele>1945</ele>
        <time>2017-09-17T16:37:36Z</time>
      </trkpt>
      <trkpt lat="44.01103" lon="7.66607">
        <ele>1944</ele>
        <time>2017-09-17T16:37:37Z</time>
      </trkpt>
      <trkpt lat="44.01096" lon="7.66604">
        <ele>1944</ele>
        <time>2017-09-17T16:37:38Z</time>
      </trkpt>
      <trkpt lat="44.01089" lon="7.66601">
        <ele>1944</ele>
        <time>2017-09-17T16:37:39Z</time>
      </trkpt>
      <trkpt lat="44.01083" lon="7.66599">
        <ele>1944</ele>
        <time>2017-09-17T16:37:40Z</time>
      </trkpt>
      <trkpt lat="44.01076" lon="7.66596">
        <ele>1943</ele>
        <time>2017-09-17T16:37:41Z</time>
      </trkpt>
      <trkpt lat="44.01069" lon="7.66594">
        <ele>1943</ele>
        <time>2017-09-17T16:37:42Z</time>
      </trkpt>
      <trkpt lat="44.01062" lon="7.66593">
        <ele>1943</ele>
        <time>2017-09-17T16:37:43Z</time>
      </trkpt>
      <trkpt lat="44.01056" lon="7.66592">
        <ele>1943</ele>
        <time>2017-09-17T16:37:44Z</time>
      </trkpt>
      <trkpt lat="44.01049" lon="7.66591">
        <ele>1943</ele>
        <time>2017-09-17T16:37:45Z</time>
      </trkpt>
      <trkpt lat="44.01043" lon="7.66591">
        <ele>1942</ele>
        <time>2017-09-17T16:37:46Z</time>
      </trkpt>
      <trkpt lat="44.01036" lon="7.6659">
        <ele>1942</ele>
        <time>2017-09-17T16:37:47Z</time>
      </trkpt>
      <trkpt lat="44.0103" lon="7.66589">
        <ele>1942</ele>
        <time>2017-09-17T16:37:48Z</time>
      </trkpt>
      <trkpt lat="44.01023" lon="7.66588">
        <ele>1942</ele>
        <time>2017-09-17T16:37:49Z</time>
      </trkpt>
      <trkpt lat="44.01017" lon="7.66587">
        <ele>1942</ele>
        <time>2017-09-17T16:37:50Z</time>
      </trkpt>
      <trkpt lat="44.01011" lon="7.66586">
        <ele>1942</ele>
        <time>2017-09-17T16:37:51Z</time>
      </trkpt>
      <trkpt lat="44.01004" lon="7.66585">
        <ele>1942</ele>
        <time>2017-09-17T16:37:52Z</time>
      </trkpt>
      <trkpt lat="44.00998" lon="7.66584">
        <ele>1942</ele>
        <time>2017-09-17T16:37:53Z</time>
      </trkpt>
      <trkpt lat="44.00992" lon="7.66582">
        <ele>1942</ele>
        <time>2017-09-17T16:37:54Z</time>
      </trkpt>
      <trkpt lat="44.00985" lon="7.66581">
        <ele>1942</ele>
        <time>2017-09-17T16:37:55Z</time>
      </trkpt>
      <trkpt lat="44.00979" lon="7.6658">
        <ele>1941</ele>
        <time>2017-09-17T16:37:56Z</time>
      </trkpt>
      <trkpt lat="44.00973" lon="7.66578">
        <ele>1941</ele>
        <time>2017-09-17T16:37:57Z</time>
      </trkpt>
      <trkpt lat="44.00966" lon="7.66575">
        <ele>1941</ele>
        <time>2017-09-17T16:37:58Z</time>
      </trkpt>
      <trkpt lat="44.0096" lon="7.66573">
        <ele>1941</ele>
        <time>2017-09-17T16:37:59Z</time>
      </trkpt>
      <trkpt lat="44.00953" lon="7.66572">
        <ele>1940</ele>
        <time>2017-09-17T16:38:00Z</time>
      </trkpt>
      <trkpt lat="44.00947" lon="7.66573">
        <ele>1940</ele>
        <time>2017-09-17T16:38:01Z</time>
      </trkpt>
      <trkpt lat="44.00941" lon="7.66574">
        <ele>1940</ele>
        <time>2017-09-17T16:38:02Z</time>
      </trkpt>
      <trkpt lat="44.00935" lon="7.66576">
        <ele>1940</ele>
        <time>2017-09-17T16:38:03Z</time>
      </trkpt>
      <trkpt lat="44.00929" lon="7.66577">
        <ele>1940</ele>
        <time>2017-09-17T16:38:04Z</time>
      </trkpt>
      <trkpt lat="44.00924" lon="7.66579">
        <ele>1939</ele>
        <time>2017-09-17T16:38:05Z</time>
      </trkpt>
      <trkpt lat="44.00918" lon="7.6658">
        <ele>1939</ele>
        <time>2017-09-17T16:38:06Z</time>
      </trkpt>
      <trkpt lat="44.00912" lon="7.66581">
        <ele>1939</ele>
        <time>2017-09-17T16:38:07Z</time>
      </trkpt>
      <trkpt lat="44.00907" lon="7.66581">
        <ele>1939</ele>
        <time>2017-09-17T16:38:08Z</time>
      </trkpt>
      <trkpt lat="44.00901" lon="7.66582">
        <ele>1939</ele>
        <time>2017-09-17T16:38:09Z</time>
      </trkpt>
      <trkpt lat="44.00896" lon="7.66582">
        <ele>1940</ele>
        <time>2017-09-17T16:38:10Z</time>
      </trkpt>
      <trkpt lat="44.00891" lon="7.66583">
        <ele>1940</ele>
        <time>2017-09-17T16:38:11Z</time>
      </trkpt>
      <trkpt lat="44.00886" lon="7.66583">
        <ele>1940</ele>
        <time>2017-09-17T16:38:12Z</time>
      </trkpt>
      <trkpt lat="44.00881" lon="7.66582">
        <ele>1940</ele>
        <time>2017-09-17T16:38:13Z</time>
      </trkpt>
      <trkpt lat="44.00877" lon="7.66583">
        <ele>1941</ele>
        <time>2017-09-17T16:38:14Z</time>
      </trkpt>
      <trkpt lat="44.00872" lon="7.66583">
        <ele>1941</ele>
        <time>2017-09-17T16:38:15Z</time>
      </trkpt>
      <trkpt lat="44.00868" lon="7.66583">
        <ele>1941</ele>
        <time>2017-09-17T16:38:16Z</time>
      </trkpt>
      <trkpt lat="44.00864" lon="7.66584">
        <ele>1942</ele>
        <time>2017-09-17T16:38:17Z</time>
      </trkpt>
      <trkpt lat="44.0086" lon="7.66584">
        <ele>1942</ele>
        <time>2017-09-17T16:38:18Z</time>
      </trkpt>
      <trkpt lat="44.00856" lon="7.66585">
        <ele>1942</ele>
        <time>2017-09-17T16:38:19Z</time>
      </trkpt>
      <trkpt lat="44.00853" lon="7.66585">
        <ele>1943</ele>
        <time>2017-09-17T16:38:20Z</time>
      </trkpt>
      <trkpt lat="44.00849" lon="7.66585">
        <ele>1943</ele>
        <time>2017-09-17T16:38:21Z</time>
      </trkpt>
      <trkpt lat="44.00845" lon="7.66586">
        <ele>1943</ele>
        <time>2017-09-17T16:38:22Z</time>
      </trkpt>
      <trkpt lat="44.00842" lon="7.66586">
        <ele>1943</ele>
        <time>2017-09-17T16:38:23Z</time>
      </trkpt>
      <trkpt lat="44.00838" lon="7.66585">
        <ele>1944</ele>
        <time>2017-09-17T16:38:24Z</time>
      </trkpt>
      <trkpt lat="44.00835" lon="7.66585">
        <ele>1944</ele>
        <time>2017-09-17T16:38:25Z</time>
      </trkpt>
      <trkpt lat="44.00831" lon="7.66586">
        <ele>1944</ele>
        <time>2017-09-17T16:38:26Z</time>
      </trkpt>
      <trkpt lat="44.00828" lon="7.66587">
        <ele>1944</ele>
        <time>2017-09-17T16:38:27Z</time>
      </trkpt>
      <trkpt lat="44.00824" lon="7.66587">
        <ele>1944</ele>
        <time>2017-09-17T16:38:28Z</time>
      </trkpt>
      <trkpt lat="44.00821" lon="7.66589">
        <ele>1944</ele>
        <time>2017-09-17T16:38:29Z</time>
      </trkpt>
      <trkpt lat="44.00817" lon="7.6659">
        <ele>1945</ele>
        <time>2017-09-17T16:38:30Z</time>
      </trkpt>
      <trkpt lat="44.00814" lon="7.66592">
        <ele>1945</ele>
        <time>2017-09-17T16:38:31Z</time>
      </trkpt>
      <trkpt lat="44.00811" lon="7.66594">
        <ele>1945</ele>
        <time>2017-09-17T16:38:32Z</time>
      </trkpt>
      <trkpt lat="44.00808" lon="7.66596">
        <ele>1946</ele>
        <time>2017-09-17T16:38:33Z</time>
      </trkpt>
      <trkpt lat="44.00805" lon="7.66598">
        <ele>1946</ele>
        <time>2017-09-17T16:38:34Z</time>
      </trkpt>
      <trkpt lat="44.00801" lon="7.666">
        <ele>1946</ele>
        <time>2017-09-17T16:38:35Z</time>
      </trkpt>
      <trkpt lat="44.00798" lon="7.66602">
        <ele>1946</ele>
        <time>2017-09-17T16:38:36Z</time>
      </trkpt>
      <trkpt lat="44.00795" lon="7.66605">
        <ele>1946</ele>
        <time>2017-09-17T16:38:37Z</time>
      </trkpt>
      <trkpt lat="44.00793" lon="7.66607">
        <ele>1947</ele>
        <time>2017-09-17T16:38:38Z</time>
      </trkpt>
      <trkpt lat="44.00791" lon="7.6661">
        <ele>1947</ele>
        <time>2017-09-17T16:38:39Z</time>
      </trkpt>
      <trkpt lat="44.00789" lon="7.66612">
        <ele>1947</ele>
        <time>2017-09-17T16:38:40Z</time>
      </trkpt>
      <trkpt lat="44.00786" lon="7.66614">
        <ele>1948</ele>
        <time>2017-09-17T16:38:41Z</time>
      </trkpt>
      <trkpt lat="44.00783" lon="7.66617">
        <ele>1948</ele>
        <time>2017-09-17T16:38:42Z</time>
      </trkpt>
      <trkpt lat="44.0078" lon="7.66618">
        <ele>1948</ele>
        <time>2017-09-17T16:38:43Z</time>
      </trkpt>
      <trkpt lat="44.00777" lon="7.66621">
        <ele>1948</ele>
        <time>2017-09-17T16:38:44Z</time>
      </trkpt>
      <trkpt lat="44.00774" lon="7.66623">
        <ele>1949</ele>
        <time>2017-09-17T16:38:45Z</time>
      </trkpt>
      <trkpt lat="44.0077" lon="7.66624">
        <ele>1949</ele>
        <time>2017-09-17T16:38:46Z</time>
      </trkpt>
      <trkpt lat="44.00767" lon="7.66626">
        <ele>1949</ele>
        <time>2017-09-17T16:38:47Z</time>
      </trkpt>
      <trkpt lat="44.00764" lon="7.66628">
        <ele>1950</ele>
        <time>2017-09-17T16:38:48Z</time>
      </trkpt>
      <trkpt lat="44.00761" lon="7.6663">
        <ele>1950</ele>
        <time>2017-09-17T16:38:49Z</time>
      </trkpt>
      <trkpt lat="44.00758" lon="7.66632">
        <ele>1950</ele>
        <time>2017-09-17T16:38:50Z</time>
      </trkpt>
      <trkpt lat="44.00756" lon="7.66635">
        <ele>1950</ele>
        <time>2017-09-17T16:38:51Z</time>
      </trkpt>
      <trkpt lat="44.00754" lon="7.66637">
        <ele>1951</ele>
        <time>2017-09-17T16:38:52Z</time>
      </trkpt>
      <trkpt lat="44.00752" lon="7.6664">
        <ele>1951</ele>
        <time>2017-09-17T16:38:53Z</time>
      </trkpt>
      <trkpt lat="44.0075" lon="7.66643">
        <ele>1951</ele>
        <time>2017-09-17T16:38:54Z</time>
      </trkpt>
      <trkpt lat="44.00747" lon="7.66647">
        <ele>1952</ele>
        <time>2017-09-17T16:38:55Z</time>
      </trkpt>
      <trkpt lat="44.00745" lon="7.66651">
        <ele>1952</ele>
        <time>2017-09-17T16:38:56Z</time>
      </trkpt>
      <trkpt lat="44.00743" lon="7.66654">
        <ele>1952</ele>
        <time>2017-09-17T16:38:57Z</time>
      </trkpt>
      <trkpt lat="44.00741" lon="7.66658">
        <ele>1953</ele>
        <time>2017-09-17T16:38:58Z</time>
      </trkpt>
      <trkpt lat="44.00739" lon="7.66662">
        <ele>1953</ele>
        <time>2017-09-17T16:38:59Z</time>
      </trkpt>
      <trkpt lat="44.00737" lon="7.66666">
        <ele>1953</ele>
        <time>2017-09-17T16:39:00Z</time>
      </trkpt>
      <trkpt lat="44.00735" lon="7.6667">
        <ele>1953</ele>
        <time>2017-09-17T16:39:01Z</time>
      </trkpt>
      <trkpt lat="44.00733" lon="7.66674">
        <ele>1953</ele>
        <time>2017-09-17T16:39:02Z</time>
      </trkpt>
      <trkpt lat="44.00731" lon="7.66677">
        <ele>1954</ele>
        <time>2017-09-17T16:39:03Z</time>
      </trkpt>
      <trkpt lat="44.00728" lon="7.6668">
        <ele>1954</ele>
        <time>2017-09-17T16:39:04Z</time>
      </trkpt>
      <trkpt lat="44.00726" lon="7.66683">
        <ele>1954</ele>
        <time>2017-09-17T16:39:05Z</time>
      </trkpt>
      <trkpt lat="44.00724" lon="7.66687">
        <ele>1954</ele>
        <time>2017-09-17T16:39:06Z</time>
      </trkpt>
      <trkpt lat="44.00723" lon="7.6669">
        <ele>1955</ele>
        <time>2017-09-17T16:39:07Z</time>
      </trkpt>
      <trkpt lat="44.00721" lon="7.66693">
        <ele>1955</ele>
        <time>2017-09-17T16:39:08Z</time>
      </trkpt>
      <trkpt lat="44.00719" lon="7.66697">
        <ele>1955</ele>
        <time>2017-09-17T16:39:09Z</time>
      </trkpt>
      <trkpt lat="44.00716" lon="7.66701">
        <ele>1955</ele>
        <time>2017-09-17T16:39:10Z</time>
      </trkpt>
      <trkpt lat="44.00714" lon="7.66704">
        <ele>1955</ele>
        <time>2017-09-17T16:39:11Z</time>
      </trkpt>
      <trkpt lat="44.00712" lon="7.66708">
        <ele>1955</ele>
        <time>2017-09-17T16:39:12Z</time>
      </trkpt>
      <trkpt lat="44.00709" lon="7.66711">
        <ele>1956</ele>
        <time>2017-09-17T16:39:13Z</time>
      </trkpt>
      <trkpt lat="44.00707" lon="7.66715">
        <ele>1956</ele>
        <time>2017-09-17T16:39:14Z</time>
      </trkpt>
      <trkpt lat="44.00705" lon="7.66719">
        <ele>1956</ele>
        <time>2017-09-17T16:39:15Z</time>
      </trkpt>
      <trkpt lat="44.00702" lon="7.66723">
        <ele>1956</ele>
        <time>2017-09-17T16:39:16Z</time>
      </trkpt>
      <trkpt lat="44.007" lon="7.66726">
        <ele>1956</ele>
        <time>2017-09-17T16:39:17Z</time>
      </trkpt>
      <trkpt lat="44.00698" lon="7.6673">
        <ele>1956</ele>
        <time>2017-09-17T16:39:18Z</time>
      </trkpt>
      <trkpt lat="44.00695" lon="7.66734">
        <ele>1957</ele>
        <time>2017-09-17T16:39:19Z</time>
      </trkpt>
      <trkpt lat="44.00693" lon="7.66737">
        <ele>1957</ele>
        <time>2017-09-17T16:39:20Z</time>
      </trkpt>
      <trkpt lat="44.00691" lon="7.66741">
        <ele>1957</ele>
        <time>2017-09-17T16:39:21Z</time>
      </trkpt>
      <trkpt lat="44.00688" lon="7.66745">
        <ele>1957</ele>
        <time>2017-09-17T16:39:22Z</time>
      </trkpt>
      <trkpt lat="44.00686" lon="7.66748">
        <ele>1957</ele>
        <time>2017-09-17T16:39:23Z</time>
      </trkpt>
      <trkpt lat="44.00684" lon="7.66752">
        <ele>1958</ele>
        <time>2017-09-17T16:39:24Z</time>
      </trkpt>
      <trkpt lat="44.00682" lon="7.66755">
        <ele>1958</ele>
        <time>2017-09-17T16:39:25Z</time>
      </trkpt>
      <trkpt lat="44.00679" lon="7.66758">
        <ele>1958</ele>
        <time>2017-09-17T16:39:26Z</time>
      </trkpt>
      <trkpt lat="44.00677" lon="7.66762">
        <ele>1958</ele>
        <time>2017-09-17T16:39:27Z</time>
      </trkpt>
      <trkpt lat="44.00675" lon="7.66766">
        <ele>1958</ele>
        <time>2017-09-17T16:39:28Z</time>
      </trkpt>
      <trkpt lat="44.00672" lon="7.66769">
        <ele>1958</ele>
        <time>2017-09-17T16:39:29Z</time>
      </trkpt>
      <trkpt lat="44.00669" lon="7.66773">
        <ele>1958</ele>
        <time>2017-09-17T16:39:30Z</time>
      </trkpt>
      <trkpt lat="44.00665" lon="7.66777">
        <ele>1958</ele>
        <time>2017-09-17T16:39:31Z</time>
      </trkpt>
      <trkpt lat="44.00661" lon="7.66781">
        <ele>1958</ele>
        <time>2017-09-17T16:39:32Z</time>
      </trkpt>
      <trkpt lat="44.00657" lon="7.66784">
        <ele>1958</ele>
        <time>2017-09-17T16:39:33Z</time>
      </trkpt>
      <trkpt lat="44.00653" lon="7.66788">
        <ele>1958</ele>
        <time>2017-09-17T16:39:34Z</time>
      </trkpt>
      <trkpt lat="44.00648" lon="7.66791">
        <ele>1958</ele>
        <time>2017-09-17T16:39:35Z</time>
      </trkpt>
      <trkpt lat="44.00643" lon="7.66793">
        <ele>1958</ele>
        <time>2017-09-17T16:39:36Z</time>
      </trkpt>
      <trkpt lat="44.00639" lon="7.66795">
        <ele>1958</ele>
        <time>2017-09-17T16:39:37Z</time>
      </trkpt>
      <trkpt lat="44.00633" lon="7.66796">
        <ele>1958</ele>
        <time>2017-09-17T16:39:38Z</time>
      </trkpt>
      <trkpt lat="44.00628" lon="7.66797">
        <ele>1958</ele>
        <time>2017-09-17T16:39:39Z</time>
      </trkpt>
      <trkpt lat="44.00623" lon="7.66796">
        <ele>1958</ele>
        <time>2017-09-17T16:39:40Z</time>
      </trkpt>
      <trkpt lat="44.00617" lon="7.66795">
        <ele>1958</ele>
        <time>2017-09-17T16:39:41Z</time>
      </trkpt>
      <trkpt lat="44.00612" lon="7.66794">
        <ele>1958</ele>
        <time>2017-09-17T16:39:42Z</time>
      </trkpt>
      <trkpt lat="44.00606" lon="7.66791">
        <ele>1958</ele>
        <time>2017-09-17T16:39:43Z</time>
      </trkpt>
      <trkpt lat="44.00601" lon="7.6679">
        <ele>1958</ele>
        <time>2017-09-17T16:39:44Z</time>
      </trkpt>
      <trkpt lat="44.00596" lon="7.66788">
        <ele>1958</ele>
        <time>2017-09-17T16:39:45Z</time>
      </trkpt>
      <trkpt lat="44.00591" lon="7.66787">
        <ele>1959</ele>
        <time>2017-09-17T16:39:46Z</time>
      </trkpt>
      <trkpt lat="44.00586" lon="7.66785">
        <ele>1959</ele>
        <time>2017-09-17T16:39:47Z</time>
      </trkpt>
      <trkpt lat="44.00581" lon="7.66784">
        <ele>1959</ele>
        <time>2017-09-17T16:39:48Z</time>
      </trkpt>
      <trkpt lat="44.00576" lon="7.66783">
        <ele>1959</ele>
        <time>2017-09-17T16:39:49Z</time>
      </trkpt>
      <trkpt lat="44.00571" lon="7.66782">
        <ele>1959</ele>
        <time>2017-09-17T16:39:50Z</time>
      </trkpt>
      <trkpt lat="44.00566" lon="7.6678">
        <ele>1959</ele>
        <time>2017-09-17T16:39:51Z</time>
      </trkpt>
      <trkpt lat="44.00562" lon="7.66778">
        <ele>1960</ele>
        <time>2017-09-17T16:39:52Z</time>
      </trkpt>
      <trkpt lat="44.00557" lon="7.66777">
        <ele>1960</ele>
        <time>2017-09-17T16:39:53Z</time>
      </trkpt>
      <trkpt lat="44.00552" lon="7.66775">
        <ele>1960</ele>
        <time>2017-09-17T16:39:54Z</time>
      </trkpt>
      <trkpt lat="44.00547" lon="7.66773">
        <ele>1960</ele>
        <time>2017-09-17T16:39:55Z</time>
      </trkpt>
      <trkpt lat="44.00542" lon="7.66773">
        <ele>1960</ele>
        <time>2017-09-17T16:39:56Z</time>
      </trkpt>
      <trkpt lat="44.00536" lon="7.66772">
        <ele>1960</ele>
        <time>2017-09-17T16:39:57Z</time>
      </trkpt>
      <trkpt lat="44.00531" lon="7.66772">
        <ele>1960</ele>
        <time>2017-09-17T16:39:58Z</time>
      </trkpt>
      <trkpt lat="44.00525" lon="7.66772">
        <ele>1960</ele>
        <time>2017-09-17T16:39:59Z</time>
      </trkpt>
      <trkpt lat="44.00519" lon="7.66772">
        <ele>1960</ele>
        <time>2017-09-17T16:40:00Z</time>
      </trkpt>
      <trkpt lat="44.00513" lon="7.66772">
        <ele>1960</ele>
        <time>2017-09-17T16:40:01Z</time>
      </trkpt>
      <trkpt lat="44.00507" lon="7.66773">
        <ele>1960</ele>
        <time>2017-09-17T16:40:02Z</time>
      </trkpt>
      <trkpt lat="44.00502" lon="7.66775">
        <ele>1960</ele>
        <time>2017-09-17T16:40:03Z</time>
      </trkpt>
      <trkpt lat="44.00496" lon="7.66776">
        <ele>1960</ele>
        <time>2017-09-17T16:40:04Z</time>
      </trkpt>
      <trkpt lat="44.0049" lon="7.66778">
        <ele>1959</ele>
        <time>2017-09-17T16:40:05Z</time>
      </trkpt>
      <trkpt lat="44.00484" lon="7.66779">
        <ele>1959</ele>
        <time>2017-09-17T16:40:06Z</time>
      </trkpt>
      <trkpt lat="44.00478" lon="7.66781">
        <ele>1959</ele>
        <time>2017-09-17T16:40:07Z</time>
      </trkpt>
      <trkpt lat="44.00473" lon="7.66783">
        <ele>1959</ele>
        <time>2017-09-17T16:40:08Z</time>
      </trkpt>
      <trkpt lat="44.00467" lon="7.66785">
        <ele>1959</ele>
        <time>2017-09-17T16:40:09Z</time>
      </trkpt>
      <trkpt lat="44.00461" lon="7.66788">
        <ele>1959</ele>
        <time>2017-09-17T16:40:10Z</time>
      </trkpt>
      <trkpt lat="44.00456" lon="7.6679">
        <ele>1959</ele>
        <time>2017-09-17T16:40:11Z</time>
      </trkpt>
      <trkpt lat="44.0045" lon="7.66793">
        <ele>1959</ele>
        <time>2017-09-17T16:40:12Z</time>
      </trkpt>
      <trkpt lat="44.00445" lon="7.66796">
        <ele>1959</ele>
        <time>2017-09-17T16:40:13Z</time>
      </trkpt>
      <trkpt lat="44.00439" lon="7.66799">
        <ele>1959</ele>
        <time>2017-09-17T16:40:14Z</time>
      </trkpt>
      <trkpt lat="44.00434" lon="7.66802">
        <ele>1959</ele>
        <time>2017-09-17T16:40:15Z</time>
      </trkpt>
      <trkpt lat="44.00429" lon="7.66804">
        <ele>1959</ele>
        <time>2017-09-17T16:40:16Z</time>
      </trkpt>
      <trkpt lat="44.00423" lon="7.66805">
        <ele>1959</ele>
        <time>2017-09-17T16:40:17Z</time>
      </trkpt>
      <trkpt lat="44.00417" lon="7.66807">
        <ele>1959</ele>
        <time>2017-09-17T16:40:18Z</time>
      </trkpt>
      <trkpt lat="44.00412" lon="7.66808">
        <ele>1959</ele>
        <time>2017-09-17T16:40:19Z</time>
      </trkpt>
      <trkpt lat="44.00406" lon="7.66809">
        <ele>1960</ele>
        <time>2017-09-17T16:40:20Z</time>
      </trkpt>
      <trkpt lat="44.004" lon="7.66809">
        <ele>1960</ele>
        <time>2017-09-17T16:40:21Z</time>
      </trkpt>
      <trkpt lat="44.00395" lon="7.66809">
        <ele>1960</ele>
        <time>2017-09-17T16:40:22Z</time>
      </trkpt>
      <trkpt lat="44.00389" lon="7.66809">
        <ele>1960</ele>
        <time>2017-09-17T16:40:23Z</time>
      </trkpt>
      <trkpt lat="44.00383" lon="7.66808">
        <ele>1960</ele>
        <time>2017-09-17T16:40:24Z</time>
      </trkpt>
      <trkpt lat="44.00377" lon="7.66808">
        <ele>1960</ele>
        <time>2017-09-17T16:40:25Z</time>
      </trkpt>
      <trkpt lat="44.00371" lon="7.66807">
        <ele>1959</ele>
        <time>2017-09-17T16:40:26Z</time>
      </trkpt>
      <trkpt lat="44.00364" lon="7.66807">
        <ele>1959</ele>
        <time>2017-09-17T16:40:27Z</time>
      </trkpt>
      <trkpt lat="44.00358" lon="7.66807">
        <ele>1959</ele>
        <time>2017-09-17T16:40:28Z</time>
      </trkpt>
      <trkpt lat="44.00352" lon="7.66807">
        <ele>1959</ele>
        <time>2017-09-17T16:40:29Z</time>
      </trkpt>
      <trkpt lat="44.00346" lon="7.66807">
        <ele>1959</ele>
        <time>2017-09-17T16:40:30Z</time>
      </trkpt>
      <trkpt lat="44.00339" lon="7.66808">
        <ele>1959</ele>
        <time>2017-09-17T16:40:31Z</time>
      </trkpt>
      <trkpt lat="44.00333" lon="7.66809">
        <ele>1959</ele>
        <time>2017-09-17T16:40:32Z</time>
      </trkpt>
      <trkpt lat="44.00327" lon="7.66809">
        <ele>1959</ele>
        <time>2017-09-17T16:40:33Z</time>
      </trkpt>
      <trkpt lat="44.00321" lon="7.6681">
        <ele>1959</ele>
        <time>2017-09-17T16:40:34Z</time>
      </trkpt>
      <trkpt lat="44.00315" lon="7.66811">
        <ele>1959</ele>
        <time>2017-09-17T16:40:35Z</time>
      </trkpt>
      <trkpt lat="44.00309" lon="7.66811">
        <ele>1958</ele>
        <time>2017-09-17T16:40:36Z</time>
      </trkpt>
      <trkpt lat="44.00303" lon="7.66812">
        <ele>1958</ele>
        <time>2017-09-17T16:40:37Z</time>
      </trkpt>
      <trkpt lat="44.00297" lon="7.66813">
        <ele>1958</ele>
        <time>2017-09-17T16:40:38Z</time>
      </trkpt>
      <trkpt lat="44.00291" lon="7.66813">
        <ele>1958</ele>
        <time>2017-09-17T16:40:39Z</time>
      </trkpt>
      <trkpt lat="44.00285" lon="7.66815">
        <ele>1958</ele>
        <time>2017-09-17T16:40:40Z</time>
      </trkpt>
      <trkpt lat="44.00279" lon="7.66817">
        <ele>1958</ele>
        <time>2017-09-17T16:40:41Z</time>
      </trkpt>
      <trkpt lat="44.00273" lon="7.66819">
        <ele>1958</ele>
        <time>2017-09-17T16:40:42Z</time>
      </trkpt>
      <trkpt lat="44.00267" lon="7.66821">
        <ele>1958</ele>
        <time>2017-09-17T16:40:43Z</time>
      </trkpt>
      <trkpt lat="44.00261" lon="7.66823">
        <ele>1958</ele>
        <time>2017-09-17T16:40:44Z</time>
      </trkpt>
      <trkpt lat="44.00255" lon="7.66826">
        <ele>1958</ele>
        <time>2017-09-17T16:40:45Z</time>
      </trkpt>
      <trkpt lat="44.00249" lon="7.66829">
        <ele>1958</ele>
        <time>2017-09-17T16:40:46Z</time>
      </trkpt>
      <trkpt lat="44.00243" lon="7.66831">
        <ele>1958</ele>
        <time>2017-09-17T16:40:47Z</time>
      </trkpt>
      <trkpt lat="44.00236" lon="7.66834">
        <ele>1957</ele>
        <time>2017-09-17T16:40:48Z</time>
      </trkpt>
      <trkpt lat="44.0023" lon="7.66837">
        <ele>1957</ele>
        <time>2017-09-17T16:40:49Z</time>
      </trkpt>
      <trkpt lat="44.00224" lon="7.6684">
        <ele>1958</ele>
        <time>2017-09-17T16:40:50Z</time>
      </trkpt>
      <trkpt lat="44.00218" lon="7.66842">
        <ele>1958</ele>
        <time>2017-09-17T16:40:51Z</time>
      </trkpt>
      <trkpt lat="44.00212" lon="7.66845">
        <ele>1958</ele>
        <time>2017-09-17T16:40:52Z</time>
      </trkpt>
      <trkpt lat="44.00206" lon="7.66847">
        <ele>1958</ele>
        <time>2017-09-17T16:40:53Z</time>
      </trkpt>
      <trkpt lat="44.002" lon="7.66848">
        <ele>1958</ele>
        <time>2017-09-17T16:40:54Z</time>
      </trkpt>
      <trkpt lat="44.00194" lon="7.66849">
        <ele>1958</ele>
        <time>2017-09-17T16:40:55Z</time>
      </trkpt>
      <trkpt lat="44.00188" lon="7.6685">
        <ele>1958</ele>
        <time>2017-09-17T16:40:56Z</time>
      </trkpt>
      <trkpt lat="44.00182" lon="7.66851">
        <ele>1958</ele>
        <time>2017-09-17T16:40:57Z</time>
      </trkpt>
      <trkpt lat="44.00176" lon="7.66852">
        <ele>1958</ele>
        <time>2017-09-17T16:40:58Z</time>
      </trkpt>
      <trkpt lat="44.00169" lon="7.66853">
        <ele>1957</ele>
        <time>2017-09-17T16:40:59Z</time>
      </trkpt>
      <trkpt lat="44.00164" lon="7.66855">
        <ele>1957</ele>
        <time>2017-09-17T16:41:00Z</time>
      </trkpt>
      <trkpt lat="44.00158" lon="7.66858">
        <ele>1957</ele>
        <time>2017-09-17T16:41:01Z</time>
      </trkpt>
      <trkpt lat="44.00152" lon="7.66861">
        <ele>1957</ele>
        <time>2017-09-17T16:41:02Z</time>
      </trkpt>
      <trkpt lat="44.00147" lon="7.66865">
        <ele>1957</ele>
        <time>2017-09-17T16:41:03Z</time>
      </trkpt>
      <trkpt lat="44.00143" lon="7.6687">
        <ele>1956</ele>
        <time>2017-09-17T16:41:04Z</time>
      </trkpt>
      <trkpt lat="44.00138" lon="7.66875">
        <ele>1956</ele>
        <time>2017-09-17T16:41:05Z</time>
      </trkpt>
      <trkpt lat="44.00133" lon="7.66881">
        <ele>1955</ele>
        <time>2017-09-17T16:41:06Z</time>
      </trkpt>
      <trkpt lat="44.00128" lon="7.66887">
        <ele>1955</ele>
        <time>2017-09-17T16:41:07Z</time>
      </trkpt>
      <trkpt lat="44.00123" lon="7.66894">
        <ele>1955</ele>
        <time>2017-09-17T16:41:08Z</time>
      </trkpt>
      <trkpt lat="44.00118" lon="7.66902">
        <ele>1954</ele>
        <time>2017-09-17T16:41:09Z</time>
      </trkpt>
      <trkpt lat="44.00112" lon="7.6691">
        <ele>1954</ele>
        <time>2017-09-17T16:41:10Z</time>
      </trkpt>
      <trkpt lat="44.00107" lon="7.66919">
        <ele>1954</ele>
        <time>2017-09-17T16:41:11Z</time>
      </trkpt>
      <trkpt lat="44.00102" lon="7.66928">
        <ele>1953</ele>
        <time>2017-09-17T16:41:12Z</time>
      </trkpt>
      <trkpt lat="44.00097" lon="7.66937">
        <ele>1953</ele>
        <time>2017-09-17T16:41:13Z</time>
      </trkpt>
      <trkpt lat="44.00092" lon="7.66947">
        <ele>1952</ele>
        <time>2017-09-17T16:41:14Z</time>
      </trkpt>
      <trkpt lat="44.00088" lon="7.66957">
        <ele>1952</ele>
        <time>2017-09-17T16:41:15Z</time>
      </trkpt>
      <trkpt lat="44.00082" lon="7.66966">
        <ele>1951</ele>
        <time>2017-09-17T16:41:16Z</time>
      </trkpt>
      <trkpt lat="44.00076" lon="7.66972">
        <ele>1951</ele>
        <time>2017-09-17T16:41:17Z</time>
      </trkpt>
      <trkpt lat="44.00069" lon="7.66977">
        <ele>1951</ele>
        <time>2017-09-17T16:41:18Z</time>
      </trkpt>
      <trkpt lat="44.00061" lon="7.66981">
        <ele>1950</ele>
        <time>2017-09-17T16:41:19Z</time>
      </trkpt>
      <trkpt lat="44.00054" lon="7.66985">
        <ele>1950</ele>
        <time>2017-09-17T16:41:20Z</time>
      </trkpt>
      <trkpt lat="44.00047" lon="7.66988">
        <ele>1950</ele>
        <time>2017-09-17T16:41:21Z</time>
      </trkpt>
      <trkpt lat="44.00039" lon="7.66991">
        <ele>1949</ele>
        <time>2017-09-17T16:41:22Z</time>
      </trkpt>
      <trkpt lat="44.00032" lon="7.66994">
        <ele>1949</ele>
        <time>2017-09-17T16:41:23Z</time>
      </trkpt>
      <trkpt lat="44.00025" lon="7.66996">
        <ele>1948</ele>
        <time>2017-09-17T16:41:24Z</time>
      </trkpt>
      <trkpt lat="44.00018" lon="7.67">
        <ele>1948</ele>
        <time>2017-09-17T16:41:25Z</time>
      </trkpt>
      <trkpt lat="44.00011" lon="7.67006">
        <ele>1947</ele>
        <time>2017-09-17T16:41:26Z</time>
      </trkpt>
      <trkpt lat="44.00005" lon="7.67013">
        <ele>1946</ele>
        <time>2017-09-17T16:41:27Z</time>
      </trkpt>
      <trkpt lat="43.99998" lon="7.67021">
        <ele>1946</ele>
        <time>2017-09-17T16:41:28Z</time>
      </trkpt>
      <trkpt lat="43.99992" lon="7.67028">
        <ele>1945</ele>
        <time>2017-09-17T16:41:29Z</time>
      </trkpt>
      <trkpt lat="43.99985" lon="7.67035">
        <ele>1944</ele>
        <time>2017-09-17T16:41:30Z</time>
      </trkpt>
      <trkpt lat="43.99978" lon="7.67041">
        <ele>1943</ele>
        <time>2017-09-17T16:41:31Z</time>
      </trkpt>
      <trkpt lat="43.99971" lon="7.67049">
        <ele>1942</ele>
        <time>2017-09-17T16:41:32Z</time>
      </trkpt>
      <trkpt lat="43.99965" lon="7.67058">
        <ele>1941</ele>
        <time>2017-09-17T16:41:33Z</time>
      </trkpt>
      <trkpt lat="43.9996" lon="7.67067">
        <ele>1940</ele>
        <time>2017-09-17T16:41:34Z</time>
      </trkpt>
      <trkpt lat="43.99955" lon="7.67077">
        <ele>1939</ele>
        <time>2017-09-17T16:41:35Z</time>
      </trkpt>
      <trkpt lat="43.9995" lon="7.67086">
        <ele>1938</ele>
        <time>2017-09-17T16:41:36Z</time>
      </trkpt>
      <trkpt lat="43.99945" lon="7.67094">
        <ele>1937</ele>
        <time>2017-09-17T16:41:37Z</time>
      </trkpt>
      <trkpt lat="43.99939" lon="7.67099">
        <ele>1936</ele>
        <time>2017-09-17T16:41:38Z</time>
      </trkpt>
      <trkpt lat="43.99932" lon="7.67102">
        <ele>1935</ele>
        <time>2017-09-17T16:41:39Z</time>
      </trkpt>
      <trkpt lat="43.99924" lon="7.67104">
        <ele>1934</ele>
        <time>2017-09-17T16:41:40Z</time>
      </trkpt>
      <trkpt lat="43.99917" lon="7.67106">
        <ele>1933</ele>
        <time>2017-09-17T16:41:41Z</time>
      </trkpt>
      <trkpt lat="43.99909" lon="7.67108">
        <ele>1933</ele>
        <time>2017-09-17T16:41:42Z</time>
      </trkpt>
      <trkpt lat="43.99902" lon="7.6711">
        <ele>1932</ele>
        <time>2017-09-17T16:41:43Z</time>
      </trkpt>
      <trkpt lat="43.99895" lon="7.67115">
        <ele>1931</ele>
        <time>2017-09-17T16:41:44Z</time>
      </trkpt>
      <trkpt lat="43.99889" lon="7.67122">
        <ele>1930</ele>
        <time>2017-09-17T16:41:45Z</time>
      </trkpt>
      <trkpt lat="43.99883" lon="7.67129">
        <ele>1930</ele>
        <time>2017-09-17T16:41:46Z</time>
      </trkpt>
      <trkpt lat="43.99878" lon="7.67138">
        <ele>1929</ele>
        <time>2017-09-17T16:41:47Z</time>
      </trkpt>
      <trkpt lat="43.99873" lon="7.67147">
        <ele>1929</ele>
        <time>2017-09-17T16:41:48Z</time>
      </trkpt>
      <trkpt lat="43.99869" lon="7.67157">
        <ele>1928</ele>
        <time>2017-09-17T16:41:49Z</time>
      </trkpt>
      <trkpt lat="43.99865" lon="7.67165">
        <ele>1927</ele>
        <time>2017-09-17T16:41:50Z</time>
      </trkpt>
      <trkpt lat="43.99861" lon="7.67173">
        <ele>1926</ele>
        <time>2017-09-17T16:41:51Z</time>
      </trkpt>
      <trkpt lat="43.99857" lon="7.67179">
        <ele>1926</ele>
        <time>2017-09-17T16:41:52Z</time>
      </trkpt>
      <trkpt lat="43.99853" lon="7.67185">
        <ele>1925</ele>
        <time>2017-09-17T16:41:53Z</time>
      </trkpt>
      <trkpt lat="43.99851" lon="7.67192">
        <ele>1924</ele>
        <time>2017-09-17T16:41:54Z</time>
      </trkpt>
      <trkpt lat="43.9985" lon="7.672">
        <ele>1924</ele>
        <time>2017-09-17T16:41:55Z</time>
      </trkpt>
      <trkpt lat="43.9985" lon="7.67208">
        <ele>1923</ele>
        <time>2017-09-17T16:41:56Z</time>
      </trkpt>
      <trkpt lat="43.9985" lon="7.67217">
        <ele>1922</ele>
        <time>2017-09-17T16:41:57Z</time>
      </trkpt>
      <trkpt lat="43.9985" lon="7.67226">
        <ele>1922</ele>
        <time>2017-09-17T16:41:58Z</time>
      </trkpt>
      <trkpt lat="43.9985" lon="7.67235">
        <ele>1921</ele>
        <time>2017-09-17T16:41:59Z</time>
      </trkpt>
      <trkpt lat="43.9985" lon="7.67244">
        <ele>1921</ele>
        <time>2017-09-17T16:42:00Z</time>
      </trkpt>
      <trkpt lat="43.99849" lon="7.67253">
        <ele>1920</ele>
        <time>2017-09-17T16:42:01Z</time>
      </trkpt>
      <trkpt lat="43.99849" lon="7.67262">
        <ele>1920</ele>
        <time>2017-09-17T16:42:02Z</time>
      </trkpt>
      <trkpt lat="43.99849" lon="7.67271">
        <ele>1919</ele>
        <time>2017-09-17T16:42:03Z</time>
      </trkpt>
      <trkpt lat="43.99848" lon="7.6728">
        <ele>1919</ele>
        <time>2017-09-17T16:42:04Z</time>
      </trkpt>
      <trkpt lat="43.99848" lon="7.67289">
        <ele>1918</ele>
        <time>2017-09-17T16:42:05Z</time>
      </trkpt>
      <trkpt lat="43.99847" lon="7.67298">
        <ele>1918</ele>
        <time>2017-09-17T16:42:06Z</time>
      </trkpt>
      <trkpt lat="43.99847" lon="7.67308">
        <ele>1918</ele>
        <time>2017-09-17T16:42:07Z</time>
      </trkpt>
      <trkpt lat="43.99847" lon="7.67317">
        <ele>1917</ele>
        <time>2017-09-17T16:42:08Z</time>
      </trkpt>
      <trkpt lat="43.99847" lon="7.67326">
        <ele>1917</ele>
        <time>2017-09-17T16:42:09Z</time>
      </trkpt>
      <trkpt lat="43.99847" lon="7.67336">
        <ele>1916</ele>
        <time>2017-09-17T16:42:10Z</time>
      </trkpt>
      <trkpt lat="43.99846" lon="7.67343">
        <ele>1916</ele>
        <time>2017-09-17T16:42:11Z</time>
      </trkpt>
      <trkpt lat="43.99844" lon="7.6735">
        <ele>1916</ele>
        <time>2017-09-17T16:42:12Z</time>
      </trkpt>
      <trkpt lat="43.99841" lon="7.67357">
        <ele>1915</ele>
        <time>2017-09-17T16:42:13Z</time>
      </trkpt>
      <trkpt lat="43.99836" lon="7.67363">
        <ele>1914</ele>
        <time>2017-09-17T16:42:14Z</time>
      </trkpt>
      <trkpt lat="43.9983" lon="7.67369">
        <ele>1913</ele>
        <time>2017-09-17T16:42:15Z</time>
      </trkpt>
      <trkpt lat="43.99825" lon="7.67375">
        <ele>1912</ele>
        <time>2017-09-17T16:42:16Z</time>
      </trkpt>
      <trkpt lat="43.9982" lon="7.67381">
        <ele>1911</ele>
        <time>2017-09-17T16:42:17Z</time>
      </trkpt>
      <trkpt lat="43.99816" lon="7.67386">
        <ele>1910</ele>
        <time>2017-09-17T16:42:18Z</time>
      </trkpt>
      <trkpt lat="43.99813" lon="7.67393">
        <ele>1909</ele>
        <time>2017-09-17T16:42:19Z</time>
      </trkpt>
      <trkpt lat="43.9981" lon="7.674">
        <ele>1908</ele>
        <time>2017-09-17T16:42:20Z</time>
      </trkpt>
      <trkpt lat="43.99807" lon="7.67406">
        <ele>1908</ele>
        <time>2017-09-17T16:42:21Z</time>
      </trkpt>
      <trkpt lat="43.99802" lon="7.67412">
        <ele>1907</ele>
        <time>2017-09-17T16:42:22Z</time>
      </trkpt>
      <trkpt lat="43.99797" lon="7.67416">
        <ele>1906</ele>
        <time>2017-09-17T16:42:23Z</time>
      </trkpt>
      <trkpt lat="43.99791" lon="7.67419">
        <ele>1905</ele>
        <time>2017-09-17T16:42:24Z</time>
      </trkpt>
      <trkpt lat="43.99784" lon="7.67422">
        <ele>1904</ele>
        <time>2017-09-17T16:42:25Z</time>
      </trkpt>
      <trkpt lat="43.99778" lon="7.67424">
        <ele>1903</ele>
        <time>2017-09-17T16:42:26Z</time>
      </trkpt>
      <trkpt lat="43.99771" lon="7.67427">
        <ele>1901</ele>
        <time>2017-09-17T16:42:27Z</time>
      </trkpt>
      <trkpt lat="43.99765" lon="7.6743">
        <ele>1900</ele>
        <time>2017-09-17T16:42:28Z</time>
      </trkpt>
      <trkpt lat="43.99758" lon="7.67432">
        <ele>1899</ele>
        <time>2017-09-17T16:42:29Z</time>
      </trkpt>
      <trkpt lat="43.99752" lon="7.67434">
        <ele>1898</ele>
        <time>2017-09-17T16:42:30Z</time>
      </trkpt>
      <trkpt lat="43.99745" lon="7.67436">
        <ele>1897</ele>
        <time>2017-09-17T16:42:31Z</time>
      </trkpt>
      <trkpt lat="43.99739" lon="7.67437">
        <ele>1897</ele>
        <time>2017-09-17T16:42:32Z</time>
      </trkpt>
      <trkpt lat="43.99732" lon="7.67437">
        <ele>1896</ele>
        <time>2017-09-17T16:42:33Z</time>
      </trkpt>
      <trkpt lat="43.99725" lon="7.67435">
        <ele>1895</ele>
        <time>2017-09-17T16:42:34Z</time>
      </trkpt>
      <trkpt lat="43.99718" lon="7.67432">
        <ele>1894</ele>
        <time>2017-09-17T16:42:35Z</time>
      </trkpt>
      <trkpt lat="43.99711" lon="7.67429">
        <ele>1893</ele>
        <time>2017-09-17T16:42:36Z</time>
      </trkpt>
      <trkpt lat="43.99704" lon="7.67424">
        <ele>1892</ele>
        <time>2017-09-17T16:42:37Z</time>
      </trkpt>
      <trkpt lat="43.99696" lon="7.67419">
        <ele>1891</ele>
        <time>2017-09-17T16:42:38Z</time>
      </trkpt>
      <trkpt lat="43.99689" lon="7.67413">
        <ele>1890</ele>
        <time>2017-09-17T16:42:39Z</time>
      </trkpt>
      <trkpt lat="43.99682" lon="7.67407">
        <ele>1888</ele>
        <time>2017-09-17T16:42:40Z</time>
      </trkpt>
      <trkpt lat="43.99675" lon="7.67402">
        <ele>1887</ele>
        <time>2017-09-17T16:42:41Z</time>
      </trkpt>
      <trkpt lat="43.99668" lon="7.67396">
        <ele>1886</ele>
        <time>2017-09-17T16:42:42Z</time>
      </trkpt>
      <trkpt lat="43.99661" lon="7.67391">
        <ele>1886</ele>
        <time>2017-09-17T16:42:43Z</time>
      </trkpt>
      <trkpt lat="43.99655" lon="7.67386">
        <ele>1885</ele>
        <time>2017-09-17T16:42:44Z</time>
      </trkpt>
      <trkpt lat="43.99648" lon="7.67381">
        <ele>1884</ele>
        <time>2017-09-17T16:42:45Z</time>
      </trkpt>
      <trkpt lat="43.99642" lon="7.67375">
        <ele>1883</ele>
        <time>2017-09-17T16:42:46Z</time>
      </trkpt>
      <trkpt lat="43.99636" lon="7.67368">
        <ele>1882</ele>
        <time>2017-09-17T16:42:47Z</time>
      </trkpt>
      <trkpt lat="43.99631" lon="7.6736">
        <ele>1881</ele>
        <time>2017-09-17T16:42:48Z</time>
      </trkpt>
      <trkpt lat="43.99627" lon="7.67351">
        <ele>1881</ele>
        <time>2017-09-17T16:42:49Z</time>
      </trkpt>
      <trkpt lat="43.99623" lon="7.67342">
        <ele>1880</ele>
        <time>2017-09-17T16:42:50Z</time>
      </trkpt>
      <trkpt lat="43.99618" lon="7.67333">
        <ele>1879</ele>
        <time>2017-09-17T16:42:51Z</time>
      </trkpt>
      <trkpt lat="43.99613" lon="7.67324">
        <ele>1878</ele>
        <time>2017-09-17T16:42:52Z</time>
      </trkpt>
      <trkpt lat="43.99608" lon="7.67315">
        <ele>1878</ele>
        <time>2017-09-17T16:42:53Z</time>
      </trkpt>
      <trkpt lat="43.99603" lon="7.67306">
        <ele>1877</ele>
        <time>2017-09-17T16:42:54Z</time>
      </trkpt>
      <trkpt lat="43.99598" lon="7.67299">
        <ele>1877</ele>
        <time>2017-09-17T16:42:55Z</time>
      </trkpt>
      <trkpt lat="43.99592" lon="7.67291">
        <ele>1876</ele>
        <time>2017-09-17T16:42:56Z</time>
      </trkpt>
      <trkpt lat="43.99586" lon="7.67284">
        <ele>1876</ele>
        <time>2017-09-17T16:42:57Z</time>
      </trkpt>
      <trkpt lat="43.9958" lon="7.67277">
        <ele>1875</ele>
        <time>2017-09-17T16:42:58Z</time>
      </trkpt>
      <trkpt lat="43.99574" lon="7.67269">
        <ele>1875</ele>
        <time>2017-09-17T16:42:59Z</time>
      </trkpt>
      <trkpt lat="43.9957" lon="7.67262">
        <ele>1874</ele>
        <time>2017-09-17T16:43:00Z</time>
      </trkpt>
      <trkpt lat="43.99567" lon="7.67254">
        <ele>1874</ele>
        <time>2017-09-17T16:43:01Z</time>
      </trkpt>
      <trkpt lat="43.99566" lon="7.67245">
        <ele>1874</ele>
        <time>2017-09-17T16:43:02Z</time>
      </trkpt>
      <trkpt lat="43.99568" lon="7.67237">
        <ele>1873</ele>
        <time>2017-09-17T16:43:03Z</time>
      </trkpt>
      <trkpt lat="43.99572" lon="7.6723">
        <ele>1873</ele>
        <time>2017-09-17T16:43:04Z</time>
      </trkpt>
      <trkpt lat="43.99576" lon="7.67223">
        <ele>1872</ele>
        <time>2017-09-17T16:43:05Z</time>
      </trkpt>
      <trkpt lat="43.9958" lon="7.67217">
        <ele>1872</ele>
        <time>2017-09-17T16:43:06Z</time>
      </trkpt>
      <trkpt lat="43.99585" lon="7.6721">
        <ele>1871</ele>
        <time>2017-09-17T16:43:07Z</time>
      </trkpt>
      <trkpt lat="43.99589" lon="7.67202">
        <ele>1871</ele>
        <time>2017-09-17T16:43:08Z</time>
      </trkpt>
      <trkpt lat="43.99591" lon="7.67193">
        <ele>1871</ele>
        <time>2017-09-17T16:43:09Z</time>
      </trkpt>
      <trkpt lat="43.99591" lon="7.67183">
        <ele>1870</ele>
        <time>2017-09-17T16:43:10Z</time>
      </trkpt>
      <trkpt lat="43.9959" lon="7.67173">
        <ele>1870</ele>
        <time>2017-09-17T16:43:11Z</time>
      </trkpt>
      <trkpt lat="43.99589" lon="7.67162">
        <ele>1869</ele>
        <time>2017-09-17T16:43:12Z</time>
      </trkpt>
      <trkpt lat="43.99588" lon="7.67151">
        <ele>1869</ele>
        <time>2017-09-17T16:43:13Z</time>
      </trkpt>
      <trkpt lat="43.99587" lon="7.67141">
        <ele>1868</ele>
        <time>2017-09-17T16:43:14Z</time>
      </trkpt>
      <trkpt lat="43.99585" lon="7.6713">
        <ele>1868</ele>
        <time>2017-09-17T16:43:15Z</time>
      </trkpt>
      <trkpt lat="43.99584" lon="7.6712">
        <ele>1867</ele>
        <time>2017-09-17T16:43:16Z</time>
      </trkpt>
      <trkpt lat="43.99583" lon="7.6711">
        <ele>1867</ele>
        <time>2017-09-17T16:43:17Z</time>
      </trkpt>
      <trkpt lat="43.99586" lon="7.671">
        <ele>1866</ele>
        <time>2017-09-17T16:43:18Z</time>
      </trkpt>
      <trkpt lat="43.99589" lon="7.67091">
        <ele>1866</ele>
        <time>2017-09-17T16:43:19Z</time>
      </trkpt>
      <trkpt lat="43.99593" lon="7.67082">
        <ele>1866</ele>
        <time>2017-09-17T16:43:20Z</time>
      </trkpt>
      <trkpt lat="43.99597" lon="7.67073">
        <ele>1865</ele>
        <time>2017-09-17T16:43:21Z</time>
      </trkpt>
      <trkpt lat="43.99599" lon="7.67064">
        <ele>1865</ele>
        <time>2017-09-17T16:43:22Z</time>
      </trkpt>
      <trkpt lat="43.996" lon="7.67054">
        <ele>1865</ele>
        <time>2017-09-17T16:43:23Z</time>
      </trkpt>
      <trkpt lat="43.99599" lon="7.67044">
        <ele>1865</ele>
        <time>2017-09-17T16:43:24Z</time>
      </trkpt>
      <trkpt lat="43.99598" lon="7.67035">
        <ele>1865</ele>
        <time>2017-09-17T16:43:25Z</time>
      </trkpt>
      <trkpt lat="43.99598" lon="7.67026">
        <ele>1865</ele>
        <time>2017-09-17T16:43:26Z</time>
      </trkpt>
      <trkpt lat="43.99597" lon="7.67017">
        <ele>1865</ele>
        <time>2017-09-17T16:43:27Z</time>
      </trkpt>
      <trkpt lat="43.99596" lon="7.67008">
        <ele>1865</ele>
        <time>2017-09-17T16:43:28Z</time>
      </trkpt>
      <trkpt lat="43.99594" lon="7.67">
        <ele>1865</ele>
        <time>2017-09-17T16:43:29Z</time>
      </trkpt>
      <trkpt lat="43.99592" lon="7.66992">
        <ele>1865</ele>
        <time>2017-09-17T16:43:30Z</time>
      </trkpt>
      <trkpt lat="43.9959" lon="7.66984">
        <ele>1865</ele>
        <time>2017-09-17T16:43:31Z</time>
      </trkpt>
      <trkpt lat="43.99588" lon="7.66976">
        <ele>1865</ele>
        <time>2017-09-17T16:43:32Z</time>
      </trkpt>
      <trkpt lat="43.99587" lon="7.66967">
        <ele>1864</ele>
        <time>2017-09-17T16:43:33Z</time>
      </trkpt>
      <trkpt lat="43.99585" lon="7.66959">
        <ele>1864</ele>
        <time>2017-09-17T16:43:34Z</time>
      </trkpt>
      <trkpt lat="43.99585" lon="7.6695">
        <ele>1864</ele>
        <time>2017-09-17T16:43:35Z</time>
      </trkpt>
      <trkpt lat="43.99585" lon="7.66941">
        <ele>1864</ele>
        <time>2017-09-17T16:43:36Z</time>
      </trkpt>
      <trkpt lat="43.99585" lon="7.66933">
        <ele>1864</ele>
        <time>2017-09-17T16:43:37Z</time>
      </trkpt>
      <trkpt lat="43.99585" lon="7.66924">
        <ele>1864</ele>
        <time>2017-09-17T16:43:38Z</time>
      </trkpt>
      <trkpt lat="43.99586" lon="7.66915">
        <ele>1864</ele>
        <time>2017-09-17T16:43:39Z</time>
      </trkpt>
      <trkpt lat="43.99588" lon="7.66907">
        <ele>1864</ele>
        <time>2017-09-17T16:43:40Z</time>
      </trkpt>
      <trkpt lat="43.9959" lon="7.66898">
        <ele>1864</ele>
        <time>2017-09-17T16:43:41Z</time>
      </trkpt>
      <trkpt lat="43.99592" lon="7.66888">
        <ele>1864</ele>
        <time>2017-09-17T16:43:42Z</time>
      </trkpt>
      <trkpt lat="43.99593" lon="7.66879">
        <ele>1863</ele>
        <time>2017-09-17T16:43:43Z</time>
      </trkpt>
      <trkpt lat="43.99594" lon="7.66869">
        <ele>1863</ele>
        <time>2017-09-17T16:43:44Z</time>
      </trkpt>
      <trkpt lat="43.99595" lon="7.6686">
        <ele>1863</ele>
        <time>2017-09-17T16:43:45Z</time>
      </trkpt>
      <trkpt lat="43.99595" lon="7.66851">
        <ele>1863</ele>
        <time>2017-09-17T16:43:46Z</time>
      </trkpt>
      <trkpt lat="43.99597" lon="7.66841">
        <ele>1863</ele>
        <time>2017-09-17T16:43:47Z</time>
      </trkpt>
      <trkpt lat="43.99599" lon="7.66832">
        <ele>1863</ele>
        <time>2017-09-17T16:43:48Z</time>
      </trkpt>
      <trkpt lat="43.99602" lon="7.66823">
        <ele>1862</ele>
        <time>2017-09-17T16:43:49Z</time>
      </trkpt>
      <trkpt lat="43.99604" lon="7.66814">
        <ele>1862</ele>
        <time>2017-09-17T16:43:50Z</time>
      </trkpt>
      <trkpt lat="43.99603" lon="7.66805">
        <ele>1862</ele>
        <time>2017-09-17T16:43:51Z</time>
      </trkpt>
      <trkpt lat="43.996" lon="7.66797">
        <ele>1862</ele>
        <time>2017-09-17T16:43:52Z</time>
      </trkpt>
      <trkpt lat="43.99597" lon="7.6679">
        <ele>1862</ele>
        <time>2017-09-17T16:43:53Z</time>
      </trkpt>
      <trkpt lat="43.99593" lon="7.66784">
        <ele>1862</ele>
        <time>2017-09-17T16:43:54Z</time>
      </trkpt>
      <trkpt lat="43.99589" lon="7.66776">
        <ele>1862</ele>
        <time>2017-09-17T16:43:55Z</time>
      </trkpt>
      <trkpt lat="43.99587" lon="7.66768">
        <ele>1861</ele>
        <time>2017-09-17T16:43:56Z</time>
      </trkpt>
      <trkpt lat="43.99583" lon="7.66761">
        <ele>1861</ele>
        <time>2017-09-17T16:43:57Z</time>
      </trkpt>
      <trkpt lat="43.99579" lon="7.66754">
        <ele>1861</ele>
        <time>2017-09-17T16:43:58Z</time>
      </trkpt>
      <trkpt lat="43.99574" lon="7.66748">
        <ele>1861</ele>
        <time>2017-09-17T16:43:59Z</time>
      </trkpt>
      <trkpt lat="43.99567" lon="7.66744">
        <ele>1861</ele>
        <time>2017-09-17T16:44:00Z</time>
      </trkpt>
      <trkpt lat="43.99561" lon="7.6674">
        <ele>1860</ele>
        <time>2017-09-17T16:44:01Z</time>
      </trkpt>
      <trkpt lat="43.99554" lon="7.66735">
        <ele>1860</ele>
        <time>2017-09-17T16:44:02Z</time>
      </trkpt>
      <trkpt lat="43.99547" lon="7.6673">
        <ele>1859</ele>
        <time>2017-09-17T16:44:03Z</time>
      </trkpt>
      <trkpt lat="43.9954" lon="7.66725">
        <ele>1858</ele>
        <time>2017-09-17T16:44:04Z</time>
      </trkpt>
      <trkpt lat="43.99533" lon="7.6672">
        <ele>1858</ele>
        <time>2017-09-17T16:44:05Z</time>
      </trkpt>
      <trkpt lat="43.99526" lon="7.66716">
        <ele>1857</ele>
        <time>2017-09-17T16:44:06Z</time>
      </trkpt>
      <trkpt lat="43.9952" lon="7.6671">
        <ele>1857</ele>
        <time>2017-09-17T16:44:07Z</time>
      </trkpt>
      <trkpt lat="43.99514" lon="7.66705">
        <ele>1856</ele>
        <time>2017-09-17T16:44:08Z</time>
      </trkpt>
      <trkpt lat="43.99507" lon="7.66703">
        <ele>1856</ele>
        <time>2017-09-17T16:44:09Z</time>
      </trkpt>
      <trkpt lat="43.995" lon="7.66703">
        <ele>1855</ele>
        <time>2017-09-17T16:44:10Z</time>
      </trkpt>
      <trkpt lat="43.99493" lon="7.66707">
        <ele>1854</ele>
        <time>2017-09-17T16:44:11Z</time>
      </trkpt>
      <trkpt lat="43.99486" lon="7.66711">
        <ele>1853</ele>
        <time>2017-09-17T16:44:12Z</time>
      </trkpt>
      <trkpt lat="43.99478" lon="7.66715">
        <ele>1852</ele>
        <time>2017-09-17T16:44:13Z</time>
      </trkpt>
      <trkpt lat="43.9947" lon="7.66718">
        <ele>1851</ele>
        <time>2017-09-17T16:44:14Z</time>
      </trkpt>
      <trkpt lat="43.99463" lon="7.66719">
        <ele>1850</ele>
        <time>2017-09-17T16:44:15Z</time>
      </trkpt>
      <trkpt lat="43.99455" lon="7.66721">
        <ele>1849</ele>
        <time>2017-09-17T16:44:16Z</time>
      </trkpt>
      <trkpt lat="43.99447" lon="7.66723">
        <ele>1849</ele>
        <time>2017-09-17T16:44:17Z</time>
      </trkpt>
      <trkpt lat="43.99439" lon="7.66726">
        <ele>1848</ele>
        <time>2017-09-17T16:44:18Z</time>
      </trkpt>
      <trkpt lat="43.99431" lon="7.66728">
        <ele>1847</ele>
        <time>2017-09-17T16:44:19Z</time>
      </trkpt>
      <trkpt lat="43.99424" lon="7.66731">
        <ele>1846</ele>
        <time>2017-09-17T16:44:20Z</time>
      </trkpt>
      <trkpt lat="43.99417" lon="7.66734">
        <ele>1845</ele>
        <time>2017-09-17T16:44:21Z</time>
      </trkpt>
      <trkpt lat="43.9941" lon="7.66736">
        <ele>1844</ele>
        <time>2017-09-17T16:44:22Z</time>
      </trkpt>
      <trkpt lat="43.99405" lon="7.66737">
        <ele>1843</ele>
        <time>2017-09-17T16:44:23Z</time>
      </trkpt>
      <trkpt lat="43.99399" lon="7.66734">
        <ele>1843</ele>
        <time>2017-09-17T16:44:24Z</time>
      </trkpt>
      <trkpt lat="43.99394" lon="7.66729">
        <ele>1842</ele>
        <time>2017-09-17T16:44:25Z</time>
      </trkpt>
      <trkpt lat="43.99391" lon="7.66722">
        <ele>1841</ele>
        <time>2017-09-17T16:44:26Z</time>
      </trkpt>
      <trkpt lat="43.99387" lon="7.66714">
        <ele>1841</ele>
        <time>2017-09-17T16:44:27Z</time>
      </trkpt>
      <trkpt lat="43.99384" lon="7.66705">
        <ele>1840</ele>
        <time>2017-09-17T16:44:28Z</time>
      </trkpt>
      <trkpt lat="43.9938" lon="7.66696">
        <ele>1839</ele>
        <time>2017-09-17T16:44:29Z</time>
      </trkpt>
      <trkpt lat="43.99376" lon="7.66687">
        <ele>1839</ele>
        <time>2017-09-17T16:44:30Z</time>
      </trkpt>
      <trkpt lat="43.99372" lon="7.66678">
        <ele>1838</ele>
        <time>2017-09-17T16:44:31Z</time>
      </trkpt>
      <trkpt lat="43.99368" lon="7.66669">
        <ele>1837</ele>
        <time>2017-09-17T16:44:32Z</time>
      </trkpt>
      <trkpt lat="43.99365" lon="7.6666">
        <ele>1837</ele>
        <time>2017-09-17T16:44:33Z</time>
      </trkpt>
      <trkpt lat="43.99361" lon="7.66651">
        <ele>1836</ele>
        <time>2017-09-17T16:44:34Z</time>
      </trkpt>
      <trkpt lat="43.99357" lon="7.66642">
        <ele>1835</ele>
        <time>2017-09-17T16:44:35Z</time>
      </trkpt>
      <trkpt lat="43.99353" lon="7.66634">
        <ele>1835</ele>
        <time>2017-09-17T16:44:36Z</time>
      </trkpt>
      <trkpt lat="43.99348" lon="7.66627">
        <ele>1834</ele>
        <time>2017-09-17T16:44:37Z</time>
      </trkpt>
      <trkpt lat="43.99343" lon="7.66619">
        <ele>1834</ele>
        <time>2017-09-17T16:44:38Z</time>
      </trkpt>
      <trkpt lat="43.99338" lon="7.66611">
        <ele>1833</ele>
        <time>2017-09-17T16:44:39Z</time>
      </trkpt>
      <trkpt lat="43.99333" lon="7.66604">
        <ele>1833</ele>
        <time>2017-09-17T16:44:40Z</time>
      </trkpt>
      <trkpt lat="43.99328" lon="7.66598">
        <ele>1833</ele>
        <time>2017-09-17T16:44:41Z</time>
      </trkpt>
      <trkpt lat="43.99323" lon="7.66592">
        <ele>1832</ele>
        <time>2017-09-17T16:44:42Z</time>
      </trkpt>
      <trkpt lat="43.99317" lon="7.66587">
        <ele>1832</ele>
        <time>2017-09-17T16:44:43Z</time>
      </trkpt>
      <trkpt lat="43.99311" lon="7.66582">
        <ele>1832</ele>
        <time>2017-09-17T16:44:44Z</time>
      </trkpt>
      <trkpt lat="43.99305" lon="7.66577">
        <ele>1832</ele>
        <time>2017-09-17T16:44:45Z</time>
      </trkpt>
      <trkpt lat="43.99299" lon="7.66572">
        <ele>1831</ele>
        <time>2017-09-17T16:44:46Z</time>
      </trkpt>
      <trkpt lat="43.99293" lon="7.66566">
        <ele>1831</ele>
        <time>2017-09-17T16:44:47Z</time>
      </trkpt>
      <trkpt lat="43.99286" lon="7.66561">
        <ele>1830</ele>
        <time>2017-09-17T16:44:48Z</time>
      </trkpt>
      <trkpt lat="43.9928" lon="7.66556">
        <ele>1830</ele>
        <time>2017-09-17T16:44:49Z</time>
      </trkpt>
      <trkpt lat="43.99273" lon="7.6655">
        <ele>1829</ele>
        <time>2017-09-17T16:44:50Z</time>
      </trkpt>
      <trkpt lat="43.99267" lon="7.66544">
        <ele>1828</ele>
        <time>2017-09-17T16:44:51Z</time>
      </trkpt>
      <trkpt lat="43.99261" lon="7.66538">
        <ele>1828</ele>
        <time>2017-09-17T16:44:52Z</time>
      </trkpt>
      <trkpt lat="43.99254" lon="7.66533">
        <ele>1827</ele>
        <time>2017-09-17T16:44:53Z</time>
      </trkpt>
      <trkpt lat="43.99247" lon="7.66528">
        <ele>1826</ele>
        <time>2017-09-17T16:44:54Z</time>
      </trkpt>
      <trkpt lat="43.9924" lon="7.66522">
        <ele>1826</ele>
        <time>2017-09-17T16:44:55Z</time>
      </trkpt>
      <trkpt lat="43.99233" lon="7.66516">
        <ele>1825</ele>
        <time>2017-09-17T16:44:56Z</time>
      </trkpt>
      <trkpt lat="43.99226" lon="7.66509">
        <ele>1824</ele>
        <time>2017-09-17T16:44:57Z</time>
      </trkpt>
      <trkpt lat="43.9922" lon="7.66503">
        <ele>1823</ele>
        <time>2017-09-17T16:44:58Z</time>
      </trkpt>
      <trkpt lat="43.99213" lon="7.66496">
        <ele>1822</ele>
        <time>2017-09-17T16:44:59Z</time>
      </trkpt>
      <trkpt lat="43.99207" lon="7.66488">
        <ele>1822</ele>
        <time>2017-09-17T16:45:00Z</time>
      </trkpt>
      <trkpt lat="43.99201" lon="7.66482">
        <ele>1821</ele>
        <time>2017-09-17T16:45:01Z</time>
      </trkpt>
      <trkpt lat="43.99194" lon="7.66477">
        <ele>1820</ele>
        <time>2017-09-17T16:45:02Z</time>
      </trkpt>
      <trkpt lat="43.99187" lon="7.66473">
        <ele>1820</ele>
        <time>2017-09-17T16:45:03Z</time>
      </trkpt>
      <trkpt lat="43.99179" lon="7.66472">
        <ele>1820</ele>
        <time>2017-09-17T16:45:04Z</time>
      </trkpt>
      <trkpt lat="43.99172" lon="7.66472">
        <ele>1819</ele>
        <time>2017-09-17T16:45:05Z</time>
      </trkpt>
      <trkpt lat="43.99165" lon="7.66474">
        <ele>1819</ele>
        <time>2017-09-17T16:45:06Z</time>
      </trkpt>
      <trkpt lat="43.99158" lon="7.66477">
        <ele>1818</ele>
        <time>2017-09-17T16:45:07Z</time>
      </trkpt>
      <trkpt lat="43.99151" lon="7.66482">
        <ele>1818</ele>
        <time>2017-09-17T16:45:08Z</time>
      </trkpt>
      <trkpt lat="43.99145" lon="7.66487">
        <ele>1817</ele>
        <time>2017-09-17T16:45:09Z</time>
      </trkpt>
      <trkpt lat="43.99139" lon="7.66494">
        <ele>1816</ele>
        <time>2017-09-17T16:45:10Z</time>
      </trkpt>
      <trkpt lat="43.99134" lon="7.66501">
        <ele>1816</ele>
        <time>2017-09-17T16:45:11Z</time>
      </trkpt>
      <trkpt lat="43.99128" lon="7.66509">
        <ele>1815</ele>
        <time>2017-09-17T16:45:12Z</time>
      </trkpt>
      <trkpt lat="43.99123" lon="7.66518">
        <ele>1815</ele>
        <time>2017-09-17T16:45:13Z</time>
      </trkpt>
      <trkpt lat="43.99118" lon="7.66527">
        <ele>1814</ele>
        <time>2017-09-17T16:45:14Z</time>
      </trkpt>
      <trkpt lat="43.99112" lon="7.66536">
        <ele>1813</ele>
        <time>2017-09-17T16:45:15Z</time>
      </trkpt>
      <trkpt lat="43.99106" lon="7.66544">
        <ele>1813</ele>
        <time>2017-09-17T16:45:16Z</time>
      </trkpt>
      <trkpt lat="43.99099" lon="7.66553">
        <ele>1812</ele>
        <time>2017-09-17T16:45:17Z</time>
      </trkpt>
      <trkpt lat="43.99092" lon="7.66561">
        <ele>1811</ele>
        <time>2017-09-17T16:45:18Z</time>
      </trkpt>
      <trkpt lat="43.99085" lon="7.66569">
        <ele>1811</ele>
        <time>2017-09-17T16:45:19Z</time>
      </trkpt>
      <trkpt lat="43.99077" lon="7.66577">
        <ele>1810</ele>
        <time>2017-09-17T16:45:20Z</time>
      </trkpt>
      <trkpt lat="43.99069" lon="7.66584">
        <ele>1810</ele>
        <time>2017-09-17T16:45:21Z</time>
      </trkpt>
      <trkpt lat="43.99061" lon="7.66591">
        <ele>1809</ele>
        <time>2017-09-17T16:45:22Z</time>
      </trkpt>
      <trkpt lat="43.99054" lon="7.66598">
        <ele>1808</ele>
        <time>2017-09-17T16:45:23Z</time>
      </trkpt>
      <trkpt lat="43.99046" lon="7.66606">
        <ele>1807</ele>
        <time>2017-09-17T16:45:24Z</time>
      </trkpt>
      <trkpt lat="43.99039" lon="7.66613">
        <ele>1807</ele>
        <time>2017-09-17T16:45:25Z</time>
      </trkpt>
      <trkpt lat="43.99031" lon="7.66621">
        <ele>1806</ele>
        <time>2017-09-17T16:45:26Z</time>
      </trkpt>
      <trkpt lat="43.99024" lon="7.66628">
        <ele>1805</ele>
        <time>2017-09-17T16:45:27Z</time>
      </trkpt>
      <trkpt lat="43.99018" lon="7.66637">
        <ele>1804</ele>
        <time>2017-09-17T16:45:28Z</time>
      </trkpt>
      <trkpt lat="43.99013" lon="7.66646">
        <ele>1804</ele>
        <time>2017-09-17T16:45:29Z</time>
      </trkpt>
      <trkpt lat="43.99007" lon="7.66656">
        <ele>1803</ele>
        <time>2017-09-17T16:45:30Z</time>
      </trkpt>
      <trkpt lat="43.99001" lon="7.66665">
        <ele>1802</ele>
        <time>2017-09-17T16:45:31Z</time>
      </trkpt>
      <trkpt lat="43.98995" lon="7.66673">
        <ele>1801</ele>
        <time>2017-09-17T16:45:32Z</time>
      </trkpt>
      <trkpt lat="43.98988" lon="7.6668">
        <ele>1800</ele>
        <time>2017-09-17T16:45:33Z</time>
      </trkpt>
      <trkpt lat="43.98982" lon="7.66686">
        <ele>1799</ele>
        <time>2017-09-17T16:45:34Z</time>
      </trkpt>
      <trkpt lat="43.98976" lon="7.66691">
        <ele>1799</ele>
        <time>2017-09-17T16:45:35Z</time>
      </trkpt>
      <trkpt lat="43.98971" lon="7.66697">
        <ele>1798</ele>
        <time>2017-09-17T16:45:36Z</time>
      </trkpt>
      <trkpt lat="43.98969" lon="7.66703">
        <ele>1798</ele>
        <time>2017-09-17T16:45:37Z</time>
      </trkpt>
      <trkpt lat="43.98969" lon="7.66709">
        <ele>1798</ele>
        <time>2017-09-17T16:45:38Z</time>
      </trkpt>
      <trkpt lat="43.98971" lon="7.66714">
        <ele>1797</ele>
        <time>2017-09-17T16:45:39Z</time>
      </trkpt>
      <trkpt lat="43.98975" lon="7.66716">
        <ele>1797</ele>
        <time>2017-09-17T16:45:40Z</time>
      </trkpt>
      <trkpt lat="43.98979" lon="7.66714">
        <ele>1797</ele>
        <time>2017-09-17T16:45:41Z</time>
      </trkpt>
      <trkpt lat="43.98983" lon="7.6671">
        <ele>1796</ele>
        <time>2017-09-17T16:45:42Z</time>
      </trkpt>
      <trkpt lat="43.98987" lon="7.66706">
        <ele>1796</ele>
        <time>2017-09-17T16:45:43Z</time>
      </trkpt>
      <trkpt lat="43.9899" lon="7.66701">
        <ele>1796</ele>
        <time>2017-09-17T16:45:44Z</time>
      </trkpt>
      <trkpt lat="43.98993" lon="7.66696">
        <ele>1795</ele>
        <time>2017-09-17T16:45:45Z</time>
      </trkpt>
      <trkpt lat="43.98997" lon="7.66692">
        <ele>1795</ele>
        <time>2017-09-17T16:45:46Z</time>
      </trkpt>
      <trkpt lat="43.99001" lon="7.66687">
        <ele>1795</ele>
        <time>2017-09-17T16:45:47Z</time>
      </trkpt>
      <trkpt lat="43.99005" lon="7.66682">
        <ele>1794</ele>
        <time>2017-09-17T16:45:48Z</time>
      </trkpt>
      <trkpt lat="43.9901" lon="7.66677">
        <ele>1794</ele>
        <time>2017-09-17T16:45:49Z</time>
      </trkpt>
      <trkpt lat="43.99014" lon="7.66672">
        <ele>1794</ele>
        <time>2017-09-17T16:45:50Z</time>
      </trkpt>
      <trkpt lat="43.99019" lon="7.66666">
        <ele>1794</ele>
        <time>2017-09-17T16:45:51Z</time>
      </trkpt>
      <trkpt lat="43.99024" lon="7.66661">
        <ele>1793</ele>
        <time>2017-09-17T16:45:52Z</time>
      </trkpt>
      <trkpt lat="43.99029" lon="7.66655">
        <ele>1793</ele>
        <time>2017-09-17T16:45:53Z</time>
      </trkpt>
      <trkpt lat="43.99035" lon="7.6665">
        <ele>1792</ele>
        <time>2017-09-17T16:45:54Z</time>
      </trkpt>
      <trkpt lat="43.99041" lon="7.66645">
        <ele>1792</ele>
        <time>2017-09-17T16:45:55Z</time>
      </trkpt>
      <trkpt lat="43.99047" lon="7.66641">
        <ele>1792</ele>
        <time>2017-09-17T16:45:56Z</time>
      </trkpt>
      <trkpt lat="43.99053" lon="7.66637">
        <ele>1791</ele>
        <time>2017-09-17T16:45:57Z</time>
      </trkpt>
      <trkpt lat="43.99059" lon="7.66633">
        <ele>1791</ele>
        <time>2017-09-17T16:45:58Z</time>
      </trkpt>
      <trkpt lat="43.99065" lon="7.66629">
        <ele>1790</ele>
        <time>2017-09-17T16:45:59Z</time>
      </trkpt>
      <trkpt lat="43.99071" lon="7.66624">
        <ele>1790</ele>
        <time>2017-09-17T16:46:00Z</time>
      </trkpt>
      <trkpt lat="43.99078" lon="7.66621">
        <ele>1790</ele>
        <time>2017-09-17T16:46:01Z</time>
      </trkpt>
      <trkpt lat="43.99085" lon="7.66618">
        <ele>1789</ele>
        <time>2017-09-17T16:46:02Z</time>
      </trkpt>
      <trkpt lat="43.99092" lon="7.66614">
        <ele>1789</ele>
        <time>2017-09-17T16:46:03Z</time>
      </trkpt>
      <trkpt lat="43.99098" lon="7.66609">
        <ele>1789</ele>
        <time>2017-09-17T16:46:04Z</time>
      </trkpt>
      <trkpt lat="43.99105" lon="7.66605">
        <ele>1789</ele>
        <time>2017-09-17T16:46:05Z</time>
      </trkpt>
      <trkpt lat="43.99111" lon="7.666">
        <ele>1788</ele>
        <time>2017-09-17T16:46:06Z</time>
      </trkpt>
      <trkpt lat="43.99118" lon="7.66595">
        <ele>1788</ele>
        <time>2017-09-17T16:46:07Z</time>
      </trkpt>
      <trkpt lat="43.99125" lon="7.66589">
        <ele>1787</ele>
        <time>2017-09-17T16:46:08Z</time>
      </trkpt>
      <trkpt lat="43.99131" lon="7.66583">
        <ele>1787</ele>
        <time>2017-09-17T16:46:09Z</time>
      </trkpt>
      <trkpt lat="43.99137" lon="7.66576">
        <ele>1786</ele>
        <time>2017-09-17T16:46:10Z</time>
      </trkpt>
      <trkpt lat="43.99144" lon="7.6657">
        <ele>1786</ele>
        <time>2017-09-17T16:46:11Z</time>
      </trkpt>
      <trkpt lat="43.9915" lon="7.66563">
        <ele>1785</ele>
        <time>2017-09-17T16:46:12Z</time>
      </trkpt>
      <trkpt lat="43.99156" lon="7.66556">
        <ele>1785</ele>
        <time>2017-09-17T16:46:13Z</time>
      </trkpt>
      <trkpt lat="43.99162" lon="7.6655">
        <ele>1784</ele>
        <time>2017-09-17T16:46:14Z</time>
      </trkpt>
      <trkpt lat="43.99169" lon="7.66547">
        <ele>1784</ele>
        <time>2017-09-17T16:46:15Z</time>
      </trkpt>
      <trkpt lat="43.99176" lon="7.66546">
        <ele>1783</ele>
        <time>2017-09-17T16:46:16Z</time>
      </trkpt>
      <trkpt lat="43.99183" lon="7.66547">
        <ele>1783</ele>
        <time>2017-09-17T16:46:17Z</time>
      </trkpt>
      <trkpt lat="43.99189" lon="7.66552">
        <ele>1783</ele>
        <time>2017-09-17T16:46:18Z</time>
      </trkpt>
      <trkpt lat="43.99194" lon="7.66558">
        <ele>1782</ele>
        <time>2017-09-17T16:46:19Z</time>
      </trkpt>
      <trkpt lat="43.99197" lon="7.66565">
        <ele>1782</ele>
        <time>2017-09-17T16:46:20Z</time>
      </trkpt>
      <trkpt lat="43.992" lon="7.66573">
        <ele>1781</ele>
        <time>2017-09-17T16:46:21Z</time>
      </trkpt>
      <trkpt lat="43.99204" lon="7.6658">
        <ele>1781</ele>
        <time>2017-09-17T16:46:22Z</time>
      </trkpt>
      <trkpt lat="43.99209" lon="7.66588">
        <ele>1781</ele>
        <time>2017-09-17T16:46:23Z</time>
      </trkpt>
      <trkpt lat="43.99214" lon="7.66595">
        <ele>1780</ele>
        <time>2017-09-17T16:46:24Z</time>
      </trkpt>
      <trkpt lat="43.9922" lon="7.66602">
        <ele>1779</ele>
        <time>2017-09-17T16:46:25Z</time>
      </trkpt>
      <trkpt lat="43.99225" lon="7.66609">
        <ele>1779</ele>
        <time>2017-09-17T16:46:26Z</time>
      </trkpt>
      <trkpt lat="43.9923" lon="7.66616">
        <ele>1778</ele>
        <time>2017-09-17T16:46:27Z</time>
      </trkpt>
      <trkpt lat="43.99236" lon="7.66624">
        <ele>1777</ele>
        <time>2017-09-17T16:46:28Z</time>
      </trkpt>
      <trkpt lat="43.99241" lon="7.66632">
        <ele>1777</ele>
        <time>2017-09-17T16:46:29Z</time>
      </trkpt>
      <trkpt lat="43.99247" lon="7.66639">
        <ele>1776</ele>
        <time>2017-09-17T16:46:30Z</time>
      </trkpt>
      <trkpt lat="43.99254" lon="7.66646">
        <ele>1775</ele>
        <time>2017-09-17T16:46:31Z</time>
      </trkpt>
      <trkpt lat="43.9926" lon="7.66652">
        <ele>1774</ele>
        <time>2017-09-17T16:46:32Z</time>
      </trkpt>
      <trkpt lat="43.99267" lon="7.66658">
        <ele>1774</ele>
        <time>2017-09-17T16:46:33Z</time>
      </trkpt>
      <trkpt lat="43.99274" lon="7.66664">
        <ele>1773</ele>
        <time>2017-09-17T16:46:34Z</time>
      </trkpt>
      <trkpt lat="43.99279" lon="7.6667">
        <ele>1772</ele>
        <time>2017-09-17T16:46:35Z</time>
      </trkpt>
      <trkpt lat="43.99284" lon="7.66678">
        <ele>1772</ele>
        <time>2017-09-17T16:46:36Z</time>
      </trkpt>
      <trkpt lat="43.99288" lon="7.66687">
        <ele>1771</ele>
        <time>2017-09-17T16:46:37Z</time>
      </trkpt>
      <trkpt lat="43.99292" lon="7.66696">
        <ele>1770</ele>
        <time>2017-09-17T16:46:38Z</time>
      </trkpt>
      <trkpt lat="43.99295" lon="7.66705">
        <ele>1770</ele>
        <time>2017-09-17T16:46:39Z</time>
      </trkpt>
      <trkpt lat="43.99299" lon="7.66714">
        <ele>1769</ele>
        <time>2017-09-17T16:46:40Z</time>
      </trkpt>
      <trkpt lat="43.99302" lon="7.66723">
        <ele>1768</ele>
        <time>2017-09-17T16:46:41Z</time>
      </trkpt>
      <trkpt lat="43.99305" lon="7.66732">
        <ele>1768</ele>
        <time>2017-09-17T16:46:42Z</time>
      </trkpt>
      <trkpt lat="43.99308" lon="7.66742">
        <ele>1767</ele>
        <time>2017-09-17T16:46:43Z</time>
      </trkpt>
      <trkpt lat="43.9931" lon="7.66753">
        <ele>1766</ele>
        <time>2017-09-17T16:46:44Z</time>
      </trkpt>
      <trkpt lat="43.99312" lon="7.66763">
        <ele>1766</ele>
        <time>2017-09-17T16:46:45Z</time>
      </trkpt>
      <trkpt lat="43.99315" lon="7.66773">
        <ele>1765</ele>
        <time>2017-09-17T16:46:46Z</time>
      </trkpt>
      <trkpt lat="43.99317" lon="7.66784">
        <ele>1764</ele>
        <time>2017-09-17T16:46:47Z</time>
      </trkpt>
      <trkpt lat="43.99319" lon="7.66796">
        <ele>1764</ele>
        <time>2017-09-17T16:46:48Z</time>
      </trkpt>
      <trkpt lat="43.99322" lon="7.66808">
        <ele>1763</ele>
        <time>2017-09-17T16:46:49Z</time>
      </trkpt>
      <trkpt lat="43.99324" lon="7.66819">
        <ele>1762</ele>
        <time>2017-09-17T16:46:50Z</time>
      </trkpt>
      <trkpt lat="43.99326" lon="7.6683">
        <ele>1762</ele>
        <time>2017-09-17T16:46:51Z</time>
      </trkpt>
      <trkpt lat="43.99328" lon="7.66838">
        <ele>1761</ele>
        <time>2017-09-17T16:46:52Z</time>
      </trkpt>
      <trkpt lat="43.99331" lon="7.66845">
        <ele>1761</ele>
        <time>2017-09-17T16:46:53Z</time>
      </trkpt>
      <trkpt lat="43.99334" lon="7.66849">
        <ele>1760</ele>
        <time>2017-09-17T16:46:54Z</time>
      </trkpt>
      <trkpt lat="43.9934" lon="7.66851">
        <ele>1760</ele>
        <time>2017-09-17T16:46:55Z</time>
      </trkpt>
      <trkpt lat="43.99345" lon="7.66849">
        <ele>1760</ele>
        <time>2017-09-17T16:46:56Z</time>
      </trkpt>
      <trkpt lat="43.9935" lon="7.66847">
        <ele>1760</ele>
        <time>2017-09-17T16:46:57Z</time>
      </trkpt>
      <trkpt lat="43.99356" lon="7.66847">
        <ele>1759</ele>
        <time>2017-09-17T16:46:58Z</time>
      </trkpt>
      <trkpt lat="43.99362" lon="7.66849">
        <ele>1759</ele>
        <time>2017-09-17T16:46:59Z</time>
      </trkpt>
      <trkpt lat="43.99367" lon="7.66854">
        <ele>1759</ele>
        <time>2017-09-17T16:47:00Z</time>
      </trkpt>
      <trkpt lat="43.99372" lon="7.6686">
        <ele>1758</ele>
        <time>2017-09-17T16:47:01Z</time>
      </trkpt>
      <trkpt lat="43.99376" lon="7.66868">
        <ele>1757</ele>
        <time>2017-09-17T16:47:02Z</time>
      </trkpt>
      <trkpt lat="43.9938" lon="7.66876">
        <ele>1757</ele>
        <time>2017-09-17T16:47:03Z</time>
      </trkpt>
      <trkpt lat="43.99385" lon="7.66882">
        <ele>1756</ele>
        <time>2017-09-17T16:47:04Z</time>
      </trkpt>
      <trkpt lat="43.99389" lon="7.66887">
        <ele>1756</ele>
        <time>2017-09-17T16:47:05Z</time>
      </trkpt>
      <trkpt lat="43.99395" lon="7.66888">
        <ele>1755</ele>
        <time>2017-09-17T16:47:06Z</time>
      </trkpt>
      <trkpt lat="43.994" lon="7.66886">
        <ele>1755</ele>
        <time>2017-09-17T16:47:07Z</time>
      </trkpt>
      <trkpt lat="43.99405" lon="7.66882">
        <ele>1755</ele>
        <time>2017-09-17T16:47:08Z</time>
      </trkpt>
      <trkpt lat="43.9941" lon="7.66878">
        <ele>1754</ele>
        <time>2017-09-17T16:47:09Z</time>
      </trkpt>
      <trkpt lat="43.99416" lon="7.66876">
        <ele>1754</ele>
        <time>2017-09-17T16:47:10Z</time>
      </trkpt>
      <trkpt lat="43.99422" lon="7.66876">
        <ele>1754</ele>
        <time>2017-09-17T16:47:11Z</time>
      </trkpt>
      <trkpt lat="43.99428" lon="7.66878">
        <ele>1753</ele>
        <time>2017-09-17T16:47:12Z</time>
      </trkpt>
      <trkpt lat="43.99433" lon="7.66882">
        <ele>1753</ele>
        <time>2017-09-17T16:47:13Z</time>
      </trkpt>
      <trkpt lat="43.99437" lon="7.66887">
        <ele>1753</ele>
        <time>2017-09-17T16:47:14Z</time>
      </trkpt>
      <trkpt lat="43.9944" lon="7.66894">
        <ele>1753</ele>
        <time>2017-09-17T16:47:15Z</time>
      </trkpt>
      <trkpt lat="43.99442" lon="7.66902">
        <ele>1753</ele>
        <time>2017-09-17T16:47:16Z</time>
      </trkpt>
      <trkpt lat="43.99441" lon="7.66909">
        <ele>1752</ele>
        <time>2017-09-17T16:47:17Z</time>
      </trkpt>
      <trkpt lat="43.9944" lon="7.66918">
        <ele>1752</ele>
        <time>2017-09-17T16:47:18Z</time>
      </trkpt>
      <trkpt lat="43.9944" lon="7.66926">
        <ele>1752</ele>
        <time>2017-09-17T16:47:19Z</time>
      </trkpt>
      <trkpt lat="43.9944" lon="7.66934">
        <ele>1751</ele>
        <time>2017-09-17T16:47:20Z</time>
      </trkpt>
      <trkpt lat="43.9944" lon="7.66943">
        <ele>1750</ele>
        <time>2017-09-17T16:47:21Z</time>
      </trkpt>
      <trkpt lat="43.9944" lon="7.66953">
        <ele>1750</ele>
        <time>2017-09-17T16:47:22Z</time>
      </trkpt>
      <trkpt lat="43.99441" lon="7.66962">
        <ele>1749</ele>
        <time>2017-09-17T16:47:23Z</time>
      </trkpt>
      <trkpt lat="43.99442" lon="7.66973">
        <ele>1748</ele>
        <time>2017-09-17T16:47:24Z</time>
      </trkpt>
      <trkpt lat="43.99443" lon="7.66984">
        <ele>1748</ele>
        <time>2017-09-17T16:47:25Z</time>
      </trkpt>
      <trkpt lat="43.99445" lon="7.66995">
        <ele>1747</ele>
        <time>2017-09-17T16:47:26Z</time>
      </trkpt>
      <trkpt lat="43.99446" lon="7.67007">
        <ele>1746</ele>
        <time>2017-09-17T16:47:27Z</time>
      </trkpt>
      <trkpt lat="43.99448" lon="7.67018">
        <ele>1746</ele>
        <time>2017-09-17T16:47:28Z</time>
      </trkpt>
      <trkpt lat="43.9945" lon="7.67028">
        <ele>1745</ele>
        <time>2017-09-17T16:47:29Z</time>
      </trkpt>
      <trkpt lat="43.99453" lon="7.67038">
        <ele>1745</ele>
        <time>2017-09-17T16:47:30Z</time>
      </trkpt>
      <trkpt lat="43.99454" lon="7.67047">
        <ele>1744</ele>
        <time>2017-09-17T16:47:31Z</time>
      </trkpt>
      <trkpt lat="43.99455" lon="7.67056">
        <ele>1744</ele>
        <time>2017-09-17T16:47:32Z</time>
      </trkpt>
      <trkpt lat="43.99454" lon="7.67065">
        <ele>1743</ele>
        <time>2017-09-17T16:47:33Z</time>
      </trkpt>
      <trkpt lat="43.99453" lon="7.67075">
        <ele>1742</ele>
        <time>2017-09-17T16:47:34Z</time>
      </trkpt>
      <trkpt lat="43.99452" lon="7.67085">
        <ele>1741</ele>
        <time>2017-09-17T16:47:35Z</time>
      </trkpt>
      <trkpt lat="43.9945" lon="7.67095">
        <ele>1741</ele>
        <time>2017-09-17T16:47:36Z</time>
      </trkpt>
      <trkpt lat="43.99448" lon="7.67105">
        <ele>1740</ele>
        <time>2017-09-17T16:47:37Z</time>
      </trkpt>
      <trkpt lat="43.99446" lon="7.67115">
        <ele>1739</ele>
        <time>2017-09-17T16:47:38Z</time>
      </trkpt>
      <trkpt lat="43.99445" lon="7.67124">
        <ele>1738</ele>
        <time>2017-09-17T16:47:39Z</time>
      </trkpt>
      <trkpt lat="43.99443" lon="7.67133">
        <ele>1738</ele>
        <time>2017-09-17T16:47:40Z</time>
      </trkpt>
      <trkpt lat="43.9944" lon="7.67139">
        <ele>1737</ele>
        <time>2017-09-17T16:47:41Z</time>
      </trkpt>
      <trkpt lat="43.99435" lon="7.67145">
        <ele>1737</ele>
        <time>2017-09-17T16:47:42Z</time>
      </trkpt>
      <trkpt lat="43.99431" lon="7.6715">
        <ele>1736</ele>
        <time>2017-09-17T16:47:43Z</time>
      </trkpt>
      <trkpt lat="43.99426" lon="7.67155">
        <ele>1735</ele>
        <time>2017-09-17T16:47:44Z</time>
      </trkpt>
      <trkpt lat="43.9942" lon="7.6716">
        <ele>1735</ele>
        <time>2017-09-17T16:47:45Z</time>
      </trkpt>
      <trkpt lat="43.99414" lon="7.67164">
        <ele>1734</ele>
        <time>2017-09-17T16:47:46Z</time>
      </trkpt>
      <trkpt lat="43.99408" lon="7.6717">
        <ele>1733</ele>
        <time>2017-09-17T16:47:47Z</time>
      </trkpt>
      <trkpt lat="43.99403" lon="7.67175">
        <ele>1733</ele>
        <time>2017-09-17T16:47:48Z</time>
      </trkpt>
      <trkpt lat="43.99397" lon="7.67181">
        <ele>1732</ele>
        <time>2017-09-17T16:47:49Z</time>
      </trkpt>
      <trkpt lat="43.99393" lon="7.67187">
        <ele>1731</ele>
        <time>2017-09-17T16:47:50Z</time>
      </trkpt>
      <trkpt lat="43.99388" lon="7.67192">
        <ele>1731</ele>
        <time>2017-09-17T16:47:51Z</time>
      </trkpt>
      <trkpt lat="43.99385" lon="7.67198">
        <ele>1730</ele>
        <time>2017-09-17T16:47:52Z</time>
      </trkpt>
      <trkpt lat="43.99384" lon="7.67205">
        <ele>1729</ele>
        <time>2017-09-17T16:47:53Z</time>
      </trkpt>
      <trkpt lat="43.99384" lon="7.67212">
        <ele>1729</ele>
        <time>2017-09-17T16:47:54Z</time>
      </trkpt>
      <trkpt lat="43.99385" lon="7.6722">
        <ele>1728</ele>
        <time>2017-09-17T16:47:55Z</time>
      </trkpt>
      <trkpt lat="43.99385" lon="7.67229">
        <ele>1727</ele>
        <time>2017-09-17T16:47:56Z</time>
      </trkpt>
      <trkpt lat="43.99386" lon="7.67237">
        <ele>1727</ele>
        <time>2017-09-17T16:47:57Z</time>
      </trkpt>
      <trkpt lat="43.99388" lon="7.67246">
        <ele>1726</ele>
        <time>2017-09-17T16:47:58Z</time>
      </trkpt>
      <trkpt lat="43.99388" lon="7.67256">
        <ele>1726</ele>
        <time>2017-09-17T16:47:59Z</time>
      </trkpt>
      <trkpt lat="43.99389" lon="7.67266">
        <ele>1725</ele>
        <time>2017-09-17T16:48:00Z</time>
      </trkpt>
      <trkpt lat="43.9939" lon="7.67276">
        <ele>1724</ele>
        <time>2017-09-17T16:48:01Z</time>
      </trkpt>
      <trkpt lat="43.99391" lon="7.67286">
        <ele>1724</ele>
        <time>2017-09-17T16:48:02Z</time>
      </trkpt>
      <trkpt lat="43.99392" lon="7.67297">
        <ele>1723</ele>
        <time>2017-09-17T16:48:03Z</time>
      </trkpt>
      <trkpt lat="43.99392" lon="7.67307">
        <ele>1723</ele>
        <time>2017-09-17T16:48:04Z</time>
      </trkpt>
      <trkpt lat="43.99394" lon="7.67316">
        <ele>1722</ele>
        <time>2017-09-17T16:48:05Z</time>
      </trkpt>
      <trkpt lat="43.99396" lon="7.67325">
        <ele>1721</ele>
        <time>2017-09-17T16:48:06Z</time>
      </trkpt>
      <trkpt lat="43.99399" lon="7.67335">
        <ele>1721</ele>
        <time>2017-09-17T16:48:07Z</time>
      </trkpt>
      <trkpt lat="43.99402" lon="7.67344">
        <ele>1720</ele>
        <time>2017-09-17T16:48:08Z</time>
      </trkpt>
      <trkpt lat="43.99406" lon="7.67353">
        <ele>1719</ele>
        <time>2017-09-17T16:48:09Z</time>
      </trkpt>
      <trkpt lat="43.99408" lon="7.67361">
        <ele>1719</ele>
        <time>2017-09-17T16:48:10Z</time>
      </trkpt>
      <trkpt lat="43.99409" lon="7.67369">
        <ele>1718</ele>
        <time>2017-09-17T16:48:11Z</time>
      </trkpt>
      <trkpt lat="43.99409" lon="7.67378">
        <ele>1718</ele>
        <time>2017-09-17T16:48:12Z</time>
      </trkpt>
      <trkpt lat="43.99407" lon="7.67386">
        <ele>1717</ele>
        <time>2017-09-17T16:48:13Z</time>
      </trkpt>
      <trkpt lat="43.99404" lon="7.67394">
        <ele>1717</ele>
        <time>2017-09-17T16:48:14Z</time>
      </trkpt>
      <trkpt lat="43.99402" lon="7.67402">
        <ele>1716</ele>
        <time>2017-09-17T16:48:15Z</time>
      </trkpt>
      <trkpt lat="43.99399" lon="7.6741">
        <ele>1716</ele>
        <time>2017-09-17T16:48:16Z</time>
      </trkpt>
      <trkpt lat="43.99396" lon="7.67418">
        <ele>1715</ele>
        <time>2017-09-17T16:48:17Z</time>
      </trkpt>
      <trkpt lat="43.99393" lon="7.67427">
        <ele>1715</ele>
        <time>2017-09-17T16:48:18Z</time>
      </trkpt>
      <trkpt lat="43.9939" lon="7.67436">
        <ele>1714</ele>
        <time>2017-09-17T16:48:19Z</time>
      </trkpt>
      <trkpt lat="43.99388" lon="7.67446">
        <ele>1714</ele>
        <time>2017-09-17T16:48:20Z</time>
      </trkpt>
      <trkpt lat="43.99386" lon="7.67456">
        <ele>1713</ele>
        <time>2017-09-17T16:48:21Z</time>
      </trkpt>
      <trkpt lat="43.99385" lon="7.67466">
        <ele>1712</ele>
        <time>2017-09-17T16:48:22Z</time>
      </trkpt>
      <trkpt lat="43.99385" lon="7.67477">
        <ele>1712</ele>
        <time>2017-09-17T16:48:23Z</time>
      </trkpt>
      <trkpt lat="43.99385" lon="7.67488">
        <ele>1711</ele>
        <time>2017-09-17T16:48:24Z</time>
      </trkpt>
      <trkpt lat="43.99384" lon="7.67498">
        <ele>1711</ele>
        <time>2017-09-17T16:48:25Z</time>
      </trkpt>
      <trkpt lat="43.99383" lon="7.67509">
        <ele>1710</ele>
        <time>2017-09-17T16:48:26Z</time>
      </trkpt>
      <trkpt lat="43.99382" lon="7.6752">
        <ele>1710</ele>
        <time>2017-09-17T16:48:27Z</time>
      </trkpt>
      <trkpt lat="43.99381" lon="7.6753">
        <ele>1709</ele>
        <time>2017-09-17T16:48:28Z</time>
      </trkpt>
      <trkpt lat="43.9938" lon="7.67541">
        <ele>1709</ele>
        <time>2017-09-17T16:48:29Z</time>
      </trkpt>
      <trkpt lat="43.99379" lon="7.67551">
        <ele>1708</ele>
        <time>2017-09-17T16:48:30Z</time>
      </trkpt>
      <trkpt lat="43.9938" lon="7.6756">
        <ele>1708</ele>
        <time>2017-09-17T16:48:31Z</time>
      </trkpt>
      <trkpt lat="43.99382" lon="7.67569">
        <ele>1708</ele>
        <time>2017-09-17T16:48:32Z</time>
      </trkpt>
      <trkpt lat="43.99386" lon="7.67575">
        <ele>1707</ele>
        <time>2017-09-17T16:48:33Z</time>
      </trkpt>
      <trkpt lat="43.99391" lon="7.67578">
        <ele>1707</ele>
        <time>2017-09-17T16:48:34Z</time>
      </trkpt>
      <trkpt lat="43.99398" lon="7.67577">
        <ele>1707</ele>
        <time>2017-09-17T16:48:35Z</time>
      </trkpt>
      <trkpt lat="43.99404" lon="7.67574">
        <ele>1707</ele>
        <time>2017-09-17T16:48:36Z</time>
      </trkpt>
      <trkpt lat="43.9941" lon="7.67571">
        <ele>1706</ele>
        <time>2017-09-17T16:48:37Z</time>
      </trkpt>
      <trkpt lat="43.99416" lon="7.67571">
        <ele>1706</ele>
        <time>2017-09-17T16:48:38Z</time>
      </trkpt>
      <trkpt lat="43.99421" lon="7.67575">
        <ele>1706</ele>
        <time>2017-09-17T16:48:39Z</time>
      </trkpt>
      <trkpt lat="43.99425" lon="7.67582">
        <ele>1706</ele>
        <time>2017-09-17T16:48:40Z</time>
      </trkpt>
      <trkpt lat="43.99428" lon="7.67588">
        <ele>1706</ele>
        <time>2017-09-17T16:48:41Z</time>
      </trkpt>
      <trkpt lat="43.99432" lon="7.67595">
        <ele>1706</ele>
        <time>2017-09-17T16:48:42Z</time>
      </trkpt>
      <trkpt lat="43.99436" lon="7.676">
        <ele>1705</ele>
        <time>2017-09-17T16:48:43Z</time>
      </trkpt>
      <trkpt lat="43.9944" lon="7.67604">
        <ele>1705</ele>
        <time>2017-09-17T16:48:44Z</time>
      </trkpt>
      <trkpt lat="43.99444" lon="7.67609">
        <ele>1705</ele>
        <time>2017-09-17T16:48:45Z</time>
      </trkpt>
      <trkpt lat="43.99447" lon="7.67614">
        <ele>1705</ele>
        <time>2017-09-17T16:48:46Z</time>
      </trkpt>
      <trkpt lat="43.99447" lon="7.6762">
        <ele>1705</ele>
        <time>2017-09-17T16:48:47Z</time>
      </trkpt>
      <trkpt lat="43.99444" lon="7.67623">
        <ele>1705</ele>
        <time>2017-09-17T16:48:48Z</time>
      </trkpt>
      <trkpt lat="43.9944" lon="7.67624">
        <ele>1705</ele>
        <time>2017-09-17T16:48:49Z</time>
      </trkpt>
      <trkpt lat="43.99436" lon="7.6762">
        <ele>1705</ele>
        <time>2017-09-17T16:48:50Z</time>
      </trkpt>
      <trkpt lat="43.99433" lon="7.67613">
        <ele>1704</ele>
        <time>2017-09-17T16:48:51Z</time>
      </trkpt>
      <trkpt lat="43.9943" lon="7.67606">
        <ele>1704</ele>
        <time>2017-09-17T16:48:52Z</time>
      </trkpt>
      <trkpt lat="43.99428" lon="7.67598">
        <ele>1704</ele>
        <time>2017-09-17T16:48:53Z</time>
      </trkpt>
      <trkpt lat="43.99424" lon="7.6759">
        <ele>1703</ele>
        <time>2017-09-17T16:48:54Z</time>
      </trkpt>
      <trkpt lat="43.9942" lon="7.67584">
        <ele>1703</ele>
        <time>2017-09-17T16:48:55Z</time>
      </trkpt>
      <trkpt lat="43.99415" lon="7.6758">
        <ele>1703</ele>
        <time>2017-09-17T16:48:56Z</time>
      </trkpt>
      <trkpt lat="43.9941" lon="7.67581">
        <ele>1703</ele>
        <time>2017-09-17T16:48:57Z</time>
      </trkpt>
      <trkpt lat="43.99405" lon="7.67583">
        <ele>1702</ele>
        <time>2017-09-17T16:48:58Z</time>
      </trkpt>
      <trkpt lat="43.99399" lon="7.67587">
        <ele>1702</ele>
        <time>2017-09-17T16:48:59Z</time>
      </trkpt>
      <trkpt lat="43.99394" lon="7.6759">
        <ele>1702</ele>
        <time>2017-09-17T16:49:00Z</time>
      </trkpt>
      <trkpt lat="43.99389" lon="7.67591">
        <ele>1702</ele>
        <time>2017-09-17T16:49:01Z</time>
      </trkpt>
      <trkpt lat="43.99383" lon="7.67589">
        <ele>1701</ele>
        <time>2017-09-17T16:49:02Z</time>
      </trkpt>
      <trkpt lat="43.99377" lon="7.67586">
        <ele>1701</ele>
        <time>2017-09-17T16:49:03Z</time>
      </trkpt>
      <trkpt lat="43.99372" lon="7.67581">
        <ele>1700</ele>
        <time>2017-09-17T16:49:04Z</time>
      </trkpt>
      <trkpt lat="43.99368" lon="7.67575">
        <ele>1699</ele>
        <time>2017-09-17T16:49:05Z</time>
      </trkpt>
      <trkpt lat="43.99366" lon="7.67568">
        <ele>1699</ele>
        <time>2017-09-17T16:49:06Z</time>
      </trkpt>
      <trkpt lat="43.99365" lon="7.67559">
        <ele>1698</ele>
        <time>2017-09-17T16:49:07Z</time>
      </trkpt>
      <trkpt lat="43.99365" lon="7.67551">
        <ele>1698</ele>
        <time>2017-09-17T16:49:08Z</time>
      </trkpt>
      <trkpt lat="43.99365" lon="7.67541">
        <ele>1697</ele>
        <time>2017-09-17T16:49:09Z</time>
      </trkpt>
      <trkpt lat="43.99366" lon="7.67532">
        <ele>1696</ele>
        <time>2017-09-17T16:49:10Z</time>
      </trkpt>
      <trkpt lat="43.99366" lon="7.67522">
        <ele>1696</ele>
        <time>2017-09-17T16:49:11Z</time>
      </trkpt>
      <trkpt lat="43.99366" lon="7.67512">
        <ele>1695</ele>
        <time>2017-09-17T16:49:12Z</time>
      </trkpt>
      <trkpt lat="43.99367" lon="7.67502">
        <ele>1694</ele>
        <time>2017-09-17T16:49:13Z</time>
      </trkpt>
      <trkpt lat="43.99367" lon="7.67493">
        <ele>1694</ele>
        <time>2017-09-17T16:49:14Z</time>
      </trkpt>
      <trkpt lat="43.99365" lon="7.67483">
        <ele>1693</ele>
        <time>2017-09-17T16:49:15Z</time>
      </trkpt>
      <trkpt lat="43.99363" lon="7.67473">
        <ele>1692</ele>
        <time>2017-09-17T16:49:16Z</time>
      </trkpt>
      <trkpt lat="43.99361" lon="7.67463">
        <ele>1692</ele>
        <time>2017-09-17T16:49:17Z</time>
      </trkpt>
      <trkpt lat="43.9936" lon="7.67453">
        <ele>1691</ele>
        <time>2017-09-17T16:49:18Z</time>
      </trkpt>
      <trkpt lat="43.99359" lon="7.67443">
        <ele>1690</ele>
        <time>2017-09-17T16:49:19Z</time>
      </trkpt>
      <trkpt lat="43.9936" lon="7.67432">
        <ele>1689</ele>
        <time>2017-09-17T16:49:20Z</time>
      </trkpt>
      <trkpt lat="43.99361" lon="7.67421">
        <ele>1688</ele>
        <time>2017-09-17T16:49:21Z</time>
      </trkpt>
      <trkpt lat="43.99363" lon="7.6741">
        <ele>1688</ele>
        <time>2017-09-17T16:49:22Z</time>
      </trkpt>
      <trkpt lat="43.99365" lon="7.674">
        <ele>1687</ele>
        <time>2017-09-17T16:49:23Z</time>
      </trkpt>
      <trkpt lat="43.99367" lon="7.67392">
        <ele>1686</ele>
        <time>2017-09-17T16:49:24Z</time>
      </trkpt>
      <trkpt lat="43.99369" lon="7.67384">
        <ele>1686</ele>
        <time>2017-09-17T16:49:25Z</time>
      </trkpt>
      <trkpt lat="43.99368" lon="7.67376">
        <ele>1685</ele>
        <time>2017-09-17T16:49:26Z</time>
      </trkpt>
      <trkpt lat="43.99366" lon="7.67368">
        <ele>1685</ele>
        <time>2017-09-17T16:49:27Z</time>
      </trkpt>
      <trkpt lat="43.99363" lon="7.6736">
        <ele>1684</ele>
        <time>2017-09-17T16:49:28Z</time>
      </trkpt>
      <trkpt lat="43.99359" lon="7.67353">
        <ele>1684</ele>
        <time>2017-09-17T16:49:29Z</time>
      </trkpt>
      <trkpt lat="43.99355" lon="7.67345">
        <ele>1684</ele>
        <time>2017-09-17T16:49:30Z</time>
      </trkpt>
      <trkpt lat="43.99352" lon="7.67337">
        <ele>1683</ele>
        <time>2017-09-17T16:49:31Z</time>
      </trkpt>
      <trkpt lat="43.99349" lon="7.67328">
        <ele>1682</ele>
        <time>2017-09-17T16:49:32Z</time>
      </trkpt>
      <trkpt lat="43.99347" lon="7.67318">
        <ele>1682</ele>
        <time>2017-09-17T16:49:33Z</time>
      </trkpt>
      <trkpt lat="43.99344" lon="7.67308">
        <ele>1681</ele>
        <time>2017-09-17T16:49:34Z</time>
      </trkpt>
      <trkpt lat="43.99342" lon="7.67298">
        <ele>1681</ele>
        <time>2017-09-17T16:49:35Z</time>
      </trkpt>
      <trkpt lat="43.99339" lon="7.67287">
        <ele>1680</ele>
        <time>2017-09-17T16:49:36Z</time>
      </trkpt>
      <trkpt lat="43.99337" lon="7.67276">
        <ele>1680</ele>
        <time>2017-09-17T16:49:37Z</time>
      </trkpt>
      <trkpt lat="43.99334" lon="7.67266">
        <ele>1679</ele>
        <time>2017-09-17T16:49:38Z</time>
      </trkpt>
      <trkpt lat="43.99331" lon="7.67255">
        <ele>1678</ele>
        <time>2017-09-17T16:49:39Z</time>
      </trkpt>
      <trkpt lat="43.99328" lon="7.67244">
        <ele>1678</ele>
        <time>2017-09-17T16:49:40Z</time>
      </trkpt>
      <trkpt lat="43.99325" lon="7.67233">
        <ele>1677</ele>
        <time>2017-09-17T16:49:41Z</time>
      </trkpt>
      <trkpt lat="43.99323" lon="7.67222">
        <ele>1676</ele>
        <time>2017-09-17T16:49:42Z</time>
      </trkpt>
      <trkpt lat="43.99319" lon="7.67211">
        <ele>1675</ele>
        <time>2017-09-17T16:49:43Z</time>
      </trkpt>
      <trkpt lat="43.99316" lon="7.67201">
        <ele>1675</ele>
        <time>2017-09-17T16:49:44Z</time>
      </trkpt>
      <trkpt lat="43.99314" lon="7.67191">
        <ele>1674</ele>
        <time>2017-09-17T16:49:45Z</time>
      </trkpt>
      <trkpt lat="43.99313" lon="7.67181">
        <ele>1673</ele>
        <time>2017-09-17T16:49:46Z</time>
      </trkpt>
      <trkpt lat="43.99314" lon="7.6717">
        <ele>1672</ele>
        <time>2017-09-17T16:49:47Z</time>
      </trkpt>
      <trkpt lat="43.99316" lon="7.6716">
        <ele>1671</ele>
        <time>2017-09-17T16:49:48Z</time>
      </trkpt>
      <trkpt lat="43.99319" lon="7.67149">
        <ele>1670</ele>
        <time>2017-09-17T16:49:49Z</time>
      </trkpt>
      <trkpt lat="43.99323" lon="7.6714">
        <ele>1669</ele>
        <time>2017-09-17T16:49:50Z</time>
      </trkpt>
      <trkpt lat="43.99327" lon="7.67132">
        <ele>1669</ele>
        <time>2017-09-17T16:49:51Z</time>
      </trkpt>
      <trkpt lat="43.99332" lon="7.67126">
        <ele>1668</ele>
        <time>2017-09-17T16:49:52Z</time>
      </trkpt>
      <trkpt lat="43.99337" lon="7.67122">
        <ele>1667</ele>
        <time>2017-09-17T16:49:53Z</time>
      </trkpt>
      <trkpt lat="43.9934" lon="7.67117">
        <ele>1667</ele>
        <time>2017-09-17T16:49:54Z</time>
      </trkpt>
      <trkpt lat="43.99341" lon="7.67112">
        <ele>1667</ele>
        <time>2017-09-17T16:49:55Z</time>
      </trkpt>
      <trkpt lat="43.99341" lon="7.67107">
        <ele>1666</ele>
        <time>2017-09-17T16:49:56Z</time>
      </trkpt>
      <trkpt lat="43.99338" lon="7.67104">
        <ele>1666</ele>
        <time>2017-09-17T16:49:57Z</time>
      </trkpt>
      <trkpt lat="43.99335" lon="7.67103">
        <ele>1665</ele>
        <time>2017-09-17T16:49:58Z</time>
      </trkpt>
      <trkpt lat="43.99331" lon="7.67106">
        <ele>1665</ele>
        <time>2017-09-17T16:49:59Z</time>
      </trkpt>
      <trkpt lat="43.99328" lon="7.6711">
        <ele>1664</ele>
        <time>2017-09-17T16:50:00Z</time>
      </trkpt>
      <trkpt lat="43.99325" lon="7.67116">
        <ele>1664</ele>
        <time>2017-09-17T16:50:01Z</time>
      </trkpt>
      <trkpt lat="43.99322" lon="7.67123">
        <ele>1663</ele>
        <time>2017-09-17T16:50:02Z</time>
      </trkpt>
      <trkpt lat="43.99319" lon="7.67131">
        <ele>1662</ele>
        <time>2017-09-17T16:50:03Z</time>
      </trkpt>
      <trkpt lat="43.99315" lon="7.67139">
        <ele>1662</ele>
        <time>2017-09-17T16:50:04Z</time>
      </trkpt>
      <trkpt lat="43.99312" lon="7.67147">
        <ele>1661</ele>
        <time>2017-09-17T16:50:05Z</time>
      </trkpt>
      <trkpt lat="43.99307" lon="7.67155">
        <ele>1661</ele>
        <time>2017-09-17T16:50:06Z</time>
      </trkpt>
      <trkpt lat="43.99303" lon="7.67163">
        <ele>1660</ele>
        <time>2017-09-17T16:50:07Z</time>
      </trkpt>
      <trkpt lat="43.993" lon="7.67172">
        <ele>1659</ele>
        <time>2017-09-17T16:50:08Z</time>
      </trkpt>
      <trkpt lat="43.99299" lon="7.67183">
        <ele>1658</ele>
        <time>2017-09-17T16:50:09Z</time>
      </trkpt>
      <trkpt lat="43.99299" lon="7.67194">
        <ele>1657</ele>
        <time>2017-09-17T16:50:10Z</time>
      </trkpt>
      <trkpt lat="43.993" lon="7.67206">
        <ele>1657</ele>
        <time>2017-09-17T16:50:11Z</time>
      </trkpt>
      <trkpt lat="43.99301" lon="7.67217">
        <ele>1656</ele>
        <time>2017-09-17T16:50:12Z</time>
      </trkpt>
      <trkpt lat="43.99302" lon="7.67229">
        <ele>1655</ele>
        <time>2017-09-17T16:50:13Z</time>
      </trkpt>
      <trkpt lat="43.99303" lon="7.67242">
        <ele>1654</ele>
        <time>2017-09-17T16:50:14Z</time>
      </trkpt>
      <trkpt lat="43.99304" lon="7.67254">
        <ele>1653</ele>
        <time>2017-09-17T16:50:15Z</time>
      </trkpt>
      <trkpt lat="43.99305" lon="7.67267">
        <ele>1653</ele>
        <time>2017-09-17T16:50:16Z</time>
      </trkpt>
      <trkpt lat="43.99307" lon="7.6728">
        <ele>1652</ele>
        <time>2017-09-17T16:50:17Z</time>
      </trkpt>
      <trkpt lat="43.99308" lon="7.67293">
        <ele>1651</ele>
        <time>2017-09-17T16:50:18Z</time>
      </trkpt>
      <trkpt lat="43.99309" lon="7.67306">
        <ele>1650</ele>
        <time>2017-09-17T16:50:19Z</time>
      </trkpt>
      <trkpt lat="43.99309" lon="7.67319">
        <ele>1650</ele>
        <time>2017-09-17T16:50:20Z</time>
      </trkpt>
      <trkpt lat="43.99311" lon="7.67331">
        <ele>1649</ele>
        <time>2017-09-17T16:50:21Z</time>
      </trkpt>
      <trkpt lat="43.99313" lon="7.67344">
        <ele>1648</ele>
        <time>2017-09-17T16:50:22Z</time>
      </trkpt>
      <trkpt lat="43.99316" lon="7.67354">
        <ele>1648</ele>
        <time>2017-09-17T16:50:23Z</time>
      </trkpt>
      <trkpt lat="43.99319" lon="7.67364">
        <ele>1647</ele>
        <time>2017-09-17T16:50:24Z</time>
      </trkpt>
      <trkpt lat="43.9932" lon="7.67374">
        <ele>1647</ele>
        <time>2017-09-17T16:50:25Z</time>
      </trkpt>
      <trkpt lat="43.9932" lon="7.67384">
        <ele>1646</ele>
        <time>2017-09-17T16:50:26Z</time>
      </trkpt>
      <trkpt lat="43.99317" lon="7.67393">
        <ele>1645</ele>
        <time>2017-09-17T16:50:27Z</time>
      </trkpt>
      <trkpt lat="43.99314" lon="7.67403">
        <ele>1645</ele>
        <time>2017-09-17T16:50:28Z</time>
      </trkpt>
      <trkpt lat="43.99311" lon="7.67413">
        <ele>1644</ele>
        <time>2017-09-17T16:50:29Z</time>
      </trkpt>
      <trkpt lat="43.99309" lon="7.67423">
        <ele>1643</ele>
        <time>2017-09-17T16:50:30Z</time>
      </trkpt>
      <trkpt lat="43.99307" lon="7.67434">
        <ele>1643</ele>
        <time>2017-09-17T16:50:31Z</time>
      </trkpt>
      <trkpt lat="43.99305" lon="7.67445">
        <ele>1642</ele>
        <time>2017-09-17T16:50:32Z</time>
      </trkpt>
      <trkpt lat="43.99305" lon="7.67457">
        <ele>1641</ele>
        <time>2017-09-17T16:50:33Z</time>
      </trkpt>
      <trkpt lat="43.99305" lon="7.67469">
        <ele>1640</ele>
        <time>2017-09-17T16:50:34Z</time>
      </trkpt>
      <trkpt lat="43.99305" lon="7.67481">
        <ele>1640</ele>
        <time>2017-09-17T16:50:35Z</time>
      </trkpt>
      <trkpt lat="43.99306" lon="7.67492">
        <ele>1639</ele>
        <time>2017-09-17T16:50:36Z</time>
      </trkpt>
      <trkpt lat="43.99305" lon="7.67504">
        <ele>1638</ele>
        <time>2017-09-17T16:50:37Z</time>
      </trkpt>
      <trkpt lat="43.99304" lon="7.67516">
        <ele>1637</ele>
        <time>2017-09-17T16:50:38Z</time>
      </trkpt>
      <trkpt lat="43.99302" lon="7.67528">
        <ele>1637</ele>
        <time>2017-09-17T16:50:39Z</time>
      </trkpt>
      <trkpt lat="43.99299" lon="7.67539">
        <ele>1636</ele>
        <time>2017-09-17T16:50:40Z</time>
      </trkpt>
      <trkpt lat="43.99297" lon="7.67551">
        <ele>1635</ele>
        <time>2017-09-17T16:50:41Z</time>
      </trkpt>
      <trkpt lat="43.99294" lon="7.67562">
        <ele>1634</ele>
        <time>2017-09-17T16:50:42Z</time>
      </trkpt>
      <trkpt lat="43.99291" lon="7.67574">
        <ele>1633</ele>
        <time>2017-09-17T16:50:43Z</time>
      </trkpt>
      <trkpt lat="43.99288" lon="7.67585">
        <ele>1632</ele>
        <time>2017-09-17T16:50:44Z</time>
      </trkpt>
      <trkpt lat="43.99285" lon="7.67595">
        <ele>1632</ele>
        <time>2017-09-17T16:50:45Z</time>
      </trkpt>
      <trkpt lat="43.99284" lon="7.67603">
        <ele>1631</ele>
        <time>2017-09-17T16:50:46Z</time>
      </trkpt>
      <trkpt lat="43.99284" lon="7.67612">
        <ele>1630</ele>
        <time>2017-09-17T16:50:47Z</time>
      </trkpt>
      <trkpt lat="43.99285" lon="7.6762">
        <ele>1630</ele>
        <time>2017-09-17T16:50:48Z</time>
      </trkpt>
      <trkpt lat="43.99288" lon="7.67629">
        <ele>1630</ele>
        <time>2017-09-17T16:50:49Z</time>
      </trkpt>
      <trkpt lat="43.99291" lon="7.67637">
        <ele>1629</ele>
        <time>2017-09-17T16:50:50Z</time>
      </trkpt>
      <trkpt lat="43.99295" lon="7.67646">
        <ele>1629</ele>
        <time>2017-09-17T16:50:51Z</time>
      </trkpt>
      <trkpt lat="43.99298" lon="7.67655">
        <ele>1628</ele>
        <time>2017-09-17T16:50:52Z</time>
      </trkpt>
      <trkpt lat="43.99302" lon="7.67664">
        <ele>1627</ele>
        <time>2017-09-17T16:50:53Z</time>
      </trkpt>
      <trkpt lat="43.99308" lon="7.67671">
        <ele>1627</ele>
        <time>2017-09-17T16:50:54Z</time>
      </trkpt>
      <trkpt lat="43.99314" lon="7.67678">
        <ele>1626</ele>
        <time>2017-09-17T16:50:55Z</time>
      </trkpt>
      <trkpt lat="43.99319" lon="7.67684">
        <ele>1625</ele>
        <time>2017-09-17T16:50:56Z</time>
      </trkpt>
      <trkpt lat="43.99322" lon="7.6769">
        <ele>1625</ele>
        <time>2017-09-17T16:50:57Z</time>
      </trkpt>
      <trkpt lat="43.99324" lon="7.67698">
        <ele>1624</ele>
        <time>2017-09-17T16:50:58Z</time>
      </trkpt>
      <trkpt lat="43.99324" lon="7.67705">
        <ele>1623</ele>
        <time>2017-09-17T16:50:59Z</time>
      </trkpt>
      <trkpt lat="43.99323" lon="7.67712">
        <ele>1622</ele>
        <time>2017-09-17T16:51:00Z</time>
      </trkpt>
      <trkpt lat="43.9932" lon="7.67718">
        <ele>1622</ele>
        <time>2017-09-17T16:51:01Z</time>
      </trkpt>
      <trkpt lat="43.99317" lon="7.67725">
        <ele>1621</ele>
        <time>2017-09-17T16:51:02Z</time>
      </trkpt>
      <trkpt lat="43.99313" lon="7.67733">
        <ele>1620</ele>
        <time>2017-09-17T16:51:03Z</time>
      </trkpt>
      <trkpt lat="43.9931" lon="7.67742">
        <ele>1619</ele>
        <time>2017-09-17T16:51:04Z</time>
      </trkpt>
      <trkpt lat="43.99308" lon="7.67751">
        <ele>1618</ele>
        <time>2017-09-17T16:51:05Z</time>
      </trkpt>
      <trkpt lat="43.99304" lon="7.6776">
        <ele>1618</ele>
        <time>2017-09-17T16:51:06Z</time>
      </trkpt>
      <trkpt lat="43.993" lon="7.67769">
        <ele>1617</ele>
        <time>2017-09-17T16:51:07Z</time>
      </trkpt>
      <trkpt lat="43.99295" lon="7.67778">
        <ele>1616</ele>
        <time>2017-09-17T16:51:08Z</time>
      </trkpt>
      <trkpt lat="43.9929" lon="7.67787">
        <ele>1615</ele>
        <time>2017-09-17T16:51:09Z</time>
      </trkpt>
      <trkpt lat="43.99284" lon="7.67796">
        <ele>1614</ele>
        <time>2017-09-17T16:51:10Z</time>
      </trkpt>
      <trkpt lat="43.9928" lon="7.67805">
        <ele>1614</ele>
        <time>2017-09-17T16:51:11Z</time>
      </trkpt>
      <trkpt lat="43.99277" lon="7.67817">
        <ele>1613</ele>
        <time>2017-09-17T16:51:12Z</time>
      </trkpt>
      <trkpt lat="43.99275" lon="7.67829">
        <ele>1612</ele>
        <time>2017-09-17T16:51:13Z</time>
      </trkpt>
      <trkpt lat="43.99273" lon="7.67841">
        <ele>1611</ele>
        <time>2017-09-17T16:51:14Z</time>
      </trkpt>
      <trkpt lat="43.9927" lon="7.67854">
        <ele>1610</ele>
        <time>2017-09-17T16:51:15Z</time>
      </trkpt>
      <trkpt lat="43.99267" lon="7.67866">
        <ele>1610</ele>
        <time>2017-09-17T16:51:16Z</time>
      </trkpt>
      <trkpt lat="43.99265" lon="7.67879">
        <ele>1609</ele>
        <time>2017-09-17T16:51:17Z</time>
      </trkpt>
      <trkpt lat="43.99263" lon="7.67893">
        <ele>1608</ele>
        <time>2017-09-17T16:51:18Z</time>
      </trkpt>
      <trkpt lat="43.99261" lon="7.67906">
        <ele>1607</ele>
        <time>2017-09-17T16:51:19Z</time>
      </trkpt>
      <trkpt lat="43.99259" lon="7.6792">
        <ele>1605</ele>
        <time>2017-09-17T16:51:20Z</time>
      </trkpt>
      <trkpt lat="43.99257" lon="7.67933">
        <ele>1604</ele>
        <time>2017-09-17T16:51:21Z</time>
      </trkpt>
      <trkpt lat="43.99256" lon="7.67946">
        <ele>1603</ele>
        <time>2017-09-17T16:51:22Z</time>
      </trkpt>
      <trkpt lat="43.99253" lon="7.67958">
        <ele>1602</ele>
        <time>2017-09-17T16:51:23Z</time>
      </trkpt>
      <trkpt lat="43.99251" lon="7.67968">
        <ele>1602</ele>
        <time>2017-09-17T16:51:24Z</time>
      </trkpt>
      <trkpt lat="43.99247" lon="7.67977">
        <ele>1601</ele>
        <time>2017-09-17T16:51:25Z</time>
      </trkpt>
      <trkpt lat="43.99242" lon="7.67985">
        <ele>1601</ele>
        <time>2017-09-17T16:51:26Z</time>
      </trkpt>
      <trkpt lat="43.99236" lon="7.67992">
        <ele>1600</ele>
        <time>2017-09-17T16:51:27Z</time>
      </trkpt>
      <trkpt lat="43.9923" lon="7.67999">
        <ele>1600</ele>
        <time>2017-09-17T16:51:28Z</time>
      </trkpt>
      <trkpt lat="43.99223" lon="7.68007">
        <ele>1600</ele>
        <time>2017-09-17T16:51:29Z</time>
      </trkpt>
      <trkpt lat="43.99216" lon="7.68012">
        <ele>1600</ele>
        <time>2017-09-17T16:51:30Z</time>
      </trkpt>
      <trkpt lat="43.99208" lon="7.68015">
        <ele>1599</ele>
        <time>2017-09-17T16:51:31Z</time>
      </trkpt>
      <trkpt lat="43.99201" lon="7.68019">
        <ele>1599</ele>
        <time>2017-09-17T16:51:32Z</time>
      </trkpt>
      <trkpt lat="43.99193" lon="7.68023">
        <ele>1598</ele>
        <time>2017-09-17T16:51:33Z</time>
      </trkpt>
      <trkpt lat="43.99185" lon="7.68029">
        <ele>1598</ele>
        <time>2017-09-17T16:51:34Z</time>
      </trkpt>
      <trkpt lat="43.99178" lon="7.68035">
        <ele>1597</ele>
        <time>2017-09-17T16:51:35Z</time>
      </trkpt>
      <trkpt lat="43.99172" lon="7.68042">
        <ele>1596</ele>
        <time>2017-09-17T16:51:36Z</time>
      </trkpt>
      <trkpt lat="43.99167" lon="7.68049">
        <ele>1596</ele>
        <time>2017-09-17T16:51:37Z</time>
      </trkpt>
      <trkpt lat="43.99164" lon="7.68058">
        <ele>1595</ele>
        <time>2017-09-17T16:51:38Z</time>
      </trkpt>
      <trkpt lat="43.99163" lon="7.68067">
        <ele>1595</ele>
        <time>2017-09-17T16:51:39Z</time>
      </trkpt>
      <trkpt lat="43.99165" lon="7.68075">
        <ele>1594</ele>
        <time>2017-09-17T16:51:40Z</time>
      </trkpt>
      <trkpt lat="43.9917" lon="7.6808">
        <ele>1594</ele>
        <time>2017-09-17T16:51:41Z</time>
      </trkpt>
      <trkpt lat="43.99175" lon="7.68085">
        <ele>1594</ele>
        <time>2017-09-17T16:51:42Z</time>
      </trkpt>
      <trkpt lat="43.9918" lon="7.68091">
        <ele>1593</ele>
        <time>2017-09-17T16:51:43Z</time>
      </trkpt>
      <trkpt lat="43.99184" lon="7.68098">
        <ele>1593</ele>
        <time>2017-09-17T16:51:44Z</time>
      </trkpt>
      <trkpt lat="43.99185" lon="7.68107">
        <ele>1592</ele>
        <time>2017-09-17T16:51:45Z</time>
      </trkpt>
      <trkpt lat="43.99185" lon="7.68117">
        <ele>1591</ele>
        <time>2017-09-17T16:51:46Z</time>
      </trkpt>
      <trkpt lat="43.99184" lon="7.68127">
        <ele>1591</ele>
        <time>2017-09-17T16:51:47Z</time>
      </trkpt>
      <trkpt lat="43.99182" lon="7.68138">
        <ele>1590</ele>
        <time>2017-09-17T16:51:48Z</time>
      </trkpt>
      <trkpt lat="43.99182" lon="7.68149">
        <ele>1589</ele>
        <time>2017-09-17T16:51:49Z</time>
      </trkpt>
      <trkpt lat="43.99182" lon="7.6816">
        <ele>1589</ele>
        <time>2017-09-17T16:51:50Z</time>
      </trkpt>
      <trkpt lat="43.99184" lon="7.6817">
        <ele>1588</ele>
        <time>2017-09-17T16:51:51Z</time>
      </trkpt>
      <trkpt lat="43.99188" lon="7.68178">
        <ele>1587</ele>
        <time>2017-09-17T16:51:52Z</time>
      </trkpt>
      <trkpt lat="43.99191" lon="7.68185">
        <ele>1586</ele>
        <time>2017-09-17T16:51:53Z</time>
      </trkpt>
      <trkpt lat="43.99193" lon="7.68194">
        <ele>1586</ele>
        <time>2017-09-17T16:51:54Z</time>
      </trkpt>
      <trkpt lat="43.99194" lon="7.68203">
        <ele>1585</ele>
        <time>2017-09-17T16:51:55Z</time>
      </trkpt>
      <trkpt lat="43.99192" lon="7.68212">
        <ele>1584</ele>
        <time>2017-09-17T16:51:56Z</time>
      </trkpt>
      <trkpt lat="43.99193" lon="7.68222">
        <ele>1584</ele>
        <time>2017-09-17T16:51:57Z</time>
      </trkpt>
      <trkpt lat="43.99193" lon="7.68231">
        <ele>1583</ele>
        <time>2017-09-17T16:51:58Z</time>
      </trkpt>
      <trkpt lat="43.99193" lon="7.6824">
        <ele>1582</ele>
        <time>2017-09-17T16:51:59Z</time>
      </trkpt>
      <trkpt lat="43.99192" lon="7.68247">
        <ele>1582</ele>
        <time>2017-09-17T16:52:00Z</time>
      </trkpt>
      <trkpt lat="43.99188" lon="7.68254">
        <ele>1581</ele>
        <time>2017-09-17T16:52:01Z</time>
      </trkpt>
      <trkpt lat="43.99183" lon="7.68261">
        <ele>1580</ele>
        <time>2017-09-17T16:52:02Z</time>
      </trkpt>
      <trkpt lat="43.99178" lon="7.68268">
        <ele>1580</ele>
        <time>2017-09-17T16:52:03Z</time>
      </trkpt>
      <trkpt lat="43.99173" lon="7.68277">
        <ele>1579</ele>
        <time>2017-09-17T16:52:04Z</time>
      </trkpt>
      <trkpt lat="43.99169" lon="7.68285">
        <ele>1579</ele>
        <time>2017-09-17T16:52:05Z</time>
      </trkpt>
      <trkpt lat="43.99165" lon="7.68294">
        <ele>1578</ele>
        <time>2017-09-17T16:52:06Z</time>
      </trkpt>
      <trkpt lat="43.99162" lon="7.68302">
        <ele>1578</ele>
        <time>2017-09-17T16:52:07Z</time>
      </trkpt>
      <trkpt lat="43.9916" lon="7.68311">
        <ele>1577</ele>
        <time>2017-09-17T16:52:08Z</time>
      </trkpt>
      <trkpt lat="43.9916" lon="7.68321">
        <ele>1577</ele>
        <time>2017-09-17T16:52:09Z</time>
      </trkpt>
      <trkpt lat="43.99161" lon="7.6833">
        <ele>1576</ele>
        <time>2017-09-17T16:52:10Z</time>
      </trkpt>
      <trkpt lat="43.99165" lon="7.68336">
        <ele>1576</ele>
        <time>2017-09-17T16:52:11Z</time>
      </trkpt>
      <trkpt lat="43.99168" lon="7.68342">
        <ele>1575</ele>
        <time>2017-09-17T16:52:12Z</time>
      </trkpt>
      <trkpt lat="43.99172" lon="7.6835">
        <ele>1575</ele>
        <time>2017-09-17T16:52:13Z</time>
      </trkpt>
      <trkpt lat="43.99174" lon="7.68358">
        <ele>1574</ele>
        <time>2017-09-17T16:52:14Z</time>
      </trkpt>
      <trkpt lat="43.99174" lon="7.68366">
        <ele>1573</ele>
        <time>2017-09-17T16:52:15Z</time>
      </trkpt>
      <trkpt lat="43.99171" lon="7.68374">
        <ele>1572</ele>
        <time>2017-09-17T16:52:16Z</time>
      </trkpt>
      <trkpt lat="43.99167" lon="7.68382">
        <ele>1572</ele>
        <time>2017-09-17T16:52:17Z</time>
      </trkpt>
      <trkpt lat="43.99162" lon="7.6839">
        <ele>1571</ele>
        <time>2017-09-17T16:52:18Z</time>
      </trkpt>
      <trkpt lat="43.99157" lon="7.68396">
        <ele>1570</ele>
        <time>2017-09-17T16:52:19Z</time>
      </trkpt>
      <trkpt lat="43.99151" lon="7.68402">
        <ele>1569</ele>
        <time>2017-09-17T16:52:20Z</time>
      </trkpt>
      <trkpt lat="43.99144" lon="7.68407">
        <ele>1569</ele>
        <time>2017-09-17T16:52:21Z</time>
      </trkpt>
      <trkpt lat="43.99137" lon="7.68412">
        <ele>1568</ele>
        <time>2017-09-17T16:52:22Z</time>
      </trkpt>
      <trkpt lat="43.99131" lon="7.68415">
        <ele>1567</ele>
        <time>2017-09-17T16:52:23Z</time>
      </trkpt>
      <trkpt lat="43.99124" lon="7.68417">
        <ele>1567</ele>
        <time>2017-09-17T16:52:24Z</time>
      </trkpt>
      <trkpt lat="43.99118" lon="7.68417">
        <ele>1566</ele>
        <time>2017-09-17T16:52:25Z</time>
      </trkpt>
      <trkpt lat="43.99111" lon="7.68415">
        <ele>1565</ele>
        <time>2017-09-17T16:52:26Z</time>
      </trkpt>
      <trkpt lat="43.99104" lon="7.68414">
        <ele>1564</ele>
        <time>2017-09-17T16:52:27Z</time>
      </trkpt>
      <trkpt lat="43.99096" lon="7.68412">
        <ele>1564</ele>
        <time>2017-09-17T16:52:28Z</time>
      </trkpt>
      <trkpt lat="43.99087" lon="7.68411">
        <ele>1563</ele>
        <time>2017-09-17T16:52:29Z</time>
      </trkpt>
      <trkpt lat="43.99079" lon="7.6841">
        <ele>1562</ele>
        <time>2017-09-17T16:52:30Z</time>
      </trkpt>
      <trkpt lat="43.9907" lon="7.68408">
        <ele>1561</ele>
        <time>2017-09-17T16:52:31Z</time>
      </trkpt>
      <trkpt lat="43.99061" lon="7.68407">
        <ele>1560</ele>
        <time>2017-09-17T16:52:32Z</time>
      </trkpt>
      <trkpt lat="43.99052" lon="7.68405">
        <ele>1559</ele>
        <time>2017-09-17T16:52:33Z</time>
      </trkpt>
      <trkpt lat="43.99043" lon="7.68403">
        <ele>1559</ele>
        <time>2017-09-17T16:52:34Z</time>
      </trkpt>
      <trkpt lat="43.99034" lon="7.68402">
        <ele>1558</ele>
        <time>2017-09-17T16:52:35Z</time>
      </trkpt>
      <trkpt lat="43.99024" lon="7.684">
        <ele>1557</ele>
        <time>2017-09-17T16:52:36Z</time>
      </trkpt>
      <trkpt lat="43.99014" lon="7.68399">
        <ele>1556</ele>
        <time>2017-09-17T16:52:37Z</time>
      </trkpt>
      <trkpt lat="43.99004" lon="7.68399">
        <ele>1556</ele>
        <time>2017-09-17T16:52:38Z</time>
      </trkpt>
      <trkpt lat="43.98994" lon="7.68398">
        <ele>1555</ele>
        <time>2017-09-17T16:52:39Z</time>
      </trkpt>
      <trkpt lat="43.98984" lon="7.68397">
        <ele>1554</ele>
        <time>2017-09-17T16:52:40Z</time>
      </trkpt>
      <trkpt lat="43.98975" lon="7.68394">
        <ele>1553</ele>
        <time>2017-09-17T16:52:41Z</time>
      </trkpt>
      <trkpt lat="43.98965" lon="7.68392">
        <ele>1552</ele>
        <time>2017-09-17T16:52:42Z</time>
      </trkpt>
      <trkpt lat="43.98955" lon="7.68391">
        <ele>1551</ele>
        <time>2017-09-17T16:52:43Z</time>
      </trkpt>
      <trkpt lat="43.98946" lon="7.6839">
        <ele>1551</ele>
        <time>2017-09-17T16:52:44Z</time>
      </trkpt>
      <trkpt lat="43.98937" lon="7.68389">
        <ele>1550</ele>
        <time>2017-09-17T16:52:45Z</time>
      </trkpt>
      <trkpt lat="43.98929" lon="7.68389">
        <ele>1550</ele>
        <time>2017-09-17T16:52:46Z</time>
      </trkpt>
      <trkpt lat="43.98923" lon="7.6839">
        <ele>1549</ele>
        <time>2017-09-17T16:52:47Z</time>
      </trkpt>
      <trkpt lat="43.98918" lon="7.68393">
        <ele>1549</ele>
        <time>2017-09-17T16:52:48Z</time>
      </trkpt>
      <trkpt lat="43.98915" lon="7.68398">
        <ele>1548</ele>
        <time>2017-09-17T16:52:49Z</time>
      </trkpt>
      <trkpt lat="43.98914" lon="7.68404">
        <ele>1548</ele>
        <time>2017-09-17T16:52:50Z</time>
      </trkpt>
      <trkpt lat="43.98914" lon="7.68411">
        <ele>1548</ele>
        <time>2017-09-17T16:52:51Z</time>
      </trkpt>
      <trkpt lat="43.98918" lon="7.68415">
        <ele>1547</ele>
        <time>2017-09-17T16:52:52Z</time>
      </trkpt>
      <trkpt lat="43.98923" lon="7.68418">
        <ele>1547</ele>
        <time>2017-09-17T16:52:53Z</time>
      </trkpt>
      <trkpt lat="43.98928" lon="7.68422">
        <ele>1547</ele>
        <time>2017-09-17T16:52:54Z</time>
      </trkpt>
      <trkpt lat="43.98933" lon="7.68428">
        <ele>1546</ele>
        <time>2017-09-17T16:52:55Z</time>
      </trkpt>
      <trkpt lat="43.98938" lon="7.68433">
        <ele>1546</ele>
        <time>2017-09-17T16:52:56Z</time>
      </trkpt>
      <trkpt lat="43.98943" lon="7.68439">
        <ele>1546</ele>
        <time>2017-09-17T16:52:57Z</time>
      </trkpt>
      <trkpt lat="43.98948" lon="7.68446">
        <ele>1546</ele>
        <time>2017-09-17T16:52:58Z</time>
      </trkpt>
      <trkpt lat="43.98953" lon="7.68453">
        <ele>1545</ele>
        <time>2017-09-17T16:52:59Z</time>
      </trkpt>
      <trkpt lat="43.98959" lon="7.68461">
        <ele>1545</ele>
        <time>2017-09-17T16:53:00Z</time>
      </trkpt>
      <trkpt lat="43.98964" lon="7.68467">
        <ele>1545</ele>
        <time>2017-09-17T16:53:01Z</time>
      </trkpt>
      <trkpt lat="43.98971" lon="7.68472">
        <ele>1545</ele>
        <time>2017-09-17T16:53:02Z</time>
      </trkpt>
      <trkpt lat="43.98978" lon="7.68475">
        <ele>1544</ele>
        <time>2017-09-17T16:53:03Z</time>
      </trkpt>
      <trkpt lat="43.98985" lon="7.68477">
        <ele>1544</ele>
        <time>2017-09-17T16:53:04Z</time>
      </trkpt>
      <trkpt lat="43.98992" lon="7.68476">
        <ele>1544</ele>
        <time>2017-09-17T16:53:05Z</time>
      </trkpt>
      <trkpt lat="43.99" lon="7.68476">
        <ele>1544</ele>
        <time>2017-09-17T16:53:06Z</time>
      </trkpt>
      <trkpt lat="43.99008" lon="7.68476">
        <ele>1543</ele>
        <time>2017-09-17T16:53:07Z</time>
      </trkpt>
      <trkpt lat="43.99016" lon="7.68477">
        <ele>1543</ele>
        <time>2017-09-17T16:53:08Z</time>
      </trkpt>
      <trkpt lat="43.99025" lon="7.68478">
        <ele>1543</ele>
        <time>2017-09-17T16:53:09Z</time>
      </trkpt>
      <trkpt lat="43.99035" lon="7.68481">
        <ele>1543</ele>
        <time>2017-09-17T16:53:10Z</time>
      </trkpt>
      <trkpt lat="43.99045" lon="7.68484">
        <ele>1542</ele>
        <time>2017-09-17T16:53:11Z</time>
      </trkpt>
      <trkpt lat="43.99056" lon="7.68489">
        <ele>1542</ele>
        <time>2017-09-17T16:53:12Z</time>
      </trkpt>
      <trkpt lat="43.99066" lon="7.68496">
        <ele>1542</ele>
        <time>2017-09-17T16:53:13Z</time>
      </trkpt>
      <trkpt lat="43.99076" lon="7.68505">
        <ele>1542</ele>
        <time>2017-09-17T16:53:14Z</time>
      </trkpt>
      <trkpt lat="43.99085" lon="7.68516">
        <ele>1542</ele>
        <time>2017-09-17T16:53:15Z</time>
      </trkpt>
      <trkpt lat="43.99093" lon="7.68525">
        <ele>1542</ele>
        <time>2017-09-17T16:53:16Z</time>
      </trkpt>
      <trkpt lat="43.99102" lon="7.68533">
        <ele>1541</ele>
        <time>2017-09-17T16:53:17Z</time>
      </trkpt>
      <trkpt lat="43.99111" lon="7.68538">
        <ele>1541</ele>
        <time>2017-09-17T16:53:18Z</time>
      </trkpt>
      <trkpt lat="43.99122" lon="7.68541">
        <ele>1540</ele>
        <time>2017-09-17T16:53:19Z</time>
      </trkpt>
      <trkpt lat="43.99133" lon="7.6854">
        <ele>1539</ele>
        <time>2017-09-17T16:53:20Z</time>
      </trkpt>
      <trkpt lat="43.99144" lon="7.68541">
        <ele>1538</ele>
        <time>2017-09-17T16:53:21Z</time>
      </trkpt>
      <trkpt lat="43.99155" lon="7.68544">
        <ele>1537</ele>
        <time>2017-09-17T16:53:22Z</time>
      </trkpt>
      <trkpt lat="43.99167" lon="7.6855">
        <ele>1536</ele>
        <time>2017-09-17T16:53:23Z</time>
      </trkpt>
      <trkpt lat="43.99177" lon="7.6856">
        <ele>1535</ele>
        <time>2017-09-17T16:53:24Z</time>
      </trkpt>
      <trkpt lat="43.99185" lon="7.68572">
        <ele>1534</ele>
        <time>2017-09-17T16:53:25Z</time>
      </trkpt>
      <trkpt lat="43.99193" lon="7.68585">
        <ele>1532</ele>
        <time>2017-09-17T16:53:26Z</time>
      </trkpt>
      <trkpt lat="43.99198" lon="7.686">
        <ele>1531</ele>
        <time>2017-09-17T16:53:27Z</time>
      </trkpt>
      <trkpt lat="43.99203" lon="7.68616">
        <ele>1529</ele>
        <time>2017-09-17T16:53:28Z</time>
      </trkpt>
      <trkpt lat="43.99208" lon="7.68632">
        <ele>1528</ele>
        <time>2017-09-17T16:53:29Z</time>
      </trkpt>
      <trkpt lat="43.99213" lon="7.68649">
        <ele>1526</ele>
        <time>2017-09-17T16:53:30Z</time>
      </trkpt>
      <trkpt lat="43.99217" lon="7.68666">
        <ele>1524</ele>
        <time>2017-09-17T16:53:31Z</time>
      </trkpt>
      <trkpt lat="43.99221" lon="7.68683">
        <ele>1522</ele>
        <time>2017-09-17T16:53:32Z</time>
      </trkpt>
      <trkpt lat="43.99224" lon="7.68701">
        <ele>1521</ele>
        <time>2017-09-17T16:53:33Z</time>
      </trkpt>
      <trkpt lat="43.99226" lon="7.68719">
        <ele>1519</ele>
        <time>2017-09-17T16:53:34Z</time>
      </trkpt>
      <trkpt lat="43.99228" lon="7.68737">
        <ele>1517</ele>
        <time>2017-09-17T16:53:35Z</time>
      </trkpt>
      <trkpt lat="43.99229" lon="7.68755">
        <ele>1515</ele>
        <time>2017-09-17T16:53:36Z</time>
      </trkpt>
      <trkpt lat="43.99228" lon="7.68774">
        <ele>1514</ele>
        <time>2017-09-17T16:53:37Z</time>
      </trkpt>
      <trkpt lat="43.99226" lon="7.68792">
        <ele>1512</ele>
        <time>2017-09-17T16:53:38Z</time>
      </trkpt>
      <trkpt lat="43.99224" lon="7.6881">
        <ele>1510</ele>
        <time>2017-09-17T16:53:39Z</time>
      </trkpt>
      <trkpt lat="43.99223" lon="7.68829">
        <ele>1509</ele>
        <time>2017-09-17T16:53:40Z</time>
      </trkpt>
      <trkpt lat="43.99224" lon="7.68848">
        <ele>1507</ele>
        <time>2017-09-17T16:53:41Z</time>
      </trkpt>
      <trkpt lat="43.99226" lon="7.68866">
        <ele>1505</ele>
        <time>2017-09-17T16:53:42Z</time>
      </trkpt>
      <trkpt lat="43.99229" lon="7.68885">
        <ele>1503</ele>
        <time>2017-09-17T16:53:43Z</time>
      </trkpt>
      <trkpt lat="43.99232" lon="7.68904">
        <ele>1501</ele>
        <time>2017-09-17T16:53:44Z</time>
      </trkpt>
      <trkpt lat="43.99234" lon="7.68923">
        <ele>1500</ele>
        <time>2017-09-17T16:53:45Z</time>
      </trkpt>
      <trkpt lat="43.99235" lon="7.68942">
        <ele>1498</ele>
        <time>2017-09-17T16:53:46Z</time>
      </trkpt>
      <trkpt lat="43.99233" lon="7.68961">
        <ele>1496</ele>
        <time>2017-09-17T16:53:47Z</time>
      </trkpt>
      <trkpt lat="43.9923" lon="7.6898">
        <ele>1495</ele>
        <time>2017-09-17T16:53:48Z</time>
      </trkpt>
      <trkpt lat="43.99228" lon="7.68999">
        <ele>1493</ele>
        <time>2017-09-17T16:53:49Z</time>
      </trkpt>
      <trkpt lat="43.99225" lon="7.69017">
        <ele>1492</ele>
        <time>2017-09-17T16:53:50Z</time>
      </trkpt>
      <trkpt lat="43.99223" lon="7.69036">
        <ele>1490</ele>
        <time>2017-09-17T16:53:51Z</time>
      </trkpt>
      <trkpt lat="43.99221" lon="7.69055">
        <ele>1489</ele>
        <time>2017-09-17T16:53:52Z</time>
      </trkpt>
      <trkpt lat="43.99217" lon="7.69074">
        <ele>1487</ele>
        <time>2017-09-17T16:53:53Z</time>
      </trkpt>
      <trkpt lat="43.99212" lon="7.69092">
        <ele>1486</ele>
        <time>2017-09-17T16:53:54Z</time>
      </trkpt>
      <trkpt lat="43.99205" lon="7.69108">
        <ele>1484</ele>
        <time>2017-09-17T16:53:55Z</time>
      </trkpt>
      <trkpt lat="43.99197" lon="7.69124">
        <ele>1482</ele>
        <time>2017-09-17T16:53:56Z</time>
      </trkpt>
      <trkpt lat="43.99191" lon="7.6914">
        <ele>1481</ele>
        <time>2017-09-17T16:53:57Z</time>
      </trkpt>
      <trkpt lat="43.99188" lon="7.69158">
        <ele>1480</ele>
        <time>2017-09-17T16:53:58Z</time>
      </trkpt>
      <trkpt lat="43.99188" lon="7.69176">
        <ele>1478</ele>
        <time>2017-09-17T16:53:59Z</time>
      </trkpt>
      <trkpt lat="43.99189" lon="7.69195">
        <ele>1477</ele>
        <time>2017-09-17T16:54:00Z</time>
      </trkpt>
      <trkpt lat="43.99188" lon="7.69213">
        <ele>1476</ele>
        <time>2017-09-17T16:54:01Z</time>
      </trkpt>
      <trkpt lat="43.99187" lon="7.69232">
        <ele>1474</ele>
        <time>2017-09-17T16:54:02Z</time>
      </trkpt>
      <trkpt lat="43.99185" lon="7.69251">
        <ele>1473</ele>
        <time>2017-09-17T16:54:03Z</time>
      </trkpt>
      <trkpt lat="43.99183" lon="7.6927">
        <ele>1471</ele>
        <time>2017-09-17T16:54:04Z</time>
      </trkpt>
      <trkpt lat="43.99178" lon="7.69288">
        <ele>1470</ele>
        <time>2017-09-17T16:54:05Z</time>
      </trkpt>
      <trkpt lat="43.99172" lon="7.69304">
        <ele>1469</ele>
        <time>2017-09-17T16:54:06Z</time>
      </trkpt>
      <trkpt lat="43.99164" lon="7.69318">
        <ele>1468</ele>
        <time>2017-09-17T16:54:07Z</time>
      </trkpt>
      <trkpt lat="43.99155" lon="7.69329">
        <ele>1466</ele>
        <time>2017-09-17T16:54:08Z</time>
      </trkpt>
      <trkpt lat="43.99144" lon="7.69339">
        <ele>1465</ele>
        <time>2017-09-17T16:54:09Z</time>
      </trkpt>
      <trkpt lat="43.99133" lon="7.69347">
        <ele>1464</ele>
        <time>2017-09-17T16:54:10Z</time>
      </trkpt>
      <trkpt lat="43.99123" lon="7.69353">
        <ele>1464</ele>
        <time>2017-09-17T16:54:11Z</time>
      </trkpt>
      <trkpt lat="43.99114" lon="7.69361">
        <ele>1463</ele>
        <time>2017-09-17T16:54:12Z</time>
      </trkpt>
      <trkpt lat="43.99109" lon="7.69371">
        <ele>1462</ele>
        <time>2017-09-17T16:54:13Z</time>
      </trkpt>
      <trkpt lat="43.99107" lon="7.69382">
        <ele>1462</ele>
        <time>2017-09-17T16:54:14Z</time>
      </trkpt>
      <trkpt lat="43.9911" lon="7.69394">
        <ele>1461</ele>
        <time>2017-09-17T16:54:15Z</time>
      </trkpt>
      <trkpt lat="43.99115" lon="7.69406">
        <ele>1461</ele>
        <time>2017-09-17T16:54:16Z</time>
      </trkpt>
      <trkpt lat="43.99119" lon="7.69419">
        <ele>1461</ele>
        <time>2017-09-17T16:54:17Z</time>
      </trkpt>
      <trkpt lat="43.99124" lon="7.69433">
        <ele>1461</ele>
        <time>2017-09-17T16:54:18Z</time>
      </trkpt>
      <trkpt lat="43.99127" lon="7.69447">
        <ele>1460</ele>
        <time>2017-09-17T16:54:19Z</time>
      </trkpt>
      <trkpt lat="43.99131" lon="7.69461">
        <ele>1460</ele>
        <time>2017-09-17T16:54:20Z</time>
      </trkpt>
      <trkpt lat="43.99133" lon="7.69476">
        <ele>1460</ele>
        <time>2017-09-17T16:54:21Z</time>
      </trkpt>
      <trkpt lat="43.99135" lon="7.69492">
        <ele>1459</ele>
        <time>2017-09-17T16:54:22Z</time>
      </trkpt>
      <trkpt lat="43.99135" lon="7.69507">
        <ele>1459</ele>
        <time>2017-09-17T16:54:23Z</time>
      </trkpt>
      <trkpt lat="43.99135" lon="7.69521">
        <ele>1459</ele>
        <time>2017-09-17T16:54:24Z</time>
      </trkpt>
      <trkpt lat="43.99133" lon="7.69534">
        <ele>1458</ele>
        <time>2017-09-17T16:54:25Z</time>
      </trkpt>
      <trkpt lat="43.9913" lon="7.69545">
        <ele>1458</ele>
        <time>2017-09-17T16:54:26Z</time>
      </trkpt>
      <trkpt lat="43.99126" lon="7.69556">
        <ele>1458</ele>
        <time>2017-09-17T16:54:27Z</time>
      </trkpt>
      <trkpt lat="43.99123" lon="7.69568">
        <ele>1457</ele>
        <time>2017-09-17T16:54:28Z</time>
      </trkpt>
      <trkpt lat="43.99121" lon="7.69579">
        <ele>1457</ele>
        <time>2017-09-17T16:54:29Z</time>
      </trkpt>
      <trkpt lat="43.9912" lon="7.6959">
        <ele>1457</ele>
        <time>2017-09-17T16:54:30Z</time>
      </trkpt>
      <trkpt lat="43.9912" lon="7.69601">
        <ele>1456</ele>
        <time>2017-09-17T16:54:31Z</time>
      </trkpt>
      <trkpt lat="43.99121" lon="7.69612">
        <ele>1456</ele>
        <time>2017-09-17T16:54:32Z</time>
      </trkpt>
      <trkpt lat="43.99121" lon="7.69623">
        <ele>1456</ele>
        <time>2017-09-17T16:54:33Z</time>
      </trkpt>
      <trkpt lat="43.99121" lon="7.69634">
        <ele>1456</ele>
        <time>2017-09-17T16:54:34Z</time>
      </trkpt>
      <trkpt lat="43.99119" lon="7.69644">
        <ele>1455</ele>
        <time>2017-09-17T16:54:35Z</time>
      </trkpt>
      <trkpt lat="43.99117" lon="7.69654">
        <ele>1455</ele>
        <time>2017-09-17T16:54:36Z</time>
      </trkpt>
      <trkpt lat="43.99114" lon="7.69663">
        <ele>1455</ele>
        <time>2017-09-17T16:54:37Z</time>
      </trkpt>
      <trkpt lat="43.99111" lon="7.69672">
        <ele>1455</ele>
        <time>2017-09-17T16:54:38Z</time>
      </trkpt>
      <trkpt lat="43.99107" lon="7.6968">
        <ele>1455</ele>
        <time>2017-09-17T16:54:39Z</time>
      </trkpt>
      <trkpt lat="43.99102" lon="7.69688">
        <ele>1455</ele>
        <time>2017-09-17T16:54:40Z</time>
      </trkpt>
      <trkpt lat="43.99098" lon="7.69696">
        <ele>1455</ele>
        <time>2017-09-17T16:54:41Z</time>
      </trkpt>
      <trkpt lat="43.99094" lon="7.69703">
        <ele>1455</ele>
        <time>2017-09-17T16:54:42Z</time>
      </trkpt>
      <trkpt lat="43.9909" lon="7.6971">
        <ele>1455</ele>
        <time>2017-09-17T16:54:43Z</time>
      </trkpt>
      <trkpt lat="43.99086" lon="7.69716">
        <ele>1455</ele>
        <time>2017-09-17T16:54:44Z</time>
      </trkpt>
      <trkpt lat="43.99083" lon="7.6972">
        <ele>1455</ele>
        <time>2017-09-17T16:54:45Z</time>
      </trkpt>
      <trkpt lat="43.99079" lon="7.69724">
        <ele>1456</ele>
        <time>2017-09-17T16:54:46Z</time>
      </trkpt>
      <trkpt lat="43.99073" lon="7.69728">
        <ele>1456</ele>
        <time>2017-09-17T16:54:47Z</time>
      </trkpt>
      <trkpt lat="43.99067" lon="7.69732">
        <ele>1456</ele>
        <time>2017-09-17T16:54:48Z</time>
      </trkpt>
      <trkpt lat="43.99061" lon="7.69737">
        <ele>1456</ele>
        <time>2017-09-17T16:54:49Z</time>
      </trkpt>
      <trkpt lat="43.99054" lon="7.69742">
        <ele>1456</ele>
        <time>2017-09-17T16:54:50Z</time>
      </trkpt>
      <trkpt lat="43.99049" lon="7.69749">
        <ele>1456</ele>
        <time>2017-09-17T16:54:51Z</time>
      </trkpt>
      <trkpt lat="43.99045" lon="7.69757">
        <ele>1456</ele>
        <time>2017-09-17T16:54:52Z</time>
      </trkpt>
      <trkpt lat="43.99042" lon="7.69767">
        <ele>1456</ele>
        <time>2017-09-17T16:54:53Z</time>
      </trkpt>
      <trkpt lat="43.99045" lon="7.69774">
        <ele>1456</ele>
        <time>2017-09-17T16:54:54Z</time>
      </trkpt>
      <trkpt lat="43.99051" lon="7.69779">
        <ele>1456</ele>
        <time>2017-09-17T16:54:55Z</time>
      </trkpt>
      <trkpt lat="43.99058" lon="7.69783">
        <ele>1456</ele>
        <time>2017-09-17T16:54:56Z</time>
      </trkpt>
      <trkpt lat="43.99065" lon="7.69787">
        <ele>1455</ele>
        <time>2017-09-17T16:54:57Z</time>
      </trkpt>
      <trkpt lat="43.99072" lon="7.69792">
        <ele>1455</ele>
        <time>2017-09-17T16:54:58Z</time>
      </trkpt>
      <trkpt lat="43.9908" lon="7.69797">
        <ele>1455</ele>
        <time>2017-09-17T16:54:59Z</time>
      </trkpt>
      <trkpt lat="43.99087" lon="7.69804">
        <ele>1455</ele>
        <time>2017-09-17T16:55:00Z</time>
      </trkpt>
      <trkpt lat="43.99093" lon="7.69812">
        <ele>1455</ele>
        <time>2017-09-17T16:55:01Z</time>
      </trkpt>
      <trkpt lat="43.991" lon="7.69822">
        <ele>1455</ele>
        <time>2017-09-17T16:55:02Z</time>
      </trkpt>
      <trkpt lat="43.99105" lon="7.69833">
        <ele>1455</ele>
        <time>2017-09-17T16:55:03Z</time>
      </trkpt>
      <trkpt lat="43.9911" lon="7.69844">
        <ele>1454</ele>
        <time>2017-09-17T16:55:04Z</time>
      </trkpt>
      <trkpt lat="43.99114" lon="7.69856">
        <ele>1454</ele>
        <time>2017-09-17T16:55:05Z</time>
      </trkpt>
      <trkpt lat="43.99117" lon="7.69869">
        <ele>1453</ele>
        <time>2017-09-17T16:55:06Z</time>
      </trkpt>
      <trkpt lat="43.99119" lon="7.69881">
        <ele>1452</ele>
        <time>2017-09-17T16:55:07Z</time>
      </trkpt>
      <trkpt lat="43.99119" lon="7.69894">
        <ele>1452</ele>
        <time>2017-09-17T16:55:08Z</time>
      </trkpt>
      <trkpt lat="43.99118" lon="7.69906">
        <ele>1452</ele>
        <time>2017-09-17T16:55:09Z</time>
      </trkpt>
      <trkpt lat="43.99116" lon="7.69917">
        <ele>1452</ele>
        <time>2017-09-17T16:55:10Z</time>
      </trkpt>
      <trkpt lat="43.99113" lon="7.69928">
        <ele>1451</ele>
        <time>2017-09-17T16:55:11Z</time>
      </trkpt>
      <trkpt lat="43.99111" lon="7.69938">
        <ele>1451</ele>
        <time>2017-09-17T16:55:12Z</time>
      </trkpt>
      <trkpt lat="43.99109" lon="7.69947">
        <ele>1451</ele>
        <time>2017-09-17T16:55:13Z</time>
      </trkpt>
      <trkpt lat="43.99106" lon="7.69956">
        <ele>1451</ele>
        <time>2017-09-17T16:55:14Z</time>
      </trkpt>
      <trkpt lat="43.99104" lon="7.69965">
        <ele>1451</ele>
        <time>2017-09-17T16:55:15Z</time>
      </trkpt>
      <trkpt lat="43.99103" lon="7.69974">
        <ele>1451</ele>
        <time>2017-09-17T16:55:16Z</time>
      </trkpt>
      <trkpt lat="43.99103" lon="7.69983">
        <ele>1451</ele>
        <time>2017-09-17T16:55:17Z</time>
      </trkpt>
      <trkpt lat="43.99105" lon="7.69991">
        <ele>1451</ele>
        <time>2017-09-17T16:55:18Z</time>
      </trkpt>
      <trkpt lat="43.99108" lon="7.69999">
        <ele>1451</ele>
        <time>2017-09-17T16:55:19Z</time>
      </trkpt>
      <trkpt lat="43.99111" lon="7.70005">
        <ele>1451</ele>
        <time>2017-09-17T16:55:20Z</time>
      </trkpt>
      <trkpt lat="43.99115" lon="7.70011">
        <ele>1451</ele>
        <time>2017-09-17T16:55:21Z</time>
      </trkpt>
      <trkpt lat="43.9912" lon="7.70017">
        <ele>1451</ele>
        <time>2017-09-17T16:55:22Z</time>
      </trkpt>
      <trkpt lat="43.99125" lon="7.70023">
        <ele>1451</ele>
        <time>2017-09-17T16:55:23Z</time>
      </trkpt>
      <trkpt lat="43.99129" lon="7.7003">
        <ele>1451</ele>
        <time>2017-09-17T16:55:24Z</time>
      </trkpt>
      <trkpt lat="43.99133" lon="7.70038">
        <ele>1451</ele>
        <time>2017-09-17T16:55:25Z</time>
      </trkpt>
      <trkpt lat="43.99136" lon="7.70047">
        <ele>1450</ele>
        <time>2017-09-17T16:55:26Z</time>
      </trkpt>
      <trkpt lat="43.99137" lon="7.70057">
        <ele>1450</ele>
        <time>2017-09-17T16:55:27Z</time>
      </trkpt>
      <trkpt lat="43.99138" lon="7.70067">
        <ele>1450</ele>
        <time>2017-09-17T16:55:28Z</time>
      </trkpt>
      <trkpt lat="43.99138" lon="7.70077">
        <ele>1450</ele>
        <time>2017-09-17T16:55:29Z</time>
      </trkpt>
      <trkpt lat="43.99139" lon="7.70087">
        <ele>1450</ele>
        <time>2017-09-17T16:55:30Z</time>
      </trkpt>
      <trkpt lat="43.99141" lon="7.70097">
        <ele>1450</ele>
        <time>2017-09-17T16:55:31Z</time>
      </trkpt>
      <trkpt lat="43.99143" lon="7.70106">
        <ele>1450</ele>
        <time>2017-09-17T16:55:32Z</time>
      </trkpt>
      <trkpt lat="43.99146" lon="7.70116">
        <ele>1450</ele>
        <time>2017-09-17T16:55:33Z</time>
      </trkpt>
      <trkpt lat="43.99147" lon="7.70126">
        <ele>1450</ele>
        <time>2017-09-17T16:55:34Z</time>
      </trkpt>
      <trkpt lat="43.99147" lon="7.70136">
        <ele>1450</ele>
        <time>2017-09-17T16:55:35Z</time>
      </trkpt>
      <trkpt lat="43.99146" lon="7.70146">
        <ele>1450</ele>
        <time>2017-09-17T16:55:36Z</time>
      </trkpt>
      <trkpt lat="43.99145" lon="7.70155">
        <ele>1450</ele>
        <time>2017-09-17T16:55:37Z</time>
      </trkpt>
      <trkpt lat="43.99144" lon="7.70163">
        <ele>1450</ele>
        <time>2017-09-17T16:55:38Z</time>
      </trkpt>
      <trkpt lat="43.99142" lon="7.70172">
        <ele>1450</ele>
        <time>2017-09-17T16:55:39Z</time>
      </trkpt>
      <trkpt lat="43.9914" lon="7.70181">
        <ele>1450</ele>
        <time>2017-09-17T16:55:40Z</time>
      </trkpt>
      <trkpt lat="43.99139" lon="7.7019">
        <ele>1449</ele>
        <time>2017-09-17T16:55:41Z</time>
      </trkpt>
      <trkpt lat="43.99138" lon="7.702">
        <ele>1449</ele>
        <time>2017-09-17T16:55:42Z</time>
      </trkpt>
      <trkpt lat="43.99136" lon="7.7021">
        <ele>1449</ele>
        <time>2017-09-17T16:55:43Z</time>
      </trkpt>
      <trkpt lat="43.99135" lon="7.70221">
        <ele>1449</ele>
        <time>2017-09-17T16:55:44Z</time>
      </trkpt>
      <trkpt lat="43.99133" lon="7.70231">
        <ele>1449</ele>
        <time>2017-09-17T16:55:45Z</time>
      </trkpt>
      <trkpt lat="43.99132" lon="7.70241">
        <ele>1449</ele>
        <time>2017-09-17T16:55:46Z</time>
      </trkpt>
      <trkpt lat="43.99131" lon="7.70251">
        <ele>1449</ele>
        <time>2017-09-17T16:55:47Z</time>
      </trkpt>
      <trkpt lat="43.99128" lon="7.7026">
        <ele>1449</ele>
        <time>2017-09-17T16:55:48Z</time>
      </trkpt>
      <trkpt lat="43.99123" lon="7.70266">
        <ele>1450</ele>
        <time>2017-09-17T16:55:49Z</time>
      </trkpt>
      <trkpt lat="43.99118" lon="7.70271">
        <ele>1450</ele>
        <time>2017-09-17T16:55:50Z</time>
      </trkpt>
      <trkpt lat="43.99112" lon="7.70273">
        <ele>1450</ele>
        <time>2017-09-17T16:55:51Z</time>
      </trkpt>
      <trkpt lat="43.99105" lon="7.70275">
        <ele>1450</ele>
        <time>2017-09-17T16:55:52Z</time>
      </trkpt>
      <trkpt lat="43.99097" lon="7.70274">
        <ele>1450</ele>
        <time>2017-09-17T16:55:53Z</time>
      </trkpt>
      <trkpt lat="43.99089" lon="7.70271">
        <ele>1450</ele>
        <time>2017-09-17T16:55:54Z</time>
      </trkpt>
      <trkpt lat="43.99081" lon="7.70268">
        <ele>1449</ele>
        <time>2017-09-17T16:55:55Z</time>
      </trkpt>
      <trkpt lat="43.99072" lon="7.70266">
        <ele>1449</ele>
        <time>2017-09-17T16:55:56Z</time>
      </trkpt>
      <trkpt lat="43.99062" lon="7.70266">
        <ele>1449</ele>
        <time>2017-09-17T16:55:57Z</time>
      </trkpt>
      <trkpt lat="43.99053" lon="7.7027">
        <ele>1448</ele>
        <time>2017-09-17T16:55:58Z</time>
      </trkpt>
      <trkpt lat="43.99043" lon="7.70276">
        <ele>1448</ele>
        <time>2017-09-17T16:55:59Z</time>
      </trkpt>
      <trkpt lat="43.99034" lon="7.70283">
        <ele>1447</ele>
        <time>2017-09-17T16:56:00Z</time>
      </trkpt>
      <trkpt lat="43.99025" lon="7.70287">
        <ele>1446</ele>
        <time>2017-09-17T16:56:01Z</time>
      </trkpt>
      <trkpt lat="43.99014" lon="7.70289">
        <ele>1446</ele>
        <time>2017-09-17T16:56:02Z</time>
      </trkpt>
      <trkpt lat="43.99002" lon="7.70285">
        <ele>1445</ele>
        <time>2017-09-17T16:56:03Z</time>
      </trkpt>
      <trkpt lat="43.98991" lon="7.70279">
        <ele>1444</ele>
        <time>2017-09-17T16:56:04Z</time>
      </trkpt>
      <trkpt lat="43.98979" lon="7.70272">
        <ele>1444</ele>
        <time>2017-09-17T16:56:05Z</time>
      </trkpt>
      <trkpt lat="43.98968" lon="7.70266">
        <ele>1444</ele>
        <time>2017-09-17T16:56:06Z</time>
      </trkpt>
      <trkpt lat="43.98957" lon="7.7026">
        <ele>1443</ele>
        <time>2017-09-17T16:56:07Z</time>
      </trkpt>
      <trkpt lat="43.98946" lon="7.70255">
        <ele>1443</ele>
        <time>2017-09-17T16:56:08Z</time>
      </trkpt>
      <trkpt lat="43.98934" lon="7.70251">
        <ele>1442</ele>
        <time>2017-09-17T16:56:09Z</time>
      </trkpt>
      <trkpt lat="43.98922" lon="7.70248">
        <ele>1442</ele>
        <time>2017-09-17T16:56:10Z</time>
      </trkpt>
      <trkpt lat="43.9891" lon="7.70245">
        <ele>1441</ele>
        <time>2017-09-17T16:56:11Z</time>
      </trkpt>
      <trkpt lat="43.98897" lon="7.70242">
        <ele>1440</ele>
        <time>2017-09-17T16:56:12Z</time>
      </trkpt>
      <trkpt lat="43.98885" lon="7.70239">
        <ele>1439</ele>
        <time>2017-09-17T16:56:13Z</time>
      </trkpt>
      <trkpt lat="43.98872" lon="7.70238">
        <ele>1439</ele>
        <time>2017-09-17T16:56:14Z</time>
      </trkpt>
      <trkpt lat="43.98859" lon="7.70238">
        <ele>1438</ele>
        <time>2017-09-17T16:56:15Z</time>
      </trkpt>
      <trkpt lat="43.98846" lon="7.70242">
        <ele>1438</ele>
        <time>2017-09-17T16:56:16Z</time>
      </trkpt>
      <trkpt lat="43.98833" lon="7.70246">
        <ele>1437</ele>
        <time>2017-09-17T16:56:17Z</time>
      </trkpt>
      <trkpt lat="43.9882" lon="7.70251">
        <ele>1436</ele>
        <time>2017-09-17T16:56:18Z</time>
      </trkpt>
      <trkpt lat="43.98806" lon="7.70257">
        <ele>1435</ele>
        <time>2017-09-17T16:56:19Z</time>
      </trkpt>
      <trkpt lat="43.98793" lon="7.70263">
        <ele>1433</ele>
        <time>2017-09-17T16:56:20Z</time>
      </trkpt>
      <trkpt lat="43.98781" lon="7.70268">
        <ele>1432</ele>
        <time>2017-09-17T16:56:21Z</time>
      </trkpt>
      <trkpt lat="43.98771" lon="7.70273">
        <ele>1430</ele>
        <time>2017-09-17T16:56:22Z</time>
      </trkpt>
      <trkpt lat="43.98762" lon="7.70277">
        <ele>1428</ele>
        <time>2017-09-17T16:56:23Z</time>
      </trkpt>
      <trkpt lat="43.98754" lon="7.70283">
        <ele>1427</ele>
        <time>2017-09-17T16:56:24Z</time>
      </trkpt>
      <trkpt lat="43.98748" lon="7.70292">
        <ele>1426</ele>
        <time>2017-09-17T16:56:25Z</time>
      </trkpt>
      <trkpt lat="43.98746" lon="7.703">
        <ele>1424</ele>
        <time>2017-09-17T16:56:26Z</time>
      </trkpt>
      <trkpt lat="43.98748" lon="7.70308">
        <ele>1423</ele>
        <time>2017-09-17T16:56:27Z</time>
      </trkpt>
      <trkpt lat="43.98754" lon="7.70315">
        <ele>1422</ele>
        <time>2017-09-17T16:56:28Z</time>
      </trkpt>
      <trkpt lat="43.98761" lon="7.70323">
        <ele>1421</ele>
        <time>2017-09-17T16:56:29Z</time>
      </trkpt>
      <trkpt lat="43.98768" lon="7.70332">
        <ele>1420</ele>
        <time>2017-09-17T16:56:30Z</time>
      </trkpt>
      <trkpt lat="43.98775" lon="7.70342">
        <ele>1419</ele>
        <time>2017-09-17T16:56:31Z</time>
      </trkpt>
      <trkpt lat="43.98781" lon="7.70353">
        <ele>1418</ele>
        <time>2017-09-17T16:56:32Z</time>
      </trkpt>
      <trkpt lat="43.98785" lon="7.70366">
        <ele>1416</ele>
        <time>2017-09-17T16:56:33Z</time>
      </trkpt>
      <trkpt lat="43.98789" lon="7.7038">
        <ele>1415</ele>
        <time>2017-09-17T16:56:34Z</time>
      </trkpt>
      <trkpt lat="43.98791" lon="7.70394">
        <ele>1414</ele>
        <time>2017-09-17T16:56:35Z</time>
      </trkpt>
      <trkpt lat="43.98791" lon="7.70408">
        <ele>1412</ele>
        <time>2017-09-17T16:56:36Z</time>
      </trkpt>
      <trkpt lat="43.98787" lon="7.70421">
        <ele>1411</ele>
        <time>2017-09-17T16:56:37Z</time>
      </trkpt>
      <trkpt lat="43.9878" lon="7.70431">
        <ele>1410</ele>
        <time>2017-09-17T16:56:38Z</time>
      </trkpt>
      <trkpt lat="43.9877" lon="7.70438">
        <ele>1409</ele>
        <time>2017-09-17T16:56:39Z</time>
      </trkpt>
      <trkpt lat="43.9876" lon="7.70446">
        <ele>1408</ele>
        <time>2017-09-17T16:56:40Z</time>
      </trkpt>
      <trkpt lat="43.98749" lon="7.70453">
        <ele>1407</ele>
        <time>2017-09-17T16:56:41Z</time>
      </trkpt>
      <trkpt lat="43.98739" lon="7.70461">
        <ele>1406</ele>
        <time>2017-09-17T16:56:42Z</time>
      </trkpt>
      <trkpt lat="43.98727" lon="7.70468">
        <ele>1405</ele>
        <time>2017-09-17T16:56:43Z</time>
      </trkpt>
      <trkpt lat="43.98716" lon="7.70476">
        <ele>1404</ele>
        <time>2017-09-17T16:56:44Z</time>
      </trkpt>
      <trkpt lat="43.98705" lon="7.70483">
        <ele>1403</ele>
        <time>2017-09-17T16:56:45Z</time>
      </trkpt>
      <trkpt lat="43.98693" lon="7.70491">
        <ele>1401</ele>
        <time>2017-09-17T16:56:46Z</time>
      </trkpt>
      <trkpt lat="43.98681" lon="7.70499">
        <ele>1400</ele>
        <time>2017-09-17T16:56:47Z</time>
      </trkpt>
      <trkpt lat="43.98669" lon="7.70507">
        <ele>1398</ele>
        <time>2017-09-17T16:56:48Z</time>
      </trkpt>
      <trkpt lat="43.98657" lon="7.70512">
        <ele>1397</ele>
        <time>2017-09-17T16:56:49Z</time>
      </trkpt>
      <trkpt lat="43.98644" lon="7.70516">
        <ele>1395</ele>
        <time>2017-09-17T16:56:50Z</time>
      </trkpt>
      <trkpt lat="43.98631" lon="7.70517">
        <ele>1394</ele>
        <time>2017-09-17T16:56:51Z</time>
      </trkpt>
      <trkpt lat="43.98619" lon="7.70514">
        <ele>1392</ele>
        <time>2017-09-17T16:56:52Z</time>
      </trkpt>
      <trkpt lat="43.98606" lon="7.7051">
        <ele>1390</ele>
        <time>2017-09-17T16:56:53Z</time>
      </trkpt>
      <trkpt lat="43.98593" lon="7.70506">
        <ele>1389</ele>
        <time>2017-09-17T16:56:54Z</time>
      </trkpt>
      <trkpt lat="43.98581" lon="7.70501">
        <ele>1387</ele>
        <time>2017-09-17T16:56:55Z</time>
      </trkpt>
      <trkpt lat="43.98568" lon="7.70496">
        <ele>1385</ele>
        <time>2017-09-17T16:56:56Z</time>
      </trkpt>
      <trkpt lat="43.98556" lon="7.70491">
        <ele>1384</ele>
        <time>2017-09-17T16:56:57Z</time>
      </trkpt>
      <trkpt lat="43.98544" lon="7.70485">
        <ele>1382</ele>
        <time>2017-09-17T16:56:58Z</time>
      </trkpt>
      <trkpt lat="43.98532" lon="7.7048">
        <ele>1381</ele>
        <time>2017-09-17T16:56:59Z</time>
      </trkpt>
      <trkpt lat="43.9852" lon="7.70477">
        <ele>1380</ele>
        <time>2017-09-17T16:57:00Z</time>
      </trkpt>
      <trkpt lat="43.9851" lon="7.70475">
        <ele>1379</ele>
        <time>2017-09-17T16:57:01Z</time>
      </trkpt>
      <trkpt lat="43.98501" lon="7.70475">
        <ele>1378</ele>
        <time>2017-09-17T16:57:02Z</time>
      </trkpt>
      <trkpt lat="43.98494" lon="7.70481">
        <ele>1377</ele>
        <time>2017-09-17T16:57:03Z</time>
      </trkpt>
      <trkpt lat="43.98491" lon="7.70491">
        <ele>1376</ele>
        <time>2017-09-17T16:57:04Z</time>
      </trkpt>
      <trkpt lat="43.98491" lon="7.70501">
        <ele>1376</ele>
        <time>2017-09-17T16:57:05Z</time>
      </trkpt>
      <trkpt lat="43.98496" lon="7.70509">
        <ele>1375</ele>
        <time>2017-09-17T16:57:06Z</time>
      </trkpt>
      <trkpt lat="43.98502" lon="7.70516">
        <ele>1375</ele>
        <time>2017-09-17T16:57:07Z</time>
      </trkpt>
      <trkpt lat="43.98509" lon="7.70521">
        <ele>1374</ele>
        <time>2017-09-17T16:57:08Z</time>
      </trkpt>
      <trkpt lat="43.98517" lon="7.70527">
        <ele>1374</ele>
        <time>2017-09-17T16:57:09Z</time>
      </trkpt>
      <trkpt lat="43.98524" lon="7.70533">
        <ele>1373</ele>
        <time>2017-09-17T16:57:10Z</time>
      </trkpt>
      <trkpt lat="43.98532" lon="7.7054">
        <ele>1373</ele>
        <time>2017-09-17T16:57:11Z</time>
      </trkpt>
      <trkpt lat="43.9854" lon="7.70547">
        <ele>1372</ele>
        <time>2017-09-17T16:57:12Z</time>
      </trkpt>
      <trkpt lat="43.98549" lon="7.70555">
        <ele>1371</ele>
        <time>2017-09-17T16:57:13Z</time>
      </trkpt>
      <trkpt lat="43.98559" lon="7.70563">
        <ele>1370</ele>
        <time>2017-09-17T16:57:14Z</time>
      </trkpt>
      <trkpt lat="43.98569" lon="7.70568">
        <ele>1369</ele>
        <time>2017-09-17T16:57:15Z</time>
      </trkpt>
      <trkpt lat="43.9858" lon="7.7057">
        <ele>1368</ele>
        <time>2017-09-17T16:57:16Z</time>
      </trkpt>
      <trkpt lat="43.98591" lon="7.70569">
        <ele>1367</ele>
        <time>2017-09-17T16:57:17Z</time>
      </trkpt>
      <trkpt lat="43.98601" lon="7.70565">
        <ele>1367</ele>
        <time>2017-09-17T16:57:18Z</time>
      </trkpt>
      <trkpt lat="43.9861" lon="7.70562">
        <ele>1366</ele>
        <time>2017-09-17T16:57:19Z</time>
      </trkpt>
      <trkpt lat="43.98616" lon="7.70564">
        <ele>1365</ele>
        <time>2017-09-17T16:57:20Z</time>
      </trkpt>
      <trkpt lat="43.98621" lon="7.70569">
        <ele>1365</ele>
        <time>2017-09-17T16:57:21Z</time>
      </trkpt>
      <trkpt lat="43.98621" lon="7.70576">
        <ele>1365</ele>
        <time>2017-09-17T16:57:22Z</time>
      </trkpt>
      <trkpt lat="43.98616" lon="7.70579">
        <ele>1364</ele>
        <time>2017-09-17T16:57:23Z</time>
      </trkpt>
      <trkpt lat="43.98609" lon="7.70581">
        <ele>1364</ele>
        <time>2017-09-17T16:57:24Z</time>
      </trkpt>
      <trkpt lat="43.98601" lon="7.70582">
        <ele>1364</ele>
        <time>2017-09-17T16:57:25Z</time>
      </trkpt>
      <trkpt lat="43.98593" lon="7.70584">
        <ele>1363</ele>
        <time>2017-09-17T16:57:26Z</time>
      </trkpt>
      <trkpt lat="43.98584" lon="7.70584">
        <ele>1362</ele>
        <time>2017-09-17T16:57:27Z</time>
      </trkpt>
      <trkpt lat="43.98574" lon="7.70583">
        <ele>1361</ele>
        <time>2017-09-17T16:57:28Z</time>
      </trkpt>
      <trkpt lat="43.98564" lon="7.70581">
        <ele>1361</ele>
        <time>2017-09-17T16:57:29Z</time>
      </trkpt>
      <trkpt lat="43.98554" lon="7.70577">
        <ele>1360</ele>
        <time>2017-09-17T16:57:30Z</time>
      </trkpt>
      <trkpt lat="43.98544" lon="7.70575">
        <ele>1359</ele>
        <time>2017-09-17T16:57:31Z</time>
      </trkpt>
      <trkpt lat="43.98533" lon="7.70573">
        <ele>1358</ele>
        <time>2017-09-17T16:57:32Z</time>
      </trkpt>
      <trkpt lat="43.98522" lon="7.70573">
        <ele>1357</ele>
        <time>2017-09-17T16:57:33Z</time>
      </trkpt>
      <trkpt lat="43.98511" lon="7.70575">
        <ele>1356</ele>
        <time>2017-09-17T16:57:34Z</time>
      </trkpt>
      <trkpt lat="43.985" lon="7.7058">
        <ele>1355</ele>
        <time>2017-09-17T16:57:35Z</time>
      </trkpt>
      <trkpt lat="43.98489" lon="7.70585">
        <ele>1354</ele>
        <time>2017-09-17T16:57:36Z</time>
      </trkpt>
      <trkpt lat="43.98478" lon="7.70589">
        <ele>1353</ele>
        <time>2017-09-17T16:57:37Z</time>
      </trkpt>
      <trkpt lat="43.98466" lon="7.70592">
        <ele>1352</ele>
        <time>2017-09-17T16:57:38Z</time>
      </trkpt>
      <trkpt lat="43.98455" lon="7.70594">
        <ele>1351</ele>
        <time>2017-09-17T16:57:39Z</time>
      </trkpt>
      <trkpt lat="43.98443" lon="7.70593">
        <ele>1350</ele>
        <time>2017-09-17T16:57:40Z</time>
      </trkpt>
      <trkpt lat="43.98431" lon="7.7059">
        <ele>1349</ele>
        <time>2017-09-17T16:57:41Z</time>
      </trkpt>
      <trkpt lat="43.98419" lon="7.70586">
        <ele>1348</ele>
        <time>2017-09-17T16:57:42Z</time>
      </trkpt>
      <trkpt lat="43.98407" lon="7.70581">
        <ele>1346</ele>
        <time>2017-09-17T16:57:43Z</time>
      </trkpt>
      <trkpt lat="43.98396" lon="7.70575">
        <ele>1345</ele>
        <time>2017-09-17T16:57:44Z</time>
      </trkpt>
      <trkpt lat="43.98385" lon="7.70569">
        <ele>1344</ele>
        <time>2017-09-17T16:57:45Z</time>
      </trkpt>
      <trkpt lat="43.98375" lon="7.70566">
        <ele>1342</ele>
        <time>2017-09-17T16:57:46Z</time>
      </trkpt>
      <trkpt lat="43.98364" lon="7.70567">
        <ele>1341</ele>
        <time>2017-09-17T16:57:47Z</time>
      </trkpt>
      <trkpt lat="43.98354" lon="7.70572">
        <ele>1340</ele>
        <time>2017-09-17T16:57:48Z</time>
      </trkpt>
      <trkpt lat="43.98343" lon="7.70575">
        <ele>1339</ele>
        <time>2017-09-17T16:57:49Z</time>
      </trkpt>
      <trkpt lat="43.98331" lon="7.70575">
        <ele>1337</ele>
        <time>2017-09-17T16:57:50Z</time>
      </trkpt>
      <trkpt lat="43.9832" lon="7.70573">
        <ele>1337</ele>
        <time>2017-09-17T16:57:51Z</time>
      </trkpt>
      <trkpt lat="43.98308" lon="7.70571">
        <ele>1336</ele>
        <time>2017-09-17T16:57:52Z</time>
      </trkpt>
      <trkpt lat="43.98297" lon="7.70573">
        <ele>1335</ele>
        <time>2017-09-17T16:57:53Z</time>
      </trkpt>
      <trkpt lat="43.98286" lon="7.70578">
        <ele>1334</ele>
        <time>2017-09-17T16:57:54Z</time>
      </trkpt>
      <trkpt lat="43.98275" lon="7.70584">
        <ele>1333</ele>
        <time>2017-09-17T16:57:55Z</time>
      </trkpt>
      <trkpt lat="43.98263" lon="7.70587">
        <ele>1332</ele>
        <time>2017-09-17T16:57:56Z</time>
      </trkpt>
      <trkpt lat="43.98252" lon="7.70588">
        <ele>1331</ele>
        <time>2017-09-17T16:57:57Z</time>
      </trkpt>
      <trkpt lat="43.98241" lon="7.70584">
        <ele>1330</ele>
        <time>2017-09-17T16:57:58Z</time>
      </trkpt>
      <trkpt lat="43.98231" lon="7.70577">
        <ele>1329</ele>
        <time>2017-09-17T16:57:59Z</time>
      </trkpt>
      <trkpt lat="43.98221" lon="7.70571">
        <ele>1327</ele>
        <time>2017-09-17T16:58:00Z</time>
      </trkpt>
      <trkpt lat="43.98211" lon="7.70566">
        <ele>1326</ele>
        <time>2017-09-17T16:58:01Z</time>
      </trkpt>
      <trkpt lat="43.98201" lon="7.70566">
        <ele>1325</ele>
        <time>2017-09-17T16:58:02Z</time>
      </trkpt>
      <trkpt lat="43.98192" lon="7.7057">
        <ele>1324</ele>
        <time>2017-09-17T16:58:03Z</time>
      </trkpt>
      <trkpt lat="43.98183" lon="7.70576">
        <ele>1324</ele>
        <time>2017-09-17T16:58:04Z</time>
      </trkpt>
      <trkpt lat="43.98173" lon="7.7058">
        <ele>1323</ele>
        <time>2017-09-17T16:58:05Z</time>
      </trkpt>
      <trkpt lat="43.98163" lon="7.70583">
        <ele>1322</ele>
        <time>2017-09-17T16:58:06Z</time>
      </trkpt>
      <trkpt lat="43.98153" lon="7.70588">
        <ele>1321</ele>
        <time>2017-09-17T16:58:07Z</time>
      </trkpt>
      <trkpt lat="43.98143" lon="7.70595">
        <ele>1320</ele>
        <time>2017-09-17T16:58:08Z</time>
      </trkpt>
      <trkpt lat="43.98134" lon="7.70605">
        <ele>1320</ele>
        <time>2017-09-17T16:58:09Z</time>
      </trkpt>
      <trkpt lat="43.98126" lon="7.70617">
        <ele>1319</ele>
        <time>2017-09-17T16:58:10Z</time>
      </trkpt>
      <trkpt lat="43.98118" lon="7.7063">
        <ele>1319</ele>
        <time>2017-09-17T16:58:11Z</time>
      </trkpt>
      <trkpt lat="43.98111" lon="7.70642">
        <ele>1318</ele>
        <time>2017-09-17T16:58:12Z</time>
      </trkpt>
      <trkpt lat="43.98104" lon="7.70652">
        <ele>1317</ele>
        <time>2017-09-17T16:58:13Z</time>
      </trkpt>
      <trkpt lat="43.98096" lon="7.7066">
        <ele>1317</ele>
        <time>2017-09-17T16:58:14Z</time>
      </trkpt>
      <trkpt lat="43.98085" lon="7.70663">
        <ele>1316</ele>
        <time>2017-09-17T16:58:15Z</time>
      </trkpt>
      <trkpt lat="43.98073" lon="7.70665">
        <ele>1315</ele>
        <time>2017-09-17T16:58:16Z</time>
      </trkpt>
      <trkpt lat="43.98061" lon="7.70665">
        <ele>1314</ele>
        <time>2017-09-17T16:58:17Z</time>
      </trkpt>
      <trkpt lat="43.98049" lon="7.70665">
        <ele>1314</ele>
        <time>2017-09-17T16:58:18Z</time>
      </trkpt>
      <trkpt lat="43.98036" lon="7.70667">
        <ele>1313</ele>
        <time>2017-09-17T16:58:19Z</time>
      </trkpt>
      <trkpt lat="43.98024" lon="7.70671">
        <ele>1312</ele>
        <time>2017-09-17T16:58:20Z</time>
      </trkpt>
      <trkpt lat="43.98012" lon="7.70676">
        <ele>1311</ele>
        <time>2017-09-17T16:58:21Z</time>
      </trkpt>
      <trkpt lat="43.98" lon="7.70684">
        <ele>1310</ele>
        <time>2017-09-17T16:58:22Z</time>
      </trkpt>
      <trkpt lat="43.97989" lon="7.70693">
        <ele>1309</ele>
        <time>2017-09-17T16:58:23Z</time>
      </trkpt>
      <trkpt lat="43.97979" lon="7.70702">
        <ele>1308</ele>
        <time>2017-09-17T16:58:24Z</time>
      </trkpt>
      <trkpt lat="43.97969" lon="7.70713">
        <ele>1307</ele>
        <time>2017-09-17T16:58:25Z</time>
      </trkpt>
      <trkpt lat="43.97959" lon="7.70722">
        <ele>1305</ele>
        <time>2017-09-17T16:58:26Z</time>
      </trkpt>
      <trkpt lat="43.97949" lon="7.7073">
        <ele>1304</ele>
        <time>2017-09-17T16:58:27Z</time>
      </trkpt>
      <trkpt lat="43.97938" lon="7.70739">
        <ele>1303</ele>
        <time>2017-09-17T16:58:28Z</time>
      </trkpt>
      <trkpt lat="43.97928" lon="7.70749">
        <ele>1302</ele>
        <time>2017-09-17T16:58:29Z</time>
      </trkpt>
      <trkpt lat="43.97918" lon="7.70761">
        <ele>1301</ele>
        <time>2017-09-17T16:58:30Z</time>
      </trkpt>
      <trkpt lat="43.97909" lon="7.70774">
        <ele>1300</ele>
        <time>2017-09-17T16:58:31Z</time>
      </trkpt>
      <trkpt lat="43.979" lon="7.70786">
        <ele>1299</ele>
        <time>2017-09-17T16:58:32Z</time>
      </trkpt>
      <trkpt lat="43.97891" lon="7.70798">
        <ele>1298</ele>
        <time>2017-09-17T16:58:33Z</time>
      </trkpt>
      <trkpt lat="43.97881" lon="7.7081">
        <ele>1297</ele>
        <time>2017-09-17T16:58:34Z</time>
      </trkpt>
      <trkpt lat="43.97872" lon="7.70823">
        <ele>1296</ele>
        <time>2017-09-17T16:58:35Z</time>
      </trkpt>
      <trkpt lat="43.97863" lon="7.70834">
        <ele>1295</ele>
        <time>2017-09-17T16:58:36Z</time>
      </trkpt>
      <trkpt lat="43.97854" lon="7.70843">
        <ele>1294</ele>
        <time>2017-09-17T16:58:37Z</time>
      </trkpt>
      <trkpt lat="43.97845" lon="7.7085">
        <ele>1293</ele>
        <time>2017-09-17T16:58:38Z</time>
      </trkpt>
      <trkpt lat="43.97834" lon="7.70855">
        <ele>1292</ele>
        <time>2017-09-17T16:58:39Z</time>
      </trkpt>
      <trkpt lat="43.97824" lon="7.70858">
        <ele>1291</ele>
        <time>2017-09-17T16:58:40Z</time>
      </trkpt>
      <trkpt lat="43.97813" lon="7.7086">
        <ele>1290</ele>
        <time>2017-09-17T16:58:41Z</time>
      </trkpt>
      <trkpt lat="43.97801" lon="7.70864">
        <ele>1289</ele>
        <time>2017-09-17T16:58:42Z</time>
      </trkpt>
      <trkpt lat="43.9779" lon="7.7087">
        <ele>1288</ele>
        <time>2017-09-17T16:58:43Z</time>
      </trkpt>
      <trkpt lat="43.9778" lon="7.70877">
        <ele>1287</ele>
        <time>2017-09-17T16:58:44Z</time>
      </trkpt>
      <trkpt lat="43.97769" lon="7.70885">
        <ele>1286</ele>
        <time>2017-09-17T16:58:45Z</time>
      </trkpt>
      <trkpt lat="43.97759" lon="7.70894">
        <ele>1285</ele>
        <time>2017-09-17T16:58:46Z</time>
      </trkpt>
      <trkpt lat="43.9775" lon="7.70905">
        <ele>1284</ele>
        <time>2017-09-17T16:58:47Z</time>
      </trkpt>
      <trkpt lat="43.97743" lon="7.70917">
        <ele>1283</ele>
        <time>2017-09-17T16:58:48Z</time>
      </trkpt>
      <trkpt lat="43.97737" lon="7.70931">
        <ele>1282</ele>
        <time>2017-09-17T16:58:49Z</time>
      </trkpt>
      <trkpt lat="43.9773" lon="7.70944">
        <ele>1281</ele>
        <time>2017-09-17T16:58:50Z</time>
      </trkpt>
      <trkpt lat="43.97724" lon="7.70956">
        <ele>1280</ele>
        <time>2017-09-17T16:58:51Z</time>
      </trkpt>
      <trkpt lat="43.97717" lon="7.70968">
        <ele>1279</ele>
        <time>2017-09-17T16:58:52Z</time>
      </trkpt>
      <trkpt lat="43.9771" lon="7.70978">
        <ele>1279</ele>
        <time>2017-09-17T16:58:53Z</time>
      </trkpt>
      <trkpt lat="43.97703" lon="7.70988">
        <ele>1278</ele>
        <time>2017-09-17T16:58:54Z</time>
      </trkpt>
      <trkpt lat="43.97695" lon="7.70996">
        <ele>1278</ele>
        <time>2017-09-17T16:58:55Z</time>
      </trkpt>
      <trkpt lat="43.97688" lon="7.71004">
        <ele>1277</ele>
        <time>2017-09-17T16:58:56Z</time>
      </trkpt>
      <trkpt lat="43.9768" lon="7.71012">
        <ele>1277</ele>
        <time>2017-09-17T16:58:57Z</time>
      </trkpt>
      <trkpt lat="43.97673" lon="7.71019">
        <ele>1276</ele>
        <time>2017-09-17T16:58:58Z</time>
      </trkpt>
      <trkpt lat="43.97664" lon="7.71026">
        <ele>1276</ele>
        <time>2017-09-17T16:58:59Z</time>
      </trkpt>
      <trkpt lat="43.97655" lon="7.71032">
        <ele>1276</ele>
        <time>2017-09-17T16:59:00Z</time>
      </trkpt>
      <trkpt lat="43.97646" lon="7.71036">
        <ele>1276</ele>
        <time>2017-09-17T16:59:01Z</time>
      </trkpt>
      <trkpt lat="43.97637" lon="7.71041">
        <ele>1275</ele>
        <time>2017-09-17T16:59:02Z</time>
      </trkpt>
      <trkpt lat="43.97628" lon="7.71046">
        <ele>1275</ele>
        <time>2017-09-17T16:59:03Z</time>
      </trkpt>
      <trkpt lat="43.97619" lon="7.71051">
        <ele>1275</ele>
        <time>2017-09-17T16:59:04Z</time>
      </trkpt>
      <trkpt lat="43.9761" lon="7.71056">
        <ele>1275</ele>
        <time>2017-09-17T16:59:05Z</time>
      </trkpt>
      <trkpt lat="43.97601" lon="7.71061">
        <ele>1275</ele>
        <time>2017-09-17T16:59:06Z</time>
      </trkpt>
      <trkpt lat="43.97592" lon="7.71066">
        <ele>1275</ele>
        <time>2017-09-17T16:59:07Z</time>
      </trkpt>
      <trkpt lat="43.97584" lon="7.71071">
        <ele>1274</ele>
        <time>2017-09-17T16:59:08Z</time>
      </trkpt>
      <trkpt lat="43.97574" lon="7.71075">
        <ele>1274</ele>
        <time>2017-09-17T16:59:09Z</time>
      </trkpt>
      <trkpt lat="43.97566" lon="7.71081">
        <ele>1274</ele>
        <time>2017-09-17T16:59:10Z</time>
      </trkpt>
      <trkpt lat="43.97557" lon="7.71087">
        <ele>1274</ele>
        <time>2017-09-17T16:59:11Z</time>
      </trkpt>
      <trkpt lat="43.97549" lon="7.71094">
        <ele>1274</ele>
        <time>2017-09-17T16:59:12Z</time>
      </trkpt>
      <trkpt lat="43.97541" lon="7.71102">
        <ele>1274</ele>
        <time>2017-09-17T16:59:13Z</time>
      </trkpt>
      <trkpt lat="43.97534" lon="7.71109">
        <ele>1273</ele>
        <time>2017-09-17T16:59:14Z</time>
      </trkpt>
      <trkpt lat="43.97526" lon="7.71116">
        <ele>1273</ele>
        <time>2017-09-17T16:59:15Z</time>
      </trkpt>
      <trkpt lat="43.97518" lon="7.71123">
        <ele>1273</ele>
        <time>2017-09-17T16:59:16Z</time>
      </trkpt>
      <trkpt lat="43.9751" lon="7.71129">
        <ele>1273</ele>
        <time>2017-09-17T16:59:17Z</time>
      </trkpt>
      <trkpt lat="43.97502" lon="7.71135">
        <ele>1273</ele>
        <time>2017-09-17T16:59:18Z</time>
      </trkpt>
      <trkpt lat="43.97493" lon="7.71139">
        <ele>1273</ele>
        <time>2017-09-17T16:59:19Z</time>
      </trkpt>
      <trkpt lat="43.97484" lon="7.71143">
        <ele>1272</ele>
        <time>2017-09-17T16:59:20Z</time>
      </trkpt>
      <trkpt lat="43.97475" lon="7.71146">
        <ele>1272</ele>
        <time>2017-09-17T16:59:21Z</time>
      </trkpt>
      <trkpt lat="43.97467" lon="7.71152">
        <ele>1272</ele>
        <time>2017-09-17T16:59:22Z</time>
      </trkpt>
      <trkpt lat="43.97459" lon="7.7116">
        <ele>1271</ele>
        <time>2017-09-17T16:59:23Z</time>
      </trkpt>
      <trkpt lat="43.97452" lon="7.7117">
        <ele>1270</ele>
        <time>2017-09-17T16:59:24Z</time>
      </trkpt>
      <trkpt lat="43.97446" lon="7.71181">
        <ele>1269</ele>
        <time>2017-09-17T16:59:25Z</time>
      </trkpt>
      <trkpt lat="43.9744" lon="7.71193">
        <ele>1269</ele>
        <time>2017-09-17T16:59:26Z</time>
      </trkpt>
      <trkpt lat="43.97434" lon="7.71205">
        <ele>1268</ele>
        <time>2017-09-17T16:59:27Z</time>
      </trkpt>
      <trkpt lat="43.97428" lon="7.71218">
        <ele>1267</ele>
        <time>2017-09-17T16:59:28Z</time>
      </trkpt>
      <trkpt lat="43.97423" lon="7.71232">
        <ele>1266</ele>
        <time>2017-09-17T16:59:29Z</time>
      </trkpt>
      <trkpt lat="43.97418" lon="7.71247">
        <ele>1265</ele>
        <time>2017-09-17T16:59:30Z</time>
      </trkpt>
      <trkpt lat="43.97414" lon="7.71261">
        <ele>1264</ele>
        <time>2017-09-17T16:59:31Z</time>
      </trkpt>
      <trkpt lat="43.9741" lon="7.71277">
        <ele>1263</ele>
        <time>2017-09-17T16:59:32Z</time>
      </trkpt>
      <trkpt lat="43.97406" lon="7.71293">
        <ele>1261</ele>
        <time>2017-09-17T16:59:33Z</time>
      </trkpt>
      <trkpt lat="43.97403" lon="7.71309">
        <ele>1260</ele>
        <time>2017-09-17T16:59:34Z</time>
      </trkpt>
      <trkpt lat="43.974" lon="7.71325">
        <ele>1259</ele>
        <time>2017-09-17T16:59:35Z</time>
      </trkpt>
      <trkpt lat="43.97396" lon="7.71342">
        <ele>1257</ele>
        <time>2017-09-17T16:59:36Z</time>
      </trkpt>
      <trkpt lat="43.97393" lon="7.71358">
        <ele>1256</ele>
        <time>2017-09-17T16:59:37Z</time>
      </trkpt>
      <trkpt lat="43.97389" lon="7.71373">
        <ele>1255</ele>
        <time>2017-09-17T16:59:38Z</time>
      </trkpt>
      <trkpt lat="43.97384" lon="7.71389">
        <ele>1253</ele>
        <time>2017-09-17T16:59:39Z</time>
      </trkpt>
      <trkpt lat="43.97377" lon="7.71403">
        <ele>1252</ele>
        <time>2017-09-17T16:59:40Z</time>
      </trkpt>
      <trkpt lat="43.9737" lon="7.71417">
        <ele>1251</ele>
        <time>2017-09-17T16:59:41Z</time>
      </trkpt>
      <trkpt lat="43.97361" lon="7.71431">
        <ele>1249</ele>
        <time>2017-09-17T16:59:42Z</time>
      </trkpt>
      <trkpt lat="43.97353" lon="7.71443">
        <ele>1248</ele>
        <time>2017-09-17T16:59:43Z</time>
      </trkpt>
      <trkpt lat="43.97344" lon="7.71453">
        <ele>1247</ele>
        <time>2017-09-17T16:59:44Z</time>
      </trkpt>
      <trkpt lat="43.97334" lon="7.71461">
        <ele>1246</ele>
        <time>2017-09-17T16:59:45Z</time>
      </trkpt>
      <trkpt lat="43.97324" lon="7.71466">
        <ele>1244</ele>
        <time>2017-09-17T16:59:46Z</time>
      </trkpt>
      <trkpt lat="43.97312" lon="7.71468">
        <ele>1243</ele>
        <time>2017-09-17T16:59:47Z</time>
      </trkpt>
      <trkpt lat="43.973" lon="7.7147">
        <ele>1242</ele>
        <time>2017-09-17T16:59:48Z</time>
      </trkpt>
      <trkpt lat="43.97287" lon="7.71471">
        <ele>1240</ele>
        <time>2017-09-17T16:59:49Z</time>
      </trkpt>
      <trkpt lat="43.97274" lon="7.71472">
        <ele>1239</ele>
        <time>2017-09-17T16:59:50Z</time>
      </trkpt>
      <trkpt lat="43.97262" lon="7.71473">
        <ele>1238</ele>
        <time>2017-09-17T16:59:51Z</time>
      </trkpt>
      <trkpt lat="43.97251" lon="7.71475">
        <ele>1236</ele>
        <time>2017-09-17T16:59:52Z</time>
      </trkpt>
      <trkpt lat="43.97239" lon="7.71479">
        <ele>1235</ele>
        <time>2017-09-17T16:59:53Z</time>
      </trkpt>
      <trkpt lat="43.97229" lon="7.71487">
        <ele>1234</ele>
        <time>2017-09-17T16:59:54Z</time>
      </trkpt>
      <trkpt lat="43.97222" lon="7.71498">
        <ele>1233</ele>
        <time>2017-09-17T16:59:55Z</time>
      </trkpt>
      <trkpt lat="43.97218" lon="7.71512">
        <ele>1232</ele>
        <time>2017-09-17T16:59:56Z</time>
      </trkpt>
      <trkpt lat="43.97212" lon="7.71527">
        <ele>1231</ele>
        <time>2017-09-17T16:59:57Z</time>
      </trkpt>
      <trkpt lat="43.97207" lon="7.71542">
        <ele>1230</ele>
        <time>2017-09-17T16:59:58Z</time>
      </trkpt>
      <trkpt lat="43.97202" lon="7.71558">
        <ele>1229</ele>
        <time>2017-09-17T16:59:59Z</time>
      </trkpt>
      <trkpt lat="43.97197" lon="7.71575">
        <ele>1228</ele>
        <time>2017-09-17T17:00:00Z</time>
      </trkpt>
      <trkpt lat="43.97192" lon="7.71592">
        <ele>1227</ele>
        <time>2017-09-17T17:00:01Z</time>
      </trkpt>
      <trkpt lat="43.97187" lon="7.71608">
        <ele>1226</ele>
        <time>2017-09-17T17:00:02Z</time>
      </trkpt>
      <trkpt lat="43.97182" lon="7.71625">
        <ele>1225</ele>
        <time>2017-09-17T17:00:03Z</time>
      </trkpt>
      <trkpt lat="43.97178" lon="7.71641">
        <ele>1223</ele>
        <time>2017-09-17T17:00:04Z</time>
      </trkpt>
      <trkpt lat="43.97174" lon="7.71657">
        <ele>1223</ele>
        <time>2017-09-17T17:00:05Z</time>
      </trkpt>
      <trkpt lat="43.97173" lon="7.71674">
        <ele>1222</ele>
        <time>2017-09-17T17:00:06Z</time>
      </trkpt>
      <trkpt lat="43.97174" lon="7.7169">
        <ele>1221</ele>
        <time>2017-09-17T17:00:07Z</time>
      </trkpt>
      <trkpt lat="43.97174" lon="7.71705">
        <ele>1220</ele>
        <time>2017-09-17T17:00:08Z</time>
      </trkpt>
      <trkpt lat="43.97173" lon="7.71718">
        <ele>1219</ele>
        <time>2017-09-17T17:00:09Z</time>
      </trkpt>
      <trkpt lat="43.97169" lon="7.71731">
        <ele>1218</ele>
        <time>2017-09-17T17:00:10Z</time>
      </trkpt>
      <trkpt lat="43.97164" lon="7.71742">
        <ele>1218</ele>
        <time>2017-09-17T17:00:11Z</time>
      </trkpt>
      <trkpt lat="43.97158" lon="7.71754">
        <ele>1217</ele>
        <time>2017-09-17T17:00:12Z</time>
      </trkpt>
      <trkpt lat="43.97151" lon="7.71765">
        <ele>1216</ele>
        <time>2017-09-17T17:00:13Z</time>
      </trkpt>
      <trkpt lat="43.97143" lon="7.71776">
        <ele>1216</ele>
        <time>2017-09-17T17:00:14Z</time>
      </trkpt>
      <trkpt lat="43.97135" lon="7.71789">
        <ele>1215</ele>
        <time>2017-09-17T17:00:15Z</time>
      </trkpt>
      <trkpt lat="43.97127" lon="7.71803">
        <ele>1214</ele>
        <time>2017-09-17T17:00:16Z</time>
      </trkpt>
      <trkpt lat="43.97122" lon="7.71819">
        <ele>1213</ele>
        <time>2017-09-17T17:00:17Z</time>
      </trkpt>
      <trkpt lat="43.9712" lon="7.71835">
        <ele>1213</ele>
        <time>2017-09-17T17:00:18Z</time>
      </trkpt>
      <trkpt lat="43.97121" lon="7.71851">
        <ele>1212</ele>
        <time>2017-09-17T17:00:19Z</time>
      </trkpt>
      <trkpt lat="43.97122" lon="7.71867">
        <ele>1211</ele>
        <time>2017-09-17T17:00:20Z</time>
      </trkpt>
      <trkpt lat="43.97123" lon="7.71883">
        <ele>1211</ele>
        <time>2017-09-17T17:00:21Z</time>
      </trkpt>
      <trkpt lat="43.97121" lon="7.71897">
        <ele>1210</ele>
        <time>2017-09-17T17:00:22Z</time>
      </trkpt>
      <trkpt lat="43.97117" lon="7.7191">
        <ele>1209</ele>
        <time>2017-09-17T17:00:23Z</time>
      </trkpt>
      <trkpt lat="43.97112" lon="7.71925">
        <ele>1209</ele>
        <time>2017-09-17T17:00:24Z</time>
      </trkpt>
      <trkpt lat="43.97108" lon="7.7194">
        <ele>1208</ele>
        <time>2017-09-17T17:00:25Z</time>
      </trkpt>
      <trkpt lat="43.97105" lon="7.71956">
        <ele>1208</ele>
        <time>2017-09-17T17:00:26Z</time>
      </trkpt>
      <trkpt lat="43.97103" lon="7.71973">
        <ele>1207</ele>
        <time>2017-09-17T17:00:27Z</time>
      </trkpt>
      <trkpt lat="43.97103" lon="7.7199">
        <ele>1206</ele>
        <time>2017-09-17T17:00:28Z</time>
      </trkpt>
      <trkpt lat="43.97103" lon="7.72007">
        <ele>1205</ele>
        <time>2017-09-17T17:00:29Z</time>
      </trkpt>
      <trkpt lat="43.97103" lon="7.72025">
        <ele>1204</ele>
        <time>2017-09-17T17:00:30Z</time>
      </trkpt>
      <trkpt lat="43.97104" lon="7.72042">
        <ele>1203</ele>
        <time>2017-09-17T17:00:31Z</time>
      </trkpt>
      <trkpt lat="43.97105" lon="7.7206">
        <ele>1202</ele>
        <time>2017-09-17T17:00:32Z</time>
      </trkpt>
      <trkpt lat="43.97105" lon="7.72078">
        <ele>1201</ele>
        <time>2017-09-17T17:00:33Z</time>
      </trkpt>
      <trkpt lat="43.97104" lon="7.72096">
        <ele>1200</ele>
        <time>2017-09-17T17:00:34Z</time>
      </trkpt>
      <trkpt lat="43.97103" lon="7.72114">
        <ele>1198</ele>
        <time>2017-09-17T17:00:35Z</time>
      </trkpt>
      <trkpt lat="43.97101" lon="7.72131">
        <ele>1197</ele>
        <time>2017-09-17T17:00:36Z</time>
      </trkpt>
      <trkpt lat="43.97098" lon="7.72148">
        <ele>1196</ele>
        <time>2017-09-17T17:00:37Z</time>
      </trkpt>
      <trkpt lat="43.97095" lon="7.72165">
        <ele>1195</ele>
        <time>2017-09-17T17:00:38Z</time>
      </trkpt>
      <trkpt lat="43.97092" lon="7.72183">
        <ele>1193</ele>
        <time>2017-09-17T17:00:39Z</time>
      </trkpt>
      <trkpt lat="43.97089" lon="7.722">
        <ele>1192</ele>
        <time>2017-09-17T17:00:40Z</time>
      </trkpt>
      <trkpt lat="43.97087" lon="7.72217">
        <ele>1191</ele>
        <time>2017-09-17T17:00:41Z</time>
      </trkpt>
      <trkpt lat="43.97087" lon="7.72235">
        <ele>1190</ele>
        <time>2017-09-17T17:00:42Z</time>
      </trkpt>
      <trkpt lat="43.97089" lon="7.72252">
        <ele>1189</ele>
        <time>2017-09-17T17:00:43Z</time>
      </trkpt>
      <trkpt lat="43.97092" lon="7.7227">
        <ele>1187</ele>
        <time>2017-09-17T17:00:44Z</time>
      </trkpt>
      <trkpt lat="43.97095" lon="7.72288">
        <ele>1186</ele>
        <time>2017-09-17T17:00:45Z</time>
      </trkpt>
      <trkpt lat="43.97097" lon="7.72306">
        <ele>1185</ele>
        <time>2017-09-17T17:00:46Z</time>
      </trkpt>
      <trkpt lat="43.97098" lon="7.72324">
        <ele>1183</ele>
        <time>2017-09-17T17:00:47Z</time>
      </trkpt>
      <trkpt lat="43.971" lon="7.72342">
        <ele>1182</ele>
        <time>2017-09-17T17:00:48Z</time>
      </trkpt>
      <trkpt lat="43.97101" lon="7.7236">
        <ele>1180</ele>
        <time>2017-09-17T17:00:49Z</time>
      </trkpt>
      <trkpt lat="43.97104" lon="7.72378">
        <ele>1179</ele>
        <time>2017-09-17T17:00:50Z</time>
      </trkpt>
      <trkpt lat="43.97108" lon="7.72396">
        <ele>1178</ele>
        <time>2017-09-17T17:00:51Z</time>
      </trkpt>
      <trkpt lat="43.97113" lon="7.72413">
        <ele>1176</ele>
        <time>2017-09-17T17:00:52Z</time>
      </trkpt>
      <trkpt lat="43.9712" lon="7.72429">
        <ele>1175</ele>
        <time>2017-09-17T17:00:53Z</time>
      </trkpt>
      <trkpt lat="43.97127" lon="7.72443">
        <ele>1174</ele>
        <time>2017-09-17T17:00:54Z</time>
      </trkpt>
      <trkpt lat="43.97133" lon="7.72454">
        <ele>1173</ele>
        <time>2017-09-17T17:00:55Z</time>
      </trkpt>
      <trkpt lat="43.97138" lon="7.72464">
        <ele>1172</ele>
        <time>2017-09-17T17:00:56Z</time>
      </trkpt>
      <trkpt lat="43.9714" lon="7.72474">
        <ele>1171</ele>
        <time>2017-09-17T17:00:57Z</time>
      </trkpt>
      <trkpt lat="43.9714" lon="7.72485">
        <ele>1170</ele>
        <time>2017-09-17T17:00:58Z</time>
      </trkpt>
      <trkpt lat="43.97138" lon="7.72493">
        <ele>1169</ele>
        <time>2017-09-17T17:00:59Z</time>
      </trkpt>
      <trkpt lat="43.97133" lon="7.725">
        <ele>1168</ele>
        <time>2017-09-17T17:01:00Z</time>
      </trkpt>
      <trkpt lat="43.97125" lon="7.72507">
        <ele>1168</ele>
        <time>2017-09-17T17:01:01Z</time>
      </trkpt>
      <trkpt lat="43.97116" lon="7.72514">
        <ele>1167</ele>
        <time>2017-09-17T17:01:02Z</time>
      </trkpt>
      <trkpt lat="43.97107" lon="7.72521">
        <ele>1166</ele>
        <time>2017-09-17T17:01:03Z</time>
      </trkpt>
      <trkpt lat="43.97098" lon="7.7253">
        <ele>1165</ele>
        <time>2017-09-17T17:01:04Z</time>
      </trkpt>
      <trkpt lat="43.97089" lon="7.72541">
        <ele>1165</ele>
        <time>2017-09-17T17:01:05Z</time>
      </trkpt>
      <trkpt lat="43.97082" lon="7.72552">
        <ele>1164</ele>
        <time>2017-09-17T17:01:06Z</time>
      </trkpt>
      <trkpt lat="43.97074" lon="7.72565">
        <ele>1163</ele>
        <time>2017-09-17T17:01:07Z</time>
      </trkpt>
      <trkpt lat="43.97068" lon="7.7258">
        <ele>1162</ele>
        <time>2017-09-17T17:01:08Z</time>
      </trkpt>
      <trkpt lat="43.97063" lon="7.72596">
        <ele>1162</ele>
        <time>2017-09-17T17:01:09Z</time>
      </trkpt>
      <trkpt lat="43.97057" lon="7.72611">
        <ele>1161</ele>
        <time>2017-09-17T17:01:10Z</time>
      </trkpt>
      <trkpt lat="43.97052" lon="7.72628">
        <ele>1160</ele>
        <time>2017-09-17T17:01:11Z</time>
      </trkpt>
      <trkpt lat="43.97048" lon="7.72644">
        <ele>1158</ele>
        <time>2017-09-17T17:01:12Z</time>
      </trkpt>
      <trkpt lat="43.97044" lon="7.72661">
        <ele>1157</ele>
        <time>2017-09-17T17:01:13Z</time>
      </trkpt>
      <trkpt lat="43.97041" lon="7.72679">
        <ele>1155</ele>
        <time>2017-09-17T17:01:14Z</time>
      </trkpt>
      <trkpt lat="43.97039" lon="7.72697">
        <ele>1154</ele>
        <time>2017-09-17T17:01:15Z</time>
      </trkpt>
      <trkpt lat="43.97038" lon="7.72714">
        <ele>1153</ele>
        <time>2017-09-17T17:01:16Z</time>
      </trkpt>
      <trkpt lat="43.97038" lon="7.7273">
        <ele>1152</ele>
        <time>2017-09-17T17:01:17Z</time>
      </trkpt>
      <trkpt lat="43.9704" lon="7.72745">
        <ele>1151</ele>
        <time>2017-09-17T17:01:18Z</time>
      </trkpt>
      <trkpt lat="43.97043" lon="7.72761">
        <ele>1150</ele>
        <time>2017-09-17T17:01:19Z</time>
      </trkpt>
      <trkpt lat="43.97047" lon="7.72776">
        <ele>1149</ele>
        <time>2017-09-17T17:01:20Z</time>
      </trkpt>
      <trkpt lat="43.97052" lon="7.72789">
        <ele>1149</ele>
        <time>2017-09-17T17:01:21Z</time>
      </trkpt>
      <trkpt lat="43.97058" lon="7.72802">
        <ele>1148</ele>
        <time>2017-09-17T17:01:22Z</time>
      </trkpt>
      <trkpt lat="43.97063" lon="7.72814">
        <ele>1147</ele>
        <time>2017-09-17T17:01:23Z</time>
      </trkpt>
      <trkpt lat="43.97067" lon="7.72827">
        <ele>1147</ele>
        <time>2017-09-17T17:01:24Z</time>
      </trkpt>
      <trkpt lat="43.97071" lon="7.72841">
        <ele>1146</ele>
        <time>2017-09-17T17:01:25Z</time>
      </trkpt>
      <trkpt lat="43.97073" lon="7.72854">
        <ele>1146</ele>
        <time>2017-09-17T17:01:26Z</time>
      </trkpt>
      <trkpt lat="43.97074" lon="7.72868">
        <ele>1145</ele>
        <time>2017-09-17T17:01:27Z</time>
      </trkpt>
      <trkpt lat="43.97073" lon="7.72881">
        <ele>1145</ele>
        <time>2017-09-17T17:01:28Z</time>
      </trkpt>
      <trkpt lat="43.97069" lon="7.72892">
        <ele>1144</ele>
        <time>2017-09-17T17:01:29Z</time>
      </trkpt>
      <trkpt lat="43.97063" lon="7.72901">
        <ele>1144</ele>
        <time>2017-09-17T17:01:30Z</time>
      </trkpt>
      <trkpt lat="43.97055" lon="7.72909">
        <ele>1143</ele>
        <time>2017-09-17T17:01:31Z</time>
      </trkpt>
      <trkpt lat="43.97048" lon="7.72917">
        <ele>1143</ele>
        <time>2017-09-17T17:01:32Z</time>
      </trkpt>
      <trkpt lat="43.9704" lon="7.72925">
        <ele>1143</ele>
        <time>2017-09-17T17:01:33Z</time>
      </trkpt>
      <trkpt lat="43.97033" lon="7.72933">
        <ele>1142</ele>
        <time>2017-09-17T17:01:34Z</time>
      </trkpt>
      <trkpt lat="43.97026" lon="7.72942">
        <ele>1142</ele>
        <time>2017-09-17T17:01:35Z</time>
      </trkpt>
      <trkpt lat="43.97019" lon="7.7295">
        <ele>1141</ele>
        <time>2017-09-17T17:01:36Z</time>
      </trkpt>
      <trkpt lat="43.97012" lon="7.72958">
        <ele>1141</ele>
        <time>2017-09-17T17:01:37Z</time>
      </trkpt>
      <trkpt lat="43.97005" lon="7.72967">
        <ele>1140</ele>
        <time>2017-09-17T17:01:38Z</time>
      </trkpt>
      <trkpt lat="43.96997" lon="7.72974">
        <ele>1140</ele>
        <time>2017-09-17T17:01:39Z</time>
      </trkpt>
      <trkpt lat="43.96989" lon="7.72979">
        <ele>1139</ele>
        <time>2017-09-17T17:01:40Z</time>
      </trkpt>
      <trkpt lat="43.96981" lon="7.72983">
        <ele>1139</ele>
        <time>2017-09-17T17:01:41Z</time>
      </trkpt>
      <trkpt lat="43.96973" lon="7.72986">
        <ele>1139</ele>
        <time>2017-09-17T17:01:42Z</time>
      </trkpt>
      <trkpt lat="43.96964" lon="7.72988">
        <ele>1138</ele>
        <time>2017-09-17T17:01:43Z</time>
      </trkpt>
      <trkpt lat="43.96955" lon="7.72991">
        <ele>1138</ele>
        <time>2017-09-17T17:01:44Z</time>
      </trkpt>
      <trkpt lat="43.96947" lon="7.72995">
        <ele>1137</ele>
        <time>2017-09-17T17:01:45Z</time>
      </trkpt>
      <trkpt lat="43.96939" lon="7.73">
        <ele>1137</ele>
        <time>2017-09-17T17:01:46Z</time>
      </trkpt>
      <trkpt lat="43.96931" lon="7.73004">
        <ele>1137</ele>
        <time>2017-09-17T17:01:47Z</time>
      </trkpt>
      <trkpt lat="43.96924" lon="7.7301">
        <ele>1137</ele>
        <time>2017-09-17T17:01:48Z</time>
      </trkpt>
      <trkpt lat="43.96916" lon="7.73017">
        <ele>1136</ele>
        <time>2017-09-17T17:01:49Z</time>
      </trkpt>
      <trkpt lat="43.96909" lon="7.73024">
        <ele>1136</ele>
        <time>2017-09-17T17:01:50Z</time>
      </trkpt>
      <trkpt lat="43.96903" lon="7.73031">
        <ele>1136</ele>
        <time>2017-09-17T17:01:51Z</time>
      </trkpt>
      <trkpt lat="43.96897" lon="7.73039">
        <ele>1136</ele>
        <time>2017-09-17T17:01:52Z</time>
      </trkpt>
      <trkpt lat="43.9689" lon="7.73046">
        <ele>1136</ele>
        <time>2017-09-17T17:01:53Z</time>
      </trkpt>
      <trkpt lat="43.96882" lon="7.73053">
        <ele>1135</ele>
        <time>2017-09-17T17:01:54Z</time>
      </trkpt>
      <trkpt lat="43.96874" lon="7.73058">
        <ele>1135</ele>
        <time>2017-09-17T17:01:55Z</time>
      </trkpt>
      <trkpt lat="43.96866" lon="7.73063">
        <ele>1134</ele>
        <time>2017-09-17T17:01:56Z</time>
      </trkpt>
      <trkpt lat="43.96857" lon="7.73067">
        <ele>1134</ele>
        <time>2017-09-17T17:01:57Z</time>
      </trkpt>
      <trkpt lat="43.96848" lon="7.73073">
        <ele>1133</ele>
        <time>2017-09-17T17:01:58Z</time>
      </trkpt>
      <trkpt lat="43.9684" lon="7.73079">
        <ele>1133</ele>
        <time>2017-09-17T17:01:59Z</time>
      </trkpt>
      <trkpt lat="43.96832" lon="7.73086">
        <ele>1133</ele>
        <time>2017-09-17T17:02:00Z</time>
      </trkpt>
      <trkpt lat="43.96825" lon="7.73094">
        <ele>1132</ele>
        <time>2017-09-17T17:02:01Z</time>
      </trkpt>
      <trkpt lat="43.96819" lon="7.73103">
        <ele>1132</ele>
        <time>2017-09-17T17:02:02Z</time>
      </trkpt>
      <trkpt lat="43.96814" lon="7.73113">
        <ele>1132</ele>
        <time>2017-09-17T17:02:03Z</time>
      </trkpt>
      <trkpt lat="43.96809" lon="7.73123">
        <ele>1132</ele>
        <time>2017-09-17T17:02:04Z</time>
      </trkpt>
      <trkpt lat="43.96806" lon="7.73132">
        <ele>1132</ele>
        <time>2017-09-17T17:02:05Z</time>
      </trkpt>
      <trkpt lat="43.96802" lon="7.73139">
        <ele>1132</ele>
        <time>2017-09-17T17:02:06Z</time>
      </trkpt>
      <trkpt lat="43.96798" lon="7.73144">
        <ele>1131</ele>
        <time>2017-09-17T17:02:07Z</time>
      </trkpt>
      <trkpt lat="43.96794" lon="7.73144">
        <ele>1131</ele>
        <time>2017-09-17T17:02:08Z</time>
      </trkpt>
      <trkpt lat="43.9679" lon="7.7314">
        <ele>1131</ele>
        <time>2017-09-17T17:02:09Z</time>
      </trkpt>
      <trkpt lat="43.96787" lon="7.73134">
        <ele>1130</ele>
        <time>2017-09-17T17:02:10Z</time>
      </trkpt>
      <trkpt lat="43.96785" lon="7.73126">
        <ele>1130</ele>
        <time>2017-09-17T17:02:11Z</time>
      </trkpt>
      <trkpt lat="43.96784" lon="7.73118">
        <ele>1130</ele>
        <time>2017-09-17T17:02:12Z</time>
      </trkpt>
      <trkpt lat="43.96783" lon="7.73109">
        <ele>1129</ele>
        <time>2017-09-17T17:02:13Z</time>
      </trkpt>
      <trkpt lat="43.96782" lon="7.731">
        <ele>1128</ele>
        <time>2017-09-17T17:02:14Z</time>
      </trkpt>
      <trkpt lat="43.96783" lon="7.7309">
        <ele>1127</ele>
        <time>2017-09-17T17:02:15Z</time>
      </trkpt>
      <trkpt lat="43.96784" lon="7.73079">
        <ele>1127</ele>
        <time>2017-09-17T17:02:16Z</time>
      </trkpt>
      <trkpt lat="43.96785" lon="7.73068">
        <ele>1126</ele>
        <time>2017-09-17T17:02:17Z</time>
      </trkpt>
      <trkpt lat="43.96787" lon="7.73058">
        <ele>1125</ele>
        <time>2017-09-17T17:02:18Z</time>
      </trkpt>
      <trkpt lat="43.9679" lon="7.73047">
        <ele>1125</ele>
        <time>2017-09-17T17:02:19Z</time>
      </trkpt>
      <trkpt lat="43.96791" lon="7.73036">
        <ele>1124</ele>
        <time>2017-09-17T17:02:20Z</time>
      </trkpt>
      <trkpt lat="43.96791" lon="7.73024">
        <ele>1123</ele>
        <time>2017-09-17T17:02:21Z</time>
      </trkpt>
      <trkpt lat="43.96789" lon="7.73012">
        <ele>1122</ele>
        <time>2017-09-17T17:02:22Z</time>
      </trkpt>
      <trkpt lat="43.96787" lon="7.72999">
        <ele>1121</ele>
        <time>2017-09-17T17:02:23Z</time>
      </trkpt>
      <trkpt lat="43.96786" lon="7.72986">
        <ele>1120</ele>
        <time>2017-09-17T17:02:24Z</time>
      </trkpt>
      <trkpt lat="43.96785" lon="7.72972">
        <ele>1119</ele>
        <time>2017-09-17T17:02:25Z</time>
      </trkpt>
      <trkpt lat="43.96785" lon="7.72958">
        <ele>1118</ele>
        <time>2017-09-17T17:02:26Z</time>
      </trkpt>
      <trkpt lat="43.96788" lon="7.72944">
        <ele>1117</ele>
        <time>2017-09-17T17:02:27Z</time>
      </trkpt>
      <trkpt lat="43.96791" lon="7.7293">
        <ele>1115</ele>
        <time>2017-09-17T17:02:28Z</time>
      </trkpt>
      <trkpt lat="43.96794" lon="7.72915">
        <ele>1114</ele>
        <time>2017-09-17T17:02:29Z</time>
      </trkpt>
      <trkpt lat="43.96796" lon="7.72898">
        <ele>1113</ele>
        <time>2017-09-17T17:02:30Z</time>
      </trkpt>
      <trkpt lat="43.96796" lon="7.72883">
        <ele>1111</ele>
        <time>2017-09-17T17:02:31Z</time>
      </trkpt>
      <trkpt lat="43.96798" lon="7.72867">
        <ele>1110</ele>
        <time>2017-09-17T17:02:32Z</time>
      </trkpt>
      <trkpt lat="43.96802" lon="7.72853">
        <ele>1109</ele>
        <time>2017-09-17T17:02:33Z</time>
      </trkpt>
      <trkpt lat="43.96809" lon="7.72841">
        <ele>1108</ele>
        <time>2017-09-17T17:02:34Z</time>
      </trkpt>
      <trkpt lat="43.96817" lon="7.7283">
        <ele>1106</ele>
        <time>2017-09-17T17:02:35Z</time>
      </trkpt>
      <trkpt lat="43.96825" lon="7.72818">
        <ele>1105</ele>
        <time>2017-09-17T17:02:36Z</time>
      </trkpt>
      <trkpt lat="43.9683" lon="7.72804">
        <ele>1104</ele>
        <time>2017-09-17T17:02:37Z</time>
      </trkpt>
      <trkpt lat="43.96832" lon="7.72788">
        <ele>1102</ele>
        <time>2017-09-17T17:02:38Z</time>
      </trkpt>
      <trkpt lat="43.96834" lon="7.72771">
        <ele>1101</ele>
        <time>2017-09-17T17:02:39Z</time>
      </trkpt>
      <trkpt lat="43.96838" lon="7.72755">
        <ele>1099</ele>
        <time>2017-09-17T17:02:40Z</time>
      </trkpt>
      <trkpt lat="43.96844" lon="7.72741">
        <ele>1098</ele>
        <time>2017-09-17T17:02:41Z</time>
      </trkpt>
      <trkpt lat="43.96849" lon="7.72729">
        <ele>1097</ele>
        <time>2017-09-17T17:02:42Z</time>
      </trkpt>
      <trkpt lat="43.96854" lon="7.72717">
        <ele>1096</ele>
        <time>2017-09-17T17:02:43Z</time>
      </trkpt>
      <trkpt lat="43.96856" lon="7.72705">
        <ele>1094</ele>
        <time>2017-09-17T17:02:44Z</time>
      </trkpt>
      <trkpt lat="43.96854" lon="7.72692">
        <ele>1093</ele>
        <time>2017-09-17T17:02:45Z</time>
      </trkpt>
      <trkpt lat="43.96847" lon="7.72682">
        <ele>1092</ele>
        <time>2017-09-17T17:02:46Z</time>
      </trkpt>
      <trkpt lat="43.96839" lon="7.72677">
        <ele>1091</ele>
        <time>2017-09-17T17:02:47Z</time>
      </trkpt>
      <trkpt lat="43.96829" lon="7.72674">
        <ele>1090</ele>
        <time>2017-09-17T17:02:48Z</time>
      </trkpt>
      <trkpt lat="43.96821" lon="7.72669">
        <ele>1089</ele>
        <time>2017-09-17T17:02:49Z</time>
      </trkpt>
      <trkpt lat="43.96815" lon="7.7266">
        <ele>1088</ele>
        <time>2017-09-17T17:02:50Z</time>
      </trkpt>
      <trkpt lat="43.96812" lon="7.72647">
        <ele>1087</ele>
        <time>2017-09-17T17:02:51Z</time>
      </trkpt>
      <trkpt lat="43.96811" lon="7.72633">
        <ele>1086</ele>
        <time>2017-09-17T17:02:52Z</time>
      </trkpt>
      <trkpt lat="43.9681" lon="7.72618">
        <ele>1085</ele>
        <time>2017-09-17T17:02:53Z</time>
      </trkpt>
      <trkpt lat="43.96808" lon="7.72604">
        <ele>1084</ele>
        <time>2017-09-17T17:02:54Z</time>
      </trkpt>
      <trkpt lat="43.96805" lon="7.72589">
        <ele>1082</ele>
        <time>2017-09-17T17:02:55Z</time>
      </trkpt>
      <trkpt lat="43.96802" lon="7.72574">
        <ele>1081</ele>
        <time>2017-09-17T17:02:56Z</time>
      </trkpt>
      <trkpt lat="43.96799" lon="7.72559">
        <ele>1080</ele>
        <time>2017-09-17T17:02:57Z</time>
      </trkpt>
      <trkpt lat="43.96796" lon="7.72543">
        <ele>1079</ele>
        <time>2017-09-17T17:02:58Z</time>
      </trkpt>
      <trkpt lat="43.96794" lon="7.72527">
        <ele>1077</ele>
        <time>2017-09-17T17:02:59Z</time>
      </trkpt>
      <trkpt lat="43.96793" lon="7.72511">
        <ele>1076</ele>
        <time>2017-09-17T17:03:00Z</time>
      </trkpt>
      <trkpt lat="43.96793" lon="7.72494">
        <ele>1075</ele>
        <time>2017-09-17T17:03:01Z</time>
      </trkpt>
      <trkpt lat="43.96793" lon="7.72477">
        <ele>1074</ele>
        <time>2017-09-17T17:03:02Z</time>
      </trkpt>
      <trkpt lat="43.96795" lon="7.72462">
        <ele>1072</ele>
        <time>2017-09-17T17:03:03Z</time>
      </trkpt>
      <trkpt lat="43.96795" lon="7.72447">
        <ele>1071</ele>
        <time>2017-09-17T17:03:04Z</time>
      </trkpt>
      <trkpt lat="43.96794" lon="7.72433">
        <ele>1070</ele>
        <time>2017-09-17T17:03:05Z</time>
      </trkpt>
      <trkpt lat="43.9679" lon="7.7242">
        <ele>1069</ele>
        <time>2017-09-17T17:03:06Z</time>
      </trkpt>
      <trkpt lat="43.96783" lon="7.7241">
        <ele>1068</ele>
        <time>2017-09-17T17:03:07Z</time>
      </trkpt>
      <trkpt lat="43.96773" lon="7.72406">
        <ele>1067</ele>
        <time>2017-09-17T17:03:08Z</time>
      </trkpt>
      <trkpt lat="43.96763" lon="7.72405">
        <ele>1066</ele>
        <time>2017-09-17T17:03:09Z</time>
      </trkpt>
      <trkpt lat="43.96752" lon="7.72402">
        <ele>1065</ele>
        <time>2017-09-17T17:03:10Z</time>
      </trkpt>
      <trkpt lat="43.96741" lon="7.72399">
        <ele>1064</ele>
        <time>2017-09-17T17:03:11Z</time>
      </trkpt>
      <trkpt lat="43.9673" lon="7.72397">
        <ele>1063</ele>
        <time>2017-09-17T17:03:12Z</time>
      </trkpt>
      <trkpt lat="43.96719" lon="7.72397">
        <ele>1061</ele>
        <time>2017-09-17T17:03:13Z</time>
      </trkpt>
      <trkpt lat="43.96708" lon="7.72397">
        <ele>1060</ele>
        <time>2017-09-17T17:03:14Z</time>
      </trkpt>
      <trkpt lat="43.96697" lon="7.72393">
        <ele>1058</ele>
        <time>2017-09-17T17:03:15Z</time>
      </trkpt>
      <trkpt lat="43.96689" lon="7.72384">
        <ele>1057</ele>
        <time>2017-09-17T17:03:16Z</time>
      </trkpt>
      <trkpt lat="43.9668" lon="7.72373">
        <ele>1055</ele>
        <time>2017-09-17T17:03:17Z</time>
      </trkpt>
      <trkpt lat="43.96671" lon="7.72365">
        <ele>1054</ele>
        <time>2017-09-17T17:03:18Z</time>
      </trkpt>
      <trkpt lat="43.96661" lon="7.72357">
        <ele>1053</ele>
        <time>2017-09-17T17:03:19Z</time>
      </trkpt>
      <trkpt lat="43.9665" lon="7.72349">
        <ele>1051</ele>
        <time>2017-09-17T17:03:20Z</time>
      </trkpt>
      <trkpt lat="43.9664" lon="7.72341">
        <ele>1050</ele>
        <time>2017-09-17T17:03:21Z</time>
      </trkpt>
      <trkpt lat="43.9663" lon="7.72332">
        <ele>1048</ele>
        <time>2017-09-17T17:03:22Z</time>
      </trkpt>
      <trkpt lat="43.9662" lon="7.72323">
        <ele>1047</ele>
        <time>2017-09-17T17:03:23Z</time>
      </trkpt>
      <trkpt lat="43.96613" lon="7.72313">
        <ele>1046</ele>
        <time>2017-09-17T17:03:24Z</time>
      </trkpt>
      <trkpt lat="43.96608" lon="7.723">
        <ele>1045</ele>
        <time>2017-09-17T17:03:25Z</time>
      </trkpt>
      <trkpt lat="43.96607" lon="7.72286">
        <ele>1044</ele>
        <time>2017-09-17T17:03:26Z</time>
      </trkpt>
      <trkpt lat="43.96607" lon="7.72271">
        <ele>1042</ele>
        <time>2017-09-17T17:03:27Z</time>
      </trkpt>
      <trkpt lat="43.9661" lon="7.72256">
        <ele>1041</ele>
        <time>2017-09-17T17:03:28Z</time>
      </trkpt>
      <trkpt lat="43.96615" lon="7.72242">
        <ele>1040</ele>
        <time>2017-09-17T17:03:29Z</time>
      </trkpt>
      <trkpt lat="43.96622" lon="7.72229">
        <ele>1039</ele>
        <time>2017-09-17T17:03:30Z</time>
      </trkpt>
      <trkpt lat="43.9663" lon="7.72217">
        <ele>1037</ele>
        <time>2017-09-17T17:03:31Z</time>
      </trkpt>
      <trkpt lat="43.96638" lon="7.72204">
        <ele>1036</ele>
        <time>2017-09-17T17:03:32Z</time>
      </trkpt>
      <trkpt lat="43.96645" lon="7.72189">
        <ele>1034</ele>
        <time>2017-09-17T17:03:33Z</time>
      </trkpt>
      <trkpt lat="43.9665" lon="7.72173">
        <ele>1033</ele>
        <time>2017-09-17T17:03:34Z</time>
      </trkpt>
      <trkpt lat="43.96654" lon="7.72156">
        <ele>1032</ele>
        <time>2017-09-17T17:03:35Z</time>
      </trkpt>
      <trkpt lat="43.96658" lon="7.7214">
        <ele>1031</ele>
        <time>2017-09-17T17:03:36Z</time>
      </trkpt>
      <trkpt lat="43.96665" lon="7.72127">
        <ele>1029</ele>
        <time>2017-09-17T17:03:37Z</time>
      </trkpt>
      <trkpt lat="43.96673" lon="7.72115">
        <ele>1028</ele>
        <time>2017-09-17T17:03:38Z</time>
      </trkpt>
      <trkpt lat="43.96681" lon="7.72103">
        <ele>1027</ele>
        <time>2017-09-17T17:03:39Z</time>
      </trkpt>
      <trkpt lat="43.96686" lon="7.72088">
        <ele>1026</ele>
        <time>2017-09-17T17:03:40Z</time>
      </trkpt>
      <trkpt lat="43.96687" lon="7.72072">
        <ele>1024</ele>
        <time>2017-09-17T17:03:41Z</time>
      </trkpt>
      <trkpt lat="43.96685" lon="7.72057">
        <ele>1023</ele>
        <time>2017-09-17T17:03:42Z</time>
      </trkpt>
      <trkpt lat="43.96679" lon="7.72044">
        <ele>1022</ele>
        <time>2017-09-17T17:03:43Z</time>
      </trkpt>
      <trkpt lat="43.9667" lon="7.72035">
        <ele>1020</ele>
        <time>2017-09-17T17:03:44Z</time>
      </trkpt>
      <trkpt lat="43.96659" lon="7.72028">
        <ele>1019</ele>
        <time>2017-09-17T17:03:45Z</time>
      </trkpt>
      <trkpt lat="43.96649" lon="7.72019">
        <ele>1018</ele>
        <time>2017-09-17T17:03:46Z</time>
      </trkpt>
      <trkpt lat="43.9664" lon="7.72008">
        <ele>1017</ele>
        <time>2017-09-17T17:03:47Z</time>
      </trkpt>
      <trkpt lat="43.96633" lon="7.71993">
        <ele>1015</ele>
        <time>2017-09-17T17:03:48Z</time>
      </trkpt>
      <trkpt lat="43.96629" lon="7.71978">
        <ele>1014</ele>
        <time>2017-09-17T17:03:49Z</time>
      </trkpt>
      <trkpt lat="43.96628" lon="7.71961">
        <ele>1013</ele>
        <time>2017-09-17T17:03:50Z</time>
      </trkpt>
      <trkpt lat="43.96627" lon="7.71944">
        <ele>1011</ele>
        <time>2017-09-17T17:03:51Z</time>
      </trkpt>
      <trkpt lat="43.96625" lon="7.71927">
        <ele>1010</ele>
        <time>2017-09-17T17:03:52Z</time>
      </trkpt>
      <trkpt lat="43.9662" lon="7.7191">
        <ele>1009</ele>
        <time>2017-09-17T17:03:53Z</time>
      </trkpt>
      <trkpt lat="43.96612" lon="7.71897">
        <ele>1008</ele>
        <time>2017-09-17T17:03:54Z</time>
      </trkpt>
      <trkpt lat="43.96603" lon="7.71884">
        <ele>1006</ele>
        <time>2017-09-17T17:03:55Z</time>
      </trkpt>
      <trkpt lat="43.96594" lon="7.71871">
        <ele>1005</ele>
        <time>2017-09-17T17:03:56Z</time>
      </trkpt>
      <trkpt lat="43.96586" lon="7.71858">
        <ele>1004</ele>
        <time>2017-09-17T17:03:57Z</time>
      </trkpt>
      <trkpt lat="43.96578" lon="7.71846">
        <ele>1003</ele>
        <time>2017-09-17T17:03:58Z</time>
      </trkpt>
      <trkpt lat="43.96571" lon="7.71832">
        <ele>1001</ele>
        <time>2017-09-17T17:03:59Z</time>
      </trkpt>
      <trkpt lat="43.96566" lon="7.71816">
        <ele>1000</ele>
        <time>2017-09-17T17:04:00Z</time>
      </trkpt>
      <trkpt lat="43.96563" lon="7.71799">
        <ele>999</ele>
        <time>2017-09-17T17:04:01Z</time>
      </trkpt>
      <trkpt lat="43.96561" lon="7.71781">
        <ele>997</ele>
        <time>2017-09-17T17:04:02Z</time>
      </trkpt>
      <trkpt lat="43.96558" lon="7.71762">
        <ele>996</ele>
        <time>2017-09-17T17:04:03Z</time>
      </trkpt>
      <trkpt lat="43.96555" lon="7.71744">
        <ele>994</ele>
        <time>2017-09-17T17:04:04Z</time>
      </trkpt>
      <trkpt lat="43.96552" lon="7.71726">
        <ele>993</ele>
        <time>2017-09-17T17:04:05Z</time>
      </trkpt>
      <trkpt lat="43.96548" lon="7.71708">
        <ele>991</ele>
        <time>2017-09-17T17:04:06Z</time>
      </trkpt>
      <trkpt lat="43.96542" lon="7.7169">
        <ele>990</ele>
        <time>2017-09-17T17:04:07Z</time>
      </trkpt>
      <trkpt lat="43.96535" lon="7.71674">
        <ele>989</ele>
        <time>2017-09-17T17:04:08Z</time>
      </trkpt>
      <trkpt lat="43.96527" lon="7.71659">
        <ele>987</ele>
        <time>2017-09-17T17:04:09Z</time>
      </trkpt>
      <trkpt lat="43.9652" lon="7.71643">
        <ele>986</ele>
        <time>2017-09-17T17:04:10Z</time>
      </trkpt>
      <trkpt lat="43.96517" lon="7.71627">
        <ele>985</ele>
        <time>2017-09-17T17:04:11Z</time>
      </trkpt>
      <trkpt lat="43.96512" lon="7.71611">
        <ele>984</ele>
        <time>2017-09-17T17:04:12Z</time>
      </trkpt>
      <trkpt lat="43.96503" lon="7.71598">
        <ele>983</ele>
        <time>2017-09-17T17:04:13Z</time>
      </trkpt>
      <trkpt lat="43.96493" lon="7.71589">
        <ele>982</ele>
        <time>2017-09-17T17:04:14Z</time>
      </trkpt>
      <trkpt lat="43.96482" lon="7.71582">
        <ele>980</ele>
        <time>2017-09-17T17:04:15Z</time>
      </trkpt>
      <trkpt lat="43.96472" lon="7.71575">
        <ele>979</ele>
        <time>2017-09-17T17:04:16Z</time>
      </trkpt>
      <trkpt lat="43.96462" lon="7.71567">
        <ele>978</ele>
        <time>2017-09-17T17:04:17Z</time>
      </trkpt>
      <trkpt lat="43.96456" lon="7.71556">
        <ele>977</ele>
        <time>2017-09-17T17:04:18Z</time>
      </trkpt>
      <trkpt lat="43.96455" lon="7.71545">
        <ele>977</ele>
        <time>2017-09-17T17:04:19Z</time>
      </trkpt>
      <trkpt lat="43.96456" lon="7.71533">
        <ele>977</ele>
        <time>2017-09-17T17:04:20Z</time>
      </trkpt>
      <trkpt lat="43.96458" lon="7.71521">
        <ele>976</ele>
        <time>2017-09-17T17:04:21Z</time>
      </trkpt>
      <trkpt lat="43.96456" lon="7.7151">
        <ele>976</ele>
        <time>2017-09-17T17:04:22Z</time>
      </trkpt>
      <trkpt lat="43.96451" lon="7.71502">
        <ele>976</ele>
        <time>2017-09-17T17:04:23Z</time>
      </trkpt>
      <trkpt lat="43.96443" lon="7.71499">
        <ele>975</ele>
        <time>2017-09-17T17:04:24Z</time>
      </trkpt>
      <trkpt lat="43.96435" lon="7.715">
        <ele>975</ele>
        <time>2017-09-17T17:04:25Z</time>
      </trkpt>
      <trkpt lat="43.96427" lon="7.71504">
        <ele>974</ele>
        <time>2017-09-17T17:04:26Z</time>
      </trkpt>
      <trkpt lat="43.96418" lon="7.71509">
        <ele>974</ele>
        <time>2017-09-17T17:04:27Z</time>
      </trkpt>
      <trkpt lat="43.96409" lon="7.71514">
        <ele>973</ele>
        <time>2017-09-17T17:04:28Z</time>
      </trkpt>
      <trkpt lat="43.964" lon="7.7152">
        <ele>973</ele>
        <time>2017-09-17T17:04:29Z</time>
      </trkpt>
      <trkpt lat="43.96391" lon="7.71529">
        <ele>972</ele>
        <time>2017-09-17T17:04:30Z</time>
      </trkpt>
      <trkpt lat="43.96382" lon="7.71538">
        <ele>971</ele>
        <time>2017-09-17T17:04:31Z</time>
      </trkpt>
      <trkpt lat="43.96373" lon="7.71547">
        <ele>971</ele>
        <time>2017-09-17T17:04:32Z</time>
      </trkpt>
      <trkpt lat="43.96363" lon="7.71556">
        <ele>970</ele>
        <time>2017-09-17T17:04:33Z</time>
      </trkpt>
      <trkpt lat="43.96353" lon="7.71566">
        <ele>969</ele>
        <time>2017-09-17T17:04:34Z</time>
      </trkpt>
      <trkpt lat="43.96342" lon="7.71576">
        <ele>968</ele>
        <time>2017-09-17T17:04:35Z</time>
      </trkpt>
      <trkpt lat="43.96331" lon="7.71586">
        <ele>967</ele>
        <time>2017-09-17T17:04:36Z</time>
      </trkpt>
      <trkpt lat="43.9632" lon="7.71596">
        <ele>966</ele>
        <time>2017-09-17T17:04:37Z</time>
      </trkpt>
      <trkpt lat="43.96308" lon="7.71606">
        <ele>965</ele>
        <time>2017-09-17T17:04:38Z</time>
      </trkpt>
      <trkpt lat="43.96296" lon="7.71616">
        <ele>964</ele>
        <time>2017-09-17T17:04:39Z</time>
      </trkpt>
      <trkpt lat="43.96285" lon="7.71624">
        <ele>962</ele>
        <time>2017-09-17T17:04:40Z</time>
      </trkpt>
      <trkpt lat="43.96274" lon="7.71635">
        <ele>961</ele>
        <time>2017-09-17T17:04:41Z</time>
      </trkpt>
      <trkpt lat="43.96265" lon="7.71649">
        <ele>959</ele>
        <time>2017-09-17T17:04:42Z</time>
      </trkpt>
      <trkpt lat="43.96258" lon="7.71662">
        <ele>958</ele>
        <time>2017-09-17T17:04:43Z</time>
      </trkpt>
      <trkpt lat="43.9625" lon="7.71675">
        <ele>956</ele>
        <time>2017-09-17T17:04:44Z</time>
      </trkpt>
      <trkpt lat="43.96241" lon="7.71685">
        <ele>954</ele>
        <time>2017-09-17T17:04:45Z</time>
      </trkpt>
      <trkpt lat="43.96231" lon="7.71694">
        <ele>952</ele>
        <time>2017-09-17T17:04:46Z</time>
      </trkpt>
      <trkpt lat="43.96221" lon="7.71703">
        <ele>951</ele>
        <time>2017-09-17T17:04:47Z</time>
      </trkpt>
      <trkpt lat="43.9621" lon="7.71712">
        <ele>949</ele>
        <time>2017-09-17T17:04:48Z</time>
      </trkpt>
      <trkpt lat="43.96199" lon="7.71721">
        <ele>947</ele>
        <time>2017-09-17T17:04:49Z</time>
      </trkpt>
      <trkpt lat="43.96188" lon="7.71732">
        <ele>946</ele>
        <time>2017-09-17T17:04:50Z</time>
      </trkpt>
      <trkpt lat="43.96178" lon="7.71743">
        <ele>944</ele>
        <time>2017-09-17T17:04:51Z</time>
      </trkpt>
      <trkpt lat="43.9617" lon="7.71753">
        <ele>943</ele>
        <time>2017-09-17T17:04:52Z</time>
      </trkpt>
      <trkpt lat="43.96162" lon="7.71761">
        <ele>942</ele>
        <time>2017-09-17T17:04:53Z</time>
      </trkpt>
      <trkpt lat="43.96155" lon="7.7177">
        <ele>940</ele>
        <time>2017-09-17T17:04:54Z</time>
      </trkpt>
      <trkpt lat="43.96148" lon="7.71776">
        <ele>939</ele>
        <time>2017-09-17T17:04:55Z</time>
      </trkpt>
      <trkpt lat="43.96141" lon="7.7178">
        <ele>938</ele>
        <time>2017-09-17T17:04:56Z</time>
      </trkpt>
      <trkpt lat="43.96134" lon="7.7178">
        <ele>937</ele>
        <time>2017-09-17T17:04:57Z</time>
      </trkpt>
      <trkpt lat="43.96126" lon="7.71775">
        <ele>936</ele>
        <time>2017-09-17T17:04:58Z</time>
      </trkpt>
      <trkpt lat="43.96119" lon="7.71767">
        <ele>935</ele>
        <time>2017-09-17T17:04:59Z</time>
      </trkpt>
      <trkpt lat="43.96112" lon="7.71759">
        <ele>934</ele>
        <time>2017-09-17T17:05:00Z</time>
      </trkpt>
      <trkpt lat="43.96104" lon="7.71751">
        <ele>934</ele>
        <time>2017-09-17T17:05:01Z</time>
      </trkpt>
      <trkpt lat="43.96095" lon="7.71743">
        <ele>934</ele>
        <time>2017-09-17T17:05:02Z</time>
      </trkpt>
      <trkpt lat="43.96086" lon="7.71734">
        <ele>933</ele>
        <time>2017-09-17T17:05:03Z</time>
      </trkpt>
      <trkpt lat="43.96075" lon="7.71728">
        <ele>933</ele>
        <time>2017-09-17T17:05:04Z</time>
      </trkpt>
      <trkpt lat="43.96064" lon="7.71722">
        <ele>933</ele>
        <time>2017-09-17T17:05:05Z</time>
      </trkpt>
      <trkpt lat="43.96053" lon="7.71718">
        <ele>933</ele>
        <time>2017-09-17T17:05:06Z</time>
      </trkpt>
      <trkpt lat="43.96041" lon="7.71717">
        <ele>932</ele>
        <time>2017-09-17T17:05:07Z</time>
      </trkpt>
      <trkpt lat="43.96029" lon="7.71718">
        <ele>932</ele>
        <time>2017-09-17T17:05:08Z</time>
      </trkpt>
      <trkpt lat="43.96016" lon="7.71719">
        <ele>932</ele>
        <time>2017-09-17T17:05:09Z</time>
      </trkpt>
      <trkpt lat="43.96004" lon="7.71721">
        <ele>931</ele>
        <time>2017-09-17T17:05:10Z</time>
      </trkpt>
      <trkpt lat="43.95991" lon="7.71722">
        <ele>930</ele>
        <time>2017-09-17T17:05:11Z</time>
      </trkpt>
      <trkpt lat="43.95978" lon="7.71724">
        <ele>930</ele>
        <time>2017-09-17T17:05:12Z</time>
      </trkpt>
      <trkpt lat="43.95966" lon="7.71727">
        <ele>929</ele>
        <time>2017-09-17T17:05:13Z</time>
      </trkpt>
      <trkpt lat="43.95953" lon="7.71729">
        <ele>928</ele>
        <time>2017-09-17T17:05:14Z</time>
      </trkpt>
      <trkpt lat="43.9594" lon="7.71732">
        <ele>926</ele>
        <time>2017-09-17T17:05:15Z</time>
      </trkpt>
      <trkpt lat="43.95928" lon="7.71734">
        <ele>925</ele>
        <time>2017-09-17T17:05:16Z</time>
      </trkpt>
      <trkpt lat="43.95917" lon="7.71734">
        <ele>924</ele>
        <time>2017-09-17T17:05:17Z</time>
      </trkpt>
      <trkpt lat="43.95907" lon="7.71732">
        <ele>923</ele>
        <time>2017-09-17T17:05:18Z</time>
      </trkpt>
      <trkpt lat="43.95899" lon="7.71726">
        <ele>923</ele>
        <time>2017-09-17T17:05:19Z</time>
      </trkpt>
      <trkpt lat="43.95894" lon="7.71718">
        <ele>922</ele>
        <time>2017-09-17T17:05:20Z</time>
      </trkpt>
      <trkpt lat="43.95891" lon="7.71708">
        <ele>920</ele>
        <time>2017-09-17T17:05:21Z</time>
      </trkpt>
      <trkpt lat="43.9589" lon="7.71696">
        <ele>919</ele>
        <time>2017-09-17T17:05:22Z</time>
      </trkpt>
      <trkpt lat="43.9589" lon="7.71683">
        <ele>917</ele>
        <time>2017-09-17T17:05:23Z</time>
      </trkpt>
      <trkpt lat="43.95892" lon="7.7167">
        <ele>916</ele>
        <time>2017-09-17T17:05:24Z</time>
      </trkpt>
      <trkpt lat="43.95894" lon="7.71657">
        <ele>914</ele>
        <time>2017-09-17T17:05:25Z</time>
      </trkpt>
      <trkpt lat="43.95895" lon="7.71644">
        <ele>913</ele>
        <time>2017-09-17T17:05:26Z</time>
      </trkpt>
      <trkpt lat="43.95894" lon="7.71631">
        <ele>911</ele>
        <time>2017-09-17T17:05:27Z</time>
      </trkpt>
      <trkpt lat="43.95891" lon="7.71618">
        <ele>910</ele>
        <time>2017-09-17T17:05:28Z</time>
      </trkpt>
      <trkpt lat="43.95885" lon="7.71608">
        <ele>908</ele>
        <time>2017-09-17T17:05:29Z</time>
      </trkpt>
      <trkpt lat="43.95877" lon="7.716">
        <ele>907</ele>
        <time>2017-09-17T17:05:30Z</time>
      </trkpt>
      <trkpt lat="43.95867" lon="7.71594">
        <ele>906</ele>
        <time>2017-09-17T17:05:31Z</time>
      </trkpt>
      <trkpt lat="43.95857" lon="7.71589">
        <ele>905</ele>
        <time>2017-09-17T17:05:32Z</time>
      </trkpt>
      <trkpt lat="43.95848" lon="7.71585">
        <ele>905</ele>
        <time>2017-09-17T17:05:33Z</time>
      </trkpt>
      <trkpt lat="43.95839" lon="7.7158">
        <ele>904</ele>
        <time>2017-09-17T17:05:34Z</time>
      </trkpt>
      <trkpt lat="43.95833" lon="7.71572">
        <ele>903</ele>
        <time>2017-09-17T17:05:35Z</time>
      </trkpt>
      <trkpt lat="43.95828" lon="7.71563">
        <ele>902</ele>
        <time>2017-09-17T17:05:36Z</time>
      </trkpt>
      <trkpt lat="43.95825" lon="7.71552">
        <ele>901</ele>
        <time>2017-09-17T17:05:37Z</time>
      </trkpt>
      <trkpt lat="43.95824" lon="7.71539">
        <ele>900</ele>
        <time>2017-09-17T17:05:38Z</time>
      </trkpt>
      <trkpt lat="43.95827" lon="7.71527">
        <ele>899</ele>
        <time>2017-09-17T17:05:39Z</time>
      </trkpt>
      <trkpt lat="43.95832" lon="7.71515">
        <ele>897</ele>
        <time>2017-09-17T17:05:40Z</time>
      </trkpt>
      <trkpt lat="43.95838" lon="7.71503">
        <ele>896</ele>
        <time>2017-09-17T17:05:41Z</time>
      </trkpt>
      <trkpt lat="43.95845" lon="7.7149">
        <ele>895</ele>
        <time>2017-09-17T17:05:42Z</time>
      </trkpt>
      <trkpt lat="43.95852" lon="7.71477">
        <ele>893</ele>
        <time>2017-09-17T17:05:43Z</time>
      </trkpt>
      <trkpt lat="43.95858" lon="7.71463">
        <ele>892</ele>
        <time>2017-09-17T17:05:44Z</time>
      </trkpt>
      <trkpt lat="43.95862" lon="7.71446">
        <ele>890</ele>
        <time>2017-09-17T17:05:45Z</time>
      </trkpt>
      <trkpt lat="43.95864" lon="7.71429">
        <ele>889</ele>
        <time>2017-09-17T17:05:46Z</time>
      </trkpt>
      <trkpt lat="43.95865" lon="7.71414">
        <ele>888</ele>
        <time>2017-09-17T17:05:47Z</time>
      </trkpt>
      <trkpt lat="43.95864" lon="7.714">
        <ele>887</ele>
        <time>2017-09-17T17:05:48Z</time>
      </trkpt>
      <trkpt lat="43.9586" lon="7.71388">
        <ele>886</ele>
        <time>2017-09-17T17:05:49Z</time>
      </trkpt>
      <trkpt lat="43.95852" lon="7.7138">
        <ele>885</ele>
        <time>2017-09-17T17:05:50Z</time>
      </trkpt>
      <trkpt lat="43.95842" lon="7.71377">
        <ele>883</ele>
        <time>2017-09-17T17:05:51Z</time>
      </trkpt>
      <trkpt lat="43.95832" lon="7.71375">
        <ele>883</ele>
        <time>2017-09-17T17:05:52Z</time>
      </trkpt>
      <trkpt lat="43.95821" lon="7.71373">
        <ele>882</ele>
        <time>2017-09-17T17:05:53Z</time>
      </trkpt>
      <trkpt lat="43.95811" lon="7.71371">
        <ele>881</ele>
        <time>2017-09-17T17:05:54Z</time>
      </trkpt>
      <trkpt lat="43.95801" lon="7.71366">
        <ele>880</ele>
        <time>2017-09-17T17:05:55Z</time>
      </trkpt>
      <trkpt lat="43.95792" lon="7.71358">
        <ele>880</ele>
        <time>2017-09-17T17:05:56Z</time>
      </trkpt>
      <trkpt lat="43.95785" lon="7.71348">
        <ele>880</ele>
        <time>2017-09-17T17:05:57Z</time>
      </trkpt>
      <trkpt lat="43.95782" lon="7.71335">
        <ele>879</ele>
        <time>2017-09-17T17:05:58Z</time>
      </trkpt>
      <trkpt lat="43.9578" lon="7.71321">
        <ele>878</ele>
        <time>2017-09-17T17:05:59Z</time>
      </trkpt>
      <trkpt lat="43.95779" lon="7.71307">
        <ele>878</ele>
        <time>2017-09-17T17:06:00Z</time>
      </trkpt>
      <trkpt lat="43.95778" lon="7.71294">
        <ele>877</ele>
        <time>2017-09-17T17:06:01Z</time>
      </trkpt>
      <trkpt lat="43.95776" lon="7.71281">
        <ele>877</ele>
        <time>2017-09-17T17:06:02Z</time>
      </trkpt>
      <trkpt lat="43.95772" lon="7.71268">
        <ele>876</ele>
        <time>2017-09-17T17:06:03Z</time>
      </trkpt>
      <trkpt lat="43.95769" lon="7.71257">
        <ele>876</ele>
        <time>2017-09-17T17:06:04Z</time>
      </trkpt>
      <trkpt lat="43.95764" lon="7.71248">
        <ele>876</ele>
        <time>2017-09-17T17:06:05Z</time>
      </trkpt>
      <trkpt lat="43.95758" lon="7.71243">
        <ele>876</ele>
        <time>2017-09-17T17:06:06Z</time>
      </trkpt>
      <trkpt lat="43.9575" lon="7.71243">
        <ele>875</ele>
        <time>2017-09-17T17:06:07Z</time>
      </trkpt>
      <trkpt lat="43.95742" lon="7.71248">
        <ele>875</ele>
        <time>2017-09-17T17:06:08Z</time>
      </trkpt>
      <trkpt lat="43.95736" lon="7.71255">
        <ele>875</ele>
        <time>2017-09-17T17:06:09Z</time>
      </trkpt>
      <trkpt lat="43.95731" lon="7.71262">
        <ele>875</ele>
        <time>2017-09-17T17:06:10Z</time>
      </trkpt>
      <trkpt lat="43.95724" lon="7.71268">
        <ele>875</ele>
        <time>2017-09-17T17:06:11Z</time>
      </trkpt>
      <trkpt lat="43.95718" lon="7.71274">
        <ele>875</ele>
        <time>2017-09-17T17:06:12Z</time>
      </trkpt>
      <trkpt lat="43.95712" lon="7.71279">
        <ele>875</ele>
        <time>2017-09-17T17:06:13Z</time>
      </trkpt>
      <trkpt lat="43.95706" lon="7.71284">
        <ele>875</ele>
        <time>2017-09-17T17:06:14Z</time>
      </trkpt>
      <trkpt lat="43.957" lon="7.71289">
        <ele>875</ele>
        <time>2017-09-17T17:06:15Z</time>
      </trkpt>
      <trkpt lat="43.95694" lon="7.71294">
        <ele>874</ele>
        <time>2017-09-17T17:06:16Z</time>
      </trkpt>
      <trkpt lat="43.95688" lon="7.71299">
        <ele>874</ele>
        <time>2017-09-17T17:06:17Z</time>
      </trkpt>
      <trkpt lat="43.95682" lon="7.71304">
        <ele>874</ele>
        <time>2017-09-17T17:06:18Z</time>
      </trkpt>
      <trkpt lat="43.95677" lon="7.71309">
        <ele>874</ele>
        <time>2017-09-17T17:06:19Z</time>
      </trkpt>
      <trkpt lat="43.95671" lon="7.71314">
        <ele>874</ele>
        <time>2017-09-17T17:06:20Z</time>
      </trkpt>
      <trkpt lat="43.95665" lon="7.71318">
        <ele>874</ele>
        <time>2017-09-17T17:06:21Z</time>
      </trkpt>
      <trkpt lat="43.95659" lon="7.71323">
        <ele>874</ele>
        <time>2017-09-17T17:06:22Z</time>
      </trkpt>
      <trkpt lat="43.95653" lon="7.71328">
        <ele>874</ele>
        <time>2017-09-17T17:06:23Z</time>
      </trkpt>
      <trkpt lat="43.95648" lon="7.71333">
        <ele>874</ele>
        <time>2017-09-17T17:06:24Z</time>
      </trkpt>
      <trkpt lat="43.95642" lon="7.71338">
        <ele>874</ele>
        <time>2017-09-17T17:06:25Z</time>
      </trkpt>
      <trkpt lat="43.95637" lon="7.71344">
        <ele>874</ele>
        <time>2017-09-17T17:06:26Z</time>
      </trkpt>
      <trkpt lat="43.95632" lon="7.71351">
        <ele>874</ele>
        <time>2017-09-17T17:06:27Z</time>
      </trkpt>
      <trkpt lat="43.95627" lon="7.71358">
        <ele>874</ele>
        <time>2017-09-17T17:06:28Z</time>
      </trkpt>
      <trkpt lat="43.95622" lon="7.71364">
        <ele>874</ele>
        <time>2017-09-17T17:06:29Z</time>
      </trkpt>
      <trkpt lat="43.95618" lon="7.71371">
        <ele>874</ele>
        <time>2017-09-17T17:06:30Z</time>
      </trkpt>
      <trkpt lat="43.95613" lon="7.71377">
        <ele>874</ele>
        <time>2017-09-17T17:06:31Z</time>
      </trkpt>
      <trkpt lat="43.95608" lon="7.71382">
        <ele>874</ele>
        <time>2017-09-17T17:06:32Z</time>
      </trkpt>
      <trkpt lat="43.95603" lon="7.71387">
        <ele>873</ele>
        <time>2017-09-17T17:06:33Z</time>
      </trkpt>
      <trkpt lat="43.95598" lon="7.71392">
        <ele>873</ele>
        <time>2017-09-17T17:06:34Z</time>
      </trkpt>
      <trkpt lat="43.95592" lon="7.71396">
        <ele>873</ele>
        <time>2017-09-17T17:06:35Z</time>
      </trkpt>
      <trkpt lat="43.95587" lon="7.714">
        <ele>873</ele>
        <time>2017-09-17T17:06:36Z</time>
      </trkpt>
      <trkpt lat="43.95582" lon="7.71404">
        <ele>873</ele>
        <time>2017-09-17T17:06:37Z</time>
      </trkpt>
      <trkpt lat="43.95576" lon="7.71408">
        <ele>873</ele>
        <time>2017-09-17T17:06:38Z</time>
      </trkpt>
      <trkpt lat="43.95571" lon="7.71412">
        <ele>873</ele>
        <time>2017-09-17T17:06:39Z</time>
      </trkpt>
      <trkpt lat="43.95566" lon="7.71417">
        <ele>873</ele>
        <time>2017-09-17T17:06:40Z</time>
      </trkpt>
      <trkpt lat="43.95561" lon="7.71422">
        <ele>873</ele>
        <time>2017-09-17T17:06:41Z</time>
      </trkpt>
      <trkpt lat="43.95556" lon="7.71426">
        <ele>873</ele>
        <time>2017-09-17T17:06:42Z</time>
      </trkpt>
      <trkpt lat="43.95552" lon="7.71432">
        <ele>873</ele>
        <time>2017-09-17T17:06:43Z</time>
      </trkpt>
      <trkpt lat="43.95547" lon="7.71437">
        <ele>873</ele>
        <time>2017-09-17T17:06:44Z</time>
      </trkpt>
      <trkpt lat="43.95542" lon="7.71443">
        <ele>873</ele>
        <time>2017-09-17T17:06:45Z</time>
      </trkpt>
      <trkpt lat="43.95537" lon="7.71449">
        <ele>873</ele>
        <time>2017-09-17T17:06:46Z</time>
      </trkpt>
      <trkpt lat="43.95532" lon="7.71454">
        <ele>873</ele>
        <time>2017-09-17T17:06:47Z</time>
      </trkpt>
      <trkpt lat="43.95527" lon="7.71459">
        <ele>873</ele>
        <time>2017-09-17T17:06:48Z</time>
      </trkpt>
      <trkpt lat="43.95522" lon="7.71464">
        <ele>873</ele>
        <time>2017-09-17T17:06:49Z</time>
      </trkpt>
      <trkpt lat="43.95516" lon="7.71469">
        <ele>873</ele>
        <time>2017-09-17T17:06:50Z</time>
      </trkpt>
      <trkpt lat="43.9551" lon="7.71473">
        <ele>873</ele>
        <time>2017-09-17T17:06:51Z</time>
      </trkpt>
      <trkpt lat="43.95504" lon="7.71478">
        <ele>873</ele>
        <time>2017-09-17T17:06:52Z</time>
      </trkpt>
      <trkpt lat="43.95498" lon="7.71483">
        <ele>873</ele>
        <time>2017-09-17T17:06:53Z</time>
      </trkpt>
      <trkpt lat="43.95492" lon="7.71488">
        <ele>873</ele>
        <time>2017-09-17T17:06:54Z</time>
      </trkpt>
      <trkpt lat="43.95486" lon="7.71492">
        <ele>873</ele>
        <time>2017-09-17T17:06:55Z</time>
      </trkpt>
      <trkpt lat="43.9548" lon="7.71496">
        <ele>873</ele>
        <time>2017-09-17T17:06:56Z</time>
      </trkpt>
      <trkpt lat="43.95473" lon="7.71499">
        <ele>874</ele>
        <time>2017-09-17T17:06:57Z</time>
      </trkpt>
      <trkpt lat="43.95466" lon="7.71501">
        <ele>874</ele>
        <time>2017-09-17T17:06:58Z</time>
      </trkpt>
      <trkpt lat="43.95459" lon="7.715">
        <ele>873</ele>
        <time>2017-09-17T17:06:59Z</time>
      </trkpt>
      <trkpt lat="43.95453" lon="7.71497">
        <ele>873</ele>
        <time>2017-09-17T17:07:00Z</time>
      </trkpt>
      <trkpt lat="43.95446" lon="7.71493">
        <ele>873</ele>
        <time>2017-09-17T17:07:01Z</time>
      </trkpt>
      <trkpt lat="43.95439" lon="7.7149">
        <ele>873</ele>
        <time>2017-09-17T17:07:02Z</time>
      </trkpt>
      <trkpt lat="43.95431" lon="7.71488">
        <ele>873</ele>
        <time>2017-09-17T17:07:03Z</time>
      </trkpt>
      <trkpt lat="43.95424" lon="7.71487">
        <ele>873</ele>
        <time>2017-09-17T17:07:04Z</time>
      </trkpt>
      <trkpt lat="43.95415" lon="7.71485">
        <ele>873</ele>
        <time>2017-09-17T17:07:05Z</time>
      </trkpt>
      <trkpt lat="43.95407" lon="7.71482">
        <ele>872</ele>
        <time>2017-09-17T17:07:06Z</time>
      </trkpt>
      <trkpt lat="43.95399" lon="7.71479">
        <ele>872</ele>
        <time>2017-09-17T17:07:07Z</time>
      </trkpt>
      <trkpt lat="43.9539" lon="7.71477">
        <ele>872</ele>
        <time>2017-09-17T17:07:08Z</time>
      </trkpt>
      <trkpt lat="43.95381" lon="7.71473">
        <ele>872</ele>
        <time>2017-09-17T17:07:09Z</time>
      </trkpt>
      <trkpt lat="43.95372" lon="7.7147">
        <ele>871</ele>
        <time>2017-09-17T17:07:10Z</time>
      </trkpt>
      <trkpt lat="43.95363" lon="7.71466">
        <ele>871</ele>
        <time>2017-09-17T17:07:11Z</time>
      </trkpt>
      <trkpt lat="43.95354" lon="7.71462">
        <ele>871</ele>
        <time>2017-09-17T17:07:12Z</time>
      </trkpt>
      <trkpt lat="43.95345" lon="7.71457">
        <ele>871</ele>
        <time>2017-09-17T17:07:13Z</time>
      </trkpt>
      <trkpt lat="43.95336" lon="7.7145">
        <ele>871</ele>
        <time>2017-09-17T17:07:14Z</time>
      </trkpt>
      <trkpt lat="43.95329" lon="7.71442">
        <ele>871</ele>
        <time>2017-09-17T17:07:15Z</time>
      </trkpt>
      <trkpt lat="43.95322" lon="7.71433">
        <ele>871</ele>
        <time>2017-09-17T17:07:16Z</time>
      </trkpt>
      <trkpt lat="43.95316" lon="7.71422">
        <ele>870</ele>
        <time>2017-09-17T17:07:17Z</time>
      </trkpt>
      <trkpt lat="43.95311" lon="7.71411">
        <ele>870</ele>
        <time>2017-09-17T17:07:18Z</time>
      </trkpt>
      <trkpt lat="43.95305" lon="7.714">
        <ele>869</ele>
        <time>2017-09-17T17:07:19Z</time>
      </trkpt>
      <trkpt lat="43.953" lon="7.71389">
        <ele>869</ele>
        <time>2017-09-17T17:07:20Z</time>
      </trkpt>
      <trkpt lat="43.95294" lon="7.71378">
        <ele>868</ele>
        <time>2017-09-17T17:07:21Z</time>
      </trkpt>
      <trkpt lat="43.9529" lon="7.71365">
        <ele>867</ele>
        <time>2017-09-17T17:07:22Z</time>
      </trkpt>
      <trkpt lat="43.95288" lon="7.71351">
        <ele>865</ele>
        <time>2017-09-17T17:07:23Z</time>
      </trkpt>
      <trkpt lat="43.95288" lon="7.71339">
        <ele>864</ele>
        <time>2017-09-17T17:07:24Z</time>
      </trkpt>
      <trkpt lat="43.95291" lon="7.71327">
        <ele>863</ele>
        <time>2017-09-17T17:07:25Z</time>
      </trkpt>
      <trkpt lat="43.95295" lon="7.71317">
        <ele>862</ele>
        <time>2017-09-17T17:07:26Z</time>
      </trkpt>
      <trkpt lat="43.95301" lon="7.71306">
        <ele>861</ele>
        <time>2017-09-17T17:07:27Z</time>
      </trkpt>
      <trkpt lat="43.95306" lon="7.71295">
        <ele>860</ele>
        <time>2017-09-17T17:07:28Z</time>
      </trkpt>
      <trkpt lat="43.95309" lon="7.71283">
        <ele>859</ele>
        <time>2017-09-17T17:07:29Z</time>
      </trkpt>
      <trkpt lat="43.95312" lon="7.7127">
        <ele>858</ele>
        <time>2017-09-17T17:07:30Z</time>
      </trkpt>
      <trkpt lat="43.95316" lon="7.71257">
        <ele>857</ele>
        <time>2017-09-17T17:07:31Z</time>
      </trkpt>
      <trkpt lat="43.95321" lon="7.71245">
        <ele>856</ele>
        <time>2017-09-17T17:07:32Z</time>
      </trkpt>
      <trkpt lat="43.95328" lon="7.71233">
        <ele>855</ele>
        <time>2017-09-17T17:07:33Z</time>
      </trkpt>
      <trkpt lat="43.95337" lon="7.71224">
        <ele>854</ele>
        <time>2017-09-17T17:07:34Z</time>
      </trkpt>
      <trkpt lat="43.95346" lon="7.71217">
        <ele>853</ele>
        <time>2017-09-17T17:07:35Z</time>
      </trkpt>
      <trkpt lat="43.95355" lon="7.71208">
        <ele>852</ele>
        <time>2017-09-17T17:07:36Z</time>
      </trkpt>
      <trkpt lat="43.95364" lon="7.71199">
        <ele>851</ele>
        <time>2017-09-17T17:07:37Z</time>
      </trkpt>
      <trkpt lat="43.95371" lon="7.71186">
        <ele>851</ele>
        <time>2017-09-17T17:07:38Z</time>
      </trkpt>
      <trkpt lat="43.95376" lon="7.71173">
        <ele>850</ele>
        <time>2017-09-17T17:07:39Z</time>
      </trkpt>
      <trkpt lat="43.95381" lon="7.71159">
        <ele>849</ele>
        <time>2017-09-17T17:07:40Z</time>
      </trkpt>
      <trkpt lat="43.95387" lon="7.71147">
        <ele>848</ele>
        <time>2017-09-17T17:07:41Z</time>
      </trkpt>
      <trkpt lat="43.95394" lon="7.71136">
        <ele>847</ele>
        <time>2017-09-17T17:07:42Z</time>
      </trkpt>
      <trkpt lat="43.95401" lon="7.71125">
        <ele>847</ele>
        <time>2017-09-17T17:07:43Z</time>
      </trkpt>
      <trkpt lat="43.95405" lon="7.71111">
        <ele>846</ele>
        <time>2017-09-17T17:07:44Z</time>
      </trkpt>
      <trkpt lat="43.95405" lon="7.71097">
        <ele>845</ele>
        <time>2017-09-17T17:07:45Z</time>
      </trkpt>
      <trkpt lat="43.95403" lon="7.71083">
        <ele>844</ele>
        <time>2017-09-17T17:07:46Z</time>
      </trkpt>
      <trkpt lat="43.95404" lon="7.7107">
        <ele>843</ele>
        <time>2017-09-17T17:07:47Z</time>
      </trkpt>
      <trkpt lat="43.95407" lon="7.71058">
        <ele>842</ele>
        <time>2017-09-17T17:07:48Z</time>
      </trkpt>
      <trkpt lat="43.95412" lon="7.71047">
        <ele>841</ele>
        <time>2017-09-17T17:07:49Z</time>
      </trkpt>
      <trkpt lat="43.95417" lon="7.71036">
        <ele>840</ele>
        <time>2017-09-17T17:07:50Z</time>
      </trkpt>
      <trkpt lat="43.9542" lon="7.71025">
        <ele>839</ele>
        <time>2017-09-17T17:07:51Z</time>
      </trkpt>
      <trkpt lat="43.95417" lon="7.71013">
        <ele>838</ele>
        <time>2017-09-17T17:07:52Z</time>
      </trkpt>
      <trkpt lat="43.95413" lon="7.71002">
        <ele>837</ele>
        <time>2017-09-17T17:07:53Z</time>
      </trkpt>
      <trkpt lat="43.95409" lon="7.7099">
        <ele>836</ele>
        <time>2017-09-17T17:07:54Z</time>
      </trkpt>
      <trkpt lat="43.95407" lon="7.70978">
        <ele>836</ele>
        <time>2017-09-17T17:07:55Z</time>
      </trkpt>
      <trkpt lat="43.95404" lon="7.70969">
        <ele>835</ele>
        <time>2017-09-17T17:07:56Z</time>
      </trkpt>
      <trkpt lat="43.95399" lon="7.70963">
        <ele>834</ele>
        <time>2017-09-17T17:07:57Z</time>
      </trkpt>
      <trkpt lat="43.95391" lon="7.70963">
        <ele>834</ele>
        <time>2017-09-17T17:07:58Z</time>
      </trkpt>
      <trkpt lat="43.95383" lon="7.70965">
        <ele>833</ele>
        <time>2017-09-17T17:07:59Z</time>
      </trkpt>
      <trkpt lat="43.95374" lon="7.70967">
        <ele>833</ele>
        <time>2017-09-17T17:08:00Z</time>
      </trkpt>
      <trkpt lat="43.95365" lon="7.70967">
        <ele>832</ele>
        <time>2017-09-17T17:08:01Z</time>
      </trkpt>
      <trkpt lat="43.95355" lon="7.70964">
        <ele>832</ele>
        <time>2017-09-17T17:08:02Z</time>
      </trkpt>
      <trkpt lat="43.95346" lon="7.70961">
        <ele>831</ele>
        <time>2017-09-17T17:08:03Z</time>
      </trkpt>
      <trkpt lat="43.95338" lon="7.70954">
        <ele>831</ele>
        <time>2017-09-17T17:08:04Z</time>
      </trkpt>
      <trkpt lat="43.95333" lon="7.70945">
        <ele>830</ele>
        <time>2017-09-17T17:08:05Z</time>
      </trkpt>
      <trkpt lat="43.95329" lon="7.70934">
        <ele>830</ele>
        <time>2017-09-17T17:08:06Z</time>
      </trkpt>
      <trkpt lat="43.95323" lon="7.70924">
        <ele>829</ele>
        <time>2017-09-17T17:08:07Z</time>
      </trkpt>
      <trkpt lat="43.95316" lon="7.70917">
        <ele>829</ele>
        <time>2017-09-17T17:08:08Z</time>
      </trkpt>
      <trkpt lat="43.95306" lon="7.70915">
        <ele>828</ele>
        <time>2017-09-17T17:08:09Z</time>
      </trkpt>
      <trkpt lat="43.95296" lon="7.70914">
        <ele>827</ele>
        <time>2017-09-17T17:08:10Z</time>
      </trkpt>
      <trkpt lat="43.95286" lon="7.70912">
        <ele>827</ele>
        <time>2017-09-17T17:08:11Z</time>
      </trkpt>
      <trkpt lat="43.95276" lon="7.7091">
        <ele>826</ele>
        <time>2017-09-17T17:08:12Z</time>
      </trkpt>
      <trkpt lat="43.95266" lon="7.7091">
        <ele>825</ele>
        <time>2017-09-17T17:08:13Z</time>
      </trkpt>
      <trkpt lat="43.95256" lon="7.70914">
        <ele>824</ele>
        <time>2017-09-17T17:08:14Z</time>
      </trkpt>
      <trkpt lat="43.95246" lon="7.7092">
        <ele>823</ele>
        <time>2017-09-17T17:08:15Z</time>
      </trkpt>
      <trkpt lat="43.95236" lon="7.70925">
        <ele>822</ele>
        <time>2017-09-17T17:08:16Z</time>
      </trkpt>
      <trkpt lat="43.95226" lon="7.70928">
        <ele>822</ele>
        <time>2017-09-17T17:08:17Z</time>
      </trkpt>
      <trkpt lat="43.95216" lon="7.70927">
        <ele>821</ele>
        <time>2017-09-17T17:08:18Z</time>
      </trkpt>
      <trkpt lat="43.95207" lon="7.70923">
        <ele>821</ele>
        <time>2017-09-17T17:08:19Z</time>
      </trkpt>
      <trkpt lat="43.95201" lon="7.70915">
        <ele>821</ele>
        <time>2017-09-17T17:08:20Z</time>
      </trkpt>
      <trkpt lat="43.95195" lon="7.70904">
        <ele>820</ele>
        <time>2017-09-17T17:08:21Z</time>
      </trkpt>
      <trkpt lat="43.95188" lon="7.70894">
        <ele>820</ele>
        <time>2017-09-17T17:08:22Z</time>
      </trkpt>
      <trkpt lat="43.95181" lon="7.70885">
        <ele>820</ele>
        <time>2017-09-17T17:08:23Z</time>
      </trkpt>
      <trkpt lat="43.95172" lon="7.70877">
        <ele>820</ele>
        <time>2017-09-17T17:08:24Z</time>
      </trkpt>
      <trkpt lat="43.95162" lon="7.70871">
        <ele>820</ele>
        <time>2017-09-17T17:08:25Z</time>
      </trkpt>
      <trkpt lat="43.95151" lon="7.70869">
        <ele>820</ele>
        <time>2017-09-17T17:08:26Z</time>
      </trkpt>
      <trkpt lat="43.9514" lon="7.7087">
        <ele>819</ele>
        <time>2017-09-17T17:08:27Z</time>
      </trkpt>
      <trkpt lat="43.95129" lon="7.70871">
        <ele>819</ele>
        <time>2017-09-17T17:08:28Z</time>
      </trkpt>
      <trkpt lat="43.95118" lon="7.70872">
        <ele>819</ele>
        <time>2017-09-17T17:08:29Z</time>
      </trkpt>
      <trkpt lat="43.95107" lon="7.70871">
        <ele>818</ele>
        <time>2017-09-17T17:08:30Z</time>
      </trkpt>
      <trkpt lat="43.95097" lon="7.70868">
        <ele>818</ele>
        <time>2017-09-17T17:08:31Z</time>
      </trkpt>
      <trkpt lat="43.95088" lon="7.70862">
        <ele>817</ele>
        <time>2017-09-17T17:08:32Z</time>
      </trkpt>
      <trkpt lat="43.95081" lon="7.70852">
        <ele>816</ele>
        <time>2017-09-17T17:08:33Z</time>
      </trkpt>
      <trkpt lat="43.95072" lon="7.70843">
        <ele>815</ele>
        <time>2017-09-17T17:08:34Z</time>
      </trkpt>
      <trkpt lat="43.95062" lon="7.70837">
        <ele>815</ele>
        <time>2017-09-17T17:08:35Z</time>
      </trkpt>
      <trkpt lat="43.95052" lon="7.70838">
        <ele>814</ele>
        <time>2017-09-17T17:08:36Z</time>
      </trkpt>
      <trkpt lat="43.95041" lon="7.70841">
        <ele>814</ele>
        <time>2017-09-17T17:08:37Z</time>
      </trkpt>
      <trkpt lat="43.95031" lon="7.70843">
        <ele>813</ele>
        <time>2017-09-17T17:08:38Z</time>
      </trkpt>
      <trkpt lat="43.9502" lon="7.70845">
        <ele>812</ele>
        <time>2017-09-17T17:08:39Z</time>
      </trkpt>
      <trkpt lat="43.95008" lon="7.70846">
        <ele>811</ele>
        <time>2017-09-17T17:08:40Z</time>
      </trkpt>
      <trkpt lat="43.94997" lon="7.70847">
        <ele>810</ele>
        <time>2017-09-17T17:08:41Z</time>
      </trkpt>
      <trkpt lat="43.94986" lon="7.70848">
        <ele>809</ele>
        <time>2017-09-17T17:08:42Z</time>
      </trkpt>
      <trkpt lat="43.94977" lon="7.70848">
        <ele>808</ele>
        <time>2017-09-17T17:08:43Z</time>
      </trkpt>
      <trkpt lat="43.94969" lon="7.70845">
        <ele>806</ele>
        <time>2017-09-17T17:08:44Z</time>
      </trkpt>
      <trkpt lat="43.94962" lon="7.70838">
        <ele>805</ele>
        <time>2017-09-17T17:08:45Z</time>
      </trkpt>
      <trkpt lat="43.9496" lon="7.70827">
        <ele>803</ele>
        <time>2017-09-17T17:08:46Z</time>
      </trkpt>
      <trkpt lat="43.9496" lon="7.70814">
        <ele>802</ele>
        <time>2017-09-17T17:08:47Z</time>
      </trkpt>
      <trkpt lat="43.9496" lon="7.708">
        <ele>801</ele>
        <time>2017-09-17T17:08:48Z</time>
      </trkpt>
      <trkpt lat="43.94962" lon="7.70786">
        <ele>799</ele>
        <time>2017-09-17T17:08:49Z</time>
      </trkpt>
      <trkpt lat="43.94964" lon="7.70772">
        <ele>798</ele>
        <time>2017-09-17T17:08:50Z</time>
      </trkpt>
      <trkpt lat="43.94965" lon="7.70757">
        <ele>797</ele>
        <time>2017-09-17T17:08:51Z</time>
      </trkpt>
      <trkpt lat="43.94967" lon="7.70743">
        <ele>795</ele>
        <time>2017-09-17T17:08:52Z</time>
      </trkpt>
      <trkpt lat="43.94969" lon="7.70731">
        <ele>794</ele>
        <time>2017-09-17T17:08:53Z</time>
      </trkpt>
      <trkpt lat="43.94969" lon="7.70718">
        <ele>793</ele>
        <time>2017-09-17T17:08:54Z</time>
      </trkpt>
      <trkpt lat="43.94966" lon="7.70706">
        <ele>792</ele>
        <time>2017-09-17T17:08:55Z</time>
      </trkpt>
      <trkpt lat="43.94959" lon="7.70697">
        <ele>791</ele>
        <time>2017-09-17T17:08:56Z</time>
      </trkpt>
      <trkpt lat="43.94951" lon="7.7069">
        <ele>790</ele>
        <time>2017-09-17T17:08:57Z</time>
      </trkpt>
      <trkpt lat="43.94943" lon="7.70682">
        <ele>790</ele>
        <time>2017-09-17T17:08:58Z</time>
      </trkpt>
      <trkpt lat="43.94933" lon="7.70675">
        <ele>789</ele>
        <time>2017-09-17T17:08:59Z</time>
      </trkpt>
      <trkpt lat="43.94923" lon="7.70673">
        <ele>788</ele>
        <time>2017-09-17T17:09:00Z</time>
      </trkpt>
      <trkpt lat="43.94912" lon="7.70674">
        <ele>788</ele>
        <time>2017-09-17T17:09:01Z</time>
      </trkpt>
      <trkpt lat="43.94901" lon="7.70676">
        <ele>787</ele>
        <time>2017-09-17T17:09:02Z</time>
      </trkpt>
      <trkpt lat="43.94889" lon="7.70677">
        <ele>786</ele>
        <time>2017-09-17T17:09:03Z</time>
      </trkpt>
      <trkpt lat="43.94877" lon="7.70677">
        <ele>785</ele>
        <time>2017-09-17T17:09:04Z</time>
      </trkpt>
      <trkpt lat="43.94865" lon="7.70678">
        <ele>784</ele>
        <time>2017-09-17T17:09:05Z</time>
      </trkpt>
      <trkpt lat="43.94854" lon="7.70681">
        <ele>783</ele>
        <time>2017-09-17T17:09:06Z</time>
      </trkpt>
      <trkpt lat="43.94843" lon="7.70681">
        <ele>782</ele>
        <time>2017-09-17T17:09:07Z</time>
      </trkpt>
      <trkpt lat="43.94832" lon="7.70679">
        <ele>781</ele>
        <time>2017-09-17T17:09:08Z</time>
      </trkpt>
      <trkpt lat="43.94821" lon="7.70676">
        <ele>780</ele>
        <time>2017-09-17T17:09:09Z</time>
      </trkpt>
      <trkpt lat="43.94811" lon="7.70676">
        <ele>779</ele>
        <time>2017-09-17T17:09:10Z</time>
      </trkpt>
      <trkpt lat="43.948" lon="7.70681">
        <ele>779</ele>
        <time>2017-09-17T17:09:11Z</time>
      </trkpt>
      <trkpt lat="43.9479" lon="7.70688">
        <ele>778</ele>
        <time>2017-09-17T17:09:12Z</time>
      </trkpt>
      <trkpt lat="43.94781" lon="7.70697">
        <ele>777</ele>
        <time>2017-09-17T17:09:13Z</time>
      </trkpt>
      <trkpt lat="43.94772" lon="7.70706">
        <ele>776</ele>
        <time>2017-09-17T17:09:14Z</time>
      </trkpt>
      <trkpt lat="43.94762" lon="7.70711">
        <ele>774</ele>
        <time>2017-09-17T17:09:15Z</time>
      </trkpt>
      <trkpt lat="43.94753" lon="7.70712">
        <ele>773</ele>
        <time>2017-09-17T17:09:16Z</time>
      </trkpt>
      <trkpt lat="43.94744" lon="7.7071">
        <ele>772</ele>
        <time>2017-09-17T17:09:17Z</time>
      </trkpt>
      <trkpt lat="43.94735" lon="7.70703">
        <ele>772</ele>
        <time>2017-09-17T17:09:18Z</time>
      </trkpt>
      <trkpt lat="43.94726" lon="7.70698">
        <ele>771</ele>
        <time>2017-09-17T17:09:19Z</time>
      </trkpt>
      <trkpt lat="43.94716" lon="7.70696">
        <ele>770</ele>
        <time>2017-09-17T17:09:20Z</time>
      </trkpt>
      <trkpt lat="43.94706" lon="7.70699">
        <ele>769</ele>
        <time>2017-09-17T17:09:21Z</time>
      </trkpt>
      <trkpt lat="43.94697" lon="7.70706">
        <ele>768</ele>
        <time>2017-09-17T17:09:22Z</time>
      </trkpt>
      <trkpt lat="43.94687" lon="7.70712">
        <ele>768</ele>
        <time>2017-09-17T17:09:23Z</time>
      </trkpt>
      <trkpt lat="43.94678" lon="7.70717">
        <ele>767</ele>
        <time>2017-09-17T17:09:24Z</time>
      </trkpt>
      <trkpt lat="43.94669" lon="7.70719">
        <ele>766</ele>
        <time>2017-09-17T17:09:25Z</time>
      </trkpt>
      <trkpt lat="43.94663" lon="7.70717">
        <ele>765</ele>
        <time>2017-09-17T17:09:26Z</time>
      </trkpt>
      <trkpt lat="43.94659" lon="7.70711">
        <ele>764</ele>
        <time>2017-09-17T17:09:27Z</time>
      </trkpt>
      <trkpt lat="43.9466" lon="7.70702">
        <ele>762</ele>
        <time>2017-09-17T17:09:28Z</time>
      </trkpt>
      <trkpt lat="43.94663" lon="7.70692">
        <ele>761</ele>
        <time>2017-09-17T17:09:29Z</time>
      </trkpt>
      <trkpt lat="43.94667" lon="7.70681">
        <ele>759</ele>
        <time>2017-09-17T17:09:30Z</time>
      </trkpt>
      <trkpt lat="43.94671" lon="7.7067">
        <ele>758</ele>
        <time>2017-09-17T17:09:31Z</time>
      </trkpt>
      <trkpt lat="43.94673" lon="7.70657">
        <ele>756</ele>
        <time>2017-09-17T17:09:32Z</time>
      </trkpt>
      <trkpt lat="43.94673" lon="7.70643">
        <ele>755</ele>
        <time>2017-09-17T17:09:33Z</time>
      </trkpt>
      <trkpt lat="43.94673" lon="7.70629">
        <ele>753</ele>
        <time>2017-09-17T17:09:34Z</time>
      </trkpt>
      <trkpt lat="43.94673" lon="7.70614">
        <ele>752</ele>
        <time>2017-09-17T17:09:35Z</time>
      </trkpt>
      <trkpt lat="43.94676" lon="7.70599">
        <ele>750</ele>
        <time>2017-09-17T17:09:36Z</time>
      </trkpt>
      <trkpt lat="43.9468" lon="7.70585">
        <ele>749</ele>
        <time>2017-09-17T17:09:37Z</time>
      </trkpt>
      <trkpt lat="43.94683" lon="7.7057">
        <ele>748</ele>
        <time>2017-09-17T17:09:38Z</time>
      </trkpt>
      <trkpt lat="43.94684" lon="7.70554">
        <ele>746</ele>
        <time>2017-09-17T17:09:39Z</time>
      </trkpt>
      <trkpt lat="43.94685" lon="7.70537">
        <ele>745</ele>
        <time>2017-09-17T17:09:40Z</time>
      </trkpt>
      <trkpt lat="43.94683" lon="7.70521">
        <ele>744</ele>
        <time>2017-09-17T17:09:41Z</time>
      </trkpt>
      <trkpt lat="43.94679" lon="7.70506">
        <ele>743</ele>
        <time>2017-09-17T17:09:42Z</time>
      </trkpt>
      <trkpt lat="43.94672" lon="7.70492">
        <ele>742</ele>
        <time>2017-09-17T17:09:43Z</time>
      </trkpt>
      <trkpt lat="43.94663" lon="7.70481">
        <ele>741</ele>
        <time>2017-09-17T17:09:44Z</time>
      </trkpt>
      <trkpt lat="43.94654" lon="7.70471">
        <ele>741</ele>
        <time>2017-09-17T17:09:45Z</time>
      </trkpt>
      <trkpt lat="43.94645" lon="7.70458">
        <ele>740</ele>
        <time>2017-09-17T17:09:46Z</time>
      </trkpt>
      <trkpt lat="43.94638" lon="7.70445">
        <ele>739</ele>
        <time>2017-09-17T17:09:47Z</time>
      </trkpt>
      <trkpt lat="43.94631" lon="7.7043">
        <ele>739</ele>
        <time>2017-09-17T17:09:48Z</time>
      </trkpt>
      <trkpt lat="43.94623" lon="7.70419">
        <ele>738</ele>
        <time>2017-09-17T17:09:49Z</time>
      </trkpt>
      <trkpt lat="43.94617" lon="7.70409">
        <ele>737</ele>
        <time>2017-09-17T17:09:50Z</time>
      </trkpt>
      <trkpt lat="43.94613" lon="7.70399">
        <ele>736</ele>
        <time>2017-09-17T17:09:51Z</time>
      </trkpt>
      <trkpt lat="43.94614" lon="7.70389">
        <ele>735</ele>
        <time>2017-09-17T17:09:52Z</time>
      </trkpt>
      <trkpt lat="43.94618" lon="7.7038">
        <ele>734</ele>
        <time>2017-09-17T17:09:53Z</time>
      </trkpt>
      <trkpt lat="43.94625" lon="7.70372">
        <ele>733</ele>
        <time>2017-09-17T17:09:54Z</time>
      </trkpt>
      <trkpt lat="43.94631" lon="7.70364">
        <ele>732</ele>
        <time>2017-09-17T17:09:55Z</time>
      </trkpt>
      <trkpt lat="43.94638" lon="7.70355">
        <ele>731</ele>
        <time>2017-09-17T17:09:56Z</time>
      </trkpt>
      <trkpt lat="43.94645" lon="7.70347">
        <ele>730</ele>
        <time>2017-09-17T17:09:57Z</time>
      </trkpt>
      <trkpt lat="43.94653" lon="7.70341">
        <ele>729</ele>
        <time>2017-09-17T17:09:58Z</time>
      </trkpt>
      <trkpt lat="43.94662" lon="7.70335">
        <ele>728</ele>
        <time>2017-09-17T17:09:59Z</time>
      </trkpt>
      <trkpt lat="43.94672" lon="7.70331">
        <ele>727</ele>
        <time>2017-09-17T17:10:00Z</time>
      </trkpt>
      <trkpt lat="43.94681" lon="7.70326">
        <ele>726</ele>
        <time>2017-09-17T17:10:01Z</time>
      </trkpt>
      <trkpt lat="43.94691" lon="7.70322">
        <ele>725</ele>
        <time>2017-09-17T17:10:02Z</time>
      </trkpt>
      <trkpt lat="43.947" lon="7.70317">
        <ele>725</ele>
        <time>2017-09-17T17:10:03Z</time>
      </trkpt>
      <trkpt lat="43.94708" lon="7.7031">
        <ele>724</ele>
        <time>2017-09-17T17:10:04Z</time>
      </trkpt>
      <trkpt lat="43.94713" lon="7.70301">
        <ele>723</ele>
        <time>2017-09-17T17:10:05Z</time>
      </trkpt>
      <trkpt lat="43.94712" lon="7.70288">
        <ele>722</ele>
        <time>2017-09-17T17:10:06Z</time>
      </trkpt>
      <trkpt lat="43.9471" lon="7.70274">
        <ele>721</ele>
        <time>2017-09-17T17:10:07Z</time>
      </trkpt>
      <trkpt lat="43.94709" lon="7.70261">
        <ele>720</ele>
        <time>2017-09-17T17:10:08Z</time>
      </trkpt>
      <trkpt lat="43.94712" lon="7.70248">
        <ele>719</ele>
        <time>2017-09-17T17:10:09Z</time>
      </trkpt>
      <trkpt lat="43.94717" lon="7.70237">
        <ele>718</ele>
        <time>2017-09-17T17:10:10Z</time>
      </trkpt>
      <trkpt lat="43.94723" lon="7.70228">
        <ele>718</ele>
        <time>2017-09-17T17:10:11Z</time>
      </trkpt>
      <trkpt lat="43.94732" lon="7.70222">
        <ele>717</ele>
        <time>2017-09-17T17:10:12Z</time>
      </trkpt>
      <trkpt lat="43.94741" lon="7.70218">
        <ele>716</ele>
        <time>2017-09-17T17:10:13Z</time>
      </trkpt>
      <trkpt lat="43.9475" lon="7.70213">
        <ele>715</ele>
        <time>2017-09-17T17:10:14Z</time>
      </trkpt>
      <trkpt lat="43.9476" lon="7.7021">
        <ele>715</ele>
        <time>2017-09-17T17:10:15Z</time>
      </trkpt>
      <trkpt lat="43.9477" lon="7.70206">
        <ele>714</ele>
        <time>2017-09-17T17:10:16Z</time>
      </trkpt>
      <trkpt lat="43.9478" lon="7.70202">
        <ele>713</ele>
        <time>2017-09-17T17:10:17Z</time>
      </trkpt>
      <trkpt lat="43.9479" lon="7.70198">
        <ele>712</ele>
        <time>2017-09-17T17:10:18Z</time>
      </trkpt>
      <trkpt lat="43.94801" lon="7.70194">
        <ele>712</ele>
        <time>2017-09-17T17:10:19Z</time>
      </trkpt>
      <trkpt lat="43.94811" lon="7.70189">
        <ele>711</ele>
        <time>2017-09-17T17:10:20Z</time>
      </trkpt>
      <trkpt lat="43.9482" lon="7.70183">
        <ele>710</ele>
        <time>2017-09-17T17:10:21Z</time>
      </trkpt>
      <trkpt lat="43.94828" lon="7.70177">
        <ele>710</ele>
        <time>2017-09-17T17:10:22Z</time>
      </trkpt>
      <trkpt lat="43.94834" lon="7.70168">
        <ele>709</ele>
        <time>2017-09-17T17:10:23Z</time>
      </trkpt>
      <trkpt lat="43.94837" lon="7.70157">
        <ele>709</ele>
        <time>2017-09-17T17:10:24Z</time>
      </trkpt>
      <trkpt lat="43.94835" lon="7.70147">
        <ele>708</ele>
        <time>2017-09-17T17:10:25Z</time>
      </trkpt>
      <trkpt lat="43.94829" lon="7.70139">
        <ele>708</ele>
        <time>2017-09-17T17:10:26Z</time>
      </trkpt>
      <trkpt lat="43.94823" lon="7.70131">
        <ele>707</ele>
        <time>2017-09-17T17:10:27Z</time>
      </trkpt>
      <trkpt lat="43.94817" lon="7.70121">
        <ele>707</ele>
        <time>2017-09-17T17:10:28Z</time>
      </trkpt>
      <trkpt lat="43.94811" lon="7.70111">
        <ele>706</ele>
        <time>2017-09-17T17:10:29Z</time>
      </trkpt>
      <trkpt lat="43.94805" lon="7.701">
        <ele>705</ele>
        <time>2017-09-17T17:10:30Z</time>
      </trkpt>
      <trkpt lat="43.94801" lon="7.70088">
        <ele>705</ele>
        <time>2017-09-17T17:10:31Z</time>
      </trkpt>
      <trkpt lat="43.94799" lon="7.70075">
        <ele>704</ele>
        <time>2017-09-17T17:10:32Z</time>
      </trkpt>
      <trkpt lat="43.94799" lon="7.70062">
        <ele>703</ele>
        <time>2017-09-17T17:10:33Z</time>
      </trkpt>
      <trkpt lat="43.948" lon="7.70048">
        <ele>702</ele>
        <time>2017-09-17T17:10:34Z</time>
      </trkpt>
      <trkpt lat="43.94798" lon="7.70033">
        <ele>702</ele>
        <time>2017-09-17T17:10:35Z</time>
      </trkpt>
      <trkpt lat="43.94797" lon="7.70019">
        <ele>701</ele>
        <time>2017-09-17T17:10:36Z</time>
      </trkpt>
      <trkpt lat="43.94796" lon="7.70005">
        <ele>700</ele>
        <time>2017-09-17T17:10:37Z</time>
      </trkpt>
      <trkpt lat="43.94795" lon="7.69993">
        <ele>699</ele>
        <time>2017-09-17T17:10:38Z</time>
      </trkpt>
      <trkpt lat="43.94791" lon="7.69981">
        <ele>699</ele>
        <time>2017-09-17T17:10:39Z</time>
      </trkpt>
      <trkpt lat="43.94785" lon="7.69973">
        <ele>698</ele>
        <time>2017-09-17T17:10:40Z</time>
      </trkpt>
      <trkpt lat="43.94777" lon="7.69969">
        <ele>697</ele>
        <time>2017-09-17T17:10:41Z</time>
      </trkpt>
      <trkpt lat="43.94769" lon="7.69969">
        <ele>697</ele>
        <time>2017-09-17T17:10:42Z</time>
      </trkpt>
      <trkpt lat="43.94759" lon="7.69971">
        <ele>697</ele>
        <time>2017-09-17T17:10:43Z</time>
      </trkpt>
      <trkpt lat="43.9475" lon="7.69972">
        <ele>696</ele>
        <time>2017-09-17T17:10:44Z</time>
      </trkpt>
      <trkpt lat="43.9474" lon="7.69971">
        <ele>696</ele>
        <time>2017-09-17T17:10:45Z</time>
      </trkpt>
      <trkpt lat="43.9473" lon="7.69967">
        <ele>696</ele>
        <time>2017-09-17T17:10:46Z</time>
      </trkpt>
      <trkpt lat="43.94722" lon="7.69959">
        <ele>696</ele>
        <time>2017-09-17T17:10:47Z</time>
      </trkpt>
      <trkpt lat="43.94715" lon="7.69949">
        <ele>695</ele>
        <time>2017-09-17T17:10:48Z</time>
      </trkpt>
      <trkpt lat="43.94708" lon="7.6994">
        <ele>695</ele>
        <time>2017-09-17T17:10:49Z</time>
      </trkpt>
      <trkpt lat="43.94699" lon="7.69935">
        <ele>695</ele>
        <time>2017-09-17T17:10:50Z</time>
      </trkpt>
      <trkpt lat="43.94689" lon="7.69935">
        <ele>695</ele>
        <time>2017-09-17T17:10:51Z</time>
      </trkpt>
      <trkpt lat="43.94679" lon="7.69937">
        <ele>694</ele>
        <time>2017-09-17T17:10:52Z</time>
      </trkpt>
      <trkpt lat="43.9467" lon="7.69935">
        <ele>693</ele>
        <time>2017-09-17T17:10:53Z</time>
      </trkpt>
      <trkpt lat="43.94662" lon="7.6993">
        <ele>692</ele>
        <time>2017-09-17T17:10:54Z</time>
      </trkpt>
      <trkpt lat="43.94654" lon="7.69922">
        <ele>691</ele>
        <time>2017-09-17T17:10:55Z</time>
      </trkpt>
      <trkpt lat="43.94646" lon="7.69916">
        <ele>690</ele>
        <time>2017-09-17T17:10:56Z</time>
      </trkpt>
      <trkpt lat="43.94637" lon="7.69912">
        <ele>689</ele>
        <time>2017-09-17T17:10:57Z</time>
      </trkpt>
      <trkpt lat="43.94629" lon="7.69908">
        <ele>688</ele>
        <time>2017-09-17T17:10:58Z</time>
      </trkpt>
      <trkpt lat="43.94624" lon="7.699">
        <ele>688</ele>
        <time>2017-09-17T17:10:59Z</time>
      </trkpt>
      <trkpt lat="43.94622" lon="7.69891">
        <ele>687</ele>
        <time>2017-09-17T17:11:00Z</time>
      </trkpt>
      <trkpt lat="43.94621" lon="7.69879">
        <ele>686</ele>
        <time>2017-09-17T17:11:01Z</time>
      </trkpt>
      <trkpt lat="43.9462" lon="7.69867">
        <ele>685</ele>
        <time>2017-09-17T17:11:02Z</time>
      </trkpt>
      <trkpt lat="43.9462" lon="7.69854">
        <ele>684</ele>
        <time>2017-09-17T17:11:03Z</time>
      </trkpt>
      <trkpt lat="43.9462" lon="7.69841">
        <ele>682</ele>
        <time>2017-09-17T17:11:04Z</time>
      </trkpt>
      <trkpt lat="43.94619" lon="7.69828">
        <ele>681</ele>
        <time>2017-09-17T17:11:05Z</time>
      </trkpt>
      <trkpt lat="43.94615" lon="7.69817">
        <ele>680</ele>
        <time>2017-09-17T17:11:06Z</time>
      </trkpt>
      <trkpt lat="43.94609" lon="7.69807">
        <ele>680</ele>
        <time>2017-09-17T17:11:07Z</time>
      </trkpt>
      <trkpt lat="43.94602" lon="7.698">
        <ele>679</ele>
        <time>2017-09-17T17:11:08Z</time>
      </trkpt>
      <trkpt lat="43.94592" lon="7.69797">
        <ele>678</ele>
        <time>2017-09-17T17:11:09Z</time>
      </trkpt>
      <trkpt lat="43.94582" lon="7.69795">
        <ele>678</ele>
        <time>2017-09-17T17:11:10Z</time>
      </trkpt>
      <trkpt lat="43.94572" lon="7.69794">
        <ele>677</ele>
        <time>2017-09-17T17:11:11Z</time>
      </trkpt>
      <trkpt lat="43.94564" lon="7.69792">
        <ele>677</ele>
        <time>2017-09-17T17:11:12Z</time>
      </trkpt>
      <trkpt lat="43.94556" lon="7.69788">
        <ele>676</ele>
        <time>2017-09-17T17:11:13Z</time>
      </trkpt>
      <trkpt lat="43.94551" lon="7.6978">
        <ele>675</ele>
        <time>2017-09-17T17:11:14Z</time>
      </trkpt>
      <trkpt lat="43.94551" lon="7.69769">
        <ele>674</ele>
        <time>2017-09-17T17:11:15Z</time>
      </trkpt>
      <trkpt lat="43.94551" lon="7.69756">
        <ele>673</ele>
        <time>2017-09-17T17:11:16Z</time>
      </trkpt>
      <trkpt lat="43.94552" lon="7.69743">
        <ele>672</ele>
        <time>2017-09-17T17:11:17Z</time>
      </trkpt>
      <trkpt lat="43.94553" lon="7.6973">
        <ele>672</ele>
        <time>2017-09-17T17:11:18Z</time>
      </trkpt>
      <trkpt lat="43.94554" lon="7.69717">
        <ele>671</ele>
        <time>2017-09-17T17:11:19Z</time>
      </trkpt>
      <trkpt lat="43.94554" lon="7.69704">
        <ele>670</ele>
        <time>2017-09-17T17:11:20Z</time>
      </trkpt>
      <trkpt lat="43.94553" lon="7.69692">
        <ele>669</ele>
        <time>2017-09-17T17:11:21Z</time>
      </trkpt>
      <trkpt lat="43.94549" lon="7.69681">
        <ele>669</ele>
        <time>2017-09-17T17:11:22Z</time>
      </trkpt>
      <trkpt lat="43.94542" lon="7.69674">
        <ele>668</ele>
        <time>2017-09-17T17:11:23Z</time>
      </trkpt>
      <trkpt lat="43.94533" lon="7.69671">
        <ele>668</ele>
        <time>2017-09-17T17:11:24Z</time>
      </trkpt>
      <trkpt lat="43.94523" lon="7.69669">
        <ele>667</ele>
        <time>2017-09-17T17:11:25Z</time>
      </trkpt>
      <trkpt lat="43.94513" lon="7.69665">
        <ele>667</ele>
        <time>2017-09-17T17:11:26Z</time>
      </trkpt>
      <trkpt lat="43.94504" lon="7.69661">
        <ele>667</ele>
        <time>2017-09-17T17:11:27Z</time>
      </trkpt>
      <trkpt lat="43.94494" lon="7.69656">
        <ele>666</ele>
        <time>2017-09-17T17:11:28Z</time>
      </trkpt>
      <trkpt lat="43.94485" lon="7.6965">
        <ele>666</ele>
        <time>2017-09-17T17:11:29Z</time>
      </trkpt>
      <trkpt lat="43.94478" lon="7.6964">
        <ele>666</ele>
        <time>2017-09-17T17:11:30Z</time>
      </trkpt>
      <trkpt lat="43.94473" lon="7.69629">
        <ele>665</ele>
        <time>2017-09-17T17:11:31Z</time>
      </trkpt>
      <trkpt lat="43.94468" lon="7.69617">
        <ele>665</ele>
        <time>2017-09-17T17:11:32Z</time>
      </trkpt>
      <trkpt lat="43.94462" lon="7.69608">
        <ele>665</ele>
        <time>2017-09-17T17:11:33Z</time>
      </trkpt>
      <trkpt lat="43.94453" lon="7.69603">
        <ele>665</ele>
        <time>2017-09-17T17:11:34Z</time>
      </trkpt>
      <trkpt lat="43.94444" lon="7.69601">
        <ele>665</ele>
        <time>2017-09-17T17:11:35Z</time>
      </trkpt>
      <trkpt lat="43.94434" lon="7.69603">
        <ele>665</ele>
        <time>2017-09-17T17:11:36Z</time>
      </trkpt>
      <trkpt lat="43.94425" lon="7.69608">
        <ele>665</ele>
        <time>2017-09-17T17:11:37Z</time>
      </trkpt>
      <trkpt lat="43.94415" lon="7.69612">
        <ele>665</ele>
        <time>2017-09-17T17:11:38Z</time>
      </trkpt>
      <trkpt lat="43.94405" lon="7.69614">
        <ele>664</ele>
        <time>2017-09-17T17:11:39Z</time>
      </trkpt>
      <trkpt lat="43.94395" lon="7.69615">
        <ele>664</ele>
        <time>2017-09-17T17:11:40Z</time>
      </trkpt>
      <trkpt lat="43.94385" lon="7.69615">
        <ele>664</ele>
        <time>2017-09-17T17:11:41Z</time>
      </trkpt>
      <trkpt lat="43.94374" lon="7.69616">
        <ele>663</ele>
        <time>2017-09-17T17:11:42Z</time>
      </trkpt>
      <trkpt lat="43.94365" lon="7.69619">
        <ele>662</ele>
        <time>2017-09-17T17:11:43Z</time>
      </trkpt>
      <trkpt lat="43.94355" lon="7.6962">
        <ele>662</ele>
        <time>2017-09-17T17:11:44Z</time>
      </trkpt>
      <trkpt lat="43.94346" lon="7.69618">
        <ele>661</ele>
        <time>2017-09-17T17:11:45Z</time>
      </trkpt>
      <trkpt lat="43.94339" lon="7.69611">
        <ele>660</ele>
        <time>2017-09-17T17:11:46Z</time>
      </trkpt>
      <trkpt lat="43.94335" lon="7.696">
        <ele>660</ele>
        <time>2017-09-17T17:11:47Z</time>
      </trkpt>
      <trkpt lat="43.94332" lon="7.69588">
        <ele>658</ele>
        <time>2017-09-17T17:11:48Z</time>
      </trkpt>
      <trkpt lat="43.94328" lon="7.69575">
        <ele>657</ele>
        <time>2017-09-17T17:11:49Z</time>
      </trkpt>
      <trkpt lat="43.94323" lon="7.69562">
        <ele>656</ele>
        <time>2017-09-17T17:11:50Z</time>
      </trkpt>
      <trkpt lat="43.94318" lon="7.6955">
        <ele>655</ele>
        <time>2017-09-17T17:11:51Z</time>
      </trkpt>
      <trkpt lat="43.94311" lon="7.6954">
        <ele>653</ele>
        <time>2017-09-17T17:11:52Z</time>
      </trkpt>
      <trkpt lat="43.94303" lon="7.6953">
        <ele>652</ele>
        <time>2017-09-17T17:11:53Z</time>
      </trkpt>
      <trkpt lat="43.94296" lon="7.69519">
        <ele>651</ele>
        <time>2017-09-17T17:11:54Z</time>
      </trkpt>
      <trkpt lat="43.94289" lon="7.69508">
        <ele>650</ele>
        <time>2017-09-17T17:11:55Z</time>
      </trkpt>
      <trkpt lat="43.94284" lon="7.69498">
        <ele>649</ele>
        <time>2017-09-17T17:11:56Z</time>
      </trkpt>
      <trkpt lat="43.94281" lon="7.69486">
        <ele>648</ele>
        <time>2017-09-17T17:11:57Z</time>
      </trkpt>
      <trkpt lat="43.94279" lon="7.69473">
        <ele>647</ele>
        <time>2017-09-17T17:11:58Z</time>
      </trkpt>
      <trkpt lat="43.94278" lon="7.69459">
        <ele>646</ele>
        <time>2017-09-17T17:11:59Z</time>
      </trkpt>
      <trkpt lat="43.94276" lon="7.69446">
        <ele>644</ele>
        <time>2017-09-17T17:12:00Z</time>
      </trkpt>
      <trkpt lat="43.94273" lon="7.69431">
        <ele>643</ele>
        <time>2017-09-17T17:12:01Z</time>
      </trkpt>
      <trkpt lat="43.94269" lon="7.69418">
        <ele>642</ele>
        <time>2017-09-17T17:12:02Z</time>
      </trkpt>
      <trkpt lat="43.94262" lon="7.69407">
        <ele>641</ele>
        <time>2017-09-17T17:12:03Z</time>
      </trkpt>
      <trkpt lat="43.94253" lon="7.69397">
        <ele>640</ele>
        <time>2017-09-17T17:12:04Z</time>
      </trkpt>
      <trkpt lat="43.94245" lon="7.69388">
        <ele>639</ele>
        <time>2017-09-17T17:12:05Z</time>
      </trkpt>
      <trkpt lat="43.94237" lon="7.69376">
        <ele>638</ele>
        <time>2017-09-17T17:12:06Z</time>
      </trkpt>
      <trkpt lat="43.94231" lon="7.69364">
        <ele>637</ele>
        <time>2017-09-17T17:12:07Z</time>
      </trkpt>
      <trkpt lat="43.94224" lon="7.69351">
        <ele>636</ele>
        <time>2017-09-17T17:12:08Z</time>
      </trkpt>
      <trkpt lat="43.94217" lon="7.69338">
        <ele>636</ele>
        <time>2017-09-17T17:12:09Z</time>
      </trkpt>
      <trkpt lat="43.9421" lon="7.69325">
        <ele>635</ele>
        <time>2017-09-17T17:12:10Z</time>
      </trkpt>
      <trkpt lat="43.94203" lon="7.69311">
        <ele>634</ele>
        <time>2017-09-17T17:12:11Z</time>
      </trkpt>
      <trkpt lat="43.94195" lon="7.69299">
        <ele>633</ele>
        <time>2017-09-17T17:12:12Z</time>
      </trkpt>
      <trkpt lat="43.94186" lon="7.6929">
        <ele>632</ele>
        <time>2017-09-17T17:12:13Z</time>
      </trkpt>
      <trkpt lat="43.94178" lon="7.6928">
        <ele>632</ele>
        <time>2017-09-17T17:12:14Z</time>
      </trkpt>
      <trkpt lat="43.94173" lon="7.69269">
        <ele>631</ele>
        <time>2017-09-17T17:12:15Z</time>
      </trkpt>
      <trkpt lat="43.94172" lon="7.69257">
        <ele>630</ele>
        <time>2017-09-17T17:12:16Z</time>
      </trkpt>
      <trkpt lat="43.94173" lon="7.69244">
        <ele>629</ele>
        <time>2017-09-17T17:12:17Z</time>
      </trkpt>
      <trkpt lat="43.94175" lon="7.6923">
        <ele>628</ele>
        <time>2017-09-17T17:12:18Z</time>
      </trkpt>
      <trkpt lat="43.94175" lon="7.69216">
        <ele>627</ele>
        <time>2017-09-17T17:12:19Z</time>
      </trkpt>
      <trkpt lat="43.94174" lon="7.69202">
        <ele>626</ele>
        <time>2017-09-17T17:12:20Z</time>
      </trkpt>
      <trkpt lat="43.94172" lon="7.69188">
        <ele>625</ele>
        <time>2017-09-17T17:12:21Z</time>
      </trkpt>
      <trkpt lat="43.94169" lon="7.69174">
        <ele>624</ele>
        <time>2017-09-17T17:12:22Z</time>
      </trkpt>
      <trkpt lat="43.94167" lon="7.69161">
        <ele>623</ele>
        <time>2017-09-17T17:12:23Z</time>
      </trkpt>
      <trkpt lat="43.94165" lon="7.69147">
        <ele>623</ele>
        <time>2017-09-17T17:12:24Z</time>
      </trkpt>
      <trkpt lat="43.94162" lon="7.69134">
        <ele>622</ele>
        <time>2017-09-17T17:12:25Z</time>
      </trkpt>
      <trkpt lat="43.9416" lon="7.6912">
        <ele>621</ele>
        <time>2017-09-17T17:12:26Z</time>
      </trkpt>
      <trkpt lat="43.94161" lon="7.69107">
        <ele>620</ele>
        <time>2017-09-17T17:12:27Z</time>
      </trkpt>
      <trkpt lat="43.94165" lon="7.69095">
        <ele>619</ele>
        <time>2017-09-17T17:12:28Z</time>
      </trkpt>
      <trkpt lat="43.94173" lon="7.69088">
        <ele>619</ele>
        <time>2017-09-17T17:12:29Z</time>
      </trkpt>
      <trkpt lat="43.94182" lon="7.69083">
        <ele>618</ele>
        <time>2017-09-17T17:12:30Z</time>
      </trkpt>
      <trkpt lat="43.94192" lon="7.69078">
        <ele>617</ele>
        <time>2017-09-17T17:12:31Z</time>
      </trkpt>
      <trkpt lat="43.94202" lon="7.69074">
        <ele>617</ele>
        <time>2017-09-17T17:12:32Z</time>
      </trkpt>
      <trkpt lat="43.94212" lon="7.69069">
        <ele>616</ele>
        <time>2017-09-17T17:12:33Z</time>
      </trkpt>
      <trkpt lat="43.94223" lon="7.69064">
        <ele>615</ele>
        <time>2017-09-17T17:12:34Z</time>
      </trkpt>
      <trkpt lat="43.94233" lon="7.69059">
        <ele>614</ele>
        <time>2017-09-17T17:12:35Z</time>
      </trkpt>
      <trkpt lat="43.94243" lon="7.69053">
        <ele>613</ele>
        <time>2017-09-17T17:12:36Z</time>
      </trkpt>
      <trkpt lat="43.94254" lon="7.69047">
        <ele>612</ele>
        <time>2017-09-17T17:12:37Z</time>
      </trkpt>
      <trkpt lat="43.94265" lon="7.69042">
        <ele>612</ele>
        <time>2017-09-17T17:12:38Z</time>
      </trkpt>
      <trkpt lat="43.94276" lon="7.69037">
        <ele>611</ele>
        <time>2017-09-17T17:12:39Z</time>
      </trkpt>
      <trkpt lat="43.94287" lon="7.69032">
        <ele>610</ele>
        <time>2017-09-17T17:12:40Z</time>
      </trkpt>
      <trkpt lat="43.94298" lon="7.69029">
        <ele>609</ele>
        <time>2017-09-17T17:12:41Z</time>
      </trkpt>
      <trkpt lat="43.9431" lon="7.69029">
        <ele>608</ele>
        <time>2017-09-17T17:12:42Z</time>
      </trkpt>
      <trkpt lat="43.94322" lon="7.69029">
        <ele>607</ele>
        <time>2017-09-17T17:12:43Z</time>
      </trkpt>
      <trkpt lat="43.94334" lon="7.69028">
        <ele>606</ele>
        <time>2017-09-17T17:12:44Z</time>
      </trkpt>
      <trkpt lat="43.94347" lon="7.69027">
        <ele>605</ele>
        <time>2017-09-17T17:12:45Z</time>
      </trkpt>
      <trkpt lat="43.94359" lon="7.69026">
        <ele>604</ele>
        <time>2017-09-17T17:12:46Z</time>
      </trkpt>
      <trkpt lat="43.94372" lon="7.69023">
        <ele>603</ele>
        <time>2017-09-17T17:12:47Z</time>
      </trkpt>
      <trkpt lat="43.94384" lon="7.69018">
        <ele>602</ele>
        <time>2017-09-17T17:12:48Z</time>
      </trkpt>
      <trkpt lat="43.94396" lon="7.69009">
        <ele>601</ele>
        <time>2017-09-17T17:12:49Z</time>
      </trkpt>
      <trkpt lat="43.94407" lon="7.68999">
        <ele>600</ele>
        <time>2017-09-17T17:12:50Z</time>
      </trkpt>
      <trkpt lat="43.94418" lon="7.68989">
        <ele>599</ele>
        <time>2017-09-17T17:12:51Z</time>
      </trkpt>
      <trkpt lat="43.94429" lon="7.68981">
        <ele>597</ele>
        <time>2017-09-17T17:12:52Z</time>
      </trkpt>
      <trkpt lat="43.94441" lon="7.68976">
        <ele>596</ele>
        <time>2017-09-17T17:12:53Z</time>
      </trkpt>
      <trkpt lat="43.94453" lon="7.68972">
        <ele>595</ele>
        <time>2017-09-17T17:12:54Z</time>
      </trkpt>
      <trkpt lat="43.94466" lon="7.6897">
        <ele>594</ele>
        <time>2017-09-17T17:12:55Z</time>
      </trkpt>
      <trkpt lat="43.94479" lon="7.68968">
        <ele>593</ele>
        <time>2017-09-17T17:12:56Z</time>
      </trkpt>
      <trkpt lat="43.94493" lon="7.68966">
        <ele>592</ele>
        <time>2017-09-17T17:12:57Z</time>
      </trkpt>
      <trkpt lat="43.94505" lon="7.68963">
        <ele>590</ele>
        <time>2017-09-17T17:12:58Z</time>
      </trkpt>
      <trkpt lat="43.94519" lon="7.68957">
        <ele>589</ele>
        <time>2017-09-17T17:12:59Z</time>
      </trkpt>
      <trkpt lat="43.94532" lon="7.68952">
        <ele>588</ele>
        <time>2017-09-17T17:13:00Z</time>
      </trkpt>
      <trkpt lat="43.94545" lon="7.68947">
        <ele>587</ele>
        <time>2017-09-17T17:13:01Z</time>
      </trkpt>
      <trkpt lat="43.94557" lon="7.68944">
        <ele>585</ele>
        <time>2017-09-17T17:13:02Z</time>
      </trkpt>
      <trkpt lat="43.94567" lon="7.68944">
        <ele>584</ele>
        <time>2017-09-17T17:13:03Z</time>
      </trkpt>
      <trkpt lat="43.94576" lon="7.68949">
        <ele>583</ele>
        <time>2017-09-17T17:13:04Z</time>
      </trkpt>
      <trkpt lat="43.94584" lon="7.68957">
        <ele>582</ele>
        <time>2017-09-17T17:13:05Z</time>
      </trkpt>
      <trkpt lat="43.94591" lon="7.68965">
        <ele>581</ele>
        <time>2017-09-17T17:13:06Z</time>
      </trkpt>
      <trkpt lat="43.94598" lon="7.68971">
        <ele>581</ele>
        <time>2017-09-17T17:13:07Z</time>
      </trkpt>
      <trkpt lat="43.94604" lon="7.68973">
        <ele>580</ele>
        <time>2017-09-17T17:13:08Z</time>
      </trkpt>
      <trkpt lat="43.9461" lon="7.68968">
        <ele>579</ele>
        <time>2017-09-17T17:13:09Z</time>
      </trkpt>
      <trkpt lat="43.94615" lon="7.68961">
        <ele>579</ele>
        <time>2017-09-17T17:13:10Z</time>
      </trkpt>
      <trkpt lat="43.94622" lon="7.68955">
        <ele>578</ele>
        <time>2017-09-17T17:13:11Z</time>
      </trkpt>
      <trkpt lat="43.9463" lon="7.68952">
        <ele>578</ele>
        <time>2017-09-17T17:13:12Z</time>
      </trkpt>
      <trkpt lat="43.94639" lon="7.68954">
        <ele>578</ele>
        <time>2017-09-17T17:13:13Z</time>
      </trkpt>
      <trkpt lat="43.94648" lon="7.68956">
        <ele>578</ele>
        <time>2017-09-17T17:13:14Z</time>
      </trkpt>
      <trkpt lat="43.94657" lon="7.68959">
        <ele>577</ele>
        <time>2017-09-17T17:13:15Z</time>
      </trkpt>
      <trkpt lat="43.94666" lon="7.68962">
        <ele>577</ele>
        <time>2017-09-17T17:13:16Z</time>
      </trkpt>
      <trkpt lat="43.94676" lon="7.68964">
        <ele>576</ele>
        <time>2017-09-17T17:13:17Z</time>
      </trkpt>
      <trkpt lat="43.94686" lon="7.68966">
        <ele>576</ele>
        <time>2017-09-17T17:13:18Z</time>
      </trkpt>
      <trkpt lat="43.94696" lon="7.68964">
        <ele>575</ele>
        <time>2017-09-17T17:13:19Z</time>
      </trkpt>
      <trkpt lat="43.94706" lon="7.6896">
        <ele>575</ele>
        <time>2017-09-17T17:13:20Z</time>
      </trkpt>
      <trkpt lat="43.94717" lon="7.68957">
        <ele>574</ele>
        <time>2017-09-17T17:13:21Z</time>
      </trkpt>
      <trkpt lat="43.94728" lon="7.68955">
        <ele>573</ele>
        <time>2017-09-17T17:13:22Z</time>
      </trkpt>
      <trkpt lat="43.94739" lon="7.68955">
        <ele>572</ele>
        <time>2017-09-17T17:13:23Z</time>
      </trkpt>
      <trkpt lat="43.94751" lon="7.68954">
        <ele>571</ele>
        <time>2017-09-17T17:13:24Z</time>
      </trkpt>
      <trkpt lat="43.94762" lon="7.68951">
        <ele>570</ele>
        <time>2017-09-17T17:13:25Z</time>
      </trkpt>
      <trkpt lat="43.94773" lon="7.68946">
        <ele>569</ele>
        <time>2017-09-17T17:13:26Z</time>
      </trkpt>
      <trkpt lat="43.94784" lon="7.6894">
        <ele>568</ele>
        <time>2017-09-17T17:13:27Z</time>
      </trkpt>
      <trkpt lat="43.94796" lon="7.68937">
        <ele>567</ele>
        <time>2017-09-17T17:13:28Z</time>
      </trkpt>
      <trkpt lat="43.94807" lon="7.68935">
        <ele>566</ele>
        <time>2017-09-17T17:13:29Z</time>
      </trkpt>
      <trkpt lat="43.94816" lon="7.68934">
        <ele>565</ele>
        <time>2017-09-17T17:13:30Z</time>
      </trkpt>
      <trkpt lat="43.94823" lon="7.68931">
        <ele>564</ele>
        <time>2017-09-17T17:13:31Z</time>
      </trkpt>
      <trkpt lat="43.94827" lon="7.68925">
        <ele>564</ele>
        <time>2017-09-17T17:13:32Z</time>
      </trkpt>
      <trkpt lat="43.94827" lon="7.68917">
        <ele>564</ele>
        <time>2017-09-17T17:13:33Z</time>
      </trkpt>
      <trkpt lat="43.94822" lon="7.68913">
        <ele>563</ele>
        <time>2017-09-17T17:13:34Z</time>
      </trkpt>
      <trkpt lat="43.94816" lon="7.68914">
        <ele>563</ele>
        <time>2017-09-17T17:13:35Z</time>
      </trkpt>
      <trkpt lat="43.94811" lon="7.68917">
        <ele>563</ele>
        <time>2017-09-17T17:13:36Z</time>
      </trkpt>
      <trkpt lat="43.94804" lon="7.6892">
        <ele>562</ele>
        <time>2017-09-17T17:13:37Z</time>
      </trkpt>
      <trkpt lat="43.94797" lon="7.68923">
        <ele>562</ele>
        <time>2017-09-17T17:13:38Z</time>
      </trkpt>
      <trkpt lat="43.94789" lon="7.68925">
        <ele>561</ele>
        <time>2017-09-17T17:13:39Z</time>
      </trkpt>
      <trkpt lat="43.9478" lon="7.68926">
        <ele>561</ele>
        <time>2017-09-17T17:13:40Z</time>
      </trkpt>
      <trkpt lat="43.9477" lon="7.68927">
        <ele>560</ele>
        <time>2017-09-17T17:13:41Z</time>
      </trkpt>
      <trkpt lat="43.9476" lon="7.68928">
        <ele>559</ele>
        <time>2017-09-17T17:13:42Z</time>
      </trkpt>
      <trkpt lat="43.94749" lon="7.68927">
        <ele>558</ele>
        <time>2017-09-17T17:13:43Z</time>
      </trkpt>
      <trkpt lat="43.94738" lon="7.68925">
        <ele>557</ele>
        <time>2017-09-17T17:13:44Z</time>
      </trkpt>
      <trkpt lat="43.94727" lon="7.68924">
        <ele>556</ele>
        <time>2017-09-17T17:13:45Z</time>
      </trkpt>
      <trkpt lat="43.94715" lon="7.68922">
        <ele>555</ele>
        <time>2017-09-17T17:13:46Z</time>
      </trkpt>
      <trkpt lat="43.94703" lon="7.68919">
        <ele>555</ele>
        <time>2017-09-17T17:13:47Z</time>
      </trkpt>
      <trkpt lat="43.94691" lon="7.68915">
        <ele>554</ele>
        <time>2017-09-17T17:13:48Z</time>
      </trkpt>
      <trkpt lat="43.94679" lon="7.6891">
        <ele>553</ele>
        <time>2017-09-17T17:13:49Z</time>
      </trkpt>
      <trkpt lat="43.94669" lon="7.68902">
        <ele>552</ele>
        <time>2017-09-17T17:13:50Z</time>
      </trkpt>
      <trkpt lat="43.94657" lon="7.68894">
        <ele>551</ele>
        <time>2017-09-17T17:13:51Z</time>
      </trkpt>
      <trkpt lat="43.94646" lon="7.68885">
        <ele>550</ele>
        <time>2017-09-17T17:13:52Z</time>
      </trkpt>
      <trkpt lat="43.94637" lon="7.68876">
        <ele>548</ele>
        <time>2017-09-17T17:13:53Z</time>
      </trkpt>
      <trkpt lat="43.94628" lon="7.6887">
        <ele>547</ele>
        <time>2017-09-17T17:13:54Z</time>
      </trkpt>
      <trkpt lat="43.94619" lon="7.68869">
        <ele>546</ele>
        <time>2017-09-17T17:13:55Z</time>
      </trkpt>
      <trkpt lat="43.94612" lon="7.68867">
        <ele>545</ele>
        <time>2017-09-17T17:13:56Z</time>
      </trkpt>
      <trkpt lat="43.94608" lon="7.68863">
        <ele>544</ele>
        <time>2017-09-17T17:13:57Z</time>
      </trkpt>
      <trkpt lat="43.9461" lon="7.68858">
        <ele>543</ele>
        <time>2017-09-17T17:13:58Z</time>
      </trkpt>
      <trkpt lat="43.94614" lon="7.68858">
        <ele>543</ele>
        <time>2017-09-17T17:13:59Z</time>
      </trkpt>
      <trkpt lat="43.9462" lon="7.68861">
        <ele>543</ele>
        <time>2017-09-17T17:14:00Z</time>
      </trkpt>
      <trkpt lat="43.94626" lon="7.68864">
        <ele>542</ele>
        <time>2017-09-17T17:14:01Z</time>
      </trkpt>
      <trkpt lat="43.94633" lon="7.68868">
        <ele>542</ele>
        <time>2017-09-17T17:14:02Z</time>
      </trkpt>
      <trkpt lat="43.94641" lon="7.68872">
        <ele>541</ele>
        <time>2017-09-17T17:14:03Z</time>
      </trkpt>
      <trkpt lat="43.94648" lon="7.68876">
        <ele>541</ele>
        <time>2017-09-17T17:14:04Z</time>
      </trkpt>
      <trkpt lat="43.94657" lon="7.68881">
        <ele>540</ele>
        <time>2017-09-17T17:14:05Z</time>
      </trkpt>
      <trkpt lat="43.94666" lon="7.68884">
        <ele>540</ele>
        <time>2017-09-17T17:14:06Z</time>
      </trkpt>
      <trkpt lat="43.94676" lon="7.68885">
        <ele>539</ele>
        <time>2017-09-17T17:14:07Z</time>
      </trkpt>
      <trkpt lat="43.94686" lon="7.68886">
        <ele>539</ele>
        <time>2017-09-17T17:14:08Z</time>
      </trkpt>
      <trkpt lat="43.94697" lon="7.68887">
        <ele>538</ele>
        <time>2017-09-17T17:14:09Z</time>
      </trkpt>
      <trkpt lat="43.94706" lon="7.68888">
        <ele>537</ele>
        <time>2017-09-17T17:14:10Z</time>
      </trkpt>
      <trkpt lat="43.94715" lon="7.68887">
        <ele>537</ele>
        <time>2017-09-17T17:14:11Z</time>
      </trkpt>
      <trkpt lat="43.9472" lon="7.68882">
        <ele>536</ele>
        <time>2017-09-17T17:14:12Z</time>
      </trkpt>
      <trkpt lat="43.94723" lon="7.68875">
        <ele>536</ele>
        <time>2017-09-17T17:14:13Z</time>
      </trkpt>
      <trkpt lat="43.9472" lon="7.68868">
        <ele>536</ele>
        <time>2017-09-17T17:14:14Z</time>
      </trkpt>
      <trkpt lat="43.94715" lon="7.68865">
        <ele>535</ele>
        <time>2017-09-17T17:14:15Z</time>
      </trkpt>
      <trkpt lat="43.94709" lon="7.68866">
        <ele>535</ele>
        <time>2017-09-17T17:14:16Z</time>
      </trkpt>
      <trkpt lat="43.94701" lon="7.68867">
        <ele>534</ele>
        <time>2017-09-17T17:14:17Z</time>
      </trkpt>
      <trkpt lat="43.94693" lon="7.68866">
        <ele>534</ele>
        <time>2017-09-17T17:14:18Z</time>
      </trkpt>
      <trkpt lat="43.94684" lon="7.68862">
        <ele>533</ele>
        <time>2017-09-17T17:14:19Z</time>
      </trkpt>
      <trkpt lat="43.94676" lon="7.68857">
        <ele>533</ele>
        <time>2017-09-17T17:14:20Z</time>
      </trkpt>
      <trkpt lat="43.94667" lon="7.68851">
        <ele>532</ele>
        <time>2017-09-17T17:14:21Z</time>
      </trkpt>
      <trkpt lat="43.94658" lon="7.68842">
        <ele>531</ele>
        <time>2017-09-17T17:14:22Z</time>
      </trkpt>
      <trkpt lat="43.94649" lon="7.68832">
        <ele>530</ele>
        <time>2017-09-17T17:14:23Z</time>
      </trkpt>
      <trkpt lat="43.9464" lon="7.68823">
        <ele>529</ele>
        <time>2017-09-17T17:14:24Z</time>
      </trkpt>
      <trkpt lat="43.9463" lon="7.68817">
        <ele>528</ele>
        <time>2017-09-17T17:14:25Z</time>
      </trkpt>
      <trkpt lat="43.94619" lon="7.68814">
        <ele>527</ele>
        <time>2017-09-17T17:14:26Z</time>
      </trkpt>
      <trkpt lat="43.94608" lon="7.68813">
        <ele>526</ele>
        <time>2017-09-17T17:14:27Z</time>
      </trkpt>
      <trkpt lat="43.94598" lon="7.68815">
        <ele>525</ele>
        <time>2017-09-17T17:14:28Z</time>
      </trkpt>
      <trkpt lat="43.94588" lon="7.68814">
        <ele>524</ele>
        <time>2017-09-17T17:14:29Z</time>
      </trkpt>
      <trkpt lat="43.94578" lon="7.68808">
        <ele>523</ele>
        <time>2017-09-17T17:14:30Z</time>
      </trkpt>
      <trkpt lat="43.94569" lon="7.68801">
        <ele>522</ele>
        <time>2017-09-17T17:14:31Z</time>
      </trkpt>
      <trkpt lat="43.94563" lon="7.68793">
        <ele>521</ele>
        <time>2017-09-17T17:14:32Z</time>
      </trkpt>
      <trkpt lat="43.94558" lon="7.68786">
        <ele>520</ele>
        <time>2017-09-17T17:14:33Z</time>
      </trkpt>
      <trkpt lat="43.94551" lon="7.68782">
        <ele>519</ele>
        <time>2017-09-17T17:14:34Z</time>
      </trkpt>
      <trkpt lat="43.94542" lon="7.68779">
        <ele>518</ele>
        <time>2017-09-17T17:14:35Z</time>
      </trkpt>
      <trkpt lat="43.94532" lon="7.68776">
        <ele>518</ele>
        <time>2017-09-17T17:14:36Z</time>
      </trkpt>
      <trkpt lat="43.94521" lon="7.68774">
        <ele>517</ele>
        <time>2017-09-17T17:14:37Z</time>
      </trkpt>
      <trkpt lat="43.94509" lon="7.68771">
        <ele>516</ele>
        <time>2017-09-17T17:14:38Z</time>
      </trkpt>
      <trkpt lat="43.94498" lon="7.68768">
        <ele>514</ele>
        <time>2017-09-17T17:14:39Z</time>
      </trkpt>
      <trkpt lat="43.94486" lon="7.68765">
        <ele>513</ele>
        <time>2017-09-17T17:14:40Z</time>
      </trkpt>
      <trkpt lat="43.94473" lon="7.68764">
        <ele>512</ele>
        <time>2017-09-17T17:14:41Z</time>
      </trkpt>
      <trkpt lat="43.94461" lon="7.68766">
        <ele>510</ele>
        <time>2017-09-17T17:14:42Z</time>
      </trkpt>
      <trkpt lat="43.94448" lon="7.6877">
        <ele>509</ele>
        <time>2017-09-17T17:14:43Z</time>
      </trkpt>
      <trkpt lat="43.94436" lon="7.68774">
        <ele>508</ele>
        <time>2017-09-17T17:14:44Z</time>
      </trkpt>
      <trkpt lat="43.94423" lon="7.6878">
        <ele>506</ele>
        <time>2017-09-17T17:14:45Z</time>
      </trkpt>
      <trkpt lat="43.94411" lon="7.68785">
        <ele>505</ele>
        <time>2017-09-17T17:14:46Z</time>
      </trkpt>
      <trkpt lat="43.94399" lon="7.68791">
        <ele>504</ele>
        <time>2017-09-17T17:14:47Z</time>
      </trkpt>
      <trkpt lat="43.94388" lon="7.68798">
        <ele>502</ele>
        <time>2017-09-17T17:14:48Z</time>
      </trkpt>
      <trkpt lat="43.94377" lon="7.68803">
        <ele>501</ele>
        <time>2017-09-17T17:14:49Z</time>
      </trkpt>
      <trkpt lat="43.94368" lon="7.68807">
        <ele>500</ele>
        <time>2017-09-17T17:14:50Z</time>
      </trkpt>
      <trkpt lat="43.94358" lon="7.68806">
        <ele>499</ele>
        <time>2017-09-17T17:14:51Z</time>
      </trkpt>
      <trkpt lat="43.9435" lon="7.688">
        <ele>499</ele>
        <time>2017-09-17T17:14:52Z</time>
      </trkpt>
      <trkpt lat="43.94342" lon="7.68792">
        <ele>498</ele>
        <time>2017-09-17T17:14:53Z</time>
      </trkpt>
      <trkpt lat="43.94334" lon="7.68784">
        <ele>497</ele>
        <time>2017-09-17T17:14:54Z</time>
      </trkpt>
      <trkpt lat="43.94326" lon="7.68777">
        <ele>496</ele>
        <time>2017-09-17T17:14:55Z</time>
      </trkpt>
      <trkpt lat="43.94318" lon="7.68773">
        <ele>495</ele>
        <time>2017-09-17T17:14:56Z</time>
      </trkpt>
      <trkpt lat="43.94308" lon="7.68772">
        <ele>495</ele>
        <time>2017-09-17T17:14:57Z</time>
      </trkpt>
      <trkpt lat="43.94297" lon="7.68772">
        <ele>494</ele>
        <time>2017-09-17T17:14:58Z</time>
      </trkpt>
      <trkpt lat="43.94286" lon="7.68774">
        <ele>493</ele>
        <time>2017-09-17T17:14:59Z</time>
      </trkpt>
      <trkpt lat="43.94276" lon="7.68773">
        <ele>493</ele>
        <time>2017-09-17T17:15:00Z</time>
      </trkpt>
      <trkpt lat="43.94265" lon="7.68768">
        <ele>492</ele>
        <time>2017-09-17T17:15:01Z</time>
      </trkpt>
      <trkpt lat="43.94256" lon="7.68759">
        <ele>491</ele>
        <time>2017-09-17T17:15:02Z</time>
      </trkpt>
      <trkpt lat="43.94248" lon="7.6875">
        <ele>490</ele>
        <time>2017-09-17T17:15:03Z</time>
      </trkpt>
      <trkpt lat="43.94239" lon="7.68745">
        <ele>489</ele>
        <time>2017-09-17T17:15:04Z</time>
      </trkpt>
      <trkpt lat="43.94231" lon="7.68745">
        <ele>488</ele>
        <time>2017-09-17T17:15:05Z</time>
      </trkpt>
      <trkpt lat="43.94223" lon="7.6875">
        <ele>486</ele>
        <time>2017-09-17T17:15:06Z</time>
      </trkpt>
      <trkpt lat="43.94216" lon="7.68757">
        <ele>485</ele>
        <time>2017-09-17T17:15:07Z</time>
      </trkpt>
      <trkpt lat="43.94208" lon="7.68765">
        <ele>484</ele>
        <time>2017-09-17T17:15:08Z</time>
      </trkpt>
      <trkpt lat="43.942" lon="7.68772">
        <ele>483</ele>
        <time>2017-09-17T17:15:09Z</time>
      </trkpt>
      <trkpt lat="43.94192" lon="7.68777">
        <ele>482</ele>
        <time>2017-09-17T17:15:10Z</time>
      </trkpt>
      <trkpt lat="43.94183" lon="7.68779">
        <ele>481</ele>
        <time>2017-09-17T17:15:11Z</time>
      </trkpt>
      <trkpt lat="43.94174" lon="7.68777">
        <ele>480</ele>
        <time>2017-09-17T17:15:12Z</time>
      </trkpt>
      <trkpt lat="43.94166" lon="7.68769">
        <ele>479</ele>
        <time>2017-09-17T17:15:13Z</time>
      </trkpt>
      <trkpt lat="43.94159" lon="7.68761">
        <ele>478</ele>
        <time>2017-09-17T17:15:14Z</time>
      </trkpt>
      <trkpt lat="43.94151" lon="7.68752">
        <ele>478</ele>
        <time>2017-09-17T17:15:15Z</time>
      </trkpt>
      <trkpt lat="43.94144" lon="7.68744">
        <ele>477</ele>
        <time>2017-09-17T17:15:16Z</time>
      </trkpt>
      <trkpt lat="43.94136" lon="7.68738">
        <ele>476</ele>
        <time>2017-09-17T17:15:17Z</time>
      </trkpt>
      <trkpt lat="43.94127" lon="7.68731">
        <ele>476</ele>
        <time>2017-09-17T17:15:18Z</time>
      </trkpt>
      <trkpt lat="43.94118" lon="7.68724">
        <ele>475</ele>
        <time>2017-09-17T17:15:19Z</time>
      </trkpt>
      <trkpt lat="43.94109" lon="7.68715">
        <ele>474</ele>
        <time>2017-09-17T17:15:20Z</time>
      </trkpt>
      <trkpt lat="43.941" lon="7.68707">
        <ele>474</ele>
        <time>2017-09-17T17:15:21Z</time>
      </trkpt>
      <trkpt lat="43.9409" lon="7.687">
        <ele>473</ele>
        <time>2017-09-17T17:15:22Z</time>
      </trkpt>
      <trkpt lat="43.94081" lon="7.68698">
        <ele>472</ele>
        <time>2017-09-17T17:15:23Z</time>
      </trkpt>
      <trkpt lat="43.94071" lon="7.68702">
        <ele>471</ele>
        <time>2017-09-17T17:15:24Z</time>
      </trkpt>
      <trkpt lat="43.94062" lon="7.6871">
        <ele>470</ele>
        <time>2017-09-17T17:15:25Z</time>
      </trkpt>
      <trkpt lat="43.94052" lon="7.68717">
        <ele>469</ele>
        <time>2017-09-17T17:15:26Z</time>
      </trkpt>
      <trkpt lat="43.94042" lon="7.68722">
        <ele>468</ele>
        <time>2017-09-17T17:15:27Z</time>
      </trkpt>
      <trkpt lat="43.94031" lon="7.68723">
        <ele>468</ele>
        <time>2017-09-17T17:15:28Z</time>
      </trkpt>
      <trkpt lat="43.94019" lon="7.68723">
        <ele>467</ele>
        <time>2017-09-17T17:15:29Z</time>
      </trkpt>
      <trkpt lat="43.94008" lon="7.6872">
        <ele>466</ele>
        <time>2017-09-17T17:15:30Z</time>
      </trkpt>
      <trkpt lat="43.93997" lon="7.68714">
        <ele>465</ele>
        <time>2017-09-17T17:15:31Z</time>
      </trkpt>
      <trkpt lat="43.93987" lon="7.68707">
        <ele>465</ele>
        <time>2017-09-17T17:15:32Z</time>
      </trkpt>
      <trkpt lat="43.93977" lon="7.68702">
        <ele>464</ele>
        <time>2017-09-17T17:15:33Z</time>
      </trkpt>
      <trkpt lat="43.93965" lon="7.68701">
        <ele>463</ele>
        <time>2017-09-17T17:15:34Z</time>
      </trkpt>
      <trkpt lat="43.93954" lon="7.687">
        <ele>462</ele>
        <time>2017-09-17T17:15:35Z</time>
      </trkpt>
      <trkpt lat="43.93943" lon="7.68698">
        <ele>461</ele>
        <time>2017-09-17T17:15:36Z</time>
      </trkpt>
      <trkpt lat="43.93932" lon="7.68693">
        <ele>461</ele>
        <time>2017-09-17T17:15:37Z</time>
      </trkpt>
      <trkpt lat="43.93921" lon="7.68687">
        <ele>460</ele>
        <time>2017-09-17T17:15:38Z</time>
      </trkpt>
      <trkpt lat="43.9391" lon="7.68681">
        <ele>459</ele>
        <time>2017-09-17T17:15:39Z</time>
      </trkpt>
      <trkpt lat="43.939" lon="7.68673">
        <ele>458</ele>
        <time>2017-09-17T17:15:40Z</time>
      </trkpt>
      <trkpt lat="43.93889" lon="7.68664">
        <ele>457</ele>
        <time>2017-09-17T17:15:41Z</time>
      </trkpt>
      <trkpt lat="43.93879" lon="7.68654">
        <ele>456</ele>
        <time>2017-09-17T17:15:42Z</time>
      </trkpt>
      <trkpt lat="43.9387" lon="7.68642">
        <ele>454</ele>
        <time>2017-09-17T17:15:43Z</time>
      </trkpt>
      <trkpt lat="43.9386" lon="7.68631">
        <ele>453</ele>
        <time>2017-09-17T17:15:44Z</time>
      </trkpt>
      <trkpt lat="43.9385" lon="7.68619">
        <ele>452</ele>
        <time>2017-09-17T17:15:45Z</time>
      </trkpt>
      <trkpt lat="43.93841" lon="7.68607">
        <ele>450</ele>
        <time>2017-09-17T17:15:46Z</time>
      </trkpt>
      <trkpt lat="43.9383" lon="7.68596">
        <ele>448</ele>
        <time>2017-09-17T17:15:47Z</time>
      </trkpt>
      <trkpt lat="43.93819" lon="7.68587">
        <ele>447</ele>
        <time>2017-09-17T17:15:48Z</time>
      </trkpt>
      <trkpt lat="43.93807" lon="7.68578">
        <ele>445</ele>
        <time>2017-09-17T17:15:49Z</time>
      </trkpt>
      <trkpt lat="43.93795" lon="7.6857">
        <ele>444</ele>
        <time>2017-09-17T17:15:50Z</time>
      </trkpt>
      <trkpt lat="43.93783" lon="7.68561">
        <ele>442</ele>
        <time>2017-09-17T17:15:51Z</time>
      </trkpt>
      <trkpt lat="43.93771" lon="7.68551">
        <ele>440</ele>
        <time>2017-09-17T17:15:52Z</time>
      </trkpt>
      <trkpt lat="43.93761" lon="7.68543">
        <ele>438</ele>
        <time>2017-09-17T17:15:53Z</time>
      </trkpt>
      <trkpt lat="43.93752" lon="7.68536">
        <ele>437</ele>
        <time>2017-09-17T17:15:54Z</time>
      </trkpt>
      <trkpt lat="43.93745" lon="7.6853">
        <ele>436</ele>
        <time>2017-09-17T17:15:55Z</time>
      </trkpt>
      <trkpt lat="43.93741" lon="7.68524">
        <ele>434</ele>
        <time>2017-09-17T17:15:56Z</time>
      </trkpt>
      <trkpt lat="43.93741" lon="7.68519">
        <ele>434</ele>
        <time>2017-09-17T17:15:57Z</time>
      </trkpt>
      <trkpt lat="43.93746" lon="7.68518">
        <ele>433</ele>
        <time>2017-09-17T17:15:58Z</time>
      </trkpt>
      <trkpt lat="43.93751" lon="7.68523">
        <ele>432</ele>
        <time>2017-09-17T17:15:59Z</time>
      </trkpt>
      <trkpt lat="43.93757" lon="7.6853">
        <ele>432</ele>
        <time>2017-09-17T17:16:00Z</time>
      </trkpt>
      <trkpt lat="43.93763" lon="7.68536">
        <ele>431</ele>
        <time>2017-09-17T17:16:01Z</time>
      </trkpt>
      <trkpt lat="43.93771" lon="7.68542">
        <ele>430</ele>
        <time>2017-09-17T17:16:02Z</time>
      </trkpt>
      <trkpt lat="43.93779" lon="7.68547">
        <ele>430</ele>
        <time>2017-09-17T17:16:03Z</time>
      </trkpt>
      <trkpt lat="43.93788" lon="7.68552">
        <ele>429</ele>
        <time>2017-09-17T17:16:04Z</time>
      </trkpt>
      <trkpt lat="43.93798" lon="7.68555">
        <ele>428</ele>
        <time>2017-09-17T17:16:05Z</time>
      </trkpt>
      <trkpt lat="43.93808" lon="7.68558">
        <ele>428</ele>
        <time>2017-09-17T17:16:06Z</time>
      </trkpt>
      <trkpt lat="43.93819" lon="7.68559">
        <ele>427</ele>
        <time>2017-09-17T17:16:07Z</time>
      </trkpt>
      <trkpt lat="43.9383" lon="7.68561">
        <ele>426</ele>
        <time>2017-09-17T17:16:08Z</time>
      </trkpt>
      <trkpt lat="43.9384" lon="7.68566">
        <ele>425</ele>
        <time>2017-09-17T17:16:09Z</time>
      </trkpt>
      <trkpt lat="43.9385" lon="7.68574">
        <ele>425</ele>
        <time>2017-09-17T17:16:10Z</time>
      </trkpt>
      <trkpt lat="43.93859" lon="7.68582">
        <ele>424</ele>
        <time>2017-09-17T17:16:11Z</time>
      </trkpt>
      <trkpt lat="43.93869" lon="7.68589">
        <ele>423</ele>
        <time>2017-09-17T17:16:12Z</time>
      </trkpt>
      <trkpt lat="43.93879" lon="7.68596">
        <ele>423</ele>
        <time>2017-09-17T17:16:13Z</time>
      </trkpt>
      <trkpt lat="43.93889" lon="7.68604">
        <ele>422</ele>
        <time>2017-09-17T17:16:14Z</time>
      </trkpt>
      <trkpt lat="43.939" lon="7.68611">
        <ele>421</ele>
        <time>2017-09-17T17:16:15Z</time>
      </trkpt>
      <trkpt lat="43.93911" lon="7.68615">
        <ele>421</ele>
        <time>2017-09-17T17:16:16Z</time>
      </trkpt>
      <trkpt lat="43.93923" lon="7.68618">
        <ele>420</ele>
        <time>2017-09-17T17:16:17Z</time>
      </trkpt>
      <trkpt lat="43.93936" lon="7.6862">
        <ele>420</ele>
        <time>2017-09-17T17:16:18Z</time>
      </trkpt>
      <trkpt lat="43.93948" lon="7.6862">
        <ele>419</ele>
        <time>2017-09-17T17:16:19Z</time>
      </trkpt>
      <trkpt lat="43.9396" lon="7.68617">
        <ele>418</ele>
        <time>2017-09-17T17:16:20Z</time>
      </trkpt>
      <trkpt lat="43.93972" lon="7.68614">
        <ele>417</ele>
        <time>2017-09-17T17:16:21Z</time>
      </trkpt>
      <trkpt lat="43.93984" lon="7.68614">
        <ele>416</ele>
        <time>2017-09-17T17:16:22Z</time>
      </trkpt>
      <trkpt lat="43.93995" lon="7.68616">
        <ele>415</ele>
        <time>2017-09-17T17:16:23Z</time>
      </trkpt>
      <trkpt lat="43.94006" lon="7.68615">
        <ele>414</ele>
        <time>2017-09-17T17:16:24Z</time>
      </trkpt>
      <trkpt lat="43.94016" lon="7.6861">
        <ele>412</ele>
        <time>2017-09-17T17:16:25Z</time>
      </trkpt>
      <trkpt lat="43.94024" lon="7.68601">
        <ele>410</ele>
        <time>2017-09-17T17:16:26Z</time>
      </trkpt>
      <trkpt lat="43.94032" lon="7.6859">
        <ele>408</ele>
        <time>2017-09-17T17:16:27Z</time>
      </trkpt>
      <trkpt lat="43.94041" lon="7.6858">
        <ele>406</ele>
        <time>2017-09-17T17:16:28Z</time>
      </trkpt>
      <trkpt lat="43.9405" lon="7.68572">
        <ele>405</ele>
        <time>2017-09-17T17:16:29Z</time>
      </trkpt>
      <trkpt lat="43.94059" lon="7.68568">
        <ele>404</ele>
        <time>2017-09-17T17:16:30Z</time>
      </trkpt>
      <trkpt lat="43.94068" lon="7.68568">
        <ele>403</ele>
        <time>2017-09-17T17:16:31Z</time>
      </trkpt>
      <trkpt lat="43.94077" lon="7.68571">
        <ele>402</ele>
        <time>2017-09-17T17:16:32Z</time>
      </trkpt>
      <trkpt lat="43.94087" lon="7.68575">
        <ele>401</ele>
        <time>2017-09-17T17:16:33Z</time>
      </trkpt>
      <trkpt lat="43.94097" lon="7.68577">
        <ele>401</ele>
        <time>2017-09-17T17:16:34Z</time>
      </trkpt>
      <trkpt lat="43.94107" lon="7.68579">
        <ele>400</ele>
        <time>2017-09-17T17:16:35Z</time>
      </trkpt>
      <trkpt lat="43.94118" lon="7.6858">
        <ele>399</ele>
        <time>2017-09-17T17:16:36Z</time>
      </trkpt>
      <trkpt lat="43.94128" lon="7.68583">
        <ele>398</ele>
        <time>2017-09-17T17:16:37Z</time>
      </trkpt>
      <trkpt lat="43.94139" lon="7.68587">
        <ele>398</ele>
        <time>2017-09-17T17:16:38Z</time>
      </trkpt>
      <trkpt lat="43.94149" lon="7.68595">
        <ele>397</ele>
        <time>2017-09-17T17:16:39Z</time>
      </trkpt>
      <trkpt lat="43.94157" lon="7.68604">
        <ele>396</ele>
        <time>2017-09-17T17:16:40Z</time>
      </trkpt>
      <trkpt lat="43.94163" lon="7.68613">
        <ele>395</ele>
        <time>2017-09-17T17:16:41Z</time>
      </trkpt>
      <trkpt lat="43.94169" lon="7.6862">
        <ele>395</ele>
        <time>2017-09-17T17:16:42Z</time>
      </trkpt>
      <trkpt lat="43.94176" lon="7.68624">
        <ele>394</ele>
        <time>2017-09-17T17:16:43Z</time>
      </trkpt>
      <trkpt lat="43.94184" lon="7.68622">
        <ele>394</ele>
        <time>2017-09-17T17:16:44Z</time>
      </trkpt>
      <trkpt lat="43.94193" lon="7.68616">
        <ele>393</ele>
        <time>2017-09-17T17:16:45Z</time>
      </trkpt>
      <trkpt lat="43.94202" lon="7.68609">
        <ele>392</ele>
        <time>2017-09-17T17:16:46Z</time>
      </trkpt>
      <trkpt lat="43.94212" lon="7.68604">
        <ele>392</ele>
        <time>2017-09-17T17:16:47Z</time>
      </trkpt>
      <trkpt lat="43.94222" lon="7.686">
        <ele>391</ele>
        <time>2017-09-17T17:16:48Z</time>
      </trkpt>
      <trkpt lat="43.94232" lon="7.68597">
        <ele>390</ele>
        <time>2017-09-17T17:16:49Z</time>
      </trkpt>
      <trkpt lat="43.94244" lon="7.68596">
        <ele>389</ele>
        <time>2017-09-17T17:16:50Z</time>
      </trkpt>
      <trkpt lat="43.94256" lon="7.68595">
        <ele>389</ele>
        <time>2017-09-17T17:16:51Z</time>
      </trkpt>
      <trkpt lat="43.94268" lon="7.68592">
        <ele>388</ele>
        <time>2017-09-17T17:16:52Z</time>
      </trkpt>
      <trkpt lat="43.9428" lon="7.68589">
        <ele>386</ele>
        <time>2017-09-17T17:16:53Z</time>
      </trkpt>
      <trkpt lat="43.94292" lon="7.68586">
        <ele>385</ele>
        <time>2017-09-17T17:16:54Z</time>
      </trkpt>
      <trkpt lat="43.94302" lon="7.68586">
        <ele>384</ele>
        <time>2017-09-17T17:16:55Z</time>
      </trkpt>
      <trkpt lat="43.94311" lon="7.68586">
        <ele>383</ele>
        <time>2017-09-17T17:16:56Z</time>
      </trkpt>
      <trkpt lat="43.94318" lon="7.68585">
        <ele>382</ele>
        <time>2017-09-17T17:16:57Z</time>
      </trkpt>
      <trkpt lat="43.94321" lon="7.68579">
        <ele>381</ele>
        <time>2017-09-17T17:16:58Z</time>
      </trkpt>
      <trkpt lat="43.9432" lon="7.68572">
        <ele>380</ele>
        <time>2017-09-17T17:16:59Z</time>
      </trkpt>
      <trkpt lat="43.94316" lon="7.68568">
        <ele>380</ele>
        <time>2017-09-17T17:17:00Z</time>
      </trkpt>
      <trkpt lat="43.94311" lon="7.68569">
        <ele>379</ele>
        <time>2017-09-17T17:17:01Z</time>
      </trkpt>
      <trkpt lat="43.94304" lon="7.68573">
        <ele>378</ele>
        <time>2017-09-17T17:17:02Z</time>
      </trkpt>
      <trkpt lat="43.94296" lon="7.68576">
        <ele>378</ele>
        <time>2017-09-17T17:17:03Z</time>
      </trkpt>
      <trkpt lat="43.94288" lon="7.68579">
        <ele>377</ele>
        <time>2017-09-17T17:17:04Z</time>
      </trkpt>
      <trkpt lat="43.94279" lon="7.68582">
        <ele>376</ele>
        <time>2017-09-17T17:17:05Z</time>
      </trkpt>
      <trkpt lat="43.94269" lon="7.68583">
        <ele>376</ele>
        <time>2017-09-17T17:17:06Z</time>
      </trkpt>
      <trkpt lat="43.94258" lon="7.68584">
        <ele>376</ele>
        <time>2017-09-17T17:17:07Z</time>
      </trkpt>
      <trkpt lat="43.94248" lon="7.68583">
        <ele>375</ele>
        <time>2017-09-17T17:17:08Z</time>
      </trkpt>
      <trkpt lat="43.94238" lon="7.68581">
        <ele>375</ele>
        <time>2017-09-17T17:17:09Z</time>
      </trkpt>
      <trkpt lat="43.94229" lon="7.68579">
        <ele>374</ele>
        <time>2017-09-17T17:17:10Z</time>
      </trkpt>
      <trkpt lat="43.94219" lon="7.68578">
        <ele>374</ele>
        <time>2017-09-17T17:17:11Z</time>
      </trkpt>
      <trkpt lat="43.9421" lon="7.68579">
        <ele>374</ele>
        <time>2017-09-17T17:17:12Z</time>
      </trkpt>
      <trkpt lat="43.942" lon="7.68582">
        <ele>374</ele>
        <time>2017-09-17T17:17:13Z</time>
      </trkpt>
      <trkpt lat="43.9419" lon="7.68582">
        <ele>374</ele>
        <time>2017-09-17T17:17:14Z</time>
      </trkpt>
      <trkpt lat="43.9418" lon="7.68579">
        <ele>374</ele>
        <time>2017-09-17T17:17:15Z</time>
      </trkpt>
      <trkpt lat="43.94171" lon="7.68573">
        <ele>374</ele>
        <time>2017-09-17T17:17:16Z</time>
      </trkpt>
      <trkpt lat="43.94163" lon="7.68567">
        <ele>374</ele>
        <time>2017-09-17T17:17:17Z</time>
      </trkpt>
      <trkpt lat="43.94155" lon="7.68564">
        <ele>373</ele>
        <time>2017-09-17T17:17:18Z</time>
      </trkpt>
      <trkpt lat="43.94146" lon="7.6856">
        <ele>373</ele>
        <time>2017-09-17T17:17:19Z</time>
      </trkpt>
      <trkpt lat="43.94137" lon="7.68554">
        <ele>373</ele>
        <time>2017-09-17T17:17:20Z</time>
      </trkpt>
      <trkpt lat="43.94128" lon="7.68545">
        <ele>372</ele>
        <time>2017-09-17T17:17:21Z</time>
      </trkpt>
      <trkpt lat="43.9412" lon="7.68535">
        <ele>372</ele>
        <time>2017-09-17T17:17:22Z</time>
      </trkpt>
      <trkpt lat="43.94111" lon="7.68526">
        <ele>371</ele>
        <time>2017-09-17T17:17:23Z</time>
      </trkpt>
      <trkpt lat="43.94102" lon="7.68518">
        <ele>371</ele>
        <time>2017-09-17T17:17:24Z</time>
      </trkpt>
      <trkpt lat="43.94092" lon="7.6851">
        <ele>370</ele>
        <time>2017-09-17T17:17:25Z</time>
      </trkpt>
      <trkpt lat="43.94082" lon="7.68503">
        <ele>370</ele>
        <time>2017-09-17T17:17:26Z</time>
      </trkpt>
      <trkpt lat="43.9407" lon="7.68498">
        <ele>369</ele>
        <time>2017-09-17T17:17:27Z</time>
      </trkpt>
      <trkpt lat="43.94059" lon="7.68493">
        <ele>368</ele>
        <time>2017-09-17T17:17:28Z</time>
      </trkpt>
      <trkpt lat="43.94048" lon="7.68488">
        <ele>367</ele>
        <time>2017-09-17T17:17:29Z</time>
      </trkpt>
      <trkpt lat="43.94037" lon="7.68485">
        <ele>365</ele>
        <time>2017-09-17T17:17:30Z</time>
      </trkpt>
      <trkpt lat="43.94027" lon="7.68485">
        <ele>363</ele>
        <time>2017-09-17T17:17:31Z</time>
      </trkpt>
      <trkpt lat="43.94018" lon="7.68486">
        <ele>362</ele>
        <time>2017-09-17T17:17:32Z</time>
      </trkpt>
      <trkpt lat="43.94008" lon="7.68486">
        <ele>360</ele>
        <time>2017-09-17T17:17:33Z</time>
      </trkpt>
      <trkpt lat="43.93998" lon="7.68481">
        <ele>358</ele>
        <time>2017-09-17T17:17:34Z</time>
      </trkpt>
      <trkpt lat="43.93989" lon="7.68476">
        <ele>357</ele>
        <time>2017-09-17T17:17:35Z</time>
      </trkpt>
      <trkpt lat="43.9398" lon="7.68471">
        <ele>355</ele>
        <time>2017-09-17T17:17:36Z</time>
      </trkpt>
      <trkpt lat="43.9397" lon="7.68467">
        <ele>354</ele>
        <time>2017-09-17T17:17:37Z</time>
      </trkpt>
      <trkpt lat="43.9396" lon="7.68464">
        <ele>353</ele>
        <time>2017-09-17T17:17:38Z</time>
      </trkpt>
      <trkpt lat="43.9395" lon="7.68464">
        <ele>352</ele>
        <time>2017-09-17T17:17:39Z</time>
      </trkpt>
      <trkpt lat="43.93939" lon="7.68466">
        <ele>351</ele>
        <time>2017-09-17T17:17:40Z</time>
      </trkpt>
      <trkpt lat="43.93928" lon="7.68465">
        <ele>350</ele>
        <time>2017-09-17T17:17:41Z</time>
      </trkpt>
      <trkpt lat="43.93917" lon="7.68459">
        <ele>348</ele>
        <time>2017-09-17T17:17:42Z</time>
      </trkpt>
      <trkpt lat="43.93907" lon="7.6845">
        <ele>347</ele>
        <time>2017-09-17T17:17:43Z</time>
      </trkpt>
      <trkpt lat="43.93897" lon="7.68441">
        <ele>346</ele>
        <time>2017-09-17T17:17:44Z</time>
      </trkpt>
      <trkpt lat="43.93887" lon="7.68432">
        <ele>344</ele>
        <time>2017-09-17T17:17:45Z</time>
      </trkpt>
      <trkpt lat="43.93877" lon="7.68423">
        <ele>342</ele>
        <time>2017-09-17T17:17:46Z</time>
      </trkpt>
      <trkpt lat="43.93866" lon="7.68414">
        <ele>341</ele>
        <time>2017-09-17T17:17:47Z</time>
      </trkpt>
      <trkpt lat="43.93855" lon="7.68405">
        <ele>339</ele>
        <time>2017-09-17T17:17:48Z</time>
      </trkpt>
      <trkpt lat="43.93844" lon="7.68397">
        <ele>338</ele>
        <time>2017-09-17T17:17:49Z</time>
      </trkpt>
      <trkpt lat="43.93833" lon="7.68388">
        <ele>336</ele>
        <time>2017-09-17T17:17:50Z</time>
      </trkpt>
      <trkpt lat="43.93822" lon="7.6838">
        <ele>335</ele>
        <time>2017-09-17T17:17:51Z</time>
      </trkpt>
      <trkpt lat="43.9381" lon="7.68371">
        <ele>333</ele>
        <time>2017-09-17T17:17:52Z</time>
      </trkpt>
      <trkpt lat="43.93799" lon="7.68361">
        <ele>332</ele>
        <time>2017-09-17T17:17:53Z</time>
      </trkpt>
      <trkpt lat="43.93788" lon="7.6835">
        <ele>330</ele>
        <time>2017-09-17T17:17:54Z</time>
      </trkpt>
      <trkpt lat="43.93778" lon="7.68339">
        <ele>328</ele>
        <time>2017-09-17T17:17:55Z</time>
      </trkpt>
      <trkpt lat="43.93767" lon="7.68327">
        <ele>327</ele>
        <time>2017-09-17T17:17:56Z</time>
      </trkpt>
      <trkpt lat="43.93756" lon="7.68316">
        <ele>325</ele>
        <time>2017-09-17T17:17:57Z</time>
      </trkpt>
      <trkpt lat="43.93746" lon="7.68303">
        <ele>324</ele>
        <time>2017-09-17T17:17:58Z</time>
      </trkpt>
      <trkpt lat="43.93737" lon="7.6829">
        <ele>322</ele>
        <time>2017-09-17T17:17:59Z</time>
      </trkpt>
      <trkpt lat="43.93727" lon="7.68277">
        <ele>321</ele>
        <time>2017-09-17T17:18:00Z</time>
      </trkpt>
      <trkpt lat="43.93719" lon="7.68263">
        <ele>319</ele>
        <time>2017-09-17T17:18:01Z</time>
      </trkpt>
      <trkpt lat="43.93711" lon="7.68248">
        <ele>318</ele>
        <time>2017-09-17T17:18:02Z</time>
      </trkpt>
      <trkpt lat="43.93704" lon="7.68233">
        <ele>316</ele>
        <time>2017-09-17T17:18:03Z</time>
      </trkpt>
      <trkpt lat="43.93697" lon="7.68217">
        <ele>315</ele>
        <time>2017-09-17T17:18:04Z</time>
      </trkpt>
      <trkpt lat="43.9369" lon="7.68202">
        <ele>314</ele>
        <time>2017-09-17T17:18:05Z</time>
      </trkpt>
      <trkpt lat="43.93682" lon="7.68188">
        <ele>312</ele>
        <time>2017-09-17T17:18:06Z</time>
      </trkpt>
      <trkpt lat="43.93674" lon="7.68173">
        <ele>311</ele>
        <time>2017-09-17T17:18:07Z</time>
      </trkpt>
      <trkpt lat="43.93667" lon="7.68159">
        <ele>310</ele>
        <time>2017-09-17T17:18:08Z</time>
      </trkpt>
      <trkpt lat="43.93661" lon="7.68145">
        <ele>309</ele>
        <time>2017-09-17T17:18:09Z</time>
      </trkpt>
      <trkpt lat="43.93655" lon="7.68131">
        <ele>307</ele>
        <time>2017-09-17T17:18:10Z</time>
      </trkpt>
      <trkpt lat="43.93647" lon="7.68121">
        <ele>306</ele>
        <time>2017-09-17T17:18:11Z</time>
      </trkpt>
      <trkpt lat="43.93639" lon="7.68112">
        <ele>305</ele>
        <time>2017-09-17T17:18:12Z</time>
      </trkpt>
      <trkpt lat="43.93628" lon="7.68107">
        <ele>304</ele>
        <time>2017-09-17T17:18:13Z</time>
      </trkpt>
      <trkpt lat="43.93616" lon="7.68103">
        <ele>303</ele>
        <time>2017-09-17T17:18:14Z</time>
      </trkpt>
      <trkpt lat="43.93605" lon="7.68098">
        <ele>302</ele>
        <time>2017-09-17T17:18:15Z</time>
      </trkpt>
      <trkpt lat="43.93592" lon="7.68094">
        <ele>301</ele>
        <time>2017-09-17T17:18:16Z</time>
      </trkpt>
      <trkpt lat="43.9358" lon="7.68089">
        <ele>300</ele>
        <time>2017-09-17T17:18:17Z</time>
      </trkpt>
      <trkpt lat="43.93568" lon="7.68082">
        <ele>299</ele>
        <time>2017-09-17T17:18:18Z</time>
      </trkpt>
      <trkpt lat="43.93558" lon="7.68072">
        <ele>298</ele>
        <time>2017-09-17T17:18:19Z</time>
      </trkpt>
      <trkpt lat="43.93549" lon="7.68061">
        <ele>297</ele>
        <time>2017-09-17T17:18:20Z</time>
      </trkpt>
      <trkpt lat="43.93541" lon="7.6805">
        <ele>297</ele>
        <time>2017-09-17T17:18:21Z</time>
      </trkpt>
      <trkpt lat="43.93534" lon="7.68037">
        <ele>296</ele>
        <time>2017-09-17T17:18:22Z</time>
      </trkpt>
      <trkpt lat="43.93528" lon="7.68023">
        <ele>296</ele>
        <time>2017-09-17T17:18:23Z</time>
      </trkpt>
      <trkpt lat="43.93523" lon="7.68009">
        <ele>295</ele>
        <time>2017-09-17T17:18:24Z</time>
      </trkpt>
      <trkpt lat="43.93518" lon="7.67995">
        <ele>294</ele>
        <time>2017-09-17T17:18:25Z</time>
      </trkpt>
      <trkpt lat="43.93512" lon="7.67982">
        <ele>294</ele>
        <time>2017-09-17T17:18:26Z</time>
      </trkpt>
      <trkpt lat="43.93507" lon="7.67969">
        <ele>293</ele>
        <time>2017-09-17T17:18:27Z</time>
      </trkpt>
      <trkpt lat="43.935" lon="7.67957">
        <ele>293</ele>
        <time>2017-09-17T17:18:28Z</time>
      </trkpt>
      <trkpt lat="43.93493" lon="7.67946">
        <ele>292</ele>
        <time>2017-09-17T17:18:29Z</time>
      </trkpt>
      <trkpt lat="43.93486" lon="7.67935">
        <ele>292</ele>
        <time>2017-09-17T17:18:30Z</time>
      </trkpt>
      <trkpt lat="43.93478" lon="7.67924">
        <ele>291</ele>
        <time>2017-09-17T17:18:31Z</time>
      </trkpt>
      <trkpt lat="43.93469" lon="7.67914">
        <ele>291</ele>
        <time>2017-09-17T17:18:32Z</time>
      </trkpt>
      <trkpt lat="43.93461" lon="7.67904">
        <ele>290</ele>
        <time>2017-09-17T17:18:33Z</time>
      </trkpt>
      <trkpt lat="43.93453" lon="7.67894">
        <ele>289</ele>
        <time>2017-09-17T17:18:34Z</time>
      </trkpt>
      <trkpt lat="43.93445" lon="7.67883">
        <ele>289</ele>
        <time>2017-09-17T17:18:35Z</time>
      </trkpt>
      <trkpt lat="43.93437" lon="7.67874">
        <ele>288</ele>
        <time>2017-09-17T17:18:36Z</time>
      </trkpt>
      <trkpt lat="43.93428" lon="7.67865">
        <ele>288</ele>
        <time>2017-09-17T17:18:37Z</time>
      </trkpt>
      <trkpt lat="43.9342" lon="7.67856">
        <ele>287</ele>
        <time>2017-09-17T17:18:38Z</time>
      </trkpt>
      <trkpt lat="43.93411" lon="7.67849">
        <ele>287</ele>
        <time>2017-09-17T17:18:39Z</time>
      </trkpt>
      <trkpt lat="43.93402" lon="7.67842">
        <ele>286</ele>
        <time>2017-09-17T17:18:40Z</time>
      </trkpt>
      <trkpt lat="43.93392" lon="7.67836">
        <ele>286</ele>
        <time>2017-09-17T17:18:41Z</time>
      </trkpt>
      <trkpt lat="43.93383" lon="7.6783">
        <ele>286</ele>
        <time>2017-09-17T17:18:42Z</time>
      </trkpt>
      <trkpt lat="43.93373" lon="7.67824">
        <ele>285</ele>
        <time>2017-09-17T17:18:43Z</time>
      </trkpt>
      <trkpt lat="43.93363" lon="7.67819">
        <ele>285</ele>
        <time>2017-09-17T17:18:44Z</time>
      </trkpt>
      <trkpt lat="43.93354" lon="7.67813">
        <ele>285</ele>
        <time>2017-09-17T17:18:45Z</time>
      </trkpt>
      <trkpt lat="43.93345" lon="7.67806">
        <ele>285</ele>
        <time>2017-09-17T17:18:46Z</time>
      </trkpt>
      <trkpt lat="43.93337" lon="7.67799">
        <ele>285</ele>
        <time>2017-09-17T17:18:47Z</time>
      </trkpt>
      <trkpt lat="43.93329" lon="7.67792">
        <ele>285</ele>
        <time>2017-09-17T17:18:48Z</time>
      </trkpt>
      <trkpt lat="43.9332" lon="7.67785">
        <ele>285</ele>
        <time>2017-09-17T17:18:49Z</time>
      </trkpt>
      <trkpt lat="43.93312" lon="7.67778">
        <ele>284</ele>
        <time>2017-09-17T17:18:50Z</time>
      </trkpt>
      <trkpt lat="43.93303" lon="7.67771">
        <ele>284</ele>
        <time>2017-09-17T17:18:51Z</time>
      </trkpt>
      <trkpt lat="43.93295" lon="7.67764">
        <ele>284</ele>
        <time>2017-09-17T17:18:52Z</time>
      </trkpt>
      <trkpt lat="43.93286" lon="7.67757">
        <ele>284</ele>
        <time>2017-09-17T17:18:53Z</time>
      </trkpt>
      <trkpt lat="43.93278" lon="7.6775">
        <ele>284</ele>
        <time>2017-09-17T17:18:54Z</time>
      </trkpt>
      <trkpt lat="43.93269" lon="7.67742">
        <ele>284</ele>
        <time>2017-09-17T17:18:55Z</time>
      </trkpt>
      <trkpt lat="43.9326" lon="7.67734">
        <ele>283</ele>
        <time>2017-09-17T17:18:56Z</time>
      </trkpt>
      <trkpt lat="43.93252" lon="7.67726">
        <ele>283</ele>
        <time>2017-09-17T17:18:57Z</time>
      </trkpt>
      <trkpt lat="43.93243" lon="7.67717">
        <ele>283</ele>
        <time>2017-09-17T17:18:58Z</time>
      </trkpt>
      <trkpt lat="43.93235" lon="7.67709">
        <ele>282</ele>
        <time>2017-09-17T17:18:59Z</time>
      </trkpt>
      <trkpt lat="43.93227" lon="7.67701">
        <ele>282</ele>
        <time>2017-09-17T17:19:00Z</time>
      </trkpt>
      <trkpt lat="43.93219" lon="7.67692">
        <ele>282</ele>
        <time>2017-09-17T17:19:01Z</time>
      </trkpt>
      <trkpt lat="43.93211" lon="7.67684">
        <ele>281</ele>
        <time>2017-09-17T17:19:02Z</time>
      </trkpt>
      <trkpt lat="43.93203" lon="7.67674">
        <ele>281</ele>
        <time>2017-09-17T17:19:03Z</time>
      </trkpt>
      <trkpt lat="43.93197" lon="7.67664">
        <ele>280</ele>
        <time>2017-09-17T17:19:04Z</time>
      </trkpt>
      <trkpt lat="43.93192" lon="7.67652">
        <ele>280</ele>
        <time>2017-09-17T17:19:05Z</time>
      </trkpt>
      <trkpt lat="43.93188" lon="7.6764">
        <ele>279</ele>
        <time>2017-09-17T17:19:06Z</time>
      </trkpt>
      <trkpt lat="43.93186" lon="7.67627">
        <ele>279</ele>
        <time>2017-09-17T17:19:07Z</time>
      </trkpt>
      <trkpt lat="43.93183" lon="7.67614">
        <ele>278</ele>
        <time>2017-09-17T17:19:08Z</time>
      </trkpt>
      <trkpt lat="43.93181" lon="7.676">
        <ele>278</ele>
        <time>2017-09-17T17:19:09Z</time>
      </trkpt>
      <trkpt lat="43.93179" lon="7.67587">
        <ele>277</ele>
        <time>2017-09-17T17:19:10Z</time>
      </trkpt>
      <trkpt lat="43.93176" lon="7.67574">
        <ele>277</ele>
        <time>2017-09-17T17:19:11Z</time>
      </trkpt>
      <trkpt lat="43.93174" lon="7.6756">
        <ele>276</ele>
        <time>2017-09-17T17:19:12Z</time>
      </trkpt>
      <trkpt lat="43.93172" lon="7.67547">
        <ele>276</ele>
        <time>2017-09-17T17:19:13Z</time>
      </trkpt>
      <trkpt lat="43.93169" lon="7.67534">
        <ele>276</ele>
        <time>2017-09-17T17:19:14Z</time>
      </trkpt>
      <trkpt lat="43.93167" lon="7.67521">
        <ele>275</ele>
        <time>2017-09-17T17:19:15Z</time>
      </trkpt>
      <trkpt lat="43.93165" lon="7.67508">
        <ele>275</ele>
        <time>2017-09-17T17:19:16Z</time>
      </trkpt>
      <trkpt lat="43.93164" lon="7.67495">
        <ele>274</ele>
        <time>2017-09-17T17:19:17Z</time>
      </trkpt>
      <trkpt lat="43.93162" lon="7.67482">
        <ele>274</ele>
        <time>2017-09-17T17:19:18Z</time>
      </trkpt>
      <trkpt lat="43.9316" lon="7.67469">
        <ele>274</ele>
        <time>2017-09-17T17:19:19Z</time>
      </trkpt>
      <trkpt lat="43.93157" lon="7.67456">
        <ele>273</ele>
        <time>2017-09-17T17:19:20Z</time>
      </trkpt>
      <trkpt lat="43.93154" lon="7.67444">
        <ele>273</ele>
        <time>2017-09-17T17:19:21Z</time>
      </trkpt>
      <trkpt lat="43.93151" lon="7.67431">
        <ele>273</ele>
        <time>2017-09-17T17:19:22Z</time>
      </trkpt>
      <trkpt lat="43.93148" lon="7.67419">
        <ele>272</ele>
        <time>2017-09-17T17:19:23Z</time>
      </trkpt>
      <trkpt lat="43.93144" lon="7.67406">
        <ele>272</ele>
        <time>2017-09-17T17:19:24Z</time>
      </trkpt>
      <trkpt lat="43.93141" lon="7.67394">
        <ele>272</ele>
        <time>2017-09-17T17:19:25Z</time>
      </trkpt>
      <trkpt lat="43.93137" lon="7.67382">
        <ele>271</ele>
        <time>2017-09-17T17:19:26Z</time>
      </trkpt>
      <trkpt lat="43.93133" lon="7.67369">
        <ele>271</ele>
        <time>2017-09-17T17:19:27Z</time>
      </trkpt>
      <trkpt lat="43.9313" lon="7.67357">
        <ele>271</ele>
        <time>2017-09-17T17:19:28Z</time>
      </trkpt>
      <trkpt lat="43.93126" lon="7.67344">
        <ele>270</ele>
        <time>2017-09-17T17:19:29Z</time>
      </trkpt>
      <trkpt lat="43.93123" lon="7.67332">
        <ele>270</ele>
        <time>2017-09-17T17:19:30Z</time>
      </trkpt>
      <trkpt lat="43.9312" lon="7.6732">
        <ele>270</ele>
        <time>2017-09-17T17:19:31Z</time>
      </trkpt>
      <trkpt lat="43.93116" lon="7.67307">
        <ele>270</ele>
        <time>2017-09-17T17:19:32Z</time>
      </trkpt>
      <trkpt lat="43.93113" lon="7.67295">
        <ele>269</ele>
        <time>2017-09-17T17:19:33Z</time>
      </trkpt>
      <trkpt lat="43.9311" lon="7.67283">
        <ele>269</ele>
        <time>2017-09-17T17:19:34Z</time>
      </trkpt>
      <trkpt lat="43.93106" lon="7.67272">
        <ele>269</ele>
        <time>2017-09-17T17:19:35Z</time>
      </trkpt>
      <trkpt lat="43.93103" lon="7.6726">
        <ele>269</ele>
        <time>2017-09-17T17:19:36Z</time>
      </trkpt>
      <trkpt lat="43.931" lon="7.67248">
        <ele>269</ele>
        <time>2017-09-17T17:19:37Z</time>
      </trkpt>
      <trkpt lat="43.93096" lon="7.67237">
        <ele>268</ele>
        <time>2017-09-17T17:19:38Z</time>
      </trkpt>
      <trkpt lat="43.93093" lon="7.67225">
        <ele>268</ele>
        <time>2017-09-17T17:19:39Z</time>
      </trkpt>
      <trkpt lat="43.9309" lon="7.67214">
        <ele>268</ele>
        <time>2017-09-17T17:19:40Z</time>
      </trkpt>
      <trkpt lat="43.93086" lon="7.67203">
        <ele>268</ele>
        <time>2017-09-17T17:19:41Z</time>
      </trkpt>
      <trkpt lat="43.93082" lon="7.67192">
        <ele>268</ele>
        <time>2017-09-17T17:19:42Z</time>
      </trkpt>
      <trkpt lat="43.93078" lon="7.67182">
        <ele>268</ele>
        <time>2017-09-17T17:19:43Z</time>
      </trkpt>
      <trkpt lat="43.93075" lon="7.67171">
        <ele>268</ele>
        <time>2017-09-17T17:19:44Z</time>
      </trkpt>
      <trkpt lat="43.93072" lon="7.6716">
        <ele>268</ele>
        <time>2017-09-17T17:19:45Z</time>
      </trkpt>
      <trkpt lat="43.9307" lon="7.67148">
        <ele>267</ele>
        <time>2017-09-17T17:19:46Z</time>
      </trkpt>
      <trkpt lat="43.93069" lon="7.67137">
        <ele>267</ele>
        <time>2017-09-17T17:19:47Z</time>
      </trkpt>
      <trkpt lat="43.93068" lon="7.67125">
        <ele>267</ele>
        <time>2017-09-17T17:19:48Z</time>
      </trkpt>
      <trkpt lat="43.93067" lon="7.67113">
        <ele>267</ele>
        <time>2017-09-17T17:19:49Z</time>
      </trkpt>
      <trkpt lat="43.93066" lon="7.67101">
        <ele>267</ele>
        <time>2017-09-17T17:19:50Z</time>
      </trkpt>
      <trkpt lat="43.93066" lon="7.6709">
        <ele>267</ele>
        <time>2017-09-17T17:19:51Z</time>
      </trkpt>
      <trkpt lat="43.93065" lon="7.67078">
        <ele>267</ele>
        <time>2017-09-17T17:19:52Z</time>
      </trkpt>
      <trkpt lat="43.93064" lon="7.67066">
        <ele>267</ele>
        <time>2017-09-17T17:19:53Z</time>
      </trkpt>
      <trkpt lat="43.93063" lon="7.67055">
        <ele>266</ele>
        <time>2017-09-17T17:19:54Z</time>
      </trkpt>
      <trkpt lat="43.93063" lon="7.67043">
        <ele>266</ele>
        <time>2017-09-17T17:19:55Z</time>
      </trkpt>
      <trkpt lat="43.93062" lon="7.67031">
        <ele>266</ele>
        <time>2017-09-17T17:19:56Z</time>
      </trkpt>
      <trkpt lat="43.93063" lon="7.6702">
        <ele>266</ele>
        <time>2017-09-17T17:19:57Z</time>
      </trkpt>
      <trkpt lat="43.93065" lon="7.67009">
        <ele>266</ele>
        <time>2017-09-17T17:19:58Z</time>
      </trkpt>
      <trkpt lat="43.93068" lon="7.66999">
        <ele>266</ele>
        <time>2017-09-17T17:19:59Z</time>
      </trkpt>
      <trkpt lat="43.93072" lon="7.6699">
        <ele>266</ele>
        <time>2017-09-17T17:20:00Z</time>
      </trkpt>
      <trkpt lat="43.93077" lon="7.66981">
        <ele>266</ele>
        <time>2017-09-17T17:20:01Z</time>
      </trkpt>
      <trkpt lat="43.93082" lon="7.66972">
        <ele>266</ele>
        <time>2017-09-17T17:20:02Z</time>
      </trkpt>
      <trkpt lat="43.93085" lon="7.66962">
        <ele>266</ele>
        <time>2017-09-17T17:20:03Z</time>
      </trkpt>
      <trkpt lat="43.93086" lon="7.66951">
        <ele>265</ele>
        <time>2017-09-17T17:20:04Z</time>
      </trkpt>
      <trkpt lat="43.93087" lon="7.6694">
        <ele>265</ele>
        <time>2017-09-17T17:20:05Z</time>
      </trkpt>
      <trkpt lat="43.93089" lon="7.66928">
        <ele>265</ele>
        <time>2017-09-17T17:20:06Z</time>
      </trkpt>
      <trkpt lat="43.9309" lon="7.66917">
        <ele>265</ele>
        <time>2017-09-17T17:20:07Z</time>
      </trkpt>
      <trkpt lat="43.93092" lon="7.66905">
        <ele>264</ele>
        <time>2017-09-17T17:20:08Z</time>
      </trkpt>
      <trkpt lat="43.93093" lon="7.66894">
        <ele>264</ele>
        <time>2017-09-17T17:20:09Z</time>
      </trkpt>
      <trkpt lat="43.93095" lon="7.66883">
        <ele>264</ele>
        <time>2017-09-17T17:20:10Z</time>
      </trkpt>
      <trkpt lat="43.93098" lon="7.66871">
        <ele>264</ele>
        <time>2017-09-17T17:20:11Z</time>
      </trkpt>
      <trkpt lat="43.931" lon="7.6686">
        <ele>263</ele>
        <time>2017-09-17T17:20:12Z</time>
      </trkpt>
      <trkpt lat="43.93103" lon="7.66848">
        <ele>263</ele>
        <time>2017-09-17T17:20:13Z</time>
      </trkpt>
      <trkpt lat="43.93107" lon="7.66837">
        <ele>262</ele>
        <time>2017-09-17T17:20:14Z</time>
      </trkpt>
      <trkpt lat="43.93111" lon="7.66826">
        <ele>262</ele>
        <time>2017-09-17T17:20:15Z</time>
      </trkpt>
      <trkpt lat="43.93115" lon="7.66815">
        <ele>261</ele>
        <time>2017-09-17T17:20:16Z</time>
      </trkpt>
      <trkpt lat="43.93119" lon="7.66805">
        <ele>261</ele>
        <time>2017-09-17T17:20:17Z</time>
      </trkpt>
      <trkpt lat="43.93124" lon="7.66794">
        <ele>260</ele>
        <time>2017-09-17T17:20:18Z</time>
      </trkpt>
      <trkpt lat="43.93129" lon="7.66782">
        <ele>260</ele>
        <time>2017-09-17T17:20:19Z</time>
      </trkpt>
      <trkpt lat="43.93133" lon="7.66771">
        <ele>259</ele>
        <time>2017-09-17T17:20:20Z</time>
      </trkpt>
      <trkpt lat="43.93138" lon="7.6676">
        <ele>259</ele>
        <time>2017-09-17T17:20:21Z</time>
      </trkpt>
      <trkpt lat="43.93143" lon="7.66749">
        <ele>258</ele>
        <time>2017-09-17T17:20:22Z</time>
      </trkpt>
      <trkpt lat="43.93147" lon="7.66737">
        <ele>258</ele>
        <time>2017-09-17T17:20:23Z</time>
      </trkpt>
      <trkpt lat="43.93152" lon="7.66726">
        <ele>257</ele>
        <time>2017-09-17T17:20:24Z</time>
      </trkpt>
      <trkpt lat="43.93157" lon="7.66715">
        <ele>257</ele>
        <time>2017-09-17T17:20:25Z</time>
      </trkpt>
      <trkpt lat="43.93162" lon="7.66704">
        <ele>256</ele>
        <time>2017-09-17T17:20:26Z</time>
      </trkpt>
      <trkpt lat="43.93167" lon="7.66693">
        <ele>256</ele>
        <time>2017-09-17T17:20:27Z</time>
      </trkpt>
      <trkpt lat="43.93172" lon="7.66682">
        <ele>255</ele>
        <time>2017-09-17T17:20:28Z</time>
      </trkpt>
      <trkpt lat="43.93177" lon="7.6667">
        <ele>255</ele>
        <time>2017-09-17T17:20:29Z</time>
      </trkpt>
      <trkpt lat="43.93182" lon="7.66659">
        <ele>254</ele>
        <time>2017-09-17T17:20:30Z</time>
      </trkpt>
      <trkpt lat="43.93187" lon="7.66648">
        <ele>254</ele>
        <time>2017-09-17T17:20:31Z</time>
      </trkpt>
      <trkpt lat="43.93192" lon="7.66637">
        <ele>253</ele>
        <time>2017-09-17T17:20:32Z</time>
      </trkpt>
      <trkpt lat="43.93196" lon="7.66627">
        <ele>253</ele>
        <time>2017-09-17T17:20:33Z</time>
      </trkpt>
      <trkpt lat="43.93201" lon="7.66617">
        <ele>253</ele>
        <time>2017-09-17T17:20:34Z</time>
      </trkpt>
      <trkpt lat="43.93206" lon="7.66607">
        <ele>252</ele>
        <time>2017-09-17T17:20:35Z</time>
      </trkpt>
      <trkpt lat="43.93211" lon="7.66596">
        <ele>252</ele>
        <time>2017-09-17T17:20:36Z</time>
      </trkpt>
      <trkpt lat="43.93216" lon="7.66584">
        <ele>252</ele>
        <time>2017-09-17T17:20:37Z</time>
      </trkpt>
      <trkpt lat="43.93221" lon="7.66573">
        <ele>252</ele>
        <time>2017-09-17T17:20:38Z</time>
      </trkpt>
      <trkpt lat="43.93226" lon="7.66563">
        <ele>252</ele>
        <time>2017-09-17T17:20:39Z</time>
      </trkpt>
      <trkpt lat="43.93231" lon="7.66552">
        <ele>252</ele>
        <time>2017-09-17T17:20:40Z</time>
      </trkpt>
      <trkpt lat="43.93236" lon="7.6654">
        <ele>252</ele>
        <time>2017-09-17T17:20:41Z</time>
      </trkpt>
      <trkpt lat="43.9324" lon="7.66529">
        <ele>252</ele>
        <time>2017-09-17T17:20:42Z</time>
      </trkpt>
      <trkpt lat="43.93244" lon="7.66517">
        <ele>251</ele>
        <time>2017-09-17T17:20:43Z</time>
      </trkpt>
      <trkpt lat="43.93247" lon="7.66504">
        <ele>251</ele>
        <time>2017-09-17T17:20:44Z</time>
      </trkpt>
      <trkpt lat="43.93248" lon="7.66492">
        <ele>251</ele>
        <time>2017-09-17T17:20:45Z</time>
      </trkpt>
      <trkpt lat="43.93247" lon="7.66479">
        <ele>251</ele>
        <time>2017-09-17T17:20:46Z</time>
      </trkpt>
      <trkpt lat="43.93245" lon="7.66466">
        <ele>250</ele>
        <time>2017-09-17T17:20:47Z</time>
      </trkpt>
      <trkpt lat="43.93242" lon="7.66454">
        <ele>250</ele>
        <time>2017-09-17T17:20:48Z</time>
      </trkpt>
      <trkpt lat="43.93238" lon="7.66442">
        <ele>250</ele>
        <time>2017-09-17T17:20:49Z</time>
      </trkpt>
      <trkpt lat="43.93233" lon="7.66433">
        <ele>250</ele>
        <time>2017-09-17T17:20:50Z</time>
      </trkpt>
      <trkpt lat="43.93226" lon="7.66425">
        <ele>250</ele>
        <time>2017-09-17T17:20:51Z</time>
      </trkpt>
      <trkpt lat="43.93217" lon="7.6642">
        <ele>250</ele>
        <time>2017-09-17T17:20:52Z</time>
      </trkpt>
      <trkpt lat="43.93209" lon="7.66416">
        <ele>250</ele>
        <time>2017-09-17T17:20:53Z</time>
      </trkpt>
      <trkpt lat="43.932" lon="7.66413">
        <ele>250</ele>
        <time>2017-09-17T17:20:54Z</time>
      </trkpt>
      <trkpt lat="43.93191" lon="7.66408">
        <ele>250</ele>
        <time>2017-09-17T17:20:55Z</time>
      </trkpt>
      <trkpt lat="43.93184" lon="7.66403">
        <ele>250</ele>
        <time>2017-09-17T17:20:56Z</time>
      </trkpt>
      <trkpt lat="43.93177" lon="7.66397">
        <ele>250</ele>
        <time>2017-09-17T17:20:57Z</time>
      </trkpt>
      <trkpt lat="43.93168" lon="7.66392">
        <ele>250</ele>
        <time>2017-09-17T17:20:58Z</time>
      </trkpt>
      <trkpt lat="43.93161" lon="7.66386">
        <ele>251</ele>
        <time>2017-09-17T17:20:59Z</time>
      </trkpt>
      <trkpt lat="43.93155" lon="7.66378">
        <ele>251</ele>
        <time>2017-09-17T17:21:00Z</time>
      </trkpt>
      <trkpt lat="43.93151" lon="7.66369">
        <ele>251</ele>
        <time>2017-09-17T17:21:01Z</time>
      </trkpt>
      <trkpt lat="43.93148" lon="7.66359">
        <ele>251</ele>
        <time>2017-09-17T17:21:02Z</time>
      </trkpt>
      <trkpt lat="43.93145" lon="7.6635">
        <ele>251</ele>
        <time>2017-09-17T17:21:03Z</time>
      </trkpt>
      <trkpt lat="43.93143" lon="7.6634">
        <ele>250</ele>
        <time>2017-09-17T17:21:04Z</time>
      </trkpt>
      <trkpt lat="43.93142" lon="7.6633">
        <ele>250</ele>
        <time>2017-09-17T17:21:05Z</time>
      </trkpt>
      <trkpt lat="43.93142" lon="7.6632">
        <ele>250</ele>
        <time>2017-09-17T17:21:06Z</time>
      </trkpt>
      <trkpt lat="43.93142" lon="7.6631">
        <ele>250</ele>
        <time>2017-09-17T17:21:07Z</time>
      </trkpt>
      <trkpt lat="43.93143" lon="7.66301">
        <ele>250</ele>
        <time>2017-09-17T17:21:08Z</time>
      </trkpt>
      <trkpt lat="43.93145" lon="7.66291">
        <ele>250</ele>
        <time>2017-09-17T17:21:09Z</time>
      </trkpt>
      <trkpt lat="43.93147" lon="7.66282">
        <ele>249</ele>
        <time>2017-09-17T17:21:10Z</time>
      </trkpt>
      <trkpt lat="43.93149" lon="7.66272">
        <ele>249</ele>
        <time>2017-09-17T17:21:11Z</time>
      </trkpt>
      <trkpt lat="43.93151" lon="7.66263">
        <ele>249</ele>
        <time>2017-09-17T17:21:12Z</time>
      </trkpt>
      <trkpt lat="43.93153" lon="7.66253">
        <ele>249</ele>
        <time>2017-09-17T17:21:13Z</time>
      </trkpt>
      <trkpt lat="43.93155" lon="7.66244">
        <ele>249</ele>
        <time>2017-09-17T17:21:14Z</time>
      </trkpt>
      <trkpt lat="43.93157" lon="7.66235">
        <ele>249</ele>
        <time>2017-09-17T17:21:15Z</time>
      </trkpt>
      <trkpt lat="43.93159" lon="7.66226">
        <ele>248</ele>
        <time>2017-09-17T17:21:16Z</time>
      </trkpt>
      <trkpt lat="43.93161" lon="7.66217">
        <ele>248</ele>
        <time>2017-09-17T17:21:17Z</time>
      </trkpt>
      <trkpt lat="43.93163" lon="7.66208">
        <ele>248</ele>
        <time>2017-09-17T17:21:18Z</time>
      </trkpt>
      <trkpt lat="43.93166" lon="7.662">
        <ele>248</ele>
        <time>2017-09-17T17:21:19Z</time>
      </trkpt>
      <trkpt lat="43.93169" lon="7.66191">
        <ele>248</ele>
        <time>2017-09-17T17:21:20Z</time>
      </trkpt>
      <trkpt lat="43.93172" lon="7.66183">
        <ele>248</ele>
        <time>2017-09-17T17:21:21Z</time>
      </trkpt>
      <trkpt lat="43.93175" lon="7.66175">
        <ele>248</ele>
        <time>2017-09-17T17:21:22Z</time>
      </trkpt>
      <trkpt lat="43.93178" lon="7.66167">
        <ele>247</ele>
        <time>2017-09-17T17:21:23Z</time>
      </trkpt>
      <trkpt lat="43.93182" lon="7.66159">
        <ele>247</ele>
        <time>2017-09-17T17:21:24Z</time>
      </trkpt>
      <trkpt lat="43.93185" lon="7.66152">
        <ele>247</ele>
        <time>2017-09-17T17:21:25Z</time>
      </trkpt>
      <trkpt lat="43.9319" lon="7.66146">
        <ele>247</ele>
        <time>2017-09-17T17:21:26Z</time>
      </trkpt>
      <trkpt lat="43.93195" lon="7.6614">
        <ele>247</ele>
        <time>2017-09-17T17:21:27Z</time>
      </trkpt>
      <trkpt lat="43.932" lon="7.66134">
        <ele>247</ele>
        <time>2017-09-17T17:21:28Z</time>
      </trkpt>
      <trkpt lat="43.93206" lon="7.66129">
        <ele>247</ele>
        <time>2017-09-17T17:21:29Z</time>
      </trkpt>
      <trkpt lat="43.93211" lon="7.66123">
        <ele>247</ele>
        <time>2017-09-17T17:21:30Z</time>
      </trkpt>
      <trkpt lat="43.93217" lon="7.66118">
        <ele>247</ele>
        <time>2017-09-17T17:21:31Z</time>
      </trkpt>
      <trkpt lat="43.93222" lon="7.66113">
        <ele>247</ele>
        <time>2017-09-17T17:21:32Z</time>
      </trkpt>
      <trkpt lat="43.93228" lon="7.66108">
        <ele>246</ele>
        <time>2017-09-17T17:21:33Z</time>
      </trkpt>
      <trkpt lat="43.93233" lon="7.66102">
        <ele>246</ele>
        <time>2017-09-17T17:21:34Z</time>
      </trkpt>
      <trkpt lat="43.93239" lon="7.66096">
        <ele>246</ele>
        <time>2017-09-17T17:21:35Z</time>
      </trkpt>
      <trkpt lat="43.93244" lon="7.6609">
        <ele>246</ele>
        <time>2017-09-17T17:21:36Z</time>
      </trkpt>
      <trkpt lat="43.93248" lon="7.66082">
        <ele>246</ele>
        <time>2017-09-17T17:21:37Z</time>
      </trkpt>
      <trkpt lat="43.9325" lon="7.66073">
        <ele>246</ele>
        <time>2017-09-17T17:21:38Z</time>
      </trkpt>
      <trkpt lat="43.93251" lon="7.66064">
        <ele>246</ele>
        <time>2017-09-17T17:21:39Z</time>
      </trkpt>
      <trkpt lat="43.93251" lon="7.66055">
        <ele>246</ele>
        <time>2017-09-17T17:21:40Z</time>
      </trkpt>
      <trkpt lat="43.9325" lon="7.66045">
        <ele>246</ele>
        <time>2017-09-17T17:21:41Z</time>
      </trkpt>
      <trkpt lat="43.93248" lon="7.66036">
        <ele>246</ele>
        <time>2017-09-17T17:21:42Z</time>
      </trkpt>
      <trkpt lat="43.93246" lon="7.66028">
        <ele>245</ele>
        <time>2017-09-17T17:21:43Z</time>
      </trkpt>
      <trkpt lat="43.93243" lon="7.66019">
        <ele>245</ele>
        <time>2017-09-17T17:21:44Z</time>
      </trkpt>
      <trkpt lat="43.9324" lon="7.6601">
        <ele>246</ele>
        <time>2017-09-17T17:21:45Z</time>
      </trkpt>
      <trkpt lat="43.93238" lon="7.66001">
        <ele>246</ele>
        <time>2017-09-17T17:21:46Z</time>
      </trkpt>
      <trkpt lat="43.93235" lon="7.65991">
        <ele>246</ele>
        <time>2017-09-17T17:21:47Z</time>
      </trkpt>
      <trkpt lat="43.93234" lon="7.6598">
        <ele>246</ele>
        <time>2017-09-17T17:21:48Z</time>
      </trkpt>
      <trkpt lat="43.93232" lon="7.6597">
        <ele>246</ele>
        <time>2017-09-17T17:21:49Z</time>
      </trkpt>
      <trkpt lat="43.9323" lon="7.6596">
        <ele>245</ele>
        <time>2017-09-17T17:21:50Z</time>
      </trkpt>
      <trkpt lat="43.93229" lon="7.65949">
        <ele>245</ele>
        <time>2017-09-17T17:21:51Z</time>
      </trkpt>
      <trkpt lat="43.93228" lon="7.65939">
        <ele>245</ele>
        <time>2017-09-17T17:21:52Z</time>
      </trkpt>
      <trkpt lat="43.93227" lon="7.65929">
        <ele>245</ele>
        <time>2017-09-17T17:21:53Z</time>
      </trkpt>
      <trkpt lat="43.93227" lon="7.65918">
        <ele>245</ele>
        <time>2017-09-17T17:21:54Z</time>
      </trkpt>
      <trkpt lat="43.93226" lon="7.65908">
        <ele>245</ele>
        <time>2017-09-17T17:21:55Z</time>
      </trkpt>
      <trkpt lat="43.93225" lon="7.65898">
        <ele>244</ele>
        <time>2017-09-17T17:21:56Z</time>
      </trkpt>
      <trkpt lat="43.93225" lon="7.65888">
        <ele>244</ele>
        <time>2017-09-17T17:21:57Z</time>
      </trkpt>
      <trkpt lat="43.93224" lon="7.65878">
        <ele>244</ele>
        <time>2017-09-17T17:21:58Z</time>
      </trkpt>
      <trkpt lat="43.93223" lon="7.65868">
        <ele>244</ele>
        <time>2017-09-17T17:21:59Z</time>
      </trkpt>
      <trkpt lat="43.93222" lon="7.65858">
        <ele>244</ele>
        <time>2017-09-17T17:22:00Z</time>
      </trkpt>
      <trkpt lat="43.93221" lon="7.65847">
        <ele>244</ele>
        <time>2017-09-17T17:22:01Z</time>
      </trkpt>
      <trkpt lat="43.93221" lon="7.65837">
        <ele>244</ele>
        <time>2017-09-17T17:22:02Z</time>
      </trkpt>
      <trkpt lat="43.9322" lon="7.65827">
        <ele>244</ele>
        <time>2017-09-17T17:22:03Z</time>
      </trkpt>
      <trkpt lat="43.93219" lon="7.65817">
        <ele>243</ele>
        <time>2017-09-17T17:22:04Z</time>
      </trkpt>
      <trkpt lat="43.93218" lon="7.65807">
        <ele>243</ele>
        <time>2017-09-17T17:22:05Z</time>
      </trkpt>
      <trkpt lat="43.93217" lon="7.65796">
        <ele>243</ele>
        <time>2017-09-17T17:22:06Z</time>
      </trkpt>
      <trkpt lat="43.93216" lon="7.65786">
        <ele>243</ele>
        <time>2017-09-17T17:22:07Z</time>
      </trkpt>
      <trkpt lat="43.93215" lon="7.65776">
        <ele>243</ele>
        <time>2017-09-17T17:22:08Z</time>
      </trkpt>
      <trkpt lat="43.93214" lon="7.65766">
        <ele>243</ele>
        <time>2017-09-17T17:22:09Z</time>
      </trkpt>
      <trkpt lat="43.93213" lon="7.65756">
        <ele>243</ele>
        <time>2017-09-17T17:22:10Z</time>
      </trkpt>
      <trkpt lat="43.93211" lon="7.65747">
        <ele>243</ele>
        <time>2017-09-17T17:22:11Z</time>
      </trkpt>
      <trkpt lat="43.93209" lon="7.65737">
        <ele>243</ele>
        <time>2017-09-17T17:22:12Z</time>
      </trkpt>
      <trkpt lat="43.93207" lon="7.65727">
        <ele>242</ele>
        <time>2017-09-17T17:22:13Z</time>
      </trkpt>
      <trkpt lat="43.93205" lon="7.65718">
        <ele>242</ele>
        <time>2017-09-17T17:22:14Z</time>
      </trkpt>
      <trkpt lat="43.93202" lon="7.65709">
        <ele>242</ele>
        <time>2017-09-17T17:22:15Z</time>
      </trkpt>
      <trkpt lat="43.932" lon="7.65699">
        <ele>243</ele>
        <time>2017-09-17T17:22:16Z</time>
      </trkpt>
      <trkpt lat="43.93197" lon="7.6569">
        <ele>243</ele>
        <time>2017-09-17T17:22:17Z</time>
      </trkpt>
      <trkpt lat="43.93194" lon="7.6568">
        <ele>243</ele>
        <time>2017-09-17T17:22:18Z</time>
      </trkpt>
      <trkpt lat="43.93192" lon="7.65671">
        <ele>243</ele>
        <time>2017-09-17T17:22:19Z</time>
      </trkpt>
      <trkpt lat="43.93189" lon="7.65661">
        <ele>243</ele>
        <time>2017-09-17T17:22:20Z</time>
      </trkpt>
      <trkpt lat="43.93186" lon="7.65651">
        <ele>243</ele>
        <time>2017-09-17T17:22:21Z</time>
      </trkpt>
      <trkpt lat="43.93184" lon="7.65641">
        <ele>243</ele>
        <time>2017-09-17T17:22:22Z</time>
      </trkpt>
      <trkpt lat="43.93181" lon="7.65632">
        <ele>243</ele>
        <time>2017-09-17T17:22:23Z</time>
      </trkpt>
      <trkpt lat="43.93179" lon="7.65622">
        <ele>243</ele>
        <time>2017-09-17T17:22:24Z</time>
      </trkpt>
      <trkpt lat="43.93176" lon="7.65612">
        <ele>243</ele>
        <time>2017-09-17T17:22:25Z</time>
      </trkpt>
      <trkpt lat="43.93173" lon="7.65602">
        <ele>243</ele>
        <time>2017-09-17T17:22:26Z</time>
      </trkpt>
      <trkpt lat="43.93171" lon="7.65592">
        <ele>243</ele>
        <time>2017-09-17T17:22:27Z</time>
      </trkpt>
      <trkpt lat="43.93168" lon="7.65583">
        <ele>243</ele>
        <time>2017-09-17T17:22:28Z</time>
      </trkpt>
      <trkpt lat="43.93166" lon="7.65573">
        <ele>242</ele>
        <time>2017-09-17T17:22:29Z</time>
      </trkpt>
      <trkpt lat="43.93163" lon="7.65563">
        <ele>242</ele>
        <time>2017-09-17T17:22:30Z</time>
      </trkpt>
      <trkpt lat="43.93161" lon="7.65553">
        <ele>242</ele>
        <time>2017-09-17T17:22:31Z</time>
      </trkpt>
      <trkpt lat="43.93158" lon="7.65544">
        <ele>242</ele>
        <time>2017-09-17T17:22:32Z</time>
      </trkpt>
      <trkpt lat="43.93156" lon="7.65534">
        <ele>242</ele>
        <time>2017-09-17T17:22:33Z</time>
      </trkpt>
      <trkpt lat="43.93153" lon="7.65524">
        <ele>242</ele>
        <time>2017-09-17T17:22:34Z</time>
      </trkpt>
      <trkpt lat="43.93151" lon="7.65514">
        <ele>242</ele>
        <time>2017-09-17T17:22:35Z</time>
      </trkpt>
      <trkpt lat="43.93149" lon="7.65505">
        <ele>242</ele>
        <time>2017-09-17T17:22:36Z</time>
      </trkpt>
      <trkpt lat="43.93146" lon="7.65495">
        <ele>242</ele>
        <time>2017-09-17T17:22:37Z</time>
      </trkpt>
      <trkpt lat="43.93144" lon="7.65486">
        <ele>242</ele>
        <time>2017-09-17T17:22:38Z</time>
      </trkpt>
      <trkpt lat="43.93141" lon="7.65477">
        <ele>241</ele>
        <time>2017-09-17T17:22:39Z</time>
      </trkpt>
      <trkpt lat="43.93137" lon="7.65468">
        <ele>241</ele>
        <time>2017-09-17T17:22:40Z</time>
      </trkpt>
      <trkpt lat="43.93132" lon="7.6546">
        <ele>241</ele>
        <time>2017-09-17T17:22:41Z</time>
      </trkpt>
      <trkpt lat="43.93127" lon="7.65453">
        <ele>241</ele>
        <time>2017-09-17T17:22:42Z</time>
      </trkpt>
      <trkpt lat="43.93122" lon="7.65445">
        <ele>241</ele>
        <time>2017-09-17T17:22:43Z</time>
      </trkpt>
      <trkpt lat="43.93117" lon="7.65438">
        <ele>241</ele>
        <time>2017-09-17T17:22:44Z</time>
      </trkpt>
      <trkpt lat="43.93112" lon="7.65431">
        <ele>241</ele>
        <time>2017-09-17T17:22:45Z</time>
      </trkpt>
      <trkpt lat="43.93106" lon="7.65424">
        <ele>241</ele>
        <time>2017-09-17T17:22:46Z</time>
      </trkpt>
      <trkpt lat="43.93101" lon="7.65417">
        <ele>241</ele>
        <time>2017-09-17T17:22:47Z</time>
      </trkpt>
      <trkpt lat="43.93095" lon="7.6541">
        <ele>241</ele>
        <time>2017-09-17T17:22:48Z</time>
      </trkpt>
      <trkpt lat="43.9309" lon="7.65403">
        <ele>241</ele>
        <time>2017-09-17T17:22:49Z</time>
      </trkpt>
      <trkpt lat="43.93085" lon="7.65395">
        <ele>240</ele>
        <time>2017-09-17T17:22:50Z</time>
      </trkpt>
      <trkpt lat="43.93079" lon="7.65388">
        <ele>240</ele>
        <time>2017-09-17T17:22:51Z</time>
      </trkpt>
      <trkpt lat="43.93074" lon="7.65381">
        <ele>240</ele>
        <time>2017-09-17T17:22:52Z</time>
      </trkpt>
      <trkpt lat="43.93068" lon="7.65374">
        <ele>240</ele>
        <time>2017-09-17T17:22:53Z</time>
      </trkpt>
      <trkpt lat="43.93063" lon="7.65367">
        <ele>241</ele>
        <time>2017-09-17T17:22:54Z</time>
      </trkpt>
      <trkpt lat="43.93058" lon="7.6536">
        <ele>241</ele>
        <time>2017-09-17T17:22:55Z</time>
      </trkpt>
      <trkpt lat="43.93054" lon="7.65351">
        <ele>241</ele>
        <time>2017-09-17T17:22:56Z</time>
      </trkpt>
      <trkpt lat="43.9305" lon="7.65342">
        <ele>241</ele>
        <time>2017-09-17T17:22:57Z</time>
      </trkpt>
      <trkpt lat="43.93046" lon="7.65333">
        <ele>241</ele>
        <time>2017-09-17T17:22:58Z</time>
      </trkpt>
      <trkpt lat="43.93042" lon="7.65323">
        <ele>241</ele>
        <time>2017-09-17T17:22:59Z</time>
      </trkpt>
      <trkpt lat="43.93038" lon="7.65314">
        <ele>241</ele>
        <time>2017-09-17T17:23:00Z</time>
      </trkpt>
      <trkpt lat="43.93034" lon="7.65304">
        <ele>241</ele>
        <time>2017-09-17T17:23:01Z</time>
      </trkpt>
      <trkpt lat="43.9303" lon="7.65294">
        <ele>241</ele>
        <time>2017-09-17T17:23:02Z</time>
      </trkpt>
      <trkpt lat="43.93027" lon="7.65285">
        <ele>241</ele>
        <time>2017-09-17T17:23:03Z</time>
      </trkpt>
      <trkpt lat="43.93023" lon="7.65275">
        <ele>241</ele>
        <time>2017-09-17T17:23:04Z</time>
      </trkpt>
      <trkpt lat="43.93019" lon="7.65266">
        <ele>241</ele>
        <time>2017-09-17T17:23:05Z</time>
      </trkpt>
      <trkpt lat="43.93015" lon="7.65257">
        <ele>241</ele>
        <time>2017-09-17T17:23:06Z</time>
      </trkpt>
      <trkpt lat="43.93012" lon="7.65247">
        <ele>241</ele>
        <time>2017-09-17T17:23:07Z</time>
      </trkpt>
      <trkpt lat="43.93009" lon="7.65237">
        <ele>241</ele>
        <time>2017-09-17T17:23:08Z</time>
      </trkpt>
      <trkpt lat="43.93005" lon="7.65228">
        <ele>241</ele>
        <time>2017-09-17T17:23:09Z</time>
      </trkpt>
      <trkpt lat="43.93002" lon="7.65219">
        <ele>241</ele>
        <time>2017-09-17T17:23:10Z</time>
      </trkpt>
      <trkpt lat="43.92998" lon="7.6521">
        <ele>241</ele>
        <time>2017-09-17T17:23:11Z</time>
      </trkpt>
      <trkpt lat="43.92994" lon="7.652">
        <ele>240</ele>
        <time>2017-09-17T17:23:12Z</time>
      </trkpt>
      <trkpt lat="43.92991" lon="7.65191">
        <ele>240</ele>
        <time>2017-09-17T17:23:13Z</time>
      </trkpt>
      <trkpt lat="43.92987" lon="7.65182">
        <ele>240</ele>
        <time>2017-09-17T17:23:14Z</time>
      </trkpt>
      <trkpt lat="43.92984" lon="7.65173">
        <ele>240</ele>
        <time>2017-09-17T17:23:15Z</time>
      </trkpt>
      <trkpt lat="43.92981" lon="7.65163">
        <ele>239</ele>
        <time>2017-09-17T17:23:16Z</time>
      </trkpt>
      <trkpt lat="43.92977" lon="7.65154">
        <ele>239</ele>
        <time>2017-09-17T17:23:17Z</time>
      </trkpt>
      <trkpt lat="43.92974" lon="7.65144">
        <ele>239</ele>
        <time>2017-09-17T17:23:18Z</time>
      </trkpt>
      <trkpt lat="43.92971" lon="7.65135">
        <ele>238</ele>
        <time>2017-09-17T17:23:19Z</time>
      </trkpt>
      <trkpt lat="43.92967" lon="7.65126">
        <ele>238</ele>
        <time>2017-09-17T17:23:20Z</time>
      </trkpt>
      <trkpt lat="43.92964" lon="7.65116">
        <ele>238</ele>
        <time>2017-09-17T17:23:21Z</time>
      </trkpt>
      <trkpt lat="43.9296" lon="7.65107">
        <ele>238</ele>
        <time>2017-09-17T17:23:22Z</time>
      </trkpt>
      <trkpt lat="43.92956" lon="7.65097">
        <ele>237</ele>
        <time>2017-09-17T17:23:23Z</time>
      </trkpt>
      <trkpt lat="43.92952" lon="7.65088">
        <ele>237</ele>
        <time>2017-09-17T17:23:24Z</time>
      </trkpt>
      <trkpt lat="43.92949" lon="7.65079">
        <ele>237</ele>
        <time>2017-09-17T17:23:25Z</time>
      </trkpt>
      <trkpt lat="43.92945" lon="7.6507">
        <ele>237</ele>
        <time>2017-09-17T17:23:26Z</time>
      </trkpt>
      <trkpt lat="43.9294" lon="7.65061">
        <ele>236</ele>
        <time>2017-09-17T17:23:27Z</time>
      </trkpt>
      <trkpt lat="43.92935" lon="7.65053">
        <ele>236</ele>
        <time>2017-09-17T17:23:28Z</time>
      </trkpt>
      <trkpt lat="43.9293" lon="7.65044">
        <ele>236</ele>
        <time>2017-09-17T17:23:29Z</time>
      </trkpt>
      <trkpt lat="43.92925" lon="7.65036">
        <ele>236</ele>
        <time>2017-09-17T17:23:30Z</time>
      </trkpt>
      <trkpt lat="43.9292" lon="7.65028">
        <ele>236</ele>
        <time>2017-09-17T17:23:31Z</time>
      </trkpt>
      <trkpt lat="43.92914" lon="7.6502">
        <ele>236</ele>
        <time>2017-09-17T17:23:32Z</time>
      </trkpt>
      <trkpt lat="43.92907" lon="7.65013">
        <ele>235</ele>
        <time>2017-09-17T17:23:33Z</time>
      </trkpt>
      <trkpt lat="43.929" lon="7.65007">
        <ele>235</ele>
        <time>2017-09-17T17:23:34Z</time>
      </trkpt>
      <trkpt lat="43.92893" lon="7.65001">
        <ele>235</ele>
        <time>2017-09-17T17:23:35Z</time>
      </trkpt>
      <trkpt lat="43.92886" lon="7.64995">
        <ele>235</ele>
        <time>2017-09-17T17:23:36Z</time>
      </trkpt>
      <trkpt lat="43.92879" lon="7.64989">
        <ele>234</ele>
        <time>2017-09-17T17:23:37Z</time>
      </trkpt>
      <trkpt lat="43.92872" lon="7.64983">
        <ele>234</ele>
        <time>2017-09-17T17:23:38Z</time>
      </trkpt>
      <trkpt lat="43.92865" lon="7.64977">
        <ele>233</ele>
        <time>2017-09-17T17:23:39Z</time>
      </trkpt>
      <trkpt lat="43.92858" lon="7.64971">
        <ele>233</ele>
        <time>2017-09-17T17:23:40Z</time>
      </trkpt>
      <trkpt lat="43.92851" lon="7.64965">
        <ele>232</ele>
        <time>2017-09-17T17:23:41Z</time>
      </trkpt>
      <trkpt lat="43.92844" lon="7.64959">
        <ele>232</ele>
        <time>2017-09-17T17:23:42Z</time>
      </trkpt>
      <trkpt lat="43.92836" lon="7.64953">
        <ele>231</ele>
        <time>2017-09-17T17:23:43Z</time>
      </trkpt>
      <trkpt lat="43.92829" lon="7.64947">
        <ele>231</ele>
        <time>2017-09-17T17:23:44Z</time>
      </trkpt>
      <trkpt lat="43.92822" lon="7.64941">
        <ele>230</ele>
        <time>2017-09-17T17:23:45Z</time>
      </trkpt>
      <trkpt lat="43.92814" lon="7.64935">
        <ele>230</ele>
        <time>2017-09-17T17:23:46Z</time>
      </trkpt>
      <trkpt lat="43.92806" lon="7.64928">
        <ele>230</ele>
        <time>2017-09-17T17:23:47Z</time>
      </trkpt>
      <trkpt lat="43.92799" lon="7.64922">
        <ele>229</ele>
        <time>2017-09-17T17:23:48Z</time>
      </trkpt>
      <trkpt lat="43.92791" lon="7.64916">
        <ele>229</ele>
        <time>2017-09-17T17:23:49Z</time>
      </trkpt>
      <trkpt lat="43.92784" lon="7.6491">
        <ele>228</ele>
        <time>2017-09-17T17:23:50Z</time>
      </trkpt>
      <trkpt lat="43.92776" lon="7.64904">
        <ele>228</ele>
        <time>2017-09-17T17:23:51Z</time>
      </trkpt>
      <trkpt lat="43.92768" lon="7.64898">
        <ele>227</ele>
        <time>2017-09-17T17:23:52Z</time>
      </trkpt>
      <trkpt lat="43.92761" lon="7.64891">
        <ele>227</ele>
        <time>2017-09-17T17:23:53Z</time>
      </trkpt>
      <trkpt lat="43.92754" lon="7.64884">
        <ele>226</ele>
        <time>2017-09-17T17:23:54Z</time>
      </trkpt>
      <trkpt lat="43.92746" lon="7.64876">
        <ele>226</ele>
        <time>2017-09-17T17:23:55Z</time>
      </trkpt>
      <trkpt lat="43.9274" lon="7.64867">
        <ele>225</ele>
        <time>2017-09-17T17:23:56Z</time>
      </trkpt>
      <trkpt lat="43.92733" lon="7.64858">
        <ele>225</ele>
        <time>2017-09-17T17:23:57Z</time>
      </trkpt>
      <trkpt lat="43.92727" lon="7.64848">
        <ele>224</ele>
        <time>2017-09-17T17:23:58Z</time>
      </trkpt>
      <trkpt lat="43.92722" lon="7.64837">
        <ele>224</ele>
        <time>2017-09-17T17:23:59Z</time>
      </trkpt>
      <trkpt lat="43.92716" lon="7.64826">
        <ele>223</ele>
        <time>2017-09-17T17:24:00Z</time>
      </trkpt>
      <trkpt lat="43.9271" lon="7.64815">
        <ele>223</ele>
        <time>2017-09-17T17:24:01Z</time>
      </trkpt>
      <trkpt lat="43.92704" lon="7.64804">
        <ele>222</ele>
        <time>2017-09-17T17:24:02Z</time>
      </trkpt>
      <trkpt lat="43.92697" lon="7.64794">
        <ele>222</ele>
        <time>2017-09-17T17:24:03Z</time>
      </trkpt>
      <trkpt lat="43.9269" lon="7.64784">
        <ele>221</ele>
        <time>2017-09-17T17:24:04Z</time>
      </trkpt>
      <trkpt lat="43.92683" lon="7.64773">
        <ele>221</ele>
        <time>2017-09-17T17:24:05Z</time>
      </trkpt>
      <trkpt lat="43.92676" lon="7.64764">
        <ele>220</ele>
        <time>2017-09-17T17:24:06Z</time>
      </trkpt>
      <trkpt lat="43.92668" lon="7.64754">
        <ele>220</ele>
        <time>2017-09-17T17:24:07Z</time>
      </trkpt>
      <trkpt lat="43.92661" lon="7.64745">
        <ele>219</ele>
        <time>2017-09-17T17:24:08Z</time>
      </trkpt>
      <trkpt lat="43.92653" lon="7.64736">
        <ele>219</ele>
        <time>2017-09-17T17:24:09Z</time>
      </trkpt>
      <trkpt lat="43.92644" lon="7.64729">
        <ele>218</ele>
        <time>2017-09-17T17:24:10Z</time>
      </trkpt>
      <trkpt lat="43.92635" lon="7.64724">
        <ele>218</ele>
        <time>2017-09-17T17:24:11Z</time>
      </trkpt>
      <trkpt lat="43.92626" lon="7.64721">
        <ele>218</ele>
        <time>2017-09-17T17:24:12Z</time>
      </trkpt>
      <trkpt lat="43.92616" lon="7.64721">
        <ele>217</ele>
        <time>2017-09-17T17:24:13Z</time>
      </trkpt>
      <trkpt lat="43.92607" lon="7.64722">
        <ele>217</ele>
        <time>2017-09-17T17:24:14Z</time>
      </trkpt>
      <trkpt lat="43.92597" lon="7.64725">
        <ele>217</ele>
        <time>2017-09-17T17:24:15Z</time>
      </trkpt>
      <trkpt lat="43.92588" lon="7.64729">
        <ele>216</ele>
        <time>2017-09-17T17:24:16Z</time>
      </trkpt>
      <trkpt lat="43.92579" lon="7.64733">
        <ele>216</ele>
        <time>2017-09-17T17:24:17Z</time>
      </trkpt>
      <trkpt lat="43.9257" lon="7.64738">
        <ele>216</ele>
        <time>2017-09-17T17:24:18Z</time>
      </trkpt>
      <trkpt lat="43.92561" lon="7.64744">
        <ele>215</ele>
        <time>2017-09-17T17:24:19Z</time>
      </trkpt>
      <trkpt lat="43.92553" lon="7.64751">
        <ele>215</ele>
        <time>2017-09-17T17:24:20Z</time>
      </trkpt>
      <trkpt lat="43.92546" lon="7.64758">
        <ele>215</ele>
        <time>2017-09-17T17:24:21Z</time>
      </trkpt>
      <trkpt lat="43.92539" lon="7.64766">
        <ele>214</ele>
        <time>2017-09-17T17:24:22Z</time>
      </trkpt>
      <trkpt lat="43.92533" lon="7.64775">
        <ele>214</ele>
        <time>2017-09-17T17:24:23Z</time>
      </trkpt>
      <trkpt lat="43.92528" lon="7.64785">
        <ele>214</ele>
        <time>2017-09-17T17:24:24Z</time>
      </trkpt>
      <trkpt lat="43.92523" lon="7.64795">
        <ele>213</ele>
        <time>2017-09-17T17:24:25Z</time>
      </trkpt>
      <trkpt lat="43.92519" lon="7.64805">
        <ele>213</ele>
        <time>2017-09-17T17:24:26Z</time>
      </trkpt>
      <trkpt lat="43.92514" lon="7.64814">
        <ele>213</ele>
        <time>2017-09-17T17:24:27Z</time>
      </trkpt>
      <trkpt lat="43.92508" lon="7.64823">
        <ele>212</ele>
        <time>2017-09-17T17:24:28Z</time>
      </trkpt>
      <trkpt lat="43.92502" lon="7.64829">
        <ele>212</ele>
        <time>2017-09-17T17:24:29Z</time>
      </trkpt>
      <trkpt lat="43.92495" lon="7.64834">
        <ele>212</ele>
        <time>2017-09-17T17:24:30Z</time>
      </trkpt>
      <trkpt lat="43.92488" lon="7.64839">
        <ele>212</ele>
        <time>2017-09-17T17:24:31Z</time>
      </trkpt>
      <trkpt lat="43.92481" lon="7.64844">
        <ele>211</ele>
        <time>2017-09-17T17:24:32Z</time>
      </trkpt>
      <trkpt lat="43.92474" lon="7.64848">
        <ele>211</ele>
        <time>2017-09-17T17:24:33Z</time>
      </trkpt>
      <trkpt lat="43.92466" lon="7.64851">
        <ele>211</ele>
        <time>2017-09-17T17:24:34Z</time>
      </trkpt>
      <trkpt lat="43.92459" lon="7.64853">
        <ele>211</ele>
        <time>2017-09-17T17:24:35Z</time>
      </trkpt>
      <trkpt lat="43.92451" lon="7.64853">
        <ele>210</ele>
        <time>2017-09-17T17:24:36Z</time>
      </trkpt>
      <trkpt lat="43.92443" lon="7.64852">
        <ele>210</ele>
        <time>2017-09-17T17:24:37Z</time>
      </trkpt>
      <trkpt lat="43.92436" lon="7.64849">
        <ele>210</ele>
        <time>2017-09-17T17:24:38Z</time>
      </trkpt>
      <trkpt lat="43.92429" lon="7.64844">
        <ele>209</ele>
        <time>2017-09-17T17:24:39Z</time>
      </trkpt>
      <trkpt lat="43.92422" lon="7.64839">
        <ele>209</ele>
        <time>2017-09-17T17:24:40Z</time>
      </trkpt>
      <trkpt lat="43.92416" lon="7.64832">
        <ele>209</ele>
        <time>2017-09-17T17:24:41Z</time>
      </trkpt>
      <trkpt lat="43.92411" lon="7.64824">
        <ele>209</ele>
        <time>2017-09-17T17:24:42Z</time>
      </trkpt>
      <trkpt lat="43.92407" lon="7.64816">
        <ele>209</ele>
        <time>2017-09-17T17:24:43Z</time>
      </trkpt>
      <trkpt lat="43.92402" lon="7.64807">
        <ele>210</ele>
        <time>2017-09-17T17:24:44Z</time>
      </trkpt>
      <trkpt lat="43.92399" lon="7.648">
        <ele>210</ele>
        <time>2017-09-17T17:24:45Z</time>
      </trkpt>
      <trkpt lat="43.92396" lon="7.64793">
        <ele>210</ele>
        <time>2017-09-17T17:24:46Z</time>
      </trkpt>
      <trkpt lat="43.92393" lon="7.64787">
        <ele>210</ele>
        <time>2017-09-17T17:24:47Z</time>
      </trkpt>
      <trkpt lat="43.92391" lon="7.64783">
        <ele>210</ele>
        <time>2017-09-17T17:24:48Z</time>
      </trkpt>
      <trkpt lat="43.92389" lon="7.64779">
        <ele>211</ele>
        <time>2017-09-17T17:24:49Z</time>
      </trkpt>
      <trkpt lat="43.92387" lon="7.64775">
        <ele>211</ele>
        <time>2017-09-17T17:24:50Z</time>
      </trkpt>
      <trkpt lat="43.92387" lon="7.64772">
        <ele>211</ele>
        <time>2017-09-17T17:24:51Z</time>
      </trkpt>
      <trkpt lat="43.92386" lon="7.6477">
        <ele>211</ele>
        <time>2017-09-17T17:24:52Z</time>
      </trkpt>
      <trkpt lat="43.92386" lon="7.64769">
        <ele>211</ele>
        <time>2017-09-17T17:24:53Z</time>
      </trkpt>
      <trkpt lat="43.92386" lon="7.64769">
        <ele>211</ele>
        <time>2017-09-17T17:24:54Z</time>
      </trkpt>
      <trkpt lat="43.92386" lon="7.64769">
        <ele>211</ele>
        <time>2017-09-17T17:24:55Z</time>
      </trkpt>
      <trkpt lat="43.92386" lon="7.64769">
        <ele>211</ele>
        <time>2017-09-17T17:24:56Z</time>
      </trkpt>
      <trkpt lat="43.92386" lon="7.64769">
        <ele>211</ele>
        <time>2017-09-17T17:24:57Z</time>
      </trkpt>
      <trkpt lat="43.92386" lon="7.64769">
        <ele>211</ele>
        <time>2017-09-17T17:24:58Z</time>
      </trkpt>
      <trkpt lat="43.92386" lon="7.64768">
        <ele>211</ele>
        <time>2017-09-17T17:24:59Z</time>
      </trkpt>
      <trkpt lat="43.92386" lon="7.64768">
        <ele>211</ele>
        <time>2017-09-17T17:25:00Z</time>
      </trkpt>
      <trkpt lat="43.92386" lon="7.64767">
        <ele>211</ele>
        <time>2017-09-17T17:25:01Z</time>
      </trkpt>
      <trkpt lat="43.92387" lon="7.64767">
        <ele>211</ele>
        <time>2017-09-17T17:25:02Z</time>
      </trkpt>
    </trkseg>
  </trk>
</gpx>